<?xml version="1.0" encoding="UTF-8" standalone="no" ?>
<gpx xmlns="http://www.topografix.com/GPX/1/1" xmlns:xsi="http://www.w3.org/2001/XMLSchema-instance" xsi:schemaLocation="http://www.topografix.com/GPX/1/1 http://www.topografix.com/GPX/1/1/gpx.xsd" version="1.1" creator="VisuGPX - https://www.visugpx.com">
  <metadata>
    <name>Descente de la Mouline - Issarbe</name>
    <desc><![CDATA[Départ du village de la Mouline 64570 Arette pour une longue montée par une piste forestiere de 9 kms et un pourcentage de 12% en moyenne. Arrivée vers le col d'Issarbe prenez un single très technique et engagé balisage noir. Parcours physique et maitrise du pilotage exigé. Du vrai vtt enduro
]]></desc>
  </metadata>
  <trk>
    <name><![CDATA[Pyrenees-Atlantiques Cycling]]></name>
    <extensions>
      <line xmlns="http://www.topografix.com/GPX/gpx_style/0/2">
        <color>0000FF</color>
        <width>4</width>
      </line>
    </extensions>
    <trkseg>
      <trkpt lat="43.04521" lon="-0.75237">
        <ele>472.1</ele>
        <time>2021-12-29T10:47:03.000Z</time>
      </trkpt>
      <trkpt lat="43.04521" lon="-0.75237">
        <ele>472.1</ele>
        <time>2021-12-29T10:47:04.000Z</time>
      </trkpt>
      <trkpt lat="43.04521" lon="-0.75237">
        <ele>472.1</ele>
        <time>2021-12-29T10:47:05.000Z</time>
      </trkpt>
      <trkpt lat="43.04521" lon="-0.75237">
        <ele>472.1</ele>
        <time>2021-12-29T10:47:06.000Z</time>
      </trkpt>
      <trkpt lat="43.04521" lon="-0.75236">
        <ele>472.1</ele>
        <time>2021-12-29T10:47:07.000Z</time>
      </trkpt>
      <trkpt lat="43.04521" lon="-0.75236">
        <ele>472.1</ele>
        <time>2021-12-29T10:50:19.000Z</time>
      </trkpt>
      <trkpt lat="43.04494" lon="-0.75214">
        <ele>501.8</ele>
        <time>2021-12-29T10:50:20.000Z</time>
      </trkpt>
      <trkpt lat="43.04491" lon="-0.75214">
        <ele>501.8</ele>
        <time>2021-12-29T10:50:21.000Z</time>
      </trkpt>
      <trkpt lat="43.04489" lon="-0.75214">
        <ele>501.8</ele>
        <time>2021-12-29T10:50:22.000Z</time>
      </trkpt>
      <trkpt lat="43.04487" lon="-0.75215">
        <ele>502</ele>
        <time>2021-12-29T10:50:23.000Z</time>
      </trkpt>
      <trkpt lat="43.04485" lon="-0.75215">
        <ele>502</ele>
        <time>2021-12-29T10:50:24.000Z</time>
      </trkpt>
      <trkpt lat="43.0448" lon="-0.75214">
        <ele>502</ele>
        <time>2021-12-29T10:50:26.000Z</time>
      </trkpt>
      <trkpt lat="43.04478" lon="-0.75214">
        <ele>502</ele>
        <time>2021-12-29T10:50:27.000Z</time>
      </trkpt>
      <trkpt lat="43.04476" lon="-0.75213">
        <ele>502</ele>
        <time>2021-12-29T10:50:28.000Z</time>
      </trkpt>
      <trkpt lat="43.04474" lon="-0.75213">
        <ele>502.2</ele>
        <time>2021-12-29T10:50:29.000Z</time>
      </trkpt>
      <trkpt lat="43.04472" lon="-0.75214">
        <ele>502.2</ele>
        <time>2021-12-29T10:50:30.000Z</time>
      </trkpt>
      <trkpt lat="43.0447" lon="-0.75213">
        <ele>502.2</ele>
        <time>2021-12-29T10:50:32.000Z</time>
      </trkpt>
      <trkpt lat="43.04465" lon="-0.75212">
        <ele>502.2</ele>
        <time>2021-12-29T10:50:33.000Z</time>
      </trkpt>
      <trkpt lat="43.04461" lon="-0.75209">
        <ele>502.4</ele>
        <time>2021-12-29T10:50:35.000Z</time>
      </trkpt>
      <trkpt lat="43.04461" lon="-0.75209">
        <ele>502.4</ele>
        <time>2021-12-29T10:50:36.000Z</time>
      </trkpt>
      <trkpt lat="43.04457" lon="-0.75205">
        <ele>502.4</ele>
        <time>2021-12-29T10:50:37.000Z</time>
      </trkpt>
      <trkpt lat="43.04454" lon="-0.75203">
        <ele>502.6</ele>
        <time>2021-12-29T10:50:39.000Z</time>
      </trkpt>
      <trkpt lat="43.04452" lon="-0.75201">
        <ele>502.6</ele>
        <time>2021-12-29T10:50:40.000Z</time>
      </trkpt>
      <trkpt lat="43.04448" lon="-0.75196">
        <ele>502.8</ele>
        <time>2021-12-29T10:50:41.000Z</time>
      </trkpt>
      <trkpt lat="43.04448" lon="-0.75196">
        <ele>502.8</ele>
        <time>2021-12-29T10:50:42.000Z</time>
      </trkpt>
      <trkpt lat="43.04444" lon="-0.75191">
        <ele>503</ele>
        <time>2021-12-29T10:50:43.000Z</time>
      </trkpt>
      <trkpt lat="43.04444" lon="-0.75191">
        <ele>503</ele>
        <time>2021-12-29T10:50:44.000Z</time>
      </trkpt>
      <trkpt lat="43.0444" lon="-0.75184">
        <ele>503.2</ele>
        <time>2021-12-29T10:50:45.000Z</time>
      </trkpt>
      <trkpt lat="43.04438" lon="-0.75182">
        <ele>503.2</ele>
        <time>2021-12-29T10:50:46.000Z</time>
      </trkpt>
      <trkpt lat="43.04436" lon="-0.7518">
        <ele>503.4</ele>
        <time>2021-12-29T10:50:48.000Z</time>
      </trkpt>
      <trkpt lat="43.04434" lon="-0.75173">
        <ele>503.4</ele>
        <time>2021-12-29T10:50:49.000Z</time>
      </trkpt>
      <trkpt lat="43.04433" lon="-0.75169">
        <ele>503.4</ele>
        <time>2021-12-29T10:50:50.000Z</time>
      </trkpt>
      <trkpt lat="43.04431" lon="-0.75166">
        <ele>503.6</ele>
        <time>2021-12-29T10:50:52.000Z</time>
      </trkpt>
      <trkpt lat="43.04428" lon="-0.75158">
        <ele>503.6</ele>
        <time>2021-12-29T10:50:53.000Z</time>
      </trkpt>
      <trkpt lat="43.04428" lon="-0.75158">
        <ele>503.8</ele>
        <time>2021-12-29T10:50:54.000Z</time>
      </trkpt>
      <trkpt lat="43.04424" lon="-0.7515">
        <ele>503.8</ele>
        <time>2021-12-29T10:50:55.000Z</time>
      </trkpt>
      <trkpt lat="43.04424" lon="-0.7515">
        <ele>504</ele>
        <time>2021-12-29T10:50:56.000Z</time>
      </trkpt>
      <trkpt lat="43.04421" lon="-0.75143">
        <ele>504</ele>
        <time>2021-12-29T10:50:57.000Z</time>
      </trkpt>
      <trkpt lat="43.04421" lon="-0.75143">
        <ele>504.2</ele>
        <time>2021-12-29T10:50:58.000Z</time>
      </trkpt>
      <trkpt lat="43.04416" lon="-0.75137">
        <ele>504.2</ele>
        <time>2021-12-29T10:50:59.000Z</time>
      </trkpt>
      <trkpt lat="43.04414" lon="-0.75134">
        <ele>504.4</ele>
        <time>2021-12-29T10:51:00.000Z</time>
      </trkpt>
      <trkpt lat="43.04412" lon="-0.7513">
        <ele>504.6</ele>
        <time>2021-12-29T10:51:02.000Z</time>
      </trkpt>
      <trkpt lat="43.04407" lon="-0.75123">
        <ele>504.8</ele>
        <time>2021-12-29T10:51:03.000Z</time>
      </trkpt>
      <trkpt lat="43.04405" lon="-0.75119">
        <ele>504.8</ele>
        <time>2021-12-29T10:51:04.000Z</time>
      </trkpt>
      <trkpt lat="43.04405" lon="-0.75119">
        <ele>505</ele>
        <time>2021-12-29T10:51:05.000Z</time>
      </trkpt>
      <trkpt lat="43.04401" lon="-0.75113">
        <ele>505.2</ele>
        <time>2021-12-29T10:51:06.000Z</time>
      </trkpt>
      <trkpt lat="43.04398" lon="-0.75111">
        <ele>505.4</ele>
        <time>2021-12-29T10:51:07.000Z</time>
      </trkpt>
      <trkpt lat="43.04396" lon="-0.75109">
        <ele>505.6</ele>
        <time>2021-12-29T10:51:08.000Z</time>
      </trkpt>
      <trkpt lat="43.04394" lon="-0.75106">
        <ele>505.8</ele>
        <time>2021-12-29T10:51:09.000Z</time>
      </trkpt>
      <trkpt lat="43.04392" lon="-0.75103">
        <ele>506</ele>
        <time>2021-12-29T10:51:10.000Z</time>
      </trkpt>
      <trkpt lat="43.04388" lon="-0.75098">
        <ele>506.2</ele>
        <time>2021-12-29T10:51:12.000Z</time>
      </trkpt>
      <trkpt lat="43.04386" lon="-0.75095">
        <ele>506.4</ele>
        <time>2021-12-29T10:51:13.000Z</time>
      </trkpt>
      <trkpt lat="43.04384" lon="-0.75094">
        <ele>506.6</ele>
        <time>2021-12-29T10:51:14.000Z</time>
      </trkpt>
      <trkpt lat="43.04382" lon="-0.75093">
        <ele>506.8</ele>
        <time>2021-12-29T10:51:15.000Z</time>
      </trkpt>
      <trkpt lat="43.0438" lon="-0.75091">
        <ele>507</ele>
        <time>2021-12-29T10:51:17.000Z</time>
      </trkpt>
      <trkpt lat="43.04377" lon="-0.75088">
        <ele>507.4</ele>
        <time>2021-12-29T10:51:18.000Z</time>
      </trkpt>
      <trkpt lat="43.04375" lon="-0.75085">
        <ele>507.4</ele>
        <time>2021-12-29T10:51:20.000Z</time>
      </trkpt>
      <trkpt lat="43.04371" lon="-0.75082">
        <ele>508</ele>
        <time>2021-12-29T10:51:21.000Z</time>
      </trkpt>
      <trkpt lat="43.0437" lon="-0.7508">
        <ele>508.2</ele>
        <time>2021-12-29T10:51:22.000Z</time>
      </trkpt>
      <trkpt lat="43.04368" lon="-0.75078">
        <ele>508.2</ele>
        <time>2021-12-29T10:51:23.000Z</time>
      </trkpt>
      <trkpt lat="43.04366" lon="-0.75077">
        <ele>508.6</ele>
        <time>2021-12-29T10:51:24.000Z</time>
      </trkpt>
      <trkpt lat="43.04364" lon="-0.75075">
        <ele>508.8</ele>
        <time>2021-12-29T10:51:25.000Z</time>
      </trkpt>
      <trkpt lat="43.0436" lon="-0.75073">
        <ele>509.2</ele>
        <time>2021-12-29T10:51:26.000Z</time>
      </trkpt>
      <trkpt lat="43.0436" lon="-0.75073">
        <ele>509.4</ele>
        <time>2021-12-29T10:51:28.000Z</time>
      </trkpt>
      <trkpt lat="43.04355" lon="-0.75071">
        <ele>509.6</ele>
        <time>2021-12-29T10:51:29.000Z</time>
      </trkpt>
      <trkpt lat="43.04353" lon="-0.7507">
        <ele>509.8</ele>
        <time>2021-12-29T10:51:30.000Z</time>
      </trkpt>
      <trkpt lat="43.04351" lon="-0.7507">
        <ele>510.2</ele>
        <time>2021-12-29T10:51:32.000Z</time>
      </trkpt>
      <trkpt lat="43.04347" lon="-0.75069">
        <ele>510.4</ele>
        <time>2021-12-29T10:51:33.000Z</time>
      </trkpt>
      <trkpt lat="43.04345" lon="-0.75068">
        <ele>510.6</ele>
        <time>2021-12-29T10:51:34.000Z</time>
      </trkpt>
      <trkpt lat="43.04343" lon="-0.75068">
        <ele>510.6</ele>
        <time>2021-12-29T10:51:35.000Z</time>
      </trkpt>
      <trkpt lat="43.04339" lon="-0.75067">
        <ele>510.8</ele>
        <time>2021-12-29T10:51:36.000Z</time>
      </trkpt>
      <trkpt lat="43.04339" lon="-0.75067">
        <ele>511</ele>
        <time>2021-12-29T10:51:38.000Z</time>
      </trkpt>
      <trkpt lat="43.04334" lon="-0.75066">
        <ele>511.2</ele>
        <time>2021-12-29T10:51:39.000Z</time>
      </trkpt>
      <trkpt lat="43.04332" lon="-0.75066">
        <ele>511.4</ele>
        <time>2021-12-29T10:51:40.000Z</time>
      </trkpt>
      <trkpt lat="43.04329" lon="-0.75065">
        <ele>511.4</ele>
        <time>2021-12-29T10:51:41.000Z</time>
      </trkpt>
      <trkpt lat="43.04326" lon="-0.75065">
        <ele>511.4</ele>
        <time>2021-12-29T10:51:42.000Z</time>
      </trkpt>
      <trkpt lat="43.04323" lon="-0.75065">
        <ele>511.6</ele>
        <time>2021-12-29T10:51:43.000Z</time>
      </trkpt>
      <trkpt lat="43.04321" lon="-0.75065">
        <ele>511.6</ele>
        <time>2021-12-29T10:51:44.000Z</time>
      </trkpt>
      <trkpt lat="43.04318" lon="-0.75065">
        <ele>511.8</ele>
        <time>2021-12-29T10:51:45.000Z</time>
      </trkpt>
      <trkpt lat="43.04315" lon="-0.75066">
        <ele>511</ele>
        <time>2021-12-29T10:51:46.000Z</time>
      </trkpt>
      <trkpt lat="43.04312" lon="-0.75066">
        <ele>512.6</ele>
        <time>2021-12-29T10:51:47.000Z</time>
      </trkpt>
      <trkpt lat="43.04309" lon="-0.75066">
        <ele>512.2</ele>
        <time>2021-12-29T10:51:48.000Z</time>
      </trkpt>
      <trkpt lat="43.04307" lon="-0.75067">
        <ele>512.2</ele>
        <time>2021-12-29T10:51:49.000Z</time>
      </trkpt>
      <trkpt lat="43.04304" lon="-0.75067">
        <ele>512.2</ele>
        <time>2021-12-29T10:51:50.000Z</time>
      </trkpt>
      <trkpt lat="43.04302" lon="-0.75067">
        <ele>512.4</ele>
        <time>2021-12-29T10:51:51.000Z</time>
      </trkpt>
      <trkpt lat="43.043" lon="-0.75068">
        <ele>512.6</ele>
        <time>2021-12-29T10:51:52.000Z</time>
      </trkpt>
      <trkpt lat="43.04297" lon="-0.75069">
        <ele>512.6</ele>
        <time>2021-12-29T10:51:54.000Z</time>
      </trkpt>
      <trkpt lat="43.04292" lon="-0.75071">
        <ele>513</ele>
        <time>2021-12-29T10:51:55.000Z</time>
      </trkpt>
      <trkpt lat="43.04292" lon="-0.75071">
        <ele>513.2</ele>
        <time>2021-12-29T10:51:56.000Z</time>
      </trkpt>
      <trkpt lat="43.04288" lon="-0.75073">
        <ele>513.4</ele>
        <time>2021-12-29T10:51:57.000Z</time>
      </trkpt>
      <trkpt lat="43.04286" lon="-0.75074">
        <ele>513.4</ele>
        <time>2021-12-29T10:51:58.000Z</time>
      </trkpt>
      <trkpt lat="43.04284" lon="-0.75075">
        <ele>513.6</ele>
        <time>2021-12-29T10:51:59.000Z</time>
      </trkpt>
      <trkpt lat="43.04281" lon="-0.75076">
        <ele>513.8</ele>
        <time>2021-12-29T10:52:00.000Z</time>
      </trkpt>
      <trkpt lat="43.04279" lon="-0.75076">
        <ele>514</ele>
        <time>2021-12-29T10:52:01.000Z</time>
      </trkpt>
      <trkpt lat="43.04276" lon="-0.75077">
        <ele>514.2</ele>
        <time>2021-12-29T10:52:02.000Z</time>
      </trkpt>
      <trkpt lat="43.04274" lon="-0.75078">
        <ele>514.4</ele>
        <time>2021-12-29T10:52:03.000Z</time>
      </trkpt>
      <trkpt lat="43.04272" lon="-0.75079">
        <ele>514.6</ele>
        <time>2021-12-29T10:52:04.000Z</time>
      </trkpt>
      <trkpt lat="43.0427" lon="-0.75081">
        <ele>514.8</ele>
        <time>2021-12-29T10:52:05.000Z</time>
      </trkpt>
      <trkpt lat="43.04268" lon="-0.75083">
        <ele>514.8</ele>
        <time>2021-12-29T10:52:06.000Z</time>
      </trkpt>
      <trkpt lat="43.04266" lon="-0.75084">
        <ele>515</ele>
        <time>2021-12-29T10:52:07.000Z</time>
      </trkpt>
      <trkpt lat="43.04264" lon="-0.75085">
        <ele>515.2</ele>
        <time>2021-12-29T10:52:08.000Z</time>
      </trkpt>
      <trkpt lat="43.04262" lon="-0.75087">
        <ele>515.2</ele>
        <time>2021-12-29T10:52:09.000Z</time>
      </trkpt>
      <trkpt lat="43.04259" lon="-0.75088">
        <ele>515.4</ele>
        <time>2021-12-29T10:52:10.000Z</time>
      </trkpt>
      <trkpt lat="43.04256" lon="-0.75088">
        <ele>515.6</ele>
        <time>2021-12-29T10:52:11.000Z</time>
      </trkpt>
      <trkpt lat="43.04253" lon="-0.75089">
        <ele>515.6</ele>
        <time>2021-12-29T10:52:12.000Z</time>
      </trkpt>
      <trkpt lat="43.04251" lon="-0.7509">
        <ele>515.6</ele>
        <time>2021-12-29T10:52:13.000Z</time>
      </trkpt>
      <trkpt lat="43.04248" lon="-0.7509">
        <ele>515.8</ele>
        <time>2021-12-29T10:52:14.000Z</time>
      </trkpt>
      <trkpt lat="43.04245" lon="-0.75091">
        <ele>515.8</ele>
        <time>2021-12-29T10:52:15.000Z</time>
      </trkpt>
      <trkpt lat="43.04242" lon="-0.75092">
        <ele>515.8</ele>
        <time>2021-12-29T10:52:16.000Z</time>
      </trkpt>
      <trkpt lat="43.04239" lon="-0.75092">
        <ele>516</ele>
        <time>2021-12-29T10:52:17.000Z</time>
      </trkpt>
      <trkpt lat="43.04236" lon="-0.75093">
        <ele>516</ele>
        <time>2021-12-29T10:52:18.000Z</time>
      </trkpt>
      <trkpt lat="43.04233" lon="-0.75093">
        <ele>516</ele>
        <time>2021-12-29T10:52:19.000Z</time>
      </trkpt>
      <trkpt lat="43.04233" lon="-0.75093">
        <ele>516</ele>
        <time>2021-12-29T10:52:20.000Z</time>
      </trkpt>
      <trkpt lat="43.04228" lon="-0.75094">
        <ele>516.2</ele>
        <time>2021-12-29T10:52:21.000Z</time>
      </trkpt>
      <trkpt lat="43.04225" lon="-0.75094">
        <ele>516.2</ele>
        <time>2021-12-29T10:52:22.000Z</time>
      </trkpt>
      <trkpt lat="43.04222" lon="-0.75094">
        <ele>516.2</ele>
        <time>2021-12-29T10:52:23.000Z</time>
      </trkpt>
      <trkpt lat="43.04219" lon="-0.75094">
        <ele>516.4</ele>
        <time>2021-12-29T10:52:24.000Z</time>
      </trkpt>
      <trkpt lat="43.04217" lon="-0.75093">
        <ele>516.4</ele>
        <time>2021-12-29T10:52:25.000Z</time>
      </trkpt>
      <trkpt lat="43.04214" lon="-0.75092">
        <ele>516.4</ele>
        <time>2021-12-29T10:52:26.000Z</time>
      </trkpt>
      <trkpt lat="43.04211" lon="-0.75092">
        <ele>516.6</ele>
        <time>2021-12-29T10:52:27.000Z</time>
      </trkpt>
      <trkpt lat="43.04208" lon="-0.75092">
        <ele>516.6</ele>
        <time>2021-12-29T10:52:28.000Z</time>
      </trkpt>
      <trkpt lat="43.04206" lon="-0.75091">
        <ele>516.8</ele>
        <time>2021-12-29T10:52:29.000Z</time>
      </trkpt>
      <trkpt lat="43.04204" lon="-0.7509">
        <ele>517</ele>
        <time>2021-12-29T10:52:30.000Z</time>
      </trkpt>
      <trkpt lat="43.04201" lon="-0.75089">
        <ele>517</ele>
        <time>2021-12-29T10:52:31.000Z</time>
      </trkpt>
      <trkpt lat="43.04199" lon="-0.75088">
        <ele>517.2</ele>
        <time>2021-12-29T10:52:32.000Z</time>
      </trkpt>
      <trkpt lat="43.04196" lon="-0.75087">
        <ele>517.4</ele>
        <time>2021-12-29T10:52:33.000Z</time>
      </trkpt>
      <trkpt lat="43.04194" lon="-0.75086">
        <ele>517.6</ele>
        <time>2021-12-29T10:52:34.000Z</time>
      </trkpt>
      <trkpt lat="43.04192" lon="-0.75085">
        <ele>517.8</ele>
        <time>2021-12-29T10:52:35.000Z</time>
      </trkpt>
      <trkpt lat="43.04189" lon="-0.75084">
        <ele>517.8</ele>
        <time>2021-12-29T10:52:36.000Z</time>
      </trkpt>
      <trkpt lat="43.04187" lon="-0.75082">
        <ele>518</ele>
        <time>2021-12-29T10:52:37.000Z</time>
      </trkpt>
      <trkpt lat="43.04185" lon="-0.75081">
        <ele>518.2</ele>
        <time>2021-12-29T10:52:38.000Z</time>
      </trkpt>
      <trkpt lat="43.04183" lon="-0.7508">
        <ele>518.4</ele>
        <time>2021-12-29T10:52:39.000Z</time>
      </trkpt>
      <trkpt lat="43.04181" lon="-0.75078">
        <ele>518.6</ele>
        <time>2021-12-29T10:52:40.000Z</time>
      </trkpt>
      <trkpt lat="43.04178" lon="-0.75077">
        <ele>518.8</ele>
        <time>2021-12-29T10:52:41.000Z</time>
      </trkpt>
      <trkpt lat="43.04176" lon="-0.75075">
        <ele>519</ele>
        <time>2021-12-29T10:52:42.000Z</time>
      </trkpt>
      <trkpt lat="43.04174" lon="-0.75074">
        <ele>519.4</ele>
        <time>2021-12-29T10:52:43.000Z</time>
      </trkpt>
      <trkpt lat="43.04172" lon="-0.75072">
        <ele>519.6</ele>
        <time>2021-12-29T10:52:44.000Z</time>
      </trkpt>
      <trkpt lat="43.04172" lon="-0.75072">
        <ele>519.6</ele>
        <time>2021-12-29T10:52:45.000Z</time>
      </trkpt>
      <trkpt lat="43.04169" lon="-0.7507">
        <ele>520</ele>
        <time>2021-12-29T10:52:46.000Z</time>
      </trkpt>
      <trkpt lat="43.04167" lon="-0.75068">
        <ele>520</ele>
        <time>2021-12-29T10:52:47.000Z</time>
      </trkpt>
      <trkpt lat="43.04165" lon="-0.75067">
        <ele>520.2</ele>
        <time>2021-12-29T10:52:48.000Z</time>
      </trkpt>
      <trkpt lat="43.04163" lon="-0.75066">
        <ele>520.4</ele>
        <time>2021-12-29T10:52:49.000Z</time>
      </trkpt>
      <trkpt lat="43.04161" lon="-0.75064">
        <ele>520.4</ele>
        <time>2021-12-29T10:52:50.000Z</time>
      </trkpt>
      <trkpt lat="43.04159" lon="-0.75064">
        <ele>520.6</ele>
        <time>2021-12-29T10:52:51.000Z</time>
      </trkpt>
      <trkpt lat="43.04156" lon="-0.75064">
        <ele>520.6</ele>
        <time>2021-12-29T10:52:52.000Z</time>
      </trkpt>
      <trkpt lat="43.04153" lon="-0.75064">
        <ele>520.8</ele>
        <time>2021-12-29T10:52:53.000Z</time>
      </trkpt>
      <trkpt lat="43.0415" lon="-0.75062">
        <ele>520.8</ele>
        <time>2021-12-29T10:52:54.000Z</time>
      </trkpt>
      <trkpt lat="43.04148" lon="-0.75061">
        <ele>520.8</ele>
        <time>2021-12-29T10:52:55.000Z</time>
      </trkpt>
      <trkpt lat="43.04145" lon="-0.7506">
        <ele>521</ele>
        <time>2021-12-29T10:52:56.000Z</time>
      </trkpt>
      <trkpt lat="43.04143" lon="-0.75059">
        <ele>521</ele>
        <time>2021-12-29T10:52:57.000Z</time>
      </trkpt>
      <trkpt lat="43.0414" lon="-0.75057">
        <ele>521</ele>
        <time>2021-12-29T10:52:58.000Z</time>
      </trkpt>
      <trkpt lat="43.04138" lon="-0.75056">
        <ele>521.2</ele>
        <time>2021-12-29T10:52:59.000Z</time>
      </trkpt>
      <trkpt lat="43.04136" lon="-0.75055">
        <ele>521.2</ele>
        <time>2021-12-29T10:53:00.000Z</time>
      </trkpt>
      <trkpt lat="43.04134" lon="-0.75053">
        <ele>521.2</ele>
        <time>2021-12-29T10:53:01.000Z</time>
      </trkpt>
      <trkpt lat="43.04131" lon="-0.75052">
        <ele>521.2</ele>
        <time>2021-12-29T10:53:02.000Z</time>
      </trkpt>
      <trkpt lat="43.04129" lon="-0.75051">
        <ele>521.4</ele>
        <time>2021-12-29T10:53:03.000Z</time>
      </trkpt>
      <trkpt lat="43.04127" lon="-0.7505">
        <ele>521.4</ele>
        <time>2021-12-29T10:53:04.000Z</time>
      </trkpt>
      <trkpt lat="43.04125" lon="-0.75048">
        <ele>521.6</ele>
        <time>2021-12-29T10:53:05.000Z</time>
      </trkpt>
      <trkpt lat="43.04122" lon="-0.75046">
        <ele>521.6</ele>
        <time>2021-12-29T10:53:06.000Z</time>
      </trkpt>
      <trkpt lat="43.0412" lon="-0.75044">
        <ele>521.6</ele>
        <time>2021-12-29T10:53:07.000Z</time>
      </trkpt>
      <trkpt lat="43.04118" lon="-0.75042">
        <ele>521.8</ele>
        <time>2021-12-29T10:53:08.000Z</time>
      </trkpt>
      <trkpt lat="43.04116" lon="-0.75041">
        <ele>522</ele>
        <time>2021-12-29T10:53:09.000Z</time>
      </trkpt>
      <trkpt lat="43.04115" lon="-0.75039">
        <ele>522</ele>
        <time>2021-12-29T10:53:10.000Z</time>
      </trkpt>
      <trkpt lat="43.04113" lon="-0.75038">
        <ele>522</ele>
        <time>2021-12-29T10:53:11.000Z</time>
      </trkpt>
      <trkpt lat="43.0411" lon="-0.75036">
        <ele>522.2</ele>
        <time>2021-12-29T10:53:12.000Z</time>
      </trkpt>
      <trkpt lat="43.04108" lon="-0.75033">
        <ele>522.4</ele>
        <time>2021-12-29T10:53:13.000Z</time>
      </trkpt>
      <trkpt lat="43.04107" lon="-0.75031">
        <ele>522.4</ele>
        <time>2021-12-29T10:53:14.000Z</time>
      </trkpt>
      <trkpt lat="43.04104" lon="-0.75028">
        <ele>522.6</ele>
        <time>2021-12-29T10:53:15.000Z</time>
      </trkpt>
      <trkpt lat="43.04102" lon="-0.75025">
        <ele>522.8</ele>
        <time>2021-12-29T10:53:16.000Z</time>
      </trkpt>
      <trkpt lat="43.041" lon="-0.75023">
        <ele>523</ele>
        <time>2021-12-29T10:53:17.000Z</time>
      </trkpt>
      <trkpt lat="43.04098" lon="-0.7502">
        <ele>523.2</ele>
        <time>2021-12-29T10:53:18.000Z</time>
      </trkpt>
      <trkpt lat="43.04096" lon="-0.75018">
        <ele>523.6</ele>
        <time>2021-12-29T10:53:19.000Z</time>
      </trkpt>
      <trkpt lat="43.04094" lon="-0.75016">
        <ele>523.6</ele>
        <time>2021-12-29T10:53:20.000Z</time>
      </trkpt>
      <trkpt lat="43.04092" lon="-0.75015">
        <ele>523.8</ele>
        <time>2021-12-29T10:53:21.000Z</time>
      </trkpt>
      <trkpt lat="43.0409" lon="-0.75013">
        <ele>524</ele>
        <time>2021-12-29T10:53:22.000Z</time>
      </trkpt>
      <trkpt lat="43.04089" lon="-0.75011">
        <ele>524.2</ele>
        <time>2021-12-29T10:53:23.000Z</time>
      </trkpt>
      <trkpt lat="43.04087" lon="-0.75009">
        <ele>524.4</ele>
        <time>2021-12-29T10:53:24.000Z</time>
      </trkpt>
      <trkpt lat="43.04086" lon="-0.75007">
        <ele>524.8</ele>
        <time>2021-12-29T10:53:25.000Z</time>
      </trkpt>
      <trkpt lat="43.04084" lon="-0.75005">
        <ele>525</ele>
        <time>2021-12-29T10:53:26.000Z</time>
      </trkpt>
      <trkpt lat="43.04083" lon="-0.75002">
        <ele>525.2</ele>
        <time>2021-12-29T10:53:27.000Z</time>
      </trkpt>
      <trkpt lat="43.04081" lon="-0.75">
        <ele>525.6</ele>
        <time>2021-12-29T10:53:28.000Z</time>
      </trkpt>
      <trkpt lat="43.0408" lon="-0.74998">
        <ele>525.8</ele>
        <time>2021-12-29T10:53:29.000Z</time>
      </trkpt>
      <trkpt lat="43.04078" lon="-0.74996">
        <ele>526</ele>
        <time>2021-12-29T10:53:30.000Z</time>
      </trkpt>
      <trkpt lat="43.04076" lon="-0.74994">
        <ele>526.2</ele>
        <time>2021-12-29T10:53:31.000Z</time>
      </trkpt>
      <trkpt lat="43.04075" lon="-0.74992">
        <ele>526.6</ele>
        <time>2021-12-29T10:53:32.000Z</time>
      </trkpt>
      <trkpt lat="43.04073" lon="-0.7499">
        <ele>526.6</ele>
        <time>2021-12-29T10:53:33.000Z</time>
      </trkpt>
      <trkpt lat="43.04071" lon="-0.74989">
        <ele>526.8</ele>
        <time>2021-12-29T10:53:34.000Z</time>
      </trkpt>
      <trkpt lat="43.04069" lon="-0.74987">
        <ele>527</ele>
        <time>2021-12-29T10:53:35.000Z</time>
      </trkpt>
      <trkpt lat="43.04067" lon="-0.74985">
        <ele>527.2</ele>
        <time>2021-12-29T10:53:36.000Z</time>
      </trkpt>
      <trkpt lat="43.04066" lon="-0.74983">
        <ele>527.2</ele>
        <time>2021-12-29T10:53:37.000Z</time>
      </trkpt>
      <trkpt lat="43.04064" lon="-0.74981">
        <ele>527.4</ele>
        <time>2021-12-29T10:53:38.000Z</time>
      </trkpt>
      <trkpt lat="43.04062" lon="-0.74979">
        <ele>527.6</ele>
        <time>2021-12-29T10:53:39.000Z</time>
      </trkpt>
      <trkpt lat="43.0406" lon="-0.74977">
        <ele>527.6</ele>
        <time>2021-12-29T10:53:40.000Z</time>
      </trkpt>
      <trkpt lat="43.04058" lon="-0.74975">
        <ele>527.6</ele>
        <time>2021-12-29T10:53:41.000Z</time>
      </trkpt>
      <trkpt lat="43.04056" lon="-0.74974">
        <ele>527.8</ele>
        <time>2021-12-29T10:53:42.000Z</time>
      </trkpt>
      <trkpt lat="43.04055" lon="-0.74972">
        <ele>527.8</ele>
        <time>2021-12-29T10:53:43.000Z</time>
      </trkpt>
      <trkpt lat="43.04053" lon="-0.7497">
        <ele>528</ele>
        <time>2021-12-29T10:53:44.000Z</time>
      </trkpt>
      <trkpt lat="43.0405" lon="-0.74967">
        <ele>528</ele>
        <time>2021-12-29T10:53:45.000Z</time>
      </trkpt>
      <trkpt lat="43.04048" lon="-0.74965">
        <ele>528</ele>
        <time>2021-12-29T10:53:46.000Z</time>
      </trkpt>
      <trkpt lat="43.04046" lon="-0.74963">
        <ele>528.2</ele>
        <time>2021-12-29T10:53:47.000Z</time>
      </trkpt>
      <trkpt lat="43.04044" lon="-0.74961">
        <ele>528.2</ele>
        <time>2021-12-29T10:53:48.000Z</time>
      </trkpt>
      <trkpt lat="43.04042" lon="-0.74958">
        <ele>528.4</ele>
        <time>2021-12-29T10:53:49.000Z</time>
      </trkpt>
      <trkpt lat="43.04039" lon="-0.74956">
        <ele>528.6</ele>
        <time>2021-12-29T10:53:50.000Z</time>
      </trkpt>
      <trkpt lat="43.04037" lon="-0.74954">
        <ele>528.6</ele>
        <time>2021-12-29T10:53:51.000Z</time>
      </trkpt>
      <trkpt lat="43.04036" lon="-0.74952">
        <ele>528.8</ele>
        <time>2021-12-29T10:53:52.000Z</time>
      </trkpt>
      <trkpt lat="43.04033" lon="-0.7495">
        <ele>528.8</ele>
        <time>2021-12-29T10:53:53.000Z</time>
      </trkpt>
      <trkpt lat="43.04031" lon="-0.74947">
        <ele>529</ele>
        <time>2021-12-29T10:53:54.000Z</time>
      </trkpt>
      <trkpt lat="43.04029" lon="-0.74945">
        <ele>529.2</ele>
        <time>2021-12-29T10:53:55.000Z</time>
      </trkpt>
      <trkpt lat="43.04027" lon="-0.74942">
        <ele>529.2</ele>
        <time>2021-12-29T10:53:56.000Z</time>
      </trkpt>
      <trkpt lat="43.04025" lon="-0.7494">
        <ele>529.4</ele>
        <time>2021-12-29T10:53:57.000Z</time>
      </trkpt>
      <trkpt lat="43.04022" lon="-0.74937">
        <ele>529.6</ele>
        <time>2021-12-29T10:53:58.000Z</time>
      </trkpt>
      <trkpt lat="43.0402" lon="-0.74935">
        <ele>529.8</ele>
        <time>2021-12-29T10:53:59.000Z</time>
      </trkpt>
      <trkpt lat="43.04018" lon="-0.74932">
        <ele>529.8</ele>
        <time>2021-12-29T10:54:00.000Z</time>
      </trkpt>
      <trkpt lat="43.04016" lon="-0.7493">
        <ele>530</ele>
        <time>2021-12-29T10:54:01.000Z</time>
      </trkpt>
      <trkpt lat="43.04014" lon="-0.74928">
        <ele>530.2</ele>
        <time>2021-12-29T10:54:02.000Z</time>
      </trkpt>
      <trkpt lat="43.04012" lon="-0.74926">
        <ele>530.2</ele>
        <time>2021-12-29T10:54:03.000Z</time>
      </trkpt>
      <trkpt lat="43.0401" lon="-0.74923">
        <ele>530.2</ele>
        <time>2021-12-29T10:54:04.000Z</time>
      </trkpt>
      <trkpt lat="43.04008" lon="-0.74921">
        <ele>530.4</ele>
        <time>2021-12-29T10:54:05.000Z</time>
      </trkpt>
      <trkpt lat="43.04005" lon="-0.74919">
        <ele>530.6</ele>
        <time>2021-12-29T10:54:06.000Z</time>
      </trkpt>
      <trkpt lat="43.04003" lon="-0.74917">
        <ele>530.6</ele>
        <time>2021-12-29T10:54:07.000Z</time>
      </trkpt>
      <trkpt lat="43.04001" lon="-0.74916">
        <ele>530.8</ele>
        <time>2021-12-29T10:54:08.000Z</time>
      </trkpt>
      <trkpt lat="43.03998" lon="-0.74914">
        <ele>530.8</ele>
        <time>2021-12-29T10:54:09.000Z</time>
      </trkpt>
      <trkpt lat="43.03996" lon="-0.74912">
        <ele>531</ele>
        <time>2021-12-29T10:54:10.000Z</time>
      </trkpt>
      <trkpt lat="43.03993" lon="-0.74911">
        <ele>531.2</ele>
        <time>2021-12-29T10:54:11.000Z</time>
      </trkpt>
      <trkpt lat="43.03991" lon="-0.74909">
        <ele>531.4</ele>
        <time>2021-12-29T10:54:12.000Z</time>
      </trkpt>
      <trkpt lat="43.03988" lon="-0.74908">
        <ele>531.4</ele>
        <time>2021-12-29T10:54:13.000Z</time>
      </trkpt>
      <trkpt lat="43.03985" lon="-0.74907">
        <ele>531.6</ele>
        <time>2021-12-29T10:54:14.000Z</time>
      </trkpt>
      <trkpt lat="43.03983" lon="-0.74906">
        <ele>531.8</ele>
        <time>2021-12-29T10:54:15.000Z</time>
      </trkpt>
      <trkpt lat="43.0398" lon="-0.74905">
        <ele>531.8</ele>
        <time>2021-12-29T10:54:16.000Z</time>
      </trkpt>
      <trkpt lat="43.03977" lon="-0.74904">
        <ele>532</ele>
        <time>2021-12-29T10:54:17.000Z</time>
      </trkpt>
      <trkpt lat="43.03975" lon="-0.74903">
        <ele>532</ele>
        <time>2021-12-29T10:54:18.000Z</time>
      </trkpt>
      <trkpt lat="43.03972" lon="-0.74903">
        <ele>532.2</ele>
        <time>2021-12-29T10:54:19.000Z</time>
      </trkpt>
      <trkpt lat="43.03969" lon="-0.74902">
        <ele>532.2</ele>
        <time>2021-12-29T10:54:20.000Z</time>
      </trkpt>
      <trkpt lat="43.03966" lon="-0.74901">
        <ele>532.2</ele>
        <time>2021-12-29T10:54:21.000Z</time>
      </trkpt>
      <trkpt lat="43.03964" lon="-0.74901">
        <ele>532.4</ele>
        <time>2021-12-29T10:54:22.000Z</time>
      </trkpt>
      <trkpt lat="43.03961" lon="-0.749">
        <ele>532.4</ele>
        <time>2021-12-29T10:54:23.000Z</time>
      </trkpt>
      <trkpt lat="43.03958" lon="-0.74899">
        <ele>532.4</ele>
        <time>2021-12-29T10:54:24.000Z</time>
      </trkpt>
      <trkpt lat="43.03955" lon="-0.74899">
        <ele>532.4</ele>
        <time>2021-12-29T10:54:25.000Z</time>
      </trkpt>
      <trkpt lat="43.03952" lon="-0.74898">
        <ele>532.6</ele>
        <time>2021-12-29T10:54:26.000Z</time>
      </trkpt>
      <trkpt lat="43.03949" lon="-0.74897">
        <ele>532.6</ele>
        <time>2021-12-29T10:54:27.000Z</time>
      </trkpt>
      <trkpt lat="43.03946" lon="-0.74897">
        <ele>532.6</ele>
        <time>2021-12-29T10:54:28.000Z</time>
      </trkpt>
      <trkpt lat="43.03943" lon="-0.74896">
        <ele>532.6</ele>
        <time>2021-12-29T10:54:29.000Z</time>
      </trkpt>
      <trkpt lat="43.0394" lon="-0.74895">
        <ele>532.8</ele>
        <time>2021-12-29T10:54:30.000Z</time>
      </trkpt>
      <trkpt lat="43.03937" lon="-0.74894">
        <ele>532.8</ele>
        <time>2021-12-29T10:54:31.000Z</time>
      </trkpt>
      <trkpt lat="43.03934" lon="-0.74893">
        <ele>533</ele>
        <time>2021-12-29T10:54:32.000Z</time>
      </trkpt>
      <trkpt lat="43.03932" lon="-0.74892">
        <ele>533</ele>
        <time>2021-12-29T10:54:33.000Z</time>
      </trkpt>
      <trkpt lat="43.03929" lon="-0.74891">
        <ele>533</ele>
        <time>2021-12-29T10:54:34.000Z</time>
      </trkpt>
      <trkpt lat="43.03926" lon="-0.7489">
        <ele>533.2</ele>
        <time>2021-12-29T10:54:35.000Z</time>
      </trkpt>
      <trkpt lat="43.03923" lon="-0.74888">
        <ele>533.2</ele>
        <time>2021-12-29T10:54:36.000Z</time>
      </trkpt>
      <trkpt lat="43.03921" lon="-0.74887">
        <ele>533.4</ele>
        <time>2021-12-29T10:54:37.000Z</time>
      </trkpt>
      <trkpt lat="43.03918" lon="-0.74885">
        <ele>533.4</ele>
        <time>2021-12-29T10:54:38.000Z</time>
      </trkpt>
      <trkpt lat="43.03915" lon="-0.74884">
        <ele>533.6</ele>
        <time>2021-12-29T10:54:39.000Z</time>
      </trkpt>
      <trkpt lat="43.03913" lon="-0.74882">
        <ele>533.8</ele>
        <time>2021-12-29T10:54:40.000Z</time>
      </trkpt>
      <trkpt lat="43.0391" lon="-0.7488">
        <ele>533.8</ele>
        <time>2021-12-29T10:54:41.000Z</time>
      </trkpt>
      <trkpt lat="43.03908" lon="-0.74877">
        <ele>534</ele>
        <time>2021-12-29T10:54:42.000Z</time>
      </trkpt>
      <trkpt lat="43.03905" lon="-0.74875">
        <ele>534</ele>
        <time>2021-12-29T10:54:43.000Z</time>
      </trkpt>
      <trkpt lat="43.03903" lon="-0.74873">
        <ele>534.2</ele>
        <time>2021-12-29T10:54:44.000Z</time>
      </trkpt>
      <trkpt lat="43.03901" lon="-0.74871">
        <ele>534.2</ele>
        <time>2021-12-29T10:54:45.000Z</time>
      </trkpt>
      <trkpt lat="43.03898" lon="-0.74869">
        <ele>534.4</ele>
        <time>2021-12-29T10:54:46.000Z</time>
      </trkpt>
      <trkpt lat="43.03896" lon="-0.74867">
        <ele>534.6</ele>
        <time>2021-12-29T10:54:47.000Z</time>
      </trkpt>
      <trkpt lat="43.03894" lon="-0.74865">
        <ele>534.8</ele>
        <time>2021-12-29T10:54:48.000Z</time>
      </trkpt>
      <trkpt lat="43.03892" lon="-0.74863">
        <ele>535</ele>
        <time>2021-12-29T10:54:49.000Z</time>
      </trkpt>
      <trkpt lat="43.0389" lon="-0.74862">
        <ele>535.2</ele>
        <time>2021-12-29T10:54:50.000Z</time>
      </trkpt>
      <trkpt lat="43.03888" lon="-0.7486">
        <ele>535.4</ele>
        <time>2021-12-29T10:54:51.000Z</time>
      </trkpt>
      <trkpt lat="43.03886" lon="-0.74858">
        <ele>535.6</ele>
        <time>2021-12-29T10:54:52.000Z</time>
      </trkpt>
      <trkpt lat="43.03884" lon="-0.74857">
        <ele>535.8</ele>
        <time>2021-12-29T10:54:53.000Z</time>
      </trkpt>
      <trkpt lat="43.03883" lon="-0.74856">
        <ele>536</ele>
        <time>2021-12-29T10:54:54.000Z</time>
      </trkpt>
      <trkpt lat="43.03881" lon="-0.74855">
        <ele>536.2</ele>
        <time>2021-12-29T10:54:55.000Z</time>
      </trkpt>
      <trkpt lat="43.03879" lon="-0.74854">
        <ele>536.4</ele>
        <time>2021-12-29T10:54:56.000Z</time>
      </trkpt>
      <trkpt lat="43.03878" lon="-0.74852">
        <ele>536.6</ele>
        <time>2021-12-29T10:54:57.000Z</time>
      </trkpt>
      <trkpt lat="43.03876" lon="-0.7485">
        <ele>536.8</ele>
        <time>2021-12-29T10:54:58.000Z</time>
      </trkpt>
      <trkpt lat="43.03874" lon="-0.74848">
        <ele>537.2</ele>
        <time>2021-12-29T10:54:59.000Z</time>
      </trkpt>
      <trkpt lat="43.03873" lon="-0.74846">
        <ele>537.4</ele>
        <time>2021-12-29T10:55:00.000Z</time>
      </trkpt>
      <trkpt lat="43.03871" lon="-0.74845">
        <ele>537.6</ele>
        <time>2021-12-29T10:55:01.000Z</time>
      </trkpt>
      <trkpt lat="43.03869" lon="-0.74843">
        <ele>537.8</ele>
        <time>2021-12-29T10:55:02.000Z</time>
      </trkpt>
      <trkpt lat="43.03867" lon="-0.74842">
        <ele>538</ele>
        <time>2021-12-29T10:55:03.000Z</time>
      </trkpt>
      <trkpt lat="43.03866" lon="-0.7484">
        <ele>538.2</ele>
        <time>2021-12-29T10:55:04.000Z</time>
      </trkpt>
      <trkpt lat="43.03864" lon="-0.74838">
        <ele>538.4</ele>
        <time>2021-12-29T10:55:05.000Z</time>
      </trkpt>
      <trkpt lat="43.03862" lon="-0.74837">
        <ele>538.6</ele>
        <time>2021-12-29T10:55:06.000Z</time>
      </trkpt>
      <trkpt lat="43.0386" lon="-0.74835">
        <ele>538.8</ele>
        <time>2021-12-29T10:55:07.000Z</time>
      </trkpt>
      <trkpt lat="43.03858" lon="-0.74834">
        <ele>539</ele>
        <time>2021-12-29T10:55:08.000Z</time>
      </trkpt>
      <trkpt lat="43.03856" lon="-0.74832">
        <ele>539.2</ele>
        <time>2021-12-29T10:55:09.000Z</time>
      </trkpt>
      <trkpt lat="43.03854" lon="-0.74831">
        <ele>539.4</ele>
        <time>2021-12-29T10:55:10.000Z</time>
      </trkpt>
      <trkpt lat="43.03853" lon="-0.74829">
        <ele>539.6</ele>
        <time>2021-12-29T10:55:11.000Z</time>
      </trkpt>
      <trkpt lat="43.03851" lon="-0.74827">
        <ele>539.8</ele>
        <time>2021-12-29T10:55:12.000Z</time>
      </trkpt>
      <trkpt lat="43.03849" lon="-0.74825">
        <ele>540</ele>
        <time>2021-12-29T10:55:13.000Z</time>
      </trkpt>
      <trkpt lat="43.03847" lon="-0.74824">
        <ele>540</ele>
        <time>2021-12-29T10:55:14.000Z</time>
      </trkpt>
      <trkpt lat="43.03844" lon="-0.74822">
        <ele>540.2</ele>
        <time>2021-12-29T10:55:15.000Z</time>
      </trkpt>
      <trkpt lat="43.03843" lon="-0.7482">
        <ele>540.2</ele>
        <time>2021-12-29T10:55:16.000Z</time>
      </trkpt>
      <trkpt lat="43.03841" lon="-0.74818">
        <ele>540.4</ele>
        <time>2021-12-29T10:55:17.000Z</time>
      </trkpt>
      <trkpt lat="43.03839" lon="-0.74816">
        <ele>540.4</ele>
        <time>2021-12-29T10:55:18.000Z</time>
      </trkpt>
      <trkpt lat="43.03837" lon="-0.74814">
        <ele>540.6</ele>
        <time>2021-12-29T10:55:19.000Z</time>
      </trkpt>
      <trkpt lat="43.03835" lon="-0.74812">
        <ele>540.6</ele>
        <time>2021-12-29T10:55:20.000Z</time>
      </trkpt>
      <trkpt lat="43.03833" lon="-0.7481">
        <ele>540.8</ele>
        <time>2021-12-29T10:55:21.000Z</time>
      </trkpt>
      <trkpt lat="43.03831" lon="-0.74808">
        <ele>540.8</ele>
        <time>2021-12-29T10:55:22.000Z</time>
      </trkpt>
      <trkpt lat="43.03829" lon="-0.74806">
        <ele>540.8</ele>
        <time>2021-12-29T10:55:23.000Z</time>
      </trkpt>
      <trkpt lat="43.03827" lon="-0.74804">
        <ele>541</ele>
        <time>2021-12-29T10:55:24.000Z</time>
      </trkpt>
      <trkpt lat="43.03825" lon="-0.74801">
        <ele>541</ele>
        <time>2021-12-29T10:55:25.000Z</time>
      </trkpt>
      <trkpt lat="43.03824" lon="-0.74799">
        <ele>541.2</ele>
        <time>2021-12-29T10:55:26.000Z</time>
      </trkpt>
      <trkpt lat="43.03822" lon="-0.74797">
        <ele>541.4</ele>
        <time>2021-12-29T10:55:27.000Z</time>
      </trkpt>
      <trkpt lat="43.0382" lon="-0.74795">
        <ele>541.6</ele>
        <time>2021-12-29T10:55:28.000Z</time>
      </trkpt>
      <trkpt lat="43.03819" lon="-0.74792">
        <ele>541.8</ele>
        <time>2021-12-29T10:55:29.000Z</time>
      </trkpt>
      <trkpt lat="43.03818" lon="-0.74789">
        <ele>542</ele>
        <time>2021-12-29T10:55:30.000Z</time>
      </trkpt>
      <trkpt lat="43.03816" lon="-0.74787">
        <ele>542</ele>
        <time>2021-12-29T10:55:31.000Z</time>
      </trkpt>
      <trkpt lat="43.03815" lon="-0.74784">
        <ele>542.2</ele>
        <time>2021-12-29T10:55:32.000Z</time>
      </trkpt>
      <trkpt lat="43.03813" lon="-0.74782">
        <ele>542.4</ele>
        <time>2021-12-29T10:55:33.000Z</time>
      </trkpt>
      <trkpt lat="43.03812" lon="-0.7478">
        <ele>542.6</ele>
        <time>2021-12-29T10:55:34.000Z</time>
      </trkpt>
      <trkpt lat="43.03811" lon="-0.74777">
        <ele>542.8</ele>
        <time>2021-12-29T10:55:35.000Z</time>
      </trkpt>
      <trkpt lat="43.03809" lon="-0.74775">
        <ele>542.8</ele>
        <time>2021-12-29T10:55:36.000Z</time>
      </trkpt>
      <trkpt lat="43.03808" lon="-0.74773">
        <ele>543</ele>
        <time>2021-12-29T10:55:37.000Z</time>
      </trkpt>
      <trkpt lat="43.03806" lon="-0.7477">
        <ele>543</ele>
        <time>2021-12-29T10:55:38.000Z</time>
      </trkpt>
      <trkpt lat="43.03805" lon="-0.74768">
        <ele>543.2</ele>
        <time>2021-12-29T10:55:39.000Z</time>
      </trkpt>
      <trkpt lat="43.03802" lon="-0.74766">
        <ele>543.4</ele>
        <time>2021-12-29T10:55:40.000Z</time>
      </trkpt>
      <trkpt lat="43.03801" lon="-0.74763">
        <ele>543.4</ele>
        <time>2021-12-29T10:55:41.000Z</time>
      </trkpt>
      <trkpt lat="43.03799" lon="-0.74761">
        <ele>543.4</ele>
        <time>2021-12-29T10:55:42.000Z</time>
      </trkpt>
      <trkpt lat="43.03798" lon="-0.74759">
        <ele>543.6</ele>
        <time>2021-12-29T10:55:43.000Z</time>
      </trkpt>
      <trkpt lat="43.03796" lon="-0.74756">
        <ele>543.6</ele>
        <time>2021-12-29T10:55:44.000Z</time>
      </trkpt>
      <trkpt lat="43.03795" lon="-0.74754">
        <ele>543.8</ele>
        <time>2021-12-29T10:55:45.000Z</time>
      </trkpt>
      <trkpt lat="43.03793" lon="-0.74751">
        <ele>544</ele>
        <time>2021-12-29T10:55:46.000Z</time>
      </trkpt>
      <trkpt lat="43.03792" lon="-0.74749">
        <ele>544</ele>
        <time>2021-12-29T10:55:47.000Z</time>
      </trkpt>
      <trkpt lat="43.0379" lon="-0.74746">
        <ele>544.2</ele>
        <time>2021-12-29T10:55:48.000Z</time>
      </trkpt>
      <trkpt lat="43.03789" lon="-0.74744">
        <ele>544.4</ele>
        <time>2021-12-29T10:55:49.000Z</time>
      </trkpt>
      <trkpt lat="43.03787" lon="-0.74742">
        <ele>544.6</ele>
        <time>2021-12-29T10:55:50.000Z</time>
      </trkpt>
      <trkpt lat="43.03786" lon="-0.74739">
        <ele>544.6</ele>
        <time>2021-12-29T10:55:51.000Z</time>
      </trkpt>
      <trkpt lat="43.03784" lon="-0.74737">
        <ele>544.8</ele>
        <time>2021-12-29T10:55:52.000Z</time>
      </trkpt>
      <trkpt lat="43.03783" lon="-0.74735">
        <ele>545</ele>
        <time>2021-12-29T10:55:53.000Z</time>
      </trkpt>
      <trkpt lat="43.03781" lon="-0.74733">
        <ele>545.2</ele>
        <time>2021-12-29T10:55:54.000Z</time>
      </trkpt>
      <trkpt lat="43.0378" lon="-0.74731">
        <ele>545.4</ele>
        <time>2021-12-29T10:55:55.000Z</time>
      </trkpt>
      <trkpt lat="43.03779" lon="-0.74729">
        <ele>545.6</ele>
        <time>2021-12-29T10:55:56.000Z</time>
      </trkpt>
      <trkpt lat="43.03777" lon="-0.74727">
        <ele>545.8</ele>
        <time>2021-12-29T10:55:57.000Z</time>
      </trkpt>
      <trkpt lat="43.03776" lon="-0.74725">
        <ele>546.2</ele>
        <time>2021-12-29T10:55:58.000Z</time>
      </trkpt>
      <trkpt lat="43.03774" lon="-0.74724">
        <ele>546.4</ele>
        <time>2021-12-29T10:55:59.000Z</time>
      </trkpt>
      <trkpt lat="43.03773" lon="-0.74722">
        <ele>546.6</ele>
        <time>2021-12-29T10:56:00.000Z</time>
      </trkpt>
      <trkpt lat="43.03771" lon="-0.74721">
        <ele>546.8</ele>
        <time>2021-12-29T10:56:01.000Z</time>
      </trkpt>
      <trkpt lat="43.0377" lon="-0.7472">
        <ele>547</ele>
        <time>2021-12-29T10:56:02.000Z</time>
      </trkpt>
      <trkpt lat="43.03768" lon="-0.74718">
        <ele>547.2</ele>
        <time>2021-12-29T10:56:03.000Z</time>
      </trkpt>
      <trkpt lat="43.03767" lon="-0.74716">
        <ele>547.4</ele>
        <time>2021-12-29T10:56:04.000Z</time>
      </trkpt>
      <trkpt lat="43.03766" lon="-0.74715">
        <ele>547.8</ele>
        <time>2021-12-29T10:56:05.000Z</time>
      </trkpt>
      <trkpt lat="43.03765" lon="-0.74714">
        <ele>548</ele>
        <time>2021-12-29T10:56:06.000Z</time>
      </trkpt>
      <trkpt lat="43.03763" lon="-0.74712">
        <ele>548.2</ele>
        <time>2021-12-29T10:56:07.000Z</time>
      </trkpt>
      <trkpt lat="43.03762" lon="-0.74711">
        <ele>548.4</ele>
        <time>2021-12-29T10:56:08.000Z</time>
      </trkpt>
      <trkpt lat="43.0376" lon="-0.7471">
        <ele>548.6</ele>
        <time>2021-12-29T10:56:09.000Z</time>
      </trkpt>
      <trkpt lat="43.03759" lon="-0.74708">
        <ele>549</ele>
        <time>2021-12-29T10:56:10.000Z</time>
      </trkpt>
      <trkpt lat="43.03758" lon="-0.74706">
        <ele>549.2</ele>
        <time>2021-12-29T10:56:11.000Z</time>
      </trkpt>
      <trkpt lat="43.03756" lon="-0.74705">
        <ele>549.4</ele>
        <time>2021-12-29T10:56:12.000Z</time>
      </trkpt>
      <trkpt lat="43.03755" lon="-0.74704">
        <ele>549.6</ele>
        <time>2021-12-29T10:56:13.000Z</time>
      </trkpt>
      <trkpt lat="43.03754" lon="-0.74702">
        <ele>549.8</ele>
        <time>2021-12-29T10:56:14.000Z</time>
      </trkpt>
      <trkpt lat="43.03753" lon="-0.74701">
        <ele>550</ele>
        <time>2021-12-29T10:56:15.000Z</time>
      </trkpt>
      <trkpt lat="43.03751" lon="-0.747">
        <ele>550.4</ele>
        <time>2021-12-29T10:56:16.000Z</time>
      </trkpt>
      <trkpt lat="43.0375" lon="-0.74698">
        <ele>550.6</ele>
        <time>2021-12-29T10:56:17.000Z</time>
      </trkpt>
      <trkpt lat="43.03749" lon="-0.74697">
        <ele>550.8</ele>
        <time>2021-12-29T10:56:18.000Z</time>
      </trkpt>
      <trkpt lat="43.03748" lon="-0.74696">
        <ele>551.2</ele>
        <time>2021-12-29T10:56:19.000Z</time>
      </trkpt>
      <trkpt lat="43.03746" lon="-0.74695">
        <ele>551.4</ele>
        <time>2021-12-29T10:56:20.000Z</time>
      </trkpt>
      <trkpt lat="43.03745" lon="-0.74694">
        <ele>551.6</ele>
        <time>2021-12-29T10:56:21.000Z</time>
      </trkpt>
      <trkpt lat="43.03744" lon="-0.74693">
        <ele>551.8</ele>
        <time>2021-12-29T10:56:22.000Z</time>
      </trkpt>
      <trkpt lat="43.03742" lon="-0.74691">
        <ele>552</ele>
        <time>2021-12-29T10:56:23.000Z</time>
      </trkpt>
      <trkpt lat="43.03741" lon="-0.7469">
        <ele>552.2</ele>
        <time>2021-12-29T10:56:24.000Z</time>
      </trkpt>
      <trkpt lat="43.0374" lon="-0.7469">
        <ele>552.4</ele>
        <time>2021-12-29T10:56:25.000Z</time>
      </trkpt>
      <trkpt lat="43.03739" lon="-0.74689">
        <ele>552.8</ele>
        <time>2021-12-29T10:56:26.000Z</time>
      </trkpt>
      <trkpt lat="43.03738" lon="-0.74689">
        <ele>553</ele>
        <time>2021-12-29T10:56:27.000Z</time>
      </trkpt>
      <trkpt lat="43.03736" lon="-0.74688">
        <ele>553.2</ele>
        <time>2021-12-29T10:56:28.000Z</time>
      </trkpt>
      <trkpt lat="43.03735" lon="-0.74687">
        <ele>553.4</ele>
        <time>2021-12-29T10:56:29.000Z</time>
      </trkpt>
      <trkpt lat="43.03734" lon="-0.74686">
        <ele>553.6</ele>
        <time>2021-12-29T10:56:30.000Z</time>
      </trkpt>
      <trkpt lat="43.03732" lon="-0.74684">
        <ele>553.8</ele>
        <time>2021-12-29T10:56:31.000Z</time>
      </trkpt>
      <trkpt lat="43.0373" lon="-0.74683">
        <ele>554</ele>
        <time>2021-12-29T10:56:32.000Z</time>
      </trkpt>
      <trkpt lat="43.03729" lon="-0.74682">
        <ele>554.4</ele>
        <time>2021-12-29T10:56:33.000Z</time>
      </trkpt>
      <trkpt lat="43.03727" lon="-0.74681">
        <ele>554.6</ele>
        <time>2021-12-29T10:56:34.000Z</time>
      </trkpt>
      <trkpt lat="43.03725" lon="-0.7468">
        <ele>554.8</ele>
        <time>2021-12-29T10:56:35.000Z</time>
      </trkpt>
      <trkpt lat="43.03724" lon="-0.74679">
        <ele>555</ele>
        <time>2021-12-29T10:56:36.000Z</time>
      </trkpt>
      <trkpt lat="43.03722" lon="-0.74679">
        <ele>555.2</ele>
        <time>2021-12-29T10:56:37.000Z</time>
      </trkpt>
      <trkpt lat="43.0372" lon="-0.74678">
        <ele>555.4</ele>
        <time>2021-12-29T10:56:38.000Z</time>
      </trkpt>
      <trkpt lat="43.03718" lon="-0.74677">
        <ele>555.6</ele>
        <time>2021-12-29T10:56:39.000Z</time>
      </trkpt>
      <trkpt lat="43.03717" lon="-0.74676">
        <ele>555.8</ele>
        <time>2021-12-29T10:56:40.000Z</time>
      </trkpt>
      <trkpt lat="43.03715" lon="-0.74676">
        <ele>556</ele>
        <time>2021-12-29T10:56:41.000Z</time>
      </trkpt>
      <trkpt lat="43.03713" lon="-0.74675">
        <ele>556.2</ele>
        <time>2021-12-29T10:56:42.000Z</time>
      </trkpt>
      <trkpt lat="43.03711" lon="-0.74674">
        <ele>556.2</ele>
        <time>2021-12-29T10:56:43.000Z</time>
      </trkpt>
      <trkpt lat="43.03709" lon="-0.74674">
        <ele>556.4</ele>
        <time>2021-12-29T10:56:44.000Z</time>
      </trkpt>
      <trkpt lat="43.03708" lon="-0.74673">
        <ele>556.6</ele>
        <time>2021-12-29T10:56:45.000Z</time>
      </trkpt>
      <trkpt lat="43.03706" lon="-0.74672">
        <ele>556.8</ele>
        <time>2021-12-29T10:56:46.000Z</time>
      </trkpt>
      <trkpt lat="43.03704" lon="-0.74671">
        <ele>557</ele>
        <time>2021-12-29T10:56:47.000Z</time>
      </trkpt>
      <trkpt lat="43.03702" lon="-0.74671">
        <ele>557.2</ele>
        <time>2021-12-29T10:56:48.000Z</time>
      </trkpt>
      <trkpt lat="43.037" lon="-0.7467">
        <ele>557.4</ele>
        <time>2021-12-29T10:56:49.000Z</time>
      </trkpt>
      <trkpt lat="43.03699" lon="-0.7467">
        <ele>557.6</ele>
        <time>2021-12-29T10:56:50.000Z</time>
      </trkpt>
      <trkpt lat="43.03697" lon="-0.74669">
        <ele>557.8</ele>
        <time>2021-12-29T10:56:51.000Z</time>
      </trkpt>
      <trkpt lat="43.03695" lon="-0.74669">
        <ele>558</ele>
        <time>2021-12-29T10:56:52.000Z</time>
      </trkpt>
      <trkpt lat="43.03693" lon="-0.74668">
        <ele>558.2</ele>
        <time>2021-12-29T10:56:53.000Z</time>
      </trkpt>
      <trkpt lat="43.03691" lon="-0.74668">
        <ele>558.4</ele>
        <time>2021-12-29T10:56:54.000Z</time>
      </trkpt>
      <trkpt lat="43.0369" lon="-0.74668">
        <ele>558.6</ele>
        <time>2021-12-29T10:56:55.000Z</time>
      </trkpt>
      <trkpt lat="43.03687" lon="-0.74667">
        <ele>558.6</ele>
        <time>2021-12-29T10:56:56.000Z</time>
      </trkpt>
      <trkpt lat="43.03685" lon="-0.74667">
        <ele>558.8</ele>
        <time>2021-12-29T10:56:57.000Z</time>
      </trkpt>
      <trkpt lat="43.03683" lon="-0.74666">
        <ele>559</ele>
        <time>2021-12-29T10:56:58.000Z</time>
      </trkpt>
      <trkpt lat="43.03682" lon="-0.74666">
        <ele>559.2</ele>
        <time>2021-12-29T10:56:59.000Z</time>
      </trkpt>
      <trkpt lat="43.0368" lon="-0.74666">
        <ele>559.4</ele>
        <time>2021-12-29T10:57:00.000Z</time>
      </trkpt>
      <trkpt lat="43.03678" lon="-0.74666">
        <ele>559.6</ele>
        <time>2021-12-29T10:57:01.000Z</time>
      </trkpt>
      <trkpt lat="43.03676" lon="-0.74666">
        <ele>559.6</ele>
        <time>2021-12-29T10:57:02.000Z</time>
      </trkpt>
      <trkpt lat="43.03674" lon="-0.74667">
        <ele>559.8</ele>
        <time>2021-12-29T10:57:03.000Z</time>
      </trkpt>
      <trkpt lat="43.03672" lon="-0.74667">
        <ele>559.8</ele>
        <time>2021-12-29T10:57:04.000Z</time>
      </trkpt>
      <trkpt lat="43.0367" lon="-0.74668">
        <ele>560</ele>
        <time>2021-12-29T10:57:05.000Z</time>
      </trkpt>
      <trkpt lat="43.03668" lon="-0.74668">
        <ele>560.2</ele>
        <time>2021-12-29T10:57:06.000Z</time>
      </trkpt>
      <trkpt lat="43.03666" lon="-0.74669">
        <ele>560.2</ele>
        <time>2021-12-29T10:57:07.000Z</time>
      </trkpt>
      <trkpt lat="43.03664" lon="-0.7467">
        <ele>560.4</ele>
        <time>2021-12-29T10:57:08.000Z</time>
      </trkpt>
      <trkpt lat="43.03662" lon="-0.74671">
        <ele>560.4</ele>
        <time>2021-12-29T10:57:09.000Z</time>
      </trkpt>
      <trkpt lat="43.0366" lon="-0.74672">
        <ele>560.6</ele>
        <time>2021-12-29T10:57:10.000Z</time>
      </trkpt>
      <trkpt lat="43.03659" lon="-0.74674">
        <ele>560.6</ele>
        <time>2021-12-29T10:57:11.000Z</time>
      </trkpt>
      <trkpt lat="43.03657" lon="-0.74675">
        <ele>560.6</ele>
        <time>2021-12-29T10:57:12.000Z</time>
      </trkpt>
      <trkpt lat="43.03655" lon="-0.74677">
        <ele>560.8</ele>
        <time>2021-12-29T10:57:13.000Z</time>
      </trkpt>
      <trkpt lat="43.03654" lon="-0.74679">
        <ele>560.8</ele>
        <time>2021-12-29T10:57:14.000Z</time>
      </trkpt>
      <trkpt lat="43.03652" lon="-0.74681">
        <ele>560.8</ele>
        <time>2021-12-29T10:57:15.000Z</time>
      </trkpt>
      <trkpt lat="43.0365" lon="-0.74682">
        <ele>561</ele>
        <time>2021-12-29T10:57:16.000Z</time>
      </trkpt>
      <trkpt lat="43.03648" lon="-0.74684">
        <ele>561</ele>
        <time>2021-12-29T10:57:17.000Z</time>
      </trkpt>
      <trkpt lat="43.03646" lon="-0.74686">
        <ele>561</ele>
        <time>2021-12-29T10:57:18.000Z</time>
      </trkpt>
      <trkpt lat="43.03645" lon="-0.74689">
        <ele>561.2</ele>
        <time>2021-12-29T10:57:19.000Z</time>
      </trkpt>
      <trkpt lat="43.03644" lon="-0.74691">
        <ele>561.4</ele>
        <time>2021-12-29T10:57:20.000Z</time>
      </trkpt>
      <trkpt lat="43.03643" lon="-0.74693">
        <ele>561.4</ele>
        <time>2021-12-29T10:57:21.000Z</time>
      </trkpt>
      <trkpt lat="43.03641" lon="-0.74696">
        <ele>561.6</ele>
        <time>2021-12-29T10:57:22.000Z</time>
      </trkpt>
      <trkpt lat="43.0364" lon="-0.74698">
        <ele>561.8</ele>
        <time>2021-12-29T10:57:23.000Z</time>
      </trkpt>
      <trkpt lat="43.03638" lon="-0.747">
        <ele>562</ele>
        <time>2021-12-29T10:57:24.000Z</time>
      </trkpt>
      <trkpt lat="43.03636" lon="-0.74702">
        <ele>562.2</ele>
        <time>2021-12-29T10:57:25.000Z</time>
      </trkpt>
      <trkpt lat="43.03635" lon="-0.74705">
        <ele>562.4</ele>
        <time>2021-12-29T10:57:26.000Z</time>
      </trkpt>
      <trkpt lat="43.03634" lon="-0.74707">
        <ele>562.6</ele>
        <time>2021-12-29T10:57:27.000Z</time>
      </trkpt>
      <trkpt lat="43.03634" lon="-0.7471">
        <ele>562.8</ele>
        <time>2021-12-29T10:57:28.000Z</time>
      </trkpt>
      <trkpt lat="43.03633" lon="-0.74712">
        <ele>563</ele>
        <time>2021-12-29T10:57:29.000Z</time>
      </trkpt>
      <trkpt lat="43.03633" lon="-0.74715">
        <ele>563</ele>
        <time>2021-12-29T10:57:30.000Z</time>
      </trkpt>
      <trkpt lat="43.03632" lon="-0.74717">
        <ele>563</ele>
        <time>2021-12-29T10:57:31.000Z</time>
      </trkpt>
      <trkpt lat="43.03632" lon="-0.7472">
        <ele>563.4</ele>
        <time>2021-12-29T10:57:32.000Z</time>
      </trkpt>
      <trkpt lat="43.03631" lon="-0.74723">
        <ele>563.8</ele>
        <time>2021-12-29T10:57:33.000Z</time>
      </trkpt>
      <trkpt lat="43.03629" lon="-0.74725">
        <ele>563.6</ele>
        <time>2021-12-29T10:57:34.000Z</time>
      </trkpt>
      <trkpt lat="43.03628" lon="-0.74727">
        <ele>563.8</ele>
        <time>2021-12-29T10:57:35.000Z</time>
      </trkpt>
      <trkpt lat="43.03628" lon="-0.7473">
        <ele>564</ele>
        <time>2021-12-29T10:57:36.000Z</time>
      </trkpt>
      <trkpt lat="43.03627" lon="-0.74732">
        <ele>564.2</ele>
        <time>2021-12-29T10:57:37.000Z</time>
      </trkpt>
      <trkpt lat="43.03626" lon="-0.74735">
        <ele>564.4</ele>
        <time>2021-12-29T10:57:38.000Z</time>
      </trkpt>
      <trkpt lat="43.03624" lon="-0.74737">
        <ele>564.6</ele>
        <time>2021-12-29T10:57:39.000Z</time>
      </trkpt>
      <trkpt lat="43.03623" lon="-0.74739">
        <ele>564.8</ele>
        <time>2021-12-29T10:57:40.000Z</time>
      </trkpt>
      <trkpt lat="43.03622" lon="-0.74742">
        <ele>564.8</ele>
        <time>2021-12-29T10:57:41.000Z</time>
      </trkpt>
      <trkpt lat="43.03621" lon="-0.74745">
        <ele>565</ele>
        <time>2021-12-29T10:57:42.000Z</time>
      </trkpt>
      <trkpt lat="43.0362" lon="-0.74747">
        <ele>565.2</ele>
        <time>2021-12-29T10:57:43.000Z</time>
      </trkpt>
      <trkpt lat="43.03619" lon="-0.7475">
        <ele>565.2</ele>
        <time>2021-12-29T10:57:44.000Z</time>
      </trkpt>
      <trkpt lat="43.03617" lon="-0.74753">
        <ele>565.4</ele>
        <time>2021-12-29T10:57:45.000Z</time>
      </trkpt>
      <trkpt lat="43.03616" lon="-0.74756">
        <ele>565.4</ele>
        <time>2021-12-29T10:57:46.000Z</time>
      </trkpt>
      <trkpt lat="43.03614" lon="-0.74759">
        <ele>565.6</ele>
        <time>2021-12-29T10:57:47.000Z</time>
      </trkpt>
      <trkpt lat="43.03613" lon="-0.74762">
        <ele>565.6</ele>
        <time>2021-12-29T10:57:48.000Z</time>
      </trkpt>
      <trkpt lat="43.03611" lon="-0.74765">
        <ele>565.6</ele>
        <time>2021-12-29T10:57:49.000Z</time>
      </trkpt>
      <trkpt lat="43.03609" lon="-0.74768">
        <ele>565.8</ele>
        <time>2021-12-29T10:57:50.000Z</time>
      </trkpt>
      <trkpt lat="43.03607" lon="-0.74771">
        <ele>565.8</ele>
        <time>2021-12-29T10:57:51.000Z</time>
      </trkpt>
      <trkpt lat="43.03605" lon="-0.74774">
        <ele>566</ele>
        <time>2021-12-29T10:57:52.000Z</time>
      </trkpt>
      <trkpt lat="43.03603" lon="-0.74777">
        <ele>565.8</ele>
        <time>2021-12-29T10:57:53.000Z</time>
      </trkpt>
      <trkpt lat="43.03602" lon="-0.74781">
        <ele>566</ele>
        <time>2021-12-29T10:57:54.000Z</time>
      </trkpt>
      <trkpt lat="43.036" lon="-0.74784">
        <ele>566</ele>
        <time>2021-12-29T10:57:55.000Z</time>
      </trkpt>
      <trkpt lat="43.03598" lon="-0.74787">
        <ele>566</ele>
        <time>2021-12-29T10:57:56.000Z</time>
      </trkpt>
      <trkpt lat="43.03596" lon="-0.7479">
        <ele>566.2</ele>
        <time>2021-12-29T10:57:57.000Z</time>
      </trkpt>
      <trkpt lat="43.03594" lon="-0.74793">
        <ele>566.2</ele>
        <time>2021-12-29T10:57:58.000Z</time>
      </trkpt>
      <trkpt lat="43.03591" lon="-0.74796">
        <ele>566.4</ele>
        <time>2021-12-29T10:57:59.000Z</time>
      </trkpt>
      <trkpt lat="43.03589" lon="-0.74799">
        <ele>566.4</ele>
        <time>2021-12-29T10:58:00.000Z</time>
      </trkpt>
      <trkpt lat="43.03586" lon="-0.74802">
        <ele>566.6</ele>
        <time>2021-12-29T10:58:01.000Z</time>
      </trkpt>
      <trkpt lat="43.03583" lon="-0.74804">
        <ele>566.6</ele>
        <time>2021-12-29T10:58:02.000Z</time>
      </trkpt>
      <trkpt lat="43.0358" lon="-0.74806">
        <ele>566.6</ele>
        <time>2021-12-29T10:58:03.000Z</time>
      </trkpt>
      <trkpt lat="43.03577" lon="-0.74808">
        <ele>566.6</ele>
        <time>2021-12-29T10:58:04.000Z</time>
      </trkpt>
      <trkpt lat="43.03574" lon="-0.7481">
        <ele>566.6</ele>
        <time>2021-12-29T10:58:05.000Z</time>
      </trkpt>
      <trkpt lat="43.03571" lon="-0.74812">
        <ele>566.6</ele>
        <time>2021-12-29T10:58:06.000Z</time>
      </trkpt>
      <trkpt lat="43.03568" lon="-0.74814">
        <ele>566.6</ele>
        <time>2021-12-29T10:58:07.000Z</time>
      </trkpt>
      <trkpt lat="43.03564" lon="-0.74816">
        <ele>566.6</ele>
        <time>2021-12-29T10:58:08.000Z</time>
      </trkpt>
      <trkpt lat="43.03561" lon="-0.74818">
        <ele>566.8</ele>
        <time>2021-12-29T10:58:09.000Z</time>
      </trkpt>
      <trkpt lat="43.03558" lon="-0.7482">
        <ele>566.8</ele>
        <time>2021-12-29T10:58:10.000Z</time>
      </trkpt>
      <trkpt lat="43.03555" lon="-0.74822">
        <ele>566.8</ele>
        <time>2021-12-29T10:58:11.000Z</time>
      </trkpt>
      <trkpt lat="43.03551" lon="-0.74824">
        <ele>566.8</ele>
        <time>2021-12-29T10:58:12.000Z</time>
      </trkpt>
      <trkpt lat="43.03548" lon="-0.74825">
        <ele>566.8</ele>
        <time>2021-12-29T10:58:13.000Z</time>
      </trkpt>
      <trkpt lat="43.03545" lon="-0.74826">
        <ele>566.8</ele>
        <time>2021-12-29T10:58:14.000Z</time>
      </trkpt>
      <trkpt lat="43.03541" lon="-0.74827">
        <ele>567</ele>
        <time>2021-12-29T10:58:15.000Z</time>
      </trkpt>
      <trkpt lat="43.03538" lon="-0.74828">
        <ele>567</ele>
        <time>2021-12-29T10:58:16.000Z</time>
      </trkpt>
      <trkpt lat="43.03534" lon="-0.74829">
        <ele>567.2</ele>
        <time>2021-12-29T10:58:17.000Z</time>
      </trkpt>
      <trkpt lat="43.03531" lon="-0.7483">
        <ele>567.4</ele>
        <time>2021-12-29T10:58:18.000Z</time>
      </trkpt>
      <trkpt lat="43.03529" lon="-0.74831">
        <ele>567.6</ele>
        <time>2021-12-29T10:58:19.000Z</time>
      </trkpt>
      <trkpt lat="43.03526" lon="-0.74831">
        <ele>567.6</ele>
        <time>2021-12-29T10:58:20.000Z</time>
      </trkpt>
      <trkpt lat="43.03523" lon="-0.74832">
        <ele>567.8</ele>
        <time>2021-12-29T10:58:21.000Z</time>
      </trkpt>
      <trkpt lat="43.0352" lon="-0.74833">
        <ele>568</ele>
        <time>2021-12-29T10:58:22.000Z</time>
      </trkpt>
      <trkpt lat="43.03518" lon="-0.74834">
        <ele>568.2</ele>
        <time>2021-12-29T10:58:23.000Z</time>
      </trkpt>
      <trkpt lat="43.03516" lon="-0.74835">
        <ele>568.4</ele>
        <time>2021-12-29T10:58:24.000Z</time>
      </trkpt>
      <trkpt lat="43.03513" lon="-0.74835">
        <ele>568.6</ele>
        <time>2021-12-29T10:58:25.000Z</time>
      </trkpt>
      <trkpt lat="43.03511" lon="-0.74836">
        <ele>568.8</ele>
        <time>2021-12-29T10:58:26.000Z</time>
      </trkpt>
      <trkpt lat="43.03509" lon="-0.74837">
        <ele>569</ele>
        <time>2021-12-29T10:58:27.000Z</time>
      </trkpt>
      <trkpt lat="43.03506" lon="-0.74837">
        <ele>569.2</ele>
        <time>2021-12-29T10:58:28.000Z</time>
      </trkpt>
      <trkpt lat="43.03504" lon="-0.74837">
        <ele>569.2</ele>
        <time>2021-12-29T10:58:29.000Z</time>
      </trkpt>
      <trkpt lat="43.03501" lon="-0.74837">
        <ele>569.4</ele>
        <time>2021-12-29T10:58:30.000Z</time>
      </trkpt>
      <trkpt lat="43.03499" lon="-0.74838">
        <ele>569.6</ele>
        <time>2021-12-29T10:58:31.000Z</time>
      </trkpt>
      <trkpt lat="43.03496" lon="-0.74838">
        <ele>569.6</ele>
        <time>2021-12-29T10:58:32.000Z</time>
      </trkpt>
      <trkpt lat="43.03494" lon="-0.74838">
        <ele>569.8</ele>
        <time>2021-12-29T10:58:33.000Z</time>
      </trkpt>
      <trkpt lat="43.03491" lon="-0.74838">
        <ele>570</ele>
        <time>2021-12-29T10:58:34.000Z</time>
      </trkpt>
      <trkpt lat="43.03488" lon="-0.74838">
        <ele>570.2</ele>
        <time>2021-12-29T10:58:35.000Z</time>
      </trkpt>
      <trkpt lat="43.03486" lon="-0.74837">
        <ele>570.2</ele>
        <time>2021-12-29T10:58:36.000Z</time>
      </trkpt>
      <trkpt lat="43.03483" lon="-0.74837">
        <ele>570.4</ele>
        <time>2021-12-29T10:58:37.000Z</time>
      </trkpt>
      <trkpt lat="43.0348" lon="-0.74836">
        <ele>570.6</ele>
        <time>2021-12-29T10:58:38.000Z</time>
      </trkpt>
      <trkpt lat="43.03478" lon="-0.74835">
        <ele>570.8</ele>
        <time>2021-12-29T10:58:39.000Z</time>
      </trkpt>
      <trkpt lat="43.03475" lon="-0.74835">
        <ele>571</ele>
        <time>2021-12-29T10:58:40.000Z</time>
      </trkpt>
      <trkpt lat="43.03473" lon="-0.74834">
        <ele>571.2</ele>
        <time>2021-12-29T10:58:41.000Z</time>
      </trkpt>
      <trkpt lat="43.0347" lon="-0.74833">
        <ele>571.2</ele>
        <time>2021-12-29T10:58:42.000Z</time>
      </trkpt>
      <trkpt lat="43.03468" lon="-0.74832">
        <ele>571.4</ele>
        <time>2021-12-29T10:58:43.000Z</time>
      </trkpt>
      <trkpt lat="43.03466" lon="-0.74831">
        <ele>571.6</ele>
        <time>2021-12-29T10:58:44.000Z</time>
      </trkpt>
      <trkpt lat="43.03463" lon="-0.7483">
        <ele>571.8</ele>
        <time>2021-12-29T10:58:45.000Z</time>
      </trkpt>
      <trkpt lat="43.03461" lon="-0.74828">
        <ele>572</ele>
        <time>2021-12-29T10:58:46.000Z</time>
      </trkpt>
      <trkpt lat="43.03458" lon="-0.74827">
        <ele>572.2</ele>
        <time>2021-12-29T10:58:47.000Z</time>
      </trkpt>
      <trkpt lat="43.03456" lon="-0.74826">
        <ele>572.4</ele>
        <time>2021-12-29T10:58:48.000Z</time>
      </trkpt>
      <trkpt lat="43.03453" lon="-0.74824">
        <ele>572.6</ele>
        <time>2021-12-29T10:58:49.000Z</time>
      </trkpt>
      <trkpt lat="43.03451" lon="-0.74823">
        <ele>572.8</ele>
        <time>2021-12-29T10:58:50.000Z</time>
      </trkpt>
      <trkpt lat="43.03449" lon="-0.74823">
        <ele>573</ele>
        <time>2021-12-29T10:58:51.000Z</time>
      </trkpt>
      <trkpt lat="43.03447" lon="-0.74822">
        <ele>573.2</ele>
        <time>2021-12-29T10:58:52.000Z</time>
      </trkpt>
      <trkpt lat="43.03445" lon="-0.74821">
        <ele>573.4</ele>
        <time>2021-12-29T10:58:53.000Z</time>
      </trkpt>
      <trkpt lat="43.03443" lon="-0.7482">
        <ele>573.6</ele>
        <time>2021-12-29T10:58:54.000Z</time>
      </trkpt>
      <trkpt lat="43.03441" lon="-0.7482">
        <ele>574</ele>
        <time>2021-12-29T10:58:55.000Z</time>
      </trkpt>
      <trkpt lat="43.03439" lon="-0.74819">
        <ele>574</ele>
        <time>2021-12-29T10:58:56.000Z</time>
      </trkpt>
      <trkpt lat="43.03437" lon="-0.74819">
        <ele>574.4</ele>
        <time>2021-12-29T10:58:57.000Z</time>
      </trkpt>
      <trkpt lat="43.03435" lon="-0.74819">
        <ele>574.6</ele>
        <time>2021-12-29T10:58:58.000Z</time>
      </trkpt>
      <trkpt lat="43.03433" lon="-0.74819">
        <ele>574.8</ele>
        <time>2021-12-29T10:58:59.000Z</time>
      </trkpt>
      <trkpt lat="43.03431" lon="-0.74819">
        <ele>575</ele>
        <time>2021-12-29T10:59:00.000Z</time>
      </trkpt>
      <trkpt lat="43.03429" lon="-0.74819">
        <ele>575.2</ele>
        <time>2021-12-29T10:59:01.000Z</time>
      </trkpt>
      <trkpt lat="43.03426" lon="-0.74819">
        <ele>575.6</ele>
        <time>2021-12-29T10:59:02.000Z</time>
      </trkpt>
      <trkpt lat="43.03424" lon="-0.74818">
        <ele>575.8</ele>
        <time>2021-12-29T10:59:03.000Z</time>
      </trkpt>
      <trkpt lat="43.03422" lon="-0.74818">
        <ele>576</ele>
        <time>2021-12-29T10:59:04.000Z</time>
      </trkpt>
      <trkpt lat="43.03421" lon="-0.74819">
        <ele>576.2</ele>
        <time>2021-12-29T10:59:05.000Z</time>
      </trkpt>
      <trkpt lat="43.03419" lon="-0.7482">
        <ele>576.4</ele>
        <time>2021-12-29T10:59:06.000Z</time>
      </trkpt>
      <trkpt lat="43.03417" lon="-0.7482">
        <ele>576.6</ele>
        <time>2021-12-29T10:59:07.000Z</time>
      </trkpt>
      <trkpt lat="43.03415" lon="-0.74819">
        <ele>576.8</ele>
        <time>2021-12-29T10:59:08.000Z</time>
      </trkpt>
      <trkpt lat="43.03413" lon="-0.74819">
        <ele>577</ele>
        <time>2021-12-29T10:59:09.000Z</time>
      </trkpt>
      <trkpt lat="43.0341" lon="-0.74819">
        <ele>577.2</ele>
        <time>2021-12-29T10:59:10.000Z</time>
      </trkpt>
      <trkpt lat="43.03408" lon="-0.74819">
        <ele>577.2</ele>
        <time>2021-12-29T10:59:11.000Z</time>
      </trkpt>
      <trkpt lat="43.03406" lon="-0.74819">
        <ele>577.4</ele>
        <time>2021-12-29T10:59:12.000Z</time>
      </trkpt>
      <trkpt lat="43.03404" lon="-0.74819">
        <ele>577.6</ele>
        <time>2021-12-29T10:59:13.000Z</time>
      </trkpt>
      <trkpt lat="43.03402" lon="-0.74819">
        <ele>577.8</ele>
        <time>2021-12-29T10:59:14.000Z</time>
      </trkpt>
      <trkpt lat="43.034" lon="-0.74818">
        <ele>578</ele>
        <time>2021-12-29T10:59:15.000Z</time>
      </trkpt>
      <trkpt lat="43.03398" lon="-0.74818">
        <ele>578.2</ele>
        <time>2021-12-29T10:59:16.000Z</time>
      </trkpt>
      <trkpt lat="43.03396" lon="-0.74817">
        <ele>578.4</ele>
        <time>2021-12-29T10:59:17.000Z</time>
      </trkpt>
      <trkpt lat="43.03394" lon="-0.74817">
        <ele>578.4</ele>
        <time>2021-12-29T10:59:18.000Z</time>
      </trkpt>
      <trkpt lat="43.03392" lon="-0.74817">
        <ele>578.6</ele>
        <time>2021-12-29T10:59:19.000Z</time>
      </trkpt>
      <trkpt lat="43.0339" lon="-0.74817">
        <ele>578.8</ele>
        <time>2021-12-29T10:59:20.000Z</time>
      </trkpt>
      <trkpt lat="43.03388" lon="-0.74816">
        <ele>579.2</ele>
        <time>2021-12-29T10:59:21.000Z</time>
      </trkpt>
      <trkpt lat="43.03386" lon="-0.74816">
        <ele>579.2</ele>
        <time>2021-12-29T10:59:22.000Z</time>
      </trkpt>
      <trkpt lat="43.03384" lon="-0.74816">
        <ele>579.4</ele>
        <time>2021-12-29T10:59:23.000Z</time>
      </trkpt>
      <trkpt lat="43.03382" lon="-0.74815">
        <ele>579.6</ele>
        <time>2021-12-29T10:59:24.000Z</time>
      </trkpt>
      <trkpt lat="43.0338" lon="-0.74815">
        <ele>579.8</ele>
        <time>2021-12-29T10:59:25.000Z</time>
      </trkpt>
      <trkpt lat="43.03378" lon="-0.74815">
        <ele>580</ele>
        <time>2021-12-29T10:59:26.000Z</time>
      </trkpt>
      <trkpt lat="43.03376" lon="-0.74815">
        <ele>580.2</ele>
        <time>2021-12-29T10:59:27.000Z</time>
      </trkpt>
      <trkpt lat="43.03374" lon="-0.74814">
        <ele>580.4</ele>
        <time>2021-12-29T10:59:28.000Z</time>
      </trkpt>
      <trkpt lat="43.03372" lon="-0.74814">
        <ele>580.6</ele>
        <time>2021-12-29T10:59:29.000Z</time>
      </trkpt>
      <trkpt lat="43.0337" lon="-0.74813">
        <ele>580.8</ele>
        <time>2021-12-29T10:59:30.000Z</time>
      </trkpt>
      <trkpt lat="43.03369" lon="-0.74813">
        <ele>581</ele>
        <time>2021-12-29T10:59:31.000Z</time>
      </trkpt>
      <trkpt lat="43.03367" lon="-0.74813">
        <ele>581.2</ele>
        <time>2021-12-29T10:59:32.000Z</time>
      </trkpt>
      <trkpt lat="43.03365" lon="-0.74812">
        <ele>581.4</ele>
        <time>2021-12-29T10:59:33.000Z</time>
      </trkpt>
      <trkpt lat="43.03364" lon="-0.74813">
        <ele>581.6</ele>
        <time>2021-12-29T10:59:34.000Z</time>
      </trkpt>
      <trkpt lat="43.03362" lon="-0.74813">
        <ele>581.8</ele>
        <time>2021-12-29T10:59:35.000Z</time>
      </trkpt>
      <trkpt lat="43.0336" lon="-0.74813">
        <ele>582</ele>
        <time>2021-12-29T10:59:36.000Z</time>
      </trkpt>
      <trkpt lat="43.03359" lon="-0.74812">
        <ele>582.2</ele>
        <time>2021-12-29T10:59:37.000Z</time>
      </trkpt>
      <trkpt lat="43.03357" lon="-0.74812">
        <ele>582.6</ele>
        <time>2021-12-29T10:59:38.000Z</time>
      </trkpt>
      <trkpt lat="43.03356" lon="-0.74812">
        <ele>582.8</ele>
        <time>2021-12-29T10:59:39.000Z</time>
      </trkpt>
      <trkpt lat="43.03354" lon="-0.74811">
        <ele>582.8</ele>
        <time>2021-12-29T10:59:40.000Z</time>
      </trkpt>
      <trkpt lat="43.03352" lon="-0.74811">
        <ele>583</ele>
        <time>2021-12-29T10:59:41.000Z</time>
      </trkpt>
      <trkpt lat="43.03351" lon="-0.74811">
        <ele>583.4</ele>
        <time>2021-12-29T10:59:42.000Z</time>
      </trkpt>
      <trkpt lat="43.03349" lon="-0.74811">
        <ele>583.6</ele>
        <time>2021-12-29T10:59:43.000Z</time>
      </trkpt>
      <trkpt lat="43.03347" lon="-0.7481">
        <ele>583.8</ele>
        <time>2021-12-29T10:59:44.000Z</time>
      </trkpt>
      <trkpt lat="43.03346" lon="-0.7481">
        <ele>584</ele>
        <time>2021-12-29T10:59:45.000Z</time>
      </trkpt>
      <trkpt lat="43.03344" lon="-0.74809">
        <ele>584.2</ele>
        <time>2021-12-29T10:59:46.000Z</time>
      </trkpt>
      <trkpt lat="43.03342" lon="-0.74809">
        <ele>584.4</ele>
        <time>2021-12-29T10:59:47.000Z</time>
      </trkpt>
      <trkpt lat="43.0334" lon="-0.74809">
        <ele>584.6</ele>
        <time>2021-12-29T10:59:48.000Z</time>
      </trkpt>
      <trkpt lat="43.03339" lon="-0.74809">
        <ele>584.8</ele>
        <time>2021-12-29T10:59:49.000Z</time>
      </trkpt>
      <trkpt lat="43.03337" lon="-0.74809">
        <ele>585</ele>
        <time>2021-12-29T10:59:50.000Z</time>
      </trkpt>
      <trkpt lat="43.03335" lon="-0.74809">
        <ele>585.4</ele>
        <time>2021-12-29T10:59:51.000Z</time>
      </trkpt>
      <trkpt lat="43.03334" lon="-0.7481">
        <ele>585.4</ele>
        <time>2021-12-29T10:59:52.000Z</time>
      </trkpt>
      <trkpt lat="43.03332" lon="-0.7481">
        <ele>585.8</ele>
        <time>2021-12-29T10:59:53.000Z</time>
      </trkpt>
      <trkpt lat="43.03331" lon="-0.7481">
        <ele>586</ele>
        <time>2021-12-29T10:59:54.000Z</time>
      </trkpt>
      <trkpt lat="43.03329" lon="-0.74811">
        <ele>586.2</ele>
        <time>2021-12-29T10:59:55.000Z</time>
      </trkpt>
      <trkpt lat="43.03328" lon="-0.74811">
        <ele>586.4</ele>
        <time>2021-12-29T10:59:56.000Z</time>
      </trkpt>
      <trkpt lat="43.03327" lon="-0.74812">
        <ele>586.6</ele>
        <time>2021-12-29T10:59:57.000Z</time>
      </trkpt>
      <trkpt lat="43.03326" lon="-0.74813">
        <ele>586.8</ele>
        <time>2021-12-29T10:59:58.000Z</time>
      </trkpt>
      <trkpt lat="43.03324" lon="-0.74813">
        <ele>587</ele>
        <time>2021-12-29T10:59:59.000Z</time>
      </trkpt>
      <trkpt lat="43.03323" lon="-0.74814">
        <ele>587.2</ele>
        <time>2021-12-29T11:00:00.000Z</time>
      </trkpt>
      <trkpt lat="43.03321" lon="-0.74815">
        <ele>587.4</ele>
        <time>2021-12-29T11:00:01.000Z</time>
      </trkpt>
      <trkpt lat="43.0332" lon="-0.74815">
        <ele>587.6</ele>
        <time>2021-12-29T11:00:02.000Z</time>
      </trkpt>
      <trkpt lat="43.03319" lon="-0.74816">
        <ele>587.8</ele>
        <time>2021-12-29T11:00:03.000Z</time>
      </trkpt>
      <trkpt lat="43.03318" lon="-0.74817">
        <ele>588</ele>
        <time>2021-12-29T11:00:04.000Z</time>
      </trkpt>
      <trkpt lat="43.03316" lon="-0.74818">
        <ele>588.4</ele>
        <time>2021-12-29T11:00:05.000Z</time>
      </trkpt>
      <trkpt lat="43.03315" lon="-0.74819">
        <ele>588.6</ele>
        <time>2021-12-29T11:00:06.000Z</time>
      </trkpt>
      <trkpt lat="43.03313" lon="-0.7482">
        <ele>588.6</ele>
        <time>2021-12-29T11:00:07.000Z</time>
      </trkpt>
      <trkpt lat="43.03312" lon="-0.74821">
        <ele>588.8</ele>
        <time>2021-12-29T11:00:08.000Z</time>
      </trkpt>
      <trkpt lat="43.0331" lon="-0.74822">
        <ele>589.2</ele>
        <time>2021-12-29T11:00:09.000Z</time>
      </trkpt>
      <trkpt lat="43.03308" lon="-0.74822">
        <ele>589.2</ele>
        <time>2021-12-29T11:00:10.000Z</time>
      </trkpt>
      <trkpt lat="43.03307" lon="-0.74823">
        <ele>589.6</ele>
        <time>2021-12-29T11:00:11.000Z</time>
      </trkpt>
      <trkpt lat="43.03305" lon="-0.74824">
        <ele>589.6</ele>
        <time>2021-12-29T11:00:12.000Z</time>
      </trkpt>
      <trkpt lat="43.03303" lon="-0.74824">
        <ele>589.8</ele>
        <time>2021-12-29T11:00:13.000Z</time>
      </trkpt>
      <trkpt lat="43.03301" lon="-0.74825">
        <ele>590</ele>
        <time>2021-12-29T11:00:14.000Z</time>
      </trkpt>
      <trkpt lat="43.03299" lon="-0.74825">
        <ele>590.2</ele>
        <time>2021-12-29T11:00:15.000Z</time>
      </trkpt>
      <trkpt lat="43.03297" lon="-0.74825">
        <ele>590.4</ele>
        <time>2021-12-29T11:00:16.000Z</time>
      </trkpt>
      <trkpt lat="43.03295" lon="-0.74825">
        <ele>590.6</ele>
        <time>2021-12-29T11:00:17.000Z</time>
      </trkpt>
      <trkpt lat="43.03294" lon="-0.74824">
        <ele>590.8</ele>
        <time>2021-12-29T11:00:18.000Z</time>
      </trkpt>
      <trkpt lat="43.03292" lon="-0.74824">
        <ele>591</ele>
        <time>2021-12-29T11:00:19.000Z</time>
      </trkpt>
      <trkpt lat="43.03291" lon="-0.74825">
        <ele>591.2</ele>
        <time>2021-12-29T11:00:20.000Z</time>
      </trkpt>
      <trkpt lat="43.03289" lon="-0.74825">
        <ele>591.4</ele>
        <time>2021-12-29T11:00:21.000Z</time>
      </trkpt>
      <trkpt lat="43.03287" lon="-0.74825">
        <ele>591.6</ele>
        <time>2021-12-29T11:00:22.000Z</time>
      </trkpt>
      <trkpt lat="43.03285" lon="-0.74825">
        <ele>591.8</ele>
        <time>2021-12-29T11:00:23.000Z</time>
      </trkpt>
      <trkpt lat="43.03284" lon="-0.74824">
        <ele>592</ele>
        <time>2021-12-29T11:00:24.000Z</time>
      </trkpt>
      <trkpt lat="43.03282" lon="-0.74825">
        <ele>592.2</ele>
        <time>2021-12-29T11:00:25.000Z</time>
      </trkpt>
      <trkpt lat="43.0328" lon="-0.74824">
        <ele>592.4</ele>
        <time>2021-12-29T11:00:26.000Z</time>
      </trkpt>
      <trkpt lat="43.03279" lon="-0.74824">
        <ele>592.6</ele>
        <time>2021-12-29T11:00:27.000Z</time>
      </trkpt>
      <trkpt lat="43.03277" lon="-0.74824">
        <ele>592.8</ele>
        <time>2021-12-29T11:00:28.000Z</time>
      </trkpt>
      <trkpt lat="43.03276" lon="-0.74824">
        <ele>593</ele>
        <time>2021-12-29T11:00:29.000Z</time>
      </trkpt>
      <trkpt lat="43.03274" lon="-0.74823">
        <ele>593.2</ele>
        <time>2021-12-29T11:00:30.000Z</time>
      </trkpt>
      <trkpt lat="43.03272" lon="-0.74823">
        <ele>593.4</ele>
        <time>2021-12-29T11:00:31.000Z</time>
      </trkpt>
      <trkpt lat="43.03271" lon="-0.74822">
        <ele>593.6</ele>
        <time>2021-12-29T11:00:32.000Z</time>
      </trkpt>
      <trkpt lat="43.03269" lon="-0.74822">
        <ele>593.8</ele>
        <time>2021-12-29T11:00:33.000Z</time>
      </trkpt>
      <trkpt lat="43.03268" lon="-0.74822">
        <ele>594</ele>
        <time>2021-12-29T11:00:34.000Z</time>
      </trkpt>
      <trkpt lat="43.03266" lon="-0.74822">
        <ele>594.4</ele>
        <time>2021-12-29T11:00:35.000Z</time>
      </trkpt>
      <trkpt lat="43.03265" lon="-0.74822">
        <ele>594.6</ele>
        <time>2021-12-29T11:00:36.000Z</time>
      </trkpt>
      <trkpt lat="43.03263" lon="-0.74822">
        <ele>594.8</ele>
        <time>2021-12-29T11:00:37.000Z</time>
      </trkpt>
      <trkpt lat="43.03262" lon="-0.74822">
        <ele>595</ele>
        <time>2021-12-29T11:00:38.000Z</time>
      </trkpt>
      <trkpt lat="43.0326" lon="-0.74822">
        <ele>595.2</ele>
        <time>2021-12-29T11:00:39.000Z</time>
      </trkpt>
      <trkpt lat="43.03259" lon="-0.74822">
        <ele>595.4</ele>
        <time>2021-12-29T11:00:40.000Z</time>
      </trkpt>
      <trkpt lat="43.03258" lon="-0.74822">
        <ele>595.6</ele>
        <time>2021-12-29T11:00:41.000Z</time>
      </trkpt>
      <trkpt lat="43.03257" lon="-0.74822">
        <ele>595.8</ele>
        <time>2021-12-29T11:00:42.000Z</time>
      </trkpt>
      <trkpt lat="43.03255" lon="-0.74822">
        <ele>595.8</ele>
        <time>2021-12-29T11:00:43.000Z</time>
      </trkpt>
      <trkpt lat="43.03254" lon="-0.74822">
        <ele>596</ele>
        <time>2021-12-29T11:00:44.000Z</time>
      </trkpt>
      <trkpt lat="43.03253" lon="-0.74823">
        <ele>596.2</ele>
        <time>2021-12-29T11:00:45.000Z</time>
      </trkpt>
      <trkpt lat="43.03251" lon="-0.74823">
        <ele>596.4</ele>
        <time>2021-12-29T11:00:46.000Z</time>
      </trkpt>
      <trkpt lat="43.0325" lon="-0.74824">
        <ele>596.6</ele>
        <time>2021-12-29T11:00:47.000Z</time>
      </trkpt>
      <trkpt lat="43.03249" lon="-0.74824">
        <ele>596.8</ele>
        <time>2021-12-29T11:00:48.000Z</time>
      </trkpt>
      <trkpt lat="43.03247" lon="-0.74825">
        <ele>597</ele>
        <time>2021-12-29T11:00:49.000Z</time>
      </trkpt>
      <trkpt lat="43.03246" lon="-0.74826">
        <ele>597.4</ele>
        <time>2021-12-29T11:00:50.000Z</time>
      </trkpt>
      <trkpt lat="43.03244" lon="-0.74826">
        <ele>597.6</ele>
        <time>2021-12-29T11:00:51.000Z</time>
      </trkpt>
      <trkpt lat="43.03243" lon="-0.74827">
        <ele>597.8</ele>
        <time>2021-12-29T11:00:52.000Z</time>
      </trkpt>
      <trkpt lat="43.03242" lon="-0.74828">
        <ele>598</ele>
        <time>2021-12-29T11:00:53.000Z</time>
      </trkpt>
      <trkpt lat="43.03241" lon="-0.74829">
        <ele>598.4</ele>
        <time>2021-12-29T11:00:54.000Z</time>
      </trkpt>
      <trkpt lat="43.03241" lon="-0.7483">
        <ele>598.6</ele>
        <time>2021-12-29T11:00:55.000Z</time>
      </trkpt>
      <trkpt lat="43.0324" lon="-0.74832">
        <ele>598.8</ele>
        <time>2021-12-29T11:00:56.000Z</time>
      </trkpt>
      <trkpt lat="43.03239" lon="-0.74833">
        <ele>599</ele>
        <time>2021-12-29T11:00:57.000Z</time>
      </trkpt>
      <trkpt lat="43.03238" lon="-0.74834">
        <ele>599.2</ele>
        <time>2021-12-29T11:00:58.000Z</time>
      </trkpt>
      <trkpt lat="43.03237" lon="-0.74836">
        <ele>599.6</ele>
        <time>2021-12-29T11:00:59.000Z</time>
      </trkpt>
      <trkpt lat="43.03236" lon="-0.74837">
        <ele>599.6</ele>
        <time>2021-12-29T11:01:00.000Z</time>
      </trkpt>
      <trkpt lat="43.03235" lon="-0.74838">
        <ele>600</ele>
        <time>2021-12-29T11:01:01.000Z</time>
      </trkpt>
      <trkpt lat="43.03235" lon="-0.7484">
        <ele>600.2</ele>
        <time>2021-12-29T11:01:02.000Z</time>
      </trkpt>
      <trkpt lat="43.03234" lon="-0.74841">
        <ele>600.4</ele>
        <time>2021-12-29T11:01:03.000Z</time>
      </trkpt>
      <trkpt lat="43.03233" lon="-0.74843">
        <ele>600.6</ele>
        <time>2021-12-29T11:01:04.000Z</time>
      </trkpt>
      <trkpt lat="43.03233" lon="-0.74844">
        <ele>600.8</ele>
        <time>2021-12-29T11:01:05.000Z</time>
      </trkpt>
      <trkpt lat="43.03233" lon="-0.74844">
        <ele>601</ele>
        <time>2021-12-29T11:01:06.000Z</time>
      </trkpt>
      <trkpt lat="43.03233" lon="-0.74844">
        <ele>601</ele>
        <time>2021-12-29T11:01:07.000Z</time>
      </trkpt>
      <trkpt lat="43.03232" lon="-0.74845">
        <ele>601</ele>
        <time>2021-12-29T11:01:08.000Z</time>
      </trkpt>
      <trkpt lat="43.03231" lon="-0.74845">
        <ele>601</ele>
        <time>2021-12-29T11:01:09.000Z</time>
      </trkpt>
      <trkpt lat="43.0323" lon="-0.74846">
        <ele>601.2</ele>
        <time>2021-12-29T11:01:10.000Z</time>
      </trkpt>
      <trkpt lat="43.0323" lon="-0.74848">
        <ele>601.4</ele>
        <time>2021-12-29T11:01:11.000Z</time>
      </trkpt>
      <trkpt lat="43.03229" lon="-0.7485">
        <ele>601.6</ele>
        <time>2021-12-29T11:01:12.000Z</time>
      </trkpt>
      <trkpt lat="43.03229" lon="-0.74852">
        <ele>602</ele>
        <time>2021-12-29T11:01:13.000Z</time>
      </trkpt>
      <trkpt lat="43.03229" lon="-0.74854">
        <ele>602.2</ele>
        <time>2021-12-29T11:01:14.000Z</time>
      </trkpt>
      <trkpt lat="43.03228" lon="-0.74856">
        <ele>602.4</ele>
        <time>2021-12-29T11:01:15.000Z</time>
      </trkpt>
      <trkpt lat="43.03227" lon="-0.74858">
        <ele>602.8</ele>
        <time>2021-12-29T11:01:16.000Z</time>
      </trkpt>
      <trkpt lat="43.03226" lon="-0.74859">
        <ele>603</ele>
        <time>2021-12-29T11:01:17.000Z</time>
      </trkpt>
      <trkpt lat="43.03225" lon="-0.74861">
        <ele>603.2</ele>
        <time>2021-12-29T11:01:18.000Z</time>
      </trkpt>
      <trkpt lat="43.03224" lon="-0.74863">
        <ele>603.4</ele>
        <time>2021-12-29T11:01:19.000Z</time>
      </trkpt>
      <trkpt lat="43.03223" lon="-0.74864">
        <ele>603.6</ele>
        <time>2021-12-29T11:01:20.000Z</time>
      </trkpt>
      <trkpt lat="43.03222" lon="-0.74866">
        <ele>603.8</ele>
        <time>2021-12-29T11:01:21.000Z</time>
      </trkpt>
      <trkpt lat="43.03221" lon="-0.74867">
        <ele>604.2</ele>
        <time>2021-12-29T11:01:22.000Z</time>
      </trkpt>
      <trkpt lat="43.0322" lon="-0.74869">
        <ele>604.4</ele>
        <time>2021-12-29T11:01:23.000Z</time>
      </trkpt>
      <trkpt lat="43.03219" lon="-0.7487">
        <ele>604.6</ele>
        <time>2021-12-29T11:01:24.000Z</time>
      </trkpt>
      <trkpt lat="43.03218" lon="-0.74871">
        <ele>604.8</ele>
        <time>2021-12-29T11:01:25.000Z</time>
      </trkpt>
      <trkpt lat="43.03217" lon="-0.74872">
        <ele>605</ele>
        <time>2021-12-29T11:01:26.000Z</time>
      </trkpt>
      <trkpt lat="43.03215" lon="-0.74872">
        <ele>605.2</ele>
        <time>2021-12-29T11:01:27.000Z</time>
      </trkpt>
      <trkpt lat="43.03214" lon="-0.74873">
        <ele>605.4</ele>
        <time>2021-12-29T11:01:28.000Z</time>
      </trkpt>
      <trkpt lat="43.03213" lon="-0.74874">
        <ele>605.8</ele>
        <time>2021-12-29T11:01:29.000Z</time>
      </trkpt>
      <trkpt lat="43.03211" lon="-0.74875">
        <ele>606</ele>
        <time>2021-12-29T11:01:30.000Z</time>
      </trkpt>
      <trkpt lat="43.0321" lon="-0.74875">
        <ele>606.2</ele>
        <time>2021-12-29T11:01:31.000Z</time>
      </trkpt>
      <trkpt lat="43.03208" lon="-0.74876">
        <ele>606.4</ele>
        <time>2021-12-29T11:01:32.000Z</time>
      </trkpt>
      <trkpt lat="43.03207" lon="-0.74877">
        <ele>606.6</ele>
        <time>2021-12-29T11:01:33.000Z</time>
      </trkpt>
      <trkpt lat="43.03206" lon="-0.74877">
        <ele>606.8</ele>
        <time>2021-12-29T11:01:34.000Z</time>
      </trkpt>
      <trkpt lat="43.03204" lon="-0.74877">
        <ele>607</ele>
        <time>2021-12-29T11:01:35.000Z</time>
      </trkpt>
      <trkpt lat="43.03202" lon="-0.74877">
        <ele>607.2</ele>
        <time>2021-12-29T11:01:36.000Z</time>
      </trkpt>
      <trkpt lat="43.03201" lon="-0.74877">
        <ele>607.4</ele>
        <time>2021-12-29T11:01:37.000Z</time>
      </trkpt>
      <trkpt lat="43.03199" lon="-0.74878">
        <ele>607.8</ele>
        <time>2021-12-29T11:01:38.000Z</time>
      </trkpt>
      <trkpt lat="43.03198" lon="-0.74878">
        <ele>607.8</ele>
        <time>2021-12-29T11:01:39.000Z</time>
      </trkpt>
      <trkpt lat="43.03196" lon="-0.74878">
        <ele>608.2</ele>
        <time>2021-12-29T11:01:40.000Z</time>
      </trkpt>
      <trkpt lat="43.03195" lon="-0.74877">
        <ele>608.4</ele>
        <time>2021-12-29T11:01:41.000Z</time>
      </trkpt>
      <trkpt lat="43.03193" lon="-0.74877">
        <ele>608.6</ele>
        <time>2021-12-29T11:01:42.000Z</time>
      </trkpt>
      <trkpt lat="43.03192" lon="-0.74877">
        <ele>608.6</ele>
        <time>2021-12-29T11:01:43.000Z</time>
      </trkpt>
      <trkpt lat="43.03191" lon="-0.74877">
        <ele>609</ele>
        <time>2021-12-29T11:01:44.000Z</time>
      </trkpt>
      <trkpt lat="43.03189" lon="-0.74877">
        <ele>609.2</ele>
        <time>2021-12-29T11:01:45.000Z</time>
      </trkpt>
      <trkpt lat="43.03188" lon="-0.74877">
        <ele>609.4</ele>
        <time>2021-12-29T11:01:46.000Z</time>
      </trkpt>
      <trkpt lat="43.03186" lon="-0.74876">
        <ele>609.6</ele>
        <time>2021-12-29T11:01:47.000Z</time>
      </trkpt>
      <trkpt lat="43.03185" lon="-0.74876">
        <ele>609.8</ele>
        <time>2021-12-29T11:01:48.000Z</time>
      </trkpt>
      <trkpt lat="43.03184" lon="-0.74876">
        <ele>609.8</ele>
        <time>2021-12-29T11:01:49.000Z</time>
      </trkpt>
      <trkpt lat="43.03182" lon="-0.74875">
        <ele>610</ele>
        <time>2021-12-29T11:01:50.000Z</time>
      </trkpt>
      <trkpt lat="43.03181" lon="-0.74875">
        <ele>610.2</ele>
        <time>2021-12-29T11:01:51.000Z</time>
      </trkpt>
      <trkpt lat="43.0318" lon="-0.74875">
        <ele>610.4</ele>
        <time>2021-12-29T11:01:52.000Z</time>
      </trkpt>
      <trkpt lat="43.03179" lon="-0.74875">
        <ele>610.6</ele>
        <time>2021-12-29T11:01:53.000Z</time>
      </trkpt>
      <trkpt lat="43.03178" lon="-0.74874">
        <ele>610.8</ele>
        <time>2021-12-29T11:01:54.000Z</time>
      </trkpt>
      <trkpt lat="43.03176" lon="-0.74873">
        <ele>611</ele>
        <time>2021-12-29T11:01:55.000Z</time>
      </trkpt>
      <trkpt lat="43.03175" lon="-0.74873">
        <ele>611.2</ele>
        <time>2021-12-29T11:01:56.000Z</time>
      </trkpt>
      <trkpt lat="43.03174" lon="-0.74872">
        <ele>611.4</ele>
        <time>2021-12-29T11:01:57.000Z</time>
      </trkpt>
      <trkpt lat="43.03173" lon="-0.74872">
        <ele>611.6</ele>
        <time>2021-12-29T11:01:58.000Z</time>
      </trkpt>
      <trkpt lat="43.03171" lon="-0.74871">
        <ele>611.8</ele>
        <time>2021-12-29T11:01:59.000Z</time>
      </trkpt>
      <trkpt lat="43.0317" lon="-0.7487">
        <ele>612</ele>
        <time>2021-12-29T11:02:00.000Z</time>
      </trkpt>
      <trkpt lat="43.03169" lon="-0.7487">
        <ele>612.2</ele>
        <time>2021-12-29T11:02:01.000Z</time>
      </trkpt>
      <trkpt lat="43.03167" lon="-0.74869">
        <ele>612.4</ele>
        <time>2021-12-29T11:02:02.000Z</time>
      </trkpt>
      <trkpt lat="43.03166" lon="-0.74869">
        <ele>612.6</ele>
        <time>2021-12-29T11:02:03.000Z</time>
      </trkpt>
      <trkpt lat="43.03165" lon="-0.74868">
        <ele>612.8</ele>
        <time>2021-12-29T11:02:04.000Z</time>
      </trkpt>
      <trkpt lat="43.03164" lon="-0.74868">
        <ele>613</ele>
        <time>2021-12-29T11:02:05.000Z</time>
      </trkpt>
      <trkpt lat="43.03163" lon="-0.74867">
        <ele>613.2</ele>
        <time>2021-12-29T11:02:06.000Z</time>
      </trkpt>
      <trkpt lat="43.03162" lon="-0.74866">
        <ele>613.4</ele>
        <time>2021-12-29T11:02:07.000Z</time>
      </trkpt>
      <trkpt lat="43.03161" lon="-0.74865">
        <ele>613.6</ele>
        <time>2021-12-29T11:02:08.000Z</time>
      </trkpt>
      <trkpt lat="43.03159" lon="-0.74865">
        <ele>613.8</ele>
        <time>2021-12-29T11:02:09.000Z</time>
      </trkpt>
      <trkpt lat="43.03158" lon="-0.74865">
        <ele>614</ele>
        <time>2021-12-29T11:02:10.000Z</time>
      </trkpt>
      <trkpt lat="43.03157" lon="-0.74864">
        <ele>614.2</ele>
        <time>2021-12-29T11:02:11.000Z</time>
      </trkpt>
      <trkpt lat="43.03156" lon="-0.74863">
        <ele>614.4</ele>
        <time>2021-12-29T11:02:12.000Z</time>
      </trkpt>
      <trkpt lat="43.03155" lon="-0.74862">
        <ele>614.6</ele>
        <time>2021-12-29T11:02:13.000Z</time>
      </trkpt>
      <trkpt lat="43.03154" lon="-0.74862">
        <ele>615</ele>
        <time>2021-12-29T11:02:14.000Z</time>
      </trkpt>
      <trkpt lat="43.03152" lon="-0.74861">
        <ele>615.2</ele>
        <time>2021-12-29T11:02:15.000Z</time>
      </trkpt>
      <trkpt lat="43.03151" lon="-0.74861">
        <ele>615.4</ele>
        <time>2021-12-29T11:02:16.000Z</time>
      </trkpt>
      <trkpt lat="43.0315" lon="-0.74861">
        <ele>615.6</ele>
        <time>2021-12-29T11:02:17.000Z</time>
      </trkpt>
      <trkpt lat="43.03148" lon="-0.7486">
        <ele>616</ele>
        <time>2021-12-29T11:02:18.000Z</time>
      </trkpt>
      <trkpt lat="43.03147" lon="-0.7486">
        <ele>616.2</ele>
        <time>2021-12-29T11:02:19.000Z</time>
      </trkpt>
      <trkpt lat="43.03146" lon="-0.7486">
        <ele>616.4</ele>
        <time>2021-12-29T11:02:20.000Z</time>
      </trkpt>
      <trkpt lat="43.03145" lon="-0.7486">
        <ele>616.6</ele>
        <time>2021-12-29T11:02:21.000Z</time>
      </trkpt>
      <trkpt lat="43.03143" lon="-0.7486">
        <ele>616.8</ele>
        <time>2021-12-29T11:02:22.000Z</time>
      </trkpt>
      <trkpt lat="43.03142" lon="-0.74861">
        <ele>617.2</ele>
        <time>2021-12-29T11:02:23.000Z</time>
      </trkpt>
      <trkpt lat="43.03141" lon="-0.74861">
        <ele>617.4</ele>
        <time>2021-12-29T11:02:24.000Z</time>
      </trkpt>
      <trkpt lat="43.03139" lon="-0.74861">
        <ele>617.6</ele>
        <time>2021-12-29T11:02:25.000Z</time>
      </trkpt>
      <trkpt lat="43.03138" lon="-0.74861">
        <ele>617.8</ele>
        <time>2021-12-29T11:02:26.000Z</time>
      </trkpt>
      <trkpt lat="43.03137" lon="-0.74862">
        <ele>618</ele>
        <time>2021-12-29T11:02:27.000Z</time>
      </trkpt>
      <trkpt lat="43.03136" lon="-0.74862">
        <ele>618.2</ele>
        <time>2021-12-29T11:02:28.000Z</time>
      </trkpt>
      <trkpt lat="43.03135" lon="-0.74863">
        <ele>618.4</ele>
        <time>2021-12-29T11:02:29.000Z</time>
      </trkpt>
      <trkpt lat="43.03133" lon="-0.74863">
        <ele>618.6</ele>
        <time>2021-12-29T11:02:30.000Z</time>
      </trkpt>
      <trkpt lat="43.03132" lon="-0.74864">
        <ele>618.8</ele>
        <time>2021-12-29T11:02:31.000Z</time>
      </trkpt>
      <trkpt lat="43.0313" lon="-0.74863">
        <ele>619</ele>
        <time>2021-12-29T11:02:32.000Z</time>
      </trkpt>
      <trkpt lat="43.03129" lon="-0.74863">
        <ele>619.4</ele>
        <time>2021-12-29T11:02:33.000Z</time>
      </trkpt>
      <trkpt lat="43.03128" lon="-0.74863">
        <ele>619.6</ele>
        <time>2021-12-29T11:02:34.000Z</time>
      </trkpt>
      <trkpt lat="43.03126" lon="-0.74863">
        <ele>619.8</ele>
        <time>2021-12-29T11:02:35.000Z</time>
      </trkpt>
      <trkpt lat="43.03125" lon="-0.74863">
        <ele>620</ele>
        <time>2021-12-29T11:02:36.000Z</time>
      </trkpt>
      <trkpt lat="43.03123" lon="-0.74863">
        <ele>620.2</ele>
        <time>2021-12-29T11:02:37.000Z</time>
      </trkpt>
      <trkpt lat="43.03122" lon="-0.74863">
        <ele>620.6</ele>
        <time>2021-12-29T11:02:38.000Z</time>
      </trkpt>
      <trkpt lat="43.0312" lon="-0.74863">
        <ele>620.8</ele>
        <time>2021-12-29T11:02:39.000Z</time>
      </trkpt>
      <trkpt lat="43.03119" lon="-0.74863">
        <ele>621</ele>
        <time>2021-12-29T11:02:40.000Z</time>
      </trkpt>
      <trkpt lat="43.03117" lon="-0.74863">
        <ele>621.2</ele>
        <time>2021-12-29T11:02:41.000Z</time>
      </trkpt>
      <trkpt lat="43.03116" lon="-0.74863">
        <ele>621.4</ele>
        <time>2021-12-29T11:02:42.000Z</time>
      </trkpt>
      <trkpt lat="43.03114" lon="-0.74863">
        <ele>621.6</ele>
        <time>2021-12-29T11:02:43.000Z</time>
      </trkpt>
      <trkpt lat="43.03113" lon="-0.74863">
        <ele>621.8</ele>
        <time>2021-12-29T11:02:44.000Z</time>
      </trkpt>
      <trkpt lat="43.03111" lon="-0.74864">
        <ele>622</ele>
        <time>2021-12-29T11:02:45.000Z</time>
      </trkpt>
      <trkpt lat="43.0311" lon="-0.74864">
        <ele>622.2</ele>
        <time>2021-12-29T11:02:46.000Z</time>
      </trkpt>
      <trkpt lat="43.03108" lon="-0.74865">
        <ele>622.4</ele>
        <time>2021-12-29T11:02:47.000Z</time>
      </trkpt>
      <trkpt lat="43.03107" lon="-0.74865">
        <ele>622.6</ele>
        <time>2021-12-29T11:02:48.000Z</time>
      </trkpt>
      <trkpt lat="43.03105" lon="-0.74865">
        <ele>622.6</ele>
        <time>2021-12-29T11:02:49.000Z</time>
      </trkpt>
      <trkpt lat="43.03103" lon="-0.74865">
        <ele>622.8</ele>
        <time>2021-12-29T11:02:50.000Z</time>
      </trkpt>
      <trkpt lat="43.03102" lon="-0.74866">
        <ele>623</ele>
        <time>2021-12-29T11:02:51.000Z</time>
      </trkpt>
      <trkpt lat="43.031" lon="-0.74865">
        <ele>623.2</ele>
        <time>2021-12-29T11:02:52.000Z</time>
      </trkpt>
      <trkpt lat="43.03098" lon="-0.74865">
        <ele>623.2</ele>
        <time>2021-12-29T11:02:53.000Z</time>
      </trkpt>
      <trkpt lat="43.03097" lon="-0.74866">
        <ele>623.4</ele>
        <time>2021-12-29T11:02:54.000Z</time>
      </trkpt>
      <trkpt lat="43.03095" lon="-0.74866">
        <ele>623.4</ele>
        <time>2021-12-29T11:02:55.000Z</time>
      </trkpt>
      <trkpt lat="43.03093" lon="-0.74866">
        <ele>623.6</ele>
        <time>2021-12-29T11:02:56.000Z</time>
      </trkpt>
      <trkpt lat="43.03091" lon="-0.74866">
        <ele>623.6</ele>
        <time>2021-12-29T11:02:57.000Z</time>
      </trkpt>
      <trkpt lat="43.03089" lon="-0.74865">
        <ele>623.8</ele>
        <time>2021-12-29T11:02:58.000Z</time>
      </trkpt>
      <trkpt lat="43.03088" lon="-0.74865">
        <ele>624</ele>
        <time>2021-12-29T11:02:59.000Z</time>
      </trkpt>
      <trkpt lat="43.03086" lon="-0.74865">
        <ele>624</ele>
        <time>2021-12-29T11:03:00.000Z</time>
      </trkpt>
      <trkpt lat="43.03084" lon="-0.74864">
        <ele>624.2</ele>
        <time>2021-12-29T11:03:01.000Z</time>
      </trkpt>
      <trkpt lat="43.03083" lon="-0.74864">
        <ele>624.2</ele>
        <time>2021-12-29T11:03:02.000Z</time>
      </trkpt>
      <trkpt lat="43.03081" lon="-0.74863">
        <ele>624.4</ele>
        <time>2021-12-29T11:03:03.000Z</time>
      </trkpt>
      <trkpt lat="43.03079" lon="-0.74862">
        <ele>624.6</ele>
        <time>2021-12-29T11:03:04.000Z</time>
      </trkpt>
      <trkpt lat="43.03078" lon="-0.74861">
        <ele>624.8</ele>
        <time>2021-12-29T11:03:05.000Z</time>
      </trkpt>
      <trkpt lat="43.03076" lon="-0.74859">
        <ele>624.8</ele>
        <time>2021-12-29T11:03:06.000Z</time>
      </trkpt>
      <trkpt lat="43.03075" lon="-0.74858">
        <ele>625</ele>
        <time>2021-12-29T11:03:07.000Z</time>
      </trkpt>
      <trkpt lat="43.03073" lon="-0.74857">
        <ele>625</ele>
        <time>2021-12-29T11:03:08.000Z</time>
      </trkpt>
      <trkpt lat="43.03072" lon="-0.74856">
        <ele>625.2</ele>
        <time>2021-12-29T11:03:09.000Z</time>
      </trkpt>
      <trkpt lat="43.0307" lon="-0.74855">
        <ele>625.4</ele>
        <time>2021-12-29T11:03:10.000Z</time>
      </trkpt>
      <trkpt lat="43.03068" lon="-0.74854">
        <ele>625.6</ele>
        <time>2021-12-29T11:03:11.000Z</time>
      </trkpt>
      <trkpt lat="43.03066" lon="-0.74853">
        <ele>625.6</ele>
        <time>2021-12-29T11:03:12.000Z</time>
      </trkpt>
      <trkpt lat="43.03065" lon="-0.74852">
        <ele>625.8</ele>
        <time>2021-12-29T11:03:13.000Z</time>
      </trkpt>
      <trkpt lat="43.03063" lon="-0.74851">
        <ele>626</ele>
        <time>2021-12-29T11:03:14.000Z</time>
      </trkpt>
      <trkpt lat="43.03062" lon="-0.7485">
        <ele>626</ele>
        <time>2021-12-29T11:03:15.000Z</time>
      </trkpt>
      <trkpt lat="43.0306" lon="-0.74848">
        <ele>626.2</ele>
        <time>2021-12-29T11:03:16.000Z</time>
      </trkpt>
      <trkpt lat="43.03059" lon="-0.74846">
        <ele>626.4</ele>
        <time>2021-12-29T11:03:17.000Z</time>
      </trkpt>
      <trkpt lat="43.03058" lon="-0.74844">
        <ele>626.4</ele>
        <time>2021-12-29T11:03:18.000Z</time>
      </trkpt>
      <trkpt lat="43.03056" lon="-0.74843">
        <ele>626.6</ele>
        <time>2021-12-29T11:03:19.000Z</time>
      </trkpt>
      <trkpt lat="43.03055" lon="-0.74842">
        <ele>626.8</ele>
        <time>2021-12-29T11:03:20.000Z</time>
      </trkpt>
      <trkpt lat="43.03054" lon="-0.7484">
        <ele>627</ele>
        <time>2021-12-29T11:03:21.000Z</time>
      </trkpt>
      <trkpt lat="43.03052" lon="-0.74839">
        <ele>627.2</ele>
        <time>2021-12-29T11:03:22.000Z</time>
      </trkpt>
      <trkpt lat="43.03051" lon="-0.74838">
        <ele>627.2</ele>
        <time>2021-12-29T11:03:23.000Z</time>
      </trkpt>
      <trkpt lat="43.0305" lon="-0.74836">
        <ele>627.6</ele>
        <time>2021-12-29T11:03:24.000Z</time>
      </trkpt>
      <trkpt lat="43.03048" lon="-0.74835">
        <ele>627.6</ele>
        <time>2021-12-29T11:03:25.000Z</time>
      </trkpt>
      <trkpt lat="43.03047" lon="-0.74834">
        <ele>627.8</ele>
        <time>2021-12-29T11:03:26.000Z</time>
      </trkpt>
      <trkpt lat="43.03045" lon="-0.74832">
        <ele>628</ele>
        <time>2021-12-29T11:03:27.000Z</time>
      </trkpt>
      <trkpt lat="43.03044" lon="-0.74831">
        <ele>628.4</ele>
        <time>2021-12-29T11:03:28.000Z</time>
      </trkpt>
      <trkpt lat="43.03043" lon="-0.74829">
        <ele>628.4</ele>
        <time>2021-12-29T11:03:29.000Z</time>
      </trkpt>
      <trkpt lat="43.03042" lon="-0.74828">
        <ele>628.6</ele>
        <time>2021-12-29T11:03:30.000Z</time>
      </trkpt>
      <trkpt lat="43.0304" lon="-0.74827">
        <ele>628.8</ele>
        <time>2021-12-29T11:03:31.000Z</time>
      </trkpt>
      <trkpt lat="43.03039" lon="-0.74826">
        <ele>629</ele>
        <time>2021-12-29T11:03:32.000Z</time>
      </trkpt>
      <trkpt lat="43.03038" lon="-0.74824">
        <ele>629.2</ele>
        <time>2021-12-29T11:03:33.000Z</time>
      </trkpt>
      <trkpt lat="43.03036" lon="-0.74822">
        <ele>629.4</ele>
        <time>2021-12-29T11:03:34.000Z</time>
      </trkpt>
      <trkpt lat="43.03035" lon="-0.74821">
        <ele>629.6</ele>
        <time>2021-12-29T11:03:35.000Z</time>
      </trkpt>
      <trkpt lat="43.03034" lon="-0.7482">
        <ele>630</ele>
        <time>2021-12-29T11:03:36.000Z</time>
      </trkpt>
      <trkpt lat="43.03033" lon="-0.74818">
        <ele>630</ele>
        <time>2021-12-29T11:03:37.000Z</time>
      </trkpt>
      <trkpt lat="43.03032" lon="-0.74817">
        <ele>630.2</ele>
        <time>2021-12-29T11:03:38.000Z</time>
      </trkpt>
      <trkpt lat="43.03031" lon="-0.74815">
        <ele>630.4</ele>
        <time>2021-12-29T11:03:39.000Z</time>
      </trkpt>
      <trkpt lat="43.0303" lon="-0.74814">
        <ele>630.8</ele>
        <time>2021-12-29T11:03:40.000Z</time>
      </trkpt>
      <trkpt lat="43.03029" lon="-0.74812">
        <ele>630.8</ele>
        <time>2021-12-29T11:03:41.000Z</time>
      </trkpt>
      <trkpt lat="43.03028" lon="-0.7481">
        <ele>631</ele>
        <time>2021-12-29T11:03:42.000Z</time>
      </trkpt>
      <trkpt lat="43.03027" lon="-0.74809">
        <ele>631.4</ele>
        <time>2021-12-29T11:03:43.000Z</time>
      </trkpt>
      <trkpt lat="43.03025" lon="-0.74807">
        <ele>631.6</ele>
        <time>2021-12-29T11:03:44.000Z</time>
      </trkpt>
      <trkpt lat="43.03024" lon="-0.74806">
        <ele>631.8</ele>
        <time>2021-12-29T11:03:45.000Z</time>
      </trkpt>
      <trkpt lat="43.03023" lon="-0.74804">
        <ele>632</ele>
        <time>2021-12-29T11:03:46.000Z</time>
      </trkpt>
      <trkpt lat="43.03022" lon="-0.74803">
        <ele>632.2</ele>
        <time>2021-12-29T11:03:47.000Z</time>
      </trkpt>
      <trkpt lat="43.0302" lon="-0.74801">
        <ele>632.6</ele>
        <time>2021-12-29T11:03:48.000Z</time>
      </trkpt>
      <trkpt lat="43.03019" lon="-0.748">
        <ele>632.8</ele>
        <time>2021-12-29T11:03:49.000Z</time>
      </trkpt>
      <trkpt lat="43.03018" lon="-0.74799">
        <ele>633</ele>
        <time>2021-12-29T11:03:50.000Z</time>
      </trkpt>
      <trkpt lat="43.03017" lon="-0.74798">
        <ele>633.2</ele>
        <time>2021-12-29T11:03:51.000Z</time>
      </trkpt>
      <trkpt lat="43.03015" lon="-0.74797">
        <ele>633.4</ele>
        <time>2021-12-29T11:03:52.000Z</time>
      </trkpt>
      <trkpt lat="43.03013" lon="-0.74796">
        <ele>633.6</ele>
        <time>2021-12-29T11:03:53.000Z</time>
      </trkpt>
      <trkpt lat="43.03012" lon="-0.74795">
        <ele>633.8</ele>
        <time>2021-12-29T11:03:54.000Z</time>
      </trkpt>
      <trkpt lat="43.0301" lon="-0.74795">
        <ele>634</ele>
        <time>2021-12-29T11:03:55.000Z</time>
      </trkpt>
      <trkpt lat="43.03008" lon="-0.74794">
        <ele>634.2</ele>
        <time>2021-12-29T11:03:56.000Z</time>
      </trkpt>
      <trkpt lat="43.03006" lon="-0.74793">
        <ele>634.4</ele>
        <time>2021-12-29T11:03:57.000Z</time>
      </trkpt>
      <trkpt lat="43.03004" lon="-0.74792">
        <ele>634.6</ele>
        <time>2021-12-29T11:03:58.000Z</time>
      </trkpt>
      <trkpt lat="43.03002" lon="-0.74792">
        <ele>634.8</ele>
        <time>2021-12-29T11:03:59.000Z</time>
      </trkpt>
      <trkpt lat="43.03001" lon="-0.74791">
        <ele>635</ele>
        <time>2021-12-29T11:04:00.000Z</time>
      </trkpt>
      <trkpt lat="43.02999" lon="-0.7479">
        <ele>635</ele>
        <time>2021-12-29T11:04:01.000Z</time>
      </trkpt>
      <trkpt lat="43.02997" lon="-0.74789">
        <ele>635.2</ele>
        <time>2021-12-29T11:04:02.000Z</time>
      </trkpt>
      <trkpt lat="43.02995" lon="-0.74788">
        <ele>635.4</ele>
        <time>2021-12-29T11:04:03.000Z</time>
      </trkpt>
      <trkpt lat="43.02993" lon="-0.74787">
        <ele>635.6</ele>
        <time>2021-12-29T11:04:04.000Z</time>
      </trkpt>
      <trkpt lat="43.02992" lon="-0.74785">
        <ele>635.8</ele>
        <time>2021-12-29T11:04:05.000Z</time>
      </trkpt>
      <trkpt lat="43.0299" lon="-0.74784">
        <ele>635.8</ele>
        <time>2021-12-29T11:04:06.000Z</time>
      </trkpt>
      <trkpt lat="43.02988" lon="-0.74783">
        <ele>636</ele>
        <time>2021-12-29T11:04:07.000Z</time>
      </trkpt>
      <trkpt lat="43.02986" lon="-0.74781">
        <ele>636.2</ele>
        <time>2021-12-29T11:04:08.000Z</time>
      </trkpt>
      <trkpt lat="43.02984" lon="-0.7478">
        <ele>636.4</ele>
        <time>2021-12-29T11:04:09.000Z</time>
      </trkpt>
      <trkpt lat="43.02982" lon="-0.74778">
        <ele>636.6</ele>
        <time>2021-12-29T11:04:10.000Z</time>
      </trkpt>
      <trkpt lat="43.0298" lon="-0.74776">
        <ele>636.6</ele>
        <time>2021-12-29T11:04:11.000Z</time>
      </trkpt>
      <trkpt lat="43.02978" lon="-0.74775">
        <ele>636.8</ele>
        <time>2021-12-29T11:04:12.000Z</time>
      </trkpt>
      <trkpt lat="43.02977" lon="-0.74773">
        <ele>637</ele>
        <time>2021-12-29T11:04:13.000Z</time>
      </trkpt>
      <trkpt lat="43.02975" lon="-0.74771">
        <ele>637.2</ele>
        <time>2021-12-29T11:04:14.000Z</time>
      </trkpt>
      <trkpt lat="43.02973" lon="-0.74769">
        <ele>637.4</ele>
        <time>2021-12-29T11:04:15.000Z</time>
      </trkpt>
      <trkpt lat="43.02972" lon="-0.74768">
        <ele>637.4</ele>
        <time>2021-12-29T11:04:16.000Z</time>
      </trkpt>
      <trkpt lat="43.0297" lon="-0.74766">
        <ele>637.6</ele>
        <time>2021-12-29T11:04:17.000Z</time>
      </trkpt>
      <trkpt lat="43.02968" lon="-0.74764">
        <ele>637.6</ele>
        <time>2021-12-29T11:04:18.000Z</time>
      </trkpt>
      <trkpt lat="43.02967" lon="-0.74762">
        <ele>637.8</ele>
        <time>2021-12-29T11:04:19.000Z</time>
      </trkpt>
      <trkpt lat="43.02965" lon="-0.74761">
        <ele>638</ele>
        <time>2021-12-29T11:04:20.000Z</time>
      </trkpt>
      <trkpt lat="43.02964" lon="-0.74759">
        <ele>638.2</ele>
        <time>2021-12-29T11:04:21.000Z</time>
      </trkpt>
      <trkpt lat="43.02963" lon="-0.74756">
        <ele>638.2</ele>
        <time>2021-12-29T11:04:22.000Z</time>
      </trkpt>
      <trkpt lat="43.02961" lon="-0.74754">
        <ele>638.4</ele>
        <time>2021-12-29T11:04:23.000Z</time>
      </trkpt>
      <trkpt lat="43.0296" lon="-0.74753">
        <ele>638.4</ele>
        <time>2021-12-29T11:04:24.000Z</time>
      </trkpt>
      <trkpt lat="43.02958" lon="-0.74751">
        <ele>638.6</ele>
        <time>2021-12-29T11:04:25.000Z</time>
      </trkpt>
      <trkpt lat="43.02957" lon="-0.74749">
        <ele>638.8</ele>
        <time>2021-12-29T11:04:26.000Z</time>
      </trkpt>
      <trkpt lat="43.02955" lon="-0.74747">
        <ele>639</ele>
        <time>2021-12-29T11:04:27.000Z</time>
      </trkpt>
      <trkpt lat="43.02954" lon="-0.74746">
        <ele>639</ele>
        <time>2021-12-29T11:04:28.000Z</time>
      </trkpt>
      <trkpt lat="43.02952" lon="-0.74744">
        <ele>639.2</ele>
        <time>2021-12-29T11:04:29.000Z</time>
      </trkpt>
      <trkpt lat="43.02951" lon="-0.74742">
        <ele>639.4</ele>
        <time>2021-12-29T11:04:30.000Z</time>
      </trkpt>
      <trkpt lat="43.0295" lon="-0.7474">
        <ele>639.6</ele>
        <time>2021-12-29T11:04:31.000Z</time>
      </trkpt>
      <trkpt lat="43.02948" lon="-0.74738">
        <ele>639.6</ele>
        <time>2021-12-29T11:04:32.000Z</time>
      </trkpt>
      <trkpt lat="43.02947" lon="-0.74736">
        <ele>639.8</ele>
        <time>2021-12-29T11:04:33.000Z</time>
      </trkpt>
      <trkpt lat="43.02946" lon="-0.74735">
        <ele>639.8</ele>
        <time>2021-12-29T11:04:34.000Z</time>
      </trkpt>
      <trkpt lat="43.02945" lon="-0.74733">
        <ele>640</ele>
        <time>2021-12-29T11:04:35.000Z</time>
      </trkpt>
      <trkpt lat="43.02943" lon="-0.74731">
        <ele>640.2</ele>
        <time>2021-12-29T11:04:36.000Z</time>
      </trkpt>
      <trkpt lat="43.02942" lon="-0.74729">
        <ele>640.4</ele>
        <time>2021-12-29T11:04:37.000Z</time>
      </trkpt>
      <trkpt lat="43.02941" lon="-0.74727">
        <ele>640.6</ele>
        <time>2021-12-29T11:04:38.000Z</time>
      </trkpt>
      <trkpt lat="43.02939" lon="-0.74725">
        <ele>640.8</ele>
        <time>2021-12-29T11:04:39.000Z</time>
      </trkpt>
      <trkpt lat="43.02938" lon="-0.74723">
        <ele>640.8</ele>
        <time>2021-12-29T11:04:40.000Z</time>
      </trkpt>
      <trkpt lat="43.02937" lon="-0.74722">
        <ele>641</ele>
        <time>2021-12-29T11:04:41.000Z</time>
      </trkpt>
      <trkpt lat="43.02936" lon="-0.7472">
        <ele>641.2</ele>
        <time>2021-12-29T11:04:42.000Z</time>
      </trkpt>
      <trkpt lat="43.02935" lon="-0.74718">
        <ele>641.4</ele>
        <time>2021-12-29T11:04:43.000Z</time>
      </trkpt>
      <trkpt lat="43.02934" lon="-0.74716">
        <ele>641.6</ele>
        <time>2021-12-29T11:04:44.000Z</time>
      </trkpt>
      <trkpt lat="43.02933" lon="-0.74714">
        <ele>641.8</ele>
        <time>2021-12-29T11:04:45.000Z</time>
      </trkpt>
      <trkpt lat="43.02932" lon="-0.74712">
        <ele>641.8</ele>
        <time>2021-12-29T11:04:46.000Z</time>
      </trkpt>
      <trkpt lat="43.02932" lon="-0.7471">
        <ele>642</ele>
        <time>2021-12-29T11:04:47.000Z</time>
      </trkpt>
      <trkpt lat="43.02931" lon="-0.74707">
        <ele>642.2</ele>
        <time>2021-12-29T11:04:48.000Z</time>
      </trkpt>
      <trkpt lat="43.0293" lon="-0.74705">
        <ele>642.4</ele>
        <time>2021-12-29T11:04:49.000Z</time>
      </trkpt>
      <trkpt lat="43.0293" lon="-0.74703">
        <ele>642.6</ele>
        <time>2021-12-29T11:04:50.000Z</time>
      </trkpt>
      <trkpt lat="43.02929" lon="-0.74701">
        <ele>642.8</ele>
        <time>2021-12-29T11:04:51.000Z</time>
      </trkpt>
      <trkpt lat="43.02928" lon="-0.74699">
        <ele>643</ele>
        <time>2021-12-29T11:04:52.000Z</time>
      </trkpt>
      <trkpt lat="43.02927" lon="-0.74697">
        <ele>643.2</ele>
        <time>2021-12-29T11:04:53.000Z</time>
      </trkpt>
      <trkpt lat="43.02926" lon="-0.74695">
        <ele>643.4</ele>
        <time>2021-12-29T11:04:54.000Z</time>
      </trkpt>
      <trkpt lat="43.02925" lon="-0.74693">
        <ele>643.4</ele>
        <time>2021-12-29T11:04:55.000Z</time>
      </trkpt>
      <trkpt lat="43.02924" lon="-0.7469">
        <ele>643.6</ele>
        <time>2021-12-29T11:04:56.000Z</time>
      </trkpt>
      <trkpt lat="43.02924" lon="-0.74688">
        <ele>643.8</ele>
        <time>2021-12-29T11:04:57.000Z</time>
      </trkpt>
      <trkpt lat="43.02923" lon="-0.74686">
        <ele>644</ele>
        <time>2021-12-29T11:04:58.000Z</time>
      </trkpt>
      <trkpt lat="43.02922" lon="-0.74684">
        <ele>644.2</ele>
        <time>2021-12-29T11:04:59.000Z</time>
      </trkpt>
      <trkpt lat="43.02921" lon="-0.74682">
        <ele>644.4</ele>
        <time>2021-12-29T11:05:00.000Z</time>
      </trkpt>
      <trkpt lat="43.0292" lon="-0.7468">
        <ele>644.6</ele>
        <time>2021-12-29T11:05:01.000Z</time>
      </trkpt>
      <trkpt lat="43.0292" lon="-0.74677">
        <ele>644.8</ele>
        <time>2021-12-29T11:05:02.000Z</time>
      </trkpt>
      <trkpt lat="43.02919" lon="-0.74675">
        <ele>644.8</ele>
        <time>2021-12-29T11:05:03.000Z</time>
      </trkpt>
      <trkpt lat="43.02918" lon="-0.74674">
        <ele>645</ele>
        <time>2021-12-29T11:05:04.000Z</time>
      </trkpt>
      <trkpt lat="43.02917" lon="-0.74672">
        <ele>645.2</ele>
        <time>2021-12-29T11:05:05.000Z</time>
      </trkpt>
      <trkpt lat="43.02916" lon="-0.7467">
        <ele>645.4</ele>
        <time>2021-12-29T11:05:06.000Z</time>
      </trkpt>
      <trkpt lat="43.02914" lon="-0.74668">
        <ele>645.8</ele>
        <time>2021-12-29T11:05:07.000Z</time>
      </trkpt>
      <trkpt lat="43.02913" lon="-0.74666">
        <ele>646</ele>
        <time>2021-12-29T11:05:08.000Z</time>
      </trkpt>
      <trkpt lat="43.02912" lon="-0.74664">
        <ele>646.2</ele>
        <time>2021-12-29T11:05:09.000Z</time>
      </trkpt>
      <trkpt lat="43.02911" lon="-0.74662">
        <ele>646.4</ele>
        <time>2021-12-29T11:05:10.000Z</time>
      </trkpt>
      <trkpt lat="43.0291" lon="-0.7466">
        <ele>646.4</ele>
        <time>2021-12-29T11:05:11.000Z</time>
      </trkpt>
      <trkpt lat="43.02909" lon="-0.74658">
        <ele>646.6</ele>
        <time>2021-12-29T11:05:12.000Z</time>
      </trkpt>
      <trkpt lat="43.02908" lon="-0.74656">
        <ele>646.8</ele>
        <time>2021-12-29T11:05:13.000Z</time>
      </trkpt>
      <trkpt lat="43.02907" lon="-0.74654">
        <ele>647</ele>
        <time>2021-12-29T11:05:14.000Z</time>
      </trkpt>
      <trkpt lat="43.02906" lon="-0.74653">
        <ele>647.2</ele>
        <time>2021-12-29T11:05:15.000Z</time>
      </trkpt>
      <trkpt lat="43.02905" lon="-0.74651">
        <ele>647.4</ele>
        <time>2021-12-29T11:05:16.000Z</time>
      </trkpt>
      <trkpt lat="43.02904" lon="-0.74649">
        <ele>647.6</ele>
        <time>2021-12-29T11:05:17.000Z</time>
      </trkpt>
      <trkpt lat="43.02902" lon="-0.74648">
        <ele>647.6</ele>
        <time>2021-12-29T11:05:18.000Z</time>
      </trkpt>
      <trkpt lat="43.02901" lon="-0.74646">
        <ele>647.8</ele>
        <time>2021-12-29T11:05:19.000Z</time>
      </trkpt>
      <trkpt lat="43.02899" lon="-0.74645">
        <ele>648</ele>
        <time>2021-12-29T11:05:20.000Z</time>
      </trkpt>
      <trkpt lat="43.02897" lon="-0.74644">
        <ele>648.2</ele>
        <time>2021-12-29T11:05:21.000Z</time>
      </trkpt>
      <trkpt lat="43.02896" lon="-0.74642">
        <ele>648.2</ele>
        <time>2021-12-29T11:05:22.000Z</time>
      </trkpt>
      <trkpt lat="43.02894" lon="-0.74641">
        <ele>648.6</ele>
        <time>2021-12-29T11:05:23.000Z</time>
      </trkpt>
      <trkpt lat="43.02893" lon="-0.7464">
        <ele>648.6</ele>
        <time>2021-12-29T11:05:24.000Z</time>
      </trkpt>
      <trkpt lat="43.02891" lon="-0.74639">
        <ele>648.8</ele>
        <time>2021-12-29T11:05:25.000Z</time>
      </trkpt>
      <trkpt lat="43.02889" lon="-0.74638">
        <ele>649.2</ele>
        <time>2021-12-29T11:05:26.000Z</time>
      </trkpt>
      <trkpt lat="43.02888" lon="-0.74637">
        <ele>649.2</ele>
        <time>2021-12-29T11:05:27.000Z</time>
      </trkpt>
      <trkpt lat="43.02886" lon="-0.74636">
        <ele>649.4</ele>
        <time>2021-12-29T11:05:28.000Z</time>
      </trkpt>
      <trkpt lat="43.02884" lon="-0.74636">
        <ele>649.4</ele>
        <time>2021-12-29T11:05:29.000Z</time>
      </trkpt>
      <trkpt lat="43.02883" lon="-0.74635">
        <ele>649.8</ele>
        <time>2021-12-29T11:05:30.000Z</time>
      </trkpt>
      <trkpt lat="43.02881" lon="-0.74634">
        <ele>649.8</ele>
        <time>2021-12-29T11:05:31.000Z</time>
      </trkpt>
      <trkpt lat="43.02879" lon="-0.74634">
        <ele>650</ele>
        <time>2021-12-29T11:05:32.000Z</time>
      </trkpt>
      <trkpt lat="43.02878" lon="-0.74633">
        <ele>650.2</ele>
        <time>2021-12-29T11:05:33.000Z</time>
      </trkpt>
      <trkpt lat="43.02876" lon="-0.74632">
        <ele>650.4</ele>
        <time>2021-12-29T11:05:34.000Z</time>
      </trkpt>
      <trkpt lat="43.02874" lon="-0.74631">
        <ele>650.4</ele>
        <time>2021-12-29T11:05:35.000Z</time>
      </trkpt>
      <trkpt lat="43.02873" lon="-0.7463">
        <ele>650.4</ele>
        <time>2021-12-29T11:05:36.000Z</time>
      </trkpt>
      <trkpt lat="43.02871" lon="-0.7463">
        <ele>650.6</ele>
        <time>2021-12-29T11:05:37.000Z</time>
      </trkpt>
      <trkpt lat="43.02869" lon="-0.74629">
        <ele>651</ele>
        <time>2021-12-29T11:05:38.000Z</time>
      </trkpt>
      <trkpt lat="43.02868" lon="-0.74629">
        <ele>651</ele>
        <time>2021-12-29T11:05:39.000Z</time>
      </trkpt>
      <trkpt lat="43.02866" lon="-0.74629">
        <ele>651.2</ele>
        <time>2021-12-29T11:05:40.000Z</time>
      </trkpt>
      <trkpt lat="43.02864" lon="-0.74628">
        <ele>651.2</ele>
        <time>2021-12-29T11:05:41.000Z</time>
      </trkpt>
      <trkpt lat="43.02862" lon="-0.74628">
        <ele>651.4</ele>
        <time>2021-12-29T11:05:42.000Z</time>
      </trkpt>
      <trkpt lat="43.0286" lon="-0.74627">
        <ele>651.4</ele>
        <time>2021-12-29T11:05:43.000Z</time>
      </trkpt>
      <trkpt lat="43.02859" lon="-0.74627">
        <ele>651.6</ele>
        <time>2021-12-29T11:05:44.000Z</time>
      </trkpt>
      <trkpt lat="43.02857" lon="-0.74626">
        <ele>651.8</ele>
        <time>2021-12-29T11:05:45.000Z</time>
      </trkpt>
      <trkpt lat="43.02856" lon="-0.74625">
        <ele>652</ele>
        <time>2021-12-29T11:05:46.000Z</time>
      </trkpt>
      <trkpt lat="43.02854" lon="-0.74624">
        <ele>652.2</ele>
        <time>2021-12-29T11:05:47.000Z</time>
      </trkpt>
      <trkpt lat="43.02852" lon="-0.74623">
        <ele>652.2</ele>
        <time>2021-12-29T11:05:48.000Z</time>
      </trkpt>
      <trkpt lat="43.0285" lon="-0.74623">
        <ele>652.4</ele>
        <time>2021-12-29T11:05:49.000Z</time>
      </trkpt>
      <trkpt lat="43.02848" lon="-0.74622">
        <ele>652.6</ele>
        <time>2021-12-29T11:05:50.000Z</time>
      </trkpt>
      <trkpt lat="43.02846" lon="-0.74622">
        <ele>652.8</ele>
        <time>2021-12-29T11:05:51.000Z</time>
      </trkpt>
      <trkpt lat="43.02844" lon="-0.74621">
        <ele>652.8</ele>
        <time>2021-12-29T11:05:52.000Z</time>
      </trkpt>
      <trkpt lat="43.02843" lon="-0.7462">
        <ele>653</ele>
        <time>2021-12-29T11:05:53.000Z</time>
      </trkpt>
      <trkpt lat="43.02841" lon="-0.74619">
        <ele>653.2</ele>
        <time>2021-12-29T11:05:54.000Z</time>
      </trkpt>
      <trkpt lat="43.02839" lon="-0.74619">
        <ele>653.4</ele>
        <time>2021-12-29T11:05:55.000Z</time>
      </trkpt>
      <trkpt lat="43.02837" lon="-0.74618">
        <ele>653.6</ele>
        <time>2021-12-29T11:05:56.000Z</time>
      </trkpt>
      <trkpt lat="43.02835" lon="-0.74617">
        <ele>653.6</ele>
        <time>2021-12-29T11:05:57.000Z</time>
      </trkpt>
      <trkpt lat="43.02833" lon="-0.74617">
        <ele>653.8</ele>
        <time>2021-12-29T11:05:58.000Z</time>
      </trkpt>
      <trkpt lat="43.02832" lon="-0.74616">
        <ele>653.8</ele>
        <time>2021-12-29T11:05:59.000Z</time>
      </trkpt>
      <trkpt lat="43.0283" lon="-0.74615">
        <ele>654</ele>
        <time>2021-12-29T11:06:00.000Z</time>
      </trkpt>
      <trkpt lat="43.02828" lon="-0.74614">
        <ele>654.2</ele>
        <time>2021-12-29T11:06:01.000Z</time>
      </trkpt>
      <trkpt lat="43.02826" lon="-0.74613">
        <ele>654.4</ele>
        <time>2021-12-29T11:06:02.000Z</time>
      </trkpt>
      <trkpt lat="43.02825" lon="-0.74612">
        <ele>654.4</ele>
        <time>2021-12-29T11:06:03.000Z</time>
      </trkpt>
      <trkpt lat="43.02823" lon="-0.74611">
        <ele>654.6</ele>
        <time>2021-12-29T11:06:04.000Z</time>
      </trkpt>
      <trkpt lat="43.02822" lon="-0.74609">
        <ele>654.8</ele>
        <time>2021-12-29T11:06:05.000Z</time>
      </trkpt>
      <trkpt lat="43.0282" lon="-0.74608">
        <ele>655</ele>
        <time>2021-12-29T11:06:06.000Z</time>
      </trkpt>
      <trkpt lat="43.02819" lon="-0.74607">
        <ele>655.2</ele>
        <time>2021-12-29T11:06:07.000Z</time>
      </trkpt>
      <trkpt lat="43.02817" lon="-0.74606">
        <ele>655.2</ele>
        <time>2021-12-29T11:06:08.000Z</time>
      </trkpt>
      <trkpt lat="43.02816" lon="-0.74605">
        <ele>655.4</ele>
        <time>2021-12-29T11:06:09.000Z</time>
      </trkpt>
      <trkpt lat="43.02814" lon="-0.74603">
        <ele>655.6</ele>
        <time>2021-12-29T11:06:10.000Z</time>
      </trkpt>
      <trkpt lat="43.02813" lon="-0.74602">
        <ele>655.8</ele>
        <time>2021-12-29T11:06:11.000Z</time>
      </trkpt>
      <trkpt lat="43.02811" lon="-0.74601">
        <ele>656</ele>
        <time>2021-12-29T11:06:12.000Z</time>
      </trkpt>
      <trkpt lat="43.0281" lon="-0.746">
        <ele>656</ele>
        <time>2021-12-29T11:06:13.000Z</time>
      </trkpt>
      <trkpt lat="43.02808" lon="-0.74598">
        <ele>656.2</ele>
        <time>2021-12-29T11:06:14.000Z</time>
      </trkpt>
      <trkpt lat="43.02807" lon="-0.74597">
        <ele>656.4</ele>
        <time>2021-12-29T11:06:15.000Z</time>
      </trkpt>
      <trkpt lat="43.02805" lon="-0.74596">
        <ele>656.6</ele>
        <time>2021-12-29T11:06:16.000Z</time>
      </trkpt>
      <trkpt lat="43.02804" lon="-0.74595">
        <ele>656.8</ele>
        <time>2021-12-29T11:06:17.000Z</time>
      </trkpt>
      <trkpt lat="43.02803" lon="-0.74594">
        <ele>657</ele>
        <time>2021-12-29T11:06:18.000Z</time>
      </trkpt>
      <trkpt lat="43.02801" lon="-0.74593">
        <ele>657</ele>
        <time>2021-12-29T11:06:19.000Z</time>
      </trkpt>
      <trkpt lat="43.028" lon="-0.74592">
        <ele>657.2</ele>
        <time>2021-12-29T11:06:20.000Z</time>
      </trkpt>
      <trkpt lat="43.02798" lon="-0.74591">
        <ele>657.4</ele>
        <time>2021-12-29T11:06:21.000Z</time>
      </trkpt>
      <trkpt lat="43.02797" lon="-0.7459">
        <ele>657.6</ele>
        <time>2021-12-29T11:06:22.000Z</time>
      </trkpt>
      <trkpt lat="43.02795" lon="-0.7459">
        <ele>657.8</ele>
        <time>2021-12-29T11:06:23.000Z</time>
      </trkpt>
      <trkpt lat="43.02794" lon="-0.7459">
        <ele>657.8</ele>
        <time>2021-12-29T11:06:24.000Z</time>
      </trkpt>
      <trkpt lat="43.02792" lon="-0.74589">
        <ele>658</ele>
        <time>2021-12-29T11:06:25.000Z</time>
      </trkpt>
      <trkpt lat="43.0279" lon="-0.74588">
        <ele>658.2</ele>
        <time>2021-12-29T11:06:26.000Z</time>
      </trkpt>
      <trkpt lat="43.02789" lon="-0.74588">
        <ele>658.4</ele>
        <time>2021-12-29T11:06:27.000Z</time>
      </trkpt>
      <trkpt lat="43.02787" lon="-0.74587">
        <ele>658.6</ele>
        <time>2021-12-29T11:06:28.000Z</time>
      </trkpt>
      <trkpt lat="43.02786" lon="-0.74587">
        <ele>658.6</ele>
        <time>2021-12-29T11:06:29.000Z</time>
      </trkpt>
      <trkpt lat="43.02784" lon="-0.74586">
        <ele>659</ele>
        <time>2021-12-29T11:06:30.000Z</time>
      </trkpt>
      <trkpt lat="43.02783" lon="-0.74586">
        <ele>659.2</ele>
        <time>2021-12-29T11:06:31.000Z</time>
      </trkpt>
      <trkpt lat="43.02781" lon="-0.74585">
        <ele>659.4</ele>
        <time>2021-12-29T11:06:32.000Z</time>
      </trkpt>
      <trkpt lat="43.0278" lon="-0.74585">
        <ele>659.4</ele>
        <time>2021-12-29T11:06:33.000Z</time>
      </trkpt>
      <trkpt lat="43.02778" lon="-0.74584">
        <ele>659.6</ele>
        <time>2021-12-29T11:06:34.000Z</time>
      </trkpt>
      <trkpt lat="43.02776" lon="-0.74584">
        <ele>659.8</ele>
        <time>2021-12-29T11:06:35.000Z</time>
      </trkpt>
      <trkpt lat="43.02775" lon="-0.74584">
        <ele>660</ele>
        <time>2021-12-29T11:06:36.000Z</time>
      </trkpt>
      <trkpt lat="43.02773" lon="-0.74584">
        <ele>660.2</ele>
        <time>2021-12-29T11:06:37.000Z</time>
      </trkpt>
      <trkpt lat="43.02771" lon="-0.74584">
        <ele>660.2</ele>
        <time>2021-12-29T11:06:38.000Z</time>
      </trkpt>
      <trkpt lat="43.0277" lon="-0.74584">
        <ele>660.4</ele>
        <time>2021-12-29T11:06:39.000Z</time>
      </trkpt>
      <trkpt lat="43.02768" lon="-0.74584">
        <ele>660.6</ele>
        <time>2021-12-29T11:06:40.000Z</time>
      </trkpt>
      <trkpt lat="43.02767" lon="-0.74583">
        <ele>660.8</ele>
        <time>2021-12-29T11:06:41.000Z</time>
      </trkpt>
      <trkpt lat="43.02765" lon="-0.74583">
        <ele>661</ele>
        <time>2021-12-29T11:06:42.000Z</time>
      </trkpt>
      <trkpt lat="43.02763" lon="-0.74583">
        <ele>661</ele>
        <time>2021-12-29T11:06:43.000Z</time>
      </trkpt>
      <trkpt lat="43.02762" lon="-0.74583">
        <ele>661.2</ele>
        <time>2021-12-29T11:06:44.000Z</time>
      </trkpt>
      <trkpt lat="43.0276" lon="-0.74583">
        <ele>661.4</ele>
        <time>2021-12-29T11:06:45.000Z</time>
      </trkpt>
      <trkpt lat="43.02759" lon="-0.74583">
        <ele>661.6</ele>
        <time>2021-12-29T11:06:46.000Z</time>
      </trkpt>
      <trkpt lat="43.02757" lon="-0.74583">
        <ele>661.8</ele>
        <time>2021-12-29T11:06:47.000Z</time>
      </trkpt>
      <trkpt lat="43.02756" lon="-0.74583">
        <ele>662</ele>
        <time>2021-12-29T11:06:48.000Z</time>
      </trkpt>
      <trkpt lat="43.02754" lon="-0.74582">
        <ele>662.2</ele>
        <time>2021-12-29T11:06:49.000Z</time>
      </trkpt>
      <trkpt lat="43.02752" lon="-0.74582">
        <ele>662.2</ele>
        <time>2021-12-29T11:06:50.000Z</time>
      </trkpt>
      <trkpt lat="43.02751" lon="-0.74581">
        <ele>662.4</ele>
        <time>2021-12-29T11:06:51.000Z</time>
      </trkpt>
      <trkpt lat="43.0275" lon="-0.74581">
        <ele>662.6</ele>
        <time>2021-12-29T11:06:52.000Z</time>
      </trkpt>
      <trkpt lat="43.02748" lon="-0.7458">
        <ele>662.8</ele>
        <time>2021-12-29T11:06:53.000Z</time>
      </trkpt>
      <trkpt lat="43.02747" lon="-0.7458">
        <ele>663</ele>
        <time>2021-12-29T11:06:54.000Z</time>
      </trkpt>
      <trkpt lat="43.02745" lon="-0.7458">
        <ele>663.2</ele>
        <time>2021-12-29T11:06:55.000Z</time>
      </trkpt>
      <trkpt lat="43.02744" lon="-0.7458">
        <ele>663.4</ele>
        <time>2021-12-29T11:06:56.000Z</time>
      </trkpt>
      <trkpt lat="43.02742" lon="-0.7458">
        <ele>663.4</ele>
        <time>2021-12-29T11:06:57.000Z</time>
      </trkpt>
      <trkpt lat="43.02741" lon="-0.74579">
        <ele>663.6</ele>
        <time>2021-12-29T11:06:58.000Z</time>
      </trkpt>
      <trkpt lat="43.02739" lon="-0.74579">
        <ele>663.8</ele>
        <time>2021-12-29T11:06:59.000Z</time>
      </trkpt>
      <trkpt lat="43.02738" lon="-0.74579">
        <ele>663.8</ele>
        <time>2021-12-29T11:07:00.000Z</time>
      </trkpt>
      <trkpt lat="43.02736" lon="-0.74579">
        <ele>664</ele>
        <time>2021-12-29T11:07:01.000Z</time>
      </trkpt>
      <trkpt lat="43.02735" lon="-0.74578">
        <ele>664.4</ele>
        <time>2021-12-29T11:07:02.000Z</time>
      </trkpt>
      <trkpt lat="43.02733" lon="-0.74577">
        <ele>664.4</ele>
        <time>2021-12-29T11:07:03.000Z</time>
      </trkpt>
      <trkpt lat="43.02732" lon="-0.74577">
        <ele>664.6</ele>
        <time>2021-12-29T11:07:04.000Z</time>
      </trkpt>
      <trkpt lat="43.0273" lon="-0.74577">
        <ele>664.8</ele>
        <time>2021-12-29T11:07:05.000Z</time>
      </trkpt>
      <trkpt lat="43.02729" lon="-0.74576">
        <ele>664.8</ele>
        <time>2021-12-29T11:07:06.000Z</time>
      </trkpt>
      <trkpt lat="43.02727" lon="-0.74576">
        <ele>665.2</ele>
        <time>2021-12-29T11:07:07.000Z</time>
      </trkpt>
      <trkpt lat="43.02726" lon="-0.74575">
        <ele>665.4</ele>
        <time>2021-12-29T11:07:08.000Z</time>
      </trkpt>
      <trkpt lat="43.02725" lon="-0.74574">
        <ele>665.4</ele>
        <time>2021-12-29T11:07:09.000Z</time>
      </trkpt>
      <trkpt lat="43.02723" lon="-0.74573">
        <ele>665.6</ele>
        <time>2021-12-29T11:07:10.000Z</time>
      </trkpt>
      <trkpt lat="43.02722" lon="-0.74572">
        <ele>665.6</ele>
        <time>2021-12-29T11:07:11.000Z</time>
      </trkpt>
      <trkpt lat="43.0272" lon="-0.74572">
        <ele>665.8</ele>
        <time>2021-12-29T11:07:12.000Z</time>
      </trkpt>
      <trkpt lat="43.02719" lon="-0.74571">
        <ele>666</ele>
        <time>2021-12-29T11:07:13.000Z</time>
      </trkpt>
      <trkpt lat="43.02718" lon="-0.74569">
        <ele>666.2</ele>
        <time>2021-12-29T11:07:14.000Z</time>
      </trkpt>
      <trkpt lat="43.02716" lon="-0.74568">
        <ele>666.4</ele>
        <time>2021-12-29T11:07:15.000Z</time>
      </trkpt>
      <trkpt lat="43.02715" lon="-0.74567">
        <ele>666.6</ele>
        <time>2021-12-29T11:07:16.000Z</time>
      </trkpt>
      <trkpt lat="43.02714" lon="-0.74566">
        <ele>666.6</ele>
        <time>2021-12-29T11:07:17.000Z</time>
      </trkpt>
      <trkpt lat="43.02712" lon="-0.74566">
        <ele>666.8</ele>
        <time>2021-12-29T11:07:18.000Z</time>
      </trkpt>
      <trkpt lat="43.02711" lon="-0.74565">
        <ele>667</ele>
        <time>2021-12-29T11:07:19.000Z</time>
      </trkpt>
      <trkpt lat="43.0271" lon="-0.74564">
        <ele>667.2</ele>
        <time>2021-12-29T11:07:20.000Z</time>
      </trkpt>
      <trkpt lat="43.02708" lon="-0.74564">
        <ele>667.4</ele>
        <time>2021-12-29T11:07:21.000Z</time>
      </trkpt>
      <trkpt lat="43.02707" lon="-0.74563">
        <ele>667.6</ele>
        <time>2021-12-29T11:07:22.000Z</time>
      </trkpt>
      <trkpt lat="43.02705" lon="-0.74562">
        <ele>667.8</ele>
        <time>2021-12-29T11:07:23.000Z</time>
      </trkpt>
      <trkpt lat="43.02704" lon="-0.74561">
        <ele>668</ele>
        <time>2021-12-29T11:07:24.000Z</time>
      </trkpt>
      <trkpt lat="43.02703" lon="-0.7456">
        <ele>668.2</ele>
        <time>2021-12-29T11:07:25.000Z</time>
      </trkpt>
      <trkpt lat="43.02701" lon="-0.74559">
        <ele>668.4</ele>
        <time>2021-12-29T11:07:26.000Z</time>
      </trkpt>
      <trkpt lat="43.027" lon="-0.74558">
        <ele>668.6</ele>
        <time>2021-12-29T11:07:27.000Z</time>
      </trkpt>
      <trkpt lat="43.02699" lon="-0.74557">
        <ele>668.8</ele>
        <time>2021-12-29T11:07:28.000Z</time>
      </trkpt>
      <trkpt lat="43.02698" lon="-0.74556">
        <ele>669</ele>
        <time>2021-12-29T11:07:29.000Z</time>
      </trkpt>
      <trkpt lat="43.02696" lon="-0.74555">
        <ele>669.2</ele>
        <time>2021-12-29T11:07:30.000Z</time>
      </trkpt>
      <trkpt lat="43.02695" lon="-0.74554">
        <ele>669.4</ele>
        <time>2021-12-29T11:07:31.000Z</time>
      </trkpt>
      <trkpt lat="43.02693" lon="-0.74553">
        <ele>669.6</ele>
        <time>2021-12-29T11:07:32.000Z</time>
      </trkpt>
      <trkpt lat="43.02692" lon="-0.74553">
        <ele>670</ele>
        <time>2021-12-29T11:07:33.000Z</time>
      </trkpt>
      <trkpt lat="43.02691" lon="-0.74552">
        <ele>670.2</ele>
        <time>2021-12-29T11:07:34.000Z</time>
      </trkpt>
      <trkpt lat="43.02689" lon="-0.74551">
        <ele>670.4</ele>
        <time>2021-12-29T11:07:35.000Z</time>
      </trkpt>
      <trkpt lat="43.02688" lon="-0.74551">
        <ele>670.6</ele>
        <time>2021-12-29T11:07:36.000Z</time>
      </trkpt>
      <trkpt lat="43.02686" lon="-0.74551">
        <ele>670.6</ele>
        <time>2021-12-29T11:07:37.000Z</time>
      </trkpt>
      <trkpt lat="43.02685" lon="-0.74551">
        <ele>670.8</ele>
        <time>2021-12-29T11:07:38.000Z</time>
      </trkpt>
      <trkpt lat="43.02683" lon="-0.74551">
        <ele>671</ele>
        <time>2021-12-29T11:07:39.000Z</time>
      </trkpt>
      <trkpt lat="43.02682" lon="-0.74551">
        <ele>671.4</ele>
        <time>2021-12-29T11:07:40.000Z</time>
      </trkpt>
      <trkpt lat="43.0268" lon="-0.74551">
        <ele>671.4</ele>
        <time>2021-12-29T11:07:41.000Z</time>
      </trkpt>
      <trkpt lat="43.02679" lon="-0.74551">
        <ele>671.6</ele>
        <time>2021-12-29T11:07:42.000Z</time>
      </trkpt>
      <trkpt lat="43.02677" lon="-0.74551">
        <ele>671.8</ele>
        <time>2021-12-29T11:07:43.000Z</time>
      </trkpt>
      <trkpt lat="43.02676" lon="-0.74551">
        <ele>672</ele>
        <time>2021-12-29T11:07:44.000Z</time>
      </trkpt>
      <trkpt lat="43.02674" lon="-0.74552">
        <ele>672.2</ele>
        <time>2021-12-29T11:07:45.000Z</time>
      </trkpt>
      <trkpt lat="43.02673" lon="-0.74552">
        <ele>672.4</ele>
        <time>2021-12-29T11:07:46.000Z</time>
      </trkpt>
      <trkpt lat="43.02671" lon="-0.74552">
        <ele>672.6</ele>
        <time>2021-12-29T11:07:47.000Z</time>
      </trkpt>
      <trkpt lat="43.0267" lon="-0.74552">
        <ele>672.8</ele>
        <time>2021-12-29T11:07:48.000Z</time>
      </trkpt>
      <trkpt lat="43.02668" lon="-0.74552">
        <ele>673</ele>
        <time>2021-12-29T11:07:49.000Z</time>
      </trkpt>
      <trkpt lat="43.02667" lon="-0.74551">
        <ele>673.2</ele>
        <time>2021-12-29T11:07:50.000Z</time>
      </trkpt>
      <trkpt lat="43.02665" lon="-0.74552">
        <ele>673.4</ele>
        <time>2021-12-29T11:07:51.000Z</time>
      </trkpt>
      <trkpt lat="43.02664" lon="-0.74552">
        <ele>673.6</ele>
        <time>2021-12-29T11:07:52.000Z</time>
      </trkpt>
      <trkpt lat="43.02662" lon="-0.74552">
        <ele>673.8</ele>
        <time>2021-12-29T11:07:53.000Z</time>
      </trkpt>
      <trkpt lat="43.02661" lon="-0.74553">
        <ele>674</ele>
        <time>2021-12-29T11:07:54.000Z</time>
      </trkpt>
      <trkpt lat="43.02659" lon="-0.74553">
        <ele>674.2</ele>
        <time>2021-12-29T11:07:55.000Z</time>
      </trkpt>
      <trkpt lat="43.02658" lon="-0.74553">
        <ele>674.4</ele>
        <time>2021-12-29T11:07:56.000Z</time>
      </trkpt>
      <trkpt lat="43.02656" lon="-0.74553">
        <ele>674.6</ele>
        <time>2021-12-29T11:07:57.000Z</time>
      </trkpt>
      <trkpt lat="43.02655" lon="-0.74553">
        <ele>674.8</ele>
        <time>2021-12-29T11:07:58.000Z</time>
      </trkpt>
      <trkpt lat="43.02654" lon="-0.74554">
        <ele>675</ele>
        <time>2021-12-29T11:07:59.000Z</time>
      </trkpt>
      <trkpt lat="43.02652" lon="-0.74554">
        <ele>675.2</ele>
        <time>2021-12-29T11:08:00.000Z</time>
      </trkpt>
      <trkpt lat="43.02651" lon="-0.74555">
        <ele>675.4</ele>
        <time>2021-12-29T11:08:01.000Z</time>
      </trkpt>
      <trkpt lat="43.0265" lon="-0.74556">
        <ele>675.6</ele>
        <time>2021-12-29T11:08:02.000Z</time>
      </trkpt>
      <trkpt lat="43.02649" lon="-0.74556">
        <ele>675.6</ele>
        <time>2021-12-29T11:08:03.000Z</time>
      </trkpt>
      <trkpt lat="43.02648" lon="-0.74557">
        <ele>676</ele>
        <time>2021-12-29T11:08:04.000Z</time>
      </trkpt>
      <trkpt lat="43.02646" lon="-0.74558">
        <ele>676.2</ele>
        <time>2021-12-29T11:08:05.000Z</time>
      </trkpt>
      <trkpt lat="43.02645" lon="-0.74559">
        <ele>676.4</ele>
        <time>2021-12-29T11:08:06.000Z</time>
      </trkpt>
      <trkpt lat="43.02644" lon="-0.7456">
        <ele>676.4</ele>
        <time>2021-12-29T11:08:07.000Z</time>
      </trkpt>
      <trkpt lat="43.02643" lon="-0.74561">
        <ele>676.6</ele>
        <time>2021-12-29T11:08:08.000Z</time>
      </trkpt>
      <trkpt lat="43.02643" lon="-0.74563">
        <ele>676.8</ele>
        <time>2021-12-29T11:08:09.000Z</time>
      </trkpt>
      <trkpt lat="43.02642" lon="-0.74564">
        <ele>677.2</ele>
        <time>2021-12-29T11:08:10.000Z</time>
      </trkpt>
      <trkpt lat="43.02641" lon="-0.74565">
        <ele>677.4</ele>
        <time>2021-12-29T11:08:11.000Z</time>
      </trkpt>
      <trkpt lat="43.0264" lon="-0.74567">
        <ele>677.4</ele>
        <time>2021-12-29T11:08:12.000Z</time>
      </trkpt>
      <trkpt lat="43.0264" lon="-0.74568">
        <ele>677.6</ele>
        <time>2021-12-29T11:08:13.000Z</time>
      </trkpt>
      <trkpt lat="43.02639" lon="-0.7457">
        <ele>677.8</ele>
        <time>2021-12-29T11:08:14.000Z</time>
      </trkpt>
      <trkpt lat="43.02637" lon="-0.7457">
        <ele>678</ele>
        <time>2021-12-29T11:08:15.000Z</time>
      </trkpt>
      <trkpt lat="43.02636" lon="-0.74571">
        <ele>678.2</ele>
        <time>2021-12-29T11:08:16.000Z</time>
      </trkpt>
      <trkpt lat="43.02635" lon="-0.74572">
        <ele>678.4</ele>
        <time>2021-12-29T11:08:17.000Z</time>
      </trkpt>
      <trkpt lat="43.02634" lon="-0.74574">
        <ele>678.6</ele>
        <time>2021-12-29T11:08:18.000Z</time>
      </trkpt>
      <trkpt lat="43.02634" lon="-0.74575">
        <ele>678.6</ele>
        <time>2021-12-29T11:08:19.000Z</time>
      </trkpt>
      <trkpt lat="43.02633" lon="-0.74576">
        <ele>678.8</ele>
        <time>2021-12-29T11:08:20.000Z</time>
      </trkpt>
      <trkpt lat="43.02632" lon="-0.74578">
        <ele>679.2</ele>
        <time>2021-12-29T11:08:21.000Z</time>
      </trkpt>
      <trkpt lat="43.02631" lon="-0.74579">
        <ele>679.2</ele>
        <time>2021-12-29T11:08:22.000Z</time>
      </trkpt>
      <trkpt lat="43.0263" lon="-0.74581">
        <ele>679.4</ele>
        <time>2021-12-29T11:08:23.000Z</time>
      </trkpt>
      <trkpt lat="43.02629" lon="-0.74582">
        <ele>679.6</ele>
        <time>2021-12-29T11:08:24.000Z</time>
      </trkpt>
      <trkpt lat="43.02628" lon="-0.74584">
        <ele>680</ele>
        <time>2021-12-29T11:08:25.000Z</time>
      </trkpt>
      <trkpt lat="43.02627" lon="-0.74585">
        <ele>680.2</ele>
        <time>2021-12-29T11:08:26.000Z</time>
      </trkpt>
      <trkpt lat="43.02625" lon="-0.74586">
        <ele>680.4</ele>
        <time>2021-12-29T11:08:27.000Z</time>
      </trkpt>
      <trkpt lat="43.02624" lon="-0.74587">
        <ele>680.6</ele>
        <time>2021-12-29T11:08:28.000Z</time>
      </trkpt>
      <trkpt lat="43.02623" lon="-0.74588">
        <ele>680.8</ele>
        <time>2021-12-29T11:08:29.000Z</time>
      </trkpt>
      <trkpt lat="43.02621" lon="-0.74589">
        <ele>680.8</ele>
        <time>2021-12-29T11:08:30.000Z</time>
      </trkpt>
      <trkpt lat="43.0262" lon="-0.7459">
        <ele>681</ele>
        <time>2021-12-29T11:08:31.000Z</time>
      </trkpt>
      <trkpt lat="43.02618" lon="-0.7459">
        <ele>681.2</ele>
        <time>2021-12-29T11:08:32.000Z</time>
      </trkpt>
      <trkpt lat="43.02616" lon="-0.74591">
        <ele>681.4</ele>
        <time>2021-12-29T11:08:33.000Z</time>
      </trkpt>
      <trkpt lat="43.02615" lon="-0.74592">
        <ele>681.6</ele>
        <time>2021-12-29T11:08:34.000Z</time>
      </trkpt>
      <trkpt lat="43.02613" lon="-0.74592">
        <ele>681.8</ele>
        <time>2021-12-29T11:08:35.000Z</time>
      </trkpt>
      <trkpt lat="43.02611" lon="-0.74593">
        <ele>682</ele>
        <time>2021-12-29T11:08:36.000Z</time>
      </trkpt>
      <trkpt lat="43.0261" lon="-0.74593">
        <ele>682.2</ele>
        <time>2021-12-29T11:08:37.000Z</time>
      </trkpt>
      <trkpt lat="43.02608" lon="-0.74594">
        <ele>682.4</ele>
        <time>2021-12-29T11:08:38.000Z</time>
      </trkpt>
      <trkpt lat="43.02607" lon="-0.74594">
        <ele>682.6</ele>
        <time>2021-12-29T11:08:39.000Z</time>
      </trkpt>
      <trkpt lat="43.02605" lon="-0.74594">
        <ele>682.8</ele>
        <time>2021-12-29T11:08:40.000Z</time>
      </trkpt>
      <trkpt lat="43.02603" lon="-0.74595">
        <ele>683</ele>
        <time>2021-12-29T11:08:41.000Z</time>
      </trkpt>
      <trkpt lat="43.02602" lon="-0.74595">
        <ele>683.2</ele>
        <time>2021-12-29T11:08:42.000Z</time>
      </trkpt>
      <trkpt lat="43.026" lon="-0.74595">
        <ele>683.4</ele>
        <time>2021-12-29T11:08:43.000Z</time>
      </trkpt>
      <trkpt lat="43.02599" lon="-0.74595">
        <ele>683.6</ele>
        <time>2021-12-29T11:08:44.000Z</time>
      </trkpt>
      <trkpt lat="43.02597" lon="-0.74595">
        <ele>683.8</ele>
        <time>2021-12-29T11:08:45.000Z</time>
      </trkpt>
      <trkpt lat="43.02596" lon="-0.74594">
        <ele>684</ele>
        <time>2021-12-29T11:08:46.000Z</time>
      </trkpt>
      <trkpt lat="43.02594" lon="-0.74594">
        <ele>684.2</ele>
        <time>2021-12-29T11:08:47.000Z</time>
      </trkpt>
      <trkpt lat="43.02593" lon="-0.74595">
        <ele>684.4</ele>
        <time>2021-12-29T11:08:48.000Z</time>
      </trkpt>
      <trkpt lat="43.02591" lon="-0.74595">
        <ele>684.6</ele>
        <time>2021-12-29T11:08:49.000Z</time>
      </trkpt>
      <trkpt lat="43.0259" lon="-0.74595">
        <ele>684.8</ele>
        <time>2021-12-29T11:08:50.000Z</time>
      </trkpt>
      <trkpt lat="43.02588" lon="-0.74595">
        <ele>685</ele>
        <time>2021-12-29T11:08:51.000Z</time>
      </trkpt>
      <trkpt lat="43.02587" lon="-0.74595">
        <ele>685</ele>
        <time>2021-12-29T11:08:52.000Z</time>
      </trkpt>
      <trkpt lat="43.02585" lon="-0.74595">
        <ele>685.4</ele>
        <time>2021-12-29T11:08:53.000Z</time>
      </trkpt>
      <trkpt lat="43.02584" lon="-0.74595">
        <ele>685.4</ele>
        <time>2021-12-29T11:08:54.000Z</time>
      </trkpt>
      <trkpt lat="43.02582" lon="-0.74595">
        <ele>685.6</ele>
        <time>2021-12-29T11:08:55.000Z</time>
      </trkpt>
      <trkpt lat="43.02581" lon="-0.74595">
        <ele>685.8</ele>
        <time>2021-12-29T11:08:56.000Z</time>
      </trkpt>
      <trkpt lat="43.02579" lon="-0.74595">
        <ele>686</ele>
        <time>2021-12-29T11:08:57.000Z</time>
      </trkpt>
      <trkpt lat="43.02578" lon="-0.74595">
        <ele>686.2</ele>
        <time>2021-12-29T11:08:58.000Z</time>
      </trkpt>
      <trkpt lat="43.02576" lon="-0.74595">
        <ele>686.4</ele>
        <time>2021-12-29T11:08:59.000Z</time>
      </trkpt>
      <trkpt lat="43.02575" lon="-0.74595">
        <ele>686.6</ele>
        <time>2021-12-29T11:09:00.000Z</time>
      </trkpt>
      <trkpt lat="43.02573" lon="-0.74595">
        <ele>686.8</ele>
        <time>2021-12-29T11:09:01.000Z</time>
      </trkpt>
      <trkpt lat="43.02572" lon="-0.74594">
        <ele>687.2</ele>
        <time>2021-12-29T11:09:02.000Z</time>
      </trkpt>
      <trkpt lat="43.0257" lon="-0.74594">
        <ele>687.2</ele>
        <time>2021-12-29T11:09:03.000Z</time>
      </trkpt>
      <trkpt lat="43.02569" lon="-0.74594">
        <ele>687.4</ele>
        <time>2021-12-29T11:09:04.000Z</time>
      </trkpt>
      <trkpt lat="43.02567" lon="-0.74594">
        <ele>687.6</ele>
        <time>2021-12-29T11:09:05.000Z</time>
      </trkpt>
      <trkpt lat="43.02566" lon="-0.74594">
        <ele>687.8</ele>
        <time>2021-12-29T11:09:06.000Z</time>
      </trkpt>
      <trkpt lat="43.02564" lon="-0.74594">
        <ele>688.2</ele>
        <time>2021-12-29T11:09:07.000Z</time>
      </trkpt>
      <trkpt lat="43.02563" lon="-0.74594">
        <ele>688.4</ele>
        <time>2021-12-29T11:09:08.000Z</time>
      </trkpt>
      <trkpt lat="43.02561" lon="-0.74594">
        <ele>688.6</ele>
        <time>2021-12-29T11:09:09.000Z</time>
      </trkpt>
      <trkpt lat="43.0256" lon="-0.74594">
        <ele>688.8</ele>
        <time>2021-12-29T11:09:10.000Z</time>
      </trkpt>
      <trkpt lat="43.02558" lon="-0.74595">
        <ele>689</ele>
        <time>2021-12-29T11:09:11.000Z</time>
      </trkpt>
      <trkpt lat="43.02556" lon="-0.74595">
        <ele>689.2</ele>
        <time>2021-12-29T11:09:12.000Z</time>
      </trkpt>
      <trkpt lat="43.02555" lon="-0.74595">
        <ele>689.4</ele>
        <time>2021-12-29T11:09:13.000Z</time>
      </trkpt>
      <trkpt lat="43.02553" lon="-0.74595">
        <ele>689.8</ele>
        <time>2021-12-29T11:09:14.000Z</time>
      </trkpt>
      <trkpt lat="43.02551" lon="-0.74595">
        <ele>690</ele>
        <time>2021-12-29T11:09:15.000Z</time>
      </trkpt>
      <trkpt lat="43.0255" lon="-0.74595">
        <ele>690.2</ele>
        <time>2021-12-29T11:09:16.000Z</time>
      </trkpt>
      <trkpt lat="43.02548" lon="-0.74595">
        <ele>690.4</ele>
        <time>2021-12-29T11:09:17.000Z</time>
      </trkpt>
      <trkpt lat="43.02546" lon="-0.74594">
        <ele>690.6</ele>
        <time>2021-12-29T11:09:18.000Z</time>
      </trkpt>
      <trkpt lat="43.02545" lon="-0.74594">
        <ele>690.8</ele>
        <time>2021-12-29T11:09:19.000Z</time>
      </trkpt>
      <trkpt lat="43.02543" lon="-0.74595">
        <ele>691</ele>
        <time>2021-12-29T11:09:20.000Z</time>
      </trkpt>
      <trkpt lat="43.02541" lon="-0.74595">
        <ele>691.2</ele>
        <time>2021-12-29T11:09:21.000Z</time>
      </trkpt>
      <trkpt lat="43.0254" lon="-0.74595">
        <ele>691.4</ele>
        <time>2021-12-29T11:09:22.000Z</time>
      </trkpt>
      <trkpt lat="43.02538" lon="-0.74595">
        <ele>691.6</ele>
        <time>2021-12-29T11:09:23.000Z</time>
      </trkpt>
      <trkpt lat="43.02536" lon="-0.74596">
        <ele>691.8</ele>
        <time>2021-12-29T11:09:24.000Z</time>
      </trkpt>
      <trkpt lat="43.02535" lon="-0.74596">
        <ele>692</ele>
        <time>2021-12-29T11:09:25.000Z</time>
      </trkpt>
      <trkpt lat="43.02533" lon="-0.74596">
        <ele>692.2</ele>
        <time>2021-12-29T11:09:26.000Z</time>
      </trkpt>
      <trkpt lat="43.02532" lon="-0.74597">
        <ele>692.4</ele>
        <time>2021-12-29T11:09:27.000Z</time>
      </trkpt>
      <trkpt lat="43.0253" lon="-0.74597">
        <ele>692.6</ele>
        <time>2021-12-29T11:09:28.000Z</time>
      </trkpt>
      <trkpt lat="43.02529" lon="-0.74598">
        <ele>692.8</ele>
        <time>2021-12-29T11:09:29.000Z</time>
      </trkpt>
      <trkpt lat="43.02527" lon="-0.74599">
        <ele>693</ele>
        <time>2021-12-29T11:09:30.000Z</time>
      </trkpt>
      <trkpt lat="43.02526" lon="-0.74601">
        <ele>693.4</ele>
        <time>2021-12-29T11:09:31.000Z</time>
      </trkpt>
      <trkpt lat="43.02525" lon="-0.74602">
        <ele>693.6</ele>
        <time>2021-12-29T11:09:32.000Z</time>
      </trkpt>
      <trkpt lat="43.02524" lon="-0.74604">
        <ele>693.8</ele>
        <time>2021-12-29T11:09:33.000Z</time>
      </trkpt>
      <trkpt lat="43.02523" lon="-0.74606">
        <ele>694</ele>
        <time>2021-12-29T11:09:34.000Z</time>
      </trkpt>
      <trkpt lat="43.02522" lon="-0.74608">
        <ele>694.2</ele>
        <time>2021-12-29T11:09:35.000Z</time>
      </trkpt>
      <trkpt lat="43.02522" lon="-0.7461">
        <ele>694.4</ele>
        <time>2021-12-29T11:09:36.000Z</time>
      </trkpt>
      <trkpt lat="43.02522" lon="-0.74612">
        <ele>694.4</ele>
        <time>2021-12-29T11:09:37.000Z</time>
      </trkpt>
      <trkpt lat="43.02522" lon="-0.74614">
        <ele>694.6</ele>
        <time>2021-12-29T11:09:38.000Z</time>
      </trkpt>
      <trkpt lat="43.02523" lon="-0.74616">
        <ele>694.8</ele>
        <time>2021-12-29T11:09:39.000Z</time>
      </trkpt>
      <trkpt lat="43.02523" lon="-0.74618">
        <ele>695</ele>
        <time>2021-12-29T11:09:40.000Z</time>
      </trkpt>
      <trkpt lat="43.02524" lon="-0.7462">
        <ele>695</ele>
        <time>2021-12-29T11:09:41.000Z</time>
      </trkpt>
      <trkpt lat="43.02525" lon="-0.74622">
        <ele>695.2</ele>
        <time>2021-12-29T11:09:42.000Z</time>
      </trkpt>
      <trkpt lat="43.02527" lon="-0.74623">
        <ele>695.4</ele>
        <time>2021-12-29T11:09:43.000Z</time>
      </trkpt>
      <trkpt lat="43.02528" lon="-0.74624">
        <ele>695.4</ele>
        <time>2021-12-29T11:09:44.000Z</time>
      </trkpt>
      <trkpt lat="43.0253" lon="-0.74625">
        <ele>695.6</ele>
        <time>2021-12-29T11:09:45.000Z</time>
      </trkpt>
      <trkpt lat="43.02531" lon="-0.74625">
        <ele>695.8</ele>
        <time>2021-12-29T11:09:46.000Z</time>
      </trkpt>
      <trkpt lat="43.02533" lon="-0.74626">
        <ele>696</ele>
        <time>2021-12-29T11:09:47.000Z</time>
      </trkpt>
      <trkpt lat="43.02535" lon="-0.74626">
        <ele>696.2</ele>
        <time>2021-12-29T11:09:48.000Z</time>
      </trkpt>
      <trkpt lat="43.02537" lon="-0.74626">
        <ele>696.4</ele>
        <time>2021-12-29T11:09:49.000Z</time>
      </trkpt>
      <trkpt lat="43.02538" lon="-0.74626">
        <ele>696.6</ele>
        <time>2021-12-29T11:09:50.000Z</time>
      </trkpt>
      <trkpt lat="43.0254" lon="-0.74626">
        <ele>696.8</ele>
        <time>2021-12-29T11:09:51.000Z</time>
      </trkpt>
      <trkpt lat="43.02542" lon="-0.74626">
        <ele>697</ele>
        <time>2021-12-29T11:09:52.000Z</time>
      </trkpt>
      <trkpt lat="43.02543" lon="-0.74626">
        <ele>697.2</ele>
        <time>2021-12-29T11:09:53.000Z</time>
      </trkpt>
      <trkpt lat="43.02545" lon="-0.74626">
        <ele>697.4</ele>
        <time>2021-12-29T11:09:54.000Z</time>
      </trkpt>
      <trkpt lat="43.02547" lon="-0.74626">
        <ele>697.6</ele>
        <time>2021-12-29T11:09:55.000Z</time>
      </trkpt>
      <trkpt lat="43.02549" lon="-0.74626">
        <ele>697.6</ele>
        <time>2021-12-29T11:09:56.000Z</time>
      </trkpt>
      <trkpt lat="43.02551" lon="-0.74626">
        <ele>697.8</ele>
        <time>2021-12-29T11:09:57.000Z</time>
      </trkpt>
      <trkpt lat="43.02552" lon="-0.74627">
        <ele>698</ele>
        <time>2021-12-29T11:09:58.000Z</time>
      </trkpt>
      <trkpt lat="43.02554" lon="-0.74627">
        <ele>698.2</ele>
        <time>2021-12-29T11:09:59.000Z</time>
      </trkpt>
      <trkpt lat="43.02556" lon="-0.74627">
        <ele>698.4</ele>
        <time>2021-12-29T11:10:00.000Z</time>
      </trkpt>
      <trkpt lat="43.02558" lon="-0.74627">
        <ele>698.6</ele>
        <time>2021-12-29T11:10:01.000Z</time>
      </trkpt>
      <trkpt lat="43.0256" lon="-0.74627">
        <ele>698.8</ele>
        <time>2021-12-29T11:10:02.000Z</time>
      </trkpt>
      <trkpt lat="43.02562" lon="-0.74628">
        <ele>699</ele>
        <time>2021-12-29T11:10:03.000Z</time>
      </trkpt>
      <trkpt lat="43.02564" lon="-0.74628">
        <ele>699</ele>
        <time>2021-12-29T11:10:04.000Z</time>
      </trkpt>
      <trkpt lat="43.02565" lon="-0.74628">
        <ele>699.2</ele>
        <time>2021-12-29T11:10:05.000Z</time>
      </trkpt>
      <trkpt lat="43.02567" lon="-0.74628">
        <ele>699.4</ele>
        <time>2021-12-29T11:10:06.000Z</time>
      </trkpt>
      <trkpt lat="43.02569" lon="-0.74628">
        <ele>699.6</ele>
        <time>2021-12-29T11:10:07.000Z</time>
      </trkpt>
      <trkpt lat="43.0257" lon="-0.74629">
        <ele>699.6</ele>
        <time>2021-12-29T11:10:08.000Z</time>
      </trkpt>
      <trkpt lat="43.02572" lon="-0.74629">
        <ele>699.8</ele>
        <time>2021-12-29T11:10:09.000Z</time>
      </trkpt>
      <trkpt lat="43.02574" lon="-0.74629">
        <ele>700</ele>
        <time>2021-12-29T11:10:10.000Z</time>
      </trkpt>
      <trkpt lat="43.02576" lon="-0.7463">
        <ele>700.2</ele>
        <time>2021-12-29T11:10:11.000Z</time>
      </trkpt>
      <trkpt lat="43.02578" lon="-0.74631">
        <ele>700.4</ele>
        <time>2021-12-29T11:10:12.000Z</time>
      </trkpt>
      <trkpt lat="43.0258" lon="-0.74631">
        <ele>700.4</ele>
        <time>2021-12-29T11:10:13.000Z</time>
      </trkpt>
      <trkpt lat="43.02581" lon="-0.74632">
        <ele>700.6</ele>
        <time>2021-12-29T11:10:14.000Z</time>
      </trkpt>
      <trkpt lat="43.02583" lon="-0.74632">
        <ele>700.8</ele>
        <time>2021-12-29T11:10:15.000Z</time>
      </trkpt>
      <trkpt lat="43.02585" lon="-0.74633">
        <ele>700.8</ele>
        <time>2021-12-29T11:10:16.000Z</time>
      </trkpt>
      <trkpt lat="43.02587" lon="-0.74633">
        <ele>701</ele>
        <time>2021-12-29T11:10:17.000Z</time>
      </trkpt>
      <trkpt lat="43.02589" lon="-0.74633">
        <ele>701.2</ele>
        <time>2021-12-29T11:10:18.000Z</time>
      </trkpt>
      <trkpt lat="43.02591" lon="-0.74634">
        <ele>701.4</ele>
        <time>2021-12-29T11:10:19.000Z</time>
      </trkpt>
      <trkpt lat="43.02593" lon="-0.74635">
        <ele>701.4</ele>
        <time>2021-12-29T11:10:20.000Z</time>
      </trkpt>
      <trkpt lat="43.02594" lon="-0.74635">
        <ele>701.6</ele>
        <time>2021-12-29T11:10:21.000Z</time>
      </trkpt>
      <trkpt lat="43.02596" lon="-0.74636">
        <ele>701.8</ele>
        <time>2021-12-29T11:10:22.000Z</time>
      </trkpt>
      <trkpt lat="43.02598" lon="-0.74636">
        <ele>702</ele>
        <time>2021-12-29T11:10:23.000Z</time>
      </trkpt>
      <trkpt lat="43.026" lon="-0.74636">
        <ele>702.2</ele>
        <time>2021-12-29T11:10:24.000Z</time>
      </trkpt>
      <trkpt lat="43.02602" lon="-0.74637">
        <ele>702.4</ele>
        <time>2021-12-29T11:10:25.000Z</time>
      </trkpt>
      <trkpt lat="43.02604" lon="-0.74637">
        <ele>702.6</ele>
        <time>2021-12-29T11:10:26.000Z</time>
      </trkpt>
      <trkpt lat="43.02605" lon="-0.74637">
        <ele>702.8</ele>
        <time>2021-12-29T11:10:27.000Z</time>
      </trkpt>
      <trkpt lat="43.02607" lon="-0.74638">
        <ele>702.8</ele>
        <time>2021-12-29T11:10:28.000Z</time>
      </trkpt>
      <trkpt lat="43.02609" lon="-0.74638">
        <ele>703</ele>
        <time>2021-12-29T11:10:29.000Z</time>
      </trkpt>
      <trkpt lat="43.02611" lon="-0.74638">
        <ele>703.2</ele>
        <time>2021-12-29T11:10:30.000Z</time>
      </trkpt>
      <trkpt lat="43.02613" lon="-0.74639">
        <ele>703.4</ele>
        <time>2021-12-29T11:10:31.000Z</time>
      </trkpt>
      <trkpt lat="43.02614" lon="-0.74639">
        <ele>703.6</ele>
        <time>2021-12-29T11:10:32.000Z</time>
      </trkpt>
      <trkpt lat="43.02616" lon="-0.74639">
        <ele>703.8</ele>
        <time>2021-12-29T11:10:33.000Z</time>
      </trkpt>
      <trkpt lat="43.02618" lon="-0.74639">
        <ele>704</ele>
        <time>2021-12-29T11:10:34.000Z</time>
      </trkpt>
      <trkpt lat="43.02619" lon="-0.74639">
        <ele>704.2</ele>
        <time>2021-12-29T11:10:35.000Z</time>
      </trkpt>
      <trkpt lat="43.02621" lon="-0.74639">
        <ele>704.4</ele>
        <time>2021-12-29T11:10:36.000Z</time>
      </trkpt>
      <trkpt lat="43.02623" lon="-0.74639">
        <ele>704.6</ele>
        <time>2021-12-29T11:10:37.000Z</time>
      </trkpt>
      <trkpt lat="43.02625" lon="-0.7464">
        <ele>704.8</ele>
        <time>2021-12-29T11:10:38.000Z</time>
      </trkpt>
      <trkpt lat="43.02626" lon="-0.7464">
        <ele>705</ele>
        <time>2021-12-29T11:10:39.000Z</time>
      </trkpt>
      <trkpt lat="43.02628" lon="-0.74641">
        <ele>705.2</ele>
        <time>2021-12-29T11:10:40.000Z</time>
      </trkpt>
      <trkpt lat="43.0263" lon="-0.74641">
        <ele>705.4</ele>
        <time>2021-12-29T11:10:41.000Z</time>
      </trkpt>
      <trkpt lat="43.02632" lon="-0.74641">
        <ele>705.6</ele>
        <time>2021-12-29T11:10:42.000Z</time>
      </trkpt>
      <trkpt lat="43.02634" lon="-0.74642">
        <ele>705.8</ele>
        <time>2021-12-29T11:10:43.000Z</time>
      </trkpt>
      <trkpt lat="43.02636" lon="-0.74642">
        <ele>706</ele>
        <time>2021-12-29T11:10:44.000Z</time>
      </trkpt>
      <trkpt lat="43.02637" lon="-0.74642">
        <ele>706.2</ele>
        <time>2021-12-29T11:10:45.000Z</time>
      </trkpt>
      <trkpt lat="43.02639" lon="-0.74642">
        <ele>706.4</ele>
        <time>2021-12-29T11:10:46.000Z</time>
      </trkpt>
      <trkpt lat="43.0264" lon="-0.74643">
        <ele>706.6</ele>
        <time>2021-12-29T11:10:47.000Z</time>
      </trkpt>
      <trkpt lat="43.02642" lon="-0.74643">
        <ele>706.8</ele>
        <time>2021-12-29T11:10:48.000Z</time>
      </trkpt>
      <trkpt lat="43.02644" lon="-0.74643">
        <ele>707</ele>
        <time>2021-12-29T11:10:49.000Z</time>
      </trkpt>
      <trkpt lat="43.02645" lon="-0.74644">
        <ele>707.2</ele>
        <time>2021-12-29T11:10:50.000Z</time>
      </trkpt>
      <trkpt lat="43.02647" lon="-0.74644">
        <ele>707.4</ele>
        <time>2021-12-29T11:10:51.000Z</time>
      </trkpt>
      <trkpt lat="43.02649" lon="-0.74644">
        <ele>707.6</ele>
        <time>2021-12-29T11:10:52.000Z</time>
      </trkpt>
      <trkpt lat="43.0265" lon="-0.74645">
        <ele>707.8</ele>
        <time>2021-12-29T11:10:53.000Z</time>
      </trkpt>
      <trkpt lat="43.02652" lon="-0.74645">
        <ele>708</ele>
        <time>2021-12-29T11:10:54.000Z</time>
      </trkpt>
      <trkpt lat="43.02653" lon="-0.74645">
        <ele>708.2</ele>
        <time>2021-12-29T11:10:55.000Z</time>
      </trkpt>
      <trkpt lat="43.02655" lon="-0.74646">
        <ele>708.4</ele>
        <time>2021-12-29T11:10:56.000Z</time>
      </trkpt>
      <trkpt lat="43.02657" lon="-0.74646">
        <ele>708.6</ele>
        <time>2021-12-29T11:10:57.000Z</time>
      </trkpt>
      <trkpt lat="43.02659" lon="-0.74646">
        <ele>708.8</ele>
        <time>2021-12-29T11:10:58.000Z</time>
      </trkpt>
      <trkpt lat="43.02661" lon="-0.74646">
        <ele>709</ele>
        <time>2021-12-29T11:10:59.000Z</time>
      </trkpt>
      <trkpt lat="43.02663" lon="-0.74647">
        <ele>709.2</ele>
        <time>2021-12-29T11:11:00.000Z</time>
      </trkpt>
      <trkpt lat="43.02664" lon="-0.74647">
        <ele>709.4</ele>
        <time>2021-12-29T11:11:01.000Z</time>
      </trkpt>
      <trkpt lat="43.02666" lon="-0.74648">
        <ele>709.6</ele>
        <time>2021-12-29T11:11:02.000Z</time>
      </trkpt>
      <trkpt lat="43.02668" lon="-0.74649">
        <ele>709.8</ele>
        <time>2021-12-29T11:11:03.000Z</time>
      </trkpt>
      <trkpt lat="43.0267" lon="-0.7465">
        <ele>710</ele>
        <time>2021-12-29T11:11:04.000Z</time>
      </trkpt>
      <trkpt lat="43.02672" lon="-0.74651">
        <ele>710.2</ele>
        <time>2021-12-29T11:11:05.000Z</time>
      </trkpt>
      <trkpt lat="43.02674" lon="-0.74651">
        <ele>710.6</ele>
        <time>2021-12-29T11:11:06.000Z</time>
      </trkpt>
      <trkpt lat="43.02676" lon="-0.74652">
        <ele>710.8</ele>
        <time>2021-12-29T11:11:07.000Z</time>
      </trkpt>
      <trkpt lat="43.02677" lon="-0.74652">
        <ele>711</ele>
        <time>2021-12-29T11:11:08.000Z</time>
      </trkpt>
      <trkpt lat="43.02679" lon="-0.74653">
        <ele>711.2</ele>
        <time>2021-12-29T11:11:09.000Z</time>
      </trkpt>
      <trkpt lat="43.02681" lon="-0.74654">
        <ele>711.4</ele>
        <time>2021-12-29T11:11:10.000Z</time>
      </trkpt>
      <trkpt lat="43.02682" lon="-0.74655">
        <ele>711.6</ele>
        <time>2021-12-29T11:11:11.000Z</time>
      </trkpt>
      <trkpt lat="43.02684" lon="-0.74656">
        <ele>711.8</ele>
        <time>2021-12-29T11:11:12.000Z</time>
      </trkpt>
      <trkpt lat="43.02686" lon="-0.74657">
        <ele>712</ele>
        <time>2021-12-29T11:11:13.000Z</time>
      </trkpt>
      <trkpt lat="43.02688" lon="-0.74657">
        <ele>712.4</ele>
        <time>2021-12-29T11:11:14.000Z</time>
      </trkpt>
      <trkpt lat="43.0269" lon="-0.74658">
        <ele>712.6</ele>
        <time>2021-12-29T11:11:15.000Z</time>
      </trkpt>
      <trkpt lat="43.02691" lon="-0.74659">
        <ele>712.8</ele>
        <time>2021-12-29T11:11:16.000Z</time>
      </trkpt>
      <trkpt lat="43.02693" lon="-0.74659">
        <ele>713</ele>
        <time>2021-12-29T11:11:17.000Z</time>
      </trkpt>
      <trkpt lat="43.02695" lon="-0.7466">
        <ele>713.2</ele>
        <time>2021-12-29T11:11:18.000Z</time>
      </trkpt>
      <trkpt lat="43.02697" lon="-0.74661">
        <ele>713.4</ele>
        <time>2021-12-29T11:11:19.000Z</time>
      </trkpt>
      <trkpt lat="43.02699" lon="-0.74661">
        <ele>713.6</ele>
        <time>2021-12-29T11:11:20.000Z</time>
      </trkpt>
      <trkpt lat="43.02701" lon="-0.74662">
        <ele>713.8</ele>
        <time>2021-12-29T11:11:21.000Z</time>
      </trkpt>
      <trkpt lat="43.02703" lon="-0.74663">
        <ele>714</ele>
        <time>2021-12-29T11:11:22.000Z</time>
      </trkpt>
      <trkpt lat="43.02705" lon="-0.74663">
        <ele>714.2</ele>
        <time>2021-12-29T11:11:23.000Z</time>
      </trkpt>
      <trkpt lat="43.02707" lon="-0.74663">
        <ele>714.4</ele>
        <time>2021-12-29T11:11:24.000Z</time>
      </trkpt>
      <trkpt lat="43.02709" lon="-0.74664">
        <ele>714.6</ele>
        <time>2021-12-29T11:11:25.000Z</time>
      </trkpt>
      <trkpt lat="43.02711" lon="-0.74664">
        <ele>714.8</ele>
        <time>2021-12-29T11:11:26.000Z</time>
      </trkpt>
      <trkpt lat="43.02713" lon="-0.74665">
        <ele>715</ele>
        <time>2021-12-29T11:11:27.000Z</time>
      </trkpt>
      <trkpt lat="43.02714" lon="-0.74665">
        <ele>715.2</ele>
        <time>2021-12-29T11:11:28.000Z</time>
      </trkpt>
      <trkpt lat="43.02716" lon="-0.74665">
        <ele>715.2</ele>
        <time>2021-12-29T11:11:29.000Z</time>
      </trkpt>
      <trkpt lat="43.02718" lon="-0.74666">
        <ele>715.4</ele>
        <time>2021-12-29T11:11:30.000Z</time>
      </trkpt>
      <trkpt lat="43.0272" lon="-0.74666">
        <ele>715.6</ele>
        <time>2021-12-29T11:11:31.000Z</time>
      </trkpt>
      <trkpt lat="43.02722" lon="-0.74667">
        <ele>715.8</ele>
        <time>2021-12-29T11:11:32.000Z</time>
      </trkpt>
      <trkpt lat="43.02724" lon="-0.74667">
        <ele>715.8</ele>
        <time>2021-12-29T11:11:33.000Z</time>
      </trkpt>
      <trkpt lat="43.02726" lon="-0.74668">
        <ele>716</ele>
        <time>2021-12-29T11:11:34.000Z</time>
      </trkpt>
      <trkpt lat="43.02728" lon="-0.74669">
        <ele>716.2</ele>
        <time>2021-12-29T11:11:35.000Z</time>
      </trkpt>
      <trkpt lat="43.0273" lon="-0.74671">
        <ele>716.4</ele>
        <time>2021-12-29T11:11:36.000Z</time>
      </trkpt>
      <trkpt lat="43.02732" lon="-0.74672">
        <ele>716.6</ele>
        <time>2021-12-29T11:11:37.000Z</time>
      </trkpt>
      <trkpt lat="43.02734" lon="-0.74674">
        <ele>716.6</ele>
        <time>2021-12-29T11:11:38.000Z</time>
      </trkpt>
      <trkpt lat="43.02736" lon="-0.74675">
        <ele>716.8</ele>
        <time>2021-12-29T11:11:39.000Z</time>
      </trkpt>
      <trkpt lat="43.02737" lon="-0.74677">
        <ele>716.8</ele>
        <time>2021-12-29T11:11:40.000Z</time>
      </trkpt>
      <trkpt lat="43.02738" lon="-0.7468">
        <ele>717</ele>
        <time>2021-12-29T11:11:41.000Z</time>
      </trkpt>
      <trkpt lat="43.02738" lon="-0.74683">
        <ele>717.2</ele>
        <time>2021-12-29T11:11:42.000Z</time>
      </trkpt>
      <trkpt lat="43.02738" lon="-0.74686">
        <ele>717.2</ele>
        <time>2021-12-29T11:11:43.000Z</time>
      </trkpt>
      <trkpt lat="43.02738" lon="-0.74689">
        <ele>717.4</ele>
        <time>2021-12-29T11:11:44.000Z</time>
      </trkpt>
      <trkpt lat="43.02737" lon="-0.74692">
        <ele>717.4</ele>
        <time>2021-12-29T11:11:45.000Z</time>
      </trkpt>
      <trkpt lat="43.02736" lon="-0.74694">
        <ele>717.6</ele>
        <time>2021-12-29T11:11:46.000Z</time>
      </trkpt>
      <trkpt lat="43.02735" lon="-0.74696">
        <ele>717.8</ele>
        <time>2021-12-29T11:11:47.000Z</time>
      </trkpt>
      <trkpt lat="43.02733" lon="-0.74698">
        <ele>717.8</ele>
        <time>2021-12-29T11:11:48.000Z</time>
      </trkpt>
      <trkpt lat="43.02731" lon="-0.747">
        <ele>718</ele>
        <time>2021-12-29T11:11:49.000Z</time>
      </trkpt>
      <trkpt lat="43.02729" lon="-0.74701">
        <ele>718</ele>
        <time>2021-12-29T11:11:50.000Z</time>
      </trkpt>
      <trkpt lat="43.02727" lon="-0.74702">
        <ele>718.2</ele>
        <time>2021-12-29T11:11:51.000Z</time>
      </trkpt>
      <trkpt lat="43.02725" lon="-0.74703">
        <ele>718.2</ele>
        <time>2021-12-29T11:11:52.000Z</time>
      </trkpt>
      <trkpt lat="43.02723" lon="-0.74704">
        <ele>718.2</ele>
        <time>2021-12-29T11:11:53.000Z</time>
      </trkpt>
      <trkpt lat="43.0272" lon="-0.74704">
        <ele>718.2</ele>
        <time>2021-12-29T11:11:54.000Z</time>
      </trkpt>
      <trkpt lat="43.02718" lon="-0.74704">
        <ele>718.4</ele>
        <time>2021-12-29T11:11:55.000Z</time>
      </trkpt>
      <trkpt lat="43.02716" lon="-0.74704">
        <ele>718.4</ele>
        <time>2021-12-29T11:11:56.000Z</time>
      </trkpt>
      <trkpt lat="43.02713" lon="-0.74703">
        <ele>718.6</ele>
        <time>2021-12-29T11:11:57.000Z</time>
      </trkpt>
      <trkpt lat="43.02711" lon="-0.74702">
        <ele>718.6</ele>
        <time>2021-12-29T11:11:58.000Z</time>
      </trkpt>
      <trkpt lat="43.02709" lon="-0.74701">
        <ele>718.8</ele>
        <time>2021-12-29T11:11:59.000Z</time>
      </trkpt>
      <trkpt lat="43.02706" lon="-0.74701">
        <ele>718.8</ele>
        <time>2021-12-29T11:12:00.000Z</time>
      </trkpt>
      <trkpt lat="43.02704" lon="-0.747">
        <ele>719</ele>
        <time>2021-12-29T11:12:01.000Z</time>
      </trkpt>
      <trkpt lat="43.02701" lon="-0.747">
        <ele>719.2</ele>
        <time>2021-12-29T11:12:02.000Z</time>
      </trkpt>
      <trkpt lat="43.02699" lon="-0.74699">
        <ele>719.4</ele>
        <time>2021-12-29T11:12:03.000Z</time>
      </trkpt>
      <trkpt lat="43.02697" lon="-0.74699">
        <ele>719.4</ele>
        <time>2021-12-29T11:12:04.000Z</time>
      </trkpt>
      <trkpt lat="43.02695" lon="-0.74699">
        <ele>719.6</ele>
        <time>2021-12-29T11:12:05.000Z</time>
      </trkpt>
      <trkpt lat="43.02692" lon="-0.74698">
        <ele>719.8</ele>
        <time>2021-12-29T11:12:06.000Z</time>
      </trkpt>
      <trkpt lat="43.0269" lon="-0.74698">
        <ele>720.2</ele>
        <time>2021-12-29T11:12:07.000Z</time>
      </trkpt>
      <trkpt lat="43.02688" lon="-0.74698">
        <ele>720.2</ele>
        <time>2021-12-29T11:12:08.000Z</time>
      </trkpt>
      <trkpt lat="43.02686" lon="-0.74698">
        <ele>720.4</ele>
        <time>2021-12-29T11:12:09.000Z</time>
      </trkpt>
      <trkpt lat="43.02683" lon="-0.74698">
        <ele>720.8</ele>
        <time>2021-12-29T11:12:10.000Z</time>
      </trkpt>
      <trkpt lat="43.02681" lon="-0.74698">
        <ele>721</ele>
        <time>2021-12-29T11:12:11.000Z</time>
      </trkpt>
      <trkpt lat="43.02679" lon="-0.74698">
        <ele>721</ele>
        <time>2021-12-29T11:12:12.000Z</time>
      </trkpt>
      <trkpt lat="43.02677" lon="-0.74698">
        <ele>721.4</ele>
        <time>2021-12-29T11:12:13.000Z</time>
      </trkpt>
      <trkpt lat="43.02675" lon="-0.74698">
        <ele>721.6</ele>
        <time>2021-12-29T11:12:14.000Z</time>
      </trkpt>
      <trkpt lat="43.02673" lon="-0.74698">
        <ele>721.8</ele>
        <time>2021-12-29T11:12:15.000Z</time>
      </trkpt>
      <trkpt lat="43.02671" lon="-0.74698">
        <ele>722</ele>
        <time>2021-12-29T11:12:16.000Z</time>
      </trkpt>
      <trkpt lat="43.02668" lon="-0.74698">
        <ele>722.2</ele>
        <time>2021-12-29T11:12:17.000Z</time>
      </trkpt>
      <trkpt lat="43.02666" lon="-0.74698">
        <ele>722.4</ele>
        <time>2021-12-29T11:12:18.000Z</time>
      </trkpt>
      <trkpt lat="43.02664" lon="-0.74698">
        <ele>722.6</ele>
        <time>2021-12-29T11:12:19.000Z</time>
      </trkpt>
      <trkpt lat="43.02662" lon="-0.74698">
        <ele>722.8</ele>
        <time>2021-12-29T11:12:20.000Z</time>
      </trkpt>
      <trkpt lat="43.0266" lon="-0.74698">
        <ele>723.2</ele>
        <time>2021-12-29T11:12:21.000Z</time>
      </trkpt>
      <trkpt lat="43.02658" lon="-0.74697">
        <ele>723.4</ele>
        <time>2021-12-29T11:12:22.000Z</time>
      </trkpt>
      <trkpt lat="43.02656" lon="-0.74697">
        <ele>723.6</ele>
        <time>2021-12-29T11:12:23.000Z</time>
      </trkpt>
      <trkpt lat="43.02654" lon="-0.74696">
        <ele>723.8</ele>
        <time>2021-12-29T11:12:24.000Z</time>
      </trkpt>
      <trkpt lat="43.02652" lon="-0.74697">
        <ele>724</ele>
        <time>2021-12-29T11:12:25.000Z</time>
      </trkpt>
      <trkpt lat="43.0265" lon="-0.74697">
        <ele>724.2</ele>
        <time>2021-12-29T11:12:26.000Z</time>
      </trkpt>
      <trkpt lat="43.02648" lon="-0.74697">
        <ele>724.4</ele>
        <time>2021-12-29T11:12:27.000Z</time>
      </trkpt>
      <trkpt lat="43.02646" lon="-0.74696">
        <ele>724.6</ele>
        <time>2021-12-29T11:12:28.000Z</time>
      </trkpt>
      <trkpt lat="43.02645" lon="-0.74696">
        <ele>724.8</ele>
        <time>2021-12-29T11:12:29.000Z</time>
      </trkpt>
      <trkpt lat="43.02643" lon="-0.74696">
        <ele>725</ele>
        <time>2021-12-29T11:12:30.000Z</time>
      </trkpt>
      <trkpt lat="43.02642" lon="-0.74696">
        <ele>725.4</ele>
        <time>2021-12-29T11:12:31.000Z</time>
      </trkpt>
      <trkpt lat="43.0264" lon="-0.74695">
        <ele>725.6</ele>
        <time>2021-12-29T11:12:32.000Z</time>
      </trkpt>
      <trkpt lat="43.02638" lon="-0.74695">
        <ele>725.8</ele>
        <time>2021-12-29T11:12:33.000Z</time>
      </trkpt>
      <trkpt lat="43.02636" lon="-0.74695">
        <ele>726</ele>
        <time>2021-12-29T11:12:34.000Z</time>
      </trkpt>
      <trkpt lat="43.02634" lon="-0.74695">
        <ele>726.2</ele>
        <time>2021-12-29T11:12:35.000Z</time>
      </trkpt>
      <trkpt lat="43.02633" lon="-0.74695">
        <ele>726.4</ele>
        <time>2021-12-29T11:12:36.000Z</time>
      </trkpt>
      <trkpt lat="43.02631" lon="-0.74695">
        <ele>726.6</ele>
        <time>2021-12-29T11:12:37.000Z</time>
      </trkpt>
      <trkpt lat="43.0263" lon="-0.74694">
        <ele>726.8</ele>
        <time>2021-12-29T11:12:38.000Z</time>
      </trkpt>
      <trkpt lat="43.02628" lon="-0.74694">
        <ele>727</ele>
        <time>2021-12-29T11:12:39.000Z</time>
      </trkpt>
      <trkpt lat="43.02626" lon="-0.74693">
        <ele>727.2</ele>
        <time>2021-12-29T11:12:40.000Z</time>
      </trkpt>
      <trkpt lat="43.02625" lon="-0.74693">
        <ele>727.4</ele>
        <time>2021-12-29T11:12:41.000Z</time>
      </trkpt>
      <trkpt lat="43.02623" lon="-0.74693">
        <ele>727.6</ele>
        <time>2021-12-29T11:12:42.000Z</time>
      </trkpt>
      <trkpt lat="43.02621" lon="-0.74694">
        <ele>727.8</ele>
        <time>2021-12-29T11:12:43.000Z</time>
      </trkpt>
      <trkpt lat="43.02619" lon="-0.74694">
        <ele>728</ele>
        <time>2021-12-29T11:12:44.000Z</time>
      </trkpt>
      <trkpt lat="43.02617" lon="-0.74694">
        <ele>728.2</ele>
        <time>2021-12-29T11:12:45.000Z</time>
      </trkpt>
      <trkpt lat="43.02616" lon="-0.74694">
        <ele>728.4</ele>
        <time>2021-12-29T11:12:46.000Z</time>
      </trkpt>
      <trkpt lat="43.02614" lon="-0.74694">
        <ele>728.6</ele>
        <time>2021-12-29T11:12:47.000Z</time>
      </trkpt>
      <trkpt lat="43.02612" lon="-0.74694">
        <ele>728.8</ele>
        <time>2021-12-29T11:12:48.000Z</time>
      </trkpt>
      <trkpt lat="43.02611" lon="-0.74694">
        <ele>728.8</ele>
        <time>2021-12-29T11:12:49.000Z</time>
      </trkpt>
      <trkpt lat="43.02609" lon="-0.74694">
        <ele>729.2</ele>
        <time>2021-12-29T11:12:50.000Z</time>
      </trkpt>
      <trkpt lat="43.02607" lon="-0.74694">
        <ele>729.2</ele>
        <time>2021-12-29T11:12:51.000Z</time>
      </trkpt>
      <trkpt lat="43.02605" lon="-0.74695">
        <ele>729.8</ele>
        <time>2021-12-29T11:12:52.000Z</time>
      </trkpt>
      <trkpt lat="43.02603" lon="-0.74695">
        <ele>729.8</ele>
        <time>2021-12-29T11:12:53.000Z</time>
      </trkpt>
      <trkpt lat="43.02601" lon="-0.74695">
        <ele>730</ele>
        <time>2021-12-29T11:12:54.000Z</time>
      </trkpt>
      <trkpt lat="43.02599" lon="-0.74695">
        <ele>730.2</ele>
        <time>2021-12-29T11:12:55.000Z</time>
      </trkpt>
      <trkpt lat="43.02597" lon="-0.74695">
        <ele>730.4</ele>
        <time>2021-12-29T11:12:56.000Z</time>
      </trkpt>
      <trkpt lat="43.02595" lon="-0.74696">
        <ele>730.6</ele>
        <time>2021-12-29T11:12:57.000Z</time>
      </trkpt>
      <trkpt lat="43.02593" lon="-0.74696">
        <ele>730.8</ele>
        <time>2021-12-29T11:12:58.000Z</time>
      </trkpt>
      <trkpt lat="43.02591" lon="-0.74696">
        <ele>731</ele>
        <time>2021-12-29T11:12:59.000Z</time>
      </trkpt>
      <trkpt lat="43.0259" lon="-0.74697">
        <ele>731.2</ele>
        <time>2021-12-29T11:13:00.000Z</time>
      </trkpt>
      <trkpt lat="43.02588" lon="-0.74698">
        <ele>731.2</ele>
        <time>2021-12-29T11:13:01.000Z</time>
      </trkpt>
      <trkpt lat="43.02587" lon="-0.74699">
        <ele>731.6</ele>
        <time>2021-12-29T11:13:02.000Z</time>
      </trkpt>
      <trkpt lat="43.02585" lon="-0.74699">
        <ele>731.6</ele>
        <time>2021-12-29T11:13:03.000Z</time>
      </trkpt>
      <trkpt lat="43.02583" lon="-0.747">
        <ele>731.8</ele>
        <time>2021-12-29T11:13:04.000Z</time>
      </trkpt>
      <trkpt lat="43.02582" lon="-0.74701">
        <ele>731.8</ele>
        <time>2021-12-29T11:13:05.000Z</time>
      </trkpt>
      <trkpt lat="43.0258" lon="-0.74701">
        <ele>732</ele>
        <time>2021-12-29T11:13:06.000Z</time>
      </trkpt>
      <trkpt lat="43.02578" lon="-0.74701">
        <ele>732.2</ele>
        <time>2021-12-29T11:13:07.000Z</time>
      </trkpt>
      <trkpt lat="43.02576" lon="-0.74701">
        <ele>732.2</ele>
        <time>2021-12-29T11:13:08.000Z</time>
      </trkpt>
      <trkpt lat="43.02574" lon="-0.74701">
        <ele>732.4</ele>
        <time>2021-12-29T11:13:09.000Z</time>
      </trkpt>
      <trkpt lat="43.02572" lon="-0.74701">
        <ele>732.6</ele>
        <time>2021-12-29T11:13:10.000Z</time>
      </trkpt>
      <trkpt lat="43.0257" lon="-0.74701">
        <ele>732.8</ele>
        <time>2021-12-29T11:13:11.000Z</time>
      </trkpt>
      <trkpt lat="43.02568" lon="-0.74701">
        <ele>732.8</ele>
        <time>2021-12-29T11:13:12.000Z</time>
      </trkpt>
      <trkpt lat="43.02567" lon="-0.74701">
        <ele>733</ele>
        <time>2021-12-29T11:13:13.000Z</time>
      </trkpt>
      <trkpt lat="43.02565" lon="-0.74701">
        <ele>733.4</ele>
        <time>2021-12-29T11:13:14.000Z</time>
      </trkpt>
      <trkpt lat="43.02563" lon="-0.74701">
        <ele>733.4</ele>
        <time>2021-12-29T11:13:15.000Z</time>
      </trkpt>
      <trkpt lat="43.02561" lon="-0.74701">
        <ele>733.6</ele>
        <time>2021-12-29T11:13:16.000Z</time>
      </trkpt>
      <trkpt lat="43.02559" lon="-0.74702">
        <ele>733.8</ele>
        <time>2021-12-29T11:13:17.000Z</time>
      </trkpt>
      <trkpt lat="43.02557" lon="-0.74702">
        <ele>734</ele>
        <time>2021-12-29T11:13:18.000Z</time>
      </trkpt>
      <trkpt lat="43.02555" lon="-0.74703">
        <ele>734.2</ele>
        <time>2021-12-29T11:13:19.000Z</time>
      </trkpt>
      <trkpt lat="43.02553" lon="-0.74703">
        <ele>734.4</ele>
        <time>2021-12-29T11:13:20.000Z</time>
      </trkpt>
      <trkpt lat="43.02552" lon="-0.74703">
        <ele>734.6</ele>
        <time>2021-12-29T11:13:21.000Z</time>
      </trkpt>
      <trkpt lat="43.0255" lon="-0.74704">
        <ele>734.8</ele>
        <time>2021-12-29T11:13:22.000Z</time>
      </trkpt>
      <trkpt lat="43.02548" lon="-0.74704">
        <ele>735</ele>
        <time>2021-12-29T11:13:23.000Z</time>
      </trkpt>
      <trkpt lat="43.02546" lon="-0.74704">
        <ele>735.4</ele>
        <time>2021-12-29T11:13:24.000Z</time>
      </trkpt>
      <trkpt lat="43.02544" lon="-0.74704">
        <ele>735.6</ele>
        <time>2021-12-29T11:13:25.000Z</time>
      </trkpt>
      <trkpt lat="43.02542" lon="-0.74704">
        <ele>735.8</ele>
        <time>2021-12-29T11:13:26.000Z</time>
      </trkpt>
      <trkpt lat="43.0254" lon="-0.74705">
        <ele>736</ele>
        <time>2021-12-29T11:13:27.000Z</time>
      </trkpt>
      <trkpt lat="43.02539" lon="-0.74705">
        <ele>736.2</ele>
        <time>2021-12-29T11:13:28.000Z</time>
      </trkpt>
      <trkpt lat="43.02537" lon="-0.74705">
        <ele>736.4</ele>
        <time>2021-12-29T11:13:29.000Z</time>
      </trkpt>
      <trkpt lat="43.02535" lon="-0.74706">
        <ele>736.6</ele>
        <time>2021-12-29T11:13:30.000Z</time>
      </trkpt>
      <trkpt lat="43.02533" lon="-0.74706">
        <ele>736.8</ele>
        <time>2021-12-29T11:13:31.000Z</time>
      </trkpt>
      <trkpt lat="43.02532" lon="-0.74707">
        <ele>737.2</ele>
        <time>2021-12-29T11:13:32.000Z</time>
      </trkpt>
      <trkpt lat="43.0253" lon="-0.74707">
        <ele>737.4</ele>
        <time>2021-12-29T11:13:33.000Z</time>
      </trkpt>
      <trkpt lat="43.02528" lon="-0.74707">
        <ele>737.6</ele>
        <time>2021-12-29T11:13:34.000Z</time>
      </trkpt>
      <trkpt lat="43.02527" lon="-0.74708">
        <ele>737.8</ele>
        <time>2021-12-29T11:13:35.000Z</time>
      </trkpt>
      <trkpt lat="43.02525" lon="-0.74709">
        <ele>738</ele>
        <time>2021-12-29T11:13:36.000Z</time>
      </trkpt>
      <trkpt lat="43.02523" lon="-0.74709">
        <ele>738.2</ele>
        <time>2021-12-29T11:13:37.000Z</time>
      </trkpt>
      <trkpt lat="43.02521" lon="-0.7471">
        <ele>738.4</ele>
        <time>2021-12-29T11:13:38.000Z</time>
      </trkpt>
      <trkpt lat="43.02519" lon="-0.74711">
        <ele>738.6</ele>
        <time>2021-12-29T11:13:39.000Z</time>
      </trkpt>
      <trkpt lat="43.02517" lon="-0.74711">
        <ele>738.6</ele>
        <time>2021-12-29T11:13:40.000Z</time>
      </trkpt>
      <trkpt lat="43.02515" lon="-0.74712">
        <ele>738.8</ele>
        <time>2021-12-29T11:13:41.000Z</time>
      </trkpt>
      <trkpt lat="43.02513" lon="-0.74713">
        <ele>739</ele>
        <time>2021-12-29T11:13:42.000Z</time>
      </trkpt>
      <trkpt lat="43.02511" lon="-0.74714">
        <ele>739.2</ele>
        <time>2021-12-29T11:13:43.000Z</time>
      </trkpt>
      <trkpt lat="43.02509" lon="-0.74714">
        <ele>739.4</ele>
        <time>2021-12-29T11:13:44.000Z</time>
      </trkpt>
      <trkpt lat="43.02508" lon="-0.74715">
        <ele>739.6</ele>
        <time>2021-12-29T11:13:45.000Z</time>
      </trkpt>
      <trkpt lat="43.02506" lon="-0.74716">
        <ele>739.8</ele>
        <time>2021-12-29T11:13:46.000Z</time>
      </trkpt>
      <trkpt lat="43.02504" lon="-0.74717">
        <ele>740</ele>
        <time>2021-12-29T11:13:47.000Z</time>
      </trkpt>
      <trkpt lat="43.02502" lon="-0.74718">
        <ele>740.2</ele>
        <time>2021-12-29T11:13:48.000Z</time>
      </trkpt>
      <trkpt lat="43.025" lon="-0.74719">
        <ele>740.4</ele>
        <time>2021-12-29T11:13:49.000Z</time>
      </trkpt>
      <trkpt lat="43.02498" lon="-0.7472">
        <ele>740.6</ele>
        <time>2021-12-29T11:13:50.000Z</time>
      </trkpt>
      <trkpt lat="43.02496" lon="-0.74721">
        <ele>740.6</ele>
        <time>2021-12-29T11:13:51.000Z</time>
      </trkpt>
      <trkpt lat="43.02494" lon="-0.74722">
        <ele>740.8</ele>
        <time>2021-12-29T11:13:52.000Z</time>
      </trkpt>
      <trkpt lat="43.02492" lon="-0.74722">
        <ele>741</ele>
        <time>2021-12-29T11:13:53.000Z</time>
      </trkpt>
      <trkpt lat="43.0249" lon="-0.74723">
        <ele>741.2</ele>
        <time>2021-12-29T11:13:54.000Z</time>
      </trkpt>
      <trkpt lat="43.02488" lon="-0.74724">
        <ele>741.4</ele>
        <time>2021-12-29T11:13:55.000Z</time>
      </trkpt>
      <trkpt lat="43.02486" lon="-0.74725">
        <ele>741.6</ele>
        <time>2021-12-29T11:13:56.000Z</time>
      </trkpt>
      <trkpt lat="43.02484" lon="-0.74726">
        <ele>741.6</ele>
        <time>2021-12-29T11:13:57.000Z</time>
      </trkpt>
      <trkpt lat="43.02482" lon="-0.74727">
        <ele>741.8</ele>
        <time>2021-12-29T11:13:58.000Z</time>
      </trkpt>
      <trkpt lat="43.02481" lon="-0.74728">
        <ele>742</ele>
        <time>2021-12-29T11:13:59.000Z</time>
      </trkpt>
      <trkpt lat="43.02479" lon="-0.7473">
        <ele>742.2</ele>
        <time>2021-12-29T11:14:00.000Z</time>
      </trkpt>
      <trkpt lat="43.02477" lon="-0.74731">
        <ele>742.4</ele>
        <time>2021-12-29T11:14:01.000Z</time>
      </trkpt>
      <trkpt lat="43.02475" lon="-0.74731">
        <ele>742.4</ele>
        <time>2021-12-29T11:14:02.000Z</time>
      </trkpt>
      <trkpt lat="43.02473" lon="-0.74732">
        <ele>742.4</ele>
        <time>2021-12-29T11:14:03.000Z</time>
      </trkpt>
      <trkpt lat="43.0247" lon="-0.74733">
        <ele>742.6</ele>
        <time>2021-12-29T11:14:04.000Z</time>
      </trkpt>
      <trkpt lat="43.02468" lon="-0.74733">
        <ele>742.6</ele>
        <time>2021-12-29T11:14:05.000Z</time>
      </trkpt>
      <trkpt lat="43.02465" lon="-0.74733">
        <ele>742.8</ele>
        <time>2021-12-29T11:14:06.000Z</time>
      </trkpt>
      <trkpt lat="43.02463" lon="-0.74734">
        <ele>743</ele>
        <time>2021-12-29T11:14:07.000Z</time>
      </trkpt>
      <trkpt lat="43.02461" lon="-0.74735">
        <ele>743</ele>
        <time>2021-12-29T11:14:08.000Z</time>
      </trkpt>
      <trkpt lat="43.02459" lon="-0.74735">
        <ele>743.2</ele>
        <time>2021-12-29T11:14:09.000Z</time>
      </trkpt>
      <trkpt lat="43.02456" lon="-0.74735">
        <ele>743.4</ele>
        <time>2021-12-29T11:14:10.000Z</time>
      </trkpt>
      <trkpt lat="43.02454" lon="-0.74736">
        <ele>743.6</ele>
        <time>2021-12-29T11:14:11.000Z</time>
      </trkpt>
      <trkpt lat="43.02452" lon="-0.74736">
        <ele>743.8</ele>
        <time>2021-12-29T11:14:12.000Z</time>
      </trkpt>
      <trkpt lat="43.02449" lon="-0.74737">
        <ele>744</ele>
        <time>2021-12-29T11:14:13.000Z</time>
      </trkpt>
      <trkpt lat="43.02447" lon="-0.74738">
        <ele>744</ele>
        <time>2021-12-29T11:14:14.000Z</time>
      </trkpt>
      <trkpt lat="43.02445" lon="-0.74739">
        <ele>744.2</ele>
        <time>2021-12-29T11:14:15.000Z</time>
      </trkpt>
      <trkpt lat="43.02443" lon="-0.7474">
        <ele>744.2</ele>
        <time>2021-12-29T11:14:16.000Z</time>
      </trkpt>
      <trkpt lat="43.0244" lon="-0.74741">
        <ele>744.4</ele>
        <time>2021-12-29T11:14:17.000Z</time>
      </trkpt>
      <trkpt lat="43.02438" lon="-0.74742">
        <ele>744.6</ele>
        <time>2021-12-29T11:14:18.000Z</time>
      </trkpt>
      <trkpt lat="43.02436" lon="-0.74743">
        <ele>744.8</ele>
        <time>2021-12-29T11:14:19.000Z</time>
      </trkpt>
      <trkpt lat="43.02434" lon="-0.74744">
        <ele>745</ele>
        <time>2021-12-29T11:14:20.000Z</time>
      </trkpt>
      <trkpt lat="43.02432" lon="-0.74745">
        <ele>745</ele>
        <time>2021-12-29T11:14:21.000Z</time>
      </trkpt>
      <trkpt lat="43.0243" lon="-0.74746">
        <ele>745.2</ele>
        <time>2021-12-29T11:14:22.000Z</time>
      </trkpt>
      <trkpt lat="43.02428" lon="-0.74747">
        <ele>745.2</ele>
        <time>2021-12-29T11:14:23.000Z</time>
      </trkpt>
      <trkpt lat="43.02426" lon="-0.74748">
        <ele>745.4</ele>
        <time>2021-12-29T11:14:24.000Z</time>
      </trkpt>
      <trkpt lat="43.02424" lon="-0.74749">
        <ele>745.6</ele>
        <time>2021-12-29T11:14:25.000Z</time>
      </trkpt>
      <trkpt lat="43.02421" lon="-0.7475">
        <ele>745.8</ele>
        <time>2021-12-29T11:14:26.000Z</time>
      </trkpt>
      <trkpt lat="43.02419" lon="-0.74751">
        <ele>745.8</ele>
        <time>2021-12-29T11:14:27.000Z</time>
      </trkpt>
      <trkpt lat="43.02417" lon="-0.74752">
        <ele>746</ele>
        <time>2021-12-29T11:14:28.000Z</time>
      </trkpt>
      <trkpt lat="43.02415" lon="-0.74754">
        <ele>746.2</ele>
        <time>2021-12-29T11:14:29.000Z</time>
      </trkpt>
      <trkpt lat="43.02412" lon="-0.74755">
        <ele>746.2</ele>
        <time>2021-12-29T11:14:30.000Z</time>
      </trkpt>
      <trkpt lat="43.0241" lon="-0.74756">
        <ele>746.4</ele>
        <time>2021-12-29T11:14:31.000Z</time>
      </trkpt>
      <trkpt lat="43.02407" lon="-0.74757">
        <ele>746.6</ele>
        <time>2021-12-29T11:14:32.000Z</time>
      </trkpt>
      <trkpt lat="43.02405" lon="-0.74759">
        <ele>746.6</ele>
        <time>2021-12-29T11:14:33.000Z</time>
      </trkpt>
      <trkpt lat="43.02402" lon="-0.7476">
        <ele>746.8</ele>
        <time>2021-12-29T11:14:34.000Z</time>
      </trkpt>
      <trkpt lat="43.02399" lon="-0.74761">
        <ele>747</ele>
        <time>2021-12-29T11:14:35.000Z</time>
      </trkpt>
      <trkpt lat="43.02397" lon="-0.74762">
        <ele>747</ele>
        <time>2021-12-29T11:14:36.000Z</time>
      </trkpt>
      <trkpt lat="43.02395" lon="-0.74763">
        <ele>747.2</ele>
        <time>2021-12-29T11:14:37.000Z</time>
      </trkpt>
      <trkpt lat="43.02393" lon="-0.74765">
        <ele>747.4</ele>
        <time>2021-12-29T11:14:38.000Z</time>
      </trkpt>
      <trkpt lat="43.0239" lon="-0.74766">
        <ele>747.4</ele>
        <time>2021-12-29T11:14:39.000Z</time>
      </trkpt>
      <trkpt lat="43.02388" lon="-0.74767">
        <ele>747.6</ele>
        <time>2021-12-29T11:14:40.000Z</time>
      </trkpt>
      <trkpt lat="43.02386" lon="-0.74768">
        <ele>747.6</ele>
        <time>2021-12-29T11:14:41.000Z</time>
      </trkpt>
      <trkpt lat="43.02384" lon="-0.74769">
        <ele>747.8</ele>
        <time>2021-12-29T11:14:42.000Z</time>
      </trkpt>
      <trkpt lat="43.02381" lon="-0.7477">
        <ele>747.8</ele>
        <time>2021-12-29T11:14:43.000Z</time>
      </trkpt>
      <trkpt lat="43.02379" lon="-0.74771">
        <ele>748</ele>
        <time>2021-12-29T11:14:44.000Z</time>
      </trkpt>
      <trkpt lat="43.02376" lon="-0.74773">
        <ele>748.2</ele>
        <time>2021-12-29T11:14:45.000Z</time>
      </trkpt>
      <trkpt lat="43.02374" lon="-0.74774">
        <ele>748.2</ele>
        <time>2021-12-29T11:14:46.000Z</time>
      </trkpt>
      <trkpt lat="43.02372" lon="-0.74776">
        <ele>748.4</ele>
        <time>2021-12-29T11:14:47.000Z</time>
      </trkpt>
      <trkpt lat="43.02369" lon="-0.74777">
        <ele>748.4</ele>
        <time>2021-12-29T11:14:48.000Z</time>
      </trkpt>
      <trkpt lat="43.02367" lon="-0.74778">
        <ele>748.4</ele>
        <time>2021-12-29T11:14:49.000Z</time>
      </trkpt>
      <trkpt lat="43.02364" lon="-0.7478">
        <ele>748.6</ele>
        <time>2021-12-29T11:14:50.000Z</time>
      </trkpt>
      <trkpt lat="43.02362" lon="-0.74782">
        <ele>748.6</ele>
        <time>2021-12-29T11:14:51.000Z</time>
      </trkpt>
      <trkpt lat="43.0236" lon="-0.74783">
        <ele>748.6</ele>
        <time>2021-12-29T11:14:52.000Z</time>
      </trkpt>
      <trkpt lat="43.02358" lon="-0.74785">
        <ele>748.6</ele>
        <time>2021-12-29T11:14:53.000Z</time>
      </trkpt>
      <trkpt lat="43.02356" lon="-0.74787">
        <ele>748.8</ele>
        <time>2021-12-29T11:14:54.000Z</time>
      </trkpt>
      <trkpt lat="43.02354" lon="-0.74789">
        <ele>748.8</ele>
        <time>2021-12-29T11:14:55.000Z</time>
      </trkpt>
      <trkpt lat="43.02352" lon="-0.7479">
        <ele>748.8</ele>
        <time>2021-12-29T11:14:56.000Z</time>
      </trkpt>
      <trkpt lat="43.0235" lon="-0.74792">
        <ele>749</ele>
        <time>2021-12-29T11:14:57.000Z</time>
      </trkpt>
      <trkpt lat="43.02347" lon="-0.74793">
        <ele>749</ele>
        <time>2021-12-29T11:14:58.000Z</time>
      </trkpt>
      <trkpt lat="43.02344" lon="-0.74795">
        <ele>749.2</ele>
        <time>2021-12-29T11:14:59.000Z</time>
      </trkpt>
      <trkpt lat="43.02342" lon="-0.74796">
        <ele>749.4</ele>
        <time>2021-12-29T11:15:00.000Z</time>
      </trkpt>
      <trkpt lat="43.0234" lon="-0.74797">
        <ele>749.4</ele>
        <time>2021-12-29T11:15:01.000Z</time>
      </trkpt>
      <trkpt lat="43.02337" lon="-0.74799">
        <ele>749.6</ele>
        <time>2021-12-29T11:15:02.000Z</time>
      </trkpt>
      <trkpt lat="43.02335" lon="-0.74799">
        <ele>749.8</ele>
        <time>2021-12-29T11:15:03.000Z</time>
      </trkpt>
      <trkpt lat="43.02332" lon="-0.748">
        <ele>750</ele>
        <time>2021-12-29T11:15:04.000Z</time>
      </trkpt>
      <trkpt lat="43.02331" lon="-0.74801">
        <ele>750.2</ele>
        <time>2021-12-29T11:15:05.000Z</time>
      </trkpt>
      <trkpt lat="43.02329" lon="-0.74801">
        <ele>750.4</ele>
        <time>2021-12-29T11:15:06.000Z</time>
      </trkpt>
      <trkpt lat="43.02327" lon="-0.74802">
        <ele>750.6</ele>
        <time>2021-12-29T11:15:07.000Z</time>
      </trkpt>
      <trkpt lat="43.02325" lon="-0.74802">
        <ele>750.8</ele>
        <time>2021-12-29T11:15:08.000Z</time>
      </trkpt>
      <trkpt lat="43.02324" lon="-0.74803">
        <ele>751</ele>
        <time>2021-12-29T11:15:09.000Z</time>
      </trkpt>
      <trkpt lat="43.02322" lon="-0.74805">
        <ele>751.2</ele>
        <time>2021-12-29T11:15:10.000Z</time>
      </trkpt>
      <trkpt lat="43.0232" lon="-0.74806">
        <ele>751.4</ele>
        <time>2021-12-29T11:15:11.000Z</time>
      </trkpt>
      <trkpt lat="43.02318" lon="-0.74806">
        <ele>751.8</ele>
        <time>2021-12-29T11:15:12.000Z</time>
      </trkpt>
      <trkpt lat="43.02316" lon="-0.74807">
        <ele>752</ele>
        <time>2021-12-29T11:15:13.000Z</time>
      </trkpt>
      <trkpt lat="43.02314" lon="-0.74808">
        <ele>752.2</ele>
        <time>2021-12-29T11:15:14.000Z</time>
      </trkpt>
      <trkpt lat="43.02312" lon="-0.74808">
        <ele>752.4</ele>
        <time>2021-12-29T11:15:15.000Z</time>
      </trkpt>
      <trkpt lat="43.0231" lon="-0.74809">
        <ele>752.6</ele>
        <time>2021-12-29T11:15:16.000Z</time>
      </trkpt>
      <trkpt lat="43.02308" lon="-0.7481">
        <ele>752.8</ele>
        <time>2021-12-29T11:15:17.000Z</time>
      </trkpt>
      <trkpt lat="43.02306" lon="-0.7481">
        <ele>753</ele>
        <time>2021-12-29T11:15:18.000Z</time>
      </trkpt>
      <trkpt lat="43.02305" lon="-0.74811">
        <ele>753.2</ele>
        <time>2021-12-29T11:15:19.000Z</time>
      </trkpt>
      <trkpt lat="43.02303" lon="-0.74812">
        <ele>753.4</ele>
        <time>2021-12-29T11:15:20.000Z</time>
      </trkpt>
      <trkpt lat="43.02301" lon="-0.74812">
        <ele>753.6</ele>
        <time>2021-12-29T11:15:21.000Z</time>
      </trkpt>
      <trkpt lat="43.023" lon="-0.74813">
        <ele>753.8</ele>
        <time>2021-12-29T11:15:22.000Z</time>
      </trkpt>
      <trkpt lat="43.02298" lon="-0.74813">
        <ele>754</ele>
        <time>2021-12-29T11:15:23.000Z</time>
      </trkpt>
      <trkpt lat="43.02296" lon="-0.74813">
        <ele>754.6</ele>
        <time>2021-12-29T11:15:24.000Z</time>
      </trkpt>
      <trkpt lat="43.02295" lon="-0.74814">
        <ele>754.4</ele>
        <time>2021-12-29T11:15:25.000Z</time>
      </trkpt>
      <trkpt lat="43.02293" lon="-0.74814">
        <ele>754.8</ele>
        <time>2021-12-29T11:15:26.000Z</time>
      </trkpt>
      <trkpt lat="43.02291" lon="-0.74815">
        <ele>755</ele>
        <time>2021-12-29T11:15:27.000Z</time>
      </trkpt>
      <trkpt lat="43.0229" lon="-0.74815">
        <ele>755.2</ele>
        <time>2021-12-29T11:15:28.000Z</time>
      </trkpt>
      <trkpt lat="43.02288" lon="-0.74816">
        <ele>755.4</ele>
        <time>2021-12-29T11:15:29.000Z</time>
      </trkpt>
      <trkpt lat="43.02287" lon="-0.74817">
        <ele>755.6</ele>
        <time>2021-12-29T11:15:30.000Z</time>
      </trkpt>
      <trkpt lat="43.02285" lon="-0.74817">
        <ele>755.8</ele>
        <time>2021-12-29T11:15:31.000Z</time>
      </trkpt>
      <trkpt lat="43.02284" lon="-0.74818">
        <ele>756</ele>
        <time>2021-12-29T11:15:32.000Z</time>
      </trkpt>
      <trkpt lat="43.02282" lon="-0.74819">
        <ele>756.2</ele>
        <time>2021-12-29T11:15:33.000Z</time>
      </trkpt>
      <trkpt lat="43.02281" lon="-0.74819">
        <ele>756.6</ele>
        <time>2021-12-29T11:15:34.000Z</time>
      </trkpt>
      <trkpt lat="43.02279" lon="-0.7482">
        <ele>756.8</ele>
        <time>2021-12-29T11:15:35.000Z</time>
      </trkpt>
      <trkpt lat="43.02278" lon="-0.74821">
        <ele>757</ele>
        <time>2021-12-29T11:15:36.000Z</time>
      </trkpt>
      <trkpt lat="43.02277" lon="-0.74822">
        <ele>757.2</ele>
        <time>2021-12-29T11:15:37.000Z</time>
      </trkpt>
      <trkpt lat="43.02275" lon="-0.74823">
        <ele>757.4</ele>
        <time>2021-12-29T11:15:38.000Z</time>
      </trkpt>
      <trkpt lat="43.02274" lon="-0.74823">
        <ele>757.6</ele>
        <time>2021-12-29T11:15:39.000Z</time>
      </trkpt>
      <trkpt lat="43.02272" lon="-0.74823">
        <ele>757.8</ele>
        <time>2021-12-29T11:15:40.000Z</time>
      </trkpt>
      <trkpt lat="43.02271" lon="-0.74824">
        <ele>758</ele>
        <time>2021-12-29T11:15:41.000Z</time>
      </trkpt>
      <trkpt lat="43.02269" lon="-0.74824">
        <ele>758.2</ele>
        <time>2021-12-29T11:15:42.000Z</time>
      </trkpt>
      <trkpt lat="43.02268" lon="-0.74824">
        <ele>758.4</ele>
        <time>2021-12-29T11:15:43.000Z</time>
      </trkpt>
      <trkpt lat="43.02266" lon="-0.74824">
        <ele>758.6</ele>
        <time>2021-12-29T11:15:44.000Z</time>
      </trkpt>
      <trkpt lat="43.02265" lon="-0.74824">
        <ele>758.8</ele>
        <time>2021-12-29T11:15:45.000Z</time>
      </trkpt>
      <trkpt lat="43.02263" lon="-0.74824">
        <ele>759</ele>
        <time>2021-12-29T11:15:46.000Z</time>
      </trkpt>
      <trkpt lat="43.02262" lon="-0.74826">
        <ele>759.4</ele>
        <time>2021-12-29T11:15:47.000Z</time>
      </trkpt>
      <trkpt lat="43.0226" lon="-0.74826">
        <ele>759.4</ele>
        <time>2021-12-29T11:15:48.000Z</time>
      </trkpt>
      <trkpt lat="43.02259" lon="-0.74827">
        <ele>759.6</ele>
        <time>2021-12-29T11:15:49.000Z</time>
      </trkpt>
      <trkpt lat="43.02257" lon="-0.74827">
        <ele>759.8</ele>
        <time>2021-12-29T11:15:50.000Z</time>
      </trkpt>
      <trkpt lat="43.02256" lon="-0.74827">
        <ele>760</ele>
        <time>2021-12-29T11:15:51.000Z</time>
      </trkpt>
      <trkpt lat="43.02255" lon="-0.74827">
        <ele>760.2</ele>
        <time>2021-12-29T11:15:52.000Z</time>
      </trkpt>
      <trkpt lat="43.02253" lon="-0.74827">
        <ele>760.4</ele>
        <time>2021-12-29T11:15:53.000Z</time>
      </trkpt>
      <trkpt lat="43.02252" lon="-0.74828">
        <ele>760.6</ele>
        <time>2021-12-29T11:15:54.000Z</time>
      </trkpt>
      <trkpt lat="43.0225" lon="-0.74829">
        <ele>760.8</ele>
        <time>2021-12-29T11:15:55.000Z</time>
      </trkpt>
      <trkpt lat="43.02249" lon="-0.7483">
        <ele>761</ele>
        <time>2021-12-29T11:15:56.000Z</time>
      </trkpt>
      <trkpt lat="43.02248" lon="-0.74831">
        <ele>761.2</ele>
        <time>2021-12-29T11:15:57.000Z</time>
      </trkpt>
      <trkpt lat="43.02246" lon="-0.74832">
        <ele>761.4</ele>
        <time>2021-12-29T11:15:58.000Z</time>
      </trkpt>
      <trkpt lat="43.02244" lon="-0.74832">
        <ele>761.6</ele>
        <time>2021-12-29T11:15:59.000Z</time>
      </trkpt>
      <trkpt lat="43.02243" lon="-0.74832">
        <ele>761.8</ele>
        <time>2021-12-29T11:16:00.000Z</time>
      </trkpt>
      <trkpt lat="43.02241" lon="-0.74833">
        <ele>762.2</ele>
        <time>2021-12-29T11:16:01.000Z</time>
      </trkpt>
      <trkpt lat="43.0224" lon="-0.74834">
        <ele>762.2</ele>
        <time>2021-12-29T11:16:02.000Z</time>
      </trkpt>
      <trkpt lat="43.02239" lon="-0.74835">
        <ele>762.6</ele>
        <time>2021-12-29T11:16:03.000Z</time>
      </trkpt>
      <trkpt lat="43.02237" lon="-0.74836">
        <ele>762.8</ele>
        <time>2021-12-29T11:16:04.000Z</time>
      </trkpt>
      <trkpt lat="43.02236" lon="-0.74836">
        <ele>763</ele>
        <time>2021-12-29T11:16:05.000Z</time>
      </trkpt>
      <trkpt lat="43.02234" lon="-0.74837">
        <ele>763</ele>
        <time>2021-12-29T11:16:06.000Z</time>
      </trkpt>
      <trkpt lat="43.02233" lon="-0.74838">
        <ele>763.4</ele>
        <time>2021-12-29T11:16:07.000Z</time>
      </trkpt>
      <trkpt lat="43.02231" lon="-0.74839">
        <ele>763.6</ele>
        <time>2021-12-29T11:16:08.000Z</time>
      </trkpt>
      <trkpt lat="43.0223" lon="-0.74839">
        <ele>763.6</ele>
        <time>2021-12-29T11:16:09.000Z</time>
      </trkpt>
      <trkpt lat="43.02228" lon="-0.7484">
        <ele>763.8</ele>
        <time>2021-12-29T11:16:10.000Z</time>
      </trkpt>
      <trkpt lat="43.02227" lon="-0.7484">
        <ele>764</ele>
        <time>2021-12-29T11:16:11.000Z</time>
      </trkpt>
      <trkpt lat="43.02225" lon="-0.74841">
        <ele>764.2</ele>
        <time>2021-12-29T11:16:12.000Z</time>
      </trkpt>
      <trkpt lat="43.02224" lon="-0.74842">
        <ele>764.4</ele>
        <time>2021-12-29T11:16:13.000Z</time>
      </trkpt>
      <trkpt lat="43.02222" lon="-0.74842">
        <ele>764.6</ele>
        <time>2021-12-29T11:16:14.000Z</time>
      </trkpt>
      <trkpt lat="43.02221" lon="-0.74843">
        <ele>764.6</ele>
        <time>2021-12-29T11:16:15.000Z</time>
      </trkpt>
      <trkpt lat="43.0222" lon="-0.74844">
        <ele>764.8</ele>
        <time>2021-12-29T11:16:16.000Z</time>
      </trkpt>
      <trkpt lat="43.02218" lon="-0.74845">
        <ele>765</ele>
        <time>2021-12-29T11:16:17.000Z</time>
      </trkpt>
      <trkpt lat="43.02217" lon="-0.74846">
        <ele>765</ele>
        <time>2021-12-29T11:16:18.000Z</time>
      </trkpt>
      <trkpt lat="43.02215" lon="-0.74846">
        <ele>765.2</ele>
        <time>2021-12-29T11:16:19.000Z</time>
      </trkpt>
      <trkpt lat="43.02214" lon="-0.74847">
        <ele>765.4</ele>
        <time>2021-12-29T11:16:20.000Z</time>
      </trkpt>
      <trkpt lat="43.02212" lon="-0.74848">
        <ele>765.6</ele>
        <time>2021-12-29T11:16:21.000Z</time>
      </trkpt>
      <trkpt lat="43.02211" lon="-0.74849">
        <ele>765.8</ele>
        <time>2021-12-29T11:16:22.000Z</time>
      </trkpt>
      <trkpt lat="43.02209" lon="-0.74849">
        <ele>766</ele>
        <time>2021-12-29T11:16:23.000Z</time>
      </trkpt>
      <trkpt lat="43.02207" lon="-0.7485">
        <ele>766</ele>
        <time>2021-12-29T11:16:24.000Z</time>
      </trkpt>
      <trkpt lat="43.02205" lon="-0.74851">
        <ele>766.2</ele>
        <time>2021-12-29T11:16:25.000Z</time>
      </trkpt>
      <trkpt lat="43.02204" lon="-0.74852">
        <ele>766.4</ele>
        <time>2021-12-29T11:16:26.000Z</time>
      </trkpt>
      <trkpt lat="43.02202" lon="-0.74852">
        <ele>766.6</ele>
        <time>2021-12-29T11:16:27.000Z</time>
      </trkpt>
      <trkpt lat="43.022" lon="-0.74853">
        <ele>766.6</ele>
        <time>2021-12-29T11:16:28.000Z</time>
      </trkpt>
      <trkpt lat="43.02198" lon="-0.74853">
        <ele>766.8</ele>
        <time>2021-12-29T11:16:29.000Z</time>
      </trkpt>
      <trkpt lat="43.02196" lon="-0.74854">
        <ele>767</ele>
        <time>2021-12-29T11:16:30.000Z</time>
      </trkpt>
      <trkpt lat="43.02195" lon="-0.74855">
        <ele>767.2</ele>
        <time>2021-12-29T11:16:31.000Z</time>
      </trkpt>
      <trkpt lat="43.02193" lon="-0.74855">
        <ele>767.2</ele>
        <time>2021-12-29T11:16:32.000Z</time>
      </trkpt>
      <trkpt lat="43.02191" lon="-0.74856">
        <ele>767.4</ele>
        <time>2021-12-29T11:16:33.000Z</time>
      </trkpt>
      <trkpt lat="43.02189" lon="-0.74857">
        <ele>767.6</ele>
        <time>2021-12-29T11:16:34.000Z</time>
      </trkpt>
      <trkpt lat="43.02188" lon="-0.74857">
        <ele>767.8</ele>
        <time>2021-12-29T11:16:35.000Z</time>
      </trkpt>
      <trkpt lat="43.02186" lon="-0.74858">
        <ele>767.8</ele>
        <time>2021-12-29T11:16:36.000Z</time>
      </trkpt>
      <trkpt lat="43.02184" lon="-0.74858">
        <ele>768</ele>
        <time>2021-12-29T11:16:37.000Z</time>
      </trkpt>
      <trkpt lat="43.02182" lon="-0.74859">
        <ele>768.4</ele>
        <time>2021-12-29T11:16:38.000Z</time>
      </trkpt>
      <trkpt lat="43.0218" lon="-0.74859">
        <ele>768.6</ele>
        <time>2021-12-29T11:16:39.000Z</time>
      </trkpt>
      <trkpt lat="43.02178" lon="-0.74859">
        <ele>768.6</ele>
        <time>2021-12-29T11:16:40.000Z</time>
      </trkpt>
      <trkpt lat="43.02176" lon="-0.74859">
        <ele>768.8</ele>
        <time>2021-12-29T11:16:41.000Z</time>
      </trkpt>
      <trkpt lat="43.02174" lon="-0.7486">
        <ele>769</ele>
        <time>2021-12-29T11:16:42.000Z</time>
      </trkpt>
      <trkpt lat="43.02173" lon="-0.7486">
        <ele>769.2</ele>
        <time>2021-12-29T11:16:43.000Z</time>
      </trkpt>
      <trkpt lat="43.02171" lon="-0.7486">
        <ele>769.2</ele>
        <time>2021-12-29T11:16:44.000Z</time>
      </trkpt>
      <trkpt lat="43.02169" lon="-0.7486">
        <ele>769.8</ele>
        <time>2021-12-29T11:16:45.000Z</time>
      </trkpt>
      <trkpt lat="43.02167" lon="-0.7486">
        <ele>769.8</ele>
        <time>2021-12-29T11:16:46.000Z</time>
      </trkpt>
      <trkpt lat="43.02165" lon="-0.7486">
        <ele>770</ele>
        <time>2021-12-29T11:16:47.000Z</time>
      </trkpt>
      <trkpt lat="43.02163" lon="-0.7486">
        <ele>770.2</ele>
        <time>2021-12-29T11:16:48.000Z</time>
      </trkpt>
      <trkpt lat="43.02162" lon="-0.74861">
        <ele>770.4</ele>
        <time>2021-12-29T11:16:49.000Z</time>
      </trkpt>
      <trkpt lat="43.0216" lon="-0.74861">
        <ele>770.6</ele>
        <time>2021-12-29T11:16:50.000Z</time>
      </trkpt>
      <trkpt lat="43.02158" lon="-0.74861">
        <ele>770.8</ele>
        <time>2021-12-29T11:16:51.000Z</time>
      </trkpt>
      <trkpt lat="43.02156" lon="-0.74861">
        <ele>771</ele>
        <time>2021-12-29T11:16:52.000Z</time>
      </trkpt>
      <trkpt lat="43.02155" lon="-0.74861">
        <ele>771.2</ele>
        <time>2021-12-29T11:16:53.000Z</time>
      </trkpt>
      <trkpt lat="43.02153" lon="-0.74862">
        <ele>771.4</ele>
        <time>2021-12-29T11:16:54.000Z</time>
      </trkpt>
      <trkpt lat="43.02151" lon="-0.74862">
        <ele>771.6</ele>
        <time>2021-12-29T11:16:55.000Z</time>
      </trkpt>
      <trkpt lat="43.02149" lon="-0.74862">
        <ele>771.8</ele>
        <time>2021-12-29T11:16:56.000Z</time>
      </trkpt>
      <trkpt lat="43.02147" lon="-0.74862">
        <ele>772.2</ele>
        <time>2021-12-29T11:16:57.000Z</time>
      </trkpt>
      <trkpt lat="43.02146" lon="-0.74862">
        <ele>772.4</ele>
        <time>2021-12-29T11:16:58.000Z</time>
      </trkpt>
      <trkpt lat="43.02144" lon="-0.74862">
        <ele>772.6</ele>
        <time>2021-12-29T11:16:59.000Z</time>
      </trkpt>
      <trkpt lat="43.02142" lon="-0.74862">
        <ele>773</ele>
        <time>2021-12-29T11:17:00.000Z</time>
      </trkpt>
      <trkpt lat="43.0214" lon="-0.74862">
        <ele>773.2</ele>
        <time>2021-12-29T11:17:01.000Z</time>
      </trkpt>
      <trkpt lat="43.02139" lon="-0.74862">
        <ele>773.4</ele>
        <time>2021-12-29T11:17:02.000Z</time>
      </trkpt>
      <trkpt lat="43.02137" lon="-0.74862">
        <ele>773.6</ele>
        <time>2021-12-29T11:17:03.000Z</time>
      </trkpt>
      <trkpt lat="43.02135" lon="-0.74862">
        <ele>774</ele>
        <time>2021-12-29T11:17:04.000Z</time>
      </trkpt>
      <trkpt lat="43.02134" lon="-0.74862">
        <ele>774.2</ele>
        <time>2021-12-29T11:17:05.000Z</time>
      </trkpt>
      <trkpt lat="43.02132" lon="-0.74863">
        <ele>774.4</ele>
        <time>2021-12-29T11:17:06.000Z</time>
      </trkpt>
      <trkpt lat="43.0213" lon="-0.74863">
        <ele>774.6</ele>
        <time>2021-12-29T11:17:07.000Z</time>
      </trkpt>
      <trkpt lat="43.02129" lon="-0.74863">
        <ele>774.8</ele>
        <time>2021-12-29T11:17:08.000Z</time>
      </trkpt>
      <trkpt lat="43.02127" lon="-0.74863">
        <ele>775</ele>
        <time>2021-12-29T11:17:09.000Z</time>
      </trkpt>
      <trkpt lat="43.02125" lon="-0.74863">
        <ele>775.2</ele>
        <time>2021-12-29T11:17:10.000Z</time>
      </trkpt>
      <trkpt lat="43.02123" lon="-0.74863">
        <ele>775.4</ele>
        <time>2021-12-29T11:17:11.000Z</time>
      </trkpt>
      <trkpt lat="43.02122" lon="-0.74864">
        <ele>775.6</ele>
        <time>2021-12-29T11:17:12.000Z</time>
      </trkpt>
      <trkpt lat="43.0212" lon="-0.74864">
        <ele>775.8</ele>
        <time>2021-12-29T11:17:13.000Z</time>
      </trkpt>
      <trkpt lat="43.02118" lon="-0.74865">
        <ele>776</ele>
        <time>2021-12-29T11:17:14.000Z</time>
      </trkpt>
      <trkpt lat="43.02117" lon="-0.74866">
        <ele>776.2</ele>
        <time>2021-12-29T11:17:15.000Z</time>
      </trkpt>
      <trkpt lat="43.02116" lon="-0.74866">
        <ele>776.6</ele>
        <time>2021-12-29T11:17:16.000Z</time>
      </trkpt>
      <trkpt lat="43.02114" lon="-0.74867">
        <ele>776.8</ele>
        <time>2021-12-29T11:17:17.000Z</time>
      </trkpt>
      <trkpt lat="43.02113" lon="-0.74867">
        <ele>776.8</ele>
        <time>2021-12-29T11:17:18.000Z</time>
      </trkpt>
      <trkpt lat="43.02112" lon="-0.74868">
        <ele>777</ele>
        <time>2021-12-29T11:17:19.000Z</time>
      </trkpt>
      <trkpt lat="43.02111" lon="-0.74869">
        <ele>777.4</ele>
        <time>2021-12-29T11:17:20.000Z</time>
      </trkpt>
      <trkpt lat="43.0211" lon="-0.7487">
        <ele>777.6</ele>
        <time>2021-12-29T11:17:21.000Z</time>
      </trkpt>
      <trkpt lat="43.02108" lon="-0.7487">
        <ele>777.8</ele>
        <time>2021-12-29T11:17:22.000Z</time>
      </trkpt>
      <trkpt lat="43.02107" lon="-0.74871">
        <ele>778</ele>
        <time>2021-12-29T11:17:23.000Z</time>
      </trkpt>
      <trkpt lat="43.02105" lon="-0.74871">
        <ele>778.2</ele>
        <time>2021-12-29T11:17:24.000Z</time>
      </trkpt>
      <trkpt lat="43.02104" lon="-0.74871">
        <ele>778.4</ele>
        <time>2021-12-29T11:17:25.000Z</time>
      </trkpt>
      <trkpt lat="43.02103" lon="-0.74872">
        <ele>778.6</ele>
        <time>2021-12-29T11:17:26.000Z</time>
      </trkpt>
      <trkpt lat="43.02101" lon="-0.74872">
        <ele>778.8</ele>
        <time>2021-12-29T11:17:27.000Z</time>
      </trkpt>
      <trkpt lat="43.021" lon="-0.74872">
        <ele>779</ele>
        <time>2021-12-29T11:17:28.000Z</time>
      </trkpt>
      <trkpt lat="43.02098" lon="-0.74872">
        <ele>779.2</ele>
        <time>2021-12-29T11:17:29.000Z</time>
      </trkpt>
      <trkpt lat="43.02097" lon="-0.74872">
        <ele>779.4</ele>
        <time>2021-12-29T11:17:30.000Z</time>
      </trkpt>
      <trkpt lat="43.02096" lon="-0.74872">
        <ele>779.6</ele>
        <time>2021-12-29T11:17:31.000Z</time>
      </trkpt>
      <trkpt lat="43.02094" lon="-0.74872">
        <ele>779.8</ele>
        <time>2021-12-29T11:17:32.000Z</time>
      </trkpt>
      <trkpt lat="43.02093" lon="-0.74873">
        <ele>780</ele>
        <time>2021-12-29T11:17:33.000Z</time>
      </trkpt>
      <trkpt lat="43.02092" lon="-0.74873">
        <ele>780.2</ele>
        <time>2021-12-29T11:17:34.000Z</time>
      </trkpt>
      <trkpt lat="43.02091" lon="-0.74873">
        <ele>780.4</ele>
        <time>2021-12-29T11:17:35.000Z</time>
      </trkpt>
      <trkpt lat="43.02089" lon="-0.74873">
        <ele>780.6</ele>
        <time>2021-12-29T11:17:36.000Z</time>
      </trkpt>
      <trkpt lat="43.02088" lon="-0.74872">
        <ele>780.8</ele>
        <time>2021-12-29T11:17:37.000Z</time>
      </trkpt>
      <trkpt lat="43.02087" lon="-0.74873">
        <ele>780.8</ele>
        <time>2021-12-29T11:17:38.000Z</time>
      </trkpt>
      <trkpt lat="43.02085" lon="-0.74873">
        <ele>781.2</ele>
        <time>2021-12-29T11:17:39.000Z</time>
      </trkpt>
      <trkpt lat="43.02084" lon="-0.74873">
        <ele>781.4</ele>
        <time>2021-12-29T11:17:40.000Z</time>
      </trkpt>
      <trkpt lat="43.02083" lon="-0.74873">
        <ele>781.6</ele>
        <time>2021-12-29T11:17:41.000Z</time>
      </trkpt>
      <trkpt lat="43.02081" lon="-0.74873">
        <ele>781.8</ele>
        <time>2021-12-29T11:17:42.000Z</time>
      </trkpt>
      <trkpt lat="43.0208" lon="-0.74873">
        <ele>782</ele>
        <time>2021-12-29T11:17:43.000Z</time>
      </trkpt>
      <trkpt lat="43.02079" lon="-0.74873">
        <ele>782.2</ele>
        <time>2021-12-29T11:17:44.000Z</time>
      </trkpt>
      <trkpt lat="43.02078" lon="-0.74872">
        <ele>782.4</ele>
        <time>2021-12-29T11:17:45.000Z</time>
      </trkpt>
      <trkpt lat="43.02076" lon="-0.74872">
        <ele>782.4</ele>
        <time>2021-12-29T11:17:46.000Z</time>
      </trkpt>
      <trkpt lat="43.02075" lon="-0.74872">
        <ele>782.8</ele>
        <time>2021-12-29T11:17:47.000Z</time>
      </trkpt>
      <trkpt lat="43.02074" lon="-0.74872">
        <ele>782.8</ele>
        <time>2021-12-29T11:17:48.000Z</time>
      </trkpt>
      <trkpt lat="43.02072" lon="-0.74872">
        <ele>783</ele>
        <time>2021-12-29T11:17:49.000Z</time>
      </trkpt>
      <trkpt lat="43.02071" lon="-0.74872">
        <ele>783.2</ele>
        <time>2021-12-29T11:17:50.000Z</time>
      </trkpt>
      <trkpt lat="43.0207" lon="-0.74871">
        <ele>783.4</ele>
        <time>2021-12-29T11:17:51.000Z</time>
      </trkpt>
      <trkpt lat="43.02068" lon="-0.74871">
        <ele>783.6</ele>
        <time>2021-12-29T11:17:52.000Z</time>
      </trkpt>
      <trkpt lat="43.02067" lon="-0.74871">
        <ele>783.8</ele>
        <time>2021-12-29T11:17:53.000Z</time>
      </trkpt>
      <trkpt lat="43.02066" lon="-0.7487">
        <ele>784</ele>
        <time>2021-12-29T11:17:54.000Z</time>
      </trkpt>
      <trkpt lat="43.02065" lon="-0.7487">
        <ele>784.2</ele>
        <time>2021-12-29T11:17:55.000Z</time>
      </trkpt>
      <trkpt lat="43.02063" lon="-0.74869">
        <ele>784.4</ele>
        <time>2021-12-29T11:17:56.000Z</time>
      </trkpt>
      <trkpt lat="43.02062" lon="-0.74868">
        <ele>784.6</ele>
        <time>2021-12-29T11:17:57.000Z</time>
      </trkpt>
      <trkpt lat="43.02062" lon="-0.74866">
        <ele>784.8</ele>
        <time>2021-12-29T11:17:58.000Z</time>
      </trkpt>
      <trkpt lat="43.02061" lon="-0.74865">
        <ele>784.8</ele>
        <time>2021-12-29T11:17:59.000Z</time>
      </trkpt>
      <trkpt lat="43.02061" lon="-0.74865">
        <ele>785</ele>
        <time>2021-12-29T11:18:00.000Z</time>
      </trkpt>
      <trkpt lat="43.0206" lon="-0.74864">
        <ele>785.2</ele>
        <time>2021-12-29T11:18:01.000Z</time>
      </trkpt>
      <trkpt lat="43.02059" lon="-0.74864">
        <ele>785.4</ele>
        <time>2021-12-29T11:18:02.000Z</time>
      </trkpt>
      <trkpt lat="43.02058" lon="-0.74864">
        <ele>785.4</ele>
        <time>2021-12-29T11:18:03.000Z</time>
      </trkpt>
      <trkpt lat="43.02057" lon="-0.74863">
        <ele>785.6</ele>
        <time>2021-12-29T11:18:04.000Z</time>
      </trkpt>
      <trkpt lat="43.02056" lon="-0.74863">
        <ele>785.8</ele>
        <time>2021-12-29T11:18:05.000Z</time>
      </trkpt>
      <trkpt lat="43.02055" lon="-0.74862">
        <ele>785.8</ele>
        <time>2021-12-29T11:18:06.000Z</time>
      </trkpt>
      <trkpt lat="43.02054" lon="-0.74861">
        <ele>786</ele>
        <time>2021-12-29T11:18:07.000Z</time>
      </trkpt>
      <trkpt lat="43.02053" lon="-0.74861">
        <ele>786.2</ele>
        <time>2021-12-29T11:18:08.000Z</time>
      </trkpt>
      <trkpt lat="43.02052" lon="-0.7486">
        <ele>786.4</ele>
        <time>2021-12-29T11:18:09.000Z</time>
      </trkpt>
      <trkpt lat="43.0205" lon="-0.74859">
        <ele>786.6</ele>
        <time>2021-12-29T11:18:10.000Z</time>
      </trkpt>
      <trkpt lat="43.02049" lon="-0.74859">
        <ele>786.8</ele>
        <time>2021-12-29T11:18:11.000Z</time>
      </trkpt>
      <trkpt lat="43.02048" lon="-0.74858">
        <ele>787</ele>
        <time>2021-12-29T11:18:12.000Z</time>
      </trkpt>
      <trkpt lat="43.02047" lon="-0.74857">
        <ele>787.2</ele>
        <time>2021-12-29T11:18:13.000Z</time>
      </trkpt>
      <trkpt lat="43.02045" lon="-0.74855">
        <ele>787.4</ele>
        <time>2021-12-29T11:18:14.000Z</time>
      </trkpt>
      <trkpt lat="43.02044" lon="-0.74854">
        <ele>787.6</ele>
        <time>2021-12-29T11:18:15.000Z</time>
      </trkpt>
      <trkpt lat="43.02043" lon="-0.74853">
        <ele>787.8</ele>
        <time>2021-12-29T11:18:16.000Z</time>
      </trkpt>
      <trkpt lat="43.02042" lon="-0.74852">
        <ele>788</ele>
        <time>2021-12-29T11:18:17.000Z</time>
      </trkpt>
      <trkpt lat="43.02041" lon="-0.74851">
        <ele>788.2</ele>
        <time>2021-12-29T11:18:18.000Z</time>
      </trkpt>
      <trkpt lat="43.02039" lon="-0.7485">
        <ele>788.4</ele>
        <time>2021-12-29T11:18:19.000Z</time>
      </trkpt>
      <trkpt lat="43.02038" lon="-0.74849">
        <ele>788.8</ele>
        <time>2021-12-29T11:18:20.000Z</time>
      </trkpt>
      <trkpt lat="43.02037" lon="-0.74848">
        <ele>789</ele>
        <time>2021-12-29T11:18:21.000Z</time>
      </trkpt>
      <trkpt lat="43.02036" lon="-0.74846">
        <ele>789.2</ele>
        <time>2021-12-29T11:18:22.000Z</time>
      </trkpt>
      <trkpt lat="43.02035" lon="-0.74845">
        <ele>789.4</ele>
        <time>2021-12-29T11:18:23.000Z</time>
      </trkpt>
      <trkpt lat="43.02034" lon="-0.74844">
        <ele>789.6</ele>
        <time>2021-12-29T11:18:24.000Z</time>
      </trkpt>
      <trkpt lat="43.02033" lon="-0.74843">
        <ele>789.8</ele>
        <time>2021-12-29T11:18:25.000Z</time>
      </trkpt>
      <trkpt lat="43.02031" lon="-0.74843">
        <ele>790</ele>
        <time>2021-12-29T11:18:26.000Z</time>
      </trkpt>
      <trkpt lat="43.0203" lon="-0.74841">
        <ele>790.2</ele>
        <time>2021-12-29T11:18:27.000Z</time>
      </trkpt>
      <trkpt lat="43.02029" lon="-0.7484">
        <ele>790.4</ele>
        <time>2021-12-29T11:18:28.000Z</time>
      </trkpt>
      <trkpt lat="43.02028" lon="-0.74839">
        <ele>790.6</ele>
        <time>2021-12-29T11:18:29.000Z</time>
      </trkpt>
      <trkpt lat="43.02027" lon="-0.74837">
        <ele>791</ele>
        <time>2021-12-29T11:18:30.000Z</time>
      </trkpt>
      <trkpt lat="43.02026" lon="-0.74836">
        <ele>791.2</ele>
        <time>2021-12-29T11:18:31.000Z</time>
      </trkpt>
      <trkpt lat="43.02025" lon="-0.74834">
        <ele>791.4</ele>
        <time>2021-12-29T11:18:32.000Z</time>
      </trkpt>
      <trkpt lat="43.02024" lon="-0.74833">
        <ele>791.6</ele>
        <time>2021-12-29T11:18:33.000Z</time>
      </trkpt>
      <trkpt lat="43.02023" lon="-0.74832">
        <ele>791.8</ele>
        <time>2021-12-29T11:18:34.000Z</time>
      </trkpt>
      <trkpt lat="43.02022" lon="-0.7483">
        <ele>792</ele>
        <time>2021-12-29T11:18:35.000Z</time>
      </trkpt>
      <trkpt lat="43.02021" lon="-0.74828">
        <ele>792.2</ele>
        <time>2021-12-29T11:18:36.000Z</time>
      </trkpt>
      <trkpt lat="43.0202" lon="-0.74826">
        <ele>792.4</ele>
        <time>2021-12-29T11:18:37.000Z</time>
      </trkpt>
      <trkpt lat="43.02019" lon="-0.74824">
        <ele>792.6</ele>
        <time>2021-12-29T11:18:38.000Z</time>
      </trkpt>
      <trkpt lat="43.02018" lon="-0.74823">
        <ele>792.8</ele>
        <time>2021-12-29T11:18:39.000Z</time>
      </trkpt>
      <trkpt lat="43.02018" lon="-0.74821">
        <ele>793</ele>
        <time>2021-12-29T11:18:40.000Z</time>
      </trkpt>
      <trkpt lat="43.02017" lon="-0.74819">
        <ele>793.2</ele>
        <time>2021-12-29T11:18:41.000Z</time>
      </trkpt>
      <trkpt lat="43.02016" lon="-0.74817">
        <ele>793.4</ele>
        <time>2021-12-29T11:18:42.000Z</time>
      </trkpt>
      <trkpt lat="43.02015" lon="-0.74815">
        <ele>793.6</ele>
        <time>2021-12-29T11:18:43.000Z</time>
      </trkpt>
      <trkpt lat="43.02014" lon="-0.74814">
        <ele>793.8</ele>
        <time>2021-12-29T11:18:44.000Z</time>
      </trkpt>
      <trkpt lat="43.02013" lon="-0.74812">
        <ele>794</ele>
        <time>2021-12-29T11:18:45.000Z</time>
      </trkpt>
      <trkpt lat="43.02012" lon="-0.7481">
        <ele>794.2</ele>
        <time>2021-12-29T11:18:46.000Z</time>
      </trkpt>
      <trkpt lat="43.02011" lon="-0.74808">
        <ele>794.4</ele>
        <time>2021-12-29T11:18:47.000Z</time>
      </trkpt>
      <trkpt lat="43.0201" lon="-0.74806">
        <ele>794.6</ele>
        <time>2021-12-29T11:18:48.000Z</time>
      </trkpt>
      <trkpt lat="43.02009" lon="-0.74804">
        <ele>794.6</ele>
        <time>2021-12-29T11:18:49.000Z</time>
      </trkpt>
      <trkpt lat="43.02008" lon="-0.74802">
        <ele>794.8</ele>
        <time>2021-12-29T11:18:50.000Z</time>
      </trkpt>
      <trkpt lat="43.02007" lon="-0.74801">
        <ele>795</ele>
        <time>2021-12-29T11:18:51.000Z</time>
      </trkpt>
      <trkpt lat="43.02006" lon="-0.74799">
        <ele>795.2</ele>
        <time>2021-12-29T11:18:52.000Z</time>
      </trkpt>
      <trkpt lat="43.02004" lon="-0.74798">
        <ele>795.4</ele>
        <time>2021-12-29T11:18:53.000Z</time>
      </trkpt>
      <trkpt lat="43.02003" lon="-0.74797">
        <ele>795.4</ele>
        <time>2021-12-29T11:18:54.000Z</time>
      </trkpt>
      <trkpt lat="43.02002" lon="-0.74796">
        <ele>795.8</ele>
        <time>2021-12-29T11:18:55.000Z</time>
      </trkpt>
      <trkpt lat="43.02" lon="-0.74795">
        <ele>796.2</ele>
        <time>2021-12-29T11:18:56.000Z</time>
      </trkpt>
      <trkpt lat="43.01999" lon="-0.74794">
        <ele>796.2</ele>
        <time>2021-12-29T11:18:57.000Z</time>
      </trkpt>
      <trkpt lat="43.01998" lon="-0.74793">
        <ele>796.4</ele>
        <time>2021-12-29T11:18:58.000Z</time>
      </trkpt>
      <trkpt lat="43.01996" lon="-0.74792">
        <ele>796.6</ele>
        <time>2021-12-29T11:18:59.000Z</time>
      </trkpt>
      <trkpt lat="43.01994" lon="-0.74792">
        <ele>796.8</ele>
        <time>2021-12-29T11:19:00.000Z</time>
      </trkpt>
      <trkpt lat="43.01993" lon="-0.74792">
        <ele>797</ele>
        <time>2021-12-29T11:19:01.000Z</time>
      </trkpt>
      <trkpt lat="43.01991" lon="-0.74791">
        <ele>797.4</ele>
        <time>2021-12-29T11:19:02.000Z</time>
      </trkpt>
      <trkpt lat="43.0199" lon="-0.74791">
        <ele>797.6</ele>
        <time>2021-12-29T11:19:03.000Z</time>
      </trkpt>
      <trkpt lat="43.01988" lon="-0.7479">
        <ele>797.8</ele>
        <time>2021-12-29T11:19:04.000Z</time>
      </trkpt>
      <trkpt lat="43.01986" lon="-0.7479">
        <ele>798</ele>
        <time>2021-12-29T11:19:05.000Z</time>
      </trkpt>
      <trkpt lat="43.01985" lon="-0.7479">
        <ele>798.2</ele>
        <time>2021-12-29T11:19:06.000Z</time>
      </trkpt>
      <trkpt lat="43.01983" lon="-0.7479">
        <ele>798.4</ele>
        <time>2021-12-29T11:19:07.000Z</time>
      </trkpt>
      <trkpt lat="43.01981" lon="-0.7479">
        <ele>798.6</ele>
        <time>2021-12-29T11:19:08.000Z</time>
      </trkpt>
      <trkpt lat="43.01979" lon="-0.7479">
        <ele>798.8</ele>
        <time>2021-12-29T11:19:09.000Z</time>
      </trkpt>
      <trkpt lat="43.01978" lon="-0.7479">
        <ele>799</ele>
        <time>2021-12-29T11:19:10.000Z</time>
      </trkpt>
      <trkpt lat="43.01976" lon="-0.7479">
        <ele>799.2</ele>
        <time>2021-12-29T11:19:11.000Z</time>
      </trkpt>
      <trkpt lat="43.01974" lon="-0.7479">
        <ele>799.4</ele>
        <time>2021-12-29T11:19:12.000Z</time>
      </trkpt>
      <trkpt lat="43.01973" lon="-0.7479">
        <ele>799.6</ele>
        <time>2021-12-29T11:19:13.000Z</time>
      </trkpt>
      <trkpt lat="43.01971" lon="-0.74791">
        <ele>799.8</ele>
        <time>2021-12-29T11:19:14.000Z</time>
      </trkpt>
      <trkpt lat="43.0197" lon="-0.74791">
        <ele>800.4</ele>
        <time>2021-12-29T11:19:15.000Z</time>
      </trkpt>
      <trkpt lat="43.01968" lon="-0.74791">
        <ele>800.4</ele>
        <time>2021-12-29T11:19:16.000Z</time>
      </trkpt>
      <trkpt lat="43.01966" lon="-0.74791">
        <ele>800.6</ele>
        <time>2021-12-29T11:19:17.000Z</time>
      </trkpt>
      <trkpt lat="43.01965" lon="-0.74791">
        <ele>800.8</ele>
        <time>2021-12-29T11:19:18.000Z</time>
      </trkpt>
      <trkpt lat="43.01963" lon="-0.74791">
        <ele>801</ele>
        <time>2021-12-29T11:19:19.000Z</time>
      </trkpt>
      <trkpt lat="43.01961" lon="-0.74791">
        <ele>801.2</ele>
        <time>2021-12-29T11:19:20.000Z</time>
      </trkpt>
      <trkpt lat="43.0196" lon="-0.74791">
        <ele>801.4</ele>
        <time>2021-12-29T11:19:21.000Z</time>
      </trkpt>
      <trkpt lat="43.01958" lon="-0.74791">
        <ele>801.6</ele>
        <time>2021-12-29T11:19:22.000Z</time>
      </trkpt>
      <trkpt lat="43.01957" lon="-0.74791">
        <ele>801.8</ele>
        <time>2021-12-29T11:19:23.000Z</time>
      </trkpt>
      <trkpt lat="43.01955" lon="-0.74792">
        <ele>802.2</ele>
        <time>2021-12-29T11:19:24.000Z</time>
      </trkpt>
      <trkpt lat="43.01954" lon="-0.74792">
        <ele>802.4</ele>
        <time>2021-12-29T11:19:25.000Z</time>
      </trkpt>
      <trkpt lat="43.01952" lon="-0.74792">
        <ele>802.6</ele>
        <time>2021-12-29T11:19:26.000Z</time>
      </trkpt>
      <trkpt lat="43.0195" lon="-0.74792">
        <ele>802.8</ele>
        <time>2021-12-29T11:19:27.000Z</time>
      </trkpt>
      <trkpt lat="43.01948" lon="-0.74791">
        <ele>803</ele>
        <time>2021-12-29T11:19:28.000Z</time>
      </trkpt>
      <trkpt lat="43.01947" lon="-0.74791">
        <ele>803.2</ele>
        <time>2021-12-29T11:19:29.000Z</time>
      </trkpt>
      <trkpt lat="43.01945" lon="-0.74791">
        <ele>803.4</ele>
        <time>2021-12-29T11:19:30.000Z</time>
      </trkpt>
      <trkpt lat="43.01943" lon="-0.74791">
        <ele>803.6</ele>
        <time>2021-12-29T11:19:31.000Z</time>
      </trkpt>
      <trkpt lat="43.01942" lon="-0.74791">
        <ele>803.8</ele>
        <time>2021-12-29T11:19:32.000Z</time>
      </trkpt>
      <trkpt lat="43.0194" lon="-0.7479">
        <ele>804</ele>
        <time>2021-12-29T11:19:33.000Z</time>
      </trkpt>
      <trkpt lat="43.01939" lon="-0.74789">
        <ele>804.2</ele>
        <time>2021-12-29T11:19:34.000Z</time>
      </trkpt>
      <trkpt lat="43.01937" lon="-0.74788">
        <ele>804.4</ele>
        <time>2021-12-29T11:19:35.000Z</time>
      </trkpt>
      <trkpt lat="43.01936" lon="-0.74787">
        <ele>804.6</ele>
        <time>2021-12-29T11:19:36.000Z</time>
      </trkpt>
      <trkpt lat="43.01935" lon="-0.74786">
        <ele>804.8</ele>
        <time>2021-12-29T11:19:37.000Z</time>
      </trkpt>
      <trkpt lat="43.01933" lon="-0.74785">
        <ele>805</ele>
        <time>2021-12-29T11:19:38.000Z</time>
      </trkpt>
      <trkpt lat="43.01932" lon="-0.74784">
        <ele>805.2</ele>
        <time>2021-12-29T11:19:39.000Z</time>
      </trkpt>
      <trkpt lat="43.01931" lon="-0.74783">
        <ele>805.4</ele>
        <time>2021-12-29T11:19:40.000Z</time>
      </trkpt>
      <trkpt lat="43.0193" lon="-0.74781">
        <ele>805.6</ele>
        <time>2021-12-29T11:19:41.000Z</time>
      </trkpt>
      <trkpt lat="43.01928" lon="-0.74779">
        <ele>805.6</ele>
        <time>2021-12-29T11:19:42.000Z</time>
      </trkpt>
      <trkpt lat="43.01927" lon="-0.74778">
        <ele>805.8</ele>
        <time>2021-12-29T11:19:43.000Z</time>
      </trkpt>
      <trkpt lat="43.01926" lon="-0.74776">
        <ele>806</ele>
        <time>2021-12-29T11:19:44.000Z</time>
      </trkpt>
      <trkpt lat="43.01925" lon="-0.74775">
        <ele>806.2</ele>
        <time>2021-12-29T11:19:45.000Z</time>
      </trkpt>
      <trkpt lat="43.01923" lon="-0.74774">
        <ele>806.4</ele>
        <time>2021-12-29T11:19:46.000Z</time>
      </trkpt>
      <trkpt lat="43.01922" lon="-0.74773">
        <ele>806.6</ele>
        <time>2021-12-29T11:19:47.000Z</time>
      </trkpt>
      <trkpt lat="43.01921" lon="-0.74771">
        <ele>806.8</ele>
        <time>2021-12-29T11:19:48.000Z</time>
      </trkpt>
      <trkpt lat="43.0192" lon="-0.7477">
        <ele>807</ele>
        <time>2021-12-29T11:19:49.000Z</time>
      </trkpt>
      <trkpt lat="43.01918" lon="-0.74769">
        <ele>807.2</ele>
        <time>2021-12-29T11:19:50.000Z</time>
      </trkpt>
      <trkpt lat="43.01917" lon="-0.74767">
        <ele>807.4</ele>
        <time>2021-12-29T11:19:51.000Z</time>
      </trkpt>
      <trkpt lat="43.01916" lon="-0.74766">
        <ele>807.6</ele>
        <time>2021-12-29T11:19:52.000Z</time>
      </trkpt>
      <trkpt lat="43.01915" lon="-0.74764">
        <ele>807.8</ele>
        <time>2021-12-29T11:19:53.000Z</time>
      </trkpt>
      <trkpt lat="43.01914" lon="-0.74763">
        <ele>808</ele>
        <time>2021-12-29T11:19:54.000Z</time>
      </trkpt>
      <trkpt lat="43.01912" lon="-0.74762">
        <ele>808.2</ele>
        <time>2021-12-29T11:19:55.000Z</time>
      </trkpt>
      <trkpt lat="43.01911" lon="-0.7476">
        <ele>808.4</ele>
        <time>2021-12-29T11:19:56.000Z</time>
      </trkpt>
      <trkpt lat="43.0191" lon="-0.74759">
        <ele>808.6</ele>
        <time>2021-12-29T11:19:57.000Z</time>
      </trkpt>
      <trkpt lat="43.01908" lon="-0.74758">
        <ele>809</ele>
        <time>2021-12-29T11:19:58.000Z</time>
      </trkpt>
      <trkpt lat="43.01907" lon="-0.74756">
        <ele>809.2</ele>
        <time>2021-12-29T11:19:59.000Z</time>
      </trkpt>
      <trkpt lat="43.01906" lon="-0.74754">
        <ele>809.4</ele>
        <time>2021-12-29T11:20:00.000Z</time>
      </trkpt>
      <trkpt lat="43.01905" lon="-0.74752">
        <ele>809.6</ele>
        <time>2021-12-29T11:20:01.000Z</time>
      </trkpt>
      <trkpt lat="43.01904" lon="-0.74751">
        <ele>809.8</ele>
        <time>2021-12-29T11:20:02.000Z</time>
      </trkpt>
      <trkpt lat="43.01902" lon="-0.74749">
        <ele>810</ele>
        <time>2021-12-29T11:20:03.000Z</time>
      </trkpt>
      <trkpt lat="43.01901" lon="-0.74748">
        <ele>810.2</ele>
        <time>2021-12-29T11:20:04.000Z</time>
      </trkpt>
      <trkpt lat="43.019" lon="-0.74747">
        <ele>810.4</ele>
        <time>2021-12-29T11:20:05.000Z</time>
      </trkpt>
      <trkpt lat="43.01898" lon="-0.74745">
        <ele>810.6</ele>
        <time>2021-12-29T11:20:06.000Z</time>
      </trkpt>
      <trkpt lat="43.01897" lon="-0.74744">
        <ele>810.8</ele>
        <time>2021-12-29T11:20:07.000Z</time>
      </trkpt>
      <trkpt lat="43.01896" lon="-0.74742">
        <ele>811</ele>
        <time>2021-12-29T11:20:08.000Z</time>
      </trkpt>
      <trkpt lat="43.01894" lon="-0.7474">
        <ele>811.2</ele>
        <time>2021-12-29T11:20:09.000Z</time>
      </trkpt>
      <trkpt lat="43.01893" lon="-0.74739">
        <ele>811.4</ele>
        <time>2021-12-29T11:20:10.000Z</time>
      </trkpt>
      <trkpt lat="43.01892" lon="-0.74738">
        <ele>811.6</ele>
        <time>2021-12-29T11:20:11.000Z</time>
      </trkpt>
      <trkpt lat="43.01891" lon="-0.74736">
        <ele>811.8</ele>
        <time>2021-12-29T11:20:12.000Z</time>
      </trkpt>
      <trkpt lat="43.0189" lon="-0.74735">
        <ele>812</ele>
        <time>2021-12-29T11:20:13.000Z</time>
      </trkpt>
      <trkpt lat="43.01888" lon="-0.74734">
        <ele>812.2</ele>
        <time>2021-12-29T11:20:14.000Z</time>
      </trkpt>
      <trkpt lat="43.01887" lon="-0.74732">
        <ele>812.4</ele>
        <time>2021-12-29T11:20:15.000Z</time>
      </trkpt>
      <trkpt lat="43.01886" lon="-0.74731">
        <ele>812.6</ele>
        <time>2021-12-29T11:20:16.000Z</time>
      </trkpt>
      <trkpt lat="43.01884" lon="-0.7473">
        <ele>812.8</ele>
        <time>2021-12-29T11:20:17.000Z</time>
      </trkpt>
      <trkpt lat="43.01883" lon="-0.74728">
        <ele>813</ele>
        <time>2021-12-29T11:20:18.000Z</time>
      </trkpt>
      <trkpt lat="43.01882" lon="-0.74727">
        <ele>813.2</ele>
        <time>2021-12-29T11:20:19.000Z</time>
      </trkpt>
      <trkpt lat="43.01881" lon="-0.74726">
        <ele>813.4</ele>
        <time>2021-12-29T11:20:20.000Z</time>
      </trkpt>
      <trkpt lat="43.01879" lon="-0.74725">
        <ele>813.6</ele>
        <time>2021-12-29T11:20:21.000Z</time>
      </trkpt>
      <trkpt lat="43.01877" lon="-0.74723">
        <ele>813.8</ele>
        <time>2021-12-29T11:20:22.000Z</time>
      </trkpt>
      <trkpt lat="43.01876" lon="-0.74722">
        <ele>814</ele>
        <time>2021-12-29T11:20:23.000Z</time>
      </trkpt>
      <trkpt lat="43.01874" lon="-0.74721">
        <ele>814.2</ele>
        <time>2021-12-29T11:20:24.000Z</time>
      </trkpt>
      <trkpt lat="43.01873" lon="-0.7472">
        <ele>814.4</ele>
        <time>2021-12-29T11:20:25.000Z</time>
      </trkpt>
      <trkpt lat="43.01871" lon="-0.74719">
        <ele>814.6</ele>
        <time>2021-12-29T11:20:26.000Z</time>
      </trkpt>
      <trkpt lat="43.01869" lon="-0.74717">
        <ele>814.6</ele>
        <time>2021-12-29T11:20:27.000Z</time>
      </trkpt>
      <trkpt lat="43.01867" lon="-0.74716">
        <ele>814.8</ele>
        <time>2021-12-29T11:20:28.000Z</time>
      </trkpt>
      <trkpt lat="43.01865" lon="-0.74715">
        <ele>815.2</ele>
        <time>2021-12-29T11:20:29.000Z</time>
      </trkpt>
      <trkpt lat="43.01862" lon="-0.74714">
        <ele>815</ele>
        <time>2021-12-29T11:20:30.000Z</time>
      </trkpt>
      <trkpt lat="43.0186" lon="-0.74713">
        <ele>815.2</ele>
        <time>2021-12-29T11:20:31.000Z</time>
      </trkpt>
      <trkpt lat="43.01858" lon="-0.74712">
        <ele>815.2</ele>
        <time>2021-12-29T11:20:32.000Z</time>
      </trkpt>
      <trkpt lat="43.01856" lon="-0.74711">
        <ele>815.4</ele>
        <time>2021-12-29T11:20:33.000Z</time>
      </trkpt>
      <trkpt lat="43.01853" lon="-0.7471">
        <ele>815.4</ele>
        <time>2021-12-29T11:20:34.000Z</time>
      </trkpt>
      <trkpt lat="43.01851" lon="-0.74708">
        <ele>815.6</ele>
        <time>2021-12-29T11:20:35.000Z</time>
      </trkpt>
      <trkpt lat="43.01849" lon="-0.74707">
        <ele>815.6</ele>
        <time>2021-12-29T11:20:36.000Z</time>
      </trkpt>
      <trkpt lat="43.01846" lon="-0.74706">
        <ele>815.8</ele>
        <time>2021-12-29T11:20:37.000Z</time>
      </trkpt>
      <trkpt lat="43.01844" lon="-0.74705">
        <ele>816</ele>
        <time>2021-12-29T11:20:38.000Z</time>
      </trkpt>
      <trkpt lat="43.01842" lon="-0.74704">
        <ele>816</ele>
        <time>2021-12-29T11:20:39.000Z</time>
      </trkpt>
      <trkpt lat="43.0184" lon="-0.74703">
        <ele>816</ele>
        <time>2021-12-29T11:20:40.000Z</time>
      </trkpt>
      <trkpt lat="43.01837" lon="-0.74702">
        <ele>816.2</ele>
        <time>2021-12-29T11:20:41.000Z</time>
      </trkpt>
      <trkpt lat="43.01835" lon="-0.74701">
        <ele>816.2</ele>
        <time>2021-12-29T11:20:42.000Z</time>
      </trkpt>
      <trkpt lat="43.01832" lon="-0.747">
        <ele>816.4</ele>
        <time>2021-12-29T11:20:43.000Z</time>
      </trkpt>
      <trkpt lat="43.01829" lon="-0.74699">
        <ele>816.6</ele>
        <time>2021-12-29T11:20:44.000Z</time>
      </trkpt>
      <trkpt lat="43.01827" lon="-0.74698">
        <ele>816.8</ele>
        <time>2021-12-29T11:20:45.000Z</time>
      </trkpt>
      <trkpt lat="43.01824" lon="-0.74697">
        <ele>816.8</ele>
        <time>2021-12-29T11:20:46.000Z</time>
      </trkpt>
      <trkpt lat="43.01822" lon="-0.74696">
        <ele>817</ele>
        <time>2021-12-29T11:20:47.000Z</time>
      </trkpt>
      <trkpt lat="43.01819" lon="-0.74695">
        <ele>817.2</ele>
        <time>2021-12-29T11:20:48.000Z</time>
      </trkpt>
      <trkpt lat="43.01816" lon="-0.74695">
        <ele>817.2</ele>
        <time>2021-12-29T11:20:49.000Z</time>
      </trkpt>
      <trkpt lat="43.01814" lon="-0.74694">
        <ele>817.4</ele>
        <time>2021-12-29T11:20:50.000Z</time>
      </trkpt>
      <trkpt lat="43.01811" lon="-0.74694">
        <ele>817.4</ele>
        <time>2021-12-29T11:20:51.000Z</time>
      </trkpt>
      <trkpt lat="43.01809" lon="-0.74693">
        <ele>817.6</ele>
        <time>2021-12-29T11:20:52.000Z</time>
      </trkpt>
      <trkpt lat="43.01807" lon="-0.74692">
        <ele>817.6</ele>
        <time>2021-12-29T11:20:53.000Z</time>
      </trkpt>
      <trkpt lat="43.01804" lon="-0.74691">
        <ele>817.8</ele>
        <time>2021-12-29T11:20:54.000Z</time>
      </trkpt>
      <trkpt lat="43.01802" lon="-0.7469">
        <ele>818</ele>
        <time>2021-12-29T11:20:55.000Z</time>
      </trkpt>
      <trkpt lat="43.018" lon="-0.7469">
        <ele>818</ele>
        <time>2021-12-29T11:20:56.000Z</time>
      </trkpt>
      <trkpt lat="43.01798" lon="-0.74689">
        <ele>818.2</ele>
        <time>2021-12-29T11:20:57.000Z</time>
      </trkpt>
      <trkpt lat="43.01795" lon="-0.74688">
        <ele>818.2</ele>
        <time>2021-12-29T11:20:58.000Z</time>
      </trkpt>
      <trkpt lat="43.01793" lon="-0.74688">
        <ele>818.4</ele>
        <time>2021-12-29T11:20:59.000Z</time>
      </trkpt>
      <trkpt lat="43.01791" lon="-0.74688">
        <ele>818.6</ele>
        <time>2021-12-29T11:21:00.000Z</time>
      </trkpt>
      <trkpt lat="43.01789" lon="-0.74687">
        <ele>818.6</ele>
        <time>2021-12-29T11:21:01.000Z</time>
      </trkpt>
      <trkpt lat="43.01786" lon="-0.74687">
        <ele>818.8</ele>
        <time>2021-12-29T11:21:02.000Z</time>
      </trkpt>
      <trkpt lat="43.01784" lon="-0.74688">
        <ele>818.8</ele>
        <time>2021-12-29T11:21:03.000Z</time>
      </trkpt>
      <trkpt lat="43.01783" lon="-0.74688">
        <ele>819</ele>
        <time>2021-12-29T11:21:04.000Z</time>
      </trkpt>
      <trkpt lat="43.01781" lon="-0.7469">
        <ele>819.2</ele>
        <time>2021-12-29T11:21:05.000Z</time>
      </trkpt>
      <trkpt lat="43.01781" lon="-0.74692">
        <ele>819.4</ele>
        <time>2021-12-29T11:21:06.000Z</time>
      </trkpt>
      <trkpt lat="43.0178" lon="-0.74694">
        <ele>819.4</ele>
        <time>2021-12-29T11:21:07.000Z</time>
      </trkpt>
      <trkpt lat="43.01781" lon="-0.74696">
        <ele>819.6</ele>
        <time>2021-12-29T11:21:08.000Z</time>
      </trkpt>
      <trkpt lat="43.01781" lon="-0.74698">
        <ele>819.8</ele>
        <time>2021-12-29T11:21:09.000Z</time>
      </trkpt>
      <trkpt lat="43.01783" lon="-0.747">
        <ele>820</ele>
        <time>2021-12-29T11:21:10.000Z</time>
      </trkpt>
      <trkpt lat="43.01784" lon="-0.74702">
        <ele>820</ele>
        <time>2021-12-29T11:21:11.000Z</time>
      </trkpt>
      <trkpt lat="43.01786" lon="-0.74703">
        <ele>820.2</ele>
        <time>2021-12-29T11:21:12.000Z</time>
      </trkpt>
      <trkpt lat="43.01788" lon="-0.74704">
        <ele>820.2</ele>
        <time>2021-12-29T11:21:13.000Z</time>
      </trkpt>
      <trkpt lat="43.01789" lon="-0.74706">
        <ele>820.4</ele>
        <time>2021-12-29T11:21:14.000Z</time>
      </trkpt>
      <trkpt lat="43.01791" lon="-0.74707">
        <ele>820.4</ele>
        <time>2021-12-29T11:21:15.000Z</time>
      </trkpt>
      <trkpt lat="43.01794" lon="-0.74707">
        <ele>820.6</ele>
        <time>2021-12-29T11:21:16.000Z</time>
      </trkpt>
      <trkpt lat="43.01796" lon="-0.74708">
        <ele>820.6</ele>
        <time>2021-12-29T11:21:17.000Z</time>
      </trkpt>
      <trkpt lat="43.01798" lon="-0.74709">
        <ele>820.8</ele>
        <time>2021-12-29T11:21:18.000Z</time>
      </trkpt>
      <trkpt lat="43.018" lon="-0.7471">
        <ele>821</ele>
        <time>2021-12-29T11:21:19.000Z</time>
      </trkpt>
      <trkpt lat="43.01802" lon="-0.74711">
        <ele>821.2</ele>
        <time>2021-12-29T11:21:20.000Z</time>
      </trkpt>
      <trkpt lat="43.01804" lon="-0.74711">
        <ele>821.2</ele>
        <time>2021-12-29T11:21:21.000Z</time>
      </trkpt>
      <trkpt lat="43.01806" lon="-0.74712">
        <ele>821.4</ele>
        <time>2021-12-29T11:21:22.000Z</time>
      </trkpt>
      <trkpt lat="43.01808" lon="-0.74713">
        <ele>821.6</ele>
        <time>2021-12-29T11:21:23.000Z</time>
      </trkpt>
      <trkpt lat="43.0181" lon="-0.74714">
        <ele>821.8</ele>
        <time>2021-12-29T11:21:24.000Z</time>
      </trkpt>
      <trkpt lat="43.01812" lon="-0.74715">
        <ele>822</ele>
        <time>2021-12-29T11:21:25.000Z</time>
      </trkpt>
      <trkpt lat="43.01814" lon="-0.74716">
        <ele>822.2</ele>
        <time>2021-12-29T11:21:26.000Z</time>
      </trkpt>
      <trkpt lat="43.01816" lon="-0.74717">
        <ele>822.4</ele>
        <time>2021-12-29T11:21:27.000Z</time>
      </trkpt>
      <trkpt lat="43.01818" lon="-0.74718">
        <ele>822.4</ele>
        <time>2021-12-29T11:21:28.000Z</time>
      </trkpt>
      <trkpt lat="43.01819" lon="-0.74719">
        <ele>822.6</ele>
        <time>2021-12-29T11:21:29.000Z</time>
      </trkpt>
      <trkpt lat="43.01821" lon="-0.7472">
        <ele>822.8</ele>
        <time>2021-12-29T11:21:30.000Z</time>
      </trkpt>
      <trkpt lat="43.01823" lon="-0.74721">
        <ele>823</ele>
        <time>2021-12-29T11:21:31.000Z</time>
      </trkpt>
      <trkpt lat="43.01825" lon="-0.74722">
        <ele>823.2</ele>
        <time>2021-12-29T11:21:32.000Z</time>
      </trkpt>
      <trkpt lat="43.01826" lon="-0.74724">
        <ele>823.4</ele>
        <time>2021-12-29T11:21:33.000Z</time>
      </trkpt>
      <trkpt lat="43.01827" lon="-0.74726">
        <ele>823.4</ele>
        <time>2021-12-29T11:21:34.000Z</time>
      </trkpt>
      <trkpt lat="43.01829" lon="-0.74728">
        <ele>823.6</ele>
        <time>2021-12-29T11:21:35.000Z</time>
      </trkpt>
      <trkpt lat="43.0183" lon="-0.7473">
        <ele>823.8</ele>
        <time>2021-12-29T11:21:36.000Z</time>
      </trkpt>
      <trkpt lat="43.01831" lon="-0.74732">
        <ele>824</ele>
        <time>2021-12-29T11:21:37.000Z</time>
      </trkpt>
      <trkpt lat="43.01832" lon="-0.74735">
        <ele>824.2</ele>
        <time>2021-12-29T11:21:38.000Z</time>
      </trkpt>
      <trkpt lat="43.01833" lon="-0.74738">
        <ele>824.2</ele>
        <time>2021-12-29T11:21:39.000Z</time>
      </trkpt>
      <trkpt lat="43.01834" lon="-0.7474">
        <ele>824.4</ele>
        <time>2021-12-29T11:21:40.000Z</time>
      </trkpt>
      <trkpt lat="43.01835" lon="-0.74743">
        <ele>824.6</ele>
        <time>2021-12-29T11:21:41.000Z</time>
      </trkpt>
      <trkpt lat="43.01835" lon="-0.74745">
        <ele>824.6</ele>
        <time>2021-12-29T11:21:42.000Z</time>
      </trkpt>
      <trkpt lat="43.01836" lon="-0.74748">
        <ele>824.8</ele>
        <time>2021-12-29T11:21:43.000Z</time>
      </trkpt>
      <trkpt lat="43.01836" lon="-0.74751">
        <ele>825</ele>
        <time>2021-12-29T11:21:44.000Z</time>
      </trkpt>
      <trkpt lat="43.01836" lon="-0.74754">
        <ele>825</ele>
        <time>2021-12-29T11:21:45.000Z</time>
      </trkpt>
      <trkpt lat="43.01836" lon="-0.74757">
        <ele>825.2</ele>
        <time>2021-12-29T11:21:46.000Z</time>
      </trkpt>
      <trkpt lat="43.01836" lon="-0.74759">
        <ele>825.4</ele>
        <time>2021-12-29T11:21:47.000Z</time>
      </trkpt>
      <trkpt lat="43.01835" lon="-0.74762">
        <ele>825.4</ele>
        <time>2021-12-29T11:21:48.000Z</time>
      </trkpt>
      <trkpt lat="43.01835" lon="-0.74765">
        <ele>825.6</ele>
        <time>2021-12-29T11:21:49.000Z</time>
      </trkpt>
      <trkpt lat="43.01834" lon="-0.74767">
        <ele>826</ele>
        <time>2021-12-29T11:21:50.000Z</time>
      </trkpt>
      <trkpt lat="43.01834" lon="-0.7477">
        <ele>826</ele>
        <time>2021-12-29T11:21:51.000Z</time>
      </trkpt>
      <trkpt lat="43.01833" lon="-0.74772">
        <ele>826.4</ele>
        <time>2021-12-29T11:21:52.000Z</time>
      </trkpt>
      <trkpt lat="43.01832" lon="-0.74774">
        <ele>826.4</ele>
        <time>2021-12-29T11:21:53.000Z</time>
      </trkpt>
      <trkpt lat="43.0183" lon="-0.74776">
        <ele>826.6</ele>
        <time>2021-12-29T11:21:54.000Z</time>
      </trkpt>
      <trkpt lat="43.01829" lon="-0.74778">
        <ele>826.8</ele>
        <time>2021-12-29T11:21:55.000Z</time>
      </trkpt>
      <trkpt lat="43.01827" lon="-0.74779">
        <ele>827</ele>
        <time>2021-12-29T11:21:56.000Z</time>
      </trkpt>
      <trkpt lat="43.01826" lon="-0.74779">
        <ele>827.2</ele>
        <time>2021-12-29T11:21:57.000Z</time>
      </trkpt>
      <trkpt lat="43.01824" lon="-0.7478">
        <ele>827.4</ele>
        <time>2021-12-29T11:21:58.000Z</time>
      </trkpt>
      <trkpt lat="43.01822" lon="-0.7478">
        <ele>827.6</ele>
        <time>2021-12-29T11:21:59.000Z</time>
      </trkpt>
      <trkpt lat="43.01821" lon="-0.74781">
        <ele>827.8</ele>
        <time>2021-12-29T11:22:00.000Z</time>
      </trkpt>
      <trkpt lat="43.01819" lon="-0.7478">
        <ele>828</ele>
        <time>2021-12-29T11:22:01.000Z</time>
      </trkpt>
      <trkpt lat="43.01817" lon="-0.7478">
        <ele>828.2</ele>
        <time>2021-12-29T11:22:02.000Z</time>
      </trkpt>
      <trkpt lat="43.01816" lon="-0.74779">
        <ele>828.4</ele>
        <time>2021-12-29T11:22:03.000Z</time>
      </trkpt>
      <trkpt lat="43.01814" lon="-0.74779">
        <ele>828.6</ele>
        <time>2021-12-29T11:22:04.000Z</time>
      </trkpt>
      <trkpt lat="43.01813" lon="-0.74778">
        <ele>828.8</ele>
        <time>2021-12-29T11:22:05.000Z</time>
      </trkpt>
      <trkpt lat="43.01811" lon="-0.74777">
        <ele>829</ele>
        <time>2021-12-29T11:22:06.000Z</time>
      </trkpt>
      <trkpt lat="43.0181" lon="-0.74776">
        <ele>829.2</ele>
        <time>2021-12-29T11:22:07.000Z</time>
      </trkpt>
      <trkpt lat="43.01808" lon="-0.74775">
        <ele>829.4</ele>
        <time>2021-12-29T11:22:08.000Z</time>
      </trkpt>
      <trkpt lat="43.01807" lon="-0.74774">
        <ele>829.6</ele>
        <time>2021-12-29T11:22:09.000Z</time>
      </trkpt>
      <trkpt lat="43.01805" lon="-0.74773">
        <ele>830</ele>
        <time>2021-12-29T11:22:10.000Z</time>
      </trkpt>
      <trkpt lat="43.01804" lon="-0.74772">
        <ele>830</ele>
        <time>2021-12-29T11:22:11.000Z</time>
      </trkpt>
      <trkpt lat="43.01803" lon="-0.7477">
        <ele>830.2</ele>
        <time>2021-12-29T11:22:12.000Z</time>
      </trkpt>
      <trkpt lat="43.01802" lon="-0.74769">
        <ele>830.4</ele>
        <time>2021-12-29T11:22:13.000Z</time>
      </trkpt>
      <trkpt lat="43.018" lon="-0.74767">
        <ele>830.6</ele>
        <time>2021-12-29T11:22:14.000Z</time>
      </trkpt>
      <trkpt lat="43.01799" lon="-0.74765">
        <ele>831</ele>
        <time>2021-12-29T11:22:15.000Z</time>
      </trkpt>
      <trkpt lat="43.01797" lon="-0.74763">
        <ele>831.2</ele>
        <time>2021-12-29T11:22:16.000Z</time>
      </trkpt>
      <trkpt lat="43.01796" lon="-0.74761">
        <ele>831.4</ele>
        <time>2021-12-29T11:22:17.000Z</time>
      </trkpt>
      <trkpt lat="43.01794" lon="-0.7476">
        <ele>831.6</ele>
        <time>2021-12-29T11:22:18.000Z</time>
      </trkpt>
      <trkpt lat="43.01793" lon="-0.74758">
        <ele>831.8</ele>
        <time>2021-12-29T11:22:19.000Z</time>
      </trkpt>
      <trkpt lat="43.01791" lon="-0.74757">
        <ele>832</ele>
        <time>2021-12-29T11:22:20.000Z</time>
      </trkpt>
      <trkpt lat="43.01789" lon="-0.74755">
        <ele>832.2</ele>
        <time>2021-12-29T11:22:21.000Z</time>
      </trkpt>
      <trkpt lat="43.01788" lon="-0.74753">
        <ele>832.6</ele>
        <time>2021-12-29T11:22:22.000Z</time>
      </trkpt>
      <trkpt lat="43.01787" lon="-0.74752">
        <ele>832.6</ele>
        <time>2021-12-29T11:22:23.000Z</time>
      </trkpt>
      <trkpt lat="43.01785" lon="-0.7475">
        <ele>833</ele>
        <time>2021-12-29T11:22:24.000Z</time>
      </trkpt>
      <trkpt lat="43.01784" lon="-0.74749">
        <ele>833.2</ele>
        <time>2021-12-29T11:22:25.000Z</time>
      </trkpt>
      <trkpt lat="43.01782" lon="-0.74747">
        <ele>833.4</ele>
        <time>2021-12-29T11:22:26.000Z</time>
      </trkpt>
      <trkpt lat="43.01781" lon="-0.74746">
        <ele>833.6</ele>
        <time>2021-12-29T11:22:27.000Z</time>
      </trkpt>
      <trkpt lat="43.01779" lon="-0.74744">
        <ele>833.8</ele>
        <time>2021-12-29T11:22:28.000Z</time>
      </trkpt>
      <trkpt lat="43.01777" lon="-0.74742">
        <ele>834</ele>
        <time>2021-12-29T11:22:29.000Z</time>
      </trkpt>
      <trkpt lat="43.01776" lon="-0.74741">
        <ele>834.2</ele>
        <time>2021-12-29T11:22:30.000Z</time>
      </trkpt>
      <trkpt lat="43.01774" lon="-0.74739">
        <ele>834.4</ele>
        <time>2021-12-29T11:22:31.000Z</time>
      </trkpt>
      <trkpt lat="43.01773" lon="-0.74738">
        <ele>834.6</ele>
        <time>2021-12-29T11:22:32.000Z</time>
      </trkpt>
      <trkpt lat="43.01771" lon="-0.74736">
        <ele>834.8</ele>
        <time>2021-12-29T11:22:33.000Z</time>
      </trkpt>
      <trkpt lat="43.01769" lon="-0.74735">
        <ele>835</ele>
        <time>2021-12-29T11:22:34.000Z</time>
      </trkpt>
      <trkpt lat="43.01768" lon="-0.74733">
        <ele>835.2</ele>
        <time>2021-12-29T11:22:35.000Z</time>
      </trkpt>
      <trkpt lat="43.01766" lon="-0.74732">
        <ele>835.4</ele>
        <time>2021-12-29T11:22:36.000Z</time>
      </trkpt>
      <trkpt lat="43.01764" lon="-0.7473">
        <ele>835.6</ele>
        <time>2021-12-29T11:22:37.000Z</time>
      </trkpt>
      <trkpt lat="43.01763" lon="-0.74729">
        <ele>835.8</ele>
        <time>2021-12-29T11:22:38.000Z</time>
      </trkpt>
      <trkpt lat="43.01761" lon="-0.74727">
        <ele>836</ele>
        <time>2021-12-29T11:22:39.000Z</time>
      </trkpt>
      <trkpt lat="43.0176" lon="-0.74726">
        <ele>836</ele>
        <time>2021-12-29T11:22:40.000Z</time>
      </trkpt>
      <trkpt lat="43.01758" lon="-0.74724">
        <ele>836.4</ele>
        <time>2021-12-29T11:22:41.000Z</time>
      </trkpt>
      <trkpt lat="43.01756" lon="-0.74723">
        <ele>836.6</ele>
        <time>2021-12-29T11:22:42.000Z</time>
      </trkpt>
      <trkpt lat="43.01755" lon="-0.74721">
        <ele>836.8</ele>
        <time>2021-12-29T11:22:43.000Z</time>
      </trkpt>
      <trkpt lat="43.01753" lon="-0.7472">
        <ele>836.8</ele>
        <time>2021-12-29T11:22:44.000Z</time>
      </trkpt>
      <trkpt lat="43.01752" lon="-0.74719">
        <ele>837</ele>
        <time>2021-12-29T11:22:45.000Z</time>
      </trkpt>
      <trkpt lat="43.0175" lon="-0.74717">
        <ele>837.2</ele>
        <time>2021-12-29T11:22:46.000Z</time>
      </trkpt>
      <trkpt lat="43.01748" lon="-0.74716">
        <ele>837.4</ele>
        <time>2021-12-29T11:22:47.000Z</time>
      </trkpt>
      <trkpt lat="43.01747" lon="-0.74715">
        <ele>837.6</ele>
        <time>2021-12-29T11:22:48.000Z</time>
      </trkpt>
      <trkpt lat="43.01745" lon="-0.74713">
        <ele>837.6</ele>
        <time>2021-12-29T11:22:49.000Z</time>
      </trkpt>
      <trkpt lat="43.01744" lon="-0.74712">
        <ele>837.8</ele>
        <time>2021-12-29T11:22:50.000Z</time>
      </trkpt>
      <trkpt lat="43.01742" lon="-0.74711">
        <ele>838</ele>
        <time>2021-12-29T11:22:51.000Z</time>
      </trkpt>
      <trkpt lat="43.01741" lon="-0.74709">
        <ele>838.4</ele>
        <time>2021-12-29T11:22:52.000Z</time>
      </trkpt>
      <trkpt lat="43.01739" lon="-0.74708">
        <ele>838.4</ele>
        <time>2021-12-29T11:22:53.000Z</time>
      </trkpt>
      <trkpt lat="43.01738" lon="-0.74707">
        <ele>838.6</ele>
        <time>2021-12-29T11:22:54.000Z</time>
      </trkpt>
      <trkpt lat="43.01737" lon="-0.74706">
        <ele>838.8</ele>
        <time>2021-12-29T11:22:55.000Z</time>
      </trkpt>
      <trkpt lat="43.01735" lon="-0.74704">
        <ele>838.8</ele>
        <time>2021-12-29T11:22:56.000Z</time>
      </trkpt>
      <trkpt lat="43.01734" lon="-0.74703">
        <ele>839</ele>
        <time>2021-12-29T11:22:57.000Z</time>
      </trkpt>
      <trkpt lat="43.01733" lon="-0.74702">
        <ele>839.2</ele>
        <time>2021-12-29T11:22:58.000Z</time>
      </trkpt>
      <trkpt lat="43.01731" lon="-0.74701">
        <ele>839.2</ele>
        <time>2021-12-29T11:22:59.000Z</time>
      </trkpt>
      <trkpt lat="43.01729" lon="-0.747">
        <ele>839.2</ele>
        <time>2021-12-29T11:23:00.000Z</time>
      </trkpt>
      <trkpt lat="43.01727" lon="-0.74698">
        <ele>839.6</ele>
        <time>2021-12-29T11:23:01.000Z</time>
      </trkpt>
      <trkpt lat="43.01725" lon="-0.74697">
        <ele>839.8</ele>
        <time>2021-12-29T11:23:02.000Z</time>
      </trkpt>
      <trkpt lat="43.01722" lon="-0.74695">
        <ele>840</ele>
        <time>2021-12-29T11:23:03.000Z</time>
      </trkpt>
      <trkpt lat="43.0172" lon="-0.74694">
        <ele>840.2</ele>
        <time>2021-12-29T11:23:04.000Z</time>
      </trkpt>
      <trkpt lat="43.01718" lon="-0.74692">
        <ele>840.4</ele>
        <time>2021-12-29T11:23:05.000Z</time>
      </trkpt>
      <trkpt lat="43.01716" lon="-0.74691">
        <ele>840.6</ele>
        <time>2021-12-29T11:23:06.000Z</time>
      </trkpt>
      <trkpt lat="43.01714" lon="-0.74689">
        <ele>841</ele>
        <time>2021-12-29T11:23:07.000Z</time>
      </trkpt>
      <trkpt lat="43.01713" lon="-0.74689">
        <ele>841.2</ele>
        <time>2021-12-29T11:23:08.000Z</time>
      </trkpt>
      <trkpt lat="43.01711" lon="-0.74687">
        <ele>841.4</ele>
        <time>2021-12-29T11:23:09.000Z</time>
      </trkpt>
      <trkpt lat="43.01709" lon="-0.74686">
        <ele>841.6</ele>
        <time>2021-12-29T11:23:10.000Z</time>
      </trkpt>
      <trkpt lat="43.01707" lon="-0.74685">
        <ele>841.8</ele>
        <time>2021-12-29T11:23:11.000Z</time>
      </trkpt>
      <trkpt lat="43.01706" lon="-0.74684">
        <ele>842</ele>
        <time>2021-12-29T11:23:12.000Z</time>
      </trkpt>
      <trkpt lat="43.01704" lon="-0.74683">
        <ele>842.2</ele>
        <time>2021-12-29T11:23:13.000Z</time>
      </trkpt>
      <trkpt lat="43.01702" lon="-0.74682">
        <ele>842.2</ele>
        <time>2021-12-29T11:23:14.000Z</time>
      </trkpt>
      <trkpt lat="43.017" lon="-0.74682">
        <ele>842.2</ele>
        <time>2021-12-29T11:23:15.000Z</time>
      </trkpt>
      <trkpt lat="43.01699" lon="-0.74681">
        <ele>842.6</ele>
        <time>2021-12-29T11:23:16.000Z</time>
      </trkpt>
      <trkpt lat="43.01697" lon="-0.7468">
        <ele>842.6</ele>
        <time>2021-12-29T11:23:17.000Z</time>
      </trkpt>
      <trkpt lat="43.01695" lon="-0.74679">
        <ele>842.8</ele>
        <time>2021-12-29T11:23:18.000Z</time>
      </trkpt>
      <trkpt lat="43.01694" lon="-0.74679">
        <ele>843</ele>
        <time>2021-12-29T11:23:19.000Z</time>
      </trkpt>
      <trkpt lat="43.01692" lon="-0.74678">
        <ele>843.4</ele>
        <time>2021-12-29T11:23:20.000Z</time>
      </trkpt>
      <trkpt lat="43.0169" lon="-0.74676">
        <ele>843.4</ele>
        <time>2021-12-29T11:23:21.000Z</time>
      </trkpt>
      <trkpt lat="43.01689" lon="-0.74676">
        <ele>843.6</ele>
        <time>2021-12-29T11:23:22.000Z</time>
      </trkpt>
      <trkpt lat="43.01687" lon="-0.74675">
        <ele>843.8</ele>
        <time>2021-12-29T11:23:23.000Z</time>
      </trkpt>
      <trkpt lat="43.01685" lon="-0.74674">
        <ele>844</ele>
        <time>2021-12-29T11:23:24.000Z</time>
      </trkpt>
      <trkpt lat="43.01684" lon="-0.74673">
        <ele>844.2</ele>
        <time>2021-12-29T11:23:25.000Z</time>
      </trkpt>
      <trkpt lat="43.01682" lon="-0.74672">
        <ele>844.4</ele>
        <time>2021-12-29T11:23:26.000Z</time>
      </trkpt>
      <trkpt lat="43.0168" lon="-0.74671">
        <ele>844.6</ele>
        <time>2021-12-29T11:23:27.000Z</time>
      </trkpt>
      <trkpt lat="43.01679" lon="-0.7467">
        <ele>844.6</ele>
        <time>2021-12-29T11:23:28.000Z</time>
      </trkpt>
      <trkpt lat="43.01677" lon="-0.74669">
        <ele>844.8</ele>
        <time>2021-12-29T11:23:29.000Z</time>
      </trkpt>
      <trkpt lat="43.01675" lon="-0.74669">
        <ele>845</ele>
        <time>2021-12-29T11:23:30.000Z</time>
      </trkpt>
      <trkpt lat="43.01673" lon="-0.74668">
        <ele>845.2</ele>
        <time>2021-12-29T11:23:31.000Z</time>
      </trkpt>
      <trkpt lat="43.01671" lon="-0.74667">
        <ele>845.4</ele>
        <time>2021-12-29T11:23:32.000Z</time>
      </trkpt>
      <trkpt lat="43.0167" lon="-0.74666">
        <ele>845.6</ele>
        <time>2021-12-29T11:23:33.000Z</time>
      </trkpt>
      <trkpt lat="43.01668" lon="-0.74665">
        <ele>845.6</ele>
        <time>2021-12-29T11:23:34.000Z</time>
      </trkpt>
      <trkpt lat="43.01666" lon="-0.74664">
        <ele>846</ele>
        <time>2021-12-29T11:23:35.000Z</time>
      </trkpt>
      <trkpt lat="43.01664" lon="-0.74663">
        <ele>846</ele>
        <time>2021-12-29T11:23:36.000Z</time>
      </trkpt>
      <trkpt lat="43.01662" lon="-0.74663">
        <ele>846.2</ele>
        <time>2021-12-29T11:23:37.000Z</time>
      </trkpt>
      <trkpt lat="43.0166" lon="-0.74662">
        <ele>846.4</ele>
        <time>2021-12-29T11:23:38.000Z</time>
      </trkpt>
      <trkpt lat="43.01659" lon="-0.74661">
        <ele>846.6</ele>
        <time>2021-12-29T11:23:39.000Z</time>
      </trkpt>
      <trkpt lat="43.01657" lon="-0.74661">
        <ele>846.8</ele>
        <time>2021-12-29T11:23:40.000Z</time>
      </trkpt>
      <trkpt lat="43.01655" lon="-0.7466">
        <ele>847</ele>
        <time>2021-12-29T11:23:41.000Z</time>
      </trkpt>
      <trkpt lat="43.01653" lon="-0.7466">
        <ele>847</ele>
        <time>2021-12-29T11:23:42.000Z</time>
      </trkpt>
      <trkpt lat="43.01651" lon="-0.74659">
        <ele>847.2</ele>
        <time>2021-12-29T11:23:43.000Z</time>
      </trkpt>
      <trkpt lat="43.0165" lon="-0.74658">
        <ele>847.4</ele>
        <time>2021-12-29T11:23:44.000Z</time>
      </trkpt>
      <trkpt lat="43.01648" lon="-0.74657">
        <ele>847.6</ele>
        <time>2021-12-29T11:23:45.000Z</time>
      </trkpt>
      <trkpt lat="43.01646" lon="-0.74657">
        <ele>847.6</ele>
        <time>2021-12-29T11:23:46.000Z</time>
      </trkpt>
      <trkpt lat="43.01644" lon="-0.74657">
        <ele>847.8</ele>
        <time>2021-12-29T11:23:47.000Z</time>
      </trkpt>
      <trkpt lat="43.01642" lon="-0.74656">
        <ele>848</ele>
        <time>2021-12-29T11:23:48.000Z</time>
      </trkpt>
      <trkpt lat="43.0164" lon="-0.74656">
        <ele>848</ele>
        <time>2021-12-29T11:23:49.000Z</time>
      </trkpt>
      <trkpt lat="43.01638" lon="-0.74656">
        <ele>848.2</ele>
        <time>2021-12-29T11:23:50.000Z</time>
      </trkpt>
      <trkpt lat="43.01636" lon="-0.74655">
        <ele>848.4</ele>
        <time>2021-12-29T11:23:51.000Z</time>
      </trkpt>
      <trkpt lat="43.01634" lon="-0.74655">
        <ele>848.6</ele>
        <time>2021-12-29T11:23:52.000Z</time>
      </trkpt>
      <trkpt lat="43.01632" lon="-0.74654">
        <ele>848.6</ele>
        <time>2021-12-29T11:23:53.000Z</time>
      </trkpt>
      <trkpt lat="43.0163" lon="-0.74654">
        <ele>848.8</ele>
        <time>2021-12-29T11:23:54.000Z</time>
      </trkpt>
      <trkpt lat="43.01628" lon="-0.74654">
        <ele>849</ele>
        <time>2021-12-29T11:23:55.000Z</time>
      </trkpt>
      <trkpt lat="43.01626" lon="-0.74653">
        <ele>849.2</ele>
        <time>2021-12-29T11:23:56.000Z</time>
      </trkpt>
      <trkpt lat="43.01624" lon="-0.74653">
        <ele>849.2</ele>
        <time>2021-12-29T11:23:57.000Z</time>
      </trkpt>
      <trkpt lat="43.01622" lon="-0.74652">
        <ele>849.4</ele>
        <time>2021-12-29T11:23:58.000Z</time>
      </trkpt>
      <trkpt lat="43.0162" lon="-0.74652">
        <ele>849.6</ele>
        <time>2021-12-29T11:23:59.000Z</time>
      </trkpt>
      <trkpt lat="43.01619" lon="-0.74652">
        <ele>849.8</ele>
        <time>2021-12-29T11:24:00.000Z</time>
      </trkpt>
      <trkpt lat="43.01617" lon="-0.74652">
        <ele>850</ele>
        <time>2021-12-29T11:24:01.000Z</time>
      </trkpt>
      <trkpt lat="43.01615" lon="-0.74652">
        <ele>850</ele>
        <time>2021-12-29T11:24:02.000Z</time>
      </trkpt>
      <trkpt lat="43.01613" lon="-0.74651">
        <ele>850.4</ele>
        <time>2021-12-29T11:24:03.000Z</time>
      </trkpt>
      <trkpt lat="43.01611" lon="-0.74651">
        <ele>850.4</ele>
        <time>2021-12-29T11:24:04.000Z</time>
      </trkpt>
      <trkpt lat="43.01609" lon="-0.74651">
        <ele>850.6</ele>
        <time>2021-12-29T11:24:05.000Z</time>
      </trkpt>
      <trkpt lat="43.01607" lon="-0.74651">
        <ele>850.8</ele>
        <time>2021-12-29T11:24:06.000Z</time>
      </trkpt>
      <trkpt lat="43.01605" lon="-0.7465">
        <ele>850.8</ele>
        <time>2021-12-29T11:24:07.000Z</time>
      </trkpt>
      <trkpt lat="43.01603" lon="-0.7465">
        <ele>851</ele>
        <time>2021-12-29T11:24:08.000Z</time>
      </trkpt>
      <trkpt lat="43.01601" lon="-0.7465">
        <ele>851.2</ele>
        <time>2021-12-29T11:24:09.000Z</time>
      </trkpt>
      <trkpt lat="43.01599" lon="-0.74649">
        <ele>851.2</ele>
        <time>2021-12-29T11:24:10.000Z</time>
      </trkpt>
      <trkpt lat="43.01597" lon="-0.74649">
        <ele>851.4</ele>
        <time>2021-12-29T11:24:11.000Z</time>
      </trkpt>
      <trkpt lat="43.01595" lon="-0.74649">
        <ele>851.6</ele>
        <time>2021-12-29T11:24:12.000Z</time>
      </trkpt>
      <trkpt lat="43.01592" lon="-0.74648">
        <ele>851.8</ele>
        <time>2021-12-29T11:24:13.000Z</time>
      </trkpt>
      <trkpt lat="43.0159" lon="-0.74648">
        <ele>852.2</ele>
        <time>2021-12-29T11:24:14.000Z</time>
      </trkpt>
      <trkpt lat="43.01587" lon="-0.74648">
        <ele>852.2</ele>
        <time>2021-12-29T11:24:15.000Z</time>
      </trkpt>
      <trkpt lat="43.01585" lon="-0.74648">
        <ele>852.4</ele>
        <time>2021-12-29T11:24:16.000Z</time>
      </trkpt>
      <trkpt lat="43.01582" lon="-0.74647">
        <ele>852.6</ele>
        <time>2021-12-29T11:24:17.000Z</time>
      </trkpt>
      <trkpt lat="43.0158" lon="-0.74647">
        <ele>852.8</ele>
        <time>2021-12-29T11:24:18.000Z</time>
      </trkpt>
      <trkpt lat="43.01577" lon="-0.74647">
        <ele>853</ele>
        <time>2021-12-29T11:24:19.000Z</time>
      </trkpt>
      <trkpt lat="43.01575" lon="-0.74647">
        <ele>853.2</ele>
        <time>2021-12-29T11:24:20.000Z</time>
      </trkpt>
      <trkpt lat="43.01572" lon="-0.74647">
        <ele>853.4</ele>
        <time>2021-12-29T11:24:21.000Z</time>
      </trkpt>
      <trkpt lat="43.0157" lon="-0.74646">
        <ele>853.6</ele>
        <time>2021-12-29T11:24:22.000Z</time>
      </trkpt>
      <trkpt lat="43.01567" lon="-0.74646">
        <ele>853.8</ele>
        <time>2021-12-29T11:24:23.000Z</time>
      </trkpt>
      <trkpt lat="43.01565" lon="-0.74646">
        <ele>854</ele>
        <time>2021-12-29T11:24:24.000Z</time>
      </trkpt>
      <trkpt lat="43.01562" lon="-0.74646">
        <ele>854.2</ele>
        <time>2021-12-29T11:24:25.000Z</time>
      </trkpt>
      <trkpt lat="43.0156" lon="-0.74645">
        <ele>854.4</ele>
        <time>2021-12-29T11:24:26.000Z</time>
      </trkpt>
      <trkpt lat="43.01557" lon="-0.74645">
        <ele>854.6</ele>
        <time>2021-12-29T11:24:27.000Z</time>
      </trkpt>
      <trkpt lat="43.01555" lon="-0.74645">
        <ele>854.8</ele>
        <time>2021-12-29T11:24:28.000Z</time>
      </trkpt>
      <trkpt lat="43.01552" lon="-0.74645">
        <ele>855</ele>
        <time>2021-12-29T11:24:29.000Z</time>
      </trkpt>
      <trkpt lat="43.0155" lon="-0.74645">
        <ele>855.2</ele>
        <time>2021-12-29T11:24:30.000Z</time>
      </trkpt>
      <trkpt lat="43.01547" lon="-0.74644">
        <ele>855.4</ele>
        <time>2021-12-29T11:24:31.000Z</time>
      </trkpt>
      <trkpt lat="43.01544" lon="-0.74644">
        <ele>855.6</ele>
        <time>2021-12-29T11:24:32.000Z</time>
      </trkpt>
      <trkpt lat="43.01542" lon="-0.74644">
        <ele>855.8</ele>
        <time>2021-12-29T11:24:33.000Z</time>
      </trkpt>
      <trkpt lat="43.01539" lon="-0.74644">
        <ele>856</ele>
        <time>2021-12-29T11:24:34.000Z</time>
      </trkpt>
      <trkpt lat="43.01537" lon="-0.74643">
        <ele>856.2</ele>
        <time>2021-12-29T11:24:35.000Z</time>
      </trkpt>
      <trkpt lat="43.01534" lon="-0.74643">
        <ele>856.4</ele>
        <time>2021-12-29T11:24:36.000Z</time>
      </trkpt>
      <trkpt lat="43.01532" lon="-0.74642">
        <ele>856.8</ele>
        <time>2021-12-29T11:24:37.000Z</time>
      </trkpt>
      <trkpt lat="43.01529" lon="-0.74642">
        <ele>857</ele>
        <time>2021-12-29T11:24:38.000Z</time>
      </trkpt>
      <trkpt lat="43.01527" lon="-0.74642">
        <ele>857</ele>
        <time>2021-12-29T11:24:39.000Z</time>
      </trkpt>
      <trkpt lat="43.01524" lon="-0.74641">
        <ele>857.4</ele>
        <time>2021-12-29T11:24:40.000Z</time>
      </trkpt>
      <trkpt lat="43.01522" lon="-0.74641">
        <ele>857.6</ele>
        <time>2021-12-29T11:24:41.000Z</time>
      </trkpt>
      <trkpt lat="43.0152" lon="-0.74641">
        <ele>857.6</ele>
        <time>2021-12-29T11:24:42.000Z</time>
      </trkpt>
      <trkpt lat="43.01517" lon="-0.7464">
        <ele>857.8</ele>
        <time>2021-12-29T11:24:43.000Z</time>
      </trkpt>
      <trkpt lat="43.01515" lon="-0.7464">
        <ele>858.2</ele>
        <time>2021-12-29T11:24:44.000Z</time>
      </trkpt>
      <trkpt lat="43.01512" lon="-0.74639">
        <ele>858.4</ele>
        <time>2021-12-29T11:24:45.000Z</time>
      </trkpt>
      <trkpt lat="43.0151" lon="-0.74638">
        <ele>858.6</ele>
        <time>2021-12-29T11:24:46.000Z</time>
      </trkpt>
      <trkpt lat="43.01508" lon="-0.74638">
        <ele>859</ele>
        <time>2021-12-29T11:24:47.000Z</time>
      </trkpt>
      <trkpt lat="43.01505" lon="-0.74638">
        <ele>859</ele>
        <time>2021-12-29T11:24:48.000Z</time>
      </trkpt>
      <trkpt lat="43.01503" lon="-0.74638">
        <ele>859.2</ele>
        <time>2021-12-29T11:24:49.000Z</time>
      </trkpt>
      <trkpt lat="43.01501" lon="-0.74638">
        <ele>859.4</ele>
        <time>2021-12-29T11:24:50.000Z</time>
      </trkpt>
      <trkpt lat="43.01498" lon="-0.74638">
        <ele>859.8</ele>
        <time>2021-12-29T11:24:51.000Z</time>
      </trkpt>
      <trkpt lat="43.01496" lon="-0.74638">
        <ele>860</ele>
        <time>2021-12-29T11:24:52.000Z</time>
      </trkpt>
      <trkpt lat="43.01494" lon="-0.74638">
        <ele>860.2</ele>
        <time>2021-12-29T11:24:53.000Z</time>
      </trkpt>
      <trkpt lat="43.01492" lon="-0.74639">
        <ele>860.4</ele>
        <time>2021-12-29T11:24:54.000Z</time>
      </trkpt>
      <trkpt lat="43.0149" lon="-0.7464">
        <ele>860.6</ele>
        <time>2021-12-29T11:24:55.000Z</time>
      </trkpt>
      <trkpt lat="43.01489" lon="-0.74642">
        <ele>860.6</ele>
        <time>2021-12-29T11:24:56.000Z</time>
      </trkpt>
      <trkpt lat="43.01487" lon="-0.74644">
        <ele>861</ele>
        <time>2021-12-29T11:24:57.000Z</time>
      </trkpt>
      <trkpt lat="43.01486" lon="-0.74647">
        <ele>861.2</ele>
        <time>2021-12-29T11:24:58.000Z</time>
      </trkpt>
      <trkpt lat="43.01485" lon="-0.74649">
        <ele>861.4</ele>
        <time>2021-12-29T11:24:59.000Z</time>
      </trkpt>
      <trkpt lat="43.01485" lon="-0.74652">
        <ele>861.6</ele>
        <time>2021-12-29T11:25:00.000Z</time>
      </trkpt>
      <trkpt lat="43.01485" lon="-0.74655">
        <ele>861.8</ele>
        <time>2021-12-29T11:25:01.000Z</time>
      </trkpt>
      <trkpt lat="43.01485" lon="-0.74658">
        <ele>862.2</ele>
        <time>2021-12-29T11:25:02.000Z</time>
      </trkpt>
      <trkpt lat="43.01485" lon="-0.74661">
        <ele>862.4</ele>
        <time>2021-12-29T11:25:03.000Z</time>
      </trkpt>
      <trkpt lat="43.01486" lon="-0.74664">
        <ele>862.6</ele>
        <time>2021-12-29T11:25:04.000Z</time>
      </trkpt>
      <trkpt lat="43.01487" lon="-0.74667">
        <ele>862.8</ele>
        <time>2021-12-29T11:25:05.000Z</time>
      </trkpt>
      <trkpt lat="43.01488" lon="-0.7467">
        <ele>863</ele>
        <time>2021-12-29T11:25:06.000Z</time>
      </trkpt>
      <trkpt lat="43.01489" lon="-0.74673">
        <ele>863.2</ele>
        <time>2021-12-29T11:25:07.000Z</time>
      </trkpt>
      <trkpt lat="43.01491" lon="-0.74676">
        <ele>863.2</ele>
        <time>2021-12-29T11:25:08.000Z</time>
      </trkpt>
      <trkpt lat="43.01492" lon="-0.74679">
        <ele>863.4</ele>
        <time>2021-12-29T11:25:09.000Z</time>
      </trkpt>
      <trkpt lat="43.01494" lon="-0.74682">
        <ele>863.6</ele>
        <time>2021-12-29T11:25:10.000Z</time>
      </trkpt>
      <trkpt lat="43.01496" lon="-0.74685">
        <ele>863.8</ele>
        <time>2021-12-29T11:25:11.000Z</time>
      </trkpt>
      <trkpt lat="43.01498" lon="-0.74688">
        <ele>863.8</ele>
        <time>2021-12-29T11:25:12.000Z</time>
      </trkpt>
      <trkpt lat="43.01499" lon="-0.74691">
        <ele>864</ele>
        <time>2021-12-29T11:25:13.000Z</time>
      </trkpt>
      <trkpt lat="43.01501" lon="-0.74694">
        <ele>864.2</ele>
        <time>2021-12-29T11:25:14.000Z</time>
      </trkpt>
      <trkpt lat="43.01503" lon="-0.74697">
        <ele>864.4</ele>
        <time>2021-12-29T11:25:15.000Z</time>
      </trkpt>
      <trkpt lat="43.01505" lon="-0.74701">
        <ele>864.6</ele>
        <time>2021-12-29T11:25:16.000Z</time>
      </trkpt>
      <trkpt lat="43.01506" lon="-0.74704">
        <ele>864.8</ele>
        <time>2021-12-29T11:25:17.000Z</time>
      </trkpt>
      <trkpt lat="43.01508" lon="-0.74707">
        <ele>864.8</ele>
        <time>2021-12-29T11:25:18.000Z</time>
      </trkpt>
      <trkpt lat="43.0151" lon="-0.7471">
        <ele>865</ele>
        <time>2021-12-29T11:25:19.000Z</time>
      </trkpt>
      <trkpt lat="43.01512" lon="-0.74713">
        <ele>865.2</ele>
        <time>2021-12-29T11:25:20.000Z</time>
      </trkpt>
      <trkpt lat="43.01514" lon="-0.74716">
        <ele>865.2</ele>
        <time>2021-12-29T11:25:21.000Z</time>
      </trkpt>
      <trkpt lat="43.01517" lon="-0.74719">
        <ele>865.4</ele>
        <time>2021-12-29T11:25:22.000Z</time>
      </trkpt>
      <trkpt lat="43.01519" lon="-0.74722">
        <ele>865.6</ele>
        <time>2021-12-29T11:25:23.000Z</time>
      </trkpt>
      <trkpt lat="43.01521" lon="-0.74724">
        <ele>866</ele>
        <time>2021-12-29T11:25:24.000Z</time>
      </trkpt>
      <trkpt lat="43.01524" lon="-0.74727">
        <ele>866.2</ele>
        <time>2021-12-29T11:25:25.000Z</time>
      </trkpt>
      <trkpt lat="43.01526" lon="-0.74729">
        <ele>866.4</ele>
        <time>2021-12-29T11:25:26.000Z</time>
      </trkpt>
      <trkpt lat="43.01529" lon="-0.74732">
        <ele>866.8</ele>
        <time>2021-12-29T11:25:27.000Z</time>
      </trkpt>
      <trkpt lat="43.01531" lon="-0.74734">
        <ele>867</ele>
        <time>2021-12-29T11:25:28.000Z</time>
      </trkpt>
      <trkpt lat="43.01533" lon="-0.74737">
        <ele>867.4</ele>
        <time>2021-12-29T11:25:29.000Z</time>
      </trkpt>
      <trkpt lat="43.01536" lon="-0.7474">
        <ele>867.4</ele>
        <time>2021-12-29T11:25:30.000Z</time>
      </trkpt>
      <trkpt lat="43.01538" lon="-0.74742">
        <ele>867.8</ele>
        <time>2021-12-29T11:25:31.000Z</time>
      </trkpt>
      <trkpt lat="43.0154" lon="-0.74745">
        <ele>867.8</ele>
        <time>2021-12-29T11:25:32.000Z</time>
      </trkpt>
      <trkpt lat="43.01543" lon="-0.74748">
        <ele>868</ele>
        <time>2021-12-29T11:25:33.000Z</time>
      </trkpt>
      <trkpt lat="43.01545" lon="-0.74751">
        <ele>868.2</ele>
        <time>2021-12-29T11:25:34.000Z</time>
      </trkpt>
      <trkpt lat="43.01547" lon="-0.74753">
        <ele>868.4</ele>
        <time>2021-12-29T11:25:35.000Z</time>
      </trkpt>
      <trkpt lat="43.01549" lon="-0.74756">
        <ele>868.6</ele>
        <time>2021-12-29T11:25:36.000Z</time>
      </trkpt>
      <trkpt lat="43.01551" lon="-0.74759">
        <ele>868.8</ele>
        <time>2021-12-29T11:25:37.000Z</time>
      </trkpt>
      <trkpt lat="43.01553" lon="-0.74762">
        <ele>869</ele>
        <time>2021-12-29T11:25:38.000Z</time>
      </trkpt>
      <trkpt lat="43.01555" lon="-0.74764">
        <ele>869.2</ele>
        <time>2021-12-29T11:25:39.000Z</time>
      </trkpt>
      <trkpt lat="43.01557" lon="-0.74767">
        <ele>869.4</ele>
        <time>2021-12-29T11:25:40.000Z</time>
      </trkpt>
      <trkpt lat="43.01559" lon="-0.7477">
        <ele>869.4</ele>
        <time>2021-12-29T11:25:41.000Z</time>
      </trkpt>
      <trkpt lat="43.01561" lon="-0.74773">
        <ele>869.6</ele>
        <time>2021-12-29T11:25:42.000Z</time>
      </trkpt>
      <trkpt lat="43.01563" lon="-0.74776">
        <ele>869.8</ele>
        <time>2021-12-29T11:25:43.000Z</time>
      </trkpt>
      <trkpt lat="43.01564" lon="-0.74779">
        <ele>870</ele>
        <time>2021-12-29T11:25:44.000Z</time>
      </trkpt>
      <trkpt lat="43.01566" lon="-0.74782">
        <ele>870.2</ele>
        <time>2021-12-29T11:25:45.000Z</time>
      </trkpt>
      <trkpt lat="43.01568" lon="-0.74784">
        <ele>870.4</ele>
        <time>2021-12-29T11:25:46.000Z</time>
      </trkpt>
      <trkpt lat="43.0157" lon="-0.74787">
        <ele>870.6</ele>
        <time>2021-12-29T11:25:47.000Z</time>
      </trkpt>
      <trkpt lat="43.01572" lon="-0.74791">
        <ele>870.8</ele>
        <time>2021-12-29T11:25:48.000Z</time>
      </trkpt>
      <trkpt lat="43.01574" lon="-0.74793">
        <ele>871</ele>
        <time>2021-12-29T11:25:49.000Z</time>
      </trkpt>
      <trkpt lat="43.01575" lon="-0.74796">
        <ele>871.2</ele>
        <time>2021-12-29T11:25:50.000Z</time>
      </trkpt>
      <trkpt lat="43.01577" lon="-0.74799">
        <ele>871.4</ele>
        <time>2021-12-29T11:25:51.000Z</time>
      </trkpt>
      <trkpt lat="43.01579" lon="-0.74802">
        <ele>871.6</ele>
        <time>2021-12-29T11:25:52.000Z</time>
      </trkpt>
      <trkpt lat="43.01581" lon="-0.74805">
        <ele>871.6</ele>
        <time>2021-12-29T11:25:53.000Z</time>
      </trkpt>
      <trkpt lat="43.01583" lon="-0.74807">
        <ele>871.8</ele>
        <time>2021-12-29T11:25:54.000Z</time>
      </trkpt>
      <trkpt lat="43.01586" lon="-0.7481">
        <ele>872</ele>
        <time>2021-12-29T11:25:55.000Z</time>
      </trkpt>
      <trkpt lat="43.01588" lon="-0.74813">
        <ele>872</ele>
        <time>2021-12-29T11:25:56.000Z</time>
      </trkpt>
      <trkpt lat="43.0159" lon="-0.74816">
        <ele>872</ele>
        <time>2021-12-29T11:25:57.000Z</time>
      </trkpt>
      <trkpt lat="43.01592" lon="-0.7482">
        <ele>872.2</ele>
        <time>2021-12-29T11:25:58.000Z</time>
      </trkpt>
      <trkpt lat="43.01595" lon="-0.74823">
        <ele>872.2</ele>
        <time>2021-12-29T11:25:59.000Z</time>
      </trkpt>
      <trkpt lat="43.01597" lon="-0.74826">
        <ele>872.4</ele>
        <time>2021-12-29T11:26:00.000Z</time>
      </trkpt>
      <trkpt lat="43.01599" lon="-0.74829">
        <ele>872.4</ele>
        <time>2021-12-29T11:26:01.000Z</time>
      </trkpt>
      <trkpt lat="43.01601" lon="-0.74832">
        <ele>872.6</ele>
        <time>2021-12-29T11:26:02.000Z</time>
      </trkpt>
      <trkpt lat="43.01603" lon="-0.74835">
        <ele>872.6</ele>
        <time>2021-12-29T11:26:03.000Z</time>
      </trkpt>
      <trkpt lat="43.01605" lon="-0.74839">
        <ele>872.8</ele>
        <time>2021-12-29T11:26:04.000Z</time>
      </trkpt>
      <trkpt lat="43.01606" lon="-0.74843">
        <ele>872.8</ele>
        <time>2021-12-29T11:26:05.000Z</time>
      </trkpt>
      <trkpt lat="43.01606" lon="-0.74846">
        <ele>873</ele>
        <time>2021-12-29T11:26:06.000Z</time>
      </trkpt>
      <trkpt lat="43.01606" lon="-0.7485">
        <ele>873.2</ele>
        <time>2021-12-29T11:26:07.000Z</time>
      </trkpt>
      <trkpt lat="43.01606" lon="-0.74854">
        <ele>873.4</ele>
        <time>2021-12-29T11:26:08.000Z</time>
      </trkpt>
      <trkpt lat="43.01606" lon="-0.74858">
        <ele>873.6</ele>
        <time>2021-12-29T11:26:09.000Z</time>
      </trkpt>
      <trkpt lat="43.01605" lon="-0.74861">
        <ele>874</ele>
        <time>2021-12-29T11:26:10.000Z</time>
      </trkpt>
      <trkpt lat="43.01605" lon="-0.74862">
        <ele>874.2</ele>
        <time>2021-12-29T11:26:11.000Z</time>
      </trkpt>
      <trkpt lat="43.01605" lon="-0.74863">
        <ele>874.4</ele>
        <time>2021-12-29T11:26:12.000Z</time>
      </trkpt>
      <trkpt lat="43.01604" lon="-0.74864">
        <ele>874.6</ele>
        <time>2021-12-29T11:26:13.000Z</time>
      </trkpt>
      <trkpt lat="43.01604" lon="-0.74865">
        <ele>874.6</ele>
        <time>2021-12-29T11:26:14.000Z</time>
      </trkpt>
      <trkpt lat="43.01604" lon="-0.74865">
        <ele>874.6</ele>
        <time>2021-12-29T11:26:15.000Z</time>
      </trkpt>
      <trkpt lat="43.01604" lon="-0.74866">
        <ele>874.6</ele>
        <time>2021-12-29T11:26:16.000Z</time>
      </trkpt>
      <trkpt lat="43.01605" lon="-0.74866">
        <ele>874.6</ele>
        <time>2021-12-29T11:26:17.000Z</time>
      </trkpt>
      <trkpt lat="43.01605" lon="-0.74866">
        <ele>874.6</ele>
        <time>2021-12-29T11:26:18.000Z</time>
      </trkpt>
      <trkpt lat="43.01605" lon="-0.74867">
        <ele>874.6</ele>
        <time>2021-12-29T11:26:19.000Z</time>
      </trkpt>
      <trkpt lat="43.01605" lon="-0.74867">
        <ele>874.6</ele>
        <time>2021-12-29T11:26:20.000Z</time>
      </trkpt>
      <trkpt lat="43.01605" lon="-0.74867">
        <ele>874.6</ele>
        <time>2021-12-29T11:26:21.000Z</time>
      </trkpt>
      <trkpt lat="43.01604" lon="-0.74867">
        <ele>874.6</ele>
        <time>2021-12-29T11:37:28.000Z</time>
      </trkpt>
      <trkpt lat="43.01586" lon="-0.74861">
        <ele>874.2</ele>
        <time>2021-12-29T11:37:29.000Z</time>
      </trkpt>
      <trkpt lat="43.01584" lon="-0.74859">
        <ele>874.4</ele>
        <time>2021-12-29T11:37:30.000Z</time>
      </trkpt>
      <trkpt lat="43.01581" lon="-0.74858">
        <ele>874.4</ele>
        <time>2021-12-29T11:37:31.000Z</time>
      </trkpt>
      <trkpt lat="43.01579" lon="-0.74857">
        <ele>874.6</ele>
        <time>2021-12-29T11:37:32.000Z</time>
      </trkpt>
      <trkpt lat="43.01577" lon="-0.74855">
        <ele>874.8</ele>
        <time>2021-12-29T11:37:33.000Z</time>
      </trkpt>
      <trkpt lat="43.01575" lon="-0.74853">
        <ele>875</ele>
        <time>2021-12-29T11:37:34.000Z</time>
      </trkpt>
      <trkpt lat="43.01572" lon="-0.74851">
        <ele>875</ele>
        <time>2021-12-29T11:37:35.000Z</time>
      </trkpt>
      <trkpt lat="43.0157" lon="-0.74849">
        <ele>875.2</ele>
        <time>2021-12-29T11:37:36.000Z</time>
      </trkpt>
      <trkpt lat="43.01568" lon="-0.74847">
        <ele>875.4</ele>
        <time>2021-12-29T11:37:37.000Z</time>
      </trkpt>
      <trkpt lat="43.01566" lon="-0.74845">
        <ele>875.6</ele>
        <time>2021-12-29T11:37:38.000Z</time>
      </trkpt>
      <trkpt lat="43.01563" lon="-0.74843">
        <ele>875.8</ele>
        <time>2021-12-29T11:37:39.000Z</time>
      </trkpt>
      <trkpt lat="43.01561" lon="-0.74842">
        <ele>876</ele>
        <time>2021-12-29T11:37:40.000Z</time>
      </trkpt>
      <trkpt lat="43.01559" lon="-0.7484">
        <ele>876.2</ele>
        <time>2021-12-29T11:37:41.000Z</time>
      </trkpt>
      <trkpt lat="43.01557" lon="-0.74839">
        <ele>876.4</ele>
        <time>2021-12-29T11:37:42.000Z</time>
      </trkpt>
      <trkpt lat="43.01554" lon="-0.74837">
        <ele>876.6</ele>
        <time>2021-12-29T11:37:43.000Z</time>
      </trkpt>
      <trkpt lat="43.01552" lon="-0.74836">
        <ele>876.8</ele>
        <time>2021-12-29T11:37:44.000Z</time>
      </trkpt>
      <trkpt lat="43.0155" lon="-0.74835">
        <ele>877</ele>
        <time>2021-12-29T11:37:45.000Z</time>
      </trkpt>
      <trkpt lat="43.01548" lon="-0.74833">
        <ele>877.2</ele>
        <time>2021-12-29T11:37:46.000Z</time>
      </trkpt>
      <trkpt lat="43.01545" lon="-0.74832">
        <ele>877.4</ele>
        <time>2021-12-29T11:37:47.000Z</time>
      </trkpt>
      <trkpt lat="43.01543" lon="-0.74831">
        <ele>877.6</ele>
        <time>2021-12-29T11:37:48.000Z</time>
      </trkpt>
      <trkpt lat="43.01541" lon="-0.7483">
        <ele>877.8</ele>
        <time>2021-12-29T11:37:49.000Z</time>
      </trkpt>
      <trkpt lat="43.01538" lon="-0.7483">
        <ele>878.2</ele>
        <time>2021-12-29T11:37:50.000Z</time>
      </trkpt>
      <trkpt lat="43.01536" lon="-0.74829">
        <ele>878.4</ele>
        <time>2021-12-29T11:37:51.000Z</time>
      </trkpt>
      <trkpt lat="43.01534" lon="-0.74828">
        <ele>878.4</ele>
        <time>2021-12-29T11:37:52.000Z</time>
      </trkpt>
      <trkpt lat="43.01531" lon="-0.74827">
        <ele>878.8</ele>
        <time>2021-12-29T11:37:53.000Z</time>
      </trkpt>
      <trkpt lat="43.01529" lon="-0.74827">
        <ele>879</ele>
        <time>2021-12-29T11:37:54.000Z</time>
      </trkpt>
      <trkpt lat="43.01526" lon="-0.74826">
        <ele>879.2</ele>
        <time>2021-12-29T11:37:55.000Z</time>
      </trkpt>
      <trkpt lat="43.01524" lon="-0.74826">
        <ele>879.4</ele>
        <time>2021-12-29T11:37:56.000Z</time>
      </trkpt>
      <trkpt lat="43.01522" lon="-0.74826">
        <ele>879.6</ele>
        <time>2021-12-29T11:37:57.000Z</time>
      </trkpt>
      <trkpt lat="43.01519" lon="-0.74825">
        <ele>879.8</ele>
        <time>2021-12-29T11:37:58.000Z</time>
      </trkpt>
      <trkpt lat="43.01517" lon="-0.74825">
        <ele>880</ele>
        <time>2021-12-29T11:37:59.000Z</time>
      </trkpt>
      <trkpt lat="43.01515" lon="-0.74825">
        <ele>880.2</ele>
        <time>2021-12-29T11:38:00.000Z</time>
      </trkpt>
      <trkpt lat="43.01512" lon="-0.74825">
        <ele>880.4</ele>
        <time>2021-12-29T11:38:01.000Z</time>
      </trkpt>
      <trkpt lat="43.0151" lon="-0.74825">
        <ele>880.6</ele>
        <time>2021-12-29T11:38:02.000Z</time>
      </trkpt>
      <trkpt lat="43.01508" lon="-0.74825">
        <ele>880.8</ele>
        <time>2021-12-29T11:38:03.000Z</time>
      </trkpt>
      <trkpt lat="43.01505" lon="-0.74824">
        <ele>881</ele>
        <time>2021-12-29T11:38:04.000Z</time>
      </trkpt>
      <trkpt lat="43.01503" lon="-0.74824">
        <ele>881.2</ele>
        <time>2021-12-29T11:38:05.000Z</time>
      </trkpt>
      <trkpt lat="43.01501" lon="-0.74825">
        <ele>881.4</ele>
        <time>2021-12-29T11:38:06.000Z</time>
      </trkpt>
      <trkpt lat="43.01499" lon="-0.74825">
        <ele>881.6</ele>
        <time>2021-12-29T11:38:07.000Z</time>
      </trkpt>
      <trkpt lat="43.01497" lon="-0.74825">
        <ele>881.8</ele>
        <time>2021-12-29T11:38:08.000Z</time>
      </trkpt>
      <trkpt lat="43.01495" lon="-0.74825">
        <ele>882</ele>
        <time>2021-12-29T11:38:09.000Z</time>
      </trkpt>
      <trkpt lat="43.01493" lon="-0.74825">
        <ele>882.2</ele>
        <time>2021-12-29T11:38:10.000Z</time>
      </trkpt>
      <trkpt lat="43.0149" lon="-0.74825">
        <ele>882.6</ele>
        <time>2021-12-29T11:38:11.000Z</time>
      </trkpt>
      <trkpt lat="43.01488" lon="-0.74826">
        <ele>882.6</ele>
        <time>2021-12-29T11:38:12.000Z</time>
      </trkpt>
      <trkpt lat="43.01486" lon="-0.74826">
        <ele>882.8</ele>
        <time>2021-12-29T11:38:13.000Z</time>
      </trkpt>
      <trkpt lat="43.01484" lon="-0.74826">
        <ele>883.2</ele>
        <time>2021-12-29T11:38:14.000Z</time>
      </trkpt>
      <trkpt lat="43.01482" lon="-0.74826">
        <ele>883.2</ele>
        <time>2021-12-29T11:38:15.000Z</time>
      </trkpt>
      <trkpt lat="43.0148" lon="-0.74826">
        <ele>883.4</ele>
        <time>2021-12-29T11:38:16.000Z</time>
      </trkpt>
      <trkpt lat="43.01478" lon="-0.74826">
        <ele>883.6</ele>
        <time>2021-12-29T11:38:17.000Z</time>
      </trkpt>
      <trkpt lat="43.01476" lon="-0.74826">
        <ele>883.8</ele>
        <time>2021-12-29T11:38:18.000Z</time>
      </trkpt>
      <trkpt lat="43.01474" lon="-0.74826">
        <ele>883.8</ele>
        <time>2021-12-29T11:38:19.000Z</time>
      </trkpt>
      <trkpt lat="43.01471" lon="-0.74826">
        <ele>884.2</ele>
        <time>2021-12-29T11:38:20.000Z</time>
      </trkpt>
      <trkpt lat="43.01469" lon="-0.74826">
        <ele>884.2</ele>
        <time>2021-12-29T11:38:21.000Z</time>
      </trkpt>
      <trkpt lat="43.01467" lon="-0.74826">
        <ele>884.4</ele>
        <time>2021-12-29T11:38:22.000Z</time>
      </trkpt>
      <trkpt lat="43.01465" lon="-0.74826">
        <ele>884.6</ele>
        <time>2021-12-29T11:38:23.000Z</time>
      </trkpt>
      <trkpt lat="43.01463" lon="-0.74827">
        <ele>884.8</ele>
        <time>2021-12-29T11:38:24.000Z</time>
      </trkpt>
      <trkpt lat="43.01461" lon="-0.74827">
        <ele>885</ele>
        <time>2021-12-29T11:38:25.000Z</time>
      </trkpt>
      <trkpt lat="43.01458" lon="-0.74828">
        <ele>885.2</ele>
        <time>2021-12-29T11:38:26.000Z</time>
      </trkpt>
      <trkpt lat="43.01456" lon="-0.74829">
        <ele>885.4</ele>
        <time>2021-12-29T11:38:27.000Z</time>
      </trkpt>
      <trkpt lat="43.01454" lon="-0.74829">
        <ele>885.6</ele>
        <time>2021-12-29T11:38:28.000Z</time>
      </trkpt>
      <trkpt lat="43.01452" lon="-0.7483">
        <ele>885.8</ele>
        <time>2021-12-29T11:38:29.000Z</time>
      </trkpt>
      <trkpt lat="43.0145" lon="-0.74831">
        <ele>886</ele>
        <time>2021-12-29T11:38:30.000Z</time>
      </trkpt>
      <trkpt lat="43.01448" lon="-0.74832">
        <ele>886.2</ele>
        <time>2021-12-29T11:38:31.000Z</time>
      </trkpt>
      <trkpt lat="43.01446" lon="-0.74833">
        <ele>886.4</ele>
        <time>2021-12-29T11:38:32.000Z</time>
      </trkpt>
      <trkpt lat="43.01444" lon="-0.74834">
        <ele>886.6</ele>
        <time>2021-12-29T11:38:33.000Z</time>
      </trkpt>
      <trkpt lat="43.01442" lon="-0.74835">
        <ele>886.8</ele>
        <time>2021-12-29T11:38:34.000Z</time>
      </trkpt>
      <trkpt lat="43.0144" lon="-0.74836">
        <ele>887</ele>
        <time>2021-12-29T11:38:35.000Z</time>
      </trkpt>
      <trkpt lat="43.01439" lon="-0.74837">
        <ele>887.2</ele>
        <time>2021-12-29T11:38:36.000Z</time>
      </trkpt>
      <trkpt lat="43.01437" lon="-0.74838">
        <ele>887.2</ele>
        <time>2021-12-29T11:38:37.000Z</time>
      </trkpt>
      <trkpt lat="43.01435" lon="-0.7484">
        <ele>887.4</ele>
        <time>2021-12-29T11:38:38.000Z</time>
      </trkpt>
      <trkpt lat="43.01433" lon="-0.74841">
        <ele>887.6</ele>
        <time>2021-12-29T11:38:39.000Z</time>
      </trkpt>
      <trkpt lat="43.01431" lon="-0.74842">
        <ele>887.8</ele>
        <time>2021-12-29T11:38:40.000Z</time>
      </trkpt>
      <trkpt lat="43.01429" lon="-0.74842">
        <ele>888</ele>
        <time>2021-12-29T11:38:41.000Z</time>
      </trkpt>
      <trkpt lat="43.01427" lon="-0.74843">
        <ele>888.2</ele>
        <time>2021-12-29T11:38:42.000Z</time>
      </trkpt>
      <trkpt lat="43.01425" lon="-0.74843">
        <ele>888.4</ele>
        <time>2021-12-29T11:38:43.000Z</time>
      </trkpt>
      <trkpt lat="43.01423" lon="-0.74844">
        <ele>888.6</ele>
        <time>2021-12-29T11:38:44.000Z</time>
      </trkpt>
      <trkpt lat="43.01421" lon="-0.74844">
        <ele>888.8</ele>
        <time>2021-12-29T11:38:45.000Z</time>
      </trkpt>
      <trkpt lat="43.01419" lon="-0.74845">
        <ele>889</ele>
        <time>2021-12-29T11:38:46.000Z</time>
      </trkpt>
      <trkpt lat="43.01417" lon="-0.74845">
        <ele>889.2</ele>
        <time>2021-12-29T11:38:47.000Z</time>
      </trkpt>
      <trkpt lat="43.01415" lon="-0.74846">
        <ele>889.4</ele>
        <time>2021-12-29T11:38:48.000Z</time>
      </trkpt>
      <trkpt lat="43.01413" lon="-0.74846">
        <ele>889.6</ele>
        <time>2021-12-29T11:38:49.000Z</time>
      </trkpt>
      <trkpt lat="43.01411" lon="-0.74846">
        <ele>889.8</ele>
        <time>2021-12-29T11:38:50.000Z</time>
      </trkpt>
      <trkpt lat="43.01409" lon="-0.74846">
        <ele>890.2</ele>
        <time>2021-12-29T11:38:51.000Z</time>
      </trkpt>
      <trkpt lat="43.01407" lon="-0.74845">
        <ele>890.4</ele>
        <time>2021-12-29T11:38:52.000Z</time>
      </trkpt>
      <trkpt lat="43.01405" lon="-0.74845">
        <ele>890.6</ele>
        <time>2021-12-29T11:38:53.000Z</time>
      </trkpt>
      <trkpt lat="43.01403" lon="-0.74844">
        <ele>890.8</ele>
        <time>2021-12-29T11:38:54.000Z</time>
      </trkpt>
      <trkpt lat="43.01401" lon="-0.74844">
        <ele>890.8</ele>
        <time>2021-12-29T11:38:55.000Z</time>
      </trkpt>
      <trkpt lat="43.01398" lon="-0.74844">
        <ele>891</ele>
        <time>2021-12-29T11:38:56.000Z</time>
      </trkpt>
      <trkpt lat="43.01396" lon="-0.74843">
        <ele>891.2</ele>
        <time>2021-12-29T11:38:57.000Z</time>
      </trkpt>
      <trkpt lat="43.01394" lon="-0.74843">
        <ele>891.4</ele>
        <time>2021-12-29T11:38:58.000Z</time>
      </trkpt>
      <trkpt lat="43.01392" lon="-0.74842">
        <ele>891.4</ele>
        <time>2021-12-29T11:38:59.000Z</time>
      </trkpt>
      <trkpt lat="43.01389" lon="-0.74841">
        <ele>891.6</ele>
        <time>2021-12-29T11:39:00.000Z</time>
      </trkpt>
      <trkpt lat="43.01387" lon="-0.74841">
        <ele>891.8</ele>
        <time>2021-12-29T11:39:01.000Z</time>
      </trkpt>
      <trkpt lat="43.01385" lon="-0.7484">
        <ele>891.8</ele>
        <time>2021-12-29T11:39:02.000Z</time>
      </trkpt>
      <trkpt lat="43.01383" lon="-0.7484">
        <ele>892</ele>
        <time>2021-12-29T11:39:03.000Z</time>
      </trkpt>
      <trkpt lat="43.0138" lon="-0.7484">
        <ele>892.2</ele>
        <time>2021-12-29T11:39:04.000Z</time>
      </trkpt>
      <trkpt lat="43.01378" lon="-0.74839">
        <ele>892.2</ele>
        <time>2021-12-29T11:39:05.000Z</time>
      </trkpt>
      <trkpt lat="43.01376" lon="-0.74839">
        <ele>892.4</ele>
        <time>2021-12-29T11:39:06.000Z</time>
      </trkpt>
      <trkpt lat="43.01373" lon="-0.74839">
        <ele>892.8</ele>
        <time>2021-12-29T11:39:07.000Z</time>
      </trkpt>
      <trkpt lat="43.01371" lon="-0.74839">
        <ele>892.8</ele>
        <time>2021-12-29T11:39:08.000Z</time>
      </trkpt>
      <trkpt lat="43.01369" lon="-0.74839">
        <ele>893</ele>
        <time>2021-12-29T11:39:09.000Z</time>
      </trkpt>
      <trkpt lat="43.01367" lon="-0.74839">
        <ele>893.2</ele>
        <time>2021-12-29T11:39:10.000Z</time>
      </trkpt>
      <trkpt lat="43.01365" lon="-0.74839">
        <ele>893.4</ele>
        <time>2021-12-29T11:39:11.000Z</time>
      </trkpt>
      <trkpt lat="43.01363" lon="-0.74838">
        <ele>893.4</ele>
        <time>2021-12-29T11:39:12.000Z</time>
      </trkpt>
      <trkpt lat="43.01361" lon="-0.74838">
        <ele>893.6</ele>
        <time>2021-12-29T11:39:13.000Z</time>
      </trkpt>
      <trkpt lat="43.01359" lon="-0.74839">
        <ele>893.8</ele>
        <time>2021-12-29T11:39:14.000Z</time>
      </trkpt>
      <trkpt lat="43.01356" lon="-0.74839">
        <ele>894</ele>
        <time>2021-12-29T11:39:15.000Z</time>
      </trkpt>
      <trkpt lat="43.01354" lon="-0.74839">
        <ele>894.2</ele>
        <time>2021-12-29T11:39:16.000Z</time>
      </trkpt>
      <trkpt lat="43.01352" lon="-0.74839">
        <ele>894.4</ele>
        <time>2021-12-29T11:39:17.000Z</time>
      </trkpt>
      <trkpt lat="43.0135" lon="-0.74839">
        <ele>894.6</ele>
        <time>2021-12-29T11:39:18.000Z</time>
      </trkpt>
      <trkpt lat="43.01348" lon="-0.74838">
        <ele>894.8</ele>
        <time>2021-12-29T11:39:19.000Z</time>
      </trkpt>
      <trkpt lat="43.01345" lon="-0.74839">
        <ele>894.8</ele>
        <time>2021-12-29T11:39:20.000Z</time>
      </trkpt>
      <trkpt lat="43.01343" lon="-0.74839">
        <ele>895.2</ele>
        <time>2021-12-29T11:39:21.000Z</time>
      </trkpt>
      <trkpt lat="43.01341" lon="-0.74839">
        <ele>895.4</ele>
        <time>2021-12-29T11:39:22.000Z</time>
      </trkpt>
      <trkpt lat="43.01339" lon="-0.74839">
        <ele>895.6</ele>
        <time>2021-12-29T11:39:23.000Z</time>
      </trkpt>
      <trkpt lat="43.01337" lon="-0.74839">
        <ele>895.8</ele>
        <time>2021-12-29T11:39:24.000Z</time>
      </trkpt>
      <trkpt lat="43.01335" lon="-0.74838">
        <ele>896</ele>
        <time>2021-12-29T11:39:25.000Z</time>
      </trkpt>
      <trkpt lat="43.01332" lon="-0.74838">
        <ele>896.2</ele>
        <time>2021-12-29T11:39:26.000Z</time>
      </trkpt>
      <trkpt lat="43.0133" lon="-0.74839">
        <ele>896.4</ele>
        <time>2021-12-29T11:39:27.000Z</time>
      </trkpt>
      <trkpt lat="43.01328" lon="-0.74838">
        <ele>896.6</ele>
        <time>2021-12-29T11:39:28.000Z</time>
      </trkpt>
      <trkpt lat="43.01326" lon="-0.74838">
        <ele>896.8</ele>
        <time>2021-12-29T11:39:29.000Z</time>
      </trkpt>
      <trkpt lat="43.01324" lon="-0.74838">
        <ele>897</ele>
        <time>2021-12-29T11:39:30.000Z</time>
      </trkpt>
      <trkpt lat="43.01322" lon="-0.74838">
        <ele>897.2</ele>
        <time>2021-12-29T11:39:31.000Z</time>
      </trkpt>
      <trkpt lat="43.0132" lon="-0.74837">
        <ele>897.4</ele>
        <time>2021-12-29T11:39:32.000Z</time>
      </trkpt>
      <trkpt lat="43.01318" lon="-0.74837">
        <ele>897.6</ele>
        <time>2021-12-29T11:39:33.000Z</time>
      </trkpt>
      <trkpt lat="43.01315" lon="-0.74836">
        <ele>897.8</ele>
        <time>2021-12-29T11:39:34.000Z</time>
      </trkpt>
      <trkpt lat="43.01313" lon="-0.74836">
        <ele>898</ele>
        <time>2021-12-29T11:39:35.000Z</time>
      </trkpt>
      <trkpt lat="43.01311" lon="-0.74835">
        <ele>898.4</ele>
        <time>2021-12-29T11:39:36.000Z</time>
      </trkpt>
      <trkpt lat="43.01309" lon="-0.74835">
        <ele>898.6</ele>
        <time>2021-12-29T11:39:37.000Z</time>
      </trkpt>
      <trkpt lat="43.01307" lon="-0.74833">
        <ele>898.8</ele>
        <time>2021-12-29T11:39:38.000Z</time>
      </trkpt>
      <trkpt lat="43.01305" lon="-0.74832">
        <ele>899</ele>
        <time>2021-12-29T11:39:39.000Z</time>
      </trkpt>
      <trkpt lat="43.01303" lon="-0.74831">
        <ele>899.4</ele>
        <time>2021-12-29T11:39:40.000Z</time>
      </trkpt>
      <trkpt lat="43.01301" lon="-0.7483">
        <ele>899.6</ele>
        <time>2021-12-29T11:39:41.000Z</time>
      </trkpt>
      <trkpt lat="43.013" lon="-0.74829">
        <ele>899.8</ele>
        <time>2021-12-29T11:39:42.000Z</time>
      </trkpt>
      <trkpt lat="43.01298" lon="-0.74828">
        <ele>900.2</ele>
        <time>2021-12-29T11:39:43.000Z</time>
      </trkpt>
      <trkpt lat="43.01296" lon="-0.74826">
        <ele>900.4</ele>
        <time>2021-12-29T11:39:44.000Z</time>
      </trkpt>
      <trkpt lat="43.01294" lon="-0.74825">
        <ele>900.6</ele>
        <time>2021-12-29T11:39:45.000Z</time>
      </trkpt>
      <trkpt lat="43.01292" lon="-0.74823">
        <ele>900.8</ele>
        <time>2021-12-29T11:39:46.000Z</time>
      </trkpt>
      <trkpt lat="43.0129" lon="-0.74821">
        <ele>901</ele>
        <time>2021-12-29T11:39:47.000Z</time>
      </trkpt>
      <trkpt lat="43.01289" lon="-0.74819">
        <ele>901.2</ele>
        <time>2021-12-29T11:39:48.000Z</time>
      </trkpt>
      <trkpt lat="43.01287" lon="-0.74818">
        <ele>901.4</ele>
        <time>2021-12-29T11:39:49.000Z</time>
      </trkpt>
      <trkpt lat="43.01285" lon="-0.74816">
        <ele>901.6</ele>
        <time>2021-12-29T11:39:50.000Z</time>
      </trkpt>
      <trkpt lat="43.01284" lon="-0.74814">
        <ele>901.6</ele>
        <time>2021-12-29T11:39:51.000Z</time>
      </trkpt>
      <trkpt lat="43.01282" lon="-0.74812">
        <ele>901.8</ele>
        <time>2021-12-29T11:39:52.000Z</time>
      </trkpt>
      <trkpt lat="43.0128" lon="-0.7481">
        <ele>902</ele>
        <time>2021-12-29T11:39:53.000Z</time>
      </trkpt>
      <trkpt lat="43.01279" lon="-0.74807">
        <ele>902.2</ele>
        <time>2021-12-29T11:39:54.000Z</time>
      </trkpt>
      <trkpt lat="43.01277" lon="-0.74805">
        <ele>902.4</ele>
        <time>2021-12-29T11:39:55.000Z</time>
      </trkpt>
      <trkpt lat="43.01275" lon="-0.74803">
        <ele>902.6</ele>
        <time>2021-12-29T11:39:56.000Z</time>
      </trkpt>
      <trkpt lat="43.01274" lon="-0.74801">
        <ele>902.6</ele>
        <time>2021-12-29T11:39:57.000Z</time>
      </trkpt>
      <trkpt lat="43.01272" lon="-0.74799">
        <ele>902.8</ele>
        <time>2021-12-29T11:39:58.000Z</time>
      </trkpt>
      <trkpt lat="43.0127" lon="-0.74797">
        <ele>903</ele>
        <time>2021-12-29T11:39:59.000Z</time>
      </trkpt>
      <trkpt lat="43.01269" lon="-0.74795">
        <ele>903.2</ele>
        <time>2021-12-29T11:40:00.000Z</time>
      </trkpt>
      <trkpt lat="43.01267" lon="-0.74794">
        <ele>903.4</ele>
        <time>2021-12-29T11:40:01.000Z</time>
      </trkpt>
      <trkpt lat="43.01265" lon="-0.74792">
        <ele>903.6</ele>
        <time>2021-12-29T11:40:02.000Z</time>
      </trkpt>
      <trkpt lat="43.01263" lon="-0.7479">
        <ele>903.6</ele>
        <time>2021-12-29T11:40:03.000Z</time>
      </trkpt>
      <trkpt lat="43.01262" lon="-0.74788">
        <ele>903.8</ele>
        <time>2021-12-29T11:40:04.000Z</time>
      </trkpt>
      <trkpt lat="43.0126" lon="-0.74786">
        <ele>904</ele>
        <time>2021-12-29T11:40:05.000Z</time>
      </trkpt>
      <trkpt lat="43.01258" lon="-0.74785">
        <ele>904.2</ele>
        <time>2021-12-29T11:40:06.000Z</time>
      </trkpt>
      <trkpt lat="43.01256" lon="-0.74783">
        <ele>904.4</ele>
        <time>2021-12-29T11:40:07.000Z</time>
      </trkpt>
      <trkpt lat="43.01254" lon="-0.74782">
        <ele>904.6</ele>
        <time>2021-12-29T11:40:08.000Z</time>
      </trkpt>
      <trkpt lat="43.01252" lon="-0.74781">
        <ele>904.8</ele>
        <time>2021-12-29T11:40:09.000Z</time>
      </trkpt>
      <trkpt lat="43.0125" lon="-0.74779">
        <ele>905</ele>
        <time>2021-12-29T11:40:10.000Z</time>
      </trkpt>
      <trkpt lat="43.01248" lon="-0.74778">
        <ele>905.2</ele>
        <time>2021-12-29T11:40:11.000Z</time>
      </trkpt>
      <trkpt lat="43.01246" lon="-0.74777">
        <ele>905.6</ele>
        <time>2021-12-29T11:40:12.000Z</time>
      </trkpt>
      <trkpt lat="43.01244" lon="-0.74776">
        <ele>905.8</ele>
        <time>2021-12-29T11:40:13.000Z</time>
      </trkpt>
      <trkpt lat="43.01242" lon="-0.74775">
        <ele>906</ele>
        <time>2021-12-29T11:40:14.000Z</time>
      </trkpt>
      <trkpt lat="43.01239" lon="-0.74774">
        <ele>906.2</ele>
        <time>2021-12-29T11:40:15.000Z</time>
      </trkpt>
      <trkpt lat="43.01237" lon="-0.74774">
        <ele>906.4</ele>
        <time>2021-12-29T11:40:16.000Z</time>
      </trkpt>
      <trkpt lat="43.01235" lon="-0.74773">
        <ele>906.6</ele>
        <time>2021-12-29T11:40:17.000Z</time>
      </trkpt>
      <trkpt lat="43.01233" lon="-0.74773">
        <ele>906.8</ele>
        <time>2021-12-29T11:40:18.000Z</time>
      </trkpt>
      <trkpt lat="43.0123" lon="-0.74773">
        <ele>907</ele>
        <time>2021-12-29T11:40:19.000Z</time>
      </trkpt>
      <trkpt lat="43.01228" lon="-0.74772">
        <ele>907.2</ele>
        <time>2021-12-29T11:40:20.000Z</time>
      </trkpt>
      <trkpt lat="43.01227" lon="-0.74773">
        <ele>907.2</ele>
        <time>2021-12-29T11:40:21.000Z</time>
      </trkpt>
      <trkpt lat="43.01225" lon="-0.74774">
        <ele>907.4</ele>
        <time>2021-12-29T11:40:22.000Z</time>
      </trkpt>
      <trkpt lat="43.01224" lon="-0.74776">
        <ele>907.6</ele>
        <time>2021-12-29T11:40:23.000Z</time>
      </trkpt>
      <trkpt lat="43.01224" lon="-0.74778">
        <ele>907.8</ele>
        <time>2021-12-29T11:40:24.000Z</time>
      </trkpt>
      <trkpt lat="43.01224" lon="-0.7478">
        <ele>907.8</ele>
        <time>2021-12-29T11:40:25.000Z</time>
      </trkpt>
      <trkpt lat="43.01224" lon="-0.74783">
        <ele>908</ele>
        <time>2021-12-29T11:40:26.000Z</time>
      </trkpt>
      <trkpt lat="43.01225" lon="-0.74785">
        <ele>908.2</ele>
        <time>2021-12-29T11:40:27.000Z</time>
      </trkpt>
      <trkpt lat="43.01226" lon="-0.74786">
        <ele>908.4</ele>
        <time>2021-12-29T11:40:28.000Z</time>
      </trkpt>
      <trkpt lat="43.01227" lon="-0.74787">
        <ele>908.6</ele>
        <time>2021-12-29T11:40:29.000Z</time>
      </trkpt>
      <trkpt lat="43.01228" lon="-0.74789">
        <ele>908.8</ele>
        <time>2021-12-29T11:40:30.000Z</time>
      </trkpt>
      <trkpt lat="43.01229" lon="-0.7479">
        <ele>909</ele>
        <time>2021-12-29T11:40:31.000Z</time>
      </trkpt>
      <trkpt lat="43.0123" lon="-0.74792">
        <ele>909.2</ele>
        <time>2021-12-29T11:40:32.000Z</time>
      </trkpt>
      <trkpt lat="43.01231" lon="-0.74793">
        <ele>909.4</ele>
        <time>2021-12-29T11:40:33.000Z</time>
      </trkpt>
      <trkpt lat="43.01232" lon="-0.74795">
        <ele>909.6</ele>
        <time>2021-12-29T11:40:34.000Z</time>
      </trkpt>
      <trkpt lat="43.01233" lon="-0.74796">
        <ele>909.8</ele>
        <time>2021-12-29T11:40:35.000Z</time>
      </trkpt>
      <trkpt lat="43.01234" lon="-0.74797">
        <ele>910</ele>
        <time>2021-12-29T11:40:36.000Z</time>
      </trkpt>
      <trkpt lat="43.01235" lon="-0.74799">
        <ele>910.4</ele>
        <time>2021-12-29T11:40:37.000Z</time>
      </trkpt>
      <trkpt lat="43.01236" lon="-0.74801">
        <ele>910.6</ele>
        <time>2021-12-29T11:40:38.000Z</time>
      </trkpt>
      <trkpt lat="43.01237" lon="-0.74803">
        <ele>910.6</ele>
        <time>2021-12-29T11:40:39.000Z</time>
      </trkpt>
      <trkpt lat="43.01238" lon="-0.74805">
        <ele>911</ele>
        <time>2021-12-29T11:40:40.000Z</time>
      </trkpt>
      <trkpt lat="43.01239" lon="-0.74807">
        <ele>911</ele>
        <time>2021-12-29T11:40:41.000Z</time>
      </trkpt>
      <trkpt lat="43.0124" lon="-0.74809">
        <ele>911.2</ele>
        <time>2021-12-29T11:40:42.000Z</time>
      </trkpt>
      <trkpt lat="43.01241" lon="-0.7481">
        <ele>911.4</ele>
        <time>2021-12-29T11:40:43.000Z</time>
      </trkpt>
      <trkpt lat="43.01242" lon="-0.74812">
        <ele>911.4</ele>
        <time>2021-12-29T11:40:44.000Z</time>
      </trkpt>
      <trkpt lat="43.01243" lon="-0.74814">
        <ele>911.6</ele>
        <time>2021-12-29T11:40:45.000Z</time>
      </trkpt>
      <trkpt lat="43.01243" lon="-0.74816">
        <ele>911.8</ele>
        <time>2021-12-29T11:40:46.000Z</time>
      </trkpt>
      <trkpt lat="43.01244" lon="-0.74818">
        <ele>912</ele>
        <time>2021-12-29T11:40:47.000Z</time>
      </trkpt>
      <trkpt lat="43.01244" lon="-0.7482">
        <ele>912</ele>
        <time>2021-12-29T11:40:48.000Z</time>
      </trkpt>
      <trkpt lat="43.01245" lon="-0.74823">
        <ele>912.2</ele>
        <time>2021-12-29T11:40:49.000Z</time>
      </trkpt>
      <trkpt lat="43.01246" lon="-0.74825">
        <ele>912.4</ele>
        <time>2021-12-29T11:40:50.000Z</time>
      </trkpt>
      <trkpt lat="43.01246" lon="-0.74827">
        <ele>912.6</ele>
        <time>2021-12-29T11:40:51.000Z</time>
      </trkpt>
      <trkpt lat="43.01246" lon="-0.74829">
        <ele>912.6</ele>
        <time>2021-12-29T11:40:52.000Z</time>
      </trkpt>
      <trkpt lat="43.01247" lon="-0.74831">
        <ele>912.8</ele>
        <time>2021-12-29T11:40:53.000Z</time>
      </trkpt>
      <trkpt lat="43.01248" lon="-0.74832">
        <ele>913</ele>
        <time>2021-12-29T11:40:54.000Z</time>
      </trkpt>
      <trkpt lat="43.01248" lon="-0.74834">
        <ele>913.2</ele>
        <time>2021-12-29T11:40:55.000Z</time>
      </trkpt>
      <trkpt lat="43.0125" lon="-0.74836">
        <ele>913.2</ele>
        <time>2021-12-29T11:40:56.000Z</time>
      </trkpt>
      <trkpt lat="43.0125" lon="-0.74838">
        <ele>913.4</ele>
        <time>2021-12-29T11:40:57.000Z</time>
      </trkpt>
      <trkpt lat="43.01251" lon="-0.7484">
        <ele>913.6</ele>
        <time>2021-12-29T11:40:58.000Z</time>
      </trkpt>
      <trkpt lat="43.01251" lon="-0.74842">
        <ele>913.8</ele>
        <time>2021-12-29T11:40:59.000Z</time>
      </trkpt>
      <trkpt lat="43.01252" lon="-0.74843">
        <ele>914</ele>
        <time>2021-12-29T11:41:00.000Z</time>
      </trkpt>
      <trkpt lat="43.01253" lon="-0.74845">
        <ele>914</ele>
        <time>2021-12-29T11:41:01.000Z</time>
      </trkpt>
      <trkpt lat="43.01254" lon="-0.74847">
        <ele>914.4</ele>
        <time>2021-12-29T11:41:02.000Z</time>
      </trkpt>
      <trkpt lat="43.01255" lon="-0.74848">
        <ele>914.4</ele>
        <time>2021-12-29T11:41:03.000Z</time>
      </trkpt>
      <trkpt lat="43.01256" lon="-0.7485">
        <ele>914.6</ele>
        <time>2021-12-29T11:41:04.000Z</time>
      </trkpt>
      <trkpt lat="43.01257" lon="-0.74851">
        <ele>915</ele>
        <time>2021-12-29T11:41:05.000Z</time>
      </trkpt>
      <trkpt lat="43.01258" lon="-0.74853">
        <ele>915.2</ele>
        <time>2021-12-29T11:41:06.000Z</time>
      </trkpt>
      <trkpt lat="43.01259" lon="-0.74854">
        <ele>915.2</ele>
        <time>2021-12-29T11:41:07.000Z</time>
      </trkpt>
      <trkpt lat="43.0126" lon="-0.74856">
        <ele>915.4</ele>
        <time>2021-12-29T11:41:08.000Z</time>
      </trkpt>
      <trkpt lat="43.0126" lon="-0.74857">
        <ele>915.6</ele>
        <time>2021-12-29T11:41:09.000Z</time>
      </trkpt>
      <trkpt lat="43.01262" lon="-0.74859">
        <ele>915.8</ele>
        <time>2021-12-29T11:41:10.000Z</time>
      </trkpt>
      <trkpt lat="43.01263" lon="-0.7486">
        <ele>916</ele>
        <time>2021-12-29T11:41:11.000Z</time>
      </trkpt>
      <trkpt lat="43.01264" lon="-0.74861">
        <ele>916.2</ele>
        <time>2021-12-29T11:41:12.000Z</time>
      </trkpt>
      <trkpt lat="43.01265" lon="-0.74862">
        <ele>916.4</ele>
        <time>2021-12-29T11:41:13.000Z</time>
      </trkpt>
      <trkpt lat="43.01266" lon="-0.74864">
        <ele>916.6</ele>
        <time>2021-12-29T11:41:14.000Z</time>
      </trkpt>
      <trkpt lat="43.01267" lon="-0.74865">
        <ele>916.8</ele>
        <time>2021-12-29T11:41:15.000Z</time>
      </trkpt>
      <trkpt lat="43.01269" lon="-0.74866">
        <ele>917</ele>
        <time>2021-12-29T11:41:16.000Z</time>
      </trkpt>
      <trkpt lat="43.0127" lon="-0.74868">
        <ele>917.2</ele>
        <time>2021-12-29T11:41:17.000Z</time>
      </trkpt>
      <trkpt lat="43.01271" lon="-0.74869">
        <ele>917.4</ele>
        <time>2021-12-29T11:41:18.000Z</time>
      </trkpt>
      <trkpt lat="43.01272" lon="-0.7487">
        <ele>917.6</ele>
        <time>2021-12-29T11:41:19.000Z</time>
      </trkpt>
      <trkpt lat="43.01274" lon="-0.74871">
        <ele>917.6</ele>
        <time>2021-12-29T11:41:20.000Z</time>
      </trkpt>
      <trkpt lat="43.01275" lon="-0.74872">
        <ele>917.8</ele>
        <time>2021-12-29T11:41:21.000Z</time>
      </trkpt>
      <trkpt lat="43.01276" lon="-0.74873">
        <ele>918</ele>
        <time>2021-12-29T11:41:22.000Z</time>
      </trkpt>
      <trkpt lat="43.01278" lon="-0.74874">
        <ele>918.2</ele>
        <time>2021-12-29T11:41:23.000Z</time>
      </trkpt>
      <trkpt lat="43.01279" lon="-0.74875">
        <ele>918.4</ele>
        <time>2021-12-29T11:41:24.000Z</time>
      </trkpt>
      <trkpt lat="43.0128" lon="-0.74876">
        <ele>918.4</ele>
        <time>2021-12-29T11:41:25.000Z</time>
      </trkpt>
      <trkpt lat="43.01282" lon="-0.74877">
        <ele>918.6</ele>
        <time>2021-12-29T11:41:26.000Z</time>
      </trkpt>
      <trkpt lat="43.01283" lon="-0.74879">
        <ele>918.8</ele>
        <time>2021-12-29T11:41:27.000Z</time>
      </trkpt>
      <trkpt lat="43.01284" lon="-0.7488">
        <ele>919</ele>
        <time>2021-12-29T11:41:28.000Z</time>
      </trkpt>
      <trkpt lat="43.01286" lon="-0.74881">
        <ele>919.2</ele>
        <time>2021-12-29T11:41:29.000Z</time>
      </trkpt>
      <trkpt lat="43.01287" lon="-0.74882">
        <ele>919.2</ele>
        <time>2021-12-29T11:41:30.000Z</time>
      </trkpt>
      <trkpt lat="43.01289" lon="-0.74883">
        <ele>919.6</ele>
        <time>2021-12-29T11:41:31.000Z</time>
      </trkpt>
      <trkpt lat="43.0129" lon="-0.74884">
        <ele>919.8</ele>
        <time>2021-12-29T11:41:32.000Z</time>
      </trkpt>
      <trkpt lat="43.01292" lon="-0.74885">
        <ele>919.8</ele>
        <time>2021-12-29T11:41:33.000Z</time>
      </trkpt>
      <trkpt lat="43.01293" lon="-0.74885">
        <ele>920</ele>
        <time>2021-12-29T11:41:34.000Z</time>
      </trkpt>
      <trkpt lat="43.01295" lon="-0.74886">
        <ele>920</ele>
        <time>2021-12-29T11:41:35.000Z</time>
      </trkpt>
      <trkpt lat="43.01296" lon="-0.74887">
        <ele>920.2</ele>
        <time>2021-12-29T11:41:36.000Z</time>
      </trkpt>
      <trkpt lat="43.01298" lon="-0.74887">
        <ele>920.4</ele>
        <time>2021-12-29T11:41:37.000Z</time>
      </trkpt>
      <trkpt lat="43.013" lon="-0.74888">
        <ele>920.4</ele>
        <time>2021-12-29T11:41:38.000Z</time>
      </trkpt>
      <trkpt lat="43.01301" lon="-0.74889">
        <ele>920.4</ele>
        <time>2021-12-29T11:41:39.000Z</time>
      </trkpt>
      <trkpt lat="43.01303" lon="-0.74889">
        <ele>920.6</ele>
        <time>2021-12-29T11:41:40.000Z</time>
      </trkpt>
      <trkpt lat="43.01305" lon="-0.7489">
        <ele>920.6</ele>
        <time>2021-12-29T11:41:41.000Z</time>
      </trkpt>
      <trkpt lat="43.01307" lon="-0.74891">
        <ele>920.8</ele>
        <time>2021-12-29T11:41:42.000Z</time>
      </trkpt>
      <trkpt lat="43.01308" lon="-0.74892">
        <ele>920.8</ele>
        <time>2021-12-29T11:41:43.000Z</time>
      </trkpt>
      <trkpt lat="43.0131" lon="-0.74892">
        <ele>921</ele>
        <time>2021-12-29T11:41:44.000Z</time>
      </trkpt>
      <trkpt lat="43.01312" lon="-0.74893">
        <ele>921</ele>
        <time>2021-12-29T11:41:45.000Z</time>
      </trkpt>
      <trkpt lat="43.01313" lon="-0.74894">
        <ele>921.2</ele>
        <time>2021-12-29T11:41:46.000Z</time>
      </trkpt>
      <trkpt lat="43.01315" lon="-0.74895">
        <ele>921.2</ele>
        <time>2021-12-29T11:41:47.000Z</time>
      </trkpt>
      <trkpt lat="43.01317" lon="-0.74896">
        <ele>921.4</ele>
        <time>2021-12-29T11:41:48.000Z</time>
      </trkpt>
      <trkpt lat="43.01318" lon="-0.74897">
        <ele>921.6</ele>
        <time>2021-12-29T11:41:49.000Z</time>
      </trkpt>
      <trkpt lat="43.0132" lon="-0.74898">
        <ele>921.6</ele>
        <time>2021-12-29T11:41:50.000Z</time>
      </trkpt>
      <trkpt lat="43.01322" lon="-0.74899">
        <ele>921.8</ele>
        <time>2021-12-29T11:41:51.000Z</time>
      </trkpt>
      <trkpt lat="43.01323" lon="-0.749">
        <ele>921.8</ele>
        <time>2021-12-29T11:41:52.000Z</time>
      </trkpt>
      <trkpt lat="43.01325" lon="-0.74901">
        <ele>922</ele>
        <time>2021-12-29T11:41:53.000Z</time>
      </trkpt>
      <trkpt lat="43.01327" lon="-0.74901">
        <ele>922.2</ele>
        <time>2021-12-29T11:41:54.000Z</time>
      </trkpt>
      <trkpt lat="43.01328" lon="-0.74902">
        <ele>922.2</ele>
        <time>2021-12-29T11:41:55.000Z</time>
      </trkpt>
      <trkpt lat="43.0133" lon="-0.74903">
        <ele>922.4</ele>
        <time>2021-12-29T11:41:56.000Z</time>
      </trkpt>
      <trkpt lat="43.01331" lon="-0.74904">
        <ele>922.6</ele>
        <time>2021-12-29T11:41:57.000Z</time>
      </trkpt>
      <trkpt lat="43.01332" lon="-0.74905">
        <ele>922.8</ele>
        <time>2021-12-29T11:41:58.000Z</time>
      </trkpt>
      <trkpt lat="43.01334" lon="-0.74906">
        <ele>923</ele>
        <time>2021-12-29T11:41:59.000Z</time>
      </trkpt>
      <trkpt lat="43.01335" lon="-0.74907">
        <ele>923</ele>
        <time>2021-12-29T11:42:00.000Z</time>
      </trkpt>
      <trkpt lat="43.01337" lon="-0.74908">
        <ele>923.2</ele>
        <time>2021-12-29T11:42:01.000Z</time>
      </trkpt>
      <trkpt lat="43.01338" lon="-0.74909">
        <ele>923.4</ele>
        <time>2021-12-29T11:42:02.000Z</time>
      </trkpt>
      <trkpt lat="43.0134" lon="-0.7491">
        <ele>923.4</ele>
        <time>2021-12-29T11:42:03.000Z</time>
      </trkpt>
      <trkpt lat="43.01341" lon="-0.74911">
        <ele>923.6</ele>
        <time>2021-12-29T11:42:04.000Z</time>
      </trkpt>
      <trkpt lat="43.01343" lon="-0.74913">
        <ele>923.8</ele>
        <time>2021-12-29T11:42:05.000Z</time>
      </trkpt>
      <trkpt lat="43.01344" lon="-0.74914">
        <ele>924</ele>
        <time>2021-12-29T11:42:06.000Z</time>
      </trkpt>
      <trkpt lat="43.01345" lon="-0.74916">
        <ele>924</ele>
        <time>2021-12-29T11:42:07.000Z</time>
      </trkpt>
      <trkpt lat="43.01346" lon="-0.74917">
        <ele>924.2</ele>
        <time>2021-12-29T11:42:08.000Z</time>
      </trkpt>
      <trkpt lat="43.01347" lon="-0.74918">
        <ele>924.4</ele>
        <time>2021-12-29T11:42:09.000Z</time>
      </trkpt>
      <trkpt lat="43.01349" lon="-0.7492">
        <ele>924.6</ele>
        <time>2021-12-29T11:42:10.000Z</time>
      </trkpt>
      <trkpt lat="43.0135" lon="-0.7492">
        <ele>924.6</ele>
        <time>2021-12-29T11:42:11.000Z</time>
      </trkpt>
      <trkpt lat="43.01351" lon="-0.74921">
        <ele>924.8</ele>
        <time>2021-12-29T11:42:12.000Z</time>
      </trkpt>
      <trkpt lat="43.01353" lon="-0.74923">
        <ele>925</ele>
        <time>2021-12-29T11:42:13.000Z</time>
      </trkpt>
      <trkpt lat="43.01354" lon="-0.74924">
        <ele>925</ele>
        <time>2021-12-29T11:42:14.000Z</time>
      </trkpt>
      <trkpt lat="43.01355" lon="-0.74925">
        <ele>925.2</ele>
        <time>2021-12-29T11:42:15.000Z</time>
      </trkpt>
      <trkpt lat="43.01356" lon="-0.74927">
        <ele>925.4</ele>
        <time>2021-12-29T11:42:16.000Z</time>
      </trkpt>
      <trkpt lat="43.01357" lon="-0.74928">
        <ele>925.6</ele>
        <time>2021-12-29T11:42:17.000Z</time>
      </trkpt>
      <trkpt lat="43.01358" lon="-0.7493">
        <ele>925.8</ele>
        <time>2021-12-29T11:42:18.000Z</time>
      </trkpt>
      <trkpt lat="43.01359" lon="-0.74931">
        <ele>925.8</ele>
        <time>2021-12-29T11:42:19.000Z</time>
      </trkpt>
      <trkpt lat="43.01361" lon="-0.74933">
        <ele>926</ele>
        <time>2021-12-29T11:42:20.000Z</time>
      </trkpt>
      <trkpt lat="43.01362" lon="-0.74934">
        <ele>926.2</ele>
        <time>2021-12-29T11:42:21.000Z</time>
      </trkpt>
      <trkpt lat="43.01363" lon="-0.74935">
        <ele>926.4</ele>
        <time>2021-12-29T11:42:22.000Z</time>
      </trkpt>
      <trkpt lat="43.01364" lon="-0.74937">
        <ele>926.6</ele>
        <time>2021-12-29T11:42:23.000Z</time>
      </trkpt>
      <trkpt lat="43.01364" lon="-0.74939">
        <ele>926.8</ele>
        <time>2021-12-29T11:42:24.000Z</time>
      </trkpt>
      <trkpt lat="43.01365" lon="-0.7494">
        <ele>926.8</ele>
        <time>2021-12-29T11:42:25.000Z</time>
      </trkpt>
      <trkpt lat="43.01366" lon="-0.74942">
        <ele>927</ele>
        <time>2021-12-29T11:42:26.000Z</time>
      </trkpt>
      <trkpt lat="43.01367" lon="-0.74944">
        <ele>927.2</ele>
        <time>2021-12-29T11:42:27.000Z</time>
      </trkpt>
      <trkpt lat="43.01368" lon="-0.74945">
        <ele>927.4</ele>
        <time>2021-12-29T11:42:28.000Z</time>
      </trkpt>
      <trkpt lat="43.01369" lon="-0.74947">
        <ele>927.6</ele>
        <time>2021-12-29T11:42:29.000Z</time>
      </trkpt>
      <trkpt lat="43.01369" lon="-0.74948">
        <ele>927.6</ele>
        <time>2021-12-29T11:42:30.000Z</time>
      </trkpt>
      <trkpt lat="43.0137" lon="-0.74949">
        <ele>927.8</ele>
        <time>2021-12-29T11:42:31.000Z</time>
      </trkpt>
      <trkpt lat="43.01371" lon="-0.74951">
        <ele>928</ele>
        <time>2021-12-29T11:42:32.000Z</time>
      </trkpt>
      <trkpt lat="43.01371" lon="-0.74952">
        <ele>928.2</ele>
        <time>2021-12-29T11:42:33.000Z</time>
      </trkpt>
      <trkpt lat="43.01372" lon="-0.74954">
        <ele>928.4</ele>
        <time>2021-12-29T11:42:34.000Z</time>
      </trkpt>
      <trkpt lat="43.01372" lon="-0.74955">
        <ele>928.6</ele>
        <time>2021-12-29T11:42:35.000Z</time>
      </trkpt>
      <trkpt lat="43.01372" lon="-0.74957">
        <ele>928.8</ele>
        <time>2021-12-29T11:42:36.000Z</time>
      </trkpt>
      <trkpt lat="43.01372" lon="-0.74959">
        <ele>929</ele>
        <time>2021-12-29T11:42:37.000Z</time>
      </trkpt>
      <trkpt lat="43.01373" lon="-0.7496">
        <ele>929.2</ele>
        <time>2021-12-29T11:42:38.000Z</time>
      </trkpt>
      <trkpt lat="43.01374" lon="-0.74962">
        <ele>929.2</ele>
        <time>2021-12-29T11:42:39.000Z</time>
      </trkpt>
      <trkpt lat="43.01374" lon="-0.74963">
        <ele>929.4</ele>
        <time>2021-12-29T11:42:40.000Z</time>
      </trkpt>
      <trkpt lat="43.01375" lon="-0.74965">
        <ele>929.6</ele>
        <time>2021-12-29T11:42:41.000Z</time>
      </trkpt>
      <trkpt lat="43.01376" lon="-0.74967">
        <ele>929.8</ele>
        <time>2021-12-29T11:42:42.000Z</time>
      </trkpt>
      <trkpt lat="43.01376" lon="-0.74968">
        <ele>930</ele>
        <time>2021-12-29T11:42:43.000Z</time>
      </trkpt>
      <trkpt lat="43.01377" lon="-0.74969">
        <ele>930.2</ele>
        <time>2021-12-29T11:42:44.000Z</time>
      </trkpt>
      <trkpt lat="43.01378" lon="-0.74971">
        <ele>930.4</ele>
        <time>2021-12-29T11:42:45.000Z</time>
      </trkpt>
      <trkpt lat="43.01378" lon="-0.74972">
        <ele>930.6</ele>
        <time>2021-12-29T11:42:46.000Z</time>
      </trkpt>
      <trkpt lat="43.01379" lon="-0.74973">
        <ele>930.8</ele>
        <time>2021-12-29T11:42:47.000Z</time>
      </trkpt>
      <trkpt lat="43.01379" lon="-0.74975">
        <ele>930.8</ele>
        <time>2021-12-29T11:42:48.000Z</time>
      </trkpt>
      <trkpt lat="43.0138" lon="-0.74976">
        <ele>931</ele>
        <time>2021-12-29T11:42:49.000Z</time>
      </trkpt>
      <trkpt lat="43.0138" lon="-0.74978">
        <ele>931.2</ele>
        <time>2021-12-29T11:42:50.000Z</time>
      </trkpt>
      <trkpt lat="43.0138" lon="-0.74979">
        <ele>931.4</ele>
        <time>2021-12-29T11:42:51.000Z</time>
      </trkpt>
      <trkpt lat="43.0138" lon="-0.74981">
        <ele>931.6</ele>
        <time>2021-12-29T11:42:52.000Z</time>
      </trkpt>
      <trkpt lat="43.01381" lon="-0.74982">
        <ele>931.6</ele>
        <time>2021-12-29T11:42:53.000Z</time>
      </trkpt>
      <trkpt lat="43.01381" lon="-0.74984">
        <ele>931.8</ele>
        <time>2021-12-29T11:42:54.000Z</time>
      </trkpt>
      <trkpt lat="43.01381" lon="-0.74986">
        <ele>932</ele>
        <time>2021-12-29T11:42:55.000Z</time>
      </trkpt>
      <trkpt lat="43.01381" lon="-0.74987">
        <ele>932.2</ele>
        <time>2021-12-29T11:42:56.000Z</time>
      </trkpt>
      <trkpt lat="43.01383" lon="-0.74989">
        <ele>932.4</ele>
        <time>2021-12-29T11:42:57.000Z</time>
      </trkpt>
      <trkpt lat="43.01385" lon="-0.7499">
        <ele>932.4</ele>
        <time>2021-12-29T11:42:58.000Z</time>
      </trkpt>
      <trkpt lat="43.01385" lon="-0.74991">
        <ele>932.6</ele>
        <time>2021-12-29T11:42:59.000Z</time>
      </trkpt>
      <trkpt lat="43.01386" lon="-0.74993">
        <ele>932.8</ele>
        <time>2021-12-29T11:43:00.000Z</time>
      </trkpt>
      <trkpt lat="43.01387" lon="-0.74994">
        <ele>933</ele>
        <time>2021-12-29T11:43:01.000Z</time>
      </trkpt>
      <trkpt lat="43.01388" lon="-0.74996">
        <ele>933.2</ele>
        <time>2021-12-29T11:43:02.000Z</time>
      </trkpt>
      <trkpt lat="43.01388" lon="-0.74997">
        <ele>933.4</ele>
        <time>2021-12-29T11:43:03.000Z</time>
      </trkpt>
      <trkpt lat="43.01389" lon="-0.74999">
        <ele>933.6</ele>
        <time>2021-12-29T11:43:04.000Z</time>
      </trkpt>
      <trkpt lat="43.0139" lon="-0.75">
        <ele>933.6</ele>
        <time>2021-12-29T11:43:05.000Z</time>
      </trkpt>
      <trkpt lat="43.0139" lon="-0.75002">
        <ele>933.8</ele>
        <time>2021-12-29T11:43:06.000Z</time>
      </trkpt>
      <trkpt lat="43.01391" lon="-0.75003">
        <ele>934</ele>
        <time>2021-12-29T11:43:07.000Z</time>
      </trkpt>
      <trkpt lat="43.01391" lon="-0.75005">
        <ele>934.2</ele>
        <time>2021-12-29T11:43:08.000Z</time>
      </trkpt>
      <trkpt lat="43.01392" lon="-0.75007">
        <ele>934.4</ele>
        <time>2021-12-29T11:43:09.000Z</time>
      </trkpt>
      <trkpt lat="43.01392" lon="-0.75008">
        <ele>934.6</ele>
        <time>2021-12-29T11:43:10.000Z</time>
      </trkpt>
      <trkpt lat="43.01393" lon="-0.75009">
        <ele>934.8</ele>
        <time>2021-12-29T11:43:11.000Z</time>
      </trkpt>
      <trkpt lat="43.01394" lon="-0.7501">
        <ele>934.8</ele>
        <time>2021-12-29T11:43:12.000Z</time>
      </trkpt>
      <trkpt lat="43.01395" lon="-0.75012">
        <ele>935</ele>
        <time>2021-12-29T11:43:13.000Z</time>
      </trkpt>
      <trkpt lat="43.01395" lon="-0.75013">
        <ele>935.2</ele>
        <time>2021-12-29T11:43:14.000Z</time>
      </trkpt>
      <trkpt lat="43.01396" lon="-0.75015">
        <ele>935.4</ele>
        <time>2021-12-29T11:43:15.000Z</time>
      </trkpt>
      <trkpt lat="43.01396" lon="-0.75016">
        <ele>935.6</ele>
        <time>2021-12-29T11:43:16.000Z</time>
      </trkpt>
      <trkpt lat="43.01397" lon="-0.75018">
        <ele>935.8</ele>
        <time>2021-12-29T11:43:17.000Z</time>
      </trkpt>
      <trkpt lat="43.01397" lon="-0.7502">
        <ele>936</ele>
        <time>2021-12-29T11:43:18.000Z</time>
      </trkpt>
      <trkpt lat="43.01397" lon="-0.75021">
        <ele>936</ele>
        <time>2021-12-29T11:43:19.000Z</time>
      </trkpt>
      <trkpt lat="43.01397" lon="-0.75023">
        <ele>936.2</ele>
        <time>2021-12-29T11:43:20.000Z</time>
      </trkpt>
      <trkpt lat="43.01397" lon="-0.75025">
        <ele>936.6</ele>
        <time>2021-12-29T11:43:21.000Z</time>
      </trkpt>
      <trkpt lat="43.01397" lon="-0.75027">
        <ele>936.6</ele>
        <time>2021-12-29T11:43:22.000Z</time>
      </trkpt>
      <trkpt lat="43.01397" lon="-0.75028">
        <ele>936.8</ele>
        <time>2021-12-29T11:43:23.000Z</time>
      </trkpt>
      <trkpt lat="43.01397" lon="-0.7503">
        <ele>937.2</ele>
        <time>2021-12-29T11:43:24.000Z</time>
      </trkpt>
      <trkpt lat="43.01397" lon="-0.75032">
        <ele>937.4</ele>
        <time>2021-12-29T11:43:25.000Z</time>
      </trkpt>
      <trkpt lat="43.01397" lon="-0.75033">
        <ele>937.6</ele>
        <time>2021-12-29T11:43:26.000Z</time>
      </trkpt>
      <trkpt lat="43.01397" lon="-0.75035">
        <ele>937.6</ele>
        <time>2021-12-29T11:43:27.000Z</time>
      </trkpt>
      <trkpt lat="43.01397" lon="-0.75037">
        <ele>937.8</ele>
        <time>2021-12-29T11:43:28.000Z</time>
      </trkpt>
      <trkpt lat="43.01397" lon="-0.7504">
        <ele>938</ele>
        <time>2021-12-29T11:43:29.000Z</time>
      </trkpt>
      <trkpt lat="43.01397" lon="-0.75042">
        <ele>938.2</ele>
        <time>2021-12-29T11:43:30.000Z</time>
      </trkpt>
      <trkpt lat="43.01397" lon="-0.75043">
        <ele>938.4</ele>
        <time>2021-12-29T11:43:31.000Z</time>
      </trkpt>
      <trkpt lat="43.01397" lon="-0.75045">
        <ele>938.4</ele>
        <time>2021-12-29T11:43:32.000Z</time>
      </trkpt>
      <trkpt lat="43.01397" lon="-0.75047">
        <ele>938.6</ele>
        <time>2021-12-29T11:43:33.000Z</time>
      </trkpt>
      <trkpt lat="43.01398" lon="-0.75049">
        <ele>938.8</ele>
        <time>2021-12-29T11:43:34.000Z</time>
      </trkpt>
      <trkpt lat="43.01398" lon="-0.75051">
        <ele>939</ele>
        <time>2021-12-29T11:43:35.000Z</time>
      </trkpt>
      <trkpt lat="43.01398" lon="-0.75053">
        <ele>939.2</ele>
        <time>2021-12-29T11:43:36.000Z</time>
      </trkpt>
      <trkpt lat="43.01398" lon="-0.75055">
        <ele>939.2</ele>
        <time>2021-12-29T11:43:37.000Z</time>
      </trkpt>
      <trkpt lat="43.01398" lon="-0.75057">
        <ele>939.4</ele>
        <time>2021-12-29T11:43:38.000Z</time>
      </trkpt>
      <trkpt lat="43.01398" lon="-0.75058">
        <ele>939.6</ele>
        <time>2021-12-29T11:43:39.000Z</time>
      </trkpt>
      <trkpt lat="43.01398" lon="-0.7506">
        <ele>939.8</ele>
        <time>2021-12-29T11:43:40.000Z</time>
      </trkpt>
      <trkpt lat="43.01398" lon="-0.75062">
        <ele>940</ele>
        <time>2021-12-29T11:43:41.000Z</time>
      </trkpt>
      <trkpt lat="43.01399" lon="-0.75064">
        <ele>940.2</ele>
        <time>2021-12-29T11:43:42.000Z</time>
      </trkpt>
      <trkpt lat="43.01399" lon="-0.75066">
        <ele>940.4</ele>
        <time>2021-12-29T11:43:43.000Z</time>
      </trkpt>
      <trkpt lat="43.01399" lon="-0.75067">
        <ele>940.4</ele>
        <time>2021-12-29T11:43:44.000Z</time>
      </trkpt>
      <trkpt lat="43.01399" lon="-0.75069">
        <ele>940.6</ele>
        <time>2021-12-29T11:43:45.000Z</time>
      </trkpt>
      <trkpt lat="43.01399" lon="-0.75071">
        <ele>940.8</ele>
        <time>2021-12-29T11:43:46.000Z</time>
      </trkpt>
      <trkpt lat="43.014" lon="-0.75072">
        <ele>941</ele>
        <time>2021-12-29T11:43:47.000Z</time>
      </trkpt>
      <trkpt lat="43.01401" lon="-0.75074">
        <ele>941</ele>
        <time>2021-12-29T11:43:48.000Z</time>
      </trkpt>
      <trkpt lat="43.01401" lon="-0.75075">
        <ele>941.2</ele>
        <time>2021-12-29T11:43:49.000Z</time>
      </trkpt>
      <trkpt lat="43.01401" lon="-0.75077">
        <ele>941.4</ele>
        <time>2021-12-29T11:43:50.000Z</time>
      </trkpt>
      <trkpt lat="43.01401" lon="-0.75079">
        <ele>941.4</ele>
        <time>2021-12-29T11:43:51.000Z</time>
      </trkpt>
      <trkpt lat="43.01402" lon="-0.75081">
        <ele>941.6</ele>
        <time>2021-12-29T11:43:52.000Z</time>
      </trkpt>
      <trkpt lat="43.01402" lon="-0.75083">
        <ele>941.8</ele>
        <time>2021-12-29T11:43:53.000Z</time>
      </trkpt>
      <trkpt lat="43.01402" lon="-0.75085">
        <ele>941.8</ele>
        <time>2021-12-29T11:43:54.000Z</time>
      </trkpt>
      <trkpt lat="43.01403" lon="-0.75086">
        <ele>942</ele>
        <time>2021-12-29T11:43:55.000Z</time>
      </trkpt>
      <trkpt lat="43.01403" lon="-0.75088">
        <ele>942.2</ele>
        <time>2021-12-29T11:43:56.000Z</time>
      </trkpt>
      <trkpt lat="43.01404" lon="-0.7509">
        <ele>942.2</ele>
        <time>2021-12-29T11:43:57.000Z</time>
      </trkpt>
      <trkpt lat="43.01404" lon="-0.75092">
        <ele>942.4</ele>
        <time>2021-12-29T11:43:58.000Z</time>
      </trkpt>
      <trkpt lat="43.01404" lon="-0.75094">
        <ele>942.6</ele>
        <time>2021-12-29T11:43:59.000Z</time>
      </trkpt>
      <trkpt lat="43.01405" lon="-0.75096">
        <ele>942.6</ele>
        <time>2021-12-29T11:44:00.000Z</time>
      </trkpt>
      <trkpt lat="43.01406" lon="-0.75098">
        <ele>942.8</ele>
        <time>2021-12-29T11:44:01.000Z</time>
      </trkpt>
      <trkpt lat="43.01406" lon="-0.751">
        <ele>942.8</ele>
        <time>2021-12-29T11:44:02.000Z</time>
      </trkpt>
      <trkpt lat="43.01407" lon="-0.75101">
        <ele>943</ele>
        <time>2021-12-29T11:44:03.000Z</time>
      </trkpt>
      <trkpt lat="43.01408" lon="-0.75103">
        <ele>943.2</ele>
        <time>2021-12-29T11:44:04.000Z</time>
      </trkpt>
      <trkpt lat="43.01409" lon="-0.75105">
        <ele>943.2</ele>
        <time>2021-12-29T11:44:05.000Z</time>
      </trkpt>
      <trkpt lat="43.0141" lon="-0.75107">
        <ele>943.4</ele>
        <time>2021-12-29T11:44:06.000Z</time>
      </trkpt>
      <trkpt lat="43.01411" lon="-0.75109">
        <ele>943.6</ele>
        <time>2021-12-29T11:44:07.000Z</time>
      </trkpt>
      <trkpt lat="43.01412" lon="-0.75111">
        <ele>943.8</ele>
        <time>2021-12-29T11:44:08.000Z</time>
      </trkpt>
      <trkpt lat="43.01413" lon="-0.75112">
        <ele>943.8</ele>
        <time>2021-12-29T11:44:09.000Z</time>
      </trkpt>
      <trkpt lat="43.01414" lon="-0.75114">
        <ele>944</ele>
        <time>2021-12-29T11:44:10.000Z</time>
      </trkpt>
      <trkpt lat="43.01415" lon="-0.75116">
        <ele>944.2</ele>
        <time>2021-12-29T11:44:11.000Z</time>
      </trkpt>
      <trkpt lat="43.01416" lon="-0.75118">
        <ele>944.2</ele>
        <time>2021-12-29T11:44:12.000Z</time>
      </trkpt>
      <trkpt lat="43.01417" lon="-0.75119">
        <ele>944.4</ele>
        <time>2021-12-29T11:44:13.000Z</time>
      </trkpt>
      <trkpt lat="43.01419" lon="-0.7512">
        <ele>944.6</ele>
        <time>2021-12-29T11:44:14.000Z</time>
      </trkpt>
      <trkpt lat="43.0142" lon="-0.75122">
        <ele>944.6</ele>
        <time>2021-12-29T11:44:15.000Z</time>
      </trkpt>
      <trkpt lat="43.01421" lon="-0.75123">
        <ele>944.8</ele>
        <time>2021-12-29T11:44:16.000Z</time>
      </trkpt>
      <trkpt lat="43.01422" lon="-0.75125">
        <ele>945</ele>
        <time>2021-12-29T11:44:17.000Z</time>
      </trkpt>
      <trkpt lat="43.01423" lon="-0.75127">
        <ele>945</ele>
        <time>2021-12-29T11:44:18.000Z</time>
      </trkpt>
      <trkpt lat="43.01424" lon="-0.75128">
        <ele>945.2</ele>
        <time>2021-12-29T11:44:19.000Z</time>
      </trkpt>
      <trkpt lat="43.01425" lon="-0.7513">
        <ele>945.4</ele>
        <time>2021-12-29T11:44:20.000Z</time>
      </trkpt>
      <trkpt lat="43.01426" lon="-0.75131">
        <ele>945.6</ele>
        <time>2021-12-29T11:44:21.000Z</time>
      </trkpt>
      <trkpt lat="43.01427" lon="-0.75132">
        <ele>945.8</ele>
        <time>2021-12-29T11:44:22.000Z</time>
      </trkpt>
      <trkpt lat="43.01428" lon="-0.75134">
        <ele>946</ele>
        <time>2021-12-29T11:44:23.000Z</time>
      </trkpt>
      <trkpt lat="43.01428" lon="-0.75135">
        <ele>946</ele>
        <time>2021-12-29T11:44:24.000Z</time>
      </trkpt>
      <trkpt lat="43.01429" lon="-0.75137">
        <ele>946.2</ele>
        <time>2021-12-29T11:44:25.000Z</time>
      </trkpt>
      <trkpt lat="43.01429" lon="-0.75138">
        <ele>946.4</ele>
        <time>2021-12-29T11:44:26.000Z</time>
      </trkpt>
      <trkpt lat="43.01429" lon="-0.7514">
        <ele>946.6</ele>
        <time>2021-12-29T11:44:27.000Z</time>
      </trkpt>
      <trkpt lat="43.0143" lon="-0.75142">
        <ele>946.8</ele>
        <time>2021-12-29T11:44:28.000Z</time>
      </trkpt>
      <trkpt lat="43.0143" lon="-0.75144">
        <ele>947</ele>
        <time>2021-12-29T11:44:29.000Z</time>
      </trkpt>
      <trkpt lat="43.0143" lon="-0.75145">
        <ele>947.2</ele>
        <time>2021-12-29T11:44:30.000Z</time>
      </trkpt>
      <trkpt lat="43.01431" lon="-0.75147">
        <ele>947.4</ele>
        <time>2021-12-29T11:44:31.000Z</time>
      </trkpt>
      <trkpt lat="43.01431" lon="-0.75148">
        <ele>947.4</ele>
        <time>2021-12-29T11:44:32.000Z</time>
      </trkpt>
      <trkpt lat="43.0143" lon="-0.7515">
        <ele>947.6</ele>
        <time>2021-12-29T11:44:33.000Z</time>
      </trkpt>
      <trkpt lat="43.0143" lon="-0.75152">
        <ele>947.8</ele>
        <time>2021-12-29T11:44:34.000Z</time>
      </trkpt>
      <trkpt lat="43.0143" lon="-0.75154">
        <ele>948</ele>
        <time>2021-12-29T11:44:35.000Z</time>
      </trkpt>
      <trkpt lat="43.0143" lon="-0.75156">
        <ele>948.2</ele>
        <time>2021-12-29T11:44:36.000Z</time>
      </trkpt>
      <trkpt lat="43.0143" lon="-0.75157">
        <ele>948.2</ele>
        <time>2021-12-29T11:44:37.000Z</time>
      </trkpt>
      <trkpt lat="43.0143" lon="-0.75159">
        <ele>948.4</ele>
        <time>2021-12-29T11:44:38.000Z</time>
      </trkpt>
      <trkpt lat="43.0143" lon="-0.75161">
        <ele>948.6</ele>
        <time>2021-12-29T11:44:39.000Z</time>
      </trkpt>
      <trkpt lat="43.0143" lon="-0.75163">
        <ele>948.6</ele>
        <time>2021-12-29T11:44:40.000Z</time>
      </trkpt>
      <trkpt lat="43.0143" lon="-0.75165">
        <ele>948.8</ele>
        <time>2021-12-29T11:44:41.000Z</time>
      </trkpt>
      <trkpt lat="43.0143" lon="-0.75167">
        <ele>949</ele>
        <time>2021-12-29T11:44:42.000Z</time>
      </trkpt>
      <trkpt lat="43.01431" lon="-0.75169">
        <ele>949.2</ele>
        <time>2021-12-29T11:44:43.000Z</time>
      </trkpt>
      <trkpt lat="43.01431" lon="-0.75171">
        <ele>949.2</ele>
        <time>2021-12-29T11:44:44.000Z</time>
      </trkpt>
      <trkpt lat="43.01431" lon="-0.75173">
        <ele>949.4</ele>
        <time>2021-12-29T11:44:45.000Z</time>
      </trkpt>
      <trkpt lat="43.01432" lon="-0.75175">
        <ele>949.4</ele>
        <time>2021-12-29T11:44:46.000Z</time>
      </trkpt>
      <trkpt lat="43.01432" lon="-0.75177">
        <ele>949.6</ele>
        <time>2021-12-29T11:44:47.000Z</time>
      </trkpt>
      <trkpt lat="43.01432" lon="-0.75179">
        <ele>949.6</ele>
        <time>2021-12-29T11:44:48.000Z</time>
      </trkpt>
      <trkpt lat="43.01432" lon="-0.75181">
        <ele>949.8</ele>
        <time>2021-12-29T11:44:49.000Z</time>
      </trkpt>
      <trkpt lat="43.01432" lon="-0.75183">
        <ele>950</ele>
        <time>2021-12-29T11:44:50.000Z</time>
      </trkpt>
      <trkpt lat="43.01432" lon="-0.75186">
        <ele>950.2</ele>
        <time>2021-12-29T11:44:51.000Z</time>
      </trkpt>
      <trkpt lat="43.01432" lon="-0.75188">
        <ele>950.2</ele>
        <time>2021-12-29T11:44:52.000Z</time>
      </trkpt>
      <trkpt lat="43.01432" lon="-0.7519">
        <ele>950.4</ele>
        <time>2021-12-29T11:44:53.000Z</time>
      </trkpt>
      <trkpt lat="43.01431" lon="-0.75192">
        <ele>950.6</ele>
        <time>2021-12-29T11:44:54.000Z</time>
      </trkpt>
      <trkpt lat="43.01432" lon="-0.75194">
        <ele>950.6</ele>
        <time>2021-12-29T11:44:55.000Z</time>
      </trkpt>
      <trkpt lat="43.01433" lon="-0.75196">
        <ele>950.8</ele>
        <time>2021-12-29T11:44:56.000Z</time>
      </trkpt>
      <trkpt lat="43.01433" lon="-0.75198">
        <ele>951</ele>
        <time>2021-12-29T11:44:57.000Z</time>
      </trkpt>
      <trkpt lat="43.01433" lon="-0.752">
        <ele>951</ele>
        <time>2021-12-29T11:44:58.000Z</time>
      </trkpt>
      <trkpt lat="43.01435" lon="-0.75202">
        <ele>951.2</ele>
        <time>2021-12-29T11:44:59.000Z</time>
      </trkpt>
      <trkpt lat="43.01437" lon="-0.75204">
        <ele>951.4</ele>
        <time>2021-12-29T11:45:00.000Z</time>
      </trkpt>
      <trkpt lat="43.01436" lon="-0.75206">
        <ele>951.6</ele>
        <time>2021-12-29T11:45:01.000Z</time>
      </trkpt>
      <trkpt lat="43.01437" lon="-0.75208">
        <ele>951.6</ele>
        <time>2021-12-29T11:45:02.000Z</time>
      </trkpt>
      <trkpt lat="43.01438" lon="-0.7521">
        <ele>951.8</ele>
        <time>2021-12-29T11:45:03.000Z</time>
      </trkpt>
      <trkpt lat="43.01438" lon="-0.75212">
        <ele>952</ele>
        <time>2021-12-29T11:45:04.000Z</time>
      </trkpt>
      <trkpt lat="43.01439" lon="-0.75214">
        <ele>952</ele>
        <time>2021-12-29T11:45:05.000Z</time>
      </trkpt>
      <trkpt lat="43.01439" lon="-0.75216">
        <ele>952.2</ele>
        <time>2021-12-29T11:45:06.000Z</time>
      </trkpt>
      <trkpt lat="43.0144" lon="-0.75218">
        <ele>952.4</ele>
        <time>2021-12-29T11:45:07.000Z</time>
      </trkpt>
      <trkpt lat="43.01441" lon="-0.7522">
        <ele>952.6</ele>
        <time>2021-12-29T11:45:08.000Z</time>
      </trkpt>
      <trkpt lat="43.01441" lon="-0.75222">
        <ele>952.6</ele>
        <time>2021-12-29T11:45:09.000Z</time>
      </trkpt>
      <trkpt lat="43.01442" lon="-0.75224">
        <ele>952.8</ele>
        <time>2021-12-29T11:45:10.000Z</time>
      </trkpt>
      <trkpt lat="43.01442" lon="-0.75225">
        <ele>953</ele>
        <time>2021-12-29T11:45:11.000Z</time>
      </trkpt>
      <trkpt lat="43.01442" lon="-0.75227">
        <ele>953.2</ele>
        <time>2021-12-29T11:45:12.000Z</time>
      </trkpt>
      <trkpt lat="43.01443" lon="-0.75229">
        <ele>953.4</ele>
        <time>2021-12-29T11:45:13.000Z</time>
      </trkpt>
      <trkpt lat="43.01442" lon="-0.75231">
        <ele>953.4</ele>
        <time>2021-12-29T11:45:14.000Z</time>
      </trkpt>
      <trkpt lat="43.01442" lon="-0.75233">
        <ele>953.6</ele>
        <time>2021-12-29T11:45:15.000Z</time>
      </trkpt>
      <trkpt lat="43.01443" lon="-0.75235">
        <ele>953.8</ele>
        <time>2021-12-29T11:45:16.000Z</time>
      </trkpt>
      <trkpt lat="43.01443" lon="-0.75237">
        <ele>954</ele>
        <time>2021-12-29T11:45:17.000Z</time>
      </trkpt>
      <trkpt lat="43.01443" lon="-0.75239">
        <ele>954.2</ele>
        <time>2021-12-29T11:45:18.000Z</time>
      </trkpt>
      <trkpt lat="43.01443" lon="-0.75241">
        <ele>954.6</ele>
        <time>2021-12-29T11:45:19.000Z</time>
      </trkpt>
      <trkpt lat="43.01443" lon="-0.75242">
        <ele>954.8</ele>
        <time>2021-12-29T11:45:20.000Z</time>
      </trkpt>
      <trkpt lat="43.01443" lon="-0.75244">
        <ele>955</ele>
        <time>2021-12-29T11:45:21.000Z</time>
      </trkpt>
      <trkpt lat="43.01443" lon="-0.75246">
        <ele>955.2</ele>
        <time>2021-12-29T11:45:22.000Z</time>
      </trkpt>
      <trkpt lat="43.01443" lon="-0.75248">
        <ele>955.4</ele>
        <time>2021-12-29T11:45:23.000Z</time>
      </trkpt>
      <trkpt lat="43.01443" lon="-0.7525">
        <ele>955.8</ele>
        <time>2021-12-29T11:45:24.000Z</time>
      </trkpt>
      <trkpt lat="43.01442" lon="-0.75252">
        <ele>955.8</ele>
        <time>2021-12-29T11:45:25.000Z</time>
      </trkpt>
      <trkpt lat="43.01442" lon="-0.75254">
        <ele>956</ele>
        <time>2021-12-29T11:45:26.000Z</time>
      </trkpt>
      <trkpt lat="43.01441" lon="-0.75256">
        <ele>956.2</ele>
        <time>2021-12-29T11:45:27.000Z</time>
      </trkpt>
      <trkpt lat="43.01441" lon="-0.75258">
        <ele>956.2</ele>
        <time>2021-12-29T11:45:28.000Z</time>
      </trkpt>
      <trkpt lat="43.0144" lon="-0.75259">
        <ele>956.4</ele>
        <time>2021-12-29T11:45:29.000Z</time>
      </trkpt>
      <trkpt lat="43.01441" lon="-0.75261">
        <ele>956.6</ele>
        <time>2021-12-29T11:45:30.000Z</time>
      </trkpt>
      <trkpt lat="43.01441" lon="-0.75263">
        <ele>956.8</ele>
        <time>2021-12-29T11:45:31.000Z</time>
      </trkpt>
      <trkpt lat="43.0144" lon="-0.75266">
        <ele>956.8</ele>
        <time>2021-12-29T11:45:32.000Z</time>
      </trkpt>
      <trkpt lat="43.01441" lon="-0.75267">
        <ele>957</ele>
        <time>2021-12-29T11:45:33.000Z</time>
      </trkpt>
      <trkpt lat="43.01441" lon="-0.75269">
        <ele>957.2</ele>
        <time>2021-12-29T11:45:34.000Z</time>
      </trkpt>
      <trkpt lat="43.01443" lon="-0.75271">
        <ele>957.4</ele>
        <time>2021-12-29T11:45:35.000Z</time>
      </trkpt>
      <trkpt lat="43.01444" lon="-0.75272">
        <ele>957.4</ele>
        <time>2021-12-29T11:45:36.000Z</time>
      </trkpt>
      <trkpt lat="43.01445" lon="-0.75273">
        <ele>957.6</ele>
        <time>2021-12-29T11:45:37.000Z</time>
      </trkpt>
      <trkpt lat="43.01446" lon="-0.75273">
        <ele>957.6</ele>
        <time>2021-12-29T11:45:38.000Z</time>
      </trkpt>
      <trkpt lat="43.01447" lon="-0.75273">
        <ele>957.8</ele>
        <time>2021-12-29T11:45:39.000Z</time>
      </trkpt>
      <trkpt lat="43.01449" lon="-0.75272">
        <ele>957.8</ele>
        <time>2021-12-29T11:45:40.000Z</time>
      </trkpt>
      <trkpt lat="43.0145" lon="-0.75272">
        <ele>958</ele>
        <time>2021-12-29T11:45:41.000Z</time>
      </trkpt>
      <trkpt lat="43.01451" lon="-0.75271">
        <ele>958</ele>
        <time>2021-12-29T11:45:42.000Z</time>
      </trkpt>
      <trkpt lat="43.01453" lon="-0.7527">
        <ele>958.2</ele>
        <time>2021-12-29T11:45:43.000Z</time>
      </trkpt>
      <trkpt lat="43.01453" lon="-0.75269">
        <ele>958.4</ele>
        <time>2021-12-29T11:45:44.000Z</time>
      </trkpt>
      <trkpt lat="43.01454" lon="-0.75267">
        <ele>958.6</ele>
        <time>2021-12-29T11:45:45.000Z</time>
      </trkpt>
      <trkpt lat="43.01456" lon="-0.75266">
        <ele>958.8</ele>
        <time>2021-12-29T11:45:46.000Z</time>
      </trkpt>
      <trkpt lat="43.01457" lon="-0.75265">
        <ele>959</ele>
        <time>2021-12-29T11:45:47.000Z</time>
      </trkpt>
      <trkpt lat="43.01457" lon="-0.75263">
        <ele>959.2</ele>
        <time>2021-12-29T11:45:48.000Z</time>
      </trkpt>
      <trkpt lat="43.01458" lon="-0.75262">
        <ele>959.4</ele>
        <time>2021-12-29T11:45:49.000Z</time>
      </trkpt>
      <trkpt lat="43.0146" lon="-0.7526">
        <ele>959.6</ele>
        <time>2021-12-29T11:45:50.000Z</time>
      </trkpt>
      <trkpt lat="43.01461" lon="-0.75259">
        <ele>959.8</ele>
        <time>2021-12-29T11:45:51.000Z</time>
      </trkpt>
      <trkpt lat="43.01461" lon="-0.75257">
        <ele>960</ele>
        <time>2021-12-29T11:45:52.000Z</time>
      </trkpt>
      <trkpt lat="43.01462" lon="-0.75256">
        <ele>960.2</ele>
        <time>2021-12-29T11:45:53.000Z</time>
      </trkpt>
      <trkpt lat="43.01463" lon="-0.75255">
        <ele>960.4</ele>
        <time>2021-12-29T11:45:54.000Z</time>
      </trkpt>
      <trkpt lat="43.01463" lon="-0.75254">
        <ele>960.6</ele>
        <time>2021-12-29T11:45:55.000Z</time>
      </trkpt>
      <trkpt lat="43.01464" lon="-0.75253">
        <ele>960.8</ele>
        <time>2021-12-29T11:45:56.000Z</time>
      </trkpt>
      <trkpt lat="43.01465" lon="-0.75251">
        <ele>960.8</ele>
        <time>2021-12-29T11:45:57.000Z</time>
      </trkpt>
      <trkpt lat="43.01465" lon="-0.75249">
        <ele>961</ele>
        <time>2021-12-29T11:45:58.000Z</time>
      </trkpt>
      <trkpt lat="43.01465" lon="-0.75248">
        <ele>961.2</ele>
        <time>2021-12-29T11:45:59.000Z</time>
      </trkpt>
      <trkpt lat="43.01465" lon="-0.75246">
        <ele>961.4</ele>
        <time>2021-12-29T11:46:00.000Z</time>
      </trkpt>
      <trkpt lat="43.01465" lon="-0.75245">
        <ele>961.4</ele>
        <time>2021-12-29T11:46:01.000Z</time>
      </trkpt>
      <trkpt lat="43.01465" lon="-0.75243">
        <ele>961.6</ele>
        <time>2021-12-29T11:46:02.000Z</time>
      </trkpt>
      <trkpt lat="43.01465" lon="-0.75241">
        <ele>961.8</ele>
        <time>2021-12-29T11:46:03.000Z</time>
      </trkpt>
      <trkpt lat="43.01466" lon="-0.7524">
        <ele>961.8</ele>
        <time>2021-12-29T11:46:04.000Z</time>
      </trkpt>
      <trkpt lat="43.01468" lon="-0.75238">
        <ele>962</ele>
        <time>2021-12-29T11:46:05.000Z</time>
      </trkpt>
      <trkpt lat="43.01469" lon="-0.75237">
        <ele>962</ele>
        <time>2021-12-29T11:46:06.000Z</time>
      </trkpt>
      <trkpt lat="43.01469" lon="-0.75236">
        <ele>962.2</ele>
        <time>2021-12-29T11:46:07.000Z</time>
      </trkpt>
      <trkpt lat="43.0147" lon="-0.75234">
        <ele>962.2</ele>
        <time>2021-12-29T11:46:08.000Z</time>
      </trkpt>
      <trkpt lat="43.0147" lon="-0.75232">
        <ele>962.4</ele>
        <time>2021-12-29T11:46:09.000Z</time>
      </trkpt>
      <trkpt lat="43.0147" lon="-0.7523">
        <ele>962.6</ele>
        <time>2021-12-29T11:46:10.000Z</time>
      </trkpt>
      <trkpt lat="43.01471" lon="-0.75229">
        <ele>962.6</ele>
        <time>2021-12-29T11:46:11.000Z</time>
      </trkpt>
      <trkpt lat="43.01473" lon="-0.75226">
        <ele>962.8</ele>
        <time>2021-12-29T11:46:12.000Z</time>
      </trkpt>
      <trkpt lat="43.01475" lon="-0.75225">
        <ele>963</ele>
        <time>2021-12-29T11:46:13.000Z</time>
      </trkpt>
      <trkpt lat="43.01478" lon="-0.75224">
        <ele>963.2</ele>
        <time>2021-12-29T11:46:14.000Z</time>
      </trkpt>
      <trkpt lat="43.0148" lon="-0.75224">
        <ele>963.2</ele>
        <time>2021-12-29T11:46:15.000Z</time>
      </trkpt>
      <trkpt lat="43.01482" lon="-0.75222">
        <ele>963.4</ele>
        <time>2021-12-29T11:46:16.000Z</time>
      </trkpt>
      <trkpt lat="43.01482" lon="-0.75221">
        <ele>963.6</ele>
        <time>2021-12-29T11:46:17.000Z</time>
      </trkpt>
      <trkpt lat="43.01483" lon="-0.7522">
        <ele>963.8</ele>
        <time>2021-12-29T11:46:18.000Z</time>
      </trkpt>
      <trkpt lat="43.01484" lon="-0.75218">
        <ele>964</ele>
        <time>2021-12-29T11:46:19.000Z</time>
      </trkpt>
      <trkpt lat="43.01484" lon="-0.75217">
        <ele>964.2</ele>
        <time>2021-12-29T11:46:20.000Z</time>
      </trkpt>
      <trkpt lat="43.01486" lon="-0.75215">
        <ele>964.4</ele>
        <time>2021-12-29T11:46:21.000Z</time>
      </trkpt>
      <trkpt lat="43.01488" lon="-0.75214">
        <ele>964.4</ele>
        <time>2021-12-29T11:46:22.000Z</time>
      </trkpt>
      <trkpt lat="43.01491" lon="-0.75213">
        <ele>964.6</ele>
        <time>2021-12-29T11:46:23.000Z</time>
      </trkpt>
      <trkpt lat="43.01492" lon="-0.75212">
        <ele>964.8</ele>
        <time>2021-12-29T11:46:24.000Z</time>
      </trkpt>
      <trkpt lat="43.01493" lon="-0.75211">
        <ele>965</ele>
        <time>2021-12-29T11:46:25.000Z</time>
      </trkpt>
      <trkpt lat="43.01495" lon="-0.75211">
        <ele>965</ele>
        <time>2021-12-29T11:46:26.000Z</time>
      </trkpt>
      <trkpt lat="43.01498" lon="-0.7521">
        <ele>965.2</ele>
        <time>2021-12-29T11:46:27.000Z</time>
      </trkpt>
      <trkpt lat="43.015" lon="-0.75209">
        <ele>965.4</ele>
        <time>2021-12-29T11:46:28.000Z</time>
      </trkpt>
      <trkpt lat="43.01502" lon="-0.75209">
        <ele>965.4</ele>
        <time>2021-12-29T11:46:29.000Z</time>
      </trkpt>
      <trkpt lat="43.01503" lon="-0.75209">
        <ele>965.6</ele>
        <time>2021-12-29T11:46:30.000Z</time>
      </trkpt>
      <trkpt lat="43.01505" lon="-0.7521">
        <ele>965.8</ele>
        <time>2021-12-29T11:46:31.000Z</time>
      </trkpt>
      <trkpt lat="43.01505" lon="-0.7521">
        <ele>965.8</ele>
        <time>2021-12-29T11:46:32.000Z</time>
      </trkpt>
      <trkpt lat="43.01506" lon="-0.75211">
        <ele>966</ele>
        <time>2021-12-29T11:46:33.000Z</time>
      </trkpt>
      <trkpt lat="43.01507" lon="-0.75212">
        <ele>966.2</ele>
        <time>2021-12-29T11:46:34.000Z</time>
      </trkpt>
      <trkpt lat="43.01507" lon="-0.75213">
        <ele>966.2</ele>
        <time>2021-12-29T11:46:35.000Z</time>
      </trkpt>
      <trkpt lat="43.01508" lon="-0.75214">
        <ele>966.4</ele>
        <time>2021-12-29T11:46:36.000Z</time>
      </trkpt>
      <trkpt lat="43.01509" lon="-0.75215">
        <ele>966.4</ele>
        <time>2021-12-29T11:46:37.000Z</time>
      </trkpt>
      <trkpt lat="43.01513" lon="-0.75216">
        <ele>966.4</ele>
        <time>2021-12-29T11:46:38.000Z</time>
      </trkpt>
      <trkpt lat="43.01515" lon="-0.75216">
        <ele>966.6</ele>
        <time>2021-12-29T11:46:39.000Z</time>
      </trkpt>
      <trkpt lat="43.01518" lon="-0.75216">
        <ele>966.8</ele>
        <time>2021-12-29T11:46:40.000Z</time>
      </trkpt>
      <trkpt lat="43.0152" lon="-0.75216">
        <ele>966.8</ele>
        <time>2021-12-29T11:46:41.000Z</time>
      </trkpt>
      <trkpt lat="43.01522" lon="-0.75217">
        <ele>967</ele>
        <time>2021-12-29T11:46:42.000Z</time>
      </trkpt>
      <trkpt lat="43.01523" lon="-0.75216">
        <ele>967.2</ele>
        <time>2021-12-29T11:46:43.000Z</time>
      </trkpt>
      <trkpt lat="43.01524" lon="-0.75216">
        <ele>967.4</ele>
        <time>2021-12-29T11:46:44.000Z</time>
      </trkpt>
      <trkpt lat="43.01525" lon="-0.75215">
        <ele>967.6</ele>
        <time>2021-12-29T11:46:45.000Z</time>
      </trkpt>
      <trkpt lat="43.01527" lon="-0.75215">
        <ele>967.8</ele>
        <time>2021-12-29T11:46:46.000Z</time>
      </trkpt>
      <trkpt lat="43.01527" lon="-0.75215">
        <ele>968</ele>
        <time>2021-12-29T11:46:47.000Z</time>
      </trkpt>
      <trkpt lat="43.01528" lon="-0.75214">
        <ele>968.2</ele>
        <time>2021-12-29T11:46:48.000Z</time>
      </trkpt>
      <trkpt lat="43.01529" lon="-0.75214">
        <ele>968.6</ele>
        <time>2021-12-29T11:46:49.000Z</time>
      </trkpt>
      <trkpt lat="43.0153" lon="-0.75214">
        <ele>968.8</ele>
        <time>2021-12-29T11:46:50.000Z</time>
      </trkpt>
      <trkpt lat="43.01531" lon="-0.75214">
        <ele>969</ele>
        <time>2021-12-29T11:46:51.000Z</time>
      </trkpt>
      <trkpt lat="43.01532" lon="-0.75214">
        <ele>969.2</ele>
        <time>2021-12-29T11:46:52.000Z</time>
      </trkpt>
      <trkpt lat="43.01534" lon="-0.75215">
        <ele>969.4</ele>
        <time>2021-12-29T11:46:53.000Z</time>
      </trkpt>
      <trkpt lat="43.01535" lon="-0.75215">
        <ele>969.6</ele>
        <time>2021-12-29T11:46:54.000Z</time>
      </trkpt>
      <trkpt lat="43.01536" lon="-0.75216">
        <ele>970</ele>
        <time>2021-12-29T11:46:55.000Z</time>
      </trkpt>
      <trkpt lat="43.01537" lon="-0.75216">
        <ele>970.2</ele>
        <time>2021-12-29T11:46:56.000Z</time>
      </trkpt>
      <trkpt lat="43.01538" lon="-0.75216">
        <ele>970.4</ele>
        <time>2021-12-29T11:46:57.000Z</time>
      </trkpt>
      <trkpt lat="43.0154" lon="-0.75216">
        <ele>970.4</ele>
        <time>2021-12-29T11:46:58.000Z</time>
      </trkpt>
      <trkpt lat="43.01541" lon="-0.75216">
        <ele>970.6</ele>
        <time>2021-12-29T11:46:59.000Z</time>
      </trkpt>
      <trkpt lat="43.01542" lon="-0.75217">
        <ele>970.8</ele>
        <time>2021-12-29T11:47:00.000Z</time>
      </trkpt>
      <trkpt lat="43.01543" lon="-0.75218">
        <ele>971</ele>
        <time>2021-12-29T11:47:01.000Z</time>
      </trkpt>
      <trkpt lat="43.01543" lon="-0.75218">
        <ele>971.2</ele>
        <time>2021-12-29T11:47:02.000Z</time>
      </trkpt>
      <trkpt lat="43.01544" lon="-0.75219">
        <ele>971.2</ele>
        <time>2021-12-29T11:47:03.000Z</time>
      </trkpt>
      <trkpt lat="43.01544" lon="-0.7522">
        <ele>971.4</ele>
        <time>2021-12-29T11:47:04.000Z</time>
      </trkpt>
      <trkpt lat="43.01545" lon="-0.75222">
        <ele>971.8</ele>
        <time>2021-12-29T11:47:05.000Z</time>
      </trkpt>
      <trkpt lat="43.01546" lon="-0.75223">
        <ele>972</ele>
        <time>2021-12-29T11:47:06.000Z</time>
      </trkpt>
      <trkpt lat="43.01547" lon="-0.75225">
        <ele>972.2</ele>
        <time>2021-12-29T11:47:07.000Z</time>
      </trkpt>
      <trkpt lat="43.01549" lon="-0.75226">
        <ele>973</ele>
        <time>2021-12-29T11:47:08.000Z</time>
      </trkpt>
      <trkpt lat="43.0155" lon="-0.75227">
        <ele>972.6</ele>
        <time>2021-12-29T11:47:09.000Z</time>
      </trkpt>
      <trkpt lat="43.01552" lon="-0.75228">
        <ele>972.6</ele>
        <time>2021-12-29T11:47:10.000Z</time>
      </trkpt>
      <trkpt lat="43.01553" lon="-0.7523">
        <ele>972.8</ele>
        <time>2021-12-29T11:47:11.000Z</time>
      </trkpt>
      <trkpt lat="43.01555" lon="-0.75231">
        <ele>973</ele>
        <time>2021-12-29T11:47:12.000Z</time>
      </trkpt>
      <trkpt lat="43.01557" lon="-0.75231">
        <ele>973.2</ele>
        <time>2021-12-29T11:47:13.000Z</time>
      </trkpt>
      <trkpt lat="43.01557" lon="-0.75232">
        <ele>973.4</ele>
        <time>2021-12-29T11:47:14.000Z</time>
      </trkpt>
      <trkpt lat="43.01559" lon="-0.75232">
        <ele>973.6</ele>
        <time>2021-12-29T11:47:15.000Z</time>
      </trkpt>
      <trkpt lat="43.01561" lon="-0.75233">
        <ele>973.8</ele>
        <time>2021-12-29T11:47:16.000Z</time>
      </trkpt>
      <trkpt lat="43.01563" lon="-0.75233">
        <ele>973.8</ele>
        <time>2021-12-29T11:47:17.000Z</time>
      </trkpt>
      <trkpt lat="43.01564" lon="-0.75232">
        <ele>974</ele>
        <time>2021-12-29T11:47:18.000Z</time>
      </trkpt>
      <trkpt lat="43.01566" lon="-0.75233">
        <ele>974.2</ele>
        <time>2021-12-29T11:47:19.000Z</time>
      </trkpt>
      <trkpt lat="43.01568" lon="-0.75233">
        <ele>974.2</ele>
        <time>2021-12-29T11:47:20.000Z</time>
      </trkpt>
      <trkpt lat="43.0157" lon="-0.75232">
        <ele>974.4</ele>
        <time>2021-12-29T11:47:21.000Z</time>
      </trkpt>
      <trkpt lat="43.0157" lon="-0.75232">
        <ele>974.6</ele>
        <time>2021-12-29T11:47:22.000Z</time>
      </trkpt>
      <trkpt lat="43.01572" lon="-0.75231">
        <ele>974.6</ele>
        <time>2021-12-29T11:47:23.000Z</time>
      </trkpt>
      <trkpt lat="43.01574" lon="-0.75231">
        <ele>974.6</ele>
        <time>2021-12-29T11:47:24.000Z</time>
      </trkpt>
      <trkpt lat="43.01576" lon="-0.75232">
        <ele>974.8</ele>
        <time>2021-12-29T11:47:25.000Z</time>
      </trkpt>
      <trkpt lat="43.01579" lon="-0.75232">
        <ele>974.8</ele>
        <time>2021-12-29T11:47:26.000Z</time>
      </trkpt>
      <trkpt lat="43.0158" lon="-0.75232">
        <ele>975</ele>
        <time>2021-12-29T11:47:27.000Z</time>
      </trkpt>
      <trkpt lat="43.01582" lon="-0.75231">
        <ele>975.2</ele>
        <time>2021-12-29T11:47:28.000Z</time>
      </trkpt>
      <trkpt lat="43.01583" lon="-0.75232">
        <ele>975.2</ele>
        <time>2021-12-29T11:47:29.000Z</time>
      </trkpt>
      <trkpt lat="43.01585" lon="-0.75231">
        <ele>975.4</ele>
        <time>2021-12-29T11:47:30.000Z</time>
      </trkpt>
      <trkpt lat="43.01587" lon="-0.7523">
        <ele>975.6</ele>
        <time>2021-12-29T11:47:31.000Z</time>
      </trkpt>
      <trkpt lat="43.01588" lon="-0.7523">
        <ele>975.6</ele>
        <time>2021-12-29T11:47:32.000Z</time>
      </trkpt>
      <trkpt lat="43.01589" lon="-0.7523">
        <ele>975.8</ele>
        <time>2021-12-29T11:47:33.000Z</time>
      </trkpt>
      <trkpt lat="43.01594" lon="-0.75228">
        <ele>976</ele>
        <time>2021-12-29T11:47:34.000Z</time>
      </trkpt>
      <trkpt lat="43.01595" lon="-0.75228">
        <ele>976</ele>
        <time>2021-12-29T11:47:35.000Z</time>
      </trkpt>
      <trkpt lat="43.01599" lon="-0.75226">
        <ele>976.2</ele>
        <time>2021-12-29T11:47:36.000Z</time>
      </trkpt>
      <trkpt lat="43.01602" lon="-0.75224">
        <ele>976.4</ele>
        <time>2021-12-29T11:47:37.000Z</time>
      </trkpt>
      <trkpt lat="43.01604" lon="-0.75223">
        <ele>976.6</ele>
        <time>2021-12-29T11:47:38.000Z</time>
      </trkpt>
      <trkpt lat="43.01606" lon="-0.75223">
        <ele>977</ele>
        <time>2021-12-29T11:47:39.000Z</time>
      </trkpt>
      <trkpt lat="43.01608" lon="-0.75222">
        <ele>977.2</ele>
        <time>2021-12-29T11:47:40.000Z</time>
      </trkpt>
      <trkpt lat="43.01611" lon="-0.75222">
        <ele>977.2</ele>
        <time>2021-12-29T11:47:41.000Z</time>
      </trkpt>
      <trkpt lat="43.01613" lon="-0.75222">
        <ele>977.4</ele>
        <time>2021-12-29T11:47:42.000Z</time>
      </trkpt>
      <trkpt lat="43.01615" lon="-0.75222">
        <ele>977.6</ele>
        <time>2021-12-29T11:47:43.000Z</time>
      </trkpt>
      <trkpt lat="43.01616" lon="-0.75222">
        <ele>977.8</ele>
        <time>2021-12-29T11:47:44.000Z</time>
      </trkpt>
      <trkpt lat="43.01617" lon="-0.75222">
        <ele>978</ele>
        <time>2021-12-29T11:47:45.000Z</time>
      </trkpt>
      <trkpt lat="43.01618" lon="-0.75222">
        <ele>978.2</ele>
        <time>2021-12-29T11:47:46.000Z</time>
      </trkpt>
      <trkpt lat="43.0162" lon="-0.75222">
        <ele>978.2</ele>
        <time>2021-12-29T11:47:47.000Z</time>
      </trkpt>
      <trkpt lat="43.01621" lon="-0.75222">
        <ele>978.4</ele>
        <time>2021-12-29T11:47:48.000Z</time>
      </trkpt>
      <trkpt lat="43.01622" lon="-0.75223">
        <ele>978.6</ele>
        <time>2021-12-29T11:47:49.000Z</time>
      </trkpt>
      <trkpt lat="43.01623" lon="-0.75223">
        <ele>978.8</ele>
        <time>2021-12-29T11:47:50.000Z</time>
      </trkpt>
      <trkpt lat="43.01625" lon="-0.75223">
        <ele>978.8</ele>
        <time>2021-12-29T11:47:51.000Z</time>
      </trkpt>
      <trkpt lat="43.01626" lon="-0.75223">
        <ele>979</ele>
        <time>2021-12-29T11:47:52.000Z</time>
      </trkpt>
      <trkpt lat="43.01628" lon="-0.75223">
        <ele>979.2</ele>
        <time>2021-12-29T11:47:53.000Z</time>
      </trkpt>
      <trkpt lat="43.01629" lon="-0.75223">
        <ele>979.2</ele>
        <time>2021-12-29T11:47:54.000Z</time>
      </trkpt>
      <trkpt lat="43.0163" lon="-0.75223">
        <ele>979.4</ele>
        <time>2021-12-29T11:47:55.000Z</time>
      </trkpt>
      <trkpt lat="43.01632" lon="-0.75224">
        <ele>979.6</ele>
        <time>2021-12-29T11:47:56.000Z</time>
      </trkpt>
      <trkpt lat="43.01633" lon="-0.75224">
        <ele>979.6</ele>
        <time>2021-12-29T11:47:57.000Z</time>
      </trkpt>
      <trkpt lat="43.01635" lon="-0.75224">
        <ele>979.8</ele>
        <time>2021-12-29T11:47:58.000Z</time>
      </trkpt>
      <trkpt lat="43.01637" lon="-0.75224">
        <ele>980</ele>
        <time>2021-12-29T11:47:59.000Z</time>
      </trkpt>
      <trkpt lat="43.01638" lon="-0.75225">
        <ele>980.2</ele>
        <time>2021-12-29T11:48:00.000Z</time>
      </trkpt>
      <trkpt lat="43.0164" lon="-0.75225">
        <ele>980.4</ele>
        <time>2021-12-29T11:48:01.000Z</time>
      </trkpt>
      <trkpt lat="43.01642" lon="-0.75226">
        <ele>980.6</ele>
        <time>2021-12-29T11:48:02.000Z</time>
      </trkpt>
      <trkpt lat="43.01643" lon="-0.75226">
        <ele>980.8</ele>
        <time>2021-12-29T11:48:03.000Z</time>
      </trkpt>
      <trkpt lat="43.01644" lon="-0.75226">
        <ele>981</ele>
        <time>2021-12-29T11:48:04.000Z</time>
      </trkpt>
      <trkpt lat="43.01646" lon="-0.75226">
        <ele>981.2</ele>
        <time>2021-12-29T11:48:05.000Z</time>
      </trkpt>
      <trkpt lat="43.01647" lon="-0.75226">
        <ele>981.4</ele>
        <time>2021-12-29T11:48:06.000Z</time>
      </trkpt>
      <trkpt lat="43.01648" lon="-0.75226">
        <ele>981.6</ele>
        <time>2021-12-29T11:48:07.000Z</time>
      </trkpt>
      <trkpt lat="43.01648" lon="-0.75226">
        <ele>981.6</ele>
        <time>2021-12-29T11:48:08.000Z</time>
      </trkpt>
      <trkpt lat="43.01649" lon="-0.75227">
        <ele>981.8</ele>
        <time>2021-12-29T11:48:09.000Z</time>
      </trkpt>
      <trkpt lat="43.01651" lon="-0.75227">
        <ele>982</ele>
        <time>2021-12-29T11:48:10.000Z</time>
      </trkpt>
      <trkpt lat="43.01653" lon="-0.75227">
        <ele>982.2</ele>
        <time>2021-12-29T11:48:11.000Z</time>
      </trkpt>
      <trkpt lat="43.01654" lon="-0.75228">
        <ele>982.4</ele>
        <time>2021-12-29T11:48:12.000Z</time>
      </trkpt>
      <trkpt lat="43.01655" lon="-0.75228">
        <ele>982.6</ele>
        <time>2021-12-29T11:48:13.000Z</time>
      </trkpt>
      <trkpt lat="43.01657" lon="-0.75227">
        <ele>982.8</ele>
        <time>2021-12-29T11:48:14.000Z</time>
      </trkpt>
      <trkpt lat="43.01658" lon="-0.75228">
        <ele>983</ele>
        <time>2021-12-29T11:48:15.000Z</time>
      </trkpt>
      <trkpt lat="43.0166" lon="-0.75228">
        <ele>983.2</ele>
        <time>2021-12-29T11:48:16.000Z</time>
      </trkpt>
      <trkpt lat="43.01659" lon="-0.75228">
        <ele>983.4</ele>
        <time>2021-12-29T11:48:17.000Z</time>
      </trkpt>
      <trkpt lat="43.01662" lon="-0.75228">
        <ele>983.4</ele>
        <time>2021-12-29T11:48:18.000Z</time>
      </trkpt>
      <trkpt lat="43.01663" lon="-0.75228">
        <ele>983.6</ele>
        <time>2021-12-29T11:48:19.000Z</time>
      </trkpt>
      <trkpt lat="43.01665" lon="-0.75227">
        <ele>983.8</ele>
        <time>2021-12-29T11:48:20.000Z</time>
      </trkpt>
      <trkpt lat="43.01668" lon="-0.75227">
        <ele>984</ele>
        <time>2021-12-29T11:48:21.000Z</time>
      </trkpt>
      <trkpt lat="43.01669" lon="-0.75227">
        <ele>984.2</ele>
        <time>2021-12-29T11:48:22.000Z</time>
      </trkpt>
      <trkpt lat="43.01673" lon="-0.75226">
        <ele>984.2</ele>
        <time>2021-12-29T11:48:23.000Z</time>
      </trkpt>
      <trkpt lat="43.01675" lon="-0.75226">
        <ele>984.4</ele>
        <time>2021-12-29T11:48:24.000Z</time>
      </trkpt>
      <trkpt lat="43.01676" lon="-0.75227">
        <ele>984.6</ele>
        <time>2021-12-29T11:48:25.000Z</time>
      </trkpt>
      <trkpt lat="43.01678" lon="-0.75227">
        <ele>984.8</ele>
        <time>2021-12-29T11:48:26.000Z</time>
      </trkpt>
      <trkpt lat="43.01678" lon="-0.75227">
        <ele>985</ele>
        <time>2021-12-29T11:48:27.000Z</time>
      </trkpt>
      <trkpt lat="43.01679" lon="-0.75228">
        <ele>985.2</ele>
        <time>2021-12-29T11:48:28.000Z</time>
      </trkpt>
      <trkpt lat="43.0168" lon="-0.75227">
        <ele>985.2</ele>
        <time>2021-12-29T11:48:29.000Z</time>
      </trkpt>
      <trkpt lat="43.01681" lon="-0.75227">
        <ele>985.4</ele>
        <time>2021-12-29T11:48:30.000Z</time>
      </trkpt>
      <trkpt lat="43.01683" lon="-0.75227">
        <ele>985.6</ele>
        <time>2021-12-29T11:48:31.000Z</time>
      </trkpt>
      <trkpt lat="43.01684" lon="-0.75228">
        <ele>985.8</ele>
        <time>2021-12-29T11:48:32.000Z</time>
      </trkpt>
      <trkpt lat="43.01686" lon="-0.75229">
        <ele>985.8</ele>
        <time>2021-12-29T11:48:33.000Z</time>
      </trkpt>
      <trkpt lat="43.01687" lon="-0.7523">
        <ele>986</ele>
        <time>2021-12-29T11:48:34.000Z</time>
      </trkpt>
      <trkpt lat="43.01688" lon="-0.7523">
        <ele>986.2</ele>
        <time>2021-12-29T11:48:35.000Z</time>
      </trkpt>
      <trkpt lat="43.01689" lon="-0.7523">
        <ele>986.4</ele>
        <time>2021-12-29T11:48:36.000Z</time>
      </trkpt>
      <trkpt lat="43.0169" lon="-0.7523">
        <ele>986.4</ele>
        <time>2021-12-29T11:48:37.000Z</time>
      </trkpt>
      <trkpt lat="43.01691" lon="-0.7523">
        <ele>986.6</ele>
        <time>2021-12-29T11:48:38.000Z</time>
      </trkpt>
      <trkpt lat="43.01693" lon="-0.7523">
        <ele>986.8</ele>
        <time>2021-12-29T11:48:39.000Z</time>
      </trkpt>
      <trkpt lat="43.01694" lon="-0.75231">
        <ele>987</ele>
        <time>2021-12-29T11:48:40.000Z</time>
      </trkpt>
      <trkpt lat="43.01696" lon="-0.75231">
        <ele>987.2</ele>
        <time>2021-12-29T11:48:41.000Z</time>
      </trkpt>
      <trkpt lat="43.01697" lon="-0.75232">
        <ele>987.4</ele>
        <time>2021-12-29T11:48:42.000Z</time>
      </trkpt>
      <trkpt lat="43.01698" lon="-0.75233">
        <ele>987.4</ele>
        <time>2021-12-29T11:48:43.000Z</time>
      </trkpt>
      <trkpt lat="43.01699" lon="-0.75233">
        <ele>987.6</ele>
        <time>2021-12-29T11:49:22.000Z</time>
      </trkpt>
      <trkpt lat="43.01753" lon="-0.75237">
        <ele>993.8</ele>
        <time>2021-12-29T11:49:23.000Z</time>
      </trkpt>
      <trkpt lat="43.01755" lon="-0.75237">
        <ele>994</ele>
        <time>2021-12-29T11:49:24.000Z</time>
      </trkpt>
      <trkpt lat="43.01756" lon="-0.75237">
        <ele>994</ele>
        <time>2021-12-29T11:49:25.000Z</time>
      </trkpt>
      <trkpt lat="43.01757" lon="-0.75237">
        <ele>994.2</ele>
        <time>2021-12-29T11:49:26.000Z</time>
      </trkpt>
      <trkpt lat="43.01759" lon="-0.75236">
        <ele>994.4</ele>
        <time>2021-12-29T11:49:27.000Z</time>
      </trkpt>
      <trkpt lat="43.0176" lon="-0.75236">
        <ele>994.6</ele>
        <time>2021-12-29T11:49:28.000Z</time>
      </trkpt>
      <trkpt lat="43.01762" lon="-0.75235">
        <ele>994.8</ele>
        <time>2021-12-29T11:49:29.000Z</time>
      </trkpt>
      <trkpt lat="43.01763" lon="-0.75234">
        <ele>995</ele>
        <time>2021-12-29T11:49:30.000Z</time>
      </trkpt>
      <trkpt lat="43.01765" lon="-0.75233">
        <ele>995.2</ele>
        <time>2021-12-29T11:49:31.000Z</time>
      </trkpt>
      <trkpt lat="43.01766" lon="-0.75232">
        <ele>995.4</ele>
        <time>2021-12-29T11:49:32.000Z</time>
      </trkpt>
      <trkpt lat="43.01768" lon="-0.75232">
        <ele>995.6</ele>
        <time>2021-12-29T11:49:33.000Z</time>
      </trkpt>
      <trkpt lat="43.01768" lon="-0.75232">
        <ele>995.6</ele>
        <time>2021-12-29T11:49:34.000Z</time>
      </trkpt>
      <trkpt lat="43.01769" lon="-0.75231">
        <ele>995.8</ele>
        <time>2021-12-29T11:49:35.000Z</time>
      </trkpt>
      <trkpt lat="43.0177" lon="-0.75231">
        <ele>996</ele>
        <time>2021-12-29T11:49:36.000Z</time>
      </trkpt>
      <trkpt lat="43.01771" lon="-0.7523">
        <ele>996.2</ele>
        <time>2021-12-29T11:49:37.000Z</time>
      </trkpt>
      <trkpt lat="43.01772" lon="-0.75229">
        <ele>996.4</ele>
        <time>2021-12-29T11:49:38.000Z</time>
      </trkpt>
      <trkpt lat="43.01774" lon="-0.75228">
        <ele>996.6</ele>
        <time>2021-12-29T11:49:39.000Z</time>
      </trkpt>
      <trkpt lat="43.01775" lon="-0.75227">
        <ele>996.6</ele>
        <time>2021-12-29T11:49:40.000Z</time>
      </trkpt>
      <trkpt lat="43.01777" lon="-0.75226">
        <ele>996.8</ele>
        <time>2021-12-29T11:49:46.000Z</time>
      </trkpt>
      <trkpt lat="43.01786" lon="-0.75222">
        <ele>998</ele>
        <time>2021-12-29T11:49:47.000Z</time>
      </trkpt>
      <trkpt lat="43.01787" lon="-0.75222">
        <ele>998</ele>
        <time>2021-12-29T11:49:48.000Z</time>
      </trkpt>
      <trkpt lat="43.01788" lon="-0.75222">
        <ele>998.2</ele>
        <time>2021-12-29T11:49:49.000Z</time>
      </trkpt>
      <trkpt lat="43.0179" lon="-0.75221">
        <ele>998.4</ele>
        <time>2021-12-29T11:49:50.000Z</time>
      </trkpt>
      <trkpt lat="43.01791" lon="-0.75221">
        <ele>998.6</ele>
        <time>2021-12-29T11:49:51.000Z</time>
      </trkpt>
      <trkpt lat="43.01792" lon="-0.7522">
        <ele>998.8</ele>
        <time>2021-12-29T11:49:52.000Z</time>
      </trkpt>
      <trkpt lat="43.01793" lon="-0.7522">
        <ele>998.8</ele>
        <time>2021-12-29T11:49:53.000Z</time>
      </trkpt>
      <trkpt lat="43.01795" lon="-0.7522">
        <ele>999</ele>
        <time>2021-12-29T11:49:54.000Z</time>
      </trkpt>
      <trkpt lat="43.01796" lon="-0.75219">
        <ele>999.2</ele>
        <time>2021-12-29T11:49:55.000Z</time>
      </trkpt>
      <trkpt lat="43.01797" lon="-0.75219">
        <ele>999.4</ele>
        <time>2021-12-29T11:49:56.000Z</time>
      </trkpt>
      <trkpt lat="43.01799" lon="-0.75218">
        <ele>999.6</ele>
        <time>2021-12-29T11:49:57.000Z</time>
      </trkpt>
      <trkpt lat="43.018" lon="-0.75218">
        <ele>999.8</ele>
        <time>2021-12-29T11:49:58.000Z</time>
      </trkpt>
      <trkpt lat="43.01802" lon="-0.75218">
        <ele>999.8</ele>
        <time>2021-12-29T11:49:59.000Z</time>
      </trkpt>
      <trkpt lat="43.01803" lon="-0.75217">
        <ele>1000.2</ele>
        <time>2021-12-29T11:50:00.000Z</time>
      </trkpt>
      <trkpt lat="43.01805" lon="-0.75216">
        <ele>1000.2</ele>
        <time>2021-12-29T11:50:01.000Z</time>
      </trkpt>
      <trkpt lat="43.01806" lon="-0.75216">
        <ele>1000.4</ele>
        <time>2021-12-29T11:50:02.000Z</time>
      </trkpt>
      <trkpt lat="43.01807" lon="-0.75216">
        <ele>1000.6</ele>
        <time>2021-12-29T11:50:03.000Z</time>
      </trkpt>
      <trkpt lat="43.01809" lon="-0.75216">
        <ele>1000.8</ele>
        <time>2021-12-29T11:50:04.000Z</time>
      </trkpt>
      <trkpt lat="43.01811" lon="-0.75215">
        <ele>1001</ele>
        <time>2021-12-29T11:50:05.000Z</time>
      </trkpt>
      <trkpt lat="43.01812" lon="-0.75215">
        <ele>1001.2</ele>
        <time>2021-12-29T11:50:06.000Z</time>
      </trkpt>
      <trkpt lat="43.01812" lon="-0.75214">
        <ele>1001.2</ele>
        <time>2021-12-29T11:50:07.000Z</time>
      </trkpt>
      <trkpt lat="43.01814" lon="-0.75214">
        <ele>1001.4</ele>
        <time>2021-12-29T11:50:08.000Z</time>
      </trkpt>
      <trkpt lat="43.01814" lon="-0.75214">
        <ele>1001.6</ele>
        <time>2021-12-29T11:50:09.000Z</time>
      </trkpt>
      <trkpt lat="43.01815" lon="-0.75214">
        <ele>1001.6</ele>
        <time>2021-12-29T11:50:10.000Z</time>
      </trkpt>
      <trkpt lat="43.01815" lon="-0.75214">
        <ele>1001.8</ele>
        <time>2021-12-29T11:50:11.000Z</time>
      </trkpt>
      <trkpt lat="43.01816" lon="-0.75214">
        <ele>1002</ele>
        <time>2021-12-29T11:50:12.000Z</time>
      </trkpt>
      <trkpt lat="43.01817" lon="-0.75215">
        <ele>1002.2</ele>
        <time>2021-12-29T11:50:13.000Z</time>
      </trkpt>
      <trkpt lat="43.01818" lon="-0.75216">
        <ele>1002.2</ele>
        <time>2021-12-29T11:50:14.000Z</time>
      </trkpt>
      <trkpt lat="43.01819" lon="-0.75218">
        <ele>1002.2</ele>
        <time>2021-12-29T11:50:15.000Z</time>
      </trkpt>
      <trkpt lat="43.01821" lon="-0.75219">
        <ele>1002.4</ele>
        <time>2021-12-29T11:50:21.000Z</time>
      </trkpt>
      <trkpt lat="43.01828" lon="-0.75226">
        <ele>1003.4</ele>
        <time>2021-12-29T11:50:22.000Z</time>
      </trkpt>
      <trkpt lat="43.0183" lon="-0.75227">
        <ele>1003.8</ele>
        <time>2021-12-29T11:50:23.000Z</time>
      </trkpt>
      <trkpt lat="43.01831" lon="-0.75228">
        <ele>1004</ele>
        <time>2021-12-29T11:50:24.000Z</time>
      </trkpt>
      <trkpt lat="43.01832" lon="-0.7523">
        <ele>1004</ele>
        <time>2021-12-29T11:50:25.000Z</time>
      </trkpt>
      <trkpt lat="43.01832" lon="-0.75231">
        <ele>1004.4</ele>
        <time>2021-12-29T11:50:26.000Z</time>
      </trkpt>
      <trkpt lat="43.01832" lon="-0.75232">
        <ele>1004.6</ele>
        <time>2021-12-29T11:50:27.000Z</time>
      </trkpt>
      <trkpt lat="43.01832" lon="-0.75233">
        <ele>1004.6</ele>
        <time>2021-12-29T11:50:28.000Z</time>
      </trkpt>
      <trkpt lat="43.01831" lon="-0.75234">
        <ele>1004.8</ele>
        <time>2021-12-29T11:50:29.000Z</time>
      </trkpt>
      <trkpt lat="43.01831" lon="-0.75235">
        <ele>1005</ele>
        <time>2021-12-29T11:50:30.000Z</time>
      </trkpt>
      <trkpt lat="43.0183" lon="-0.75235">
        <ele>1005.2</ele>
        <time>2021-12-29T11:50:31.000Z</time>
      </trkpt>
      <trkpt lat="43.01829" lon="-0.75236">
        <ele>1005.4</ele>
        <time>2021-12-29T11:50:32.000Z</time>
      </trkpt>
      <trkpt lat="43.01827" lon="-0.75236">
        <ele>1005.6</ele>
        <time>2021-12-29T11:50:33.000Z</time>
      </trkpt>
      <trkpt lat="43.01826" lon="-0.75236">
        <ele>1005.8</ele>
        <time>2021-12-29T11:50:34.000Z</time>
      </trkpt>
      <trkpt lat="43.01825" lon="-0.75236">
        <ele>1006</ele>
        <time>2021-12-29T11:50:35.000Z</time>
      </trkpt>
      <trkpt lat="43.01824" lon="-0.75236">
        <ele>1006.2</ele>
        <time>2021-12-29T11:50:36.000Z</time>
      </trkpt>
      <trkpt lat="43.01823" lon="-0.75236">
        <ele>1006.4</ele>
        <time>2021-12-29T11:50:37.000Z</time>
      </trkpt>
      <trkpt lat="43.01821" lon="-0.75236">
        <ele>1006.6</ele>
        <time>2021-12-29T11:50:38.000Z</time>
      </trkpt>
      <trkpt lat="43.0182" lon="-0.75236">
        <ele>1006.6</ele>
        <time>2021-12-29T11:50:39.000Z</time>
      </trkpt>
      <trkpt lat="43.01819" lon="-0.75236">
        <ele>1006.8</ele>
        <time>2021-12-29T11:50:40.000Z</time>
      </trkpt>
      <trkpt lat="43.01818" lon="-0.75236">
        <ele>1007</ele>
        <time>2021-12-29T11:50:41.000Z</time>
      </trkpt>
      <trkpt lat="43.01816" lon="-0.75237">
        <ele>1007.2</ele>
        <time>2021-12-29T11:50:42.000Z</time>
      </trkpt>
      <trkpt lat="43.01815" lon="-0.75238">
        <ele>1007.4</ele>
        <time>2021-12-29T11:50:43.000Z</time>
      </trkpt>
      <trkpt lat="43.01814" lon="-0.75238">
        <ele>1007.6</ele>
        <time>2021-12-29T11:50:44.000Z</time>
      </trkpt>
      <trkpt lat="43.01814" lon="-0.75239">
        <ele>1007.8</ele>
        <time>2021-12-29T11:50:45.000Z</time>
      </trkpt>
      <trkpt lat="43.01812" lon="-0.75239">
        <ele>1007.8</ele>
        <time>2021-12-29T11:50:46.000Z</time>
      </trkpt>
      <trkpt lat="43.01811" lon="-0.75239">
        <ele>1008</ele>
        <time>2021-12-29T11:50:47.000Z</time>
      </trkpt>
      <trkpt lat="43.01811" lon="-0.7524">
        <ele>1008.2</ele>
        <time>2021-12-29T11:50:48.000Z</time>
      </trkpt>
      <trkpt lat="43.0181" lon="-0.75241">
        <ele>1008.2</ele>
        <time>2021-12-29T11:50:49.000Z</time>
      </trkpt>
      <trkpt lat="43.01809" lon="-0.75242">
        <ele>1008.4</ele>
        <time>2021-12-29T11:50:50.000Z</time>
      </trkpt>
      <trkpt lat="43.01809" lon="-0.75244">
        <ele>1008.4</ele>
        <time>2021-12-29T11:50:51.000Z</time>
      </trkpt>
      <trkpt lat="43.01808" lon="-0.75246">
        <ele>1008.6</ele>
        <time>2021-12-29T11:50:52.000Z</time>
      </trkpt>
      <trkpt lat="43.01808" lon="-0.75249">
        <ele>1008.6</ele>
        <time>2021-12-29T11:50:53.000Z</time>
      </trkpt>
      <trkpt lat="43.01807" lon="-0.7525">
        <ele>1008.8</ele>
        <time>2021-12-29T11:50:54.000Z</time>
      </trkpt>
      <trkpt lat="43.01806" lon="-0.75252">
        <ele>1008.8</ele>
        <time>2021-12-29T11:50:55.000Z</time>
      </trkpt>
      <trkpt lat="43.01805" lon="-0.75254">
        <ele>1009</ele>
        <time>2021-12-29T11:50:56.000Z</time>
      </trkpt>
      <trkpt lat="43.01803" lon="-0.75255">
        <ele>1009.2</ele>
        <time>2021-12-29T11:50:57.000Z</time>
      </trkpt>
      <trkpt lat="43.01802" lon="-0.75256">
        <ele>1009.2</ele>
        <time>2021-12-29T11:50:58.000Z</time>
      </trkpt>
      <trkpt lat="43.018" lon="-0.75256">
        <ele>1009.4</ele>
        <time>2021-12-29T11:50:59.000Z</time>
      </trkpt>
      <trkpt lat="43.01799" lon="-0.75257">
        <ele>1009.4</ele>
        <time>2021-12-29T11:51:00.000Z</time>
      </trkpt>
      <trkpt lat="43.01797" lon="-0.75257">
        <ele>1009.6</ele>
        <time>2021-12-29T11:51:01.000Z</time>
      </trkpt>
      <trkpt lat="43.01796" lon="-0.75257">
        <ele>1009.8</ele>
        <time>2021-12-29T11:51:02.000Z</time>
      </trkpt>
      <trkpt lat="43.01795" lon="-0.75258">
        <ele>1009.8</ele>
        <time>2021-12-29T11:51:03.000Z</time>
      </trkpt>
      <trkpt lat="43.01794" lon="-0.75259">
        <ele>1010</ele>
        <time>2021-12-29T11:51:04.000Z</time>
      </trkpt>
      <trkpt lat="43.01792" lon="-0.75259">
        <ele>1010.2</ele>
        <time>2021-12-29T11:51:05.000Z</time>
      </trkpt>
      <trkpt lat="43.01791" lon="-0.7526">
        <ele>1010.2</ele>
        <time>2021-12-29T11:51:06.000Z</time>
      </trkpt>
      <trkpt lat="43.0179" lon="-0.75261">
        <ele>1010.4</ele>
        <time>2021-12-29T11:51:07.000Z</time>
      </trkpt>
      <trkpt lat="43.01789" lon="-0.75262">
        <ele>1010.4</ele>
        <time>2021-12-29T11:51:08.000Z</time>
      </trkpt>
      <trkpt lat="43.01787" lon="-0.75263">
        <ele>1010.6</ele>
        <time>2021-12-29T11:51:09.000Z</time>
      </trkpt>
      <trkpt lat="43.01786" lon="-0.75265">
        <ele>1010.8</ele>
        <time>2021-12-29T11:51:10.000Z</time>
      </trkpt>
      <trkpt lat="43.01785" lon="-0.75265">
        <ele>1011</ele>
        <time>2021-12-29T11:51:11.000Z</time>
      </trkpt>
      <trkpt lat="43.01784" lon="-0.75266">
        <ele>1011</ele>
        <time>2021-12-29T11:51:12.000Z</time>
      </trkpt>
      <trkpt lat="43.01784" lon="-0.75268">
        <ele>1011.2</ele>
        <time>2021-12-29T11:51:13.000Z</time>
      </trkpt>
      <trkpt lat="43.01783" lon="-0.75269">
        <ele>1011.4</ele>
        <time>2021-12-29T11:51:14.000Z</time>
      </trkpt>
      <trkpt lat="43.01781" lon="-0.7527">
        <ele>1011.6</ele>
        <time>2021-12-29T11:51:15.000Z</time>
      </trkpt>
      <trkpt lat="43.0178" lon="-0.75271">
        <ele>1011.8</ele>
        <time>2021-12-29T11:51:16.000Z</time>
      </trkpt>
      <trkpt lat="43.01778" lon="-0.75271">
        <ele>1012</ele>
        <time>2021-12-29T11:51:17.000Z</time>
      </trkpt>
      <trkpt lat="43.01776" lon="-0.75271">
        <ele>1012.2</ele>
        <time>2021-12-29T11:51:18.000Z</time>
      </trkpt>
      <trkpt lat="43.01775" lon="-0.75272">
        <ele>1012.2</ele>
        <time>2021-12-29T11:51:19.000Z</time>
      </trkpt>
      <trkpt lat="43.01773" lon="-0.75273">
        <ele>1012.4</ele>
        <time>2021-12-29T11:51:20.000Z</time>
      </trkpt>
      <trkpt lat="43.01772" lon="-0.75274">
        <ele>1012.8</ele>
        <time>2021-12-29T11:51:21.000Z</time>
      </trkpt>
      <trkpt lat="43.01771" lon="-0.75274">
        <ele>1013</ele>
        <time>2021-12-29T11:51:22.000Z</time>
      </trkpt>
      <trkpt lat="43.01769" lon="-0.75275">
        <ele>1013.2</ele>
        <time>2021-12-29T11:51:23.000Z</time>
      </trkpt>
      <trkpt lat="43.01768" lon="-0.75276">
        <ele>1013.4</ele>
        <time>2021-12-29T11:51:24.000Z</time>
      </trkpt>
      <trkpt lat="43.01767" lon="-0.75277">
        <ele>1013.6</ele>
        <time>2021-12-29T11:51:25.000Z</time>
      </trkpt>
      <trkpt lat="43.01766" lon="-0.75278">
        <ele>1013.8</ele>
        <time>2021-12-29T11:51:26.000Z</time>
      </trkpt>
      <trkpt lat="43.01765" lon="-0.75279">
        <ele>1014</ele>
        <time>2021-12-29T11:51:27.000Z</time>
      </trkpt>
      <trkpt lat="43.01764" lon="-0.75279">
        <ele>1014</ele>
        <time>2021-12-29T11:51:28.000Z</time>
      </trkpt>
      <trkpt lat="43.01763" lon="-0.7528">
        <ele>1014.2</ele>
        <time>2021-12-29T11:51:29.000Z</time>
      </trkpt>
      <trkpt lat="43.01762" lon="-0.75281">
        <ele>1015.4</ele>
        <time>2021-12-29T11:51:30.000Z</time>
      </trkpt>
      <trkpt lat="43.0176" lon="-0.75281">
        <ele>1015.8</ele>
        <time>2021-12-29T11:51:31.000Z</time>
      </trkpt>
      <trkpt lat="43.0176" lon="-0.75282">
        <ele>1015</ele>
        <time>2021-12-29T11:51:32.000Z</time>
      </trkpt>
      <trkpt lat="43.01759" lon="-0.75284">
        <ele>1015</ele>
        <time>2021-12-29T11:51:33.000Z</time>
      </trkpt>
      <trkpt lat="43.01758" lon="-0.75285">
        <ele>1016.2</ele>
        <time>2021-12-29T11:51:34.000Z</time>
      </trkpt>
      <trkpt lat="43.01757" lon="-0.75286">
        <ele>1015.4</ele>
        <time>2021-12-29T11:51:35.000Z</time>
      </trkpt>
      <trkpt lat="43.01756" lon="-0.75287">
        <ele>1015.4</ele>
        <time>2021-12-29T11:51:36.000Z</time>
      </trkpt>
      <trkpt lat="43.01755" lon="-0.75288">
        <ele>1015.8</ele>
        <time>2021-12-29T11:51:37.000Z</time>
      </trkpt>
      <trkpt lat="43.01753" lon="-0.75288">
        <ele>1015.8</ele>
        <time>2021-12-29T11:51:38.000Z</time>
      </trkpt>
      <trkpt lat="43.01752" lon="-0.7529">
        <ele>1016</ele>
        <time>2021-12-29T11:51:39.000Z</time>
      </trkpt>
      <trkpt lat="43.01751" lon="-0.7529">
        <ele>1016.2</ele>
        <time>2021-12-29T11:51:40.000Z</time>
      </trkpt>
      <trkpt lat="43.0175" lon="-0.75291">
        <ele>1016.2</ele>
        <time>2021-12-29T11:51:41.000Z</time>
      </trkpt>
      <trkpt lat="43.0175" lon="-0.75294">
        <ele>1016.4</ele>
        <time>2021-12-29T11:51:42.000Z</time>
      </trkpt>
      <trkpt lat="43.01749" lon="-0.75295">
        <ele>1016.6</ele>
        <time>2021-12-29T11:51:43.000Z</time>
      </trkpt>
      <trkpt lat="43.01748" lon="-0.75297">
        <ele>1016.6</ele>
        <time>2021-12-29T11:51:44.000Z</time>
      </trkpt>
      <trkpt lat="43.01747" lon="-0.75298">
        <ele>1016.8</ele>
        <time>2021-12-29T11:51:45.000Z</time>
      </trkpt>
      <trkpt lat="43.01746" lon="-0.75299">
        <ele>1017</ele>
        <time>2021-12-29T11:51:46.000Z</time>
      </trkpt>
      <trkpt lat="43.01745" lon="-0.75299">
        <ele>1017</ele>
        <time>2021-12-29T11:51:47.000Z</time>
      </trkpt>
      <trkpt lat="43.01743" lon="-0.753">
        <ele>1017.4</ele>
        <time>2021-12-29T11:51:48.000Z</time>
      </trkpt>
      <trkpt lat="43.0174" lon="-0.75299">
        <ele>1017.4</ele>
        <time>2021-12-29T11:51:49.000Z</time>
      </trkpt>
      <trkpt lat="43.01738" lon="-0.753">
        <ele>1017.6</ele>
        <time>2021-12-29T11:51:50.000Z</time>
      </trkpt>
      <trkpt lat="43.01736" lon="-0.753">
        <ele>1017.8</ele>
        <time>2021-12-29T11:51:51.000Z</time>
      </trkpt>
      <trkpt lat="43.01735" lon="-0.75299">
        <ele>1017.8</ele>
        <time>2021-12-29T11:51:52.000Z</time>
      </trkpt>
      <trkpt lat="43.01733" lon="-0.75299">
        <ele>1018</ele>
        <time>2021-12-29T11:51:53.000Z</time>
      </trkpt>
      <trkpt lat="43.01732" lon="-0.753">
        <ele>1018.2</ele>
        <time>2021-12-29T11:51:54.000Z</time>
      </trkpt>
      <trkpt lat="43.01731" lon="-0.753">
        <ele>1018.4</ele>
        <time>2021-12-29T11:51:55.000Z</time>
      </trkpt>
      <trkpt lat="43.01729" lon="-0.753">
        <ele>1018.4</ele>
        <time>2021-12-29T11:51:56.000Z</time>
      </trkpt>
      <trkpt lat="43.01727" lon="-0.75299">
        <ele>1018.6</ele>
        <time>2021-12-29T11:51:57.000Z</time>
      </trkpt>
      <trkpt lat="43.01725" lon="-0.75298">
        <ele>1018.8</ele>
        <time>2021-12-29T11:51:58.000Z</time>
      </trkpt>
      <trkpt lat="43.01723" lon="-0.75299">
        <ele>1018.8</ele>
        <time>2021-12-29T11:51:59.000Z</time>
      </trkpt>
      <trkpt lat="43.01722" lon="-0.753">
        <ele>1019</ele>
        <time>2021-12-29T11:52:00.000Z</time>
      </trkpt>
      <trkpt lat="43.01721" lon="-0.75301">
        <ele>1019.2</ele>
        <time>2021-12-29T11:52:01.000Z</time>
      </trkpt>
      <trkpt lat="43.01719" lon="-0.75302">
        <ele>1019.2</ele>
        <time>2021-12-29T11:52:02.000Z</time>
      </trkpt>
      <trkpt lat="43.01717" lon="-0.75302">
        <ele>1019.4</ele>
        <time>2021-12-29T11:52:03.000Z</time>
      </trkpt>
      <trkpt lat="43.01716" lon="-0.75302">
        <ele>1019.6</ele>
        <time>2021-12-29T11:52:04.000Z</time>
      </trkpt>
      <trkpt lat="43.01714" lon="-0.75302">
        <ele>1019.8</ele>
        <time>2021-12-29T11:52:05.000Z</time>
      </trkpt>
      <trkpt lat="43.01713" lon="-0.75302">
        <ele>1019.8</ele>
        <time>2021-12-29T11:52:06.000Z</time>
      </trkpt>
      <trkpt lat="43.01711" lon="-0.75302">
        <ele>1020</ele>
        <time>2021-12-29T11:52:07.000Z</time>
      </trkpt>
      <trkpt lat="43.01709" lon="-0.75302">
        <ele>1020.2</ele>
        <time>2021-12-29T11:52:08.000Z</time>
      </trkpt>
      <trkpt lat="43.01708" lon="-0.75302">
        <ele>1020.4</ele>
        <time>2021-12-29T11:52:09.000Z</time>
      </trkpt>
      <trkpt lat="43.01706" lon="-0.75302">
        <ele>1020.6</ele>
        <time>2021-12-29T11:52:10.000Z</time>
      </trkpt>
      <trkpt lat="43.01705" lon="-0.75303">
        <ele>1020.8</ele>
        <time>2021-12-29T11:52:11.000Z</time>
      </trkpt>
      <trkpt lat="43.01703" lon="-0.75303">
        <ele>1021</ele>
        <time>2021-12-29T11:52:12.000Z</time>
      </trkpt>
      <trkpt lat="43.01702" lon="-0.75303">
        <ele>1021</ele>
        <time>2021-12-29T11:52:13.000Z</time>
      </trkpt>
      <trkpt lat="43.017" lon="-0.75303">
        <ele>1021.2</ele>
        <time>2021-12-29T11:52:14.000Z</time>
      </trkpt>
      <trkpt lat="43.01699" lon="-0.75302">
        <ele>1021.4</ele>
        <time>2021-12-29T11:52:15.000Z</time>
      </trkpt>
      <trkpt lat="43.01697" lon="-0.75303">
        <ele>1021.6</ele>
        <time>2021-12-29T11:52:16.000Z</time>
      </trkpt>
      <trkpt lat="43.01696" lon="-0.75303">
        <ele>1021.8</ele>
        <time>2021-12-29T11:52:17.000Z</time>
      </trkpt>
      <trkpt lat="43.01694" lon="-0.75303">
        <ele>1022</ele>
        <time>2021-12-29T11:52:18.000Z</time>
      </trkpt>
      <trkpt lat="43.01693" lon="-0.75303">
        <ele>1022.2</ele>
        <time>2021-12-29T11:52:19.000Z</time>
      </trkpt>
      <trkpt lat="43.01691" lon="-0.75303">
        <ele>1022.4</ele>
        <time>2021-12-29T11:52:20.000Z</time>
      </trkpt>
      <trkpt lat="43.0169" lon="-0.75304">
        <ele>1022.6</ele>
        <time>2021-12-29T11:52:21.000Z</time>
      </trkpt>
      <trkpt lat="43.01689" lon="-0.75304">
        <ele>1022.8</ele>
        <time>2021-12-29T11:52:22.000Z</time>
      </trkpt>
      <trkpt lat="43.01687" lon="-0.75304">
        <ele>1022.8</ele>
        <time>2021-12-29T11:52:23.000Z</time>
      </trkpt>
      <trkpt lat="43.01686" lon="-0.75304">
        <ele>1023.2</ele>
        <time>2021-12-29T11:52:24.000Z</time>
      </trkpt>
      <trkpt lat="43.01684" lon="-0.75304">
        <ele>1023.4</ele>
        <time>2021-12-29T11:52:25.000Z</time>
      </trkpt>
      <trkpt lat="43.01683" lon="-0.75305">
        <ele>1023.4</ele>
        <time>2021-12-29T11:52:26.000Z</time>
      </trkpt>
      <trkpt lat="43.01682" lon="-0.75306">
        <ele>1023.4</ele>
        <time>2021-12-29T11:52:27.000Z</time>
      </trkpt>
      <trkpt lat="43.01681" lon="-0.75308">
        <ele>1023.6</ele>
        <time>2021-12-29T11:52:28.000Z</time>
      </trkpt>
      <trkpt lat="43.0168" lon="-0.75309">
        <ele>1023.8</ele>
        <time>2021-12-29T11:52:29.000Z</time>
      </trkpt>
      <trkpt lat="43.01678" lon="-0.7531">
        <ele>1024</ele>
        <time>2021-12-29T11:52:30.000Z</time>
      </trkpt>
      <trkpt lat="43.01677" lon="-0.75311">
        <ele>1024.4</ele>
        <time>2021-12-29T11:52:31.000Z</time>
      </trkpt>
      <trkpt lat="43.01676" lon="-0.75313">
        <ele>1024.6</ele>
        <time>2021-12-29T11:52:32.000Z</time>
      </trkpt>
      <trkpt lat="43.01676" lon="-0.75314">
        <ele>1024.6</ele>
        <time>2021-12-29T11:52:33.000Z</time>
      </trkpt>
      <trkpt lat="43.01676" lon="-0.75316">
        <ele>1025</ele>
        <time>2021-12-29T11:52:34.000Z</time>
      </trkpt>
      <trkpt lat="43.01677" lon="-0.75317">
        <ele>1025</ele>
        <time>2021-12-29T11:52:35.000Z</time>
      </trkpt>
      <trkpt lat="43.01677" lon="-0.75319">
        <ele>1025.2</ele>
        <time>2021-12-29T11:52:36.000Z</time>
      </trkpt>
      <trkpt lat="43.01679" lon="-0.75321">
        <ele>1025.2</ele>
        <time>2021-12-29T11:52:37.000Z</time>
      </trkpt>
      <trkpt lat="43.01679" lon="-0.75322">
        <ele>1025.2</ele>
        <time>2021-12-29T11:52:38.000Z</time>
      </trkpt>
      <trkpt lat="43.0168" lon="-0.75324">
        <ele>1025.4</ele>
        <time>2021-12-29T11:52:39.000Z</time>
      </trkpt>
      <trkpt lat="43.0168" lon="-0.75324">
        <ele>1025.4</ele>
        <time>2021-12-29T11:52:40.000Z</time>
      </trkpt>
      <trkpt lat="43.01681" lon="-0.75325">
        <ele>1025.6</ele>
        <time>2021-12-29T11:52:41.000Z</time>
      </trkpt>
      <trkpt lat="43.01682" lon="-0.75325">
        <ele>1025.6</ele>
        <time>2021-12-29T11:52:42.000Z</time>
      </trkpt>
      <trkpt lat="43.01683" lon="-0.75325">
        <ele>1025.8</ele>
        <time>2021-12-29T11:52:43.000Z</time>
      </trkpt>
      <trkpt lat="43.01684" lon="-0.75326">
        <ele>1025.8</ele>
        <time>2021-12-29T11:52:44.000Z</time>
      </trkpt>
      <trkpt lat="43.01685" lon="-0.75326">
        <ele>1026</ele>
        <time>2021-12-29T11:52:45.000Z</time>
      </trkpt>
      <trkpt lat="43.01686" lon="-0.75326">
        <ele>1026.2</ele>
        <time>2021-12-29T11:52:46.000Z</time>
      </trkpt>
      <trkpt lat="43.01687" lon="-0.75326">
        <ele>1026.2</ele>
        <time>2021-12-29T11:52:47.000Z</time>
      </trkpt>
      <trkpt lat="43.01689" lon="-0.75326">
        <ele>1026.4</ele>
        <time>2021-12-29T11:52:48.000Z</time>
      </trkpt>
      <trkpt lat="43.0169" lon="-0.75325">
        <ele>1026.4</ele>
        <time>2021-12-29T11:52:49.000Z</time>
      </trkpt>
      <trkpt lat="43.01691" lon="-0.75325">
        <ele>1026.6</ele>
        <time>2021-12-29T11:52:50.000Z</time>
      </trkpt>
      <trkpt lat="43.01693" lon="-0.75325">
        <ele>1026.8</ele>
        <time>2021-12-29T11:52:51.000Z</time>
      </trkpt>
      <trkpt lat="43.01694" lon="-0.75324">
        <ele>1026.8</ele>
        <time>2021-12-29T11:52:52.000Z</time>
      </trkpt>
      <trkpt lat="43.01696" lon="-0.75324">
        <ele>1027</ele>
        <time>2021-12-29T11:52:53.000Z</time>
      </trkpt>
      <trkpt lat="43.01697" lon="-0.75323">
        <ele>1027</ele>
        <time>2021-12-29T11:52:54.000Z</time>
      </trkpt>
      <trkpt lat="43.01698" lon="-0.75323">
        <ele>1027.2</ele>
        <time>2021-12-29T11:52:55.000Z</time>
      </trkpt>
      <trkpt lat="43.017" lon="-0.75322">
        <ele>1027.4</ele>
        <time>2021-12-29T11:52:56.000Z</time>
      </trkpt>
      <trkpt lat="43.01701" lon="-0.75322">
        <ele>1027.4</ele>
        <time>2021-12-29T11:52:57.000Z</time>
      </trkpt>
      <trkpt lat="43.01702" lon="-0.75322">
        <ele>1027.6</ele>
        <time>2021-12-29T11:52:58.000Z</time>
      </trkpt>
      <trkpt lat="43.01704" lon="-0.75322">
        <ele>1027.6</ele>
        <time>2021-12-29T11:52:59.000Z</time>
      </trkpt>
      <trkpt lat="43.01705" lon="-0.75322">
        <ele>1027.8</ele>
        <time>2021-12-29T11:53:00.000Z</time>
      </trkpt>
      <trkpt lat="43.01706" lon="-0.75322">
        <ele>1028</ele>
        <time>2021-12-29T11:53:01.000Z</time>
      </trkpt>
      <trkpt lat="43.01707" lon="-0.75322">
        <ele>1028</ele>
        <time>2021-12-29T11:53:02.000Z</time>
      </trkpt>
      <trkpt lat="43.01709" lon="-0.75322">
        <ele>1028.2</ele>
        <time>2021-12-29T11:53:03.000Z</time>
      </trkpt>
      <trkpt lat="43.0171" lon="-0.75321">
        <ele>1028.2</ele>
        <time>2021-12-29T11:53:04.000Z</time>
      </trkpt>
      <trkpt lat="43.01711" lon="-0.75322">
        <ele>1028.4</ele>
        <time>2021-12-29T11:53:05.000Z</time>
      </trkpt>
      <trkpt lat="43.01713" lon="-0.75322">
        <ele>1028.6</ele>
        <time>2021-12-29T11:53:06.000Z</time>
      </trkpt>
      <trkpt lat="43.01715" lon="-0.75322">
        <ele>1028.6</ele>
        <time>2021-12-29T11:53:07.000Z</time>
      </trkpt>
      <trkpt lat="43.01715" lon="-0.75321">
        <ele>1028.8</ele>
        <time>2021-12-29T11:53:08.000Z</time>
      </trkpt>
      <trkpt lat="43.01718" lon="-0.7532">
        <ele>1029</ele>
        <time>2021-12-29T11:53:09.000Z</time>
      </trkpt>
      <trkpt lat="43.01721" lon="-0.7532">
        <ele>1029</ele>
        <time>2021-12-29T11:53:10.000Z</time>
      </trkpt>
      <trkpt lat="43.01722" lon="-0.7532">
        <ele>1029.2</ele>
        <time>2021-12-29T11:53:11.000Z</time>
      </trkpt>
      <trkpt lat="43.01723" lon="-0.75321">
        <ele>1029.2</ele>
        <time>2021-12-29T11:53:12.000Z</time>
      </trkpt>
      <trkpt lat="43.01724" lon="-0.75321">
        <ele>1029.4</ele>
        <time>2021-12-29T11:53:13.000Z</time>
      </trkpt>
      <trkpt lat="43.01725" lon="-0.75321">
        <ele>1029.4</ele>
        <time>2021-12-29T11:53:14.000Z</time>
      </trkpt>
      <trkpt lat="43.01726" lon="-0.75321">
        <ele>1029.6</ele>
        <time>2021-12-29T11:53:15.000Z</time>
      </trkpt>
      <trkpt lat="43.01727" lon="-0.7532">
        <ele>1029.8</ele>
        <time>2021-12-29T11:53:16.000Z</time>
      </trkpt>
      <trkpt lat="43.01729" lon="-0.7532">
        <ele>1030</ele>
        <time>2021-12-29T11:53:17.000Z</time>
      </trkpt>
      <trkpt lat="43.01729" lon="-0.75319">
        <ele>1030</ele>
        <time>2021-12-29T11:53:18.000Z</time>
      </trkpt>
      <trkpt lat="43.0173" lon="-0.75319">
        <ele>1030.2</ele>
        <time>2021-12-29T11:53:19.000Z</time>
      </trkpt>
      <trkpt lat="43.0173" lon="-0.75318">
        <ele>1030.4</ele>
        <time>2021-12-29T11:53:20.000Z</time>
      </trkpt>
      <trkpt lat="43.01731" lon="-0.75318">
        <ele>1030.4</ele>
        <time>2021-12-29T11:53:29.000Z</time>
      </trkpt>
      <trkpt lat="43.01746" lon="-0.7531">
        <ele>1031.8</ele>
        <time>2021-12-29T11:53:30.000Z</time>
      </trkpt>
      <trkpt lat="43.01747" lon="-0.7531">
        <ele>1032</ele>
        <time>2021-12-29T11:53:31.000Z</time>
      </trkpt>
      <trkpt lat="43.01749" lon="-0.7531">
        <ele>1032.2</ele>
        <time>2021-12-29T11:53:32.000Z</time>
      </trkpt>
      <trkpt lat="43.0175" lon="-0.7531">
        <ele>1032.2</ele>
        <time>2021-12-29T11:53:33.000Z</time>
      </trkpt>
      <trkpt lat="43.01753" lon="-0.75309">
        <ele>1032.4</ele>
        <time>2021-12-29T11:53:34.000Z</time>
      </trkpt>
      <trkpt lat="43.01756" lon="-0.75308">
        <ele>1032.6</ele>
        <time>2021-12-29T11:53:35.000Z</time>
      </trkpt>
      <trkpt lat="43.01758" lon="-0.75308">
        <ele>1032.8</ele>
        <time>2021-12-29T11:53:36.000Z</time>
      </trkpt>
      <trkpt lat="43.01759" lon="-0.75308">
        <ele>1033</ele>
        <time>2021-12-29T11:53:37.000Z</time>
      </trkpt>
      <trkpt lat="43.0176" lon="-0.75307">
        <ele>1033.2</ele>
        <time>2021-12-29T11:53:38.000Z</time>
      </trkpt>
      <trkpt lat="43.01761" lon="-0.75308">
        <ele>1033.4</ele>
        <time>2021-12-29T11:53:39.000Z</time>
      </trkpt>
      <trkpt lat="43.01762" lon="-0.75308">
        <ele>1033.6</ele>
        <time>2021-12-29T11:53:40.000Z</time>
      </trkpt>
      <trkpt lat="43.01763" lon="-0.75309">
        <ele>1033.8</ele>
        <time>2021-12-29T11:53:41.000Z</time>
      </trkpt>
      <trkpt lat="43.01764" lon="-0.7531">
        <ele>1034</ele>
        <time>2021-12-29T11:53:42.000Z</time>
      </trkpt>
      <trkpt lat="43.01765" lon="-0.7531">
        <ele>1034.2</ele>
        <time>2021-12-29T11:53:43.000Z</time>
      </trkpt>
      <trkpt lat="43.01767" lon="-0.75309">
        <ele>1034.4</ele>
        <time>2021-12-29T11:53:44.000Z</time>
      </trkpt>
      <trkpt lat="43.01768" lon="-0.7531">
        <ele>1034.6</ele>
        <time>2021-12-29T11:53:45.000Z</time>
      </trkpt>
      <trkpt lat="43.01769" lon="-0.75311">
        <ele>1034.8</ele>
        <time>2021-12-29T11:53:46.000Z</time>
      </trkpt>
      <trkpt lat="43.0177" lon="-0.75311">
        <ele>1035</ele>
        <time>2021-12-29T11:53:47.000Z</time>
      </trkpt>
      <trkpt lat="43.01771" lon="-0.75311">
        <ele>1035.2</ele>
        <time>2021-12-29T11:53:48.000Z</time>
      </trkpt>
      <trkpt lat="43.01773" lon="-0.75312">
        <ele>1035.4</ele>
        <time>2021-12-29T11:53:49.000Z</time>
      </trkpt>
      <trkpt lat="43.01774" lon="-0.75312">
        <ele>1035.6</ele>
        <time>2021-12-29T11:53:50.000Z</time>
      </trkpt>
      <trkpt lat="43.01775" lon="-0.75313">
        <ele>1035.6</ele>
        <time>2021-12-29T11:53:51.000Z</time>
      </trkpt>
      <trkpt lat="43.01777" lon="-0.75314">
        <ele>1035.8</ele>
        <time>2021-12-29T11:53:52.000Z</time>
      </trkpt>
      <trkpt lat="43.01778" lon="-0.75315">
        <ele>1036</ele>
        <time>2021-12-29T11:53:53.000Z</time>
      </trkpt>
      <trkpt lat="43.01779" lon="-0.75316">
        <ele>1036.2</ele>
        <time>2021-12-29T11:53:54.000Z</time>
      </trkpt>
      <trkpt lat="43.0178" lon="-0.75317">
        <ele>1036.4</ele>
        <time>2021-12-29T11:53:55.000Z</time>
      </trkpt>
      <trkpt lat="43.01781" lon="-0.75318">
        <ele>1036.6</ele>
        <time>2021-12-29T11:53:56.000Z</time>
      </trkpt>
      <trkpt lat="43.01782" lon="-0.75319">
        <ele>1036.6</ele>
        <time>2021-12-29T11:53:57.000Z</time>
      </trkpt>
      <trkpt lat="43.01783" lon="-0.7532">
        <ele>1036.8</ele>
        <time>2021-12-29T11:53:58.000Z</time>
      </trkpt>
      <trkpt lat="43.01784" lon="-0.75321">
        <ele>1037</ele>
        <time>2021-12-29T11:53:59.000Z</time>
      </trkpt>
      <trkpt lat="43.01786" lon="-0.75321">
        <ele>1037</ele>
        <time>2021-12-29T11:54:00.000Z</time>
      </trkpt>
      <trkpt lat="43.01787" lon="-0.75321">
        <ele>1037.2</ele>
        <time>2021-12-29T11:54:01.000Z</time>
      </trkpt>
      <trkpt lat="43.01788" lon="-0.75322">
        <ele>1037.4</ele>
        <time>2021-12-29T11:54:02.000Z</time>
      </trkpt>
      <trkpt lat="43.0179" lon="-0.75322">
        <ele>1037.4</ele>
        <time>2021-12-29T11:54:03.000Z</time>
      </trkpt>
      <trkpt lat="43.01793" lon="-0.75322">
        <ele>1037.6</ele>
        <time>2021-12-29T11:54:04.000Z</time>
      </trkpt>
      <trkpt lat="43.01795" lon="-0.75322">
        <ele>1037.8</ele>
        <time>2021-12-29T11:54:05.000Z</time>
      </trkpt>
      <trkpt lat="43.01797" lon="-0.75321">
        <ele>1037.8</ele>
        <time>2021-12-29T11:54:06.000Z</time>
      </trkpt>
      <trkpt lat="43.01798" lon="-0.75321">
        <ele>1038</ele>
        <time>2021-12-29T11:54:07.000Z</time>
      </trkpt>
      <trkpt lat="43.01801" lon="-0.75321">
        <ele>1038.2</ele>
        <time>2021-12-29T11:54:08.000Z</time>
      </trkpt>
      <trkpt lat="43.01802" lon="-0.7532">
        <ele>1038.4</ele>
        <time>2021-12-29T11:54:09.000Z</time>
      </trkpt>
      <trkpt lat="43.01805" lon="-0.75319">
        <ele>1038.4</ele>
        <time>2021-12-29T11:54:10.000Z</time>
      </trkpt>
      <trkpt lat="43.01806" lon="-0.75318">
        <ele>1038.6</ele>
        <time>2021-12-29T11:54:11.000Z</time>
      </trkpt>
      <trkpt lat="43.01807" lon="-0.75318">
        <ele>1038.8</ele>
        <time>2021-12-29T11:54:12.000Z</time>
      </trkpt>
      <trkpt lat="43.01808" lon="-0.75317">
        <ele>1039</ele>
        <time>2021-12-29T11:54:13.000Z</time>
      </trkpt>
      <trkpt lat="43.0181" lon="-0.75317">
        <ele>1039.2</ele>
        <time>2021-12-29T11:54:14.000Z</time>
      </trkpt>
      <trkpt lat="43.01812" lon="-0.75316">
        <ele>1039.4</ele>
        <time>2021-12-29T11:54:15.000Z</time>
      </trkpt>
      <trkpt lat="43.01813" lon="-0.75316">
        <ele>1039.6</ele>
        <time>2021-12-29T11:54:16.000Z</time>
      </trkpt>
      <trkpt lat="43.01818" lon="-0.75314">
        <ele>1039.8</ele>
        <time>2021-12-29T11:54:17.000Z</time>
      </trkpt>
      <trkpt lat="43.01821" lon="-0.75313">
        <ele>1040</ele>
        <time>2021-12-29T11:54:18.000Z</time>
      </trkpt>
      <trkpt lat="43.01823" lon="-0.75312">
        <ele>1040.2</ele>
        <time>2021-12-29T11:54:19.000Z</time>
      </trkpt>
      <trkpt lat="43.01825" lon="-0.75312">
        <ele>1040.4</ele>
        <time>2021-12-29T11:54:20.000Z</time>
      </trkpt>
      <trkpt lat="43.01826" lon="-0.75312">
        <ele>1040.4</ele>
        <time>2021-12-29T11:54:21.000Z</time>
      </trkpt>
      <trkpt lat="43.01829" lon="-0.75311">
        <ele>1040.8</ele>
        <time>2021-12-29T11:54:22.000Z</time>
      </trkpt>
      <trkpt lat="43.0183" lon="-0.75312">
        <ele>1040.8</ele>
        <time>2021-12-29T11:54:23.000Z</time>
      </trkpt>
      <trkpt lat="43.01831" lon="-0.75312">
        <ele>1041.2</ele>
        <time>2021-12-29T11:54:24.000Z</time>
      </trkpt>
      <trkpt lat="43.01834" lon="-0.75311">
        <ele>1041.2</ele>
        <time>2021-12-29T11:54:25.000Z</time>
      </trkpt>
      <trkpt lat="43.01835" lon="-0.75312">
        <ele>1041.4</ele>
        <time>2021-12-29T11:54:26.000Z</time>
      </trkpt>
      <trkpt lat="43.01837" lon="-0.75313">
        <ele>1041.6</ele>
        <time>2021-12-29T11:54:27.000Z</time>
      </trkpt>
      <trkpt lat="43.01839" lon="-0.75313">
        <ele>1042</ele>
        <time>2021-12-29T11:54:28.000Z</time>
      </trkpt>
      <trkpt lat="43.01841" lon="-0.75314">
        <ele>1042</ele>
        <time>2021-12-29T11:54:29.000Z</time>
      </trkpt>
      <trkpt lat="43.01842" lon="-0.75314">
        <ele>1042.2</ele>
        <time>2021-12-29T11:54:30.000Z</time>
      </trkpt>
      <trkpt lat="43.01843" lon="-0.75315">
        <ele>1042.4</ele>
        <time>2021-12-29T11:54:31.000Z</time>
      </trkpt>
      <trkpt lat="43.01845" lon="-0.75316">
        <ele>1042.6</ele>
        <time>2021-12-29T11:54:32.000Z</time>
      </trkpt>
      <trkpt lat="43.01845" lon="-0.75316">
        <ele>1042.6</ele>
        <time>2021-12-29T11:54:33.000Z</time>
      </trkpt>
      <trkpt lat="43.01846" lon="-0.75317">
        <ele>1042.8</ele>
        <time>2021-12-29T11:54:34.000Z</time>
      </trkpt>
      <trkpt lat="43.01848" lon="-0.75317">
        <ele>1043</ele>
        <time>2021-12-29T11:54:35.000Z</time>
      </trkpt>
      <trkpt lat="43.0185" lon="-0.75318">
        <ele>1043.2</ele>
        <time>2021-12-29T11:54:36.000Z</time>
      </trkpt>
      <trkpt lat="43.01852" lon="-0.75319">
        <ele>1043.2</ele>
        <time>2021-12-29T11:54:37.000Z</time>
      </trkpt>
      <trkpt lat="43.01854" lon="-0.7532">
        <ele>1043.4</ele>
        <time>2021-12-29T11:54:38.000Z</time>
      </trkpt>
      <trkpt lat="43.01855" lon="-0.7532">
        <ele>1043.6</ele>
        <time>2021-12-29T11:54:39.000Z</time>
      </trkpt>
      <trkpt lat="43.01856" lon="-0.75321">
        <ele>1043.8</ele>
        <time>2021-12-29T11:54:40.000Z</time>
      </trkpt>
      <trkpt lat="43.01857" lon="-0.75322">
        <ele>1044</ele>
        <time>2021-12-29T11:54:41.000Z</time>
      </trkpt>
      <trkpt lat="43.01859" lon="-0.75324">
        <ele>1044</ele>
        <time>2021-12-29T11:54:42.000Z</time>
      </trkpt>
      <trkpt lat="43.0186" lon="-0.75325">
        <ele>1044.2</ele>
        <time>2021-12-29T11:54:43.000Z</time>
      </trkpt>
      <trkpt lat="43.01862" lon="-0.75326">
        <ele>1044.4</ele>
        <time>2021-12-29T11:54:44.000Z</time>
      </trkpt>
      <trkpt lat="43.01863" lon="-0.75327">
        <ele>1044.6</ele>
        <time>2021-12-29T11:54:45.000Z</time>
      </trkpt>
      <trkpt lat="43.01866" lon="-0.75328">
        <ele>1044.6</ele>
        <time>2021-12-29T11:54:46.000Z</time>
      </trkpt>
      <trkpt lat="43.01867" lon="-0.75329">
        <ele>1044.8</ele>
        <time>2021-12-29T11:54:47.000Z</time>
      </trkpt>
      <trkpt lat="43.01868" lon="-0.7533">
        <ele>1045</ele>
        <time>2021-12-29T11:54:48.000Z</time>
      </trkpt>
      <trkpt lat="43.0187" lon="-0.75332">
        <ele>1045</ele>
        <time>2021-12-29T11:54:49.000Z</time>
      </trkpt>
      <trkpt lat="43.01871" lon="-0.75333">
        <ele>1045.2</ele>
        <time>2021-12-29T11:54:50.000Z</time>
      </trkpt>
      <trkpt lat="43.01873" lon="-0.75334">
        <ele>1045.4</ele>
        <time>2021-12-29T11:54:51.000Z</time>
      </trkpt>
      <trkpt lat="43.01874" lon="-0.75335">
        <ele>1045.6</ele>
        <time>2021-12-29T11:54:52.000Z</time>
      </trkpt>
      <trkpt lat="43.01875" lon="-0.75336">
        <ele>1045.8</ele>
        <time>2021-12-29T11:54:53.000Z</time>
      </trkpt>
      <trkpt lat="43.01877" lon="-0.75337">
        <ele>1046</ele>
        <time>2021-12-29T11:54:54.000Z</time>
      </trkpt>
      <trkpt lat="43.01878" lon="-0.75338">
        <ele>1046.2</ele>
        <time>2021-12-29T11:54:55.000Z</time>
      </trkpt>
      <trkpt lat="43.01881" lon="-0.75338">
        <ele>1046.4</ele>
        <time>2021-12-29T11:54:56.000Z</time>
      </trkpt>
      <trkpt lat="43.01881" lon="-0.75339">
        <ele>1046.4</ele>
        <time>2021-12-29T11:54:57.000Z</time>
      </trkpt>
      <trkpt lat="43.01882" lon="-0.75339">
        <ele>1046.4</ele>
        <time>2021-12-29T11:54:58.000Z</time>
      </trkpt>
      <trkpt lat="43.01882" lon="-0.75339">
        <ele>1046.4</ele>
        <time>2021-12-29T11:54:59.000Z</time>
      </trkpt>
      <trkpt lat="43.01882" lon="-0.7534">
        <ele>1046.4</ele>
        <time>2021-12-29T11:55:00.000Z</time>
      </trkpt>
      <trkpt lat="43.01883" lon="-0.7534">
        <ele>1046.4</ele>
        <time>2021-12-29T11:55:01.000Z</time>
      </trkpt>
      <trkpt lat="43.01883" lon="-0.75341">
        <ele>1046.4</ele>
        <time>2021-12-29T11:55:02.000Z</time>
      </trkpt>
      <trkpt lat="43.01883" lon="-0.75341">
        <ele>1046.4</ele>
        <time>2021-12-29T11:55:03.000Z</time>
      </trkpt>
      <trkpt lat="43.01883" lon="-0.75342">
        <ele>1046.4</ele>
        <time>2021-12-29T11:55:49.000Z</time>
      </trkpt>
      <trkpt lat="43.01891" lon="-0.75368">
        <ele>1049.2</ele>
        <time>2021-12-29T11:55:50.000Z</time>
      </trkpt>
      <trkpt lat="43.01891" lon="-0.75369">
        <ele>1049.4</ele>
        <time>2021-12-29T11:55:51.000Z</time>
      </trkpt>
      <trkpt lat="43.01891" lon="-0.7537">
        <ele>1049.6</ele>
        <time>2021-12-29T11:55:52.000Z</time>
      </trkpt>
      <trkpt lat="43.01891" lon="-0.75372">
        <ele>1049.6</ele>
        <time>2021-12-29T11:55:53.000Z</time>
      </trkpt>
      <trkpt lat="43.01891" lon="-0.75374">
        <ele>1049.8</ele>
        <time>2021-12-29T11:55:54.000Z</time>
      </trkpt>
      <trkpt lat="43.0189" lon="-0.75376">
        <ele>1050</ele>
        <time>2021-12-29T11:55:55.000Z</time>
      </trkpt>
      <trkpt lat="43.0189" lon="-0.75378">
        <ele>1050.2</ele>
        <time>2021-12-29T11:55:56.000Z</time>
      </trkpt>
      <trkpt lat="43.01891" lon="-0.7538">
        <ele>1050.4</ele>
        <time>2021-12-29T11:55:57.000Z</time>
      </trkpt>
      <trkpt lat="43.0189" lon="-0.75382">
        <ele>1050.6</ele>
        <time>2021-12-29T11:55:58.000Z</time>
      </trkpt>
      <trkpt lat="43.0189" lon="-0.75384">
        <ele>1050.6</ele>
        <time>2021-12-29T11:55:59.000Z</time>
      </trkpt>
      <trkpt lat="43.01889" lon="-0.75386">
        <ele>1050.8</ele>
        <time>2021-12-29T11:56:00.000Z</time>
      </trkpt>
      <trkpt lat="43.01889" lon="-0.75388">
        <ele>1051</ele>
        <time>2021-12-29T11:56:01.000Z</time>
      </trkpt>
      <trkpt lat="43.01888" lon="-0.7539">
        <ele>1051.2</ele>
        <time>2021-12-29T11:56:02.000Z</time>
      </trkpt>
      <trkpt lat="43.01888" lon="-0.75392">
        <ele>1051.2</ele>
        <time>2021-12-29T11:56:03.000Z</time>
      </trkpt>
      <trkpt lat="43.01888" lon="-0.75394">
        <ele>1051.4</ele>
        <time>2021-12-29T11:56:04.000Z</time>
      </trkpt>
      <trkpt lat="43.01888" lon="-0.75395">
        <ele>1051.6</ele>
        <time>2021-12-29T11:56:05.000Z</time>
      </trkpt>
      <trkpt lat="43.01888" lon="-0.75397">
        <ele>1051.6</ele>
        <time>2021-12-29T11:56:06.000Z</time>
      </trkpt>
      <trkpt lat="43.01887" lon="-0.75399">
        <ele>1051.6</ele>
        <time>2021-12-29T11:56:07.000Z</time>
      </trkpt>
      <trkpt lat="43.01886" lon="-0.75401">
        <ele>1051.8</ele>
        <time>2021-12-29T11:56:08.000Z</time>
      </trkpt>
      <trkpt lat="43.01886" lon="-0.75404">
        <ele>1051.8</ele>
        <time>2021-12-29T11:56:09.000Z</time>
      </trkpt>
      <trkpt lat="43.01887" lon="-0.75406">
        <ele>1052</ele>
        <time>2021-12-29T11:56:10.000Z</time>
      </trkpt>
      <trkpt lat="43.01887" lon="-0.75409">
        <ele>1052</ele>
        <time>2021-12-29T11:56:11.000Z</time>
      </trkpt>
      <trkpt lat="43.01888" lon="-0.75411">
        <ele>1052.2</ele>
        <time>2021-12-29T11:56:12.000Z</time>
      </trkpt>
      <trkpt lat="43.01889" lon="-0.75413">
        <ele>1052.4</ele>
        <time>2021-12-29T11:56:13.000Z</time>
      </trkpt>
      <trkpt lat="43.01889" lon="-0.75415">
        <ele>1052.6</ele>
        <time>2021-12-29T11:56:14.000Z</time>
      </trkpt>
      <trkpt lat="43.0189" lon="-0.75416">
        <ele>1052.6</ele>
        <time>2021-12-29T11:56:15.000Z</time>
      </trkpt>
      <trkpt lat="43.0189" lon="-0.75418">
        <ele>1052.8</ele>
        <time>2021-12-29T11:56:16.000Z</time>
      </trkpt>
      <trkpt lat="43.0189" lon="-0.75419">
        <ele>1052.8</ele>
        <time>2021-12-29T11:56:17.000Z</time>
      </trkpt>
      <trkpt lat="43.01892" lon="-0.7542">
        <ele>1053</ele>
        <time>2021-12-29T11:56:18.000Z</time>
      </trkpt>
      <trkpt lat="43.01892" lon="-0.75421">
        <ele>1053.2</ele>
        <time>2021-12-29T11:56:19.000Z</time>
      </trkpt>
      <trkpt lat="43.01892" lon="-0.75423">
        <ele>1053.2</ele>
        <time>2021-12-29T11:56:20.000Z</time>
      </trkpt>
      <trkpt lat="43.01893" lon="-0.75424">
        <ele>1053.4</ele>
        <time>2021-12-29T11:56:21.000Z</time>
      </trkpt>
      <trkpt lat="43.01894" lon="-0.75425">
        <ele>1053.4</ele>
        <time>2021-12-29T11:56:22.000Z</time>
      </trkpt>
      <trkpt lat="43.01895" lon="-0.75425">
        <ele>1053.6</ele>
        <time>2021-12-29T11:56:23.000Z</time>
      </trkpt>
      <trkpt lat="43.01896" lon="-0.75426">
        <ele>1053.6</ele>
        <time>2021-12-29T11:56:24.000Z</time>
      </trkpt>
      <trkpt lat="43.01896" lon="-0.75427">
        <ele>1053.8</ele>
        <time>2021-12-29T11:56:25.000Z</time>
      </trkpt>
      <trkpt lat="43.01897" lon="-0.75428">
        <ele>1054</ele>
        <time>2021-12-29T11:56:26.000Z</time>
      </trkpt>
      <trkpt lat="43.01898" lon="-0.75429">
        <ele>1054.2</ele>
        <time>2021-12-29T11:56:27.000Z</time>
      </trkpt>
      <trkpt lat="43.01899" lon="-0.7543">
        <ele>1054.2</ele>
        <time>2021-12-29T11:56:28.000Z</time>
      </trkpt>
      <trkpt lat="43.019" lon="-0.75431">
        <ele>1054.4</ele>
        <time>2021-12-29T11:56:29.000Z</time>
      </trkpt>
      <trkpt lat="43.01901" lon="-0.75432">
        <ele>1054.6</ele>
        <time>2021-12-29T11:56:30.000Z</time>
      </trkpt>
      <trkpt lat="43.01901" lon="-0.75432">
        <ele>1054.8</ele>
        <time>2021-12-29T11:56:31.000Z</time>
      </trkpt>
      <trkpt lat="43.01905" lon="-0.75432">
        <ele>1055</ele>
        <time>2021-12-29T11:56:32.000Z</time>
      </trkpt>
      <trkpt lat="43.01907" lon="-0.75433">
        <ele>1055.2</ele>
        <time>2021-12-29T11:56:33.000Z</time>
      </trkpt>
      <trkpt lat="43.01909" lon="-0.75434">
        <ele>1055.4</ele>
        <time>2021-12-29T11:56:34.000Z</time>
      </trkpt>
      <trkpt lat="43.01909" lon="-0.75435">
        <ele>1055.4</ele>
        <time>2021-12-29T11:56:35.000Z</time>
      </trkpt>
      <trkpt lat="43.0191" lon="-0.75435">
        <ele>1055.6</ele>
        <time>2021-12-29T11:56:36.000Z</time>
      </trkpt>
      <trkpt lat="43.01911" lon="-0.75436">
        <ele>1055.8</ele>
        <time>2021-12-29T11:56:37.000Z</time>
      </trkpt>
      <trkpt lat="43.01913" lon="-0.75437">
        <ele>1056</ele>
        <time>2021-12-29T11:56:38.000Z</time>
      </trkpt>
      <trkpt lat="43.01914" lon="-0.75437">
        <ele>1056.2</ele>
        <time>2021-12-29T11:56:39.000Z</time>
      </trkpt>
      <trkpt lat="43.01915" lon="-0.75439">
        <ele>1056.4</ele>
        <time>2021-12-29T11:56:40.000Z</time>
      </trkpt>
      <trkpt lat="43.01917" lon="-0.75439">
        <ele>1056.6</ele>
        <time>2021-12-29T11:56:41.000Z</time>
      </trkpt>
      <trkpt lat="43.01917" lon="-0.7544">
        <ele>1056.8</ele>
        <time>2021-12-29T11:56:42.000Z</time>
      </trkpt>
      <trkpt lat="43.01919" lon="-0.75442">
        <ele>1057</ele>
        <time>2021-12-29T11:56:43.000Z</time>
      </trkpt>
      <trkpt lat="43.0192" lon="-0.75442">
        <ele>1057</ele>
        <time>2021-12-29T11:56:44.000Z</time>
      </trkpt>
      <trkpt lat="43.0192" lon="-0.75442">
        <ele>1057.2</ele>
        <time>2021-12-29T11:56:45.000Z</time>
      </trkpt>
      <trkpt lat="43.01922" lon="-0.75443">
        <ele>1057.4</ele>
        <time>2021-12-29T11:56:46.000Z</time>
      </trkpt>
      <trkpt lat="43.01924" lon="-0.75444">
        <ele>1057.6</ele>
        <time>2021-12-29T11:56:47.000Z</time>
      </trkpt>
      <trkpt lat="43.01926" lon="-0.75444">
        <ele>1057.8</ele>
        <time>2021-12-29T11:56:48.000Z</time>
      </trkpt>
      <trkpt lat="43.01928" lon="-0.75445">
        <ele>1058</ele>
        <time>2021-12-29T11:56:49.000Z</time>
      </trkpt>
      <trkpt lat="43.0193" lon="-0.75445">
        <ele>1058.2</ele>
        <time>2021-12-29T11:56:50.000Z</time>
      </trkpt>
      <trkpt lat="43.01931" lon="-0.75446">
        <ele>1058.4</ele>
        <time>2021-12-29T11:56:51.000Z</time>
      </trkpt>
      <trkpt lat="43.01933" lon="-0.75447">
        <ele>1058.8</ele>
        <time>2021-12-29T11:56:52.000Z</time>
      </trkpt>
      <trkpt lat="43.01934" lon="-0.75448">
        <ele>1059</ele>
        <time>2021-12-29T11:56:53.000Z</time>
      </trkpt>
      <trkpt lat="43.01935" lon="-0.75448">
        <ele>1059</ele>
        <time>2021-12-29T11:56:54.000Z</time>
      </trkpt>
      <trkpt lat="43.01936" lon="-0.75449">
        <ele>1059.2</ele>
        <time>2021-12-29T11:56:55.000Z</time>
      </trkpt>
      <trkpt lat="43.01937" lon="-0.75449">
        <ele>1059.4</ele>
        <time>2021-12-29T11:56:56.000Z</time>
      </trkpt>
      <trkpt lat="43.01938" lon="-0.75449">
        <ele>1059.6</ele>
        <time>2021-12-29T11:56:57.000Z</time>
      </trkpt>
      <trkpt lat="43.01937" lon="-0.7545">
        <ele>1059.8</ele>
        <time>2021-12-29T11:56:58.000Z</time>
      </trkpt>
      <trkpt lat="43.01939" lon="-0.75451">
        <ele>1060</ele>
        <time>2021-12-29T11:56:59.000Z</time>
      </trkpt>
      <trkpt lat="43.01939" lon="-0.75451">
        <ele>1060.2</ele>
        <time>2021-12-29T11:57:00.000Z</time>
      </trkpt>
      <trkpt lat="43.01939" lon="-0.75451">
        <ele>1060.4</ele>
        <time>2021-12-29T11:57:01.000Z</time>
      </trkpt>
      <trkpt lat="43.01939" lon="-0.75451">
        <ele>1060.6</ele>
        <time>2021-12-29T11:57:02.000Z</time>
      </trkpt>
      <trkpt lat="43.0194" lon="-0.75452">
        <ele>1060.8</ele>
        <time>2021-12-29T11:57:03.000Z</time>
      </trkpt>
      <trkpt lat="43.01941" lon="-0.75451">
        <ele>1060.8</ele>
        <time>2021-12-29T11:57:04.000Z</time>
      </trkpt>
      <trkpt lat="43.01942" lon="-0.75451">
        <ele>1061</ele>
        <time>2021-12-29T11:57:05.000Z</time>
      </trkpt>
      <trkpt lat="43.01942" lon="-0.75451">
        <ele>1061.2</ele>
        <time>2021-12-29T11:57:06.000Z</time>
      </trkpt>
      <trkpt lat="43.01944" lon="-0.75452">
        <ele>1061.4</ele>
        <time>2021-12-29T11:57:07.000Z</time>
      </trkpt>
      <trkpt lat="43.01945" lon="-0.75452">
        <ele>1061.6</ele>
        <time>2021-12-29T11:57:08.000Z</time>
      </trkpt>
      <trkpt lat="43.01947" lon="-0.75452">
        <ele>1061.8</ele>
        <time>2021-12-29T11:57:09.000Z</time>
      </trkpt>
      <trkpt lat="43.01948" lon="-0.75452">
        <ele>1062</ele>
        <time>2021-12-29T11:57:10.000Z</time>
      </trkpt>
      <trkpt lat="43.01952" lon="-0.75452">
        <ele>1062.2</ele>
        <time>2021-12-29T11:57:11.000Z</time>
      </trkpt>
      <trkpt lat="43.01954" lon="-0.75454">
        <ele>1062.4</ele>
        <time>2021-12-29T11:57:12.000Z</time>
      </trkpt>
      <trkpt lat="43.01955" lon="-0.75455">
        <ele>1062.6</ele>
        <time>2021-12-29T11:57:13.000Z</time>
      </trkpt>
      <trkpt lat="43.01957" lon="-0.75455">
        <ele>1062.6</ele>
        <time>2021-12-29T11:57:14.000Z</time>
      </trkpt>
      <trkpt lat="43.01958" lon="-0.75455">
        <ele>1062.8</ele>
        <time>2021-12-29T11:57:15.000Z</time>
      </trkpt>
      <trkpt lat="43.0196" lon="-0.75456">
        <ele>1063</ele>
        <time>2021-12-29T11:57:16.000Z</time>
      </trkpt>
      <trkpt lat="43.01962" lon="-0.75455">
        <ele>1063.2</ele>
        <time>2021-12-29T11:57:17.000Z</time>
      </trkpt>
      <trkpt lat="43.01963" lon="-0.75456">
        <ele>1063.4</ele>
        <time>2021-12-29T11:57:18.000Z</time>
      </trkpt>
      <trkpt lat="43.01965" lon="-0.75455">
        <ele>1063.4</ele>
        <time>2021-12-29T11:57:19.000Z</time>
      </trkpt>
      <trkpt lat="43.01967" lon="-0.75455">
        <ele>1063.6</ele>
        <time>2021-12-29T11:57:20.000Z</time>
      </trkpt>
      <trkpt lat="43.01969" lon="-0.75455">
        <ele>1063.8</ele>
        <time>2021-12-29T11:57:21.000Z</time>
      </trkpt>
      <trkpt lat="43.0197" lon="-0.75455">
        <ele>1064</ele>
        <time>2021-12-29T11:57:22.000Z</time>
      </trkpt>
      <trkpt lat="43.01972" lon="-0.75455">
        <ele>1064.2</ele>
        <time>2021-12-29T11:57:23.000Z</time>
      </trkpt>
      <trkpt lat="43.01974" lon="-0.75456">
        <ele>1064.2</ele>
        <time>2021-12-29T11:57:24.000Z</time>
      </trkpt>
      <trkpt lat="43.01976" lon="-0.75456">
        <ele>1064.4</ele>
        <time>2021-12-29T11:57:25.000Z</time>
      </trkpt>
      <trkpt lat="43.01979" lon="-0.75456">
        <ele>1064.6</ele>
        <time>2021-12-29T11:57:26.000Z</time>
      </trkpt>
      <trkpt lat="43.0198" lon="-0.75457">
        <ele>1064.8</ele>
        <time>2021-12-29T11:57:27.000Z</time>
      </trkpt>
      <trkpt lat="43.01982" lon="-0.75457">
        <ele>1065</ele>
        <time>2021-12-29T11:57:28.000Z</time>
      </trkpt>
      <trkpt lat="43.01983" lon="-0.75457">
        <ele>1065</ele>
        <time>2021-12-29T11:57:29.000Z</time>
      </trkpt>
      <trkpt lat="43.01985" lon="-0.75458">
        <ele>1065.2</ele>
        <time>2021-12-29T11:57:30.000Z</time>
      </trkpt>
      <trkpt lat="43.01987" lon="-0.75458">
        <ele>1065.4</ele>
        <time>2021-12-29T11:57:31.000Z</time>
      </trkpt>
      <trkpt lat="43.01988" lon="-0.75459">
        <ele>1065.4</ele>
        <time>2021-12-29T11:57:32.000Z</time>
      </trkpt>
      <trkpt lat="43.01989" lon="-0.7546">
        <ele>1065.6</ele>
        <time>2021-12-29T11:57:33.000Z</time>
      </trkpt>
      <trkpt lat="43.01989" lon="-0.75461">
        <ele>1065.8</ele>
        <time>2021-12-29T11:57:34.000Z</time>
      </trkpt>
      <trkpt lat="43.0199" lon="-0.75463">
        <ele>1066</ele>
        <time>2021-12-29T11:57:35.000Z</time>
      </trkpt>
      <trkpt lat="43.0199" lon="-0.75465">
        <ele>1066.2</ele>
        <time>2021-12-29T11:57:36.000Z</time>
      </trkpt>
      <trkpt lat="43.0199" lon="-0.75466">
        <ele>1066.6</ele>
        <time>2021-12-29T11:57:37.000Z</time>
      </trkpt>
      <trkpt lat="43.01989" lon="-0.75467">
        <ele>1066.8</ele>
        <time>2021-12-29T11:57:38.000Z</time>
      </trkpt>
      <trkpt lat="43.01988" lon="-0.75468">
        <ele>1067</ele>
        <time>2021-12-29T11:57:39.000Z</time>
      </trkpt>
      <trkpt lat="43.01987" lon="-0.75469">
        <ele>1067.4</ele>
        <time>2021-12-29T11:57:40.000Z</time>
      </trkpt>
      <trkpt lat="43.01986" lon="-0.7547">
        <ele>1067.6</ele>
        <time>2021-12-29T11:57:41.000Z</time>
      </trkpt>
      <trkpt lat="43.01984" lon="-0.75471">
        <ele>1067.8</ele>
        <time>2021-12-29T11:57:42.000Z</time>
      </trkpt>
      <trkpt lat="43.01983" lon="-0.75472">
        <ele>1068</ele>
        <time>2021-12-29T11:57:43.000Z</time>
      </trkpt>
      <trkpt lat="43.01981" lon="-0.75473">
        <ele>1068.6</ele>
        <time>2021-12-29T11:57:44.000Z</time>
      </trkpt>
      <trkpt lat="43.0198" lon="-0.75473">
        <ele>1068.8</ele>
        <time>2021-12-29T11:57:45.000Z</time>
      </trkpt>
      <trkpt lat="43.01979" lon="-0.75474">
        <ele>1069.2</ele>
        <time>2021-12-29T11:57:46.000Z</time>
      </trkpt>
      <trkpt lat="43.01977" lon="-0.75475">
        <ele>1069.4</ele>
        <time>2021-12-29T11:57:47.000Z</time>
      </trkpt>
      <trkpt lat="43.01976" lon="-0.75476">
        <ele>1069.8</ele>
        <time>2021-12-29T11:57:48.000Z</time>
      </trkpt>
      <trkpt lat="43.01975" lon="-0.75477">
        <ele>1070.2</ele>
        <time>2021-12-29T11:57:49.000Z</time>
      </trkpt>
      <trkpt lat="43.01975" lon="-0.7548">
        <ele>1070.4</ele>
        <time>2021-12-29T11:57:50.000Z</time>
      </trkpt>
      <trkpt lat="43.01975" lon="-0.75481">
        <ele>1070.8</ele>
        <time>2021-12-29T11:57:51.000Z</time>
      </trkpt>
      <trkpt lat="43.01974" lon="-0.75482">
        <ele>1071</ele>
        <time>2021-12-29T11:57:52.000Z</time>
      </trkpt>
      <trkpt lat="43.01972" lon="-0.75483">
        <ele>1071.2</ele>
        <time>2021-12-29T11:57:53.000Z</time>
      </trkpt>
      <trkpt lat="43.01971" lon="-0.75484">
        <ele>1071.2</ele>
        <time>2021-12-29T11:57:54.000Z</time>
      </trkpt>
      <trkpt lat="43.01969" lon="-0.75484">
        <ele>1071.6</ele>
        <time>2021-12-29T11:57:55.000Z</time>
      </trkpt>
      <trkpt lat="43.01968" lon="-0.75485">
        <ele>1071.8</ele>
        <time>2021-12-29T11:57:56.000Z</time>
      </trkpt>
      <trkpt lat="43.01967" lon="-0.75485">
        <ele>1072</ele>
        <time>2021-12-29T11:57:57.000Z</time>
      </trkpt>
      <trkpt lat="43.01966" lon="-0.75486">
        <ele>1072</ele>
        <time>2021-12-29T11:57:58.000Z</time>
      </trkpt>
      <trkpt lat="43.01965" lon="-0.75487">
        <ele>1072.2</ele>
        <time>2021-12-29T11:57:59.000Z</time>
      </trkpt>
      <trkpt lat="43.01964" lon="-0.75489">
        <ele>1072.4</ele>
        <time>2021-12-29T11:58:00.000Z</time>
      </trkpt>
      <trkpt lat="43.01963" lon="-0.75489">
        <ele>1072.4</ele>
        <time>2021-12-29T11:58:01.000Z</time>
      </trkpt>
      <trkpt lat="43.01962" lon="-0.75488">
        <ele>1072.6</ele>
        <time>2021-12-29T11:58:02.000Z</time>
      </trkpt>
      <trkpt lat="43.01961" lon="-0.75488">
        <ele>1072.8</ele>
        <time>2021-12-29T11:58:03.000Z</time>
      </trkpt>
      <trkpt lat="43.0196" lon="-0.75488">
        <ele>1073</ele>
        <time>2021-12-29T11:58:04.000Z</time>
      </trkpt>
      <trkpt lat="43.01959" lon="-0.75489">
        <ele>1073.2</ele>
        <time>2021-12-29T11:58:05.000Z</time>
      </trkpt>
      <trkpt lat="43.01958" lon="-0.75489">
        <ele>1073</ele>
        <time>2021-12-29T11:58:06.000Z</time>
      </trkpt>
      <trkpt lat="43.01957" lon="-0.75489">
        <ele>1073.2</ele>
        <time>2021-12-29T11:58:07.000Z</time>
      </trkpt>
      <trkpt lat="43.01957" lon="-0.7549">
        <ele>1073.2</ele>
        <time>2021-12-29T11:58:08.000Z</time>
      </trkpt>
      <trkpt lat="43.01957" lon="-0.7549">
        <ele>1073.2</ele>
        <time>2021-12-29T11:58:09.000Z</time>
      </trkpt>
      <trkpt lat="43.01956" lon="-0.7549">
        <ele>1073.2</ele>
        <time>2021-12-29T11:58:10.000Z</time>
      </trkpt>
      <trkpt lat="43.01955" lon="-0.7549">
        <ele>1073.2</ele>
        <time>2021-12-29T11:58:11.000Z</time>
      </trkpt>
      <trkpt lat="43.01955" lon="-0.7549">
        <ele>1073.2</ele>
        <time>2021-12-29T11:58:12.000Z</time>
      </trkpt>
      <trkpt lat="43.01955" lon="-0.75492">
        <ele>1073.2</ele>
        <time>2021-12-29T11:58:13.000Z</time>
      </trkpt>
      <trkpt lat="43.01954" lon="-0.75492">
        <ele>1073.2</ele>
        <time>2021-12-29T11:58:21.000Z</time>
      </trkpt>
      <trkpt lat="43.01943" lon="-0.75495">
        <ele>1074</ele>
        <time>2021-12-29T11:58:22.000Z</time>
      </trkpt>
      <trkpt lat="43.01942" lon="-0.75496">
        <ele>1074.4</ele>
        <time>2021-12-29T11:58:23.000Z</time>
      </trkpt>
      <trkpt lat="43.0194" lon="-0.75496">
        <ele>1074.4</ele>
        <time>2021-12-29T11:58:24.000Z</time>
      </trkpt>
      <trkpt lat="43.01939" lon="-0.75496">
        <ele>1074.8</ele>
        <time>2021-12-29T11:58:25.000Z</time>
      </trkpt>
      <trkpt lat="43.01937" lon="-0.75497">
        <ele>1074.8</ele>
        <time>2021-12-29T11:58:26.000Z</time>
      </trkpt>
      <trkpt lat="43.01935" lon="-0.75496">
        <ele>1075</ele>
        <time>2021-12-29T11:58:27.000Z</time>
      </trkpt>
      <trkpt lat="43.01934" lon="-0.75496">
        <ele>1075.4</ele>
        <time>2021-12-29T11:58:28.000Z</time>
      </trkpt>
      <trkpt lat="43.01933" lon="-0.75497">
        <ele>1075.6</ele>
        <time>2021-12-29T11:58:29.000Z</time>
      </trkpt>
      <trkpt lat="43.01932" lon="-0.75498">
        <ele>1075.8</ele>
        <time>2021-12-29T11:58:30.000Z</time>
      </trkpt>
      <trkpt lat="43.0193" lon="-0.75498">
        <ele>1076</ele>
        <time>2021-12-29T11:58:31.000Z</time>
      </trkpt>
      <trkpt lat="43.01928" lon="-0.75497">
        <ele>1076.2</ele>
        <time>2021-12-29T11:58:32.000Z</time>
      </trkpt>
      <trkpt lat="43.01926" lon="-0.75497">
        <ele>1076.4</ele>
        <time>2021-12-29T11:58:33.000Z</time>
      </trkpt>
      <trkpt lat="43.01925" lon="-0.75497">
        <ele>1076.6</ele>
        <time>2021-12-29T11:58:34.000Z</time>
      </trkpt>
      <trkpt lat="43.01925" lon="-0.75497">
        <ele>1076.8</ele>
        <time>2021-12-29T11:58:35.000Z</time>
      </trkpt>
      <trkpt lat="43.01923" lon="-0.75498">
        <ele>1077.2</ele>
        <time>2021-12-29T11:58:36.000Z</time>
      </trkpt>
      <trkpt lat="43.01921" lon="-0.75499">
        <ele>1077.4</ele>
        <time>2021-12-29T11:58:37.000Z</time>
      </trkpt>
      <trkpt lat="43.01919" lon="-0.75499">
        <ele>1077.6</ele>
        <time>2021-12-29T11:58:38.000Z</time>
      </trkpt>
      <trkpt lat="43.01918" lon="-0.75498">
        <ele>1077.8</ele>
        <time>2021-12-29T11:58:39.000Z</time>
      </trkpt>
      <trkpt lat="43.01916" lon="-0.75498">
        <ele>1078.2</ele>
        <time>2021-12-29T11:58:40.000Z</time>
      </trkpt>
      <trkpt lat="43.01914" lon="-0.75498">
        <ele>1078.4</ele>
        <time>2021-12-29T11:58:41.000Z</time>
      </trkpt>
      <trkpt lat="43.01913" lon="-0.75498">
        <ele>1078.8</ele>
        <time>2021-12-29T11:58:42.000Z</time>
      </trkpt>
      <trkpt lat="43.01912" lon="-0.75499">
        <ele>1079</ele>
        <time>2021-12-29T11:58:43.000Z</time>
      </trkpt>
      <trkpt lat="43.01911" lon="-0.755">
        <ele>1079.2</ele>
        <time>2021-12-29T11:58:44.000Z</time>
      </trkpt>
      <trkpt lat="43.01908" lon="-0.755">
        <ele>1079.4</ele>
        <time>2021-12-29T11:58:45.000Z</time>
      </trkpt>
      <trkpt lat="43.01905" lon="-0.755">
        <ele>1079.4</ele>
        <time>2021-12-29T11:58:46.000Z</time>
      </trkpt>
      <trkpt lat="43.01903" lon="-0.75501">
        <ele>1079.6</ele>
        <time>2021-12-29T11:58:47.000Z</time>
      </trkpt>
      <trkpt lat="43.01902" lon="-0.75503">
        <ele>1080</ele>
        <time>2021-12-29T11:58:48.000Z</time>
      </trkpt>
      <trkpt lat="43.019" lon="-0.75504">
        <ele>1080.2</ele>
        <time>2021-12-29T11:58:49.000Z</time>
      </trkpt>
      <trkpt lat="43.01898" lon="-0.75505">
        <ele>1080.4</ele>
        <time>2021-12-29T11:58:50.000Z</time>
      </trkpt>
      <trkpt lat="43.01897" lon="-0.75507">
        <ele>1080.6</ele>
        <time>2021-12-29T11:58:51.000Z</time>
      </trkpt>
      <trkpt lat="43.01896" lon="-0.75507">
        <ele>1080.8</ele>
        <time>2021-12-29T11:58:52.000Z</time>
      </trkpt>
      <trkpt lat="43.01895" lon="-0.75507">
        <ele>1081</ele>
        <time>2021-12-29T11:58:53.000Z</time>
      </trkpt>
      <trkpt lat="43.01893" lon="-0.75507">
        <ele>1081.2</ele>
        <time>2021-12-29T11:58:54.000Z</time>
      </trkpt>
      <trkpt lat="43.01892" lon="-0.75507">
        <ele>1081.6</ele>
        <time>2021-12-29T11:58:55.000Z</time>
      </trkpt>
      <trkpt lat="43.0189" lon="-0.75507">
        <ele>1081.8</ele>
        <time>2021-12-29T11:58:56.000Z</time>
      </trkpt>
      <trkpt lat="43.01889" lon="-0.75508">
        <ele>1082</ele>
        <time>2021-12-29T11:58:57.000Z</time>
      </trkpt>
      <trkpt lat="43.01887" lon="-0.75508">
        <ele>1082.2</ele>
        <time>2021-12-29T11:58:58.000Z</time>
      </trkpt>
      <trkpt lat="43.01886" lon="-0.75508">
        <ele>1082.4</ele>
        <time>2021-12-29T11:58:59.000Z</time>
      </trkpt>
      <trkpt lat="43.01884" lon="-0.75509">
        <ele>1082.6</ele>
        <time>2021-12-29T11:59:00.000Z</time>
      </trkpt>
      <trkpt lat="43.01882" lon="-0.75509">
        <ele>1082.8</ele>
        <time>2021-12-29T11:59:01.000Z</time>
      </trkpt>
      <trkpt lat="43.01881" lon="-0.75509">
        <ele>1083</ele>
        <time>2021-12-29T11:59:02.000Z</time>
      </trkpt>
      <trkpt lat="43.01878" lon="-0.75509">
        <ele>1083.2</ele>
        <time>2021-12-29T11:59:03.000Z</time>
      </trkpt>
      <trkpt lat="43.01876" lon="-0.7551">
        <ele>1083.6</ele>
        <time>2021-12-29T11:59:04.000Z</time>
      </trkpt>
      <trkpt lat="43.01874" lon="-0.7551">
        <ele>1083.8</ele>
        <time>2021-12-29T11:59:05.000Z</time>
      </trkpt>
      <trkpt lat="43.01873" lon="-0.75511">
        <ele>1084</ele>
        <time>2021-12-29T11:59:06.000Z</time>
      </trkpt>
      <trkpt lat="43.01871" lon="-0.75511">
        <ele>1084.2</ele>
        <time>2021-12-29T11:59:07.000Z</time>
      </trkpt>
      <trkpt lat="43.01869" lon="-0.7551">
        <ele>1084.2</ele>
        <time>2021-12-29T11:59:08.000Z</time>
      </trkpt>
      <trkpt lat="43.01868" lon="-0.7551">
        <ele>1084.4</ele>
        <time>2021-12-29T11:59:09.000Z</time>
      </trkpt>
      <trkpt lat="43.01866" lon="-0.7551">
        <ele>1084.4</ele>
        <time>2021-12-29T11:59:10.000Z</time>
      </trkpt>
      <trkpt lat="43.01865" lon="-0.7551">
        <ele>1084.6</ele>
        <time>2021-12-29T11:59:11.000Z</time>
      </trkpt>
      <trkpt lat="43.01864" lon="-0.75511">
        <ele>1084.6</ele>
        <time>2021-12-29T11:59:12.000Z</time>
      </trkpt>
      <trkpt lat="43.01862" lon="-0.75511">
        <ele>1084.8</ele>
        <time>2021-12-29T11:59:13.000Z</time>
      </trkpt>
      <trkpt lat="43.01861" lon="-0.75511">
        <ele>1084.8</ele>
        <time>2021-12-29T11:59:14.000Z</time>
      </trkpt>
      <trkpt lat="43.0186" lon="-0.75512">
        <ele>1085</ele>
        <time>2021-12-29T11:59:15.000Z</time>
      </trkpt>
      <trkpt lat="43.01858" lon="-0.75512">
        <ele>1085.2</ele>
        <time>2021-12-29T11:59:16.000Z</time>
      </trkpt>
      <trkpt lat="43.01857" lon="-0.75513">
        <ele>1085.2</ele>
        <time>2021-12-29T11:59:17.000Z</time>
      </trkpt>
      <trkpt lat="43.01855" lon="-0.75513">
        <ele>1085.4</ele>
        <time>2021-12-29T11:59:18.000Z</time>
      </trkpt>
      <trkpt lat="43.01853" lon="-0.75513">
        <ele>1085.6</ele>
        <time>2021-12-29T11:59:19.000Z</time>
      </trkpt>
      <trkpt lat="43.01852" lon="-0.75513">
        <ele>1086</ele>
        <time>2021-12-29T11:59:20.000Z</time>
      </trkpt>
      <trkpt lat="43.0185" lon="-0.75513">
        <ele>1086.2</ele>
        <time>2021-12-29T11:59:21.000Z</time>
      </trkpt>
      <trkpt lat="43.01849" lon="-0.75513">
        <ele>1086.6</ele>
        <time>2021-12-29T11:59:22.000Z</time>
      </trkpt>
      <trkpt lat="43.01848" lon="-0.75513">
        <ele>1086.8</ele>
        <time>2021-12-29T11:59:23.000Z</time>
      </trkpt>
      <trkpt lat="43.01848" lon="-0.75513">
        <ele>1087</ele>
        <time>2021-12-29T11:59:24.000Z</time>
      </trkpt>
      <trkpt lat="43.01847" lon="-0.75514">
        <ele>1087.2</ele>
        <time>2021-12-29T11:59:25.000Z</time>
      </trkpt>
      <trkpt lat="43.01845" lon="-0.75515">
        <ele>1087.6</ele>
        <time>2021-12-29T11:59:26.000Z</time>
      </trkpt>
      <trkpt lat="43.01842" lon="-0.75516">
        <ele>1087.6</ele>
        <time>2021-12-29T11:59:27.000Z</time>
      </trkpt>
      <trkpt lat="43.01842" lon="-0.75516">
        <ele>1087.6</ele>
        <time>2021-12-29T11:59:28.000Z</time>
      </trkpt>
      <trkpt lat="43.01841" lon="-0.75517">
        <ele>1087.8</ele>
        <time>2021-12-29T11:59:29.000Z</time>
      </trkpt>
      <trkpt lat="43.0184" lon="-0.75517">
        <ele>1088</ele>
        <time>2021-12-29T11:59:30.000Z</time>
      </trkpt>
      <trkpt lat="43.01838" lon="-0.75517">
        <ele>1088.2</ele>
        <time>2021-12-29T11:59:31.000Z</time>
      </trkpt>
      <trkpt lat="43.01837" lon="-0.75518">
        <ele>1088.2</ele>
        <time>2021-12-29T11:59:32.000Z</time>
      </trkpt>
      <trkpt lat="43.01835" lon="-0.75517">
        <ele>1088.4</ele>
        <time>2021-12-29T11:59:33.000Z</time>
      </trkpt>
      <trkpt lat="43.01835" lon="-0.75518">
        <ele>1088.6</ele>
        <time>2021-12-29T11:59:34.000Z</time>
      </trkpt>
      <trkpt lat="43.01835" lon="-0.75519">
        <ele>1088.4</ele>
        <time>2021-12-29T11:59:35.000Z</time>
      </trkpt>
      <trkpt lat="43.01834" lon="-0.75521">
        <ele>1088.6</ele>
        <time>2021-12-29T11:59:36.000Z</time>
      </trkpt>
      <trkpt lat="43.01832" lon="-0.75521">
        <ele>1088.8</ele>
        <time>2021-12-29T11:59:37.000Z</time>
      </trkpt>
      <trkpt lat="43.01832" lon="-0.75521">
        <ele>1089.2</ele>
        <time>2021-12-29T11:59:38.000Z</time>
      </trkpt>
      <trkpt lat="43.01831" lon="-0.75521">
        <ele>1089.4</ele>
        <time>2021-12-29T11:59:39.000Z</time>
      </trkpt>
      <trkpt lat="43.01829" lon="-0.75521">
        <ele>1089.8</ele>
        <time>2021-12-29T11:59:40.000Z</time>
      </trkpt>
      <trkpt lat="43.01827" lon="-0.75521">
        <ele>1090.2</ele>
        <time>2021-12-29T11:59:41.000Z</time>
      </trkpt>
      <trkpt lat="43.01825" lon="-0.7552">
        <ele>1090.6</ele>
        <time>2021-12-29T11:59:42.000Z</time>
      </trkpt>
      <trkpt lat="43.01824" lon="-0.75519">
        <ele>1090.8</ele>
        <time>2021-12-29T11:59:43.000Z</time>
      </trkpt>
      <trkpt lat="43.01822" lon="-0.75518">
        <ele>1091</ele>
        <time>2021-12-29T11:59:44.000Z</time>
      </trkpt>
      <trkpt lat="43.01821" lon="-0.75517">
        <ele>1091.4</ele>
        <time>2021-12-29T11:59:45.000Z</time>
      </trkpt>
      <trkpt lat="43.01821" lon="-0.75515">
        <ele>1091.6</ele>
        <time>2021-12-29T11:59:46.000Z</time>
      </trkpt>
      <trkpt lat="43.0182" lon="-0.75513">
        <ele>1091.8</ele>
        <time>2021-12-29T11:59:47.000Z</time>
      </trkpt>
      <trkpt lat="43.01819" lon="-0.75511">
        <ele>1091.8</ele>
        <time>2021-12-29T11:59:48.000Z</time>
      </trkpt>
      <trkpt lat="43.01819" lon="-0.75511">
        <ele>1092</ele>
        <time>2021-12-29T11:59:49.000Z</time>
      </trkpt>
      <trkpt lat="43.01819" lon="-0.75511">
        <ele>1092</ele>
        <time>2021-12-29T11:59:50.000Z</time>
      </trkpt>
      <trkpt lat="43.01819" lon="-0.75511">
        <ele>1092</ele>
        <time>2021-12-29T11:59:51.000Z</time>
      </trkpt>
      <trkpt lat="43.01819" lon="-0.75511">
        <ele>1092</ele>
        <time>2021-12-29T11:59:52.000Z</time>
      </trkpt>
      <trkpt lat="43.01819" lon="-0.75511">
        <ele>1092</ele>
        <time>2021-12-29T11:59:53.000Z</time>
      </trkpt>
      <trkpt lat="43.01819" lon="-0.75511">
        <ele>1092</ele>
        <time>2021-12-29T11:59:54.000Z</time>
      </trkpt>
      <trkpt lat="43.01819" lon="-0.75511">
        <ele>1091.8</ele>
        <time>2021-12-29T12:01:06.000Z</time>
      </trkpt>
      <trkpt lat="43.01817" lon="-0.75489">
        <ele>1094.2</ele>
        <time>2021-12-29T12:01:07.000Z</time>
      </trkpt>
      <trkpt lat="43.01816" lon="-0.75487">
        <ele>1094.4</ele>
        <time>2021-12-29T12:01:08.000Z</time>
      </trkpt>
      <trkpt lat="43.01817" lon="-0.75488">
        <ele>1094.6</ele>
        <time>2021-12-29T12:01:09.000Z</time>
      </trkpt>
      <trkpt lat="43.01816" lon="-0.75486">
        <ele>1095.4</ele>
        <time>2021-12-29T12:01:10.000Z</time>
      </trkpt>
      <trkpt lat="43.01816" lon="-0.75485">
        <ele>1095.6</ele>
        <time>2021-12-29T12:01:11.000Z</time>
      </trkpt>
      <trkpt lat="43.01814" lon="-0.75481">
        <ele>1095.8</ele>
        <time>2021-12-29T12:01:13.000Z</time>
      </trkpt>
      <trkpt lat="43.01813" lon="-0.75479">
        <ele>1096</ele>
        <time>2021-12-29T12:01:14.000Z</time>
      </trkpt>
      <trkpt lat="43.01813" lon="-0.75478">
        <ele>1096.6</ele>
        <time>2021-12-29T12:01:15.000Z</time>
      </trkpt>
      <trkpt lat="43.01812" lon="-0.75475">
        <ele>1096.8</ele>
        <time>2021-12-29T12:01:16.000Z</time>
      </trkpt>
      <trkpt lat="43.01811" lon="-0.75474">
        <ele>1097</ele>
        <time>2021-12-29T12:01:17.000Z</time>
      </trkpt>
      <trkpt lat="43.01809" lon="-0.75472">
        <ele>1097.2</ele>
        <time>2021-12-29T12:01:18.000Z</time>
      </trkpt>
      <trkpt lat="43.01808" lon="-0.75471">
        <ele>1097.4</ele>
        <time>2021-12-29T12:01:19.000Z</time>
      </trkpt>
      <trkpt lat="43.01807" lon="-0.75468">
        <ele>1097.6</ele>
        <time>2021-12-29T12:01:20.000Z</time>
      </trkpt>
      <trkpt lat="43.01807" lon="-0.75468">
        <ele>1097.8</ele>
        <time>2021-12-29T12:01:21.000Z</time>
      </trkpt>
      <trkpt lat="43.01806" lon="-0.75467">
        <ele>1098</ele>
        <time>2021-12-29T12:01:22.000Z</time>
      </trkpt>
      <trkpt lat="43.01805" lon="-0.75465">
        <ele>1098</ele>
        <time>2021-12-29T12:01:23.000Z</time>
      </trkpt>
      <trkpt lat="43.01803" lon="-0.75464">
        <ele>1098.2</ele>
        <time>2021-12-29T12:01:24.000Z</time>
      </trkpt>
      <trkpt lat="43.01803" lon="-0.75464">
        <ele>1098.2</ele>
        <time>2021-12-29T12:01:25.000Z</time>
      </trkpt>
      <trkpt lat="43.01803" lon="-0.75463">
        <ele>1098.2</ele>
        <time>2021-12-29T12:01:26.000Z</time>
      </trkpt>
      <trkpt lat="43.01803" lon="-0.75463">
        <ele>1098.2</ele>
        <time>2021-12-29T12:01:27.000Z</time>
      </trkpt>
      <trkpt lat="43.01802" lon="-0.75462">
        <ele>1098.2</ele>
        <time>2021-12-29T12:01:28.000Z</time>
      </trkpt>
      <trkpt lat="43.01802" lon="-0.75461">
        <ele>1098.2</ele>
        <time>2021-12-29T12:01:29.000Z</time>
      </trkpt>
      <trkpt lat="43.01802" lon="-0.75461">
        <ele>1098.2</ele>
        <time>2021-12-29T12:01:31.000Z</time>
      </trkpt>
      <trkpt lat="43.01802" lon="-0.7546">
        <ele>1098.2</ele>
        <time>2021-12-29T12:02:47.000Z</time>
      </trkpt>
      <trkpt lat="43.01787" lon="-0.7546">
        <ele>1100.2</ele>
        <time>2021-12-29T12:02:48.000Z</time>
      </trkpt>
      <trkpt lat="43.01786" lon="-0.75461">
        <ele>1100.4</ele>
        <time>2021-12-29T12:02:49.000Z</time>
      </trkpt>
      <trkpt lat="43.01784" lon="-0.75461">
        <ele>1100.4</ele>
        <time>2021-12-29T12:02:50.000Z</time>
      </trkpt>
      <trkpt lat="43.01784" lon="-0.75462">
        <ele>1100.8</ele>
        <time>2021-12-29T12:02:52.000Z</time>
      </trkpt>
      <trkpt lat="43.01783" lon="-0.75465">
        <ele>1101.2</ele>
        <time>2021-12-29T12:02:53.000Z</time>
      </trkpt>
      <trkpt lat="43.01781" lon="-0.75465">
        <ele>1101.4</ele>
        <time>2021-12-29T12:02:54.000Z</time>
      </trkpt>
      <trkpt lat="43.0178" lon="-0.75466">
        <ele>1101.6</ele>
        <time>2021-12-29T12:02:55.000Z</time>
      </trkpt>
      <trkpt lat="43.01778" lon="-0.75467">
        <ele>1102</ele>
        <time>2021-12-29T12:02:57.000Z</time>
      </trkpt>
      <trkpt lat="43.01777" lon="-0.75468">
        <ele>1102.2</ele>
        <time>2021-12-29T12:02:58.000Z</time>
      </trkpt>
      <trkpt lat="43.01777" lon="-0.75468">
        <ele>1102.4</ele>
        <time>2021-12-29T12:02:59.000Z</time>
      </trkpt>
      <trkpt lat="43.01776" lon="-0.75468">
        <ele>1102.6</ele>
        <time>2021-12-29T12:03:00.000Z</time>
      </trkpt>
      <trkpt lat="43.01773" lon="-0.7547">
        <ele>1103</ele>
        <time>2021-12-29T12:03:02.000Z</time>
      </trkpt>
      <trkpt lat="43.01773" lon="-0.7547">
        <ele>1103.2</ele>
        <time>2021-12-29T12:03:03.000Z</time>
      </trkpt>
      <trkpt lat="43.01771" lon="-0.75472">
        <ele>1103.6</ele>
        <time>2021-12-29T12:03:04.000Z</time>
      </trkpt>
      <trkpt lat="43.0177" lon="-0.75473">
        <ele>1103.8</ele>
        <time>2021-12-29T12:03:05.000Z</time>
      </trkpt>
      <trkpt lat="43.01768" lon="-0.75473">
        <ele>1104</ele>
        <time>2021-12-29T12:03:06.000Z</time>
      </trkpt>
      <trkpt lat="43.01767" lon="-0.75473">
        <ele>1104.4</ele>
        <time>2021-12-29T12:03:07.000Z</time>
      </trkpt>
      <trkpt lat="43.01766" lon="-0.75473">
        <ele>1104.8</ele>
        <time>2021-12-29T12:03:08.000Z</time>
      </trkpt>
      <trkpt lat="43.01765" lon="-0.75474">
        <ele>1105</ele>
        <time>2021-12-29T12:03:09.000Z</time>
      </trkpt>
      <trkpt lat="43.01764" lon="-0.75474">
        <ele>1105.2</ele>
        <time>2021-12-29T12:03:10.000Z</time>
      </trkpt>
      <trkpt lat="43.01762" lon="-0.75474">
        <ele>1105.6</ele>
        <time>2021-12-29T12:03:11.000Z</time>
      </trkpt>
      <trkpt lat="43.01761" lon="-0.75475">
        <ele>1105.8</ele>
        <time>2021-12-29T12:03:12.000Z</time>
      </trkpt>
      <trkpt lat="43.01761" lon="-0.75475">
        <ele>1106</ele>
        <time>2021-12-29T12:03:13.000Z</time>
      </trkpt>
      <trkpt lat="43.0176" lon="-0.75476">
        <ele>1106.2</ele>
        <time>2021-12-29T12:03:14.000Z</time>
      </trkpt>
      <trkpt lat="43.01759" lon="-0.75476">
        <ele>1106.4</ele>
        <time>2021-12-29T12:03:15.000Z</time>
      </trkpt>
      <trkpt lat="43.01758" lon="-0.75476">
        <ele>1106.8</ele>
        <time>2021-12-29T12:03:16.000Z</time>
      </trkpt>
      <trkpt lat="43.01757" lon="-0.75477">
        <ele>1107</ele>
        <time>2021-12-29T12:03:17.000Z</time>
      </trkpt>
      <trkpt lat="43.01756" lon="-0.75479">
        <ele>1107.2</ele>
        <time>2021-12-29T12:03:18.000Z</time>
      </trkpt>
      <trkpt lat="43.01755" lon="-0.7548">
        <ele>1107.6</ele>
        <time>2021-12-29T12:03:19.000Z</time>
      </trkpt>
      <trkpt lat="43.01755" lon="-0.75481">
        <ele>1107.8</ele>
        <time>2021-12-29T12:03:20.000Z</time>
      </trkpt>
      <trkpt lat="43.01753" lon="-0.75481">
        <ele>1108</ele>
        <time>2021-12-29T12:03:21.000Z</time>
      </trkpt>
      <trkpt lat="43.01752" lon="-0.75481">
        <ele>1108.2</ele>
        <time>2021-12-29T12:03:22.000Z</time>
      </trkpt>
      <trkpt lat="43.01751" lon="-0.75482">
        <ele>1108.4</ele>
        <time>2021-12-29T12:03:23.000Z</time>
      </trkpt>
      <trkpt lat="43.0175" lon="-0.75482">
        <ele>1108.6</ele>
        <time>2021-12-29T12:03:24.000Z</time>
      </trkpt>
      <trkpt lat="43.01748" lon="-0.75482">
        <ele>1109</ele>
        <time>2021-12-29T12:03:25.000Z</time>
      </trkpt>
      <trkpt lat="43.01747" lon="-0.75483">
        <ele>1109.2</ele>
        <time>2021-12-29T12:03:26.000Z</time>
      </trkpt>
      <trkpt lat="43.01745" lon="-0.75483">
        <ele>1109.6</ele>
        <time>2021-12-29T12:03:27.000Z</time>
      </trkpt>
      <trkpt lat="43.01744" lon="-0.75483">
        <ele>1109.8</ele>
        <time>2021-12-29T12:03:28.000Z</time>
      </trkpt>
      <trkpt lat="43.01744" lon="-0.75484">
        <ele>1110.2</ele>
        <time>2021-12-29T12:03:29.000Z</time>
      </trkpt>
      <trkpt lat="43.01742" lon="-0.75484">
        <ele>1110.4</ele>
        <time>2021-12-29T12:03:30.000Z</time>
      </trkpt>
      <trkpt lat="43.01742" lon="-0.75486">
        <ele>1110.6</ele>
        <time>2021-12-29T12:03:31.000Z</time>
      </trkpt>
      <trkpt lat="43.01741" lon="-0.75487">
        <ele>1110.8</ele>
        <time>2021-12-29T12:03:32.000Z</time>
      </trkpt>
      <trkpt lat="43.0174" lon="-0.75488">
        <ele>1111</ele>
        <time>2021-12-29T12:03:33.000Z</time>
      </trkpt>
      <trkpt lat="43.0174" lon="-0.7549">
        <ele>1111.2</ele>
        <time>2021-12-29T12:03:34.000Z</time>
      </trkpt>
      <trkpt lat="43.01739" lon="-0.7549">
        <ele>1111.4</ele>
        <time>2021-12-29T12:03:35.000Z</time>
      </trkpt>
      <trkpt lat="43.01738" lon="-0.75491">
        <ele>1111.8</ele>
        <time>2021-12-29T12:03:36.000Z</time>
      </trkpt>
      <trkpt lat="43.01737" lon="-0.75491">
        <ele>1111.8</ele>
        <time>2021-12-29T12:03:37.000Z</time>
      </trkpt>
      <trkpt lat="43.01736" lon="-0.75493">
        <ele>1112</ele>
        <time>2021-12-29T12:03:38.000Z</time>
      </trkpt>
      <trkpt lat="43.01735" lon="-0.75494">
        <ele>1112.2</ele>
        <time>2021-12-29T12:03:39.000Z</time>
      </trkpt>
      <trkpt lat="43.01734" lon="-0.75495">
        <ele>1112.6</ele>
        <time>2021-12-29T12:03:40.000Z</time>
      </trkpt>
      <trkpt lat="43.01733" lon="-0.75496">
        <ele>1112.6</ele>
        <time>2021-12-29T12:03:41.000Z</time>
      </trkpt>
      <trkpt lat="43.01732" lon="-0.75496">
        <ele>1112.8</ele>
        <time>2021-12-29T12:03:42.000Z</time>
      </trkpt>
      <trkpt lat="43.01731" lon="-0.75495">
        <ele>1113</ele>
        <time>2021-12-29T12:03:43.000Z</time>
      </trkpt>
      <trkpt lat="43.01729" lon="-0.75496">
        <ele>1113.2</ele>
        <time>2021-12-29T12:03:44.000Z</time>
      </trkpt>
      <trkpt lat="43.01728" lon="-0.75496">
        <ele>1113.4</ele>
        <time>2021-12-29T12:03:45.000Z</time>
      </trkpt>
      <trkpt lat="43.01727" lon="-0.75497">
        <ele>1113.6</ele>
        <time>2021-12-29T12:03:46.000Z</time>
      </trkpt>
      <trkpt lat="43.01726" lon="-0.75498">
        <ele>1113.6</ele>
        <time>2021-12-29T12:03:47.000Z</time>
      </trkpt>
      <trkpt lat="43.01724" lon="-0.75498">
        <ele>1113.8</ele>
        <time>2021-12-29T12:03:48.000Z</time>
      </trkpt>
      <trkpt lat="43.01724" lon="-0.755">
        <ele>1113.8</ele>
        <time>2021-12-29T12:03:49.000Z</time>
      </trkpt>
      <trkpt lat="43.01722" lon="-0.755">
        <ele>1114</ele>
        <time>2021-12-29T12:03:50.000Z</time>
      </trkpt>
      <trkpt lat="43.01722" lon="-0.755">
        <ele>1114</ele>
        <time>2021-12-29T12:03:51.000Z</time>
      </trkpt>
      <trkpt lat="43.01722" lon="-0.75503">
        <ele>1114.2</ele>
        <time>2021-12-29T12:03:52.000Z</time>
      </trkpt>
      <trkpt lat="43.01721" lon="-0.75505">
        <ele>1114.2</ele>
        <time>2021-12-29T12:03:53.000Z</time>
      </trkpt>
      <trkpt lat="43.01721" lon="-0.75506">
        <ele>1114.2</ele>
        <time>2021-12-29T12:03:54.000Z</time>
      </trkpt>
      <trkpt lat="43.01719" lon="-0.75506">
        <ele>1114.4</ele>
        <time>2021-12-29T12:03:55.000Z</time>
      </trkpt>
      <trkpt lat="43.01717" lon="-0.75506">
        <ele>1114.4</ele>
        <time>2021-12-29T12:03:56.000Z</time>
      </trkpt>
      <trkpt lat="43.01716" lon="-0.75506">
        <ele>1114.6</ele>
        <time>2021-12-29T12:03:57.000Z</time>
      </trkpt>
      <trkpt lat="43.01715" lon="-0.75507">
        <ele>1114.6</ele>
        <time>2021-12-29T12:03:58.000Z</time>
      </trkpt>
      <trkpt lat="43.01714" lon="-0.75508">
        <ele>1114.8</ele>
        <time>2021-12-29T12:03:59.000Z</time>
      </trkpt>
      <trkpt lat="43.01711" lon="-0.75506">
        <ele>1114.8</ele>
        <time>2021-12-29T12:04:00.000Z</time>
      </trkpt>
      <trkpt lat="43.01709" lon="-0.75506">
        <ele>1115</ele>
        <time>2021-12-29T12:04:01.000Z</time>
      </trkpt>
      <trkpt lat="43.01708" lon="-0.75507">
        <ele>1115</ele>
        <time>2021-12-29T12:04:02.000Z</time>
      </trkpt>
      <trkpt lat="43.01706" lon="-0.75507">
        <ele>1115.2</ele>
        <time>2021-12-29T12:04:03.000Z</time>
      </trkpt>
      <trkpt lat="43.01705" lon="-0.75508">
        <ele>1115.4</ele>
        <time>2021-12-29T12:04:04.000Z</time>
      </trkpt>
      <trkpt lat="43.01704" lon="-0.75508">
        <ele>1115.6</ele>
        <time>2021-12-29T12:04:05.000Z</time>
      </trkpt>
      <trkpt lat="43.01702" lon="-0.75508">
        <ele>1115.8</ele>
        <time>2021-12-29T12:04:06.000Z</time>
      </trkpt>
      <trkpt lat="43.01701" lon="-0.75509">
        <ele>1116</ele>
        <time>2021-12-29T12:04:07.000Z</time>
      </trkpt>
      <trkpt lat="43.017" lon="-0.75509">
        <ele>1116.2</ele>
        <time>2021-12-29T12:04:08.000Z</time>
      </trkpt>
      <trkpt lat="43.01699" lon="-0.7551">
        <ele>1116.4</ele>
        <time>2021-12-29T12:04:09.000Z</time>
      </trkpt>
      <trkpt lat="43.01697" lon="-0.7551">
        <ele>1116.6</ele>
        <time>2021-12-29T12:04:10.000Z</time>
      </trkpt>
      <trkpt lat="43.01696" lon="-0.75511">
        <ele>1116.8</ele>
        <time>2021-12-29T12:04:11.000Z</time>
      </trkpt>
      <trkpt lat="43.01695" lon="-0.75512">
        <ele>1117.2</ele>
        <time>2021-12-29T12:04:12.000Z</time>
      </trkpt>
      <trkpt lat="43.01693" lon="-0.75513">
        <ele>1117.6</ele>
        <time>2021-12-29T12:04:13.000Z</time>
      </trkpt>
      <trkpt lat="43.01692" lon="-0.75513">
        <ele>1117.8</ele>
        <time>2021-12-29T12:04:14.000Z</time>
      </trkpt>
      <trkpt lat="43.01691" lon="-0.75513">
        <ele>1118.2</ele>
        <time>2021-12-29T12:04:15.000Z</time>
      </trkpt>
      <trkpt lat="43.01689" lon="-0.75514">
        <ele>1118.4</ele>
        <time>2021-12-29T12:04:16.000Z</time>
      </trkpt>
      <trkpt lat="43.01688" lon="-0.75515">
        <ele>1118.8</ele>
        <time>2021-12-29T12:04:17.000Z</time>
      </trkpt>
      <trkpt lat="43.01688" lon="-0.75516">
        <ele>1119</ele>
        <time>2021-12-29T12:04:18.000Z</time>
      </trkpt>
      <trkpt lat="43.01687" lon="-0.75517">
        <ele>1119.4</ele>
        <time>2021-12-29T12:04:19.000Z</time>
      </trkpt>
      <trkpt lat="43.01686" lon="-0.75518">
        <ele>1119.6</ele>
        <time>2021-12-29T12:04:20.000Z</time>
      </trkpt>
      <trkpt lat="43.01685" lon="-0.75519">
        <ele>1120</ele>
        <time>2021-12-29T12:04:21.000Z</time>
      </trkpt>
      <trkpt lat="43.01684" lon="-0.7552">
        <ele>1120.2</ele>
        <time>2021-12-29T12:04:22.000Z</time>
      </trkpt>
      <trkpt lat="43.01684" lon="-0.75522">
        <ele>1120.4</ele>
        <time>2021-12-29T12:04:23.000Z</time>
      </trkpt>
      <trkpt lat="43.01683" lon="-0.75524">
        <ele>1120.8</ele>
        <time>2021-12-29T12:04:24.000Z</time>
      </trkpt>
      <trkpt lat="43.01682" lon="-0.75525">
        <ele>1121</ele>
        <time>2021-12-29T12:04:25.000Z</time>
      </trkpt>
      <trkpt lat="43.01681" lon="-0.75526">
        <ele>1121.4</ele>
        <time>2021-12-29T12:04:26.000Z</time>
      </trkpt>
      <trkpt lat="43.01679" lon="-0.75526">
        <ele>1121.6</ele>
        <time>2021-12-29T12:04:27.000Z</time>
      </trkpt>
      <trkpt lat="43.01678" lon="-0.75527">
        <ele>1122</ele>
        <time>2021-12-29T12:04:28.000Z</time>
      </trkpt>
      <trkpt lat="43.01677" lon="-0.75529">
        <ele>1122.2</ele>
        <time>2021-12-29T12:04:29.000Z</time>
      </trkpt>
      <trkpt lat="43.01675" lon="-0.75528">
        <ele>1122.6</ele>
        <time>2021-12-29T12:04:30.000Z</time>
      </trkpt>
      <trkpt lat="43.01674" lon="-0.75529">
        <ele>1122.8</ele>
        <time>2021-12-29T12:04:31.000Z</time>
      </trkpt>
      <trkpt lat="43.01673" lon="-0.7553">
        <ele>1123.2</ele>
        <time>2021-12-29T12:04:32.000Z</time>
      </trkpt>
      <trkpt lat="43.01672" lon="-0.75531">
        <ele>1123.4</ele>
        <time>2021-12-29T12:04:33.000Z</time>
      </trkpt>
      <trkpt lat="43.01671" lon="-0.75532">
        <ele>1123.8</ele>
        <time>2021-12-29T12:04:34.000Z</time>
      </trkpt>
      <trkpt lat="43.01669" lon="-0.75532">
        <ele>1124</ele>
        <time>2021-12-29T12:04:35.000Z</time>
      </trkpt>
      <trkpt lat="43.01668" lon="-0.75532">
        <ele>1124.4</ele>
        <time>2021-12-29T12:04:36.000Z</time>
      </trkpt>
      <trkpt lat="43.01667" lon="-0.75533">
        <ele>1124.8</ele>
        <time>2021-12-29T12:04:37.000Z</time>
      </trkpt>
      <trkpt lat="43.01666" lon="-0.75533">
        <ele>1125</ele>
        <time>2021-12-29T12:04:38.000Z</time>
      </trkpt>
      <trkpt lat="43.01665" lon="-0.75534">
        <ele>1125.4</ele>
        <time>2021-12-29T12:04:39.000Z</time>
      </trkpt>
      <trkpt lat="43.01663" lon="-0.75533">
        <ele>1125.6</ele>
        <time>2021-12-29T12:04:40.000Z</time>
      </trkpt>
      <trkpt lat="43.01662" lon="-0.75533">
        <ele>1125.8</ele>
        <time>2021-12-29T12:04:41.000Z</time>
      </trkpt>
      <trkpt lat="43.01662" lon="-0.75534">
        <ele>1126</ele>
        <time>2021-12-29T12:04:42.000Z</time>
      </trkpt>
      <trkpt lat="43.01661" lon="-0.75536">
        <ele>1126.4</ele>
        <time>2021-12-29T12:04:43.000Z</time>
      </trkpt>
      <trkpt lat="43.0166" lon="-0.75536">
        <ele>1126.8</ele>
        <time>2021-12-29T12:04:44.000Z</time>
      </trkpt>
      <trkpt lat="43.01659" lon="-0.75538">
        <ele>1127</ele>
        <time>2021-12-29T12:04:45.000Z</time>
      </trkpt>
      <trkpt lat="43.01658" lon="-0.75539">
        <ele>1127.4</ele>
        <time>2021-12-29T12:04:46.000Z</time>
      </trkpt>
      <trkpt lat="43.01657" lon="-0.75539">
        <ele>1127.6</ele>
        <time>2021-12-29T12:04:47.000Z</time>
      </trkpt>
      <trkpt lat="43.01656" lon="-0.7554">
        <ele>1127.8</ele>
        <time>2021-12-29T12:04:48.000Z</time>
      </trkpt>
      <trkpt lat="43.01655" lon="-0.75541">
        <ele>1128</ele>
        <time>2021-12-29T12:04:49.000Z</time>
      </trkpt>
      <trkpt lat="43.01654" lon="-0.75542">
        <ele>1128.2</ele>
        <time>2021-12-29T12:04:50.000Z</time>
      </trkpt>
      <trkpt lat="43.01653" lon="-0.75543">
        <ele>1128.4</ele>
        <time>2021-12-29T12:04:51.000Z</time>
      </trkpt>
      <trkpt lat="43.01653" lon="-0.75544">
        <ele>1128.6</ele>
        <time>2021-12-29T12:04:52.000Z</time>
      </trkpt>
      <trkpt lat="43.01653" lon="-0.75545">
        <ele>1128.8</ele>
        <time>2021-12-29T12:04:53.000Z</time>
      </trkpt>
      <trkpt lat="43.01652" lon="-0.75545">
        <ele>1128.8</ele>
        <time>2021-12-29T12:04:54.000Z</time>
      </trkpt>
      <trkpt lat="43.01651" lon="-0.75546">
        <ele>1128.8</ele>
        <time>2021-12-29T12:04:55.000Z</time>
      </trkpt>
      <trkpt lat="43.01651" lon="-0.75546">
        <ele>1128.8</ele>
        <time>2021-12-29T12:04:56.000Z</time>
      </trkpt>
      <trkpt lat="43.01651" lon="-0.75546">
        <ele>1129</ele>
        <time>2021-12-29T12:04:57.000Z</time>
      </trkpt>
      <trkpt lat="43.0165" lon="-0.75547">
        <ele>1129</ele>
        <time>2021-12-29T12:04:58.000Z</time>
      </trkpt>
      <trkpt lat="43.0165" lon="-0.75547">
        <ele>1129</ele>
        <time>2021-12-29T12:04:59.000Z</time>
      </trkpt>
      <trkpt lat="43.0165" lon="-0.75547">
        <ele>1129</ele>
        <time>2021-12-29T12:10:12.000Z</time>
      </trkpt>
      <trkpt lat="43.01651" lon="-0.7562">
        <ele>1149</ele>
        <time>2021-12-29T12:10:13.000Z</time>
      </trkpt>
      <trkpt lat="43.01652" lon="-0.75619">
        <ele>1149</ele>
        <time>2021-12-29T12:10:14.000Z</time>
      </trkpt>
      <trkpt lat="43.01653" lon="-0.75617">
        <ele>1149.2</ele>
        <time>2021-12-29T12:10:15.000Z</time>
      </trkpt>
      <trkpt lat="43.01654" lon="-0.75616">
        <ele>1149.2</ele>
        <time>2021-12-29T12:10:16.000Z</time>
      </trkpt>
      <trkpt lat="43.01655" lon="-0.75615">
        <ele>1149.4</ele>
        <time>2021-12-29T12:10:17.000Z</time>
      </trkpt>
      <trkpt lat="43.01655" lon="-0.75614">
        <ele>1149.6</ele>
        <time>2021-12-29T12:10:18.000Z</time>
      </trkpt>
      <trkpt lat="43.01656" lon="-0.75613">
        <ele>1149.6</ele>
        <time>2021-12-29T12:10:19.000Z</time>
      </trkpt>
      <trkpt lat="43.01656" lon="-0.75611">
        <ele>1149.8</ele>
        <time>2021-12-29T12:10:20.000Z</time>
      </trkpt>
      <trkpt lat="43.01657" lon="-0.7561">
        <ele>1149.8</ele>
        <time>2021-12-29T12:10:21.000Z</time>
      </trkpt>
      <trkpt lat="43.01658" lon="-0.75609">
        <ele>1150</ele>
        <time>2021-12-29T12:10:22.000Z</time>
      </trkpt>
      <trkpt lat="43.01658" lon="-0.75607">
        <ele>1150.2</ele>
        <time>2021-12-29T12:10:23.000Z</time>
      </trkpt>
      <trkpt lat="43.01659" lon="-0.75606">
        <ele>1150.4</ele>
        <time>2021-12-29T12:10:24.000Z</time>
      </trkpt>
      <trkpt lat="43.0166" lon="-0.75605">
        <ele>1150.4</ele>
        <time>2021-12-29T12:10:25.000Z</time>
      </trkpt>
      <trkpt lat="43.01661" lon="-0.75603">
        <ele>1150.6</ele>
        <time>2021-12-29T12:10:26.000Z</time>
      </trkpt>
      <trkpt lat="43.01662" lon="-0.75601">
        <ele>1150.6</ele>
        <time>2021-12-29T12:10:27.000Z</time>
      </trkpt>
      <trkpt lat="43.01663" lon="-0.75599">
        <ele>1150.8</ele>
        <time>2021-12-29T12:10:28.000Z</time>
      </trkpt>
      <trkpt lat="43.01663" lon="-0.75598">
        <ele>1151</ele>
        <time>2021-12-29T12:10:29.000Z</time>
      </trkpt>
      <trkpt lat="43.01664" lon="-0.75596">
        <ele>1151</ele>
        <time>2021-12-29T12:10:30.000Z</time>
      </trkpt>
      <trkpt lat="43.01664" lon="-0.75595">
        <ele>1151</ele>
        <time>2021-12-29T12:10:31.000Z</time>
      </trkpt>
      <trkpt lat="43.01665" lon="-0.75593">
        <ele>1151.2</ele>
        <time>2021-12-29T12:10:32.000Z</time>
      </trkpt>
      <trkpt lat="43.01665" lon="-0.75592">
        <ele>1151.2</ele>
        <time>2021-12-29T12:10:33.000Z</time>
      </trkpt>
      <trkpt lat="43.01666" lon="-0.75591">
        <ele>1151.4</ele>
        <time>2021-12-29T12:10:34.000Z</time>
      </trkpt>
      <trkpt lat="43.01667" lon="-0.7559">
        <ele>1151.6</ele>
        <time>2021-12-29T12:10:35.000Z</time>
      </trkpt>
      <trkpt lat="43.01667" lon="-0.75589">
        <ele>1151.6</ele>
        <time>2021-12-29T12:10:36.000Z</time>
      </trkpt>
      <trkpt lat="43.01668" lon="-0.75588">
        <ele>1151.6</ele>
        <time>2021-12-29T12:10:37.000Z</time>
      </trkpt>
      <trkpt lat="43.01669" lon="-0.75587">
        <ele>1151.8</ele>
        <time>2021-12-29T12:10:38.000Z</time>
      </trkpt>
      <trkpt lat="43.01669" lon="-0.75586">
        <ele>1152</ele>
        <time>2021-12-29T12:10:39.000Z</time>
      </trkpt>
      <trkpt lat="43.0167" lon="-0.75586">
        <ele>1152</ele>
        <time>2021-12-29T12:10:40.000Z</time>
      </trkpt>
      <trkpt lat="43.0167" lon="-0.75584">
        <ele>1152.2</ele>
        <time>2021-12-29T12:10:41.000Z</time>
      </trkpt>
      <trkpt lat="43.01671" lon="-0.75584">
        <ele>1152.2</ele>
        <time>2021-12-29T12:10:42.000Z</time>
      </trkpt>
      <trkpt lat="43.01672" lon="-0.75584">
        <ele>1152.2</ele>
        <time>2021-12-29T12:10:43.000Z</time>
      </trkpt>
      <trkpt lat="43.01673" lon="-0.75584">
        <ele>1152.2</ele>
        <time>2021-12-29T12:10:44.000Z</time>
      </trkpt>
      <trkpt lat="43.01674" lon="-0.75584">
        <ele>1152.2</ele>
        <time>2021-12-29T12:10:45.000Z</time>
      </trkpt>
      <trkpt lat="43.01676" lon="-0.75585">
        <ele>1152.2</ele>
        <time>2021-12-29T12:10:46.000Z</time>
      </trkpt>
      <trkpt lat="43.01678" lon="-0.75585">
        <ele>1152.2</ele>
        <time>2021-12-29T12:10:47.000Z</time>
      </trkpt>
      <trkpt lat="43.0168" lon="-0.75585">
        <ele>1152.4</ele>
        <time>2021-12-29T12:10:48.000Z</time>
      </trkpt>
      <trkpt lat="43.01681" lon="-0.75585">
        <ele>1152.4</ele>
        <time>2021-12-29T12:10:49.000Z</time>
      </trkpt>
      <trkpt lat="43.01683" lon="-0.75586">
        <ele>1152.6</ele>
        <time>2021-12-29T12:10:50.000Z</time>
      </trkpt>
      <trkpt lat="43.01684" lon="-0.75587">
        <ele>1152.8</ele>
        <time>2021-12-29T12:10:51.000Z</time>
      </trkpt>
      <trkpt lat="43.01686" lon="-0.75587">
        <ele>1152.8</ele>
        <time>2021-12-29T12:10:52.000Z</time>
      </trkpt>
      <trkpt lat="43.01687" lon="-0.75589">
        <ele>1153</ele>
        <time>2021-12-29T12:10:53.000Z</time>
      </trkpt>
      <trkpt lat="43.01688" lon="-0.7559">
        <ele>1153</ele>
        <time>2021-12-29T12:11:16.000Z</time>
      </trkpt>
      <trkpt lat="43.01709" lon="-0.75605">
        <ele>1155.6</ele>
        <time>2021-12-29T12:11:17.000Z</time>
      </trkpt>
      <trkpt lat="43.0171" lon="-0.75606">
        <ele>1155.8</ele>
        <time>2021-12-29T12:11:18.000Z</time>
      </trkpt>
      <trkpt lat="43.01711" lon="-0.75607">
        <ele>1155.8</ele>
        <time>2021-12-29T12:11:19.000Z</time>
      </trkpt>
      <trkpt lat="43.01713" lon="-0.75608">
        <ele>1156</ele>
        <time>2021-12-29T12:11:20.000Z</time>
      </trkpt>
      <trkpt lat="43.01715" lon="-0.75609">
        <ele>1156.2</ele>
        <time>2021-12-29T12:11:21.000Z</time>
      </trkpt>
      <trkpt lat="43.01716" lon="-0.75611">
        <ele>1156.2</ele>
        <time>2021-12-29T12:11:22.000Z</time>
      </trkpt>
      <trkpt lat="43.01716" lon="-0.75611">
        <ele>1156.2</ele>
        <time>2021-12-29T12:11:23.000Z</time>
      </trkpt>
      <trkpt lat="43.01717" lon="-0.75613">
        <ele>1156.4</ele>
        <time>2021-12-29T12:11:24.000Z</time>
      </trkpt>
      <trkpt lat="43.01718" lon="-0.75614">
        <ele>1156.6</ele>
        <time>2021-12-29T12:11:25.000Z</time>
      </trkpt>
      <trkpt lat="43.0172" lon="-0.75616">
        <ele>1156.6</ele>
        <time>2021-12-29T12:11:26.000Z</time>
      </trkpt>
      <trkpt lat="43.01722" lon="-0.75617">
        <ele>1156.8</ele>
        <time>2021-12-29T12:11:27.000Z</time>
      </trkpt>
      <trkpt lat="43.01725" lon="-0.75618">
        <ele>1157</ele>
        <time>2021-12-29T12:11:28.000Z</time>
      </trkpt>
      <trkpt lat="43.01729" lon="-0.75619">
        <ele>1157</ele>
        <time>2021-12-29T12:11:29.000Z</time>
      </trkpt>
      <trkpt lat="43.01731" lon="-0.75621">
        <ele>1157.2</ele>
        <time>2021-12-29T12:11:30.000Z</time>
      </trkpt>
      <trkpt lat="43.01732" lon="-0.75622">
        <ele>1157.4</ele>
        <time>2021-12-29T12:11:31.000Z</time>
      </trkpt>
      <trkpt lat="43.01733" lon="-0.75623">
        <ele>1157.6</ele>
        <time>2021-12-29T12:11:32.000Z</time>
      </trkpt>
      <trkpt lat="43.01734" lon="-0.75624">
        <ele>1157.8</ele>
        <time>2021-12-29T12:11:33.000Z</time>
      </trkpt>
      <trkpt lat="43.01734" lon="-0.75626">
        <ele>1157.8</ele>
        <time>2021-12-29T12:11:34.000Z</time>
      </trkpt>
      <trkpt lat="43.01735" lon="-0.75627">
        <ele>1158</ele>
        <time>2021-12-29T12:11:35.000Z</time>
      </trkpt>
      <trkpt lat="43.01736" lon="-0.75629">
        <ele>1158.2</ele>
        <time>2021-12-29T12:11:36.000Z</time>
      </trkpt>
      <trkpt lat="43.01736" lon="-0.7563">
        <ele>1158.4</ele>
        <time>2021-12-29T12:11:37.000Z</time>
      </trkpt>
      <trkpt lat="43.01737" lon="-0.75632">
        <ele>1158.6</ele>
        <time>2021-12-29T12:11:38.000Z</time>
      </trkpt>
      <trkpt lat="43.01738" lon="-0.75633">
        <ele>1158.6</ele>
        <time>2021-12-29T12:11:39.000Z</time>
      </trkpt>
      <trkpt lat="43.01739" lon="-0.75635">
        <ele>1158.8</ele>
        <time>2021-12-29T12:11:40.000Z</time>
      </trkpt>
      <trkpt lat="43.01739" lon="-0.75637">
        <ele>1159</ele>
        <time>2021-12-29T12:11:41.000Z</time>
      </trkpt>
      <trkpt lat="43.0174" lon="-0.75638">
        <ele>1159.2</ele>
        <time>2021-12-29T12:11:42.000Z</time>
      </trkpt>
      <trkpt lat="43.01741" lon="-0.7564">
        <ele>1159.2</ele>
        <time>2021-12-29T12:11:43.000Z</time>
      </trkpt>
      <trkpt lat="43.01742" lon="-0.75641">
        <ele>1159.4</ele>
        <time>2021-12-29T12:11:44.000Z</time>
      </trkpt>
      <trkpt lat="43.01742" lon="-0.75643">
        <ele>1159.4</ele>
        <time>2021-12-29T12:11:45.000Z</time>
      </trkpt>
      <trkpt lat="43.01744" lon="-0.75644">
        <ele>1159.6</ele>
        <time>2021-12-29T12:11:46.000Z</time>
      </trkpt>
      <trkpt lat="43.01744" lon="-0.75645">
        <ele>1159.8</ele>
        <time>2021-12-29T12:11:47.000Z</time>
      </trkpt>
      <trkpt lat="43.01744" lon="-0.75646">
        <ele>1159.8</ele>
        <time>2021-12-29T12:11:48.000Z</time>
      </trkpt>
      <trkpt lat="43.01745" lon="-0.75648">
        <ele>1160</ele>
        <time>2021-12-29T12:11:49.000Z</time>
      </trkpt>
      <trkpt lat="43.01746" lon="-0.7565">
        <ele>1160</ele>
        <time>2021-12-29T12:11:50.000Z</time>
      </trkpt>
      <trkpt lat="43.01746" lon="-0.75652">
        <ele>1160.2</ele>
        <time>2021-12-29T12:11:51.000Z</time>
      </trkpt>
      <trkpt lat="43.01747" lon="-0.75653">
        <ele>1160.4</ele>
        <time>2021-12-29T12:11:52.000Z</time>
      </trkpt>
      <trkpt lat="43.01747" lon="-0.75655">
        <ele>1160.4</ele>
        <time>2021-12-29T12:11:53.000Z</time>
      </trkpt>
      <trkpt lat="43.01748" lon="-0.75657">
        <ele>1160.6</ele>
        <time>2021-12-29T12:11:54.000Z</time>
      </trkpt>
      <trkpt lat="43.01749" lon="-0.75658">
        <ele>1160.6</ele>
        <time>2021-12-29T12:11:55.000Z</time>
      </trkpt>
      <trkpt lat="43.01749" lon="-0.7566">
        <ele>1160.8</ele>
        <time>2021-12-29T12:11:56.000Z</time>
      </trkpt>
      <trkpt lat="43.01749" lon="-0.75662">
        <ele>1161</ele>
        <time>2021-12-29T12:11:57.000Z</time>
      </trkpt>
      <trkpt lat="43.0175" lon="-0.75663">
        <ele>1161</ele>
        <time>2021-12-29T12:11:58.000Z</time>
      </trkpt>
      <trkpt lat="43.01751" lon="-0.75664">
        <ele>1161.2</ele>
        <time>2021-12-29T12:11:59.000Z</time>
      </trkpt>
      <trkpt lat="43.01752" lon="-0.75666">
        <ele>1161.2</ele>
        <time>2021-12-29T12:12:00.000Z</time>
      </trkpt>
      <trkpt lat="43.01753" lon="-0.75668">
        <ele>1161.4</ele>
        <time>2021-12-29T12:12:01.000Z</time>
      </trkpt>
      <trkpt lat="43.01752" lon="-0.75669">
        <ele>1161.6</ele>
        <time>2021-12-29T12:12:02.000Z</time>
      </trkpt>
      <trkpt lat="43.01752" lon="-0.75672">
        <ele>1161.6</ele>
        <time>2021-12-29T12:12:03.000Z</time>
      </trkpt>
      <trkpt lat="43.01751" lon="-0.75674">
        <ele>1161.8</ele>
        <time>2021-12-29T12:12:04.000Z</time>
      </trkpt>
      <trkpt lat="43.01752" lon="-0.75675">
        <ele>1162</ele>
        <time>2021-12-29T12:12:05.000Z</time>
      </trkpt>
      <trkpt lat="43.01752" lon="-0.75677">
        <ele>1162</ele>
        <time>2021-12-29T12:12:06.000Z</time>
      </trkpt>
      <trkpt lat="43.01753" lon="-0.75678">
        <ele>1162</ele>
        <time>2021-12-29T12:12:07.000Z</time>
      </trkpt>
      <trkpt lat="43.01753" lon="-0.7568">
        <ele>1162.2</ele>
        <time>2021-12-29T12:12:08.000Z</time>
      </trkpt>
      <trkpt lat="43.01753" lon="-0.75683">
        <ele>1162.2</ele>
        <time>2021-12-29T12:12:09.000Z</time>
      </trkpt>
      <trkpt lat="43.01754" lon="-0.75685">
        <ele>1162.4</ele>
        <time>2021-12-29T12:12:10.000Z</time>
      </trkpt>
      <trkpt lat="43.01755" lon="-0.75687">
        <ele>1162.4</ele>
        <time>2021-12-29T12:12:11.000Z</time>
      </trkpt>
      <trkpt lat="43.01756" lon="-0.75688">
        <ele>1162.4</ele>
        <time>2021-12-29T12:12:12.000Z</time>
      </trkpt>
      <trkpt lat="43.01757" lon="-0.7569">
        <ele>1162.6</ele>
        <time>2021-12-29T12:12:13.000Z</time>
      </trkpt>
      <trkpt lat="43.01757" lon="-0.75691">
        <ele>1162.8</ele>
        <time>2021-12-29T12:12:14.000Z</time>
      </trkpt>
      <trkpt lat="43.01758" lon="-0.75693">
        <ele>1163</ele>
        <time>2021-12-29T12:12:15.000Z</time>
      </trkpt>
      <trkpt lat="43.01759" lon="-0.75694">
        <ele>1163.2</ele>
        <time>2021-12-29T12:12:16.000Z</time>
      </trkpt>
      <trkpt lat="43.01759" lon="-0.75695">
        <ele>1163.4</ele>
        <time>2021-12-29T12:12:17.000Z</time>
      </trkpt>
      <trkpt lat="43.01761" lon="-0.75697">
        <ele>1163.6</ele>
        <time>2021-12-29T12:12:18.000Z</time>
      </trkpt>
      <trkpt lat="43.01763" lon="-0.75697">
        <ele>1163.6</ele>
        <time>2021-12-29T12:12:19.000Z</time>
      </trkpt>
      <trkpt lat="43.01764" lon="-0.75698">
        <ele>1163.8</ele>
        <time>2021-12-29T12:12:20.000Z</time>
      </trkpt>
      <trkpt lat="43.01765" lon="-0.757">
        <ele>1164</ele>
        <time>2021-12-29T12:12:21.000Z</time>
      </trkpt>
      <trkpt lat="43.01766" lon="-0.75701">
        <ele>1164</ele>
        <time>2021-12-29T12:12:22.000Z</time>
      </trkpt>
      <trkpt lat="43.01767" lon="-0.75703">
        <ele>1164.2</ele>
        <time>2021-12-29T12:12:23.000Z</time>
      </trkpt>
      <trkpt lat="43.01768" lon="-0.75704">
        <ele>1164.4</ele>
        <time>2021-12-29T12:12:24.000Z</time>
      </trkpt>
      <trkpt lat="43.01769" lon="-0.75705">
        <ele>1164.4</ele>
        <time>2021-12-29T12:12:25.000Z</time>
      </trkpt>
      <trkpt lat="43.0177" lon="-0.75706">
        <ele>1164.4</ele>
        <time>2021-12-29T12:12:26.000Z</time>
      </trkpt>
      <trkpt lat="43.0177" lon="-0.75707">
        <ele>1164.4</ele>
        <time>2021-12-29T12:12:27.000Z</time>
      </trkpt>
      <trkpt lat="43.01774" lon="-0.75708">
        <ele>1164.6</ele>
        <time>2021-12-29T12:12:28.000Z</time>
      </trkpt>
      <trkpt lat="43.01775" lon="-0.7571">
        <ele>1164.8</ele>
        <time>2021-12-29T12:12:29.000Z</time>
      </trkpt>
      <trkpt lat="43.01777" lon="-0.75711">
        <ele>1165.2</ele>
        <time>2021-12-29T12:12:30.000Z</time>
      </trkpt>
      <trkpt lat="43.01778" lon="-0.75712">
        <ele>1165.4</ele>
        <time>2021-12-29T12:12:31.000Z</time>
      </trkpt>
      <trkpt lat="43.01778" lon="-0.75713">
        <ele>1165.4</ele>
        <time>2021-12-29T12:12:32.000Z</time>
      </trkpt>
      <trkpt lat="43.0178" lon="-0.75713">
        <ele>1165.8</ele>
        <time>2021-12-29T12:12:33.000Z</time>
      </trkpt>
      <trkpt lat="43.01782" lon="-0.75714">
        <ele>1165.8</ele>
        <time>2021-12-29T12:12:34.000Z</time>
      </trkpt>
      <trkpt lat="43.01782" lon="-0.75716">
        <ele>1166</ele>
        <time>2021-12-29T12:12:35.000Z</time>
      </trkpt>
      <trkpt lat="43.01783" lon="-0.75717">
        <ele>1166.2</ele>
        <time>2021-12-29T12:12:36.000Z</time>
      </trkpt>
      <trkpt lat="43.01784" lon="-0.75718">
        <ele>1166.4</ele>
        <time>2021-12-29T12:12:37.000Z</time>
      </trkpt>
      <trkpt lat="43.01785" lon="-0.75719">
        <ele>1166.6</ele>
        <time>2021-12-29T12:12:38.000Z</time>
      </trkpt>
      <trkpt lat="43.01785" lon="-0.7572">
        <ele>1166.8</ele>
        <time>2021-12-29T12:12:39.000Z</time>
      </trkpt>
      <trkpt lat="43.01786" lon="-0.75721">
        <ele>1167</ele>
        <time>2021-12-29T12:12:40.000Z</time>
      </trkpt>
      <trkpt lat="43.01787" lon="-0.75721">
        <ele>1167</ele>
        <time>2021-12-29T12:12:41.000Z</time>
      </trkpt>
      <trkpt lat="43.01788" lon="-0.75722">
        <ele>1167.2</ele>
        <time>2021-12-29T12:12:42.000Z</time>
      </trkpt>
      <trkpt lat="43.01789" lon="-0.75722">
        <ele>1167.4</ele>
        <time>2021-12-29T12:12:43.000Z</time>
      </trkpt>
      <trkpt lat="43.01789" lon="-0.75722">
        <ele>1167.6</ele>
        <time>2021-12-29T12:12:44.000Z</time>
      </trkpt>
      <trkpt lat="43.01789" lon="-0.75722">
        <ele>1167.6</ele>
        <time>2021-12-29T12:12:45.000Z</time>
      </trkpt>
      <trkpt lat="43.01789" lon="-0.75723">
        <ele>1167.6</ele>
        <time>2021-12-29T12:12:46.000Z</time>
      </trkpt>
      <trkpt lat="43.01789" lon="-0.75722">
        <ele>1167.8</ele>
        <time>2021-12-29T12:12:47.000Z</time>
      </trkpt>
      <trkpt lat="43.01789" lon="-0.75722">
        <ele>1167.6</ele>
        <time>2021-12-29T12:12:48.000Z</time>
      </trkpt>
      <trkpt lat="43.01789" lon="-0.75723">
        <ele>1167.6</ele>
        <time>2021-12-29T12:12:49.000Z</time>
      </trkpt>
      <trkpt lat="43.0179" lon="-0.75723">
        <ele>1167.8</ele>
        <time>2021-12-29T12:14:17.000Z</time>
      </trkpt>
      <trkpt lat="43.01868" lon="-0.75743">
        <ele>1176.2</ele>
        <time>2021-12-29T12:14:18.000Z</time>
      </trkpt>
      <trkpt lat="43.01869" lon="-0.75743">
        <ele>1176.4</ele>
        <time>2021-12-29T12:14:19.000Z</time>
      </trkpt>
      <trkpt lat="43.01871" lon="-0.75743">
        <ele>1176.4</ele>
        <time>2021-12-29T12:14:20.000Z</time>
      </trkpt>
      <trkpt lat="43.01872" lon="-0.75744">
        <ele>1176.6</ele>
        <time>2021-12-29T12:14:21.000Z</time>
      </trkpt>
      <trkpt lat="43.01873" lon="-0.75744">
        <ele>1176.8</ele>
        <time>2021-12-29T12:14:22.000Z</time>
      </trkpt>
      <trkpt lat="43.01874" lon="-0.75745">
        <ele>1176.8</ele>
        <time>2021-12-29T12:14:23.000Z</time>
      </trkpt>
      <trkpt lat="43.01876" lon="-0.75746">
        <ele>1176.8</ele>
        <time>2021-12-29T12:14:24.000Z</time>
      </trkpt>
      <trkpt lat="43.01876" lon="-0.75746">
        <ele>1177</ele>
        <time>2021-12-29T12:14:25.000Z</time>
      </trkpt>
      <trkpt lat="43.01878" lon="-0.75746">
        <ele>1177</ele>
        <time>2021-12-29T12:14:26.000Z</time>
      </trkpt>
      <trkpt lat="43.01878" lon="-0.75746">
        <ele>1177</ele>
        <time>2021-12-29T12:14:27.000Z</time>
      </trkpt>
      <trkpt lat="43.0188" lon="-0.75746">
        <ele>1177</ele>
        <time>2021-12-29T12:14:28.000Z</time>
      </trkpt>
      <trkpt lat="43.0188" lon="-0.75747">
        <ele>1177.2</ele>
        <time>2021-12-29T12:14:29.000Z</time>
      </trkpt>
      <trkpt lat="43.0188" lon="-0.75747">
        <ele>1177</ele>
        <time>2021-12-29T12:14:30.000Z</time>
      </trkpt>
      <trkpt lat="43.0188" lon="-0.75746">
        <ele>1177.4</ele>
        <time>2021-12-29T12:14:31.000Z</time>
      </trkpt>
      <trkpt lat="43.01881" lon="-0.75746">
        <ele>1177</ele>
        <time>2021-12-29T12:14:32.000Z</time>
      </trkpt>
      <trkpt lat="43.01881" lon="-0.75746">
        <ele>1177</ele>
        <time>2021-12-29T12:15:32.000Z</time>
      </trkpt>
      <trkpt lat="43.0192" lon="-0.75767">
        <ele>1181</ele>
        <time>2021-12-29T12:15:33.000Z</time>
      </trkpt>
      <trkpt lat="43.0192" lon="-0.75766">
        <ele>1181.2</ele>
        <time>2021-12-29T12:15:34.000Z</time>
      </trkpt>
      <trkpt lat="43.01921" lon="-0.75767">
        <ele>1181.2</ele>
        <time>2021-12-29T12:15:35.000Z</time>
      </trkpt>
      <trkpt lat="43.01922" lon="-0.75768">
        <ele>1181.4</ele>
        <time>2021-12-29T12:15:36.000Z</time>
      </trkpt>
      <trkpt lat="43.01922" lon="-0.75768">
        <ele>1181.6</ele>
        <time>2021-12-29T12:15:37.000Z</time>
      </trkpt>
      <trkpt lat="43.01923" lon="-0.75769">
        <ele>1181.8</ele>
        <time>2021-12-29T12:15:38.000Z</time>
      </trkpt>
      <trkpt lat="43.01924" lon="-0.75771">
        <ele>1181.8</ele>
        <time>2021-12-29T12:15:39.000Z</time>
      </trkpt>
      <trkpt lat="43.01925" lon="-0.75772">
        <ele>1182</ele>
        <time>2021-12-29T12:15:40.000Z</time>
      </trkpt>
      <trkpt lat="43.01927" lon="-0.75772">
        <ele>1182.2</ele>
        <time>2021-12-29T12:15:41.000Z</time>
      </trkpt>
      <trkpt lat="43.01928" lon="-0.75773">
        <ele>1182.2</ele>
        <time>2021-12-29T12:15:42.000Z</time>
      </trkpt>
      <trkpt lat="43.0193" lon="-0.75773">
        <ele>1182.4</ele>
        <time>2021-12-29T12:15:43.000Z</time>
      </trkpt>
      <trkpt lat="43.01931" lon="-0.75774">
        <ele>1182.4</ele>
        <time>2021-12-29T12:15:44.000Z</time>
      </trkpt>
      <trkpt lat="43.01932" lon="-0.75776">
        <ele>1182.6</ele>
        <time>2021-12-29T12:15:45.000Z</time>
      </trkpt>
      <trkpt lat="43.01933" lon="-0.75777">
        <ele>1182.6</ele>
        <time>2021-12-29T12:15:46.000Z</time>
      </trkpt>
      <trkpt lat="43.01934" lon="-0.75778">
        <ele>1182.8</ele>
        <time>2021-12-29T12:15:47.000Z</time>
      </trkpt>
      <trkpt lat="43.01935" lon="-0.75779">
        <ele>1182.8</ele>
        <time>2021-12-29T12:15:48.000Z</time>
      </trkpt>
      <trkpt lat="43.01936" lon="-0.7578">
        <ele>1183</ele>
        <time>2021-12-29T12:15:49.000Z</time>
      </trkpt>
      <trkpt lat="43.01936" lon="-0.75781">
        <ele>1183</ele>
        <time>2021-12-29T12:15:50.000Z</time>
      </trkpt>
      <trkpt lat="43.01937" lon="-0.75782">
        <ele>1183.2</ele>
        <time>2021-12-29T12:15:51.000Z</time>
      </trkpt>
      <trkpt lat="43.01938" lon="-0.75783">
        <ele>1183.2</ele>
        <time>2021-12-29T12:15:52.000Z</time>
      </trkpt>
      <trkpt lat="43.01939" lon="-0.75785">
        <ele>1183.2</ele>
        <time>2021-12-29T12:15:53.000Z</time>
      </trkpt>
      <trkpt lat="43.01939" lon="-0.75787">
        <ele>1183.4</ele>
        <time>2021-12-29T12:15:54.000Z</time>
      </trkpt>
      <trkpt lat="43.01939" lon="-0.75788">
        <ele>1183.6</ele>
        <time>2021-12-29T12:15:55.000Z</time>
      </trkpt>
      <trkpt lat="43.01939" lon="-0.75789">
        <ele>1183.6</ele>
        <time>2021-12-29T12:15:56.000Z</time>
      </trkpt>
      <trkpt lat="43.01939" lon="-0.75789">
        <ele>1183.6</ele>
        <time>2021-12-29T12:15:57.000Z</time>
      </trkpt>
      <trkpt lat="43.01939" lon="-0.75789">
        <ele>1183.6</ele>
        <time>2021-12-29T12:15:58.000Z</time>
      </trkpt>
      <trkpt lat="43.01939" lon="-0.7579">
        <ele>1183.4</ele>
        <time>2021-12-29T12:15:59.000Z</time>
      </trkpt>
      <trkpt lat="43.01939" lon="-0.7579">
        <ele>1183.6</ele>
        <time>2021-12-29T12:16:00.000Z</time>
      </trkpt>
      <trkpt lat="43.0194" lon="-0.75791">
        <ele>1183.4</ele>
        <time>2021-12-29T12:16:01.000Z</time>
      </trkpt>
      <trkpt lat="43.01941" lon="-0.75791">
        <ele>1183.4</ele>
        <time>2021-12-29T12:16:02.000Z</time>
      </trkpt>
      <trkpt lat="43.01941" lon="-0.75791">
        <ele>1183.6</ele>
        <time>2021-12-29T12:16:03.000Z</time>
      </trkpt>
      <trkpt lat="43.01941" lon="-0.75791">
        <ele>1183.6</ele>
        <time>2021-12-29T12:16:51.000Z</time>
      </trkpt>
      <trkpt lat="43.01966" lon="-0.75814">
        <ele>1186.2</ele>
        <time>2021-12-29T12:16:52.000Z</time>
      </trkpt>
      <trkpt lat="43.01967" lon="-0.75815">
        <ele>1186.2</ele>
        <time>2021-12-29T12:16:53.000Z</time>
      </trkpt>
      <trkpt lat="43.01968" lon="-0.75816">
        <ele>1186.4</ele>
        <time>2021-12-29T12:16:54.000Z</time>
      </trkpt>
      <trkpt lat="43.01969" lon="-0.75818">
        <ele>1186.6</ele>
        <time>2021-12-29T12:16:55.000Z</time>
      </trkpt>
      <trkpt lat="43.01969" lon="-0.75819">
        <ele>1186.8</ele>
        <time>2021-12-29T12:16:56.000Z</time>
      </trkpt>
      <trkpt lat="43.0197" lon="-0.7582">
        <ele>1187</ele>
        <time>2021-12-29T12:16:57.000Z</time>
      </trkpt>
      <trkpt lat="43.01971" lon="-0.7582">
        <ele>1187.2</ele>
        <time>2021-12-29T12:16:58.000Z</time>
      </trkpt>
      <trkpt lat="43.01972" lon="-0.75822">
        <ele>1187.2</ele>
        <time>2021-12-29T12:16:59.000Z</time>
      </trkpt>
      <trkpt lat="43.01973" lon="-0.75823">
        <ele>1187.4</ele>
        <time>2021-12-29T12:17:00.000Z</time>
      </trkpt>
      <trkpt lat="43.01975" lon="-0.75823">
        <ele>1187.6</ele>
        <time>2021-12-29T12:17:01.000Z</time>
      </trkpt>
      <trkpt lat="43.01976" lon="-0.75824">
        <ele>1187.6</ele>
        <time>2021-12-29T12:17:02.000Z</time>
      </trkpt>
      <trkpt lat="43.01978" lon="-0.75825">
        <ele>1187.8</ele>
        <time>2021-12-29T12:17:03.000Z</time>
      </trkpt>
      <trkpt lat="43.01981" lon="-0.75825">
        <ele>1188</ele>
        <time>2021-12-29T12:17:04.000Z</time>
      </trkpt>
      <trkpt lat="43.01981" lon="-0.75825">
        <ele>1188.2</ele>
        <time>2021-12-29T12:17:05.000Z</time>
      </trkpt>
      <trkpt lat="43.01983" lon="-0.75825">
        <ele>1188.4</ele>
        <time>2021-12-29T12:17:06.000Z</time>
      </trkpt>
      <trkpt lat="43.01985" lon="-0.75826">
        <ele>1188.4</ele>
        <time>2021-12-29T12:17:07.000Z</time>
      </trkpt>
      <trkpt lat="43.01986" lon="-0.75827">
        <ele>1188.6</ele>
        <time>2021-12-29T12:17:08.000Z</time>
      </trkpt>
      <trkpt lat="43.01987" lon="-0.75827">
        <ele>1188.8</ele>
        <time>2021-12-29T12:17:09.000Z</time>
      </trkpt>
      <trkpt lat="43.01988" lon="-0.75828">
        <ele>1189</ele>
        <time>2021-12-29T12:17:10.000Z</time>
      </trkpt>
      <trkpt lat="43.01989" lon="-0.75828">
        <ele>1189.2</ele>
        <time>2021-12-29T12:17:11.000Z</time>
      </trkpt>
      <trkpt lat="43.0199" lon="-0.75829">
        <ele>1189.4</ele>
        <time>2021-12-29T12:17:12.000Z</time>
      </trkpt>
      <trkpt lat="43.01992" lon="-0.75829">
        <ele>1189.6</ele>
        <time>2021-12-29T12:17:13.000Z</time>
      </trkpt>
      <trkpt lat="43.01994" lon="-0.7583">
        <ele>1189.8</ele>
        <time>2021-12-29T12:17:14.000Z</time>
      </trkpt>
      <trkpt lat="43.01995" lon="-0.75831">
        <ele>1190</ele>
        <time>2021-12-29T12:17:15.000Z</time>
      </trkpt>
      <trkpt lat="43.01996" lon="-0.75831">
        <ele>1190.2</ele>
        <time>2021-12-29T12:17:16.000Z</time>
      </trkpt>
      <trkpt lat="43.01998" lon="-0.75832">
        <ele>1190.2</ele>
        <time>2021-12-29T12:17:17.000Z</time>
      </trkpt>
      <trkpt lat="43.01998" lon="-0.75833">
        <ele>1190.4</ele>
        <time>2021-12-29T12:17:18.000Z</time>
      </trkpt>
      <trkpt lat="43.02" lon="-0.75834">
        <ele>1190.6</ele>
        <time>2021-12-29T12:17:19.000Z</time>
      </trkpt>
      <trkpt lat="43.02001" lon="-0.75834">
        <ele>1190.8</ele>
        <time>2021-12-29T12:17:20.000Z</time>
      </trkpt>
      <trkpt lat="43.02002" lon="-0.75834">
        <ele>1191</ele>
        <time>2021-12-29T12:17:21.000Z</time>
      </trkpt>
      <trkpt lat="43.02004" lon="-0.75834">
        <ele>1191</ele>
        <time>2021-12-29T12:17:22.000Z</time>
      </trkpt>
      <trkpt lat="43.02005" lon="-0.75834">
        <ele>1191.2</ele>
        <time>2021-12-29T12:17:23.000Z</time>
      </trkpt>
      <trkpt lat="43.02006" lon="-0.75834">
        <ele>1191.4</ele>
        <time>2021-12-29T12:17:24.000Z</time>
      </trkpt>
      <trkpt lat="43.02007" lon="-0.75834">
        <ele>1191.6</ele>
        <time>2021-12-29T12:17:25.000Z</time>
      </trkpt>
      <trkpt lat="43.02009" lon="-0.75835">
        <ele>1191.6</ele>
        <time>2021-12-29T12:17:26.000Z</time>
      </trkpt>
      <trkpt lat="43.0201" lon="-0.75835">
        <ele>1191.8</ele>
        <time>2021-12-29T12:17:27.000Z</time>
      </trkpt>
      <trkpt lat="43.02012" lon="-0.75835">
        <ele>1192</ele>
        <time>2021-12-29T12:17:28.000Z</time>
      </trkpt>
      <trkpt lat="43.02014" lon="-0.75835">
        <ele>1192.2</ele>
        <time>2021-12-29T12:17:29.000Z</time>
      </trkpt>
      <trkpt lat="43.02016" lon="-0.75836">
        <ele>1192.2</ele>
        <time>2021-12-29T12:17:30.000Z</time>
      </trkpt>
      <trkpt lat="43.02017" lon="-0.75836">
        <ele>1192.4</ele>
        <time>2021-12-29T12:17:31.000Z</time>
      </trkpt>
      <trkpt lat="43.02018" lon="-0.75836">
        <ele>1192.6</ele>
        <time>2021-12-29T12:17:32.000Z</time>
      </trkpt>
      <trkpt lat="43.0202" lon="-0.75837">
        <ele>1192.6</ele>
        <time>2021-12-29T12:17:33.000Z</time>
      </trkpt>
      <trkpt lat="43.02021" lon="-0.75837">
        <ele>1192.8</ele>
        <time>2021-12-29T12:17:34.000Z</time>
      </trkpt>
      <trkpt lat="43.02022" lon="-0.75838">
        <ele>1193</ele>
        <time>2021-12-29T12:17:35.000Z</time>
      </trkpt>
      <trkpt lat="43.02023" lon="-0.75838">
        <ele>1193.2</ele>
        <time>2021-12-29T12:17:36.000Z</time>
      </trkpt>
      <trkpt lat="43.02026" lon="-0.75837">
        <ele>1193.4</ele>
        <time>2021-12-29T12:17:37.000Z</time>
      </trkpt>
      <trkpt lat="43.02029" lon="-0.75836">
        <ele>1193.6</ele>
        <time>2021-12-29T12:17:38.000Z</time>
      </trkpt>
      <trkpt lat="43.02031" lon="-0.75836">
        <ele>1193.8</ele>
        <time>2021-12-29T12:17:39.000Z</time>
      </trkpt>
      <trkpt lat="43.02033" lon="-0.75835">
        <ele>1193.8</ele>
        <time>2021-12-29T12:17:40.000Z</time>
      </trkpt>
      <trkpt lat="43.02034" lon="-0.75835">
        <ele>1194</ele>
        <time>2021-12-29T12:17:41.000Z</time>
      </trkpt>
      <trkpt lat="43.02036" lon="-0.75834">
        <ele>1194.2</ele>
        <time>2021-12-29T12:17:42.000Z</time>
      </trkpt>
      <trkpt lat="43.02037" lon="-0.75834">
        <ele>1194.4</ele>
        <time>2021-12-29T12:17:43.000Z</time>
      </trkpt>
      <trkpt lat="43.02038" lon="-0.75833">
        <ele>1194.6</ele>
        <time>2021-12-29T12:17:44.000Z</time>
      </trkpt>
      <trkpt lat="43.0204" lon="-0.75833">
        <ele>1194.8</ele>
        <time>2021-12-29T12:17:45.000Z</time>
      </trkpt>
      <trkpt lat="43.02041" lon="-0.75832">
        <ele>1194.8</ele>
        <time>2021-12-29T12:17:46.000Z</time>
      </trkpt>
      <trkpt lat="43.02043" lon="-0.75831">
        <ele>1195</ele>
        <time>2021-12-29T12:17:47.000Z</time>
      </trkpt>
      <trkpt lat="43.02044" lon="-0.7583">
        <ele>1195</ele>
        <time>2021-12-29T12:17:48.000Z</time>
      </trkpt>
      <trkpt lat="43.02046" lon="-0.75829">
        <ele>1195.2</ele>
        <time>2021-12-29T12:17:49.000Z</time>
      </trkpt>
      <trkpt lat="43.02048" lon="-0.75828">
        <ele>1195.4</ele>
        <time>2021-12-29T12:17:50.000Z</time>
      </trkpt>
      <trkpt lat="43.02049" lon="-0.75829">
        <ele>1195.4</ele>
        <time>2021-12-29T12:17:51.000Z</time>
      </trkpt>
      <trkpt lat="43.02051" lon="-0.75829">
        <ele>1195.4</ele>
        <time>2021-12-29T12:17:52.000Z</time>
      </trkpt>
      <trkpt lat="43.02052" lon="-0.75829">
        <ele>1195.6</ele>
        <time>2021-12-29T12:17:53.000Z</time>
      </trkpt>
      <trkpt lat="43.02053" lon="-0.75828">
        <ele>1195.6</ele>
        <time>2021-12-29T12:17:54.000Z</time>
      </trkpt>
      <trkpt lat="43.02054" lon="-0.75828">
        <ele>1195.8</ele>
        <time>2021-12-29T12:17:55.000Z</time>
      </trkpt>
      <trkpt lat="43.02056" lon="-0.75828">
        <ele>1195.8</ele>
        <time>2021-12-29T12:17:56.000Z</time>
      </trkpt>
      <trkpt lat="43.02057" lon="-0.75828">
        <ele>1196</ele>
        <time>2021-12-29T12:17:57.000Z</time>
      </trkpt>
      <trkpt lat="43.02059" lon="-0.75828">
        <ele>1196</ele>
        <time>2021-12-29T12:17:58.000Z</time>
      </trkpt>
      <trkpt lat="43.0206" lon="-0.75828">
        <ele>1196.2</ele>
        <time>2021-12-29T12:17:59.000Z</time>
      </trkpt>
      <trkpt lat="43.02062" lon="-0.75827">
        <ele>1196.2</ele>
        <time>2021-12-29T12:18:00.000Z</time>
      </trkpt>
      <trkpt lat="43.02063" lon="-0.75827">
        <ele>1196.2</ele>
        <time>2021-12-29T12:18:01.000Z</time>
      </trkpt>
      <trkpt lat="43.02064" lon="-0.75828">
        <ele>1196.4</ele>
        <time>2021-12-29T12:18:02.000Z</time>
      </trkpt>
      <trkpt lat="43.02065" lon="-0.75828">
        <ele>1196.4</ele>
        <time>2021-12-29T12:18:03.000Z</time>
      </trkpt>
      <trkpt lat="43.02066" lon="-0.75829">
        <ele>1196.6</ele>
        <time>2021-12-29T12:18:04.000Z</time>
      </trkpt>
      <trkpt lat="43.02067" lon="-0.75828">
        <ele>1196.6</ele>
        <time>2021-12-29T12:18:05.000Z</time>
      </trkpt>
      <trkpt lat="43.02068" lon="-0.75827">
        <ele>1196.6</ele>
        <time>2021-12-29T12:18:06.000Z</time>
      </trkpt>
      <trkpt lat="43.0207" lon="-0.75827">
        <ele>1196.6</ele>
        <time>2021-12-29T12:18:07.000Z</time>
      </trkpt>
      <trkpt lat="43.02071" lon="-0.75827">
        <ele>1196.8</ele>
        <time>2021-12-29T12:18:08.000Z</time>
      </trkpt>
      <trkpt lat="43.02072" lon="-0.75827">
        <ele>1197</ele>
        <time>2021-12-29T12:18:09.000Z</time>
      </trkpt>
      <trkpt lat="43.02074" lon="-0.75827">
        <ele>1197</ele>
        <time>2021-12-29T12:18:10.000Z</time>
      </trkpt>
      <trkpt lat="43.02075" lon="-0.75827">
        <ele>1197</ele>
        <time>2021-12-29T12:18:11.000Z</time>
      </trkpt>
      <trkpt lat="43.02077" lon="-0.75827">
        <ele>1197.2</ele>
        <time>2021-12-29T12:18:12.000Z</time>
      </trkpt>
      <trkpt lat="43.02078" lon="-0.75827">
        <ele>1197.2</ele>
        <time>2021-12-29T12:18:13.000Z</time>
      </trkpt>
      <trkpt lat="43.02079" lon="-0.75826">
        <ele>1197.2</ele>
        <time>2021-12-29T12:18:14.000Z</time>
      </trkpt>
      <trkpt lat="43.02081" lon="-0.75826">
        <ele>1197.2</ele>
        <time>2021-12-29T12:18:15.000Z</time>
      </trkpt>
      <trkpt lat="43.02082" lon="-0.75827">
        <ele>1197.4</ele>
        <time>2021-12-29T12:18:16.000Z</time>
      </trkpt>
      <trkpt lat="43.02084" lon="-0.75827">
        <ele>1197.4</ele>
        <time>2021-12-29T12:18:17.000Z</time>
      </trkpt>
      <trkpt lat="43.02086" lon="-0.75826">
        <ele>1197.6</ele>
        <time>2021-12-29T12:18:18.000Z</time>
      </trkpt>
      <trkpt lat="43.02087" lon="-0.75826">
        <ele>1197.6</ele>
        <time>2021-12-29T12:18:19.000Z</time>
      </trkpt>
      <trkpt lat="43.02089" lon="-0.75826">
        <ele>1197.8</ele>
        <time>2021-12-29T12:18:20.000Z</time>
      </trkpt>
      <trkpt lat="43.0209" lon="-0.75826">
        <ele>1198</ele>
        <time>2021-12-29T12:18:21.000Z</time>
      </trkpt>
      <trkpt lat="43.02091" lon="-0.75826">
        <ele>1198</ele>
        <time>2021-12-29T12:18:22.000Z</time>
      </trkpt>
      <trkpt lat="43.02093" lon="-0.75825">
        <ele>1198.2</ele>
        <time>2021-12-29T12:18:23.000Z</time>
      </trkpt>
      <trkpt lat="43.02094" lon="-0.75825">
        <ele>1198.2</ele>
        <time>2021-12-29T12:18:24.000Z</time>
      </trkpt>
      <trkpt lat="43.02095" lon="-0.75825">
        <ele>1198.2</ele>
        <time>2021-12-29T12:18:25.000Z</time>
      </trkpt>
      <trkpt lat="43.02096" lon="-0.75824">
        <ele>1198.2</ele>
        <time>2021-12-29T12:18:26.000Z</time>
      </trkpt>
      <trkpt lat="43.02098" lon="-0.75823">
        <ele>1198.4</ele>
        <time>2021-12-29T12:18:27.000Z</time>
      </trkpt>
      <trkpt lat="43.02099" lon="-0.75823">
        <ele>1198.6</ele>
        <time>2021-12-29T12:18:28.000Z</time>
      </trkpt>
      <trkpt lat="43.021" lon="-0.75823">
        <ele>1198.8</ele>
        <time>2021-12-29T12:18:29.000Z</time>
      </trkpt>
      <trkpt lat="43.02101" lon="-0.75822">
        <ele>1198.8</ele>
        <time>2021-12-29T12:18:30.000Z</time>
      </trkpt>
      <trkpt lat="43.02102" lon="-0.75821">
        <ele>1199</ele>
        <time>2021-12-29T12:18:31.000Z</time>
      </trkpt>
      <trkpt lat="43.02103" lon="-0.7582">
        <ele>1199.2</ele>
        <time>2021-12-29T12:18:32.000Z</time>
      </trkpt>
      <trkpt lat="43.02105" lon="-0.75819">
        <ele>1199.4</ele>
        <time>2021-12-29T12:18:33.000Z</time>
      </trkpt>
      <trkpt lat="43.02107" lon="-0.75819">
        <ele>1199.8</ele>
        <time>2021-12-29T12:18:34.000Z</time>
      </trkpt>
      <trkpt lat="43.02108" lon="-0.75818">
        <ele>1200</ele>
        <time>2021-12-29T12:18:35.000Z</time>
      </trkpt>
      <trkpt lat="43.02109" lon="-0.75817">
        <ele>1200.2</ele>
        <time>2021-12-29T12:18:36.000Z</time>
      </trkpt>
      <trkpt lat="43.0211" lon="-0.75816">
        <ele>1200.4</ele>
        <time>2021-12-29T12:18:37.000Z</time>
      </trkpt>
      <trkpt lat="43.02112" lon="-0.75815">
        <ele>1200.6</ele>
        <time>2021-12-29T12:18:38.000Z</time>
      </trkpt>
      <trkpt lat="43.02113" lon="-0.75815">
        <ele>1200.8</ele>
        <time>2021-12-29T12:18:39.000Z</time>
      </trkpt>
      <trkpt lat="43.02113" lon="-0.75814">
        <ele>1201</ele>
        <time>2021-12-29T12:18:40.000Z</time>
      </trkpt>
      <trkpt lat="43.02114" lon="-0.75813">
        <ele>1201.2</ele>
        <time>2021-12-29T12:18:41.000Z</time>
      </trkpt>
      <trkpt lat="43.02115" lon="-0.75812">
        <ele>1201.4</ele>
        <time>2021-12-29T12:18:42.000Z</time>
      </trkpt>
      <trkpt lat="43.02117" lon="-0.75811">
        <ele>1201.6</ele>
        <time>2021-12-29T12:18:43.000Z</time>
      </trkpt>
      <trkpt lat="43.02118" lon="-0.75811">
        <ele>1201.8</ele>
        <time>2021-12-29T12:18:44.000Z</time>
      </trkpt>
      <trkpt lat="43.02119" lon="-0.7581">
        <ele>1201.8</ele>
        <time>2021-12-29T12:18:45.000Z</time>
      </trkpt>
      <trkpt lat="43.02121" lon="-0.75809">
        <ele>1202</ele>
        <time>2021-12-29T12:18:46.000Z</time>
      </trkpt>
      <trkpt lat="43.02122" lon="-0.75808">
        <ele>1202.2</ele>
        <time>2021-12-29T12:18:47.000Z</time>
      </trkpt>
      <trkpt lat="43.02124" lon="-0.75808">
        <ele>1202.2</ele>
        <time>2021-12-29T12:18:48.000Z</time>
      </trkpt>
      <trkpt lat="43.02125" lon="-0.75808">
        <ele>1202.4</ele>
        <time>2021-12-29T12:18:49.000Z</time>
      </trkpt>
      <trkpt lat="43.02127" lon="-0.75807">
        <ele>1202.6</ele>
        <time>2021-12-29T12:18:50.000Z</time>
      </trkpt>
      <trkpt lat="43.02128" lon="-0.75806">
        <ele>1202.8</ele>
        <time>2021-12-29T12:18:51.000Z</time>
      </trkpt>
      <trkpt lat="43.02129" lon="-0.75806">
        <ele>1202.8</ele>
        <time>2021-12-29T12:18:52.000Z</time>
      </trkpt>
      <trkpt lat="43.0213" lon="-0.75806">
        <ele>1203</ele>
        <time>2021-12-29T12:18:53.000Z</time>
      </trkpt>
      <trkpt lat="43.02132" lon="-0.75806">
        <ele>1203.2</ele>
        <time>2021-12-29T12:18:54.000Z</time>
      </trkpt>
      <trkpt lat="43.02133" lon="-0.75806">
        <ele>1203.2</ele>
        <time>2021-12-29T12:18:55.000Z</time>
      </trkpt>
      <trkpt lat="43.02134" lon="-0.75806">
        <ele>1203.4</ele>
        <time>2021-12-29T12:18:56.000Z</time>
      </trkpt>
      <trkpt lat="43.02135" lon="-0.75805">
        <ele>1203.6</ele>
        <time>2021-12-29T12:18:57.000Z</time>
      </trkpt>
      <trkpt lat="43.02136" lon="-0.75805">
        <ele>1203.6</ele>
        <time>2021-12-29T12:18:58.000Z</time>
      </trkpt>
      <trkpt lat="43.02138" lon="-0.75804">
        <ele>1203.8</ele>
        <time>2021-12-29T12:18:59.000Z</time>
      </trkpt>
      <trkpt lat="43.02139" lon="-0.75804">
        <ele>1203.8</ele>
        <time>2021-12-29T12:19:00.000Z</time>
      </trkpt>
      <trkpt lat="43.0214" lon="-0.75803">
        <ele>1204</ele>
        <time>2021-12-29T12:19:01.000Z</time>
      </trkpt>
      <trkpt lat="43.02141" lon="-0.75803">
        <ele>1204.2</ele>
        <time>2021-12-29T12:19:02.000Z</time>
      </trkpt>
      <trkpt lat="43.02142" lon="-0.75803">
        <ele>1204.4</ele>
        <time>2021-12-29T12:19:03.000Z</time>
      </trkpt>
      <trkpt lat="43.02144" lon="-0.75803">
        <ele>1204.6</ele>
        <time>2021-12-29T12:19:04.000Z</time>
      </trkpt>
      <trkpt lat="43.02145" lon="-0.75802">
        <ele>1204.8</ele>
        <time>2021-12-29T12:19:05.000Z</time>
      </trkpt>
      <trkpt lat="43.02146" lon="-0.75802">
        <ele>1205</ele>
        <time>2021-12-29T12:19:06.000Z</time>
      </trkpt>
      <trkpt lat="43.02147" lon="-0.75802">
        <ele>1205</ele>
        <time>2021-12-29T12:19:07.000Z</time>
      </trkpt>
      <trkpt lat="43.02149" lon="-0.75802">
        <ele>1205.2</ele>
        <time>2021-12-29T12:19:08.000Z</time>
      </trkpt>
      <trkpt lat="43.0215" lon="-0.75801">
        <ele>1205.6</ele>
        <time>2021-12-29T12:19:09.000Z</time>
      </trkpt>
      <trkpt lat="43.02151" lon="-0.75801">
        <ele>1205.6</ele>
        <time>2021-12-29T12:19:10.000Z</time>
      </trkpt>
      <trkpt lat="43.02152" lon="-0.75801">
        <ele>1205.8</ele>
        <time>2021-12-29T12:19:11.000Z</time>
      </trkpt>
      <trkpt lat="43.02154" lon="-0.758">
        <ele>1206</ele>
        <time>2021-12-29T12:19:12.000Z</time>
      </trkpt>
      <trkpt lat="43.02155" lon="-0.758">
        <ele>1206.2</ele>
        <time>2021-12-29T12:19:13.000Z</time>
      </trkpt>
      <trkpt lat="43.02156" lon="-0.75799">
        <ele>1206.2</ele>
        <time>2021-12-29T12:19:14.000Z</time>
      </trkpt>
      <trkpt lat="43.02158" lon="-0.758">
        <ele>1206.4</ele>
        <time>2021-12-29T12:19:15.000Z</time>
      </trkpt>
      <trkpt lat="43.02159" lon="-0.758">
        <ele>1206.6</ele>
        <time>2021-12-29T12:19:16.000Z</time>
      </trkpt>
      <trkpt lat="43.02161" lon="-0.758">
        <ele>1206.8</ele>
        <time>2021-12-29T12:19:17.000Z</time>
      </trkpt>
      <trkpt lat="43.02163" lon="-0.758">
        <ele>1206.8</ele>
        <time>2021-12-29T12:19:18.000Z</time>
      </trkpt>
      <trkpt lat="43.02164" lon="-0.75799">
        <ele>1207</ele>
        <time>2021-12-29T12:19:19.000Z</time>
      </trkpt>
      <trkpt lat="43.02165" lon="-0.75799">
        <ele>1207.2</ele>
        <time>2021-12-29T12:19:20.000Z</time>
      </trkpt>
      <trkpt lat="43.02167" lon="-0.75799">
        <ele>1207.4</ele>
        <time>2021-12-29T12:19:21.000Z</time>
      </trkpt>
      <trkpt lat="43.02168" lon="-0.75799">
        <ele>1207.6</ele>
        <time>2021-12-29T12:19:22.000Z</time>
      </trkpt>
      <trkpt lat="43.02169" lon="-0.75799">
        <ele>1207.6</ele>
        <time>2021-12-29T12:19:23.000Z</time>
      </trkpt>
      <trkpt lat="43.02171" lon="-0.75799">
        <ele>1207.8</ele>
        <time>2021-12-29T12:19:24.000Z</time>
      </trkpt>
      <trkpt lat="43.02171" lon="-0.75799">
        <ele>1208</ele>
        <time>2021-12-29T12:19:25.000Z</time>
      </trkpt>
      <trkpt lat="43.02172" lon="-0.75799">
        <ele>1208</ele>
        <time>2021-12-29T12:19:26.000Z</time>
      </trkpt>
      <trkpt lat="43.02174" lon="-0.75799">
        <ele>1208</ele>
        <time>2021-12-29T12:19:27.000Z</time>
      </trkpt>
      <trkpt lat="43.02175" lon="-0.75799">
        <ele>1208.2</ele>
        <time>2021-12-29T12:19:28.000Z</time>
      </trkpt>
      <trkpt lat="43.02176" lon="-0.758">
        <ele>1208</ele>
        <time>2021-12-29T12:19:29.000Z</time>
      </trkpt>
      <trkpt lat="43.02177" lon="-0.758">
        <ele>1208</ele>
        <time>2021-12-29T12:19:30.000Z</time>
      </trkpt>
      <trkpt lat="43.02178" lon="-0.75801">
        <ele>1208.2</ele>
        <time>2021-12-29T12:19:31.000Z</time>
      </trkpt>
      <trkpt lat="43.02179" lon="-0.758">
        <ele>1208.4</ele>
        <time>2021-12-29T12:19:32.000Z</time>
      </trkpt>
      <trkpt lat="43.02179" lon="-0.75801">
        <ele>1208.6</ele>
        <time>2021-12-29T12:19:33.000Z</time>
      </trkpt>
      <trkpt lat="43.02181" lon="-0.75801">
        <ele>1208.6</ele>
        <time>2021-12-29T12:19:34.000Z</time>
      </trkpt>
      <trkpt lat="43.02182" lon="-0.75801">
        <ele>1208.6</ele>
        <time>2021-12-29T12:19:35.000Z</time>
      </trkpt>
      <trkpt lat="43.02183" lon="-0.75802">
        <ele>1208.8</ele>
        <time>2021-12-29T12:19:36.000Z</time>
      </trkpt>
      <trkpt lat="43.02184" lon="-0.75801">
        <ele>1208.8</ele>
        <time>2021-12-29T12:19:37.000Z</time>
      </trkpt>
      <trkpt lat="43.02184" lon="-0.75802">
        <ele>1208.8</ele>
        <time>2021-12-29T12:19:38.000Z</time>
      </trkpt>
      <trkpt lat="43.02184" lon="-0.75802">
        <ele>1208.8</ele>
        <time>2021-12-29T12:19:39.000Z</time>
      </trkpt>
      <trkpt lat="43.02184" lon="-0.75802">
        <ele>1208.8</ele>
        <time>2021-12-29T12:19:40.000Z</time>
      </trkpt>
      <trkpt lat="43.02185" lon="-0.75802">
        <ele>1208.8</ele>
        <time>2021-12-29T12:19:41.000Z</time>
      </trkpt>
      <trkpt lat="43.02185" lon="-0.75803">
        <ele>1208.8</ele>
        <time>2021-12-29T12:19:42.000Z</time>
      </trkpt>
      <trkpt lat="43.02186" lon="-0.75803">
        <ele>1208.8</ele>
        <time>2021-12-29T12:20:46.000Z</time>
      </trkpt>
      <trkpt lat="43.02227" lon="-0.75814">
        <ele>1211.6</ele>
        <time>2021-12-29T12:20:47.000Z</time>
      </trkpt>
      <trkpt lat="43.0223" lon="-0.75814">
        <ele>1211.8</ele>
        <time>2021-12-29T12:20:48.000Z</time>
      </trkpt>
      <trkpt lat="43.02232" lon="-0.75814">
        <ele>1211.8</ele>
        <time>2021-12-29T12:20:49.000Z</time>
      </trkpt>
      <trkpt lat="43.02233" lon="-0.75815">
        <ele>1212</ele>
        <time>2021-12-29T12:20:50.000Z</time>
      </trkpt>
      <trkpt lat="43.02235" lon="-0.75815">
        <ele>1212</ele>
        <time>2021-12-29T12:20:51.000Z</time>
      </trkpt>
      <trkpt lat="43.02237" lon="-0.75815">
        <ele>1212.2</ele>
        <time>2021-12-29T12:20:52.000Z</time>
      </trkpt>
      <trkpt lat="43.02237" lon="-0.75815">
        <ele>1212.4</ele>
        <time>2021-12-29T12:20:53.000Z</time>
      </trkpt>
      <trkpt lat="43.02238" lon="-0.75815">
        <ele>1212.6</ele>
        <time>2021-12-29T12:20:54.000Z</time>
      </trkpt>
      <trkpt lat="43.0224" lon="-0.75815">
        <ele>1213</ele>
        <time>2021-12-29T12:20:55.000Z</time>
      </trkpt>
      <trkpt lat="43.02241" lon="-0.75815">
        <ele>1213</ele>
        <time>2021-12-29T12:20:56.000Z</time>
      </trkpt>
      <trkpt lat="43.02243" lon="-0.75815">
        <ele>1213.2</ele>
        <time>2021-12-29T12:20:57.000Z</time>
      </trkpt>
      <trkpt lat="43.02245" lon="-0.75816">
        <ele>1213.4</ele>
        <time>2021-12-29T12:20:58.000Z</time>
      </trkpt>
      <trkpt lat="43.02247" lon="-0.75816">
        <ele>1213.6</ele>
        <time>2021-12-29T12:20:59.000Z</time>
      </trkpt>
      <trkpt lat="43.02247" lon="-0.75816">
        <ele>1213.8</ele>
        <time>2021-12-29T12:21:00.000Z</time>
      </trkpt>
      <trkpt lat="43.02249" lon="-0.75816">
        <ele>1213.8</ele>
        <time>2021-12-29T12:21:01.000Z</time>
      </trkpt>
      <trkpt lat="43.0225" lon="-0.75816">
        <ele>1214</ele>
        <time>2021-12-29T12:21:02.000Z</time>
      </trkpt>
      <trkpt lat="43.02251" lon="-0.75817">
        <ele>1214.2</ele>
        <time>2021-12-29T12:21:03.000Z</time>
      </trkpt>
      <trkpt lat="43.02252" lon="-0.75817">
        <ele>1214.2</ele>
        <time>2021-12-29T12:21:04.000Z</time>
      </trkpt>
      <trkpt lat="43.02254" lon="-0.75817">
        <ele>1214.4</ele>
        <time>2021-12-29T12:21:05.000Z</time>
      </trkpt>
      <trkpt lat="43.02255" lon="-0.75817">
        <ele>1214.4</ele>
        <time>2021-12-29T12:21:06.000Z</time>
      </trkpt>
      <trkpt lat="43.02256" lon="-0.75818">
        <ele>1214.6</ele>
        <time>2021-12-29T12:21:07.000Z</time>
      </trkpt>
      <trkpt lat="43.02257" lon="-0.75818">
        <ele>1214.8</ele>
        <time>2021-12-29T12:21:08.000Z</time>
      </trkpt>
      <trkpt lat="43.02258" lon="-0.75818">
        <ele>1214.8</ele>
        <time>2021-12-29T12:21:09.000Z</time>
      </trkpt>
      <trkpt lat="43.02259" lon="-0.75819">
        <ele>1215</ele>
        <time>2021-12-29T12:21:10.000Z</time>
      </trkpt>
      <trkpt lat="43.0226" lon="-0.75819">
        <ele>1215.2</ele>
        <time>2021-12-29T12:21:11.000Z</time>
      </trkpt>
      <trkpt lat="43.02261" lon="-0.75819">
        <ele>1215.2</ele>
        <time>2021-12-29T12:21:12.000Z</time>
      </trkpt>
      <trkpt lat="43.02263" lon="-0.75819">
        <ele>1215.4</ele>
        <time>2021-12-29T12:21:13.000Z</time>
      </trkpt>
      <trkpt lat="43.02264" lon="-0.75818">
        <ele>1215.6</ele>
        <time>2021-12-29T12:21:14.000Z</time>
      </trkpt>
      <trkpt lat="43.02265" lon="-0.75818">
        <ele>1215.8</ele>
        <time>2021-12-29T12:21:15.000Z</time>
      </trkpt>
      <trkpt lat="43.02266" lon="-0.75818">
        <ele>1216</ele>
        <time>2021-12-29T12:21:16.000Z</time>
      </trkpt>
      <trkpt lat="43.02267" lon="-0.75818">
        <ele>1216.2</ele>
        <time>2021-12-29T12:21:17.000Z</time>
      </trkpt>
      <trkpt lat="43.02267" lon="-0.75818">
        <ele>1216.4</ele>
        <time>2021-12-29T12:21:18.000Z</time>
      </trkpt>
      <trkpt lat="43.02268" lon="-0.75818">
        <ele>1216.4</ele>
        <time>2021-12-29T12:21:19.000Z</time>
      </trkpt>
      <trkpt lat="43.02269" lon="-0.75818">
        <ele>1216.6</ele>
        <time>2021-12-29T12:21:20.000Z</time>
      </trkpt>
      <trkpt lat="43.0227" lon="-0.75818">
        <ele>1216.6</ele>
        <time>2021-12-29T12:21:21.000Z</time>
      </trkpt>
      <trkpt lat="43.02271" lon="-0.75818">
        <ele>1216.8</ele>
        <time>2021-12-29T12:21:22.000Z</time>
      </trkpt>
      <trkpt lat="43.02273" lon="-0.75818">
        <ele>1216.8</ele>
        <time>2021-12-29T12:21:23.000Z</time>
      </trkpt>
      <trkpt lat="43.02274" lon="-0.75818">
        <ele>1217</ele>
        <time>2021-12-29T12:21:24.000Z</time>
      </trkpt>
      <trkpt lat="43.02275" lon="-0.75818">
        <ele>1217.2</ele>
        <time>2021-12-29T12:21:25.000Z</time>
      </trkpt>
      <trkpt lat="43.02277" lon="-0.75817">
        <ele>1217.4</ele>
        <time>2021-12-29T12:21:26.000Z</time>
      </trkpt>
      <trkpt lat="43.02278" lon="-0.75817">
        <ele>1217.4</ele>
        <time>2021-12-29T12:21:27.000Z</time>
      </trkpt>
      <trkpt lat="43.02279" lon="-0.75817">
        <ele>1217.6</ele>
        <time>2021-12-29T12:21:28.000Z</time>
      </trkpt>
      <trkpt lat="43.0228" lon="-0.75817">
        <ele>1217.6</ele>
        <time>2021-12-29T12:21:29.000Z</time>
      </trkpt>
      <trkpt lat="43.02281" lon="-0.75817">
        <ele>1217.8</ele>
        <time>2021-12-29T12:21:30.000Z</time>
      </trkpt>
      <trkpt lat="43.02282" lon="-0.75817">
        <ele>1218</ele>
        <time>2021-12-29T12:21:40.000Z</time>
      </trkpt>
      <trkpt lat="43.02296" lon="-0.75816">
        <ele>1219.8</ele>
        <time>2021-12-29T12:21:41.000Z</time>
      </trkpt>
      <trkpt lat="43.02297" lon="-0.75817">
        <ele>1220</ele>
        <time>2021-12-29T12:21:42.000Z</time>
      </trkpt>
      <trkpt lat="43.02299" lon="-0.75817">
        <ele>1220</ele>
        <time>2021-12-29T12:21:43.000Z</time>
      </trkpt>
      <trkpt lat="43.023" lon="-0.75817">
        <ele>1220.2</ele>
        <time>2021-12-29T12:21:44.000Z</time>
      </trkpt>
      <trkpt lat="43.02301" lon="-0.75817">
        <ele>1220.4</ele>
        <time>2021-12-29T12:21:45.000Z</time>
      </trkpt>
      <trkpt lat="43.02302" lon="-0.75817">
        <ele>1220.6</ele>
        <time>2021-12-29T12:21:46.000Z</time>
      </trkpt>
      <trkpt lat="43.02304" lon="-0.75817">
        <ele>1221</ele>
        <time>2021-12-29T12:21:47.000Z</time>
      </trkpt>
      <trkpt lat="43.02306" lon="-0.75817">
        <ele>1221</ele>
        <time>2021-12-29T12:21:48.000Z</time>
      </trkpt>
      <trkpt lat="43.02307" lon="-0.75817">
        <ele>1221.2</ele>
        <time>2021-12-29T12:21:49.000Z</time>
      </trkpt>
      <trkpt lat="43.02308" lon="-0.75818">
        <ele>1221.2</ele>
        <time>2021-12-29T12:21:50.000Z</time>
      </trkpt>
      <trkpt lat="43.02309" lon="-0.75818">
        <ele>1221.2</ele>
        <time>2021-12-29T12:21:51.000Z</time>
      </trkpt>
      <trkpt lat="43.02311" lon="-0.75819">
        <ele>1221.4</ele>
        <time>2021-12-29T12:21:52.000Z</time>
      </trkpt>
      <trkpt lat="43.02312" lon="-0.7582">
        <ele>1221.6</ele>
        <time>2021-12-29T12:21:53.000Z</time>
      </trkpt>
      <trkpt lat="43.02312" lon="-0.7582">
        <ele>1221.6</ele>
        <time>2021-12-29T12:21:54.000Z</time>
      </trkpt>
      <trkpt lat="43.02314" lon="-0.7582">
        <ele>1221.8</ele>
        <time>2021-12-29T12:21:55.000Z</time>
      </trkpt>
      <trkpt lat="43.02315" lon="-0.7582">
        <ele>1221.8</ele>
        <time>2021-12-29T12:21:56.000Z</time>
      </trkpt>
      <trkpt lat="43.02316" lon="-0.75821">
        <ele>1221.8</ele>
        <time>2021-12-29T12:21:57.000Z</time>
      </trkpt>
      <trkpt lat="43.02317" lon="-0.75822">
        <ele>1222</ele>
        <time>2021-12-29T12:21:58.000Z</time>
      </trkpt>
      <trkpt lat="43.02319" lon="-0.75822">
        <ele>1222.2</ele>
        <time>2021-12-29T12:21:59.000Z</time>
      </trkpt>
      <trkpt lat="43.0232" lon="-0.75822">
        <ele>1222.4</ele>
        <time>2021-12-29T12:22:00.000Z</time>
      </trkpt>
      <trkpt lat="43.02322" lon="-0.75823">
        <ele>1222.4</ele>
        <time>2021-12-29T12:22:01.000Z</time>
      </trkpt>
      <trkpt lat="43.02323" lon="-0.75824">
        <ele>1222.6</ele>
        <time>2021-12-29T12:22:02.000Z</time>
      </trkpt>
      <trkpt lat="43.02324" lon="-0.75826">
        <ele>1222.8</ele>
        <time>2021-12-29T12:22:03.000Z</time>
      </trkpt>
      <trkpt lat="43.02326" lon="-0.75827">
        <ele>1222.8</ele>
        <time>2021-12-29T12:22:04.000Z</time>
      </trkpt>
      <trkpt lat="43.02327" lon="-0.75828">
        <ele>1223</ele>
        <time>2021-12-29T12:22:05.000Z</time>
      </trkpt>
      <trkpt lat="43.02328" lon="-0.75829">
        <ele>1223</ele>
        <time>2021-12-29T12:22:06.000Z</time>
      </trkpt>
      <trkpt lat="43.02329" lon="-0.75831">
        <ele>1223.4</ele>
        <time>2021-12-29T12:22:07.000Z</time>
      </trkpt>
      <trkpt lat="43.0233" lon="-0.75832">
        <ele>1223.4</ele>
        <time>2021-12-29T12:22:08.000Z</time>
      </trkpt>
      <trkpt lat="43.02332" lon="-0.75834">
        <ele>1223.6</ele>
        <time>2021-12-29T12:22:09.000Z</time>
      </trkpt>
      <trkpt lat="43.02332" lon="-0.75835">
        <ele>1223.6</ele>
        <time>2021-12-29T12:22:10.000Z</time>
      </trkpt>
      <trkpt lat="43.02333" lon="-0.75836">
        <ele>1223.6</ele>
        <time>2021-12-29T12:22:11.000Z</time>
      </trkpt>
      <trkpt lat="43.02334" lon="-0.75838">
        <ele>1223.6</ele>
        <time>2021-12-29T12:22:12.000Z</time>
      </trkpt>
      <trkpt lat="43.02335" lon="-0.75839">
        <ele>1223.8</ele>
        <time>2021-12-29T12:22:13.000Z</time>
      </trkpt>
      <trkpt lat="43.02335" lon="-0.75841">
        <ele>1224</ele>
        <time>2021-12-29T12:22:14.000Z</time>
      </trkpt>
      <trkpt lat="43.02336" lon="-0.75842">
        <ele>1224</ele>
        <time>2021-12-29T12:22:15.000Z</time>
      </trkpt>
      <trkpt lat="43.02337" lon="-0.75843">
        <ele>1224.2</ele>
        <time>2021-12-29T12:22:16.000Z</time>
      </trkpt>
      <trkpt lat="43.02338" lon="-0.75843">
        <ele>1224.4</ele>
        <time>2021-12-29T12:22:17.000Z</time>
      </trkpt>
      <trkpt lat="43.02338" lon="-0.75844">
        <ele>1224.6</ele>
        <time>2021-12-29T12:22:18.000Z</time>
      </trkpt>
      <trkpt lat="43.0234" lon="-0.75844">
        <ele>1224.8</ele>
        <time>2021-12-29T12:22:19.000Z</time>
      </trkpt>
      <trkpt lat="43.02341" lon="-0.75845">
        <ele>1225</ele>
        <time>2021-12-29T12:22:20.000Z</time>
      </trkpt>
      <trkpt lat="43.02342" lon="-0.75846">
        <ele>1225</ele>
        <time>2021-12-29T12:22:21.000Z</time>
      </trkpt>
      <trkpt lat="43.02342" lon="-0.75847">
        <ele>1225.2</ele>
        <time>2021-12-29T12:22:22.000Z</time>
      </trkpt>
      <trkpt lat="43.02342" lon="-0.75847">
        <ele>1225.4</ele>
        <time>2021-12-29T12:22:23.000Z</time>
      </trkpt>
      <trkpt lat="43.02343" lon="-0.75847">
        <ele>1225.6</ele>
        <time>2021-12-29T12:22:24.000Z</time>
      </trkpt>
      <trkpt lat="43.02344" lon="-0.75847">
        <ele>1225.8</ele>
        <time>2021-12-29T12:22:25.000Z</time>
      </trkpt>
      <trkpt lat="43.02345" lon="-0.75848">
        <ele>1226</ele>
        <time>2021-12-29T12:22:26.000Z</time>
      </trkpt>
      <trkpt lat="43.02346" lon="-0.75849">
        <ele>1226</ele>
        <time>2021-12-29T12:22:27.000Z</time>
      </trkpt>
      <trkpt lat="43.02347" lon="-0.75849">
        <ele>1226.2</ele>
        <time>2021-12-29T12:22:28.000Z</time>
      </trkpt>
      <trkpt lat="43.02348" lon="-0.7585">
        <ele>1226.4</ele>
        <time>2021-12-29T12:22:34.000Z</time>
      </trkpt>
      <trkpt lat="43.02354" lon="-0.75857">
        <ele>1227.4</ele>
        <time>2021-12-29T12:22:35.000Z</time>
      </trkpt>
      <trkpt lat="43.02356" lon="-0.75858">
        <ele>1227.6</ele>
        <time>2021-12-29T12:22:36.000Z</time>
      </trkpt>
      <trkpt lat="43.02357" lon="-0.75859">
        <ele>1227.8</ele>
        <time>2021-12-29T12:22:37.000Z</time>
      </trkpt>
      <trkpt lat="43.02358" lon="-0.75859">
        <ele>1227.8</ele>
        <time>2021-12-29T12:22:38.000Z</time>
      </trkpt>
      <trkpt lat="43.02359" lon="-0.75861">
        <ele>1228</ele>
        <time>2021-12-29T12:22:39.000Z</time>
      </trkpt>
      <trkpt lat="43.02361" lon="-0.75861">
        <ele>1228.2</ele>
        <time>2021-12-29T12:22:40.000Z</time>
      </trkpt>
      <trkpt lat="43.02363" lon="-0.75862">
        <ele>1228.4</ele>
        <time>2021-12-29T12:22:41.000Z</time>
      </trkpt>
      <trkpt lat="43.02364" lon="-0.75864">
        <ele>1228.6</ele>
        <time>2021-12-29T12:22:42.000Z</time>
      </trkpt>
      <trkpt lat="43.02365" lon="-0.75865">
        <ele>1228.6</ele>
        <time>2021-12-29T12:22:43.000Z</time>
      </trkpt>
      <trkpt lat="43.02366" lon="-0.75865">
        <ele>1228.8</ele>
        <time>2021-12-29T12:22:44.000Z</time>
      </trkpt>
      <trkpt lat="43.02367" lon="-0.75866">
        <ele>1229</ele>
        <time>2021-12-29T12:22:45.000Z</time>
      </trkpt>
      <trkpt lat="43.02367" lon="-0.75866">
        <ele>1229.2</ele>
        <time>2021-12-29T12:22:46.000Z</time>
      </trkpt>
      <trkpt lat="43.02369" lon="-0.75867">
        <ele>1229.4</ele>
        <time>2021-12-29T12:22:47.000Z</time>
      </trkpt>
      <trkpt lat="43.02369" lon="-0.75868">
        <ele>1229.6</ele>
        <time>2021-12-29T12:22:48.000Z</time>
      </trkpt>
      <trkpt lat="43.0237" lon="-0.75869">
        <ele>1229.6</ele>
        <time>2021-12-29T12:22:49.000Z</time>
      </trkpt>
      <trkpt lat="43.02371" lon="-0.7587">
        <ele>1229.6</ele>
        <time>2021-12-29T12:22:50.000Z</time>
      </trkpt>
      <trkpt lat="43.02372" lon="-0.7587">
        <ele>1229.8</ele>
        <time>2021-12-29T12:22:51.000Z</time>
      </trkpt>
      <trkpt lat="43.02373" lon="-0.75871">
        <ele>1229.8</ele>
        <time>2021-12-29T12:22:52.000Z</time>
      </trkpt>
      <trkpt lat="43.02374" lon="-0.75872">
        <ele>1230</ele>
        <time>2021-12-29T12:22:53.000Z</time>
      </trkpt>
      <trkpt lat="43.02375" lon="-0.75873">
        <ele>1230</ele>
        <time>2021-12-29T12:22:54.000Z</time>
      </trkpt>
      <trkpt lat="43.02376" lon="-0.75874">
        <ele>1230.2</ele>
        <time>2021-12-29T12:22:55.000Z</time>
      </trkpt>
      <trkpt lat="43.02377" lon="-0.75875">
        <ele>1230.2</ele>
        <time>2021-12-29T12:22:56.000Z</time>
      </trkpt>
      <trkpt lat="43.02378" lon="-0.75876">
        <ele>1230.4</ele>
        <time>2021-12-29T12:22:57.000Z</time>
      </trkpt>
      <trkpt lat="43.02379" lon="-0.75877">
        <ele>1230.4</ele>
        <time>2021-12-29T12:22:58.000Z</time>
      </trkpt>
      <trkpt lat="43.02379" lon="-0.75878">
        <ele>1230.6</ele>
        <time>2021-12-29T12:22:59.000Z</time>
      </trkpt>
      <trkpt lat="43.02381" lon="-0.75879">
        <ele>1230.6</ele>
        <time>2021-12-29T12:23:00.000Z</time>
      </trkpt>
      <trkpt lat="43.02382" lon="-0.75879">
        <ele>1230.8</ele>
        <time>2021-12-29T12:23:01.000Z</time>
      </trkpt>
      <trkpt lat="43.02382" lon="-0.7588">
        <ele>1231</ele>
        <time>2021-12-29T12:23:02.000Z</time>
      </trkpt>
      <trkpt lat="43.02384" lon="-0.7588">
        <ele>1231</ele>
        <time>2021-12-29T12:23:03.000Z</time>
      </trkpt>
      <trkpt lat="43.02385" lon="-0.75881">
        <ele>1231.2</ele>
        <time>2021-12-29T12:23:04.000Z</time>
      </trkpt>
      <trkpt lat="43.02386" lon="-0.75881">
        <ele>1231.2</ele>
        <time>2021-12-29T12:23:05.000Z</time>
      </trkpt>
      <trkpt lat="43.02386" lon="-0.75882">
        <ele>1231.4</ele>
        <time>2021-12-29T12:23:06.000Z</time>
      </trkpt>
      <trkpt lat="43.02387" lon="-0.75883">
        <ele>1231.4</ele>
        <time>2021-12-29T12:23:07.000Z</time>
      </trkpt>
      <trkpt lat="43.02388" lon="-0.75883">
        <ele>1231.6</ele>
        <time>2021-12-29T12:23:08.000Z</time>
      </trkpt>
      <trkpt lat="43.02388" lon="-0.75884">
        <ele>1231.8</ele>
        <time>2021-12-29T12:23:09.000Z</time>
      </trkpt>
      <trkpt lat="43.02389" lon="-0.75884">
        <ele>1232</ele>
        <time>2021-12-29T12:23:10.000Z</time>
      </trkpt>
      <trkpt lat="43.0239" lon="-0.75886">
        <ele>1232</ele>
        <time>2021-12-29T12:23:11.000Z</time>
      </trkpt>
      <trkpt lat="43.02391" lon="-0.75887">
        <ele>1232.2</ele>
        <time>2021-12-29T12:23:24.000Z</time>
      </trkpt>
      <trkpt lat="43.02406" lon="-0.75905">
        <ele>1233</ele>
        <time>2021-12-29T12:23:25.000Z</time>
      </trkpt>
      <trkpt lat="43.02406" lon="-0.75907">
        <ele>1233</ele>
        <time>2021-12-29T12:23:26.000Z</time>
      </trkpt>
      <trkpt lat="43.02406" lon="-0.75909">
        <ele>1233.2</ele>
        <time>2021-12-29T12:23:27.000Z</time>
      </trkpt>
      <trkpt lat="43.02406" lon="-0.7591">
        <ele>1233.2</ele>
        <time>2021-12-29T12:23:28.000Z</time>
      </trkpt>
      <trkpt lat="43.02407" lon="-0.75911">
        <ele>1233.4</ele>
        <time>2021-12-29T12:23:29.000Z</time>
      </trkpt>
      <trkpt lat="43.02408" lon="-0.75913">
        <ele>1233.4</ele>
        <time>2021-12-29T12:23:30.000Z</time>
      </trkpt>
      <trkpt lat="43.02409" lon="-0.75914">
        <ele>1233.6</ele>
        <time>2021-12-29T12:23:31.000Z</time>
      </trkpt>
      <trkpt lat="43.02409" lon="-0.75915">
        <ele>1233.6</ele>
        <time>2021-12-29T12:23:32.000Z</time>
      </trkpt>
      <trkpt lat="43.0241" lon="-0.75915">
        <ele>1233.8</ele>
        <time>2021-12-29T12:23:33.000Z</time>
      </trkpt>
      <trkpt lat="43.02409" lon="-0.75915">
        <ele>1233.8</ele>
        <time>2021-12-29T12:23:34.000Z</time>
      </trkpt>
      <trkpt lat="43.02409" lon="-0.75916">
        <ele>1233.8</ele>
        <time>2021-12-29T12:23:35.000Z</time>
      </trkpt>
      <trkpt lat="43.02409" lon="-0.75916">
        <ele>1233.8</ele>
        <time>2021-12-29T12:23:36.000Z</time>
      </trkpt>
      <trkpt lat="43.0241" lon="-0.75917">
        <ele>1233.8</ele>
        <time>2021-12-29T12:23:37.000Z</time>
      </trkpt>
      <trkpt lat="43.0241" lon="-0.75918">
        <ele>1233.8</ele>
        <time>2021-12-29T12:23:38.000Z</time>
      </trkpt>
      <trkpt lat="43.02409" lon="-0.75919">
        <ele>1233.8</ele>
        <time>2021-12-29T12:43:23.000Z</time>
      </trkpt>
      <trkpt lat="43.02412" lon="-0.75912">
        <ele>1231.8</ele>
        <time>2021-12-29T12:43:24.000Z</time>
      </trkpt>
      <trkpt lat="43.02412" lon="-0.75912">
        <ele>1231.6</ele>
        <time>2021-12-29T12:43:25.000Z</time>
      </trkpt>
      <trkpt lat="43.02412" lon="-0.75912">
        <ele>1231.6</ele>
        <time>2021-12-29T12:43:26.000Z</time>
      </trkpt>
      <trkpt lat="43.02412" lon="-0.75911">
        <ele>1231.6</ele>
        <time>2021-12-29T12:43:27.000Z</time>
      </trkpt>
      <trkpt lat="43.02412" lon="-0.7591">
        <ele>1231.6</ele>
        <time>2021-12-29T12:43:28.000Z</time>
      </trkpt>
      <trkpt lat="43.02412" lon="-0.75909">
        <ele>1231.4</ele>
        <time>2021-12-29T12:43:29.000Z</time>
      </trkpt>
      <trkpt lat="43.02412" lon="-0.75909">
        <ele>1231.2</ele>
        <time>2021-12-29T12:43:30.000Z</time>
      </trkpt>
      <trkpt lat="43.02412" lon="-0.75909">
        <ele>1231.4</ele>
        <time>2021-12-29T12:43:56.000Z</time>
      </trkpt>
      <trkpt lat="43.02431" lon="-0.75896">
        <ele>1231.2</ele>
        <time>2021-12-29T12:43:57.000Z</time>
      </trkpt>
      <trkpt lat="43.02433" lon="-0.75894">
        <ele>1230.8</ele>
        <time>2021-12-29T12:43:58.000Z</time>
      </trkpt>
      <trkpt lat="43.02434" lon="-0.75893">
        <ele>1230.8</ele>
        <time>2021-12-29T12:43:59.000Z</time>
      </trkpt>
      <trkpt lat="43.02436" lon="-0.75892">
        <ele>1230.8</ele>
        <time>2021-12-29T12:44:00.000Z</time>
      </trkpt>
      <trkpt lat="43.02437" lon="-0.75891">
        <ele>1230.4</ele>
        <time>2021-12-29T12:44:01.000Z</time>
      </trkpt>
      <trkpt lat="43.02438" lon="-0.75889">
        <ele>1230.2</ele>
        <time>2021-12-29T12:44:02.000Z</time>
      </trkpt>
      <trkpt lat="43.0244" lon="-0.75887">
        <ele>1230</ele>
        <time>2021-12-29T12:44:03.000Z</time>
      </trkpt>
      <trkpt lat="43.02441" lon="-0.75887">
        <ele>1230</ele>
        <time>2021-12-29T12:44:04.000Z</time>
      </trkpt>
      <trkpt lat="43.02442" lon="-0.75887">
        <ele>1230</ele>
        <time>2021-12-29T12:44:05.000Z</time>
      </trkpt>
      <trkpt lat="43.02443" lon="-0.75887">
        <ele>1230</ele>
        <time>2021-12-29T12:44:06.000Z</time>
      </trkpt>
      <trkpt lat="43.02445" lon="-0.75887">
        <ele>1230.2</ele>
        <time>2021-12-29T12:44:07.000Z</time>
      </trkpt>
      <trkpt lat="43.02446" lon="-0.75888">
        <ele>1230.4</ele>
        <time>2021-12-29T12:44:08.000Z</time>
      </trkpt>
      <trkpt lat="43.02447" lon="-0.75889">
        <ele>1230.6</ele>
        <time>2021-12-29T12:44:09.000Z</time>
      </trkpt>
      <trkpt lat="43.02448" lon="-0.75889">
        <ele>1230.8</ele>
        <time>2021-12-29T12:44:10.000Z</time>
      </trkpt>
      <trkpt lat="43.0245" lon="-0.75889">
        <ele>1231</ele>
        <time>2021-12-29T12:44:11.000Z</time>
      </trkpt>
      <trkpt lat="43.02451" lon="-0.75888">
        <ele>1231.2</ele>
        <time>2021-12-29T12:44:12.000Z</time>
      </trkpt>
      <trkpt lat="43.02453" lon="-0.75887">
        <ele>1231.2</ele>
        <time>2021-12-29T12:44:13.000Z</time>
      </trkpt>
      <trkpt lat="43.02454" lon="-0.75886">
        <ele>1231.4</ele>
        <time>2021-12-29T12:44:14.000Z</time>
      </trkpt>
      <trkpt lat="43.02455" lon="-0.75885">
        <ele>1231.6</ele>
        <time>2021-12-29T12:44:15.000Z</time>
      </trkpt>
      <trkpt lat="43.02456" lon="-0.75883">
        <ele>1232</ele>
        <time>2021-12-29T12:44:16.000Z</time>
      </trkpt>
      <trkpt lat="43.02458" lon="-0.75882">
        <ele>1232.4</ele>
        <time>2021-12-29T12:44:17.000Z</time>
      </trkpt>
      <trkpt lat="43.02459" lon="-0.75881">
        <ele>1232.8</ele>
        <time>2021-12-29T12:44:18.000Z</time>
      </trkpt>
      <trkpt lat="43.0246" lon="-0.75881">
        <ele>1233</ele>
        <time>2021-12-29T12:44:19.000Z</time>
      </trkpt>
      <trkpt lat="43.02462" lon="-0.75879">
        <ele>1233.4</ele>
        <time>2021-12-29T12:44:20.000Z</time>
      </trkpt>
      <trkpt lat="43.02463" lon="-0.75878">
        <ele>1233.6</ele>
        <time>2021-12-29T12:44:21.000Z</time>
      </trkpt>
      <trkpt lat="43.02464" lon="-0.75877">
        <ele>1233.8</ele>
        <time>2021-12-29T12:44:22.000Z</time>
      </trkpt>
      <trkpt lat="43.02465" lon="-0.75877">
        <ele>1233.8</ele>
        <time>2021-12-29T12:44:23.000Z</time>
      </trkpt>
      <trkpt lat="43.02467" lon="-0.75876">
        <ele>1234.2</ele>
        <time>2021-12-29T12:44:24.000Z</time>
      </trkpt>
      <trkpt lat="43.02469" lon="-0.75875">
        <ele>1234.4</ele>
        <time>2021-12-29T12:44:25.000Z</time>
      </trkpt>
      <trkpt lat="43.0247" lon="-0.75873">
        <ele>1234.4</ele>
        <time>2021-12-29T12:44:26.000Z</time>
      </trkpt>
      <trkpt lat="43.02472" lon="-0.75873">
        <ele>1234.4</ele>
        <time>2021-12-29T12:44:27.000Z</time>
      </trkpt>
      <trkpt lat="43.02473" lon="-0.75872">
        <ele>1234.6</ele>
        <time>2021-12-29T12:44:28.000Z</time>
      </trkpt>
      <trkpt lat="43.02474" lon="-0.75871">
        <ele>1234.6</ele>
        <time>2021-12-29T12:44:29.000Z</time>
      </trkpt>
      <trkpt lat="43.02475" lon="-0.75871">
        <ele>1234.6</ele>
        <time>2021-12-29T12:44:30.000Z</time>
      </trkpt>
      <trkpt lat="43.02477" lon="-0.75869">
        <ele>1234.4</ele>
        <time>2021-12-29T12:44:31.000Z</time>
      </trkpt>
      <trkpt lat="43.02478" lon="-0.75869">
        <ele>1234.6</ele>
        <time>2021-12-29T12:44:32.000Z</time>
      </trkpt>
      <trkpt lat="43.0248" lon="-0.75869">
        <ele>1234.8</ele>
        <time>2021-12-29T12:44:33.000Z</time>
      </trkpt>
      <trkpt lat="43.02481" lon="-0.75869">
        <ele>1234.8</ele>
        <time>2021-12-29T12:44:34.000Z</time>
      </trkpt>
      <trkpt lat="43.02484" lon="-0.7587">
        <ele>1234.6</ele>
        <time>2021-12-29T12:44:35.000Z</time>
      </trkpt>
      <trkpt lat="43.02486" lon="-0.75871">
        <ele>1234.6</ele>
        <time>2021-12-29T12:44:36.000Z</time>
      </trkpt>
      <trkpt lat="43.02489" lon="-0.75872">
        <ele>1234.4</ele>
        <time>2021-12-29T12:44:37.000Z</time>
      </trkpt>
      <trkpt lat="43.02491" lon="-0.75873">
        <ele>1234.4</ele>
        <time>2021-12-29T12:44:38.000Z</time>
      </trkpt>
      <trkpt lat="43.02496" lon="-0.75872">
        <ele>1234.2</ele>
        <time>2021-12-29T12:44:39.000Z</time>
      </trkpt>
      <trkpt lat="43.02499" lon="-0.75871">
        <ele>1234</ele>
        <time>2021-12-29T12:44:40.000Z</time>
      </trkpt>
      <trkpt lat="43.02503" lon="-0.7587">
        <ele>1234</ele>
        <time>2021-12-29T12:44:41.000Z</time>
      </trkpt>
      <trkpt lat="43.02505" lon="-0.75868">
        <ele>1233.8</ele>
        <time>2021-12-29T12:44:42.000Z</time>
      </trkpt>
      <trkpt lat="43.02507" lon="-0.75866">
        <ele>1233.8</ele>
        <time>2021-12-29T12:44:43.000Z</time>
      </trkpt>
      <trkpt lat="43.02509" lon="-0.75865">
        <ele>1233.8</ele>
        <time>2021-12-29T12:44:44.000Z</time>
      </trkpt>
      <trkpt lat="43.02511" lon="-0.75864">
        <ele>1233.8</ele>
        <time>2021-12-29T12:44:45.000Z</time>
      </trkpt>
      <trkpt lat="43.02513" lon="-0.75864">
        <ele>1233.8</ele>
        <time>2021-12-29T12:44:46.000Z</time>
      </trkpt>
      <trkpt lat="43.02515" lon="-0.75864">
        <ele>1233.6</ele>
        <time>2021-12-29T12:44:47.000Z</time>
      </trkpt>
      <trkpt lat="43.02516" lon="-0.75864">
        <ele>1233.8</ele>
        <time>2021-12-29T12:44:48.000Z</time>
      </trkpt>
      <trkpt lat="43.02517" lon="-0.75864">
        <ele>1234</ele>
        <time>2021-12-29T12:44:49.000Z</time>
      </trkpt>
      <trkpt lat="43.0252" lon="-0.75865">
        <ele>1234.2</ele>
        <time>2021-12-29T12:44:50.000Z</time>
      </trkpt>
      <trkpt lat="43.02522" lon="-0.75865">
        <ele>1234.4</ele>
        <time>2021-12-29T12:44:51.000Z</time>
      </trkpt>
      <trkpt lat="43.02524" lon="-0.75866">
        <ele>1234.6</ele>
        <time>2021-12-29T12:44:52.000Z</time>
      </trkpt>
      <trkpt lat="43.02526" lon="-0.75867">
        <ele>1234.8</ele>
        <time>2021-12-29T12:44:53.000Z</time>
      </trkpt>
      <trkpt lat="43.02527" lon="-0.75868">
        <ele>1235</ele>
        <time>2021-12-29T12:44:54.000Z</time>
      </trkpt>
      <trkpt lat="43.02529" lon="-0.75868">
        <ele>1235</ele>
        <time>2021-12-29T12:44:55.000Z</time>
      </trkpt>
      <trkpt lat="43.02531" lon="-0.75869">
        <ele>1235.2</ele>
        <time>2021-12-29T12:44:56.000Z</time>
      </trkpt>
      <trkpt lat="43.02533" lon="-0.75869">
        <ele>1235.2</ele>
        <time>2021-12-29T12:44:57.000Z</time>
      </trkpt>
      <trkpt lat="43.02535" lon="-0.7587">
        <ele>1235.4</ele>
        <time>2021-12-29T12:44:58.000Z</time>
      </trkpt>
      <trkpt lat="43.02537" lon="-0.75869">
        <ele>1235.4</ele>
        <time>2021-12-29T12:44:59.000Z</time>
      </trkpt>
      <trkpt lat="43.02538" lon="-0.75869">
        <ele>1235.6</ele>
        <time>2021-12-29T12:45:00.000Z</time>
      </trkpt>
      <trkpt lat="43.02539" lon="-0.75869">
        <ele>1235.6</ele>
        <time>2021-12-29T12:45:01.000Z</time>
      </trkpt>
      <trkpt lat="43.02541" lon="-0.75869">
        <ele>1235.6</ele>
        <time>2021-12-29T12:45:02.000Z</time>
      </trkpt>
      <trkpt lat="43.02543" lon="-0.75869">
        <ele>1235.8</ele>
        <time>2021-12-29T12:45:03.000Z</time>
      </trkpt>
      <trkpt lat="43.02544" lon="-0.75869">
        <ele>1235.8</ele>
        <time>2021-12-29T12:45:04.000Z</time>
      </trkpt>
      <trkpt lat="43.02546" lon="-0.75869">
        <ele>1235.8</ele>
        <time>2021-12-29T12:45:05.000Z</time>
      </trkpt>
      <trkpt lat="43.02547" lon="-0.75869">
        <ele>1235.8</ele>
        <time>2021-12-29T12:45:06.000Z</time>
      </trkpt>
      <trkpt lat="43.02549" lon="-0.75868">
        <ele>1235.8</ele>
        <time>2021-12-29T12:45:07.000Z</time>
      </trkpt>
      <trkpt lat="43.0255" lon="-0.75868">
        <ele>1235.8</ele>
        <time>2021-12-29T12:45:08.000Z</time>
      </trkpt>
      <trkpt lat="43.02551" lon="-0.75867">
        <ele>1235.6</ele>
        <time>2021-12-29T12:45:09.000Z</time>
      </trkpt>
      <trkpt lat="43.02553" lon="-0.75869">
        <ele>1235.4</ele>
        <time>2021-12-29T12:45:10.000Z</time>
      </trkpt>
      <trkpt lat="43.02554" lon="-0.75869">
        <ele>1235.4</ele>
        <time>2021-12-29T12:45:11.000Z</time>
      </trkpt>
      <trkpt lat="43.02556" lon="-0.75868">
        <ele>1235.2</ele>
        <time>2021-12-29T12:45:12.000Z</time>
      </trkpt>
      <trkpt lat="43.02558" lon="-0.75868">
        <ele>1235</ele>
        <time>2021-12-29T12:45:13.000Z</time>
      </trkpt>
      <trkpt lat="43.0256" lon="-0.75868">
        <ele>1235</ele>
        <time>2021-12-29T12:45:14.000Z</time>
      </trkpt>
      <trkpt lat="43.0256" lon="-0.75868">
        <ele>1235</ele>
        <time>2021-12-29T12:45:15.000Z</time>
      </trkpt>
      <trkpt lat="43.02559" lon="-0.75867">
        <ele>1235</ele>
        <time>2021-12-29T12:45:16.000Z</time>
      </trkpt>
      <trkpt lat="43.02559" lon="-0.75867">
        <ele>1235</ele>
        <time>2021-12-29T12:45:17.000Z</time>
      </trkpt>
      <trkpt lat="43.0256" lon="-0.75867">
        <ele>1235</ele>
        <time>2021-12-29T12:45:18.000Z</time>
      </trkpt>
      <trkpt lat="43.0256" lon="-0.75867">
        <ele>1235</ele>
        <time>2021-12-29T12:45:19.000Z</time>
      </trkpt>
      <trkpt lat="43.0256" lon="-0.75867">
        <ele>1234.8</ele>
        <time>2021-12-29T12:45:20.000Z</time>
      </trkpt>
      <trkpt lat="43.0256" lon="-0.75867">
        <ele>1234.8</ele>
        <time>2021-12-29T12:45:29.000Z</time>
      </trkpt>
      <trkpt lat="43.02575" lon="-0.75878">
        <ele>1229.2</ele>
        <time>2021-12-29T12:45:30.000Z</time>
      </trkpt>
      <trkpt lat="43.02577" lon="-0.75876">
        <ele>1229.2</ele>
        <time>2021-12-29T12:45:31.000Z</time>
      </trkpt>
      <trkpt lat="43.02579" lon="-0.75874">
        <ele>1229</ele>
        <time>2021-12-29T12:45:32.000Z</time>
      </trkpt>
      <trkpt lat="43.02581" lon="-0.75872">
        <ele>1228.6</ele>
        <time>2021-12-29T12:45:33.000Z</time>
      </trkpt>
      <trkpt lat="43.02584" lon="-0.75869">
        <ele>1228</ele>
        <time>2021-12-29T12:45:34.000Z</time>
      </trkpt>
      <trkpt lat="43.02586" lon="-0.75868">
        <ele>1227.6</ele>
        <time>2021-12-29T12:45:35.000Z</time>
      </trkpt>
      <trkpt lat="43.02587" lon="-0.75869">
        <ele>1226.4</ele>
        <time>2021-12-29T12:45:36.000Z</time>
      </trkpt>
      <trkpt lat="43.02591" lon="-0.7587">
        <ele>1225.2</ele>
        <time>2021-12-29T12:45:37.000Z</time>
      </trkpt>
      <trkpt lat="43.02594" lon="-0.75871">
        <ele>1224.4</ele>
        <time>2021-12-29T12:45:38.000Z</time>
      </trkpt>
      <trkpt lat="43.02597" lon="-0.75872">
        <ele>1223.6</ele>
        <time>2021-12-29T12:45:39.000Z</time>
      </trkpt>
      <trkpt lat="43.02598" lon="-0.75872">
        <ele>1222.8</ele>
        <time>2021-12-29T12:45:40.000Z</time>
      </trkpt>
      <trkpt lat="43.02601" lon="-0.75874">
        <ele>1221.8</ele>
        <time>2021-12-29T12:45:41.000Z</time>
      </trkpt>
      <trkpt lat="43.02601" lon="-0.75875">
        <ele>1220.6</ele>
        <time>2021-12-29T12:45:42.000Z</time>
      </trkpt>
      <trkpt lat="43.02601" lon="-0.75875">
        <ele>1219.6</ele>
        <time>2021-12-29T12:45:43.000Z</time>
      </trkpt>
      <trkpt lat="43.026" lon="-0.75877">
        <ele>1219</ele>
        <time>2021-12-29T12:45:44.000Z</time>
      </trkpt>
      <trkpt lat="43.026" lon="-0.75878">
        <ele>1218</ele>
        <time>2021-12-29T12:45:45.000Z</time>
      </trkpt>
      <trkpt lat="43.02601" lon="-0.75881">
        <ele>1216.8</ele>
        <time>2021-12-29T12:45:46.000Z</time>
      </trkpt>
      <trkpt lat="43.02603" lon="-0.75883">
        <ele>1215.2</ele>
        <time>2021-12-29T12:45:47.000Z</time>
      </trkpt>
      <trkpt lat="43.02606" lon="-0.75885">
        <ele>1214.2</ele>
        <time>2021-12-29T12:45:48.000Z</time>
      </trkpt>
      <trkpt lat="43.02609" lon="-0.75886">
        <ele>1212.6</ele>
        <time>2021-12-29T12:45:49.000Z</time>
      </trkpt>
      <trkpt lat="43.02608" lon="-0.75887">
        <ele>1211.2</ele>
        <time>2021-12-29T12:45:50.000Z</time>
      </trkpt>
      <trkpt lat="43.02611" lon="-0.75889">
        <ele>1210.2</ele>
        <time>2021-12-29T12:45:51.000Z</time>
      </trkpt>
      <trkpt lat="43.02612" lon="-0.75889">
        <ele>1209.4</ele>
        <time>2021-12-29T12:45:52.000Z</time>
      </trkpt>
      <trkpt lat="43.02615" lon="-0.75888">
        <ele>1207.6</ele>
        <time>2021-12-29T12:45:53.000Z</time>
      </trkpt>
      <trkpt lat="43.02616" lon="-0.75887">
        <ele>1206.4</ele>
        <time>2021-12-29T12:45:54.000Z</time>
      </trkpt>
      <trkpt lat="43.0262" lon="-0.75888">
        <ele>1205.6</ele>
        <time>2021-12-29T12:45:55.000Z</time>
      </trkpt>
      <trkpt lat="43.02623" lon="-0.75888">
        <ele>1205.2</ele>
        <time>2021-12-29T12:45:56.000Z</time>
      </trkpt>
      <trkpt lat="43.02626" lon="-0.75886">
        <ele>1205</ele>
        <time>2021-12-29T12:45:57.000Z</time>
      </trkpt>
      <trkpt lat="43.02625" lon="-0.75884">
        <ele>1204.4</ele>
        <time>2021-12-29T12:45:58.000Z</time>
      </trkpt>
      <trkpt lat="43.02626" lon="-0.75883">
        <ele>1204</ele>
        <time>2021-12-29T12:45:59.000Z</time>
      </trkpt>
      <trkpt lat="43.02628" lon="-0.75882">
        <ele>1203.6</ele>
        <time>2021-12-29T12:46:00.000Z</time>
      </trkpt>
      <trkpt lat="43.0263" lon="-0.75882">
        <ele>1202.6</ele>
        <time>2021-12-29T12:46:01.000Z</time>
      </trkpt>
      <trkpt lat="43.02635" lon="-0.75882">
        <ele>1201</ele>
        <time>2021-12-29T12:46:02.000Z</time>
      </trkpt>
      <trkpt lat="43.02636" lon="-0.7588">
        <ele>1199.8</ele>
        <time>2021-12-29T12:46:03.000Z</time>
      </trkpt>
      <trkpt lat="43.02641" lon="-0.75879">
        <ele>1198.8</ele>
        <time>2021-12-29T12:46:04.000Z</time>
      </trkpt>
      <trkpt lat="43.02643" lon="-0.75877">
        <ele>1198.2</ele>
        <time>2021-12-29T12:46:05.000Z</time>
      </trkpt>
      <trkpt lat="43.02647" lon="-0.75874">
        <ele>1197.4</ele>
        <time>2021-12-29T12:46:06.000Z</time>
      </trkpt>
      <trkpt lat="43.02654" lon="-0.75871">
        <ele>1197</ele>
        <time>2021-12-29T12:46:07.000Z</time>
      </trkpt>
      <trkpt lat="43.02657" lon="-0.75867">
        <ele>1195.6</ele>
        <time>2021-12-29T12:46:08.000Z</time>
      </trkpt>
      <trkpt lat="43.02662" lon="-0.75863">
        <ele>1194.8</ele>
        <time>2021-12-29T12:46:09.000Z</time>
      </trkpt>
      <trkpt lat="43.02664" lon="-0.75859">
        <ele>1194.4</ele>
        <time>2021-12-29T12:46:10.000Z</time>
      </trkpt>
      <trkpt lat="43.02669" lon="-0.75855">
        <ele>1194.4</ele>
        <time>2021-12-29T12:46:11.000Z</time>
      </trkpt>
      <trkpt lat="43.02672" lon="-0.75854">
        <ele>1194.4</ele>
        <time>2021-12-29T12:46:12.000Z</time>
      </trkpt>
      <trkpt lat="43.02674" lon="-0.75853">
        <ele>1194.2</ele>
        <time>2021-12-29T12:46:13.000Z</time>
      </trkpt>
      <trkpt lat="43.02675" lon="-0.75851">
        <ele>1194.2</ele>
        <time>2021-12-29T12:46:14.000Z</time>
      </trkpt>
      <trkpt lat="43.02676" lon="-0.7585">
        <ele>1194.2</ele>
        <time>2021-12-29T12:46:15.000Z</time>
      </trkpt>
      <trkpt lat="43.02676" lon="-0.75849">
        <ele>1194.2</ele>
        <time>2021-12-29T12:46:16.000Z</time>
      </trkpt>
      <trkpt lat="43.02678" lon="-0.75848">
        <ele>1194.2</ele>
        <time>2021-12-29T12:46:17.000Z</time>
      </trkpt>
      <trkpt lat="43.02679" lon="-0.75847">
        <ele>1194.2</ele>
        <time>2021-12-29T12:46:18.000Z</time>
      </trkpt>
      <trkpt lat="43.02679" lon="-0.75847">
        <ele>1194.2</ele>
        <time>2021-12-29T12:46:19.000Z</time>
      </trkpt>
      <trkpt lat="43.0268" lon="-0.75846">
        <ele>1194.2</ele>
        <time>2021-12-29T12:47:18.000Z</time>
      </trkpt>
      <trkpt lat="43.02707" lon="-0.75818">
        <ele>1184.2</ele>
        <time>2021-12-29T12:47:19.000Z</time>
      </trkpt>
      <trkpt lat="43.02706" lon="-0.75817">
        <ele>1183.6</ele>
        <time>2021-12-29T12:47:20.000Z</time>
      </trkpt>
      <trkpt lat="43.02707" lon="-0.75815">
        <ele>1183.2</ele>
        <time>2021-12-29T12:47:21.000Z</time>
      </trkpt>
      <trkpt lat="43.02706" lon="-0.75814">
        <ele>1183</ele>
        <time>2021-12-29T12:47:22.000Z</time>
      </trkpt>
      <trkpt lat="43.02706" lon="-0.75813">
        <ele>1182.6</ele>
        <time>2021-12-29T12:47:23.000Z</time>
      </trkpt>
      <trkpt lat="43.02706" lon="-0.75812">
        <ele>1182.4</ele>
        <time>2021-12-29T12:47:24.000Z</time>
      </trkpt>
      <trkpt lat="43.02706" lon="-0.75811">
        <ele>1182.2</ele>
        <time>2021-12-29T12:47:25.000Z</time>
      </trkpt>
      <trkpt lat="43.02706" lon="-0.7581">
        <ele>1182</ele>
        <time>2021-12-29T12:47:26.000Z</time>
      </trkpt>
      <trkpt lat="43.02706" lon="-0.75809">
        <ele>1181.4</ele>
        <time>2021-12-29T12:47:27.000Z</time>
      </trkpt>
      <trkpt lat="43.02706" lon="-0.75808">
        <ele>1180.8</ele>
        <time>2021-12-29T12:47:28.000Z</time>
      </trkpt>
      <trkpt lat="43.02705" lon="-0.75808">
        <ele>1180.2</ele>
        <time>2021-12-29T12:47:29.000Z</time>
      </trkpt>
      <trkpt lat="43.02704" lon="-0.75806">
        <ele>1179.4</ele>
        <time>2021-12-29T12:47:30.000Z</time>
      </trkpt>
      <trkpt lat="43.02704" lon="-0.75805">
        <ele>1179.2</ele>
        <time>2021-12-29T12:47:31.000Z</time>
      </trkpt>
      <trkpt lat="43.02704" lon="-0.75804">
        <ele>1179</ele>
        <time>2021-12-29T12:47:32.000Z</time>
      </trkpt>
      <trkpt lat="43.02704" lon="-0.75803">
        <ele>1178.8</ele>
        <time>2021-12-29T12:47:33.000Z</time>
      </trkpt>
      <trkpt lat="43.02704" lon="-0.75802">
        <ele>1178.6</ele>
        <time>2021-12-29T12:47:34.000Z</time>
      </trkpt>
      <trkpt lat="43.02705" lon="-0.758">
        <ele>1177.4</ele>
        <time>2021-12-29T12:47:35.000Z</time>
      </trkpt>
      <trkpt lat="43.02707" lon="-0.758">
        <ele>1176.2</ele>
        <time>2021-12-29T12:47:36.000Z</time>
      </trkpt>
      <trkpt lat="43.02709" lon="-0.75798">
        <ele>1175.4</ele>
        <time>2021-12-29T12:47:37.000Z</time>
      </trkpt>
      <trkpt lat="43.0271" lon="-0.75797">
        <ele>1174.6</ele>
        <time>2021-12-29T12:47:38.000Z</time>
      </trkpt>
      <trkpt lat="43.02712" lon="-0.75797">
        <ele>1174</ele>
        <time>2021-12-29T12:47:39.000Z</time>
      </trkpt>
      <trkpt lat="43.02715" lon="-0.75795">
        <ele>1173.8</ele>
        <time>2021-12-29T12:47:40.000Z</time>
      </trkpt>
      <trkpt lat="43.02716" lon="-0.75794">
        <ele>1173.2</ele>
        <time>2021-12-29T12:47:41.000Z</time>
      </trkpt>
      <trkpt lat="43.0272" lon="-0.75791">
        <ele>1172.6</ele>
        <time>2021-12-29T12:47:42.000Z</time>
      </trkpt>
      <trkpt lat="43.02722" lon="-0.75791">
        <ele>1171.8</ele>
        <time>2021-12-29T12:47:43.000Z</time>
      </trkpt>
      <trkpt lat="43.02723" lon="-0.7579">
        <ele>1171</ele>
        <time>2021-12-29T12:47:44.000Z</time>
      </trkpt>
      <trkpt lat="43.02724" lon="-0.75789">
        <ele>1170.2</ele>
        <time>2021-12-29T12:47:45.000Z</time>
      </trkpt>
      <trkpt lat="43.02726" lon="-0.75787">
        <ele>1169.4</ele>
        <time>2021-12-29T12:47:46.000Z</time>
      </trkpt>
      <trkpt lat="43.02727" lon="-0.75786">
        <ele>1168.6</ele>
        <time>2021-12-29T12:47:47.000Z</time>
      </trkpt>
      <trkpt lat="43.02728" lon="-0.75785">
        <ele>1167.6</ele>
        <time>2021-12-29T12:47:48.000Z</time>
      </trkpt>
      <trkpt lat="43.0273" lon="-0.75784">
        <ele>1166.6</ele>
        <time>2021-12-29T12:47:49.000Z</time>
      </trkpt>
      <trkpt lat="43.02733" lon="-0.75783">
        <ele>1165.6</ele>
        <time>2021-12-29T12:47:50.000Z</time>
      </trkpt>
      <trkpt lat="43.02734" lon="-0.75782">
        <ele>1165.2</ele>
        <time>2021-12-29T12:47:51.000Z</time>
      </trkpt>
      <trkpt lat="43.02736" lon="-0.75781">
        <ele>1164.6</ele>
        <time>2021-12-29T12:47:52.000Z</time>
      </trkpt>
      <trkpt lat="43.02737" lon="-0.75781">
        <ele>1164</ele>
        <time>2021-12-29T12:47:53.000Z</time>
      </trkpt>
      <trkpt lat="43.02738" lon="-0.75782">
        <ele>1163.2</ele>
        <time>2021-12-29T12:47:54.000Z</time>
      </trkpt>
      <trkpt lat="43.02739" lon="-0.75782">
        <ele>1162.4</ele>
        <time>2021-12-29T12:47:55.000Z</time>
      </trkpt>
      <trkpt lat="43.0274" lon="-0.75781">
        <ele>1161.8</ele>
        <time>2021-12-29T12:47:56.000Z</time>
      </trkpt>
      <trkpt lat="43.0274" lon="-0.75779">
        <ele>1160.8</ele>
        <time>2021-12-29T12:47:57.000Z</time>
      </trkpt>
      <trkpt lat="43.02741" lon="-0.75776">
        <ele>1159.8</ele>
        <time>2021-12-29T12:47:58.000Z</time>
      </trkpt>
      <trkpt lat="43.02743" lon="-0.75775">
        <ele>1158.6</ele>
        <time>2021-12-29T12:47:59.000Z</time>
      </trkpt>
      <trkpt lat="43.02745" lon="-0.75775">
        <ele>1157.4</ele>
        <time>2021-12-29T12:48:00.000Z</time>
      </trkpt>
      <trkpt lat="43.02746" lon="-0.75774">
        <ele>1156.2</ele>
        <time>2021-12-29T12:48:01.000Z</time>
      </trkpt>
      <trkpt lat="43.02747" lon="-0.75774">
        <ele>1154.8</ele>
        <time>2021-12-29T12:48:02.000Z</time>
      </trkpt>
      <trkpt lat="43.02749" lon="-0.75775">
        <ele>1153.8</ele>
        <time>2021-12-29T12:48:03.000Z</time>
      </trkpt>
      <trkpt lat="43.02749" lon="-0.75775">
        <ele>1152.8</ele>
        <time>2021-12-29T12:48:04.000Z</time>
      </trkpt>
      <trkpt lat="43.0275" lon="-0.75776">
        <ele>1152</ele>
        <time>2021-12-29T12:48:05.000Z</time>
      </trkpt>
      <trkpt lat="43.02752" lon="-0.75777">
        <ele>1151.2</ele>
        <time>2021-12-29T12:48:06.000Z</time>
      </trkpt>
      <trkpt lat="43.02754" lon="-0.75776">
        <ele>1150.2</ele>
        <time>2021-12-29T12:48:07.000Z</time>
      </trkpt>
      <trkpt lat="43.02756" lon="-0.75776">
        <ele>1148.8</ele>
        <time>2021-12-29T12:48:08.000Z</time>
      </trkpt>
      <trkpt lat="43.02757" lon="-0.75775">
        <ele>1147.8</ele>
        <time>2021-12-29T12:48:09.000Z</time>
      </trkpt>
      <trkpt lat="43.0276" lon="-0.75774">
        <ele>1146.6</ele>
        <time>2021-12-29T12:48:10.000Z</time>
      </trkpt>
      <trkpt lat="43.02762" lon="-0.75772">
        <ele>1145</ele>
        <time>2021-12-29T12:48:11.000Z</time>
      </trkpt>
      <trkpt lat="43.02765" lon="-0.75771">
        <ele>1144.2</ele>
        <time>2021-12-29T12:48:12.000Z</time>
      </trkpt>
      <trkpt lat="43.02768" lon="-0.75769">
        <ele>1143</ele>
        <time>2021-12-29T12:48:13.000Z</time>
      </trkpt>
      <trkpt lat="43.0277" lon="-0.75766">
        <ele>1141.6</ele>
        <time>2021-12-29T12:48:14.000Z</time>
      </trkpt>
      <trkpt lat="43.02769" lon="-0.75765">
        <ele>1140.6</ele>
        <time>2021-12-29T12:48:15.000Z</time>
      </trkpt>
      <trkpt lat="43.0277" lon="-0.75764">
        <ele>1140.2</ele>
        <time>2021-12-29T12:48:16.000Z</time>
      </trkpt>
      <trkpt lat="43.02769" lon="-0.75764">
        <ele>1140.2</ele>
        <time>2021-12-29T12:48:17.000Z</time>
      </trkpt>
      <trkpt lat="43.02769" lon="-0.75764">
        <ele>1140.2</ele>
        <time>2021-12-29T12:48:18.000Z</time>
      </trkpt>
      <trkpt lat="43.02769" lon="-0.75764">
        <ele>1140.2</ele>
        <time>2021-12-29T12:48:19.000Z</time>
      </trkpt>
      <trkpt lat="43.0277" lon="-0.75764">
        <ele>1140.2</ele>
        <time>2021-12-29T12:48:20.000Z</time>
      </trkpt>
      <trkpt lat="43.02771" lon="-0.75764">
        <ele>1140.2</ele>
        <time>2021-12-29T12:48:21.000Z</time>
      </trkpt>
      <trkpt lat="43.02771" lon="-0.75763">
        <ele>1140.2</ele>
        <time>2021-12-29T12:48:22.000Z</time>
      </trkpt>
      <trkpt lat="43.02771" lon="-0.75763">
        <ele>1140.2</ele>
        <time>2021-12-29T12:50:10.000Z</time>
      </trkpt>
      <trkpt lat="43.02797" lon="-0.75753">
        <ele>1129.2</ele>
        <time>2021-12-29T12:50:11.000Z</time>
      </trkpt>
      <trkpt lat="43.02799" lon="-0.75752">
        <ele>1128.4</ele>
        <time>2021-12-29T12:50:12.000Z</time>
      </trkpt>
      <trkpt lat="43.028" lon="-0.75752">
        <ele>1127.2</ele>
        <time>2021-12-29T12:50:13.000Z</time>
      </trkpt>
      <trkpt lat="43.02801" lon="-0.75751">
        <ele>1126</ele>
        <time>2021-12-29T12:50:14.000Z</time>
      </trkpt>
      <trkpt lat="43.02803" lon="-0.7575">
        <ele>1125</ele>
        <time>2021-12-29T12:50:15.000Z</time>
      </trkpt>
      <trkpt lat="43.02805" lon="-0.75749">
        <ele>1123.2</ele>
        <time>2021-12-29T12:50:16.000Z</time>
      </trkpt>
      <trkpt lat="43.02808" lon="-0.75747">
        <ele>1121.6</ele>
        <time>2021-12-29T12:50:17.000Z</time>
      </trkpt>
      <trkpt lat="43.02811" lon="-0.75747">
        <ele>1120.2</ele>
        <time>2021-12-29T12:50:18.000Z</time>
      </trkpt>
      <trkpt lat="43.02814" lon="-0.75745">
        <ele>1119</ele>
        <time>2021-12-29T12:50:19.000Z</time>
      </trkpt>
      <trkpt lat="43.02816" lon="-0.75744">
        <ele>1118</ele>
        <time>2021-12-29T12:50:20.000Z</time>
      </trkpt>
      <trkpt lat="43.02817" lon="-0.75741">
        <ele>1117</ele>
        <time>2021-12-29T12:50:21.000Z</time>
      </trkpt>
      <trkpt lat="43.02818" lon="-0.75738">
        <ele>1116.2</ele>
        <time>2021-12-29T12:50:22.000Z</time>
      </trkpt>
      <trkpt lat="43.02819" lon="-0.75736">
        <ele>1115.6</ele>
        <time>2021-12-29T12:50:23.000Z</time>
      </trkpt>
      <trkpt lat="43.0282" lon="-0.75733">
        <ele>1114.6</ele>
        <time>2021-12-29T12:50:24.000Z</time>
      </trkpt>
      <trkpt lat="43.02821" lon="-0.7573">
        <ele>1113.4</ele>
        <time>2021-12-29T12:50:25.000Z</time>
      </trkpt>
      <trkpt lat="43.02822" lon="-0.75729">
        <ele>1112.6</ele>
        <time>2021-12-29T12:50:26.000Z</time>
      </trkpt>
      <trkpt lat="43.02823" lon="-0.7573">
        <ele>1112</ele>
        <time>2021-12-29T12:50:27.000Z</time>
      </trkpt>
      <trkpt lat="43.02825" lon="-0.7573">
        <ele>1111.4</ele>
        <time>2021-12-29T12:50:28.000Z</time>
      </trkpt>
      <trkpt lat="43.02827" lon="-0.7573">
        <ele>1110.6</ele>
        <time>2021-12-29T12:50:29.000Z</time>
      </trkpt>
      <trkpt lat="43.02828" lon="-0.7573">
        <ele>1110</ele>
        <time>2021-12-29T12:50:30.000Z</time>
      </trkpt>
      <trkpt lat="43.0283" lon="-0.75729">
        <ele>1109.6</ele>
        <time>2021-12-29T12:50:31.000Z</time>
      </trkpt>
      <trkpt lat="43.02831" lon="-0.75728">
        <ele>1108.8</ele>
        <time>2021-12-29T12:50:32.000Z</time>
      </trkpt>
      <trkpt lat="43.02833" lon="-0.75727">
        <ele>1107.2</ele>
        <time>2021-12-29T12:50:33.000Z</time>
      </trkpt>
      <trkpt lat="43.02836" lon="-0.75725">
        <ele>1105.6</ele>
        <time>2021-12-29T12:50:34.000Z</time>
      </trkpt>
      <trkpt lat="43.02839" lon="-0.75723">
        <ele>1105</ele>
        <time>2021-12-29T12:50:35.000Z</time>
      </trkpt>
      <trkpt lat="43.02842" lon="-0.75722">
        <ele>1104.8</ele>
        <time>2021-12-29T12:50:36.000Z</time>
      </trkpt>
      <trkpt lat="43.02843" lon="-0.75721">
        <ele>1104.8</ele>
        <time>2021-12-29T12:50:37.000Z</time>
      </trkpt>
      <trkpt lat="43.02845" lon="-0.75721">
        <ele>1104.8</ele>
        <time>2021-12-29T12:50:38.000Z</time>
      </trkpt>
      <trkpt lat="43.02845" lon="-0.75721">
        <ele>1104.8</ele>
        <time>2021-12-29T12:50:39.000Z</time>
      </trkpt>
      <trkpt lat="43.02846" lon="-0.75721">
        <ele>1104.8</ele>
        <time>2021-12-29T12:50:40.000Z</time>
      </trkpt>
      <trkpt lat="43.02846" lon="-0.75721">
        <ele>1104.8</ele>
        <time>2021-12-29T12:50:41.000Z</time>
      </trkpt>
      <trkpt lat="43.02847" lon="-0.75721">
        <ele>1104.8</ele>
        <time>2021-12-29T12:50:42.000Z</time>
      </trkpt>
      <trkpt lat="43.02847" lon="-0.75721">
        <ele>1104.8</ele>
        <time>2021-12-29T12:50:43.000Z</time>
      </trkpt>
      <trkpt lat="43.02847" lon="-0.7572">
        <ele>1104.6</ele>
        <time>2021-12-29T12:50:51.000Z</time>
      </trkpt>
      <trkpt lat="43.02848" lon="-0.75693">
        <ele>1099</ele>
        <time>2021-12-29T12:50:52.000Z</time>
      </trkpt>
      <trkpt lat="43.0285" lon="-0.75691">
        <ele>1099</ele>
        <time>2021-12-29T12:50:53.000Z</time>
      </trkpt>
      <trkpt lat="43.02851" lon="-0.7569">
        <ele>1099</ele>
        <time>2021-12-29T12:50:54.000Z</time>
      </trkpt>
      <trkpt lat="43.02851" lon="-0.75689">
        <ele>1099</ele>
        <time>2021-12-29T12:50:55.000Z</time>
      </trkpt>
      <trkpt lat="43.02852" lon="-0.75689">
        <ele>1099</ele>
        <time>2021-12-29T12:50:56.000Z</time>
      </trkpt>
      <trkpt lat="43.02852" lon="-0.75689">
        <ele>1099</ele>
        <time>2021-12-29T12:50:57.000Z</time>
      </trkpt>
      <trkpt lat="43.02852" lon="-0.75689">
        <ele>1099</ele>
        <time>2021-12-29T12:50:58.000Z</time>
      </trkpt>
      <trkpt lat="43.02852" lon="-0.75688">
        <ele>1099</ele>
        <time>2021-12-29T12:50:59.000Z</time>
      </trkpt>
      <trkpt lat="43.02853" lon="-0.75688">
        <ele>1099</ele>
        <time>2021-12-29T12:51:00.000Z</time>
      </trkpt>
      <trkpt lat="43.02853" lon="-0.75688">
        <ele>1099</ele>
        <time>2021-12-29T12:52:04.000Z</time>
      </trkpt>
      <trkpt lat="43.02873" lon="-0.7568">
        <ele>1087.8</ele>
        <time>2021-12-29T12:52:05.000Z</time>
      </trkpt>
      <trkpt lat="43.02874" lon="-0.75678">
        <ele>1086.6</ele>
        <time>2021-12-29T12:52:06.000Z</time>
      </trkpt>
      <trkpt lat="43.02875" lon="-0.75677">
        <ele>1085.4</ele>
        <time>2021-12-29T12:52:07.000Z</time>
      </trkpt>
      <trkpt lat="43.02877" lon="-0.75675">
        <ele>1084.8</ele>
        <time>2021-12-29T12:52:08.000Z</time>
      </trkpt>
      <trkpt lat="43.02879" lon="-0.75674">
        <ele>1084.2</ele>
        <time>2021-12-29T12:52:09.000Z</time>
      </trkpt>
      <trkpt lat="43.02881" lon="-0.75673">
        <ele>1083</ele>
        <time>2021-12-29T12:52:10.000Z</time>
      </trkpt>
      <trkpt lat="43.02882" lon="-0.75673">
        <ele>1081.4</ele>
        <time>2021-12-29T12:52:11.000Z</time>
      </trkpt>
      <trkpt lat="43.02885" lon="-0.75672">
        <ele>1080.2</ele>
        <time>2021-12-29T12:52:12.000Z</time>
      </trkpt>
      <trkpt lat="43.02887" lon="-0.75669">
        <ele>1079.2</ele>
        <time>2021-12-29T12:52:13.000Z</time>
      </trkpt>
      <trkpt lat="43.0289" lon="-0.75667">
        <ele>1078.2</ele>
        <time>2021-12-29T12:52:14.000Z</time>
      </trkpt>
      <trkpt lat="43.02893" lon="-0.75666">
        <ele>1077</ele>
        <time>2021-12-29T12:52:15.000Z</time>
      </trkpt>
      <trkpt lat="43.02896" lon="-0.75664">
        <ele>1076</ele>
        <time>2021-12-29T12:52:16.000Z</time>
      </trkpt>
      <trkpt lat="43.02897" lon="-0.75662">
        <ele>1074.6</ele>
        <time>2021-12-29T12:52:17.000Z</time>
      </trkpt>
      <trkpt lat="43.02899" lon="-0.7566">
        <ele>1073.6</ele>
        <time>2021-12-29T12:52:18.000Z</time>
      </trkpt>
      <trkpt lat="43.029" lon="-0.75659">
        <ele>1073</ele>
        <time>2021-12-29T12:52:19.000Z</time>
      </trkpt>
      <trkpt lat="43.02902" lon="-0.75658">
        <ele>1072.4</ele>
        <time>2021-12-29T12:52:20.000Z</time>
      </trkpt>
      <trkpt lat="43.02904" lon="-0.75656">
        <ele>1071.8</ele>
        <time>2021-12-29T12:52:21.000Z</time>
      </trkpt>
      <trkpt lat="43.02907" lon="-0.75654">
        <ele>1070.6</ele>
        <time>2021-12-29T12:52:22.000Z</time>
      </trkpt>
      <trkpt lat="43.02909" lon="-0.75651">
        <ele>1069.4</ele>
        <time>2021-12-29T12:52:23.000Z</time>
      </trkpt>
      <trkpt lat="43.02911" lon="-0.75648">
        <ele>1068.2</ele>
        <time>2021-12-29T12:52:24.000Z</time>
      </trkpt>
      <trkpt lat="43.02913" lon="-0.75647">
        <ele>1066.8</ele>
        <time>2021-12-29T12:52:25.000Z</time>
      </trkpt>
      <trkpt lat="43.02916" lon="-0.75645">
        <ele>1065.8</ele>
        <time>2021-12-29T12:52:26.000Z</time>
      </trkpt>
      <trkpt lat="43.02918" lon="-0.75643">
        <ele>1065</ele>
        <time>2021-12-29T12:52:27.000Z</time>
      </trkpt>
      <trkpt lat="43.02922" lon="-0.75642">
        <ele>1063</ele>
        <time>2021-12-29T12:52:28.000Z</time>
      </trkpt>
      <trkpt lat="43.02926" lon="-0.7564">
        <ele>1061.6</ele>
        <time>2021-12-29T12:52:29.000Z</time>
      </trkpt>
      <trkpt lat="43.02928" lon="-0.75638">
        <ele>1059.8</ele>
        <time>2021-12-29T12:52:30.000Z</time>
      </trkpt>
      <trkpt lat="43.02931" lon="-0.75638">
        <ele>1057.8</ele>
        <time>2021-12-29T12:52:31.000Z</time>
      </trkpt>
      <trkpt lat="43.02937" lon="-0.75635">
        <ele>1057.8</ele>
        <time>2021-12-29T12:52:32.000Z</time>
      </trkpt>
      <trkpt lat="43.02941" lon="-0.75634">
        <ele>1057.8</ele>
        <time>2021-12-29T12:52:33.000Z</time>
      </trkpt>
      <trkpt lat="43.02946" lon="-0.75631">
        <ele>1057.8</ele>
        <time>2021-12-29T12:52:34.000Z</time>
      </trkpt>
      <trkpt lat="43.02949" lon="-0.75629">
        <ele>1057.8</ele>
        <time>2021-12-29T12:52:35.000Z</time>
      </trkpt>
      <trkpt lat="43.0295" lon="-0.75628">
        <ele>1057.8</ele>
        <time>2021-12-29T12:52:36.000Z</time>
      </trkpt>
      <trkpt lat="43.02953" lon="-0.75625">
        <ele>1049.6</ele>
        <time>2021-12-29T12:52:37.000Z</time>
      </trkpt>
      <trkpt lat="43.02954" lon="-0.75624">
        <ele>1049</ele>
        <time>2021-12-29T12:52:38.000Z</time>
      </trkpt>
      <trkpt lat="43.02958" lon="-0.75622">
        <ele>1048.2</ele>
        <time>2021-12-29T12:52:39.000Z</time>
      </trkpt>
      <trkpt lat="43.02959" lon="-0.75622">
        <ele>1048</ele>
        <time>2021-12-29T12:52:40.000Z</time>
      </trkpt>
      <trkpt lat="43.02962" lon="-0.7562">
        <ele>1047.6</ele>
        <time>2021-12-29T12:52:41.000Z</time>
      </trkpt>
      <trkpt lat="43.02963" lon="-0.75618">
        <ele>1048</ele>
        <time>2021-12-29T12:52:42.000Z</time>
      </trkpt>
      <trkpt lat="43.02964" lon="-0.75616">
        <ele>1048.2</ele>
        <time>2021-12-29T12:52:43.000Z</time>
      </trkpt>
      <trkpt lat="43.02965" lon="-0.75616">
        <ele>1047.6</ele>
        <time>2021-12-29T12:52:44.000Z</time>
      </trkpt>
      <trkpt lat="43.02967" lon="-0.75614">
        <ele>1047</ele>
        <time>2021-12-29T12:52:45.000Z</time>
      </trkpt>
      <trkpt lat="43.02969" lon="-0.75612">
        <ele>1046</ele>
        <time>2021-12-29T12:52:46.000Z</time>
      </trkpt>
      <trkpt lat="43.02971" lon="-0.75609">
        <ele>1045</ele>
        <time>2021-12-29T12:52:47.000Z</time>
      </trkpt>
      <trkpt lat="43.02973" lon="-0.75608">
        <ele>1043.6</ele>
        <time>2021-12-29T12:52:48.000Z</time>
      </trkpt>
      <trkpt lat="43.02977" lon="-0.75606">
        <ele>1042</ele>
        <time>2021-12-29T12:52:49.000Z</time>
      </trkpt>
      <trkpt lat="43.02983" lon="-0.75604">
        <ele>1040.8</ele>
        <time>2021-12-29T12:52:50.000Z</time>
      </trkpt>
      <trkpt lat="43.02988" lon="-0.75602">
        <ele>1039.8</ele>
        <time>2021-12-29T12:52:51.000Z</time>
      </trkpt>
      <trkpt lat="43.02991" lon="-0.756">
        <ele>1038.8</ele>
        <time>2021-12-29T12:52:52.000Z</time>
      </trkpt>
      <trkpt lat="43.02994" lon="-0.75598">
        <ele>1038</ele>
        <time>2021-12-29T12:52:53.000Z</time>
      </trkpt>
      <trkpt lat="43.02997" lon="-0.75597">
        <ele>1037.4</ele>
        <time>2021-12-29T12:52:54.000Z</time>
      </trkpt>
      <trkpt lat="43.03" lon="-0.75595">
        <ele>1036.6</ele>
        <time>2021-12-29T12:52:55.000Z</time>
      </trkpt>
      <trkpt lat="43.03003" lon="-0.75594">
        <ele>1036.2</ele>
        <time>2021-12-29T12:52:56.000Z</time>
      </trkpt>
      <trkpt lat="43.03004" lon="-0.75594">
        <ele>1035.8</ele>
        <time>2021-12-29T12:52:57.000Z</time>
      </trkpt>
      <trkpt lat="43.03005" lon="-0.75594">
        <ele>1035.4</ele>
        <time>2021-12-29T12:52:58.000Z</time>
      </trkpt>
      <trkpt lat="43.03005" lon="-0.75595">
        <ele>1034.6</ele>
        <time>2021-12-29T12:52:59.000Z</time>
      </trkpt>
      <trkpt lat="43.03005" lon="-0.75595">
        <ele>1034</ele>
        <time>2021-12-29T12:53:00.000Z</time>
      </trkpt>
      <trkpt lat="43.03005" lon="-0.75595">
        <ele>1033.2</ele>
        <time>2021-12-29T12:53:01.000Z</time>
      </trkpt>
      <trkpt lat="43.03006" lon="-0.75595">
        <ele>1032.6</ele>
        <time>2021-12-29T12:53:02.000Z</time>
      </trkpt>
      <trkpt lat="43.03009" lon="-0.75595">
        <ele>1032</ele>
        <time>2021-12-29T12:53:03.000Z</time>
      </trkpt>
      <trkpt lat="43.03011" lon="-0.75593">
        <ele>1031.4</ele>
        <time>2021-12-29T12:53:04.000Z</time>
      </trkpt>
      <trkpt lat="43.03014" lon="-0.75591">
        <ele>1030.8</ele>
        <time>2021-12-29T12:53:05.000Z</time>
      </trkpt>
      <trkpt lat="43.03016" lon="-0.7559">
        <ele>1030.2</ele>
        <time>2021-12-29T12:53:06.000Z</time>
      </trkpt>
      <trkpt lat="43.03017" lon="-0.7559">
        <ele>1030.2</ele>
        <time>2021-12-29T12:53:07.000Z</time>
      </trkpt>
      <trkpt lat="43.03017" lon="-0.7559">
        <ele>1030</ele>
        <time>2021-12-29T12:53:08.000Z</time>
      </trkpt>
      <trkpt lat="43.03017" lon="-0.7559">
        <ele>1030</ele>
        <time>2021-12-29T12:53:09.000Z</time>
      </trkpt>
      <trkpt lat="43.03018" lon="-0.7559">
        <ele>1030</ele>
        <time>2021-12-29T12:53:10.000Z</time>
      </trkpt>
      <trkpt lat="43.03018" lon="-0.7559">
        <ele>1030</ele>
        <time>2021-12-29T12:53:11.000Z</time>
      </trkpt>
      <trkpt lat="43.03018" lon="-0.7559">
        <ele>1030</ele>
        <time>2021-12-29T12:53:12.000Z</time>
      </trkpt>
      <trkpt lat="43.03019" lon="-0.75589">
        <ele>1030</ele>
        <time>2021-12-29T12:53:13.000Z</time>
      </trkpt>
      <trkpt lat="43.03019" lon="-0.75589">
        <ele>1030</ele>
        <time>2021-12-29T12:53:36.000Z</time>
      </trkpt>
      <trkpt lat="43.03045" lon="-0.75573">
        <ele>1025.2</ele>
        <time>2021-12-29T12:53:37.000Z</time>
      </trkpt>
      <trkpt lat="43.03046" lon="-0.75573">
        <ele>1025.2</ele>
        <time>2021-12-29T12:53:38.000Z</time>
      </trkpt>
      <trkpt lat="43.03046" lon="-0.75573">
        <ele>1025.2</ele>
        <time>2021-12-29T12:53:39.000Z</time>
      </trkpt>
      <trkpt lat="43.03047" lon="-0.75573">
        <ele>1025.2</ele>
        <time>2021-12-29T12:53:40.000Z</time>
      </trkpt>
      <trkpt lat="43.03047" lon="-0.75574">
        <ele>1025.2</ele>
        <time>2021-12-29T12:53:41.000Z</time>
      </trkpt>
      <trkpt lat="43.03047" lon="-0.75574">
        <ele>1025</ele>
        <time>2021-12-29T12:53:42.000Z</time>
      </trkpt>
      <trkpt lat="43.03047" lon="-0.75575">
        <ele>1025</ele>
        <time>2021-12-29T12:53:43.000Z</time>
      </trkpt>
      <trkpt lat="43.03047" lon="-0.75575">
        <ele>1024.8</ele>
        <time>2021-12-29T12:54:03.000Z</time>
      </trkpt>
      <trkpt lat="43.03083" lon="-0.75565">
        <ele>1018</ele>
        <time>2021-12-29T12:54:04.000Z</time>
      </trkpt>
      <trkpt lat="43.03088" lon="-0.75563">
        <ele>1017.2</ele>
        <time>2021-12-29T12:54:05.000Z</time>
      </trkpt>
      <trkpt lat="43.03091" lon="-0.75563">
        <ele>1016.6</ele>
        <time>2021-12-29T12:54:06.000Z</time>
      </trkpt>
      <trkpt lat="43.03094" lon="-0.75561">
        <ele>1015.6</ele>
        <time>2021-12-29T12:54:07.000Z</time>
      </trkpt>
      <trkpt lat="43.03096" lon="-0.75561">
        <ele>1015.4</ele>
        <time>2021-12-29T12:54:08.000Z</time>
      </trkpt>
      <trkpt lat="43.03098" lon="-0.7556">
        <ele>1013.6</ele>
        <time>2021-12-29T12:54:09.000Z</time>
      </trkpt>
      <trkpt lat="43.031" lon="-0.7556">
        <ele>1013</ele>
        <time>2021-12-29T12:54:10.000Z</time>
      </trkpt>
      <trkpt lat="43.03102" lon="-0.75561">
        <ele>1012.2</ele>
        <time>2021-12-29T12:54:11.000Z</time>
      </trkpt>
      <trkpt lat="43.03105" lon="-0.75562">
        <ele>1011</ele>
        <time>2021-12-29T12:54:12.000Z</time>
      </trkpt>
      <trkpt lat="43.03109" lon="-0.75562">
        <ele>1010.2</ele>
        <time>2021-12-29T12:54:13.000Z</time>
      </trkpt>
      <trkpt lat="43.03112" lon="-0.75562">
        <ele>1009.4</ele>
        <time>2021-12-29T12:54:14.000Z</time>
      </trkpt>
      <trkpt lat="43.03112" lon="-0.75563">
        <ele>1008.6</ele>
        <time>2021-12-29T12:54:15.000Z</time>
      </trkpt>
      <trkpt lat="43.03113" lon="-0.75564">
        <ele>1007.4</ele>
        <time>2021-12-29T12:54:16.000Z</time>
      </trkpt>
      <trkpt lat="43.03114" lon="-0.75564">
        <ele>1006.2</ele>
        <time>2021-12-29T12:54:17.000Z</time>
      </trkpt>
      <trkpt lat="43.03114" lon="-0.75564">
        <ele>1005</ele>
        <time>2021-12-29T12:54:18.000Z</time>
      </trkpt>
      <trkpt lat="43.03116" lon="-0.75563">
        <ele>1004.2</ele>
        <time>2021-12-29T12:54:19.000Z</time>
      </trkpt>
      <trkpt lat="43.03117" lon="-0.75564">
        <ele>1003.2</ele>
        <time>2021-12-29T12:54:20.000Z</time>
      </trkpt>
      <trkpt lat="43.03118" lon="-0.75565">
        <ele>1001.8</ele>
        <time>2021-12-29T12:54:21.000Z</time>
      </trkpt>
      <trkpt lat="43.03116" lon="-0.75567">
        <ele>1000.6</ele>
        <time>2021-12-29T12:54:22.000Z</time>
      </trkpt>
      <trkpt lat="43.0312" lon="-0.75568">
        <ele>999.8</ele>
        <time>2021-12-29T12:54:23.000Z</time>
      </trkpt>
      <trkpt lat="43.03124" lon="-0.75568">
        <ele>999</ele>
        <time>2021-12-29T12:54:31.000Z</time>
      </trkpt>
      <trkpt lat="43.0315" lon="-0.75575">
        <ele>985.8</ele>
        <time>2021-12-29T12:54:32.000Z</time>
      </trkpt>
      <trkpt lat="43.03154" lon="-0.75577">
        <ele>984.6</ele>
        <time>2021-12-29T12:54:33.000Z</time>
      </trkpt>
      <trkpt lat="43.03159" lon="-0.75579">
        <ele>982.6</ele>
        <time>2021-12-29T12:54:34.000Z</time>
      </trkpt>
      <trkpt lat="43.03164" lon="-0.75581">
        <ele>981.6</ele>
        <time>2021-12-29T12:54:35.000Z</time>
      </trkpt>
      <trkpt lat="43.03166" lon="-0.75583">
        <ele>980.6</ele>
        <time>2021-12-29T12:54:36.000Z</time>
      </trkpt>
      <trkpt lat="43.03167" lon="-0.75583">
        <ele>980</ele>
        <time>2021-12-29T12:54:37.000Z</time>
      </trkpt>
      <trkpt lat="43.03168" lon="-0.75584">
        <ele>979.6</ele>
        <time>2021-12-29T12:54:38.000Z</time>
      </trkpt>
      <trkpt lat="43.03167" lon="-0.75583">
        <ele>979.4</ele>
        <time>2021-12-29T12:54:39.000Z</time>
      </trkpt>
      <trkpt lat="43.03168" lon="-0.75583">
        <ele>979.4</ele>
        <time>2021-12-29T12:54:40.000Z</time>
      </trkpt>
      <trkpt lat="43.0317" lon="-0.75584">
        <ele>979.4</ele>
        <time>2021-12-29T12:54:41.000Z</time>
      </trkpt>
      <trkpt lat="43.03178" lon="-0.75586">
        <ele>979.4</ele>
        <time>2021-12-29T12:54:42.000Z</time>
      </trkpt>
      <trkpt lat="43.03184" lon="-0.75587">
        <ele>979.4</ele>
        <time>2021-12-29T12:54:43.000Z</time>
      </trkpt>
      <trkpt lat="43.0319" lon="-0.75588">
        <ele>979.4</ele>
        <time>2021-12-29T12:54:44.000Z</time>
      </trkpt>
      <trkpt lat="43.03194" lon="-0.75589">
        <ele>979.4</ele>
        <time>2021-12-29T12:54:45.000Z</time>
      </trkpt>
      <trkpt lat="43.03197" lon="-0.7559">
        <ele>979.4</ele>
        <time>2021-12-29T12:54:46.000Z</time>
      </trkpt>
      <trkpt lat="43.03199" lon="-0.7559">
        <ele>979.4</ele>
        <time>2021-12-29T12:54:47.000Z</time>
      </trkpt>
      <trkpt lat="43.03202" lon="-0.7559">
        <ele>979.4</ele>
        <time>2021-12-29T12:54:48.000Z</time>
      </trkpt>
      <trkpt lat="43.03204" lon="-0.7559">
        <ele>979.4</ele>
        <time>2021-12-29T12:55:40.000Z</time>
      </trkpt>
      <trkpt lat="43.03234" lon="-0.75587">
        <ele>977</ele>
        <time>2021-12-29T12:55:41.000Z</time>
      </trkpt>
      <trkpt lat="43.03235" lon="-0.75587">
        <ele>976.6</ele>
        <time>2021-12-29T12:55:42.000Z</time>
      </trkpt>
      <trkpt lat="43.03237" lon="-0.75587">
        <ele>975.8</ele>
        <time>2021-12-29T12:55:43.000Z</time>
      </trkpt>
      <trkpt lat="43.03239" lon="-0.75586">
        <ele>974.6</ele>
        <time>2021-12-29T12:55:44.000Z</time>
      </trkpt>
      <trkpt lat="43.03242" lon="-0.75586">
        <ele>973.2</ele>
        <time>2021-12-29T12:55:45.000Z</time>
      </trkpt>
      <trkpt lat="43.03246" lon="-0.75587">
        <ele>971.8</ele>
        <time>2021-12-29T12:55:46.000Z</time>
      </trkpt>
      <trkpt lat="43.0325" lon="-0.75587">
        <ele>971.2</ele>
        <time>2021-12-29T12:55:47.000Z</time>
      </trkpt>
      <trkpt lat="43.03253" lon="-0.75587">
        <ele>971.2</ele>
        <time>2021-12-29T12:55:48.000Z</time>
      </trkpt>
      <trkpt lat="43.03257" lon="-0.75587">
        <ele>970.8</ele>
        <time>2021-12-29T12:55:49.000Z</time>
      </trkpt>
      <trkpt lat="43.0326" lon="-0.75588">
        <ele>970.4</ele>
        <time>2021-12-29T12:55:50.000Z</time>
      </trkpt>
      <trkpt lat="43.03263" lon="-0.75589">
        <ele>970.2</ele>
        <time>2021-12-29T12:55:51.000Z</time>
      </trkpt>
      <trkpt lat="43.03264" lon="-0.7559">
        <ele>969.8</ele>
        <time>2021-12-29T12:55:52.000Z</time>
      </trkpt>
      <trkpt lat="43.03266" lon="-0.75591">
        <ele>969.2</ele>
        <time>2021-12-29T12:55:53.000Z</time>
      </trkpt>
      <trkpt lat="43.03269" lon="-0.75592">
        <ele>968.6</ele>
        <time>2021-12-29T12:55:54.000Z</time>
      </trkpt>
      <trkpt lat="43.03272" lon="-0.75592">
        <ele>968.4</ele>
        <time>2021-12-29T12:55:55.000Z</time>
      </trkpt>
      <trkpt lat="43.03277" lon="-0.75592">
        <ele>968.2</ele>
        <time>2021-12-29T12:55:56.000Z</time>
      </trkpt>
      <trkpt lat="43.0328" lon="-0.75593">
        <ele>968</ele>
        <time>2021-12-29T12:55:57.000Z</time>
      </trkpt>
      <trkpt lat="43.03283" lon="-0.75595">
        <ele>967.6</ele>
        <time>2021-12-29T12:55:58.000Z</time>
      </trkpt>
      <trkpt lat="43.03286" lon="-0.75597">
        <ele>967.4</ele>
        <time>2021-12-29T12:55:59.000Z</time>
      </trkpt>
      <trkpt lat="43.03289" lon="-0.756">
        <ele>967.6</ele>
        <time>2021-12-29T12:56:00.000Z</time>
      </trkpt>
      <trkpt lat="43.03291" lon="-0.75601">
        <ele>967.8</ele>
        <time>2021-12-29T12:56:01.000Z</time>
      </trkpt>
      <trkpt lat="43.03294" lon="-0.75602">
        <ele>968</ele>
        <time>2021-12-29T12:56:02.000Z</time>
      </trkpt>
      <trkpt lat="43.03296" lon="-0.75603">
        <ele>968</ele>
        <time>2021-12-29T12:56:03.000Z</time>
      </trkpt>
      <trkpt lat="43.03299" lon="-0.75604">
        <ele>967.8</ele>
        <time>2021-12-29T12:56:04.000Z</time>
      </trkpt>
      <trkpt lat="43.03306" lon="-0.75604">
        <ele>967.8</ele>
        <time>2021-12-29T12:56:05.000Z</time>
      </trkpt>
      <trkpt lat="43.0331" lon="-0.75605">
        <ele>967.6</ele>
        <time>2021-12-29T12:56:06.000Z</time>
      </trkpt>
      <trkpt lat="43.03314" lon="-0.75606">
        <ele>967.4</ele>
        <time>2021-12-29T12:56:07.000Z</time>
      </trkpt>
      <trkpt lat="43.03316" lon="-0.75607">
        <ele>967.2</ele>
        <time>2021-12-29T12:56:08.000Z</time>
      </trkpt>
      <trkpt lat="43.03321" lon="-0.75608">
        <ele>966.8</ele>
        <time>2021-12-29T12:56:09.000Z</time>
      </trkpt>
      <trkpt lat="43.03324" lon="-0.75609">
        <ele>966.6</ele>
        <time>2021-12-29T12:56:10.000Z</time>
      </trkpt>
      <trkpt lat="43.03326" lon="-0.7561">
        <ele>966.2</ele>
        <time>2021-12-29T12:56:11.000Z</time>
      </trkpt>
      <trkpt lat="43.03329" lon="-0.75612">
        <ele>965.8</ele>
        <time>2021-12-29T12:56:12.000Z</time>
      </trkpt>
      <trkpt lat="43.03334" lon="-0.75612">
        <ele>965.4</ele>
        <time>2021-12-29T12:56:13.000Z</time>
      </trkpt>
      <trkpt lat="43.03337" lon="-0.75612">
        <ele>965.4</ele>
        <time>2021-12-29T12:56:14.000Z</time>
      </trkpt>
      <trkpt lat="43.03341" lon="-0.75614">
        <ele>965.8</ele>
        <time>2021-12-29T12:56:15.000Z</time>
      </trkpt>
      <trkpt lat="43.03345" lon="-0.75615">
        <ele>966</ele>
        <time>2021-12-29T12:56:16.000Z</time>
      </trkpt>
      <trkpt lat="43.03348" lon="-0.75616">
        <ele>965.8</ele>
        <time>2021-12-29T12:56:17.000Z</time>
      </trkpt>
      <trkpt lat="43.03351" lon="-0.75617">
        <ele>965.4</ele>
        <time>2021-12-29T12:56:18.000Z</time>
      </trkpt>
      <trkpt lat="43.03354" lon="-0.75618">
        <ele>965.6</ele>
        <time>2021-12-29T12:56:19.000Z</time>
      </trkpt>
      <trkpt lat="43.03356" lon="-0.75618">
        <ele>965.2</ele>
        <time>2021-12-29T12:56:20.000Z</time>
      </trkpt>
      <trkpt lat="43.03359" lon="-0.75619">
        <ele>964.2</ele>
        <time>2021-12-29T12:56:21.000Z</time>
      </trkpt>
      <trkpt lat="43.0336" lon="-0.75621">
        <ele>963.4</ele>
        <time>2021-12-29T12:56:22.000Z</time>
      </trkpt>
      <trkpt lat="43.03363" lon="-0.75621">
        <ele>962.6</ele>
        <time>2021-12-29T12:56:23.000Z</time>
      </trkpt>
      <trkpt lat="43.03366" lon="-0.75621">
        <ele>961.6</ele>
        <time>2021-12-29T12:56:24.000Z</time>
      </trkpt>
      <trkpt lat="43.0337" lon="-0.75621">
        <ele>960.4</ele>
        <time>2021-12-29T12:56:25.000Z</time>
      </trkpt>
      <trkpt lat="43.03376" lon="-0.7562">
        <ele>959.4</ele>
        <time>2021-12-29T12:56:26.000Z</time>
      </trkpt>
      <trkpt lat="43.03379" lon="-0.75619">
        <ele>958.2</ele>
        <time>2021-12-29T12:56:27.000Z</time>
      </trkpt>
      <trkpt lat="43.03382" lon="-0.75619">
        <ele>957.6</ele>
        <time>2021-12-29T12:56:28.000Z</time>
      </trkpt>
      <trkpt lat="43.03387" lon="-0.75617">
        <ele>957.2</ele>
        <time>2021-12-29T12:56:29.000Z</time>
      </trkpt>
      <trkpt lat="43.03393" lon="-0.75616">
        <ele>956.8</ele>
        <time>2021-12-29T12:56:30.000Z</time>
      </trkpt>
      <trkpt lat="43.03397" lon="-0.75616">
        <ele>956</ele>
        <time>2021-12-29T12:56:31.000Z</time>
      </trkpt>
      <trkpt lat="43.03402" lon="-0.75614">
        <ele>954.8</ele>
        <time>2021-12-29T12:56:32.000Z</time>
      </trkpt>
      <trkpt lat="43.03407" lon="-0.75612">
        <ele>954</ele>
        <time>2021-12-29T12:56:33.000Z</time>
      </trkpt>
      <trkpt lat="43.03411" lon="-0.75609">
        <ele>953.6</ele>
        <time>2021-12-29T12:56:34.000Z</time>
      </trkpt>
      <trkpt lat="43.03413" lon="-0.75608">
        <ele>953</ele>
        <time>2021-12-29T12:56:35.000Z</time>
      </trkpt>
      <trkpt lat="43.03413" lon="-0.75608">
        <ele>953</ele>
        <time>2021-12-29T12:56:36.000Z</time>
      </trkpt>
      <trkpt lat="43.03413" lon="-0.75608">
        <ele>952.8</ele>
        <time>2021-12-29T12:56:37.000Z</time>
      </trkpt>
      <trkpt lat="43.03415" lon="-0.75608">
        <ele>952.8</ele>
        <time>2021-12-29T12:56:38.000Z</time>
      </trkpt>
      <trkpt lat="43.03415" lon="-0.75608">
        <ele>952.8</ele>
        <time>2021-12-29T12:56:39.000Z</time>
      </trkpt>
      <trkpt lat="43.03417" lon="-0.75608">
        <ele>952.8</ele>
        <time>2021-12-29T12:56:40.000Z</time>
      </trkpt>
      <trkpt lat="43.03418" lon="-0.75608">
        <ele>952.8</ele>
        <time>2021-12-29T12:56:41.000Z</time>
      </trkpt>
      <trkpt lat="43.03419" lon="-0.75609">
        <ele>952.8</ele>
        <time>2021-12-29T12:56:42.000Z</time>
      </trkpt>
      <trkpt lat="43.03421" lon="-0.75609">
        <ele>952.8</ele>
        <time>2021-12-29T12:56:43.000Z</time>
      </trkpt>
      <trkpt lat="43.03421" lon="-0.75609">
        <ele>952.8</ele>
        <time>2021-12-29T12:56:44.000Z</time>
      </trkpt>
      <trkpt lat="43.03422" lon="-0.75609">
        <ele>952.8</ele>
        <time>2021-12-29T12:58:36.000Z</time>
      </trkpt>
      <trkpt lat="43.03423" lon="-0.7565">
        <ele>944.8</ele>
        <time>2021-12-29T12:58:37.000Z</time>
      </trkpt>
      <trkpt lat="43.03423" lon="-0.75652">
        <ele>943.2</ele>
        <time>2021-12-29T12:58:38.000Z</time>
      </trkpt>
      <trkpt lat="43.03424" lon="-0.75654">
        <ele>942.4</ele>
        <time>2021-12-29T12:58:39.000Z</time>
      </trkpt>
      <trkpt lat="43.03424" lon="-0.75657">
        <ele>940.8</ele>
        <time>2021-12-29T12:58:40.000Z</time>
      </trkpt>
      <trkpt lat="43.03424" lon="-0.75659">
        <ele>939.2</ele>
        <time>2021-12-29T12:58:41.000Z</time>
      </trkpt>
      <trkpt lat="43.03424" lon="-0.75661">
        <ele>937.4</ele>
        <time>2021-12-29T12:58:42.000Z</time>
      </trkpt>
      <trkpt lat="43.03423" lon="-0.75662">
        <ele>936.4</ele>
        <time>2021-12-29T12:58:43.000Z</time>
      </trkpt>
      <trkpt lat="43.03423" lon="-0.75665">
        <ele>935.2</ele>
        <time>2021-12-29T12:58:44.000Z</time>
      </trkpt>
      <trkpt lat="43.03419" lon="-0.75668">
        <ele>934.4</ele>
        <time>2021-12-29T12:58:45.000Z</time>
      </trkpt>
      <trkpt lat="43.03416" lon="-0.75669">
        <ele>933.4</ele>
        <time>2021-12-29T12:58:46.000Z</time>
      </trkpt>
      <trkpt lat="43.03416" lon="-0.75671">
        <ele>931.8</ele>
        <time>2021-12-29T12:58:47.000Z</time>
      </trkpt>
      <trkpt lat="43.03415" lon="-0.75673">
        <ele>930.6</ele>
        <time>2021-12-29T12:58:48.000Z</time>
      </trkpt>
      <trkpt lat="43.03415" lon="-0.75676">
        <ele>928.8</ele>
        <time>2021-12-29T12:58:49.000Z</time>
      </trkpt>
      <trkpt lat="43.03415" lon="-0.75679">
        <ele>927.2</ele>
        <time>2021-12-29T12:58:50.000Z</time>
      </trkpt>
      <trkpt lat="43.0341" lon="-0.75684">
        <ele>927.2</ele>
        <time>2021-12-29T12:58:51.000Z</time>
      </trkpt>
      <trkpt lat="43.03409" lon="-0.75689">
        <ele>927.2</ele>
        <time>2021-12-29T12:58:52.000Z</time>
      </trkpt>
      <trkpt lat="43.03404" lon="-0.75693">
        <ele>927.2</ele>
        <time>2021-12-29T12:58:53.000Z</time>
      </trkpt>
      <trkpt lat="43.03409" lon="-0.75697">
        <ele>927.2</ele>
        <time>2021-12-29T12:58:54.000Z</time>
      </trkpt>
      <trkpt lat="43.03402" lon="-0.757">
        <ele>927.2</ele>
        <time>2021-12-29T12:58:55.000Z</time>
      </trkpt>
      <trkpt lat="43.034" lon="-0.75703">
        <ele>916.4</ele>
        <time>2021-12-29T12:58:56.000Z</time>
      </trkpt>
      <trkpt lat="43.03401" lon="-0.75707">
        <ele>915.2</ele>
        <time>2021-12-29T12:58:57.000Z</time>
      </trkpt>
      <trkpt lat="43.03404" lon="-0.75712">
        <ele>914.4</ele>
        <time>2021-12-29T12:58:58.000Z</time>
      </trkpt>
      <trkpt lat="43.03404" lon="-0.75716">
        <ele>914</ele>
        <time>2021-12-29T12:58:59.000Z</time>
      </trkpt>
      <trkpt lat="43.03399" lon="-0.75718">
        <ele>912.4</ele>
        <time>2021-12-29T12:59:00.000Z</time>
      </trkpt>
      <trkpt lat="43.03398" lon="-0.75723">
        <ele>911</ele>
        <time>2021-12-29T12:59:01.000Z</time>
      </trkpt>
      <trkpt lat="43.03406" lon="-0.75729">
        <ele>910</ele>
        <time>2021-12-29T12:59:02.000Z</time>
      </trkpt>
      <trkpt lat="43.03403" lon="-0.75734">
        <ele>909.2</ele>
        <time>2021-12-29T12:59:03.000Z</time>
      </trkpt>
      <trkpt lat="43.03394" lon="-0.75737">
        <ele>908.8</ele>
        <time>2021-12-29T12:59:04.000Z</time>
      </trkpt>
      <trkpt lat="43.03395" lon="-0.75741">
        <ele>907.6</ele>
        <time>2021-12-29T12:59:05.000Z</time>
      </trkpt>
      <trkpt lat="43.03404" lon="-0.75746">
        <ele>906.4</ele>
        <time>2021-12-29T12:59:06.000Z</time>
      </trkpt>
      <trkpt lat="43.03402" lon="-0.75748">
        <ele>905.4</ele>
        <time>2021-12-29T12:59:07.000Z</time>
      </trkpt>
      <trkpt lat="43.03398" lon="-0.75752">
        <ele>904</ele>
        <time>2021-12-29T12:59:08.000Z</time>
      </trkpt>
      <trkpt lat="43.03393" lon="-0.75755">
        <ele>902.6</ele>
        <time>2021-12-29T12:59:09.000Z</time>
      </trkpt>
      <trkpt lat="43.03395" lon="-0.75758">
        <ele>901.4</ele>
        <time>2021-12-29T12:59:10.000Z</time>
      </trkpt>
      <trkpt lat="43.03396" lon="-0.7576">
        <ele>900.2</ele>
        <time>2021-12-29T12:59:11.000Z</time>
      </trkpt>
      <trkpt lat="43.03396" lon="-0.75761">
        <ele>899.2</ele>
        <time>2021-12-29T12:59:12.000Z</time>
      </trkpt>
      <trkpt lat="43.03399" lon="-0.75764">
        <ele>898.4</ele>
        <time>2021-12-29T12:59:13.000Z</time>
      </trkpt>
      <trkpt lat="43.03399" lon="-0.75766">
        <ele>897.8</ele>
        <time>2021-12-29T12:59:14.000Z</time>
      </trkpt>
      <trkpt lat="43.03406" lon="-0.75769">
        <ele>897.6</ele>
        <time>2021-12-29T12:59:15.000Z</time>
      </trkpt>
      <trkpt lat="43.03405" lon="-0.7577">
        <ele>897.2</ele>
        <time>2021-12-29T12:59:16.000Z</time>
      </trkpt>
      <trkpt lat="43.03404" lon="-0.75771">
        <ele>897</ele>
        <time>2021-12-29T12:59:17.000Z</time>
      </trkpt>
      <trkpt lat="43.03403" lon="-0.75772">
        <ele>897</ele>
        <time>2021-12-29T12:59:18.000Z</time>
      </trkpt>
      <trkpt lat="43.03403" lon="-0.75772">
        <ele>897</ele>
        <time>2021-12-29T12:59:19.000Z</time>
      </trkpt>
      <trkpt lat="43.03402" lon="-0.75773">
        <ele>897</ele>
        <time>2021-12-29T12:59:20.000Z</time>
      </trkpt>
      <trkpt lat="43.03403" lon="-0.75774">
        <ele>897</ele>
        <time>2021-12-29T12:59:21.000Z</time>
      </trkpt>
      <trkpt lat="43.03403" lon="-0.75774">
        <ele>897</ele>
        <time>2021-12-29T12:59:22.000Z</time>
      </trkpt>
      <trkpt lat="43.03402" lon="-0.75775">
        <ele>896.8</ele>
        <time>2021-12-29T12:59:23.000Z</time>
      </trkpt>
      <trkpt lat="43.03402" lon="-0.75776">
        <ele>896.8</ele>
        <time>2021-12-29T12:59:24.000Z</time>
      </trkpt>
      <trkpt lat="43.03404" lon="-0.75777">
        <ele>896.8</ele>
        <time>2021-12-29T12:59:25.000Z</time>
      </trkpt>
      <trkpt lat="43.03405" lon="-0.75778">
        <ele>896.8</ele>
        <time>2021-12-29T12:59:53.000Z</time>
      </trkpt>
      <trkpt lat="43.03413" lon="-0.75804">
        <ele>888.8</ele>
        <time>2021-12-29T12:59:54.000Z</time>
      </trkpt>
      <trkpt lat="43.03412" lon="-0.75804">
        <ele>888.6</ele>
        <time>2021-12-29T12:59:55.000Z</time>
      </trkpt>
      <trkpt lat="43.0341" lon="-0.75804">
        <ele>888.2</ele>
        <time>2021-12-29T12:59:56.000Z</time>
      </trkpt>
      <trkpt lat="43.03406" lon="-0.75808">
        <ele>887.4</ele>
        <time>2021-12-29T12:59:57.000Z</time>
      </trkpt>
      <trkpt lat="43.03403" lon="-0.75809">
        <ele>886.4</ele>
        <time>2021-12-29T12:59:58.000Z</time>
      </trkpt>
      <trkpt lat="43.03402" lon="-0.7581">
        <ele>885.4</ele>
        <time>2021-12-29T13:02:16.000Z</time>
      </trkpt>
      <trkpt lat="43.03366" lon="-0.75781">
        <ele>889.6</ele>
        <time>2021-12-29T13:02:17.000Z</time>
      </trkpt>
      <trkpt lat="43.03365" lon="-0.75781">
        <ele>889.8</ele>
        <time>2021-12-29T13:02:18.000Z</time>
      </trkpt>
      <trkpt lat="43.03364" lon="-0.75782">
        <ele>890</ele>
        <time>2021-12-29T13:02:19.000Z</time>
      </trkpt>
      <trkpt lat="43.03364" lon="-0.75782">
        <ele>890.2</ele>
        <time>2021-12-29T13:02:20.000Z</time>
      </trkpt>
      <trkpt lat="43.03364" lon="-0.75782">
        <ele>890.4</ele>
        <time>2021-12-29T13:02:21.000Z</time>
      </trkpt>
      <trkpt lat="43.03363" lon="-0.75782">
        <ele>890.6</ele>
        <time>2021-12-29T13:02:22.000Z</time>
      </trkpt>
      <trkpt lat="43.03363" lon="-0.75781">
        <ele>891</ele>
        <time>2021-12-29T13:02:23.000Z</time>
      </trkpt>
      <trkpt lat="43.03362" lon="-0.75781">
        <ele>891</ele>
        <time>2021-12-29T13:02:58.000Z</time>
      </trkpt>
      <trkpt lat="43.03342" lon="-0.75752">
        <ele>898.4</ele>
        <time>2021-12-29T13:02:59.000Z</time>
      </trkpt>
      <trkpt lat="43.03341" lon="-0.75752">
        <ele>898.4</ele>
        <time>2021-12-29T13:03:00.000Z</time>
      </trkpt>
      <trkpt lat="43.03341" lon="-0.75751">
        <ele>898.6</ele>
        <time>2021-12-29T13:03:01.000Z</time>
      </trkpt>
      <trkpt lat="43.0334" lon="-0.75751">
        <ele>898.8</ele>
        <time>2021-12-29T13:03:02.000Z</time>
      </trkpt>
      <trkpt lat="43.03339" lon="-0.7575">
        <ele>898.8</ele>
        <time>2021-12-29T13:03:03.000Z</time>
      </trkpt>
      <trkpt lat="43.03338" lon="-0.75749">
        <ele>899</ele>
        <time>2021-12-29T13:03:04.000Z</time>
      </trkpt>
      <trkpt lat="43.03337" lon="-0.75749">
        <ele>899.2</ele>
        <time>2021-12-29T13:03:05.000Z</time>
      </trkpt>
      <trkpt lat="43.03336" lon="-0.75749">
        <ele>899.2</ele>
        <time>2021-12-29T13:03:06.000Z</time>
      </trkpt>
      <trkpt lat="43.03335" lon="-0.75749">
        <ele>899.4</ele>
        <time>2021-12-29T13:03:07.000Z</time>
      </trkpt>
      <trkpt lat="43.03334" lon="-0.75748">
        <ele>899.6</ele>
        <time>2021-12-29T13:03:08.000Z</time>
      </trkpt>
      <trkpt lat="43.03334" lon="-0.75747">
        <ele>899.8</ele>
        <time>2021-12-29T13:03:09.000Z</time>
      </trkpt>
      <trkpt lat="43.03333" lon="-0.75746">
        <ele>900</ele>
        <time>2021-12-29T13:03:10.000Z</time>
      </trkpt>
      <trkpt lat="43.03332" lon="-0.75746">
        <ele>900.2</ele>
        <time>2021-12-29T13:03:11.000Z</time>
      </trkpt>
      <trkpt lat="43.03332" lon="-0.75744">
        <ele>900.4</ele>
        <time>2021-12-29T13:03:12.000Z</time>
      </trkpt>
      <trkpt lat="43.03332" lon="-0.75743">
        <ele>900.6</ele>
        <time>2021-12-29T13:03:13.000Z</time>
      </trkpt>
      <trkpt lat="43.03332" lon="-0.75742">
        <ele>900.8</ele>
        <time>2021-12-29T13:03:14.000Z</time>
      </trkpt>
      <trkpt lat="43.03332" lon="-0.75741">
        <ele>901</ele>
        <time>2021-12-29T13:03:15.000Z</time>
      </trkpt>
      <trkpt lat="43.03331" lon="-0.7574">
        <ele>901</ele>
        <time>2021-12-29T13:03:16.000Z</time>
      </trkpt>
      <trkpt lat="43.0333" lon="-0.75739">
        <ele>901.4</ele>
        <time>2021-12-29T13:03:17.000Z</time>
      </trkpt>
      <trkpt lat="43.0333" lon="-0.75738">
        <ele>901.4</ele>
        <time>2021-12-29T13:03:18.000Z</time>
      </trkpt>
      <trkpt lat="43.0333" lon="-0.75736">
        <ele>901.6</ele>
        <time>2021-12-29T13:03:19.000Z</time>
      </trkpt>
      <trkpt lat="43.0333" lon="-0.75735">
        <ele>901.6</ele>
        <time>2021-12-29T13:03:20.000Z</time>
      </trkpt>
      <trkpt lat="43.03329" lon="-0.75735">
        <ele>901.8</ele>
        <time>2021-12-29T13:03:21.000Z</time>
      </trkpt>
      <trkpt lat="43.03327" lon="-0.75734">
        <ele>902</ele>
        <time>2021-12-29T13:03:22.000Z</time>
      </trkpt>
      <trkpt lat="43.03326" lon="-0.75734">
        <ele>902</ele>
        <time>2021-12-29T13:03:23.000Z</time>
      </trkpt>
      <trkpt lat="43.03325" lon="-0.75733">
        <ele>902.2</ele>
        <time>2021-12-29T13:03:24.000Z</time>
      </trkpt>
      <trkpt lat="43.03323" lon="-0.75733">
        <ele>902.2</ele>
        <time>2021-12-29T13:03:25.000Z</time>
      </trkpt>
      <trkpt lat="43.03322" lon="-0.75732">
        <ele>902.6</ele>
        <time>2021-12-29T13:03:26.000Z</time>
      </trkpt>
      <trkpt lat="43.0332" lon="-0.75732">
        <ele>902.8</ele>
        <time>2021-12-29T13:03:27.000Z</time>
      </trkpt>
      <trkpt lat="43.0332" lon="-0.75731">
        <ele>903</ele>
        <time>2021-12-29T13:03:28.000Z</time>
      </trkpt>
      <trkpt lat="43.03319" lon="-0.75729">
        <ele>903.4</ele>
        <time>2021-12-29T13:03:29.000Z</time>
      </trkpt>
      <trkpt lat="43.03318" lon="-0.75729">
        <ele>903.6</ele>
        <time>2021-12-29T13:03:30.000Z</time>
      </trkpt>
      <trkpt lat="43.03316" lon="-0.75728">
        <ele>904</ele>
        <time>2021-12-29T13:03:31.000Z</time>
      </trkpt>
      <trkpt lat="43.03314" lon="-0.75728">
        <ele>904.2</ele>
        <time>2021-12-29T13:03:32.000Z</time>
      </trkpt>
      <trkpt lat="43.03313" lon="-0.75727">
        <ele>904.4</ele>
        <time>2021-12-29T13:03:33.000Z</time>
      </trkpt>
      <trkpt lat="43.03313" lon="-0.75726">
        <ele>904.6</ele>
        <time>2021-12-29T13:03:34.000Z</time>
      </trkpt>
      <trkpt lat="43.03311" lon="-0.75725">
        <ele>904.8</ele>
        <time>2021-12-29T13:03:35.000Z</time>
      </trkpt>
      <trkpt lat="43.03309" lon="-0.75724">
        <ele>905</ele>
        <time>2021-12-29T13:03:36.000Z</time>
      </trkpt>
      <trkpt lat="43.03308" lon="-0.75723">
        <ele>905.2</ele>
        <time>2021-12-29T13:03:37.000Z</time>
      </trkpt>
      <trkpt lat="43.03307" lon="-0.75723">
        <ele>905.4</ele>
        <time>2021-12-29T13:03:38.000Z</time>
      </trkpt>
      <trkpt lat="43.03305" lon="-0.75722">
        <ele>905.8</ele>
        <time>2021-12-29T13:03:39.000Z</time>
      </trkpt>
      <trkpt lat="43.03305" lon="-0.75721">
        <ele>906</ele>
        <time>2021-12-29T13:03:40.000Z</time>
      </trkpt>
      <trkpt lat="43.03304" lon="-0.7572">
        <ele>906.2</ele>
        <time>2021-12-29T13:03:41.000Z</time>
      </trkpt>
      <trkpt lat="43.03303" lon="-0.75719">
        <ele>906.4</ele>
        <time>2021-12-29T13:03:42.000Z</time>
      </trkpt>
      <trkpt lat="43.03302" lon="-0.75718">
        <ele>906.6</ele>
        <time>2021-12-29T13:03:43.000Z</time>
      </trkpt>
      <trkpt lat="43.03301" lon="-0.75717">
        <ele>906.8</ele>
        <time>2021-12-29T13:03:44.000Z</time>
      </trkpt>
      <trkpt lat="43.033" lon="-0.75717">
        <ele>907</ele>
        <time>2021-12-29T13:03:45.000Z</time>
      </trkpt>
      <trkpt lat="43.03299" lon="-0.75716">
        <ele>907.2</ele>
        <time>2021-12-29T13:03:46.000Z</time>
      </trkpt>
      <trkpt lat="43.03298" lon="-0.75715">
        <ele>907.2</ele>
        <time>2021-12-29T13:03:47.000Z</time>
      </trkpt>
      <trkpt lat="43.03298" lon="-0.75714">
        <ele>907.4</ele>
        <time>2021-12-29T13:03:48.000Z</time>
      </trkpt>
      <trkpt lat="43.03297" lon="-0.75713">
        <ele>907.8</ele>
        <time>2021-12-29T13:03:49.000Z</time>
      </trkpt>
      <trkpt lat="43.03299" lon="-0.7571">
        <ele>908</ele>
        <time>2021-12-29T13:03:50.000Z</time>
      </trkpt>
      <trkpt lat="43.03298" lon="-0.75709">
        <ele>908.2</ele>
        <time>2021-12-29T13:03:55.000Z</time>
      </trkpt>
      <trkpt lat="43.03296" lon="-0.75705">
        <ele>909.2</ele>
        <time>2021-12-29T13:03:56.000Z</time>
      </trkpt>
      <trkpt lat="43.03295" lon="-0.75705">
        <ele>909.4</ele>
        <time>2021-12-29T13:03:57.000Z</time>
      </trkpt>
      <trkpt lat="43.03293" lon="-0.75704">
        <ele>909.4</ele>
        <time>2021-12-29T13:03:58.000Z</time>
      </trkpt>
      <trkpt lat="43.03293" lon="-0.75702">
        <ele>909.6</ele>
        <time>2021-12-29T13:03:59.000Z</time>
      </trkpt>
      <trkpt lat="43.03294" lon="-0.75701">
        <ele>909.8</ele>
        <time>2021-12-29T13:04:00.000Z</time>
      </trkpt>
      <trkpt lat="43.03293" lon="-0.757">
        <ele>909.8</ele>
        <time>2021-12-29T13:04:01.000Z</time>
      </trkpt>
      <trkpt lat="43.03293" lon="-0.757">
        <ele>910</ele>
        <time>2021-12-29T13:04:02.000Z</time>
      </trkpt>
      <trkpt lat="43.03292" lon="-0.757">
        <ele>910.2</ele>
        <time>2021-12-29T13:04:03.000Z</time>
      </trkpt>
      <trkpt lat="43.0329" lon="-0.757">
        <ele>910.4</ele>
        <time>2021-12-29T13:04:04.000Z</time>
      </trkpt>
      <trkpt lat="43.0329" lon="-0.75699">
        <ele>910.4</ele>
        <time>2021-12-29T13:04:05.000Z</time>
      </trkpt>
      <trkpt lat="43.03289" lon="-0.75698">
        <ele>910.6</ele>
        <time>2021-12-29T13:04:06.000Z</time>
      </trkpt>
      <trkpt lat="43.03286" lon="-0.75699">
        <ele>910.8</ele>
        <time>2021-12-29T13:04:07.000Z</time>
      </trkpt>
      <trkpt lat="43.03285" lon="-0.75698">
        <ele>911</ele>
        <time>2021-12-29T13:04:08.000Z</time>
      </trkpt>
      <trkpt lat="43.03284" lon="-0.75697">
        <ele>911</ele>
        <time>2021-12-29T13:04:09.000Z</time>
      </trkpt>
      <trkpt lat="43.03283" lon="-0.75696">
        <ele>911.2</ele>
        <time>2021-12-29T13:04:10.000Z</time>
      </trkpt>
      <trkpt lat="43.03283" lon="-0.75695">
        <ele>911.4</ele>
        <time>2021-12-29T13:04:11.000Z</time>
      </trkpt>
      <trkpt lat="43.03282" lon="-0.75695">
        <ele>911.6</ele>
        <time>2021-12-29T13:04:12.000Z</time>
      </trkpt>
      <trkpt lat="43.03282" lon="-0.75694">
        <ele>911.6</ele>
        <time>2021-12-29T13:04:13.000Z</time>
      </trkpt>
      <trkpt lat="43.03281" lon="-0.75693">
        <ele>911.8</ele>
        <time>2021-12-29T13:04:54.000Z</time>
      </trkpt>
      <trkpt lat="43.03204" lon="-0.75709">
        <ele>916.8</ele>
        <time>2021-12-29T13:04:55.000Z</time>
      </trkpt>
      <trkpt lat="43.03203" lon="-0.7571">
        <ele>917</ele>
        <time>2021-12-29T13:04:56.000Z</time>
      </trkpt>
      <trkpt lat="43.03203" lon="-0.7571">
        <ele>917</ele>
        <time>2021-12-29T13:04:57.000Z</time>
      </trkpt>
      <trkpt lat="43.03202" lon="-0.7571">
        <ele>917</ele>
        <time>2021-12-29T13:04:58.000Z</time>
      </trkpt>
      <trkpt lat="43.03202" lon="-0.75709">
        <ele>917.2</ele>
        <time>2021-12-29T13:04:59.000Z</time>
      </trkpt>
      <trkpt lat="43.03203" lon="-0.75708">
        <ele>917.2</ele>
        <time>2021-12-29T13:05:00.000Z</time>
      </trkpt>
      <trkpt lat="43.03201" lon="-0.75709">
        <ele>917.4</ele>
        <time>2021-12-29T13:05:01.000Z</time>
      </trkpt>
      <trkpt lat="43.03198" lon="-0.75711">
        <ele>917.6</ele>
        <time>2021-12-29T13:05:02.000Z</time>
      </trkpt>
      <trkpt lat="43.03197" lon="-0.75712">
        <ele>917.8</ele>
        <time>2021-12-29T13:05:03.000Z</time>
      </trkpt>
      <trkpt lat="43.03196" lon="-0.75712">
        <ele>918</ele>
        <time>2021-12-29T13:08:59.000Z</time>
      </trkpt>
      <trkpt lat="43.03103" lon="-0.75767">
        <ele>939.4</ele>
        <time>2021-12-29T13:09:00.000Z</time>
      </trkpt>
      <trkpt lat="43.03103" lon="-0.75769">
        <ele>939.4</ele>
        <time>2021-12-29T13:09:01.000Z</time>
      </trkpt>
      <trkpt lat="43.03103" lon="-0.7577">
        <ele>939.6</ele>
        <time>2021-12-29T13:09:02.000Z</time>
      </trkpt>
      <trkpt lat="43.03103" lon="-0.75772">
        <ele>939.8</ele>
        <time>2021-12-29T13:09:03.000Z</time>
      </trkpt>
      <trkpt lat="43.03103" lon="-0.75773">
        <ele>940</ele>
        <time>2021-12-29T13:09:04.000Z</time>
      </trkpt>
      <trkpt lat="43.03105" lon="-0.75775">
        <ele>940.2</ele>
        <time>2021-12-29T13:09:05.000Z</time>
      </trkpt>
      <trkpt lat="43.03106" lon="-0.75776">
        <ele>940.2</ele>
        <time>2021-12-29T13:09:06.000Z</time>
      </trkpt>
      <trkpt lat="43.03108" lon="-0.75777">
        <ele>940.4</ele>
        <time>2021-12-29T13:09:07.000Z</time>
      </trkpt>
      <trkpt lat="43.03108" lon="-0.75778">
        <ele>940.4</ele>
        <time>2021-12-29T13:09:08.000Z</time>
      </trkpt>
      <trkpt lat="43.03107" lon="-0.75779">
        <ele>940.4</ele>
        <time>2021-12-29T13:09:09.000Z</time>
      </trkpt>
      <trkpt lat="43.03107" lon="-0.75781">
        <ele>940.6</ele>
        <time>2021-12-29T13:09:10.000Z</time>
      </trkpt>
      <trkpt lat="43.03108" lon="-0.75782">
        <ele>940.8</ele>
        <time>2021-12-29T13:09:11.000Z</time>
      </trkpt>
      <trkpt lat="43.03108" lon="-0.75784">
        <ele>941</ele>
        <time>2021-12-29T13:09:12.000Z</time>
      </trkpt>
      <trkpt lat="43.03108" lon="-0.75785">
        <ele>941</ele>
        <time>2021-12-29T13:09:13.000Z</time>
      </trkpt>
      <trkpt lat="43.0311" lon="-0.75787">
        <ele>941.2</ele>
        <time>2021-12-29T13:09:14.000Z</time>
      </trkpt>
      <trkpt lat="43.0311" lon="-0.75788">
        <ele>941.4</ele>
        <time>2021-12-29T13:09:15.000Z</time>
      </trkpt>
      <trkpt lat="43.0311" lon="-0.7579">
        <ele>941.6</ele>
        <time>2021-12-29T13:09:16.000Z</time>
      </trkpt>
      <trkpt lat="43.0311" lon="-0.75792">
        <ele>942</ele>
        <time>2021-12-29T13:09:17.000Z</time>
      </trkpt>
      <trkpt lat="43.03111" lon="-0.75793">
        <ele>942.2</ele>
        <time>2021-12-29T13:09:18.000Z</time>
      </trkpt>
      <trkpt lat="43.03109" lon="-0.75794">
        <ele>942.4</ele>
        <time>2021-12-29T13:09:19.000Z</time>
      </trkpt>
      <trkpt lat="43.03109" lon="-0.75796">
        <ele>942.6</ele>
        <time>2021-12-29T13:09:20.000Z</time>
      </trkpt>
      <trkpt lat="43.0311" lon="-0.75797">
        <ele>942.8</ele>
        <time>2021-12-29T13:09:21.000Z</time>
      </trkpt>
      <trkpt lat="43.03112" lon="-0.75798">
        <ele>943</ele>
        <time>2021-12-29T13:09:22.000Z</time>
      </trkpt>
      <trkpt lat="43.03114" lon="-0.75799">
        <ele>943.2</ele>
        <time>2021-12-29T13:09:23.000Z</time>
      </trkpt>
      <trkpt lat="43.03114" lon="-0.758">
        <ele>943.6</ele>
        <time>2021-12-29T13:09:24.000Z</time>
      </trkpt>
      <trkpt lat="43.03115" lon="-0.75802">
        <ele>943.8</ele>
        <time>2021-12-29T13:09:25.000Z</time>
      </trkpt>
      <trkpt lat="43.03116" lon="-0.75803">
        <ele>944.2</ele>
        <time>2021-12-29T13:09:26.000Z</time>
      </trkpt>
      <trkpt lat="43.03117" lon="-0.75804">
        <ele>944.4</ele>
        <time>2021-12-29T13:09:27.000Z</time>
      </trkpt>
      <trkpt lat="43.03119" lon="-0.75806">
        <ele>944.8</ele>
        <time>2021-12-29T13:09:28.000Z</time>
      </trkpt>
      <trkpt lat="43.03118" lon="-0.75807">
        <ele>945</ele>
        <time>2021-12-29T13:09:29.000Z</time>
      </trkpt>
      <trkpt lat="43.0312" lon="-0.75808">
        <ele>945.2</ele>
        <time>2021-12-29T13:09:30.000Z</time>
      </trkpt>
      <trkpt lat="43.03119" lon="-0.75809">
        <ele>945.4</ele>
        <time>2021-12-29T13:09:31.000Z</time>
      </trkpt>
      <trkpt lat="43.03119" lon="-0.75811">
        <ele>945.8</ele>
        <time>2021-12-29T13:09:32.000Z</time>
      </trkpt>
      <trkpt lat="43.03118" lon="-0.75812">
        <ele>946</ele>
        <time>2021-12-29T13:09:33.000Z</time>
      </trkpt>
      <trkpt lat="43.03116" lon="-0.75813">
        <ele>946.4</ele>
        <time>2021-12-29T13:09:34.000Z</time>
      </trkpt>
      <trkpt lat="43.03116" lon="-0.75814">
        <ele>946.6</ele>
        <time>2021-12-29T13:09:35.000Z</time>
      </trkpt>
      <trkpt lat="43.03114" lon="-0.75816">
        <ele>946.8</ele>
        <time>2021-12-29T13:09:36.000Z</time>
      </trkpt>
      <trkpt lat="43.03115" lon="-0.75818">
        <ele>947</ele>
        <time>2021-12-29T13:09:37.000Z</time>
      </trkpt>
      <trkpt lat="43.03115" lon="-0.75818">
        <ele>947.2</ele>
        <time>2021-12-29T13:09:38.000Z</time>
      </trkpt>
      <trkpt lat="43.03114" lon="-0.75819">
        <ele>947.4</ele>
        <time>2021-12-29T13:09:39.000Z</time>
      </trkpt>
      <trkpt lat="43.03114" lon="-0.7582">
        <ele>947.6</ele>
        <time>2021-12-29T13:09:40.000Z</time>
      </trkpt>
      <trkpt lat="43.03115" lon="-0.75822">
        <ele>947.8</ele>
        <time>2021-12-29T13:09:41.000Z</time>
      </trkpt>
      <trkpt lat="43.03116" lon="-0.75823">
        <ele>948</ele>
        <time>2021-12-29T13:09:42.000Z</time>
      </trkpt>
      <trkpt lat="43.03116" lon="-0.75825">
        <ele>948.2</ele>
        <time>2021-12-29T13:09:43.000Z</time>
      </trkpt>
      <trkpt lat="43.03117" lon="-0.75827">
        <ele>948.4</ele>
        <time>2021-12-29T13:11:01.000Z</time>
      </trkpt>
      <trkpt lat="43.03105" lon="-0.75928">
        <ele>958</ele>
        <time>2021-12-29T13:11:03.000Z</time>
      </trkpt>
      <trkpt lat="43.03104" lon="-0.75929">
        <ele>958.2</ele>
        <time>2021-12-29T13:11:04.000Z</time>
      </trkpt>
      <trkpt lat="43.03103" lon="-0.7593">
        <ele>958.4</ele>
        <time>2021-12-29T13:11:05.000Z</time>
      </trkpt>
      <trkpt lat="43.03103" lon="-0.7593">
        <ele>958.6</ele>
        <time>2021-12-29T13:11:06.000Z</time>
      </trkpt>
      <trkpt lat="43.03104" lon="-0.75931">
        <ele>958.8</ele>
        <time>2021-12-29T13:11:07.000Z</time>
      </trkpt>
      <trkpt lat="43.03104" lon="-0.75931">
        <ele>958.8</ele>
        <time>2021-12-29T13:11:08.000Z</time>
      </trkpt>
      <trkpt lat="43.03105" lon="-0.75932">
        <ele>958.6</ele>
        <time>2021-12-29T13:11:09.000Z</time>
      </trkpt>
      <trkpt lat="43.03107" lon="-0.75933">
        <ele>958.6</ele>
        <time>2021-12-29T13:11:10.000Z</time>
      </trkpt>
      <trkpt lat="43.03107" lon="-0.75933">
        <ele>958.6</ele>
        <time>2021-12-29T13:11:54.000Z</time>
      </trkpt>
      <trkpt lat="43.03085" lon="-0.75951">
        <ele>961</ele>
        <time>2021-12-29T13:11:55.000Z</time>
      </trkpt>
      <trkpt lat="43.03084" lon="-0.75951">
        <ele>961</ele>
        <time>2021-12-29T13:11:56.000Z</time>
      </trkpt>
      <trkpt lat="43.03082" lon="-0.75951">
        <ele>961.2</ele>
        <time>2021-12-29T13:11:57.000Z</time>
      </trkpt>
      <trkpt lat="43.03081" lon="-0.75952">
        <ele>961.6</ele>
        <time>2021-12-29T13:11:58.000Z</time>
      </trkpt>
      <trkpt lat="43.0308" lon="-0.75952">
        <ele>961.6</ele>
        <time>2021-12-29T13:11:59.000Z</time>
      </trkpt>
      <trkpt lat="43.03079" lon="-0.75953">
        <ele>961.8</ele>
        <time>2021-12-29T13:12:00.000Z</time>
      </trkpt>
      <trkpt lat="43.03076" lon="-0.75953">
        <ele>962</ele>
        <time>2021-12-29T13:12:01.000Z</time>
      </trkpt>
      <trkpt lat="43.03076" lon="-0.75953">
        <ele>962.2</ele>
        <time>2021-12-29T13:12:02.000Z</time>
      </trkpt>
      <trkpt lat="43.03075" lon="-0.75954">
        <ele>962.4</ele>
        <time>2021-12-29T13:12:03.000Z</time>
      </trkpt>
      <trkpt lat="43.03074" lon="-0.75955">
        <ele>962.8</ele>
        <time>2021-12-29T13:12:04.000Z</time>
      </trkpt>
      <trkpt lat="43.03073" lon="-0.75955">
        <ele>963</ele>
        <time>2021-12-29T13:12:05.000Z</time>
      </trkpt>
      <trkpt lat="43.03072" lon="-0.75955">
        <ele>963</ele>
        <time>2021-12-29T13:12:07.000Z</time>
      </trkpt>
      <trkpt lat="43.0307" lon="-0.75956">
        <ele>963.2</ele>
        <time>2021-12-29T13:12:08.000Z</time>
      </trkpt>
      <trkpt lat="43.03068" lon="-0.75957">
        <ele>963.6</ele>
        <time>2021-12-29T13:12:09.000Z</time>
      </trkpt>
      <trkpt lat="43.03067" lon="-0.75956">
        <ele>963.8</ele>
        <time>2021-12-29T13:12:10.000Z</time>
      </trkpt>
      <trkpt lat="43.03067" lon="-0.75956">
        <ele>964</ele>
        <time>2021-12-29T13:12:11.000Z</time>
      </trkpt>
      <trkpt lat="43.03066" lon="-0.75957">
        <ele>964.2</ele>
        <time>2021-12-29T13:12:12.000Z</time>
      </trkpt>
      <trkpt lat="43.03065" lon="-0.75957">
        <ele>964.4</ele>
        <time>2021-12-29T13:12:13.000Z</time>
      </trkpt>
      <trkpt lat="43.03065" lon="-0.75958">
        <ele>964.6</ele>
        <time>2021-12-29T13:12:14.000Z</time>
      </trkpt>
      <trkpt lat="43.03064" lon="-0.75959">
        <ele>965</ele>
        <time>2021-12-29T13:12:16.000Z</time>
      </trkpt>
      <trkpt lat="43.03063" lon="-0.75959">
        <ele>965.2</ele>
        <time>2021-12-29T13:12:17.000Z</time>
      </trkpt>
      <trkpt lat="43.03061" lon="-0.75961">
        <ele>965.8</ele>
        <time>2021-12-29T13:12:18.000Z</time>
      </trkpt>
      <trkpt lat="43.0306" lon="-0.75961">
        <ele>966</ele>
        <time>2021-12-29T13:12:19.000Z</time>
      </trkpt>
      <trkpt lat="43.03059" lon="-0.75962">
        <ele>966.2</ele>
        <time>2021-12-29T13:13:05.000Z</time>
      </trkpt>
      <trkpt lat="43.03011" lon="-0.75994">
        <ele>973.8</ele>
        <time>2021-12-29T13:13:06.000Z</time>
      </trkpt>
      <trkpt lat="43.0301" lon="-0.75995">
        <ele>974</ele>
        <time>2021-12-29T13:13:07.000Z</time>
      </trkpt>
      <trkpt lat="43.03009" lon="-0.75996">
        <ele>974.4</ele>
        <time>2021-12-29T13:13:08.000Z</time>
      </trkpt>
      <trkpt lat="43.03008" lon="-0.75996">
        <ele>974.6</ele>
        <time>2021-12-29T13:13:09.000Z</time>
      </trkpt>
      <trkpt lat="43.03004" lon="-0.75999">
        <ele>975</ele>
        <time>2021-12-29T13:13:10.000Z</time>
      </trkpt>
      <trkpt lat="43.03004" lon="-0.75999">
        <ele>975.2</ele>
        <time>2021-12-29T13:13:12.000Z</time>
      </trkpt>
      <trkpt lat="43.03002" lon="-0.76">
        <ele>975.6</ele>
        <time>2021-12-29T13:13:13.000Z</time>
      </trkpt>
      <trkpt lat="43.03001" lon="-0.76001">
        <ele>976</ele>
        <time>2021-12-29T13:13:14.000Z</time>
      </trkpt>
      <trkpt lat="43.02999" lon="-0.76002">
        <ele>976.4</ele>
        <time>2021-12-29T13:13:15.000Z</time>
      </trkpt>
      <trkpt lat="43.02999" lon="-0.76003">
        <ele>976.6</ele>
        <time>2021-12-29T13:13:16.000Z</time>
      </trkpt>
      <trkpt lat="43.02996" lon="-0.76005">
        <ele>977.4</ele>
        <time>2021-12-29T13:13:18.000Z</time>
      </trkpt>
      <trkpt lat="43.02995" lon="-0.76006">
        <ele>977.6</ele>
        <time>2021-12-29T13:13:19.000Z</time>
      </trkpt>
      <trkpt lat="43.02993" lon="-0.76007">
        <ele>977.6</ele>
        <time>2021-12-29T13:13:20.000Z</time>
      </trkpt>
      <trkpt lat="43.02992" lon="-0.76007">
        <ele>977.8</ele>
        <time>2021-12-29T13:13:21.000Z</time>
      </trkpt>
      <trkpt lat="43.0299" lon="-0.76008">
        <ele>978</ele>
        <time>2021-12-29T13:13:22.000Z</time>
      </trkpt>
      <trkpt lat="43.02989" lon="-0.76009">
        <ele>978</ele>
        <time>2021-12-29T13:13:23.000Z</time>
      </trkpt>
      <trkpt lat="43.02988" lon="-0.7601">
        <ele>978</ele>
        <time>2021-12-29T13:13:24.000Z</time>
      </trkpt>
      <trkpt lat="43.02987" lon="-0.7601">
        <ele>978</ele>
        <time>2021-12-29T13:13:25.000Z</time>
      </trkpt>
      <trkpt lat="43.02985" lon="-0.76011">
        <ele>978.2</ele>
        <time>2021-12-29T13:13:26.000Z</time>
      </trkpt>
      <trkpt lat="43.02983" lon="-0.76013">
        <ele>978.2</ele>
        <time>2021-12-29T13:13:27.000Z</time>
      </trkpt>
      <trkpt lat="43.02982" lon="-0.76014">
        <ele>978.4</ele>
        <time>2021-12-29T13:13:28.000Z</time>
      </trkpt>
      <trkpt lat="43.0298" lon="-0.76016">
        <ele>978.4</ele>
        <time>2021-12-29T13:13:29.000Z</time>
      </trkpt>
      <trkpt lat="43.02979" lon="-0.76017">
        <ele>978.6</ele>
        <time>2021-12-29T13:13:30.000Z</time>
      </trkpt>
      <trkpt lat="43.02976" lon="-0.76019">
        <ele>979</ele>
        <time>2021-12-29T13:13:31.000Z</time>
      </trkpt>
      <trkpt lat="43.02975" lon="-0.7602">
        <ele>979.2</ele>
        <time>2021-12-29T13:13:33.000Z</time>
      </trkpt>
      <trkpt lat="43.02974" lon="-0.76022">
        <ele>979.6</ele>
        <time>2021-12-29T13:13:34.000Z</time>
      </trkpt>
      <trkpt lat="43.02972" lon="-0.76023">
        <ele>979.8</ele>
        <time>2021-12-29T13:13:35.000Z</time>
      </trkpt>
      <trkpt lat="43.02971" lon="-0.76024">
        <ele>980</ele>
        <time>2021-12-29T13:13:36.000Z</time>
      </trkpt>
      <trkpt lat="43.0297" lon="-0.76026">
        <ele>980.2</ele>
        <time>2021-12-29T13:13:37.000Z</time>
      </trkpt>
      <trkpt lat="43.02968" lon="-0.76027">
        <ele>980.6</ele>
        <time>2021-12-29T13:13:38.000Z</time>
      </trkpt>
      <trkpt lat="43.02967" lon="-0.7603">
        <ele>980.8</ele>
        <time>2021-12-29T13:13:39.000Z</time>
      </trkpt>
      <trkpt lat="43.02966" lon="-0.76033">
        <ele>981.6</ele>
        <time>2021-12-29T13:13:41.000Z</time>
      </trkpt>
      <trkpt lat="43.02964" lon="-0.76034">
        <ele>981.8</ele>
        <time>2021-12-29T13:13:42.000Z</time>
      </trkpt>
      <trkpt lat="43.02964" lon="-0.76036">
        <ele>982</ele>
        <time>2021-12-29T13:13:43.000Z</time>
      </trkpt>
      <trkpt lat="43.02963" lon="-0.76038">
        <ele>982.2</ele>
        <time>2021-12-29T13:13:44.000Z</time>
      </trkpt>
      <trkpt lat="43.02962" lon="-0.76039">
        <ele>982.6</ele>
        <time>2021-12-29T13:13:45.000Z</time>
      </trkpt>
      <trkpt lat="43.02962" lon="-0.76041">
        <ele>982.6</ele>
        <time>2021-12-29T13:13:46.000Z</time>
      </trkpt>
      <trkpt lat="43.02961" lon="-0.76044">
        <ele>983.2</ele>
        <time>2021-12-29T13:13:48.000Z</time>
      </trkpt>
      <trkpt lat="43.0296" lon="-0.76046">
        <ele>983.6</ele>
        <time>2021-12-29T13:13:49.000Z</time>
      </trkpt>
      <trkpt lat="43.02959" lon="-0.76047">
        <ele>983.8</ele>
        <time>2021-12-29T13:13:50.000Z</time>
      </trkpt>
      <trkpt lat="43.02959" lon="-0.76049">
        <ele>984.4</ele>
        <time>2021-12-29T13:13:51.000Z</time>
      </trkpt>
      <trkpt lat="43.02958" lon="-0.76051">
        <ele>984.6</ele>
        <time>2021-12-29T13:13:52.000Z</time>
      </trkpt>
      <trkpt lat="43.02956" lon="-0.76053">
        <ele>985</ele>
        <time>2021-12-29T13:13:53.000Z</time>
      </trkpt>
      <trkpt lat="43.02956" lon="-0.76054">
        <ele>985.4</ele>
        <time>2021-12-29T13:13:54.000Z</time>
      </trkpt>
      <trkpt lat="43.02955" lon="-0.76056">
        <ele>985.6</ele>
        <time>2021-12-29T13:13:55.000Z</time>
      </trkpt>
      <trkpt lat="43.02954" lon="-0.76058">
        <ele>985.8</ele>
        <time>2021-12-29T13:13:56.000Z</time>
      </trkpt>
      <trkpt lat="43.02954" lon="-0.7606">
        <ele>986.2</ele>
        <time>2021-12-29T13:13:57.000Z</time>
      </trkpt>
      <trkpt lat="43.02953" lon="-0.76062">
        <ele>986.6</ele>
        <time>2021-12-29T13:13:58.000Z</time>
      </trkpt>
      <trkpt lat="43.02953" lon="-0.76064">
        <ele>986.8</ele>
        <time>2021-12-29T13:13:59.000Z</time>
      </trkpt>
      <trkpt lat="43.02952" lon="-0.76065">
        <ele>987.2</ele>
        <time>2021-12-29T13:14:00.000Z</time>
      </trkpt>
      <trkpt lat="43.02951" lon="-0.76067">
        <ele>987.4</ele>
        <time>2021-12-29T13:14:01.000Z</time>
      </trkpt>
      <trkpt lat="43.0295" lon="-0.76068">
        <ele>987.6</ele>
        <time>2021-12-29T13:14:02.000Z</time>
      </trkpt>
      <trkpt lat="43.0295" lon="-0.7607">
        <ele>988</ele>
        <time>2021-12-29T13:14:03.000Z</time>
      </trkpt>
      <trkpt lat="43.02949" lon="-0.76072">
        <ele>988.2</ele>
        <time>2021-12-29T13:14:04.000Z</time>
      </trkpt>
      <trkpt lat="43.02948" lon="-0.76074">
        <ele>988.6</ele>
        <time>2021-12-29T13:14:05.000Z</time>
      </trkpt>
      <trkpt lat="43.02947" lon="-0.76075">
        <ele>989</ele>
        <time>2021-12-29T13:14:06.000Z</time>
      </trkpt>
      <trkpt lat="43.02947" lon="-0.76077">
        <ele>989</ele>
        <time>2021-12-29T13:14:07.000Z</time>
      </trkpt>
      <trkpt lat="43.02947" lon="-0.76079">
        <ele>989.4</ele>
        <time>2021-12-29T13:14:08.000Z</time>
      </trkpt>
      <trkpt lat="43.02946" lon="-0.7608">
        <ele>989.6</ele>
        <time>2021-12-29T13:14:09.000Z</time>
      </trkpt>
      <trkpt lat="43.02946" lon="-0.76082">
        <ele>989.8</ele>
        <time>2021-12-29T13:14:10.000Z</time>
      </trkpt>
      <trkpt lat="43.02946" lon="-0.76084">
        <ele>990</ele>
        <time>2021-12-29T13:14:11.000Z</time>
      </trkpt>
      <trkpt lat="43.02946" lon="-0.76085">
        <ele>990.2</ele>
        <time>2021-12-29T13:14:12.000Z</time>
      </trkpt>
      <trkpt lat="43.02945" lon="-0.76087">
        <ele>990.4</ele>
        <time>2021-12-29T13:14:13.000Z</time>
      </trkpt>
      <trkpt lat="43.02945" lon="-0.76089">
        <ele>990.6</ele>
        <time>2021-12-29T13:14:14.000Z</time>
      </trkpt>
      <trkpt lat="43.02945" lon="-0.7609">
        <ele>990.8</ele>
        <time>2021-12-29T13:14:15.000Z</time>
      </trkpt>
      <trkpt lat="43.02945" lon="-0.76092">
        <ele>991.2</ele>
        <time>2021-12-29T13:14:16.000Z</time>
      </trkpt>
      <trkpt lat="43.02945" lon="-0.76093">
        <ele>991.4</ele>
        <time>2021-12-29T13:14:17.000Z</time>
      </trkpt>
      <trkpt lat="43.02945" lon="-0.76094">
        <ele>991.8</ele>
        <time>2021-12-29T13:14:18.000Z</time>
      </trkpt>
      <trkpt lat="43.02944" lon="-0.76096">
        <ele>992</ele>
        <time>2021-12-29T13:14:19.000Z</time>
      </trkpt>
      <trkpt lat="43.02944" lon="-0.76097">
        <ele>992.2</ele>
        <time>2021-12-29T13:14:20.000Z</time>
      </trkpt>
      <trkpt lat="43.02944" lon="-0.76098">
        <ele>992.8</ele>
        <time>2021-12-29T13:14:21.000Z</time>
      </trkpt>
      <trkpt lat="43.02945" lon="-0.761">
        <ele>993.2</ele>
        <time>2021-12-29T13:14:22.000Z</time>
      </trkpt>
      <trkpt lat="43.02945" lon="-0.76101">
        <ele>993.6</ele>
        <time>2021-12-29T13:14:49.000Z</time>
      </trkpt>
      <trkpt lat="43.02919" lon="-0.76136">
        <ele>1000.4</ele>
        <time>2021-12-29T13:14:50.000Z</time>
      </trkpt>
      <trkpt lat="43.02918" lon="-0.76138">
        <ele>1000.8</ele>
        <time>2021-12-29T13:14:51.000Z</time>
      </trkpt>
      <trkpt lat="43.02917" lon="-0.76139">
        <ele>1001</ele>
        <time>2021-12-29T13:14:52.000Z</time>
      </trkpt>
      <trkpt lat="43.02916" lon="-0.76139">
        <ele>1001.4</ele>
        <time>2021-12-29T13:14:53.000Z</time>
      </trkpt>
      <trkpt lat="43.02915" lon="-0.7614">
        <ele>1001.6</ele>
        <time>2021-12-29T13:14:54.000Z</time>
      </trkpt>
      <trkpt lat="43.02914" lon="-0.7614">
        <ele>1002</ele>
        <time>2021-12-29T13:14:55.000Z</time>
      </trkpt>
      <trkpt lat="43.02912" lon="-0.76141">
        <ele>1002.2</ele>
        <time>2021-12-29T13:14:56.000Z</time>
      </trkpt>
      <trkpt lat="43.02911" lon="-0.76141">
        <ele>1002.4</ele>
        <time>2021-12-29T13:14:57.000Z</time>
      </trkpt>
      <trkpt lat="43.0291" lon="-0.76142">
        <ele>1002.8</ele>
        <time>2021-12-29T13:14:58.000Z</time>
      </trkpt>
      <trkpt lat="43.02909" lon="-0.76142">
        <ele>1003</ele>
        <time>2021-12-29T13:14:59.000Z</time>
      </trkpt>
      <trkpt lat="43.02909" lon="-0.76143">
        <ele>1003.4</ele>
        <time>2021-12-29T13:15:00.000Z</time>
      </trkpt>
      <trkpt lat="43.02908" lon="-0.76144">
        <ele>1003.8</ele>
        <time>2021-12-29T13:15:01.000Z</time>
      </trkpt>
      <trkpt lat="43.02908" lon="-0.76145">
        <ele>1004.2</ele>
        <time>2021-12-29T13:15:02.000Z</time>
      </trkpt>
      <trkpt lat="43.02907" lon="-0.76146">
        <ele>1004.6</ele>
        <time>2021-12-29T13:15:03.000Z</time>
      </trkpt>
      <trkpt lat="43.02906" lon="-0.76147">
        <ele>1005</ele>
        <time>2021-12-29T13:15:04.000Z</time>
      </trkpt>
      <trkpt lat="43.02905" lon="-0.76149">
        <ele>1005.2</ele>
        <time>2021-12-29T13:15:05.000Z</time>
      </trkpt>
      <trkpt lat="43.02905" lon="-0.7615">
        <ele>1005.6</ele>
        <time>2021-12-29T13:15:06.000Z</time>
      </trkpt>
      <trkpt lat="43.02904" lon="-0.76151">
        <ele>1006</ele>
        <time>2021-12-29T13:15:07.000Z</time>
      </trkpt>
      <trkpt lat="43.02903" lon="-0.76151">
        <ele>1006</ele>
        <time>2021-12-29T13:15:08.000Z</time>
      </trkpt>
      <trkpt lat="43.02903" lon="-0.76152">
        <ele>1006.2</ele>
        <time>2021-12-29T13:15:09.000Z</time>
      </trkpt>
      <trkpt lat="43.02902" lon="-0.76152">
        <ele>1006.2</ele>
        <time>2021-12-29T13:15:10.000Z</time>
      </trkpt>
      <trkpt lat="43.02902" lon="-0.76152">
        <ele>1006.2</ele>
        <time>2021-12-29T13:15:11.000Z</time>
      </trkpt>
      <trkpt lat="43.02901" lon="-0.76153">
        <ele>1006.4</ele>
        <time>2021-12-29T13:15:12.000Z</time>
      </trkpt>
      <trkpt lat="43.02901" lon="-0.76154">
        <ele>1006.4</ele>
        <time>2021-12-29T13:15:13.000Z</time>
      </trkpt>
      <trkpt lat="43.02901" lon="-0.76154">
        <ele>1006.4</ele>
        <time>2021-12-29T13:16:29.000Z</time>
      </trkpt>
      <trkpt lat="43.02814" lon="-0.76219">
        <ele>1032.8</ele>
        <time>2021-12-29T13:16:30.000Z</time>
      </trkpt>
      <trkpt lat="43.02812" lon="-0.7622">
        <ele>1033.2</ele>
        <time>2021-12-29T13:16:31.000Z</time>
      </trkpt>
      <trkpt lat="43.02811" lon="-0.7622">
        <ele>1033.4</ele>
        <time>2021-12-29T13:16:32.000Z</time>
      </trkpt>
      <trkpt lat="43.02811" lon="-0.76221">
        <ele>1033.4</ele>
        <time>2021-12-29T13:16:33.000Z</time>
      </trkpt>
      <trkpt lat="43.02811" lon="-0.76221">
        <ele>1033.6</ele>
        <time>2021-12-29T13:16:34.000Z</time>
      </trkpt>
      <trkpt lat="43.02811" lon="-0.76221">
        <ele>1033.6</ele>
        <time>2021-12-29T13:16:35.000Z</time>
      </trkpt>
      <trkpt lat="43.02811" lon="-0.76221">
        <ele>1033.6</ele>
        <time>2021-12-29T13:16:36.000Z</time>
      </trkpt>
      <trkpt lat="43.0281" lon="-0.76221">
        <ele>1033.4</ele>
        <time>2021-12-29T13:16:37.000Z</time>
      </trkpt>
      <trkpt lat="43.0281" lon="-0.76221">
        <ele>1033.4</ele>
        <time>2021-12-29T13:16:38.000Z</time>
      </trkpt>
      <trkpt lat="43.02809" lon="-0.76222">
        <ele>1033.4</ele>
        <time>2021-12-29T13:16:39.000Z</time>
      </trkpt>
      <trkpt lat="43.02809" lon="-0.76222">
        <ele>1033.4</ele>
        <time>2021-12-29T13:20:04.000Z</time>
      </trkpt>
      <trkpt lat="43.02786" lon="-0.76252">
        <ele>1036</ele>
        <time>2021-12-29T13:20:05.000Z</time>
      </trkpt>
      <trkpt lat="43.02785" lon="-0.76253">
        <ele>1036.2</ele>
        <time>2021-12-29T13:20:06.000Z</time>
      </trkpt>
      <trkpt lat="43.02785" lon="-0.76254">
        <ele>1036.4</ele>
        <time>2021-12-29T13:20:07.000Z</time>
      </trkpt>
      <trkpt lat="43.02785" lon="-0.76255">
        <ele>1036.6</ele>
        <time>2021-12-29T13:20:08.000Z</time>
      </trkpt>
      <trkpt lat="43.02784" lon="-0.76257">
        <ele>1036.8</ele>
        <time>2021-12-29T13:20:09.000Z</time>
      </trkpt>
      <trkpt lat="43.02783" lon="-0.76257">
        <ele>1037</ele>
        <time>2021-12-29T13:20:10.000Z</time>
      </trkpt>
      <trkpt lat="43.02782" lon="-0.76258">
        <ele>1037.2</ele>
        <time>2021-12-29T13:20:11.000Z</time>
      </trkpt>
      <trkpt lat="43.02782" lon="-0.76259">
        <ele>1037.4</ele>
        <time>2021-12-29T13:20:12.000Z</time>
      </trkpt>
      <trkpt lat="43.0278" lon="-0.7626">
        <ele>1037.4</ele>
        <time>2021-12-29T13:20:13.000Z</time>
      </trkpt>
      <trkpt lat="43.02779" lon="-0.76261">
        <ele>1037.6</ele>
        <time>2021-12-29T13:20:14.000Z</time>
      </trkpt>
      <trkpt lat="43.02778" lon="-0.76261">
        <ele>1037.8</ele>
        <time>2021-12-29T13:20:15.000Z</time>
      </trkpt>
      <trkpt lat="43.02777" lon="-0.76263">
        <ele>1038.2</ele>
        <time>2021-12-29T13:20:16.000Z</time>
      </trkpt>
      <trkpt lat="43.02776" lon="-0.76264">
        <ele>1038.6</ele>
        <time>2021-12-29T13:20:17.000Z</time>
      </trkpt>
      <trkpt lat="43.02775" lon="-0.76265">
        <ele>1038.8</ele>
        <time>2021-12-29T13:20:18.000Z</time>
      </trkpt>
      <trkpt lat="43.02774" lon="-0.76267">
        <ele>1038.8</ele>
        <time>2021-12-29T13:20:19.000Z</time>
      </trkpt>
      <trkpt lat="43.02773" lon="-0.76267">
        <ele>1039.2</ele>
        <time>2021-12-29T13:20:20.000Z</time>
      </trkpt>
      <trkpt lat="43.02773" lon="-0.76268">
        <ele>1039.4</ele>
        <time>2021-12-29T13:20:21.000Z</time>
      </trkpt>
      <trkpt lat="43.02771" lon="-0.76268">
        <ele>1039.6</ele>
        <time>2021-12-29T13:20:22.000Z</time>
      </trkpt>
      <trkpt lat="43.0277" lon="-0.76269">
        <ele>1040</ele>
        <time>2021-12-29T13:20:23.000Z</time>
      </trkpt>
      <trkpt lat="43.02769" lon="-0.7627">
        <ele>1040.2</ele>
        <time>2021-12-29T13:20:24.000Z</time>
      </trkpt>
      <trkpt lat="43.02768" lon="-0.76271">
        <ele>1040.4</ele>
        <time>2021-12-29T13:20:25.000Z</time>
      </trkpt>
      <trkpt lat="43.02767" lon="-0.76272">
        <ele>1040.8</ele>
        <time>2021-12-29T13:20:26.000Z</time>
      </trkpt>
      <trkpt lat="43.02766" lon="-0.76273">
        <ele>1041</ele>
        <time>2021-12-29T13:20:27.000Z</time>
      </trkpt>
      <trkpt lat="43.02765" lon="-0.76274">
        <ele>1041.2</ele>
        <time>2021-12-29T13:20:28.000Z</time>
      </trkpt>
      <trkpt lat="43.02764" lon="-0.76275">
        <ele>1041.6</ele>
        <time>2021-12-29T13:20:29.000Z</time>
      </trkpt>
      <trkpt lat="43.02764" lon="-0.76276">
        <ele>1042</ele>
        <time>2021-12-29T13:20:30.000Z</time>
      </trkpt>
      <trkpt lat="43.02763" lon="-0.76277">
        <ele>1042.4</ele>
        <time>2021-12-29T13:20:31.000Z</time>
      </trkpt>
      <trkpt lat="43.02762" lon="-0.76277">
        <ele>1042.6</ele>
        <time>2021-12-29T13:20:32.000Z</time>
      </trkpt>
      <trkpt lat="43.02761" lon="-0.76278">
        <ele>1043</ele>
        <time>2021-12-29T13:20:33.000Z</time>
      </trkpt>
      <trkpt lat="43.02761" lon="-0.76278">
        <ele>1043.4</ele>
        <time>2021-12-29T13:20:34.000Z</time>
      </trkpt>
      <trkpt lat="43.02761" lon="-0.76278">
        <ele>1043.8</ele>
        <time>2021-12-29T13:20:35.000Z</time>
      </trkpt>
      <trkpt lat="43.0276" lon="-0.76278">
        <ele>1044.2</ele>
        <time>2021-12-29T13:20:36.000Z</time>
      </trkpt>
      <trkpt lat="43.02759" lon="-0.76278">
        <ele>1044.4</ele>
        <time>2021-12-29T13:20:37.000Z</time>
      </trkpt>
      <trkpt lat="43.02757" lon="-0.76278">
        <ele>1044.6</ele>
        <time>2021-12-29T13:20:38.000Z</time>
      </trkpt>
      <trkpt lat="43.02757" lon="-0.76278">
        <ele>1045</ele>
        <time>2021-12-29T13:20:39.000Z</time>
      </trkpt>
      <trkpt lat="43.02756" lon="-0.76278">
        <ele>1045.2</ele>
        <time>2021-12-29T13:20:40.000Z</time>
      </trkpt>
      <trkpt lat="43.02756" lon="-0.76279">
        <ele>1045.6</ele>
        <time>2021-12-29T13:20:41.000Z</time>
      </trkpt>
      <trkpt lat="43.02754" lon="-0.7628">
        <ele>1045.8</ele>
        <time>2021-12-29T13:20:42.000Z</time>
      </trkpt>
      <trkpt lat="43.02753" lon="-0.7628">
        <ele>1046.2</ele>
        <time>2021-12-29T13:20:43.000Z</time>
      </trkpt>
      <trkpt lat="43.02752" lon="-0.76279">
        <ele>1046.4</ele>
        <time>2021-12-29T13:20:44.000Z</time>
      </trkpt>
      <trkpt lat="43.0275" lon="-0.76278">
        <ele>1046.8</ele>
        <time>2021-12-29T13:20:45.000Z</time>
      </trkpt>
      <trkpt lat="43.02749" lon="-0.76278">
        <ele>1047.2</ele>
        <time>2021-12-29T13:20:46.000Z</time>
      </trkpt>
      <trkpt lat="43.02747" lon="-0.76278">
        <ele>1047.6</ele>
        <time>2021-12-29T13:20:47.000Z</time>
      </trkpt>
      <trkpt lat="43.02746" lon="-0.76278">
        <ele>1047.8</ele>
        <time>2021-12-29T13:20:48.000Z</time>
      </trkpt>
      <trkpt lat="43.02745" lon="-0.76277">
        <ele>1048</ele>
        <time>2021-12-29T13:20:49.000Z</time>
      </trkpt>
      <trkpt lat="43.02744" lon="-0.76277">
        <ele>1048.2</ele>
        <time>2021-12-29T13:20:50.000Z</time>
      </trkpt>
      <trkpt lat="43.02743" lon="-0.76277">
        <ele>1048.6</ele>
        <time>2021-12-29T13:20:51.000Z</time>
      </trkpt>
      <trkpt lat="43.02742" lon="-0.76276">
        <ele>1048.8</ele>
        <time>2021-12-29T13:20:52.000Z</time>
      </trkpt>
      <trkpt lat="43.0274" lon="-0.76276">
        <ele>1049.2</ele>
        <time>2021-12-29T13:20:53.000Z</time>
      </trkpt>
      <trkpt lat="43.02739" lon="-0.76276">
        <ele>1049.4</ele>
        <time>2021-12-29T13:20:54.000Z</time>
      </trkpt>
      <trkpt lat="43.02738" lon="-0.76277">
        <ele>1049.8</ele>
        <time>2021-12-29T13:20:55.000Z</time>
      </trkpt>
      <trkpt lat="43.02738" lon="-0.76277">
        <ele>1050.2</ele>
        <time>2021-12-29T13:20:56.000Z</time>
      </trkpt>
      <trkpt lat="43.02736" lon="-0.76277">
        <ele>1050.6</ele>
        <time>2021-12-29T13:20:57.000Z</time>
      </trkpt>
      <trkpt lat="43.02735" lon="-0.76277">
        <ele>1050.8</ele>
        <time>2021-12-29T13:20:58.000Z</time>
      </trkpt>
      <trkpt lat="43.02733" lon="-0.76277">
        <ele>1051.2</ele>
        <time>2021-12-29T13:20:59.000Z</time>
      </trkpt>
      <trkpt lat="43.02732" lon="-0.76277">
        <ele>1051.4</ele>
        <time>2021-12-29T13:21:00.000Z</time>
      </trkpt>
      <trkpt lat="43.02729" lon="-0.76278">
        <ele>1051.6</ele>
        <time>2021-12-29T13:21:20.000Z</time>
      </trkpt>
      <trkpt lat="43.02699" lon="-0.7629">
        <ele>1056.8</ele>
        <time>2021-12-29T13:21:21.000Z</time>
      </trkpt>
      <trkpt lat="43.02697" lon="-0.7629">
        <ele>1057.2</ele>
        <time>2021-12-29T13:21:22.000Z</time>
      </trkpt>
      <trkpt lat="43.02694" lon="-0.76292">
        <ele>1057.4</ele>
        <time>2021-12-29T13:21:23.000Z</time>
      </trkpt>
      <trkpt lat="43.02692" lon="-0.76293">
        <ele>1057.8</ele>
        <time>2021-12-29T13:21:24.000Z</time>
      </trkpt>
      <trkpt lat="43.02691" lon="-0.76293">
        <ele>1058</ele>
        <time>2021-12-29T13:21:25.000Z</time>
      </trkpt>
      <trkpt lat="43.02689" lon="-0.76294">
        <ele>1058.4</ele>
        <time>2021-12-29T13:21:26.000Z</time>
      </trkpt>
      <trkpt lat="43.02687" lon="-0.76294">
        <ele>1058.8</ele>
        <time>2021-12-29T13:21:27.000Z</time>
      </trkpt>
      <trkpt lat="43.02686" lon="-0.76295">
        <ele>1059</ele>
        <time>2021-12-29T13:21:28.000Z</time>
      </trkpt>
      <trkpt lat="43.02684" lon="-0.76295">
        <ele>1059.4</ele>
        <time>2021-12-29T13:21:29.000Z</time>
      </trkpt>
      <trkpt lat="43.02682" lon="-0.76296">
        <ele>1059.8</ele>
        <time>2021-12-29T13:21:30.000Z</time>
      </trkpt>
      <trkpt lat="43.0268" lon="-0.76297">
        <ele>1060.2</ele>
        <time>2021-12-29T13:21:31.000Z</time>
      </trkpt>
      <trkpt lat="43.02678" lon="-0.76298">
        <ele>1060.8</ele>
        <time>2021-12-29T13:21:32.000Z</time>
      </trkpt>
      <trkpt lat="43.02677" lon="-0.763">
        <ele>1061</ele>
        <time>2021-12-29T13:21:33.000Z</time>
      </trkpt>
      <trkpt lat="43.02675" lon="-0.76302">
        <ele>1061.6</ele>
        <time>2021-12-29T13:21:34.000Z</time>
      </trkpt>
      <trkpt lat="43.02674" lon="-0.76303">
        <ele>1062</ele>
        <time>2021-12-29T13:21:35.000Z</time>
      </trkpt>
      <trkpt lat="43.02672" lon="-0.76304">
        <ele>1062.6</ele>
        <time>2021-12-29T13:21:36.000Z</time>
      </trkpt>
      <trkpt lat="43.02671" lon="-0.76305">
        <ele>1063</ele>
        <time>2021-12-29T13:21:37.000Z</time>
      </trkpt>
      <trkpt lat="43.0267" lon="-0.76306">
        <ele>1063.4</ele>
        <time>2021-12-29T13:21:38.000Z</time>
      </trkpt>
      <trkpt lat="43.02669" lon="-0.76307">
        <ele>1063.8</ele>
        <time>2021-12-29T13:21:39.000Z</time>
      </trkpt>
      <trkpt lat="43.02667" lon="-0.76309">
        <ele>1064.2</ele>
        <time>2021-12-29T13:21:40.000Z</time>
      </trkpt>
      <trkpt lat="43.02666" lon="-0.7631">
        <ele>1064.6</ele>
        <time>2021-12-29T13:21:41.000Z</time>
      </trkpt>
      <trkpt lat="43.02664" lon="-0.76311">
        <ele>1065</ele>
        <time>2021-12-29T13:21:42.000Z</time>
      </trkpt>
      <trkpt lat="43.02663" lon="-0.76312">
        <ele>1065.2</ele>
        <time>2021-12-29T13:21:43.000Z</time>
      </trkpt>
      <trkpt lat="43.02662" lon="-0.76313">
        <ele>1065.6</ele>
        <time>2021-12-29T13:21:44.000Z</time>
      </trkpt>
      <trkpt lat="43.0266" lon="-0.76314">
        <ele>1066</ele>
        <time>2021-12-29T13:21:45.000Z</time>
      </trkpt>
      <trkpt lat="43.02659" lon="-0.76315">
        <ele>1066.2</ele>
        <time>2021-12-29T13:21:46.000Z</time>
      </trkpt>
      <trkpt lat="43.02658" lon="-0.76315">
        <ele>1066.4</ele>
        <time>2021-12-29T13:21:47.000Z</time>
      </trkpt>
      <trkpt lat="43.02657" lon="-0.76316">
        <ele>1066.6</ele>
        <time>2021-12-29T13:21:48.000Z</time>
      </trkpt>
      <trkpt lat="43.02656" lon="-0.76317">
        <ele>1066.8</ele>
        <time>2021-12-29T13:21:49.000Z</time>
      </trkpt>
      <trkpt lat="43.02655" lon="-0.76317">
        <ele>1066.8</ele>
        <time>2021-12-29T13:21:50.000Z</time>
      </trkpt>
      <trkpt lat="43.02654" lon="-0.76318">
        <ele>1067.2</ele>
        <time>2021-12-29T13:21:51.000Z</time>
      </trkpt>
      <trkpt lat="43.02653" lon="-0.76319">
        <ele>1067.4</ele>
        <time>2021-12-29T13:21:52.000Z</time>
      </trkpt>
      <trkpt lat="43.02652" lon="-0.76319">
        <ele>1067.6</ele>
        <time>2021-12-29T13:21:53.000Z</time>
      </trkpt>
      <trkpt lat="43.0265" lon="-0.76318">
        <ele>1067.6</ele>
        <time>2021-12-29T13:21:54.000Z</time>
      </trkpt>
      <trkpt lat="43.02649" lon="-0.76318">
        <ele>1067.6</ele>
        <time>2021-12-29T13:21:55.000Z</time>
      </trkpt>
      <trkpt lat="43.02648" lon="-0.76318">
        <ele>1067.8</ele>
        <time>2021-12-29T13:21:56.000Z</time>
      </trkpt>
      <trkpt lat="43.02649" lon="-0.76317">
        <ele>1068</ele>
        <time>2021-12-29T13:21:57.000Z</time>
      </trkpt>
      <trkpt lat="43.02649" lon="-0.76316">
        <ele>1068</ele>
        <time>2021-12-29T13:21:58.000Z</time>
      </trkpt>
      <trkpt lat="43.0265" lon="-0.76315">
        <ele>1068</ele>
        <time>2021-12-29T13:21:59.000Z</time>
      </trkpt>
      <trkpt lat="43.02651" lon="-0.76314">
        <ele>1068.2</ele>
        <time>2021-12-29T13:22:00.000Z</time>
      </trkpt>
      <trkpt lat="43.02651" lon="-0.76313">
        <ele>1068.4</ele>
        <time>2021-12-29T13:22:01.000Z</time>
      </trkpt>
      <trkpt lat="43.02652" lon="-0.76311">
        <ele>1068.4</ele>
        <time>2021-12-29T13:22:02.000Z</time>
      </trkpt>
      <trkpt lat="43.02654" lon="-0.76309">
        <ele>1068.8</ele>
        <time>2021-12-29T13:22:03.000Z</time>
      </trkpt>
      <trkpt lat="43.02655" lon="-0.76308">
        <ele>1068.8</ele>
        <time>2021-12-29T13:22:04.000Z</time>
      </trkpt>
      <trkpt lat="43.02656" lon="-0.76306">
        <ele>1069</ele>
        <time>2021-12-29T13:22:05.000Z</time>
      </trkpt>
      <trkpt lat="43.02656" lon="-0.76305">
        <ele>1069</ele>
        <time>2021-12-29T13:22:06.000Z</time>
      </trkpt>
      <trkpt lat="43.02657" lon="-0.76303">
        <ele>1069.2</ele>
        <time>2021-12-29T13:22:07.000Z</time>
      </trkpt>
      <trkpt lat="43.02658" lon="-0.76301">
        <ele>1069.4</ele>
        <time>2021-12-29T13:22:08.000Z</time>
      </trkpt>
      <trkpt lat="43.02659" lon="-0.763">
        <ele>1069.6</ele>
        <time>2021-12-29T13:22:09.000Z</time>
      </trkpt>
      <trkpt lat="43.0266" lon="-0.76299">
        <ele>1069.6</ele>
        <time>2021-12-29T13:22:10.000Z</time>
      </trkpt>
      <trkpt lat="43.02661" lon="-0.76297">
        <ele>1069.8</ele>
        <time>2021-12-29T13:22:11.000Z</time>
      </trkpt>
      <trkpt lat="43.0266" lon="-0.76296">
        <ele>1069.8</ele>
        <time>2021-12-29T13:22:12.000Z</time>
      </trkpt>
      <trkpt lat="43.02661" lon="-0.76294">
        <ele>1069.8</ele>
        <time>2021-12-29T13:22:13.000Z</time>
      </trkpt>
      <trkpt lat="43.02661" lon="-0.76293">
        <ele>1069.8</ele>
        <time>2021-12-29T13:22:14.000Z</time>
      </trkpt>
      <trkpt lat="43.02662" lon="-0.76292">
        <ele>1070</ele>
        <time>2021-12-29T13:22:15.000Z</time>
      </trkpt>
      <trkpt lat="43.02663" lon="-0.76291">
        <ele>1070</ele>
        <time>2021-12-29T13:22:16.000Z</time>
      </trkpt>
      <trkpt lat="43.02664" lon="-0.7629">
        <ele>1070</ele>
        <time>2021-12-29T13:22:17.000Z</time>
      </trkpt>
      <trkpt lat="43.02665" lon="-0.76289">
        <ele>1070.2</ele>
        <time>2021-12-29T13:22:18.000Z</time>
      </trkpt>
      <trkpt lat="43.02666" lon="-0.76287">
        <ele>1070.2</ele>
        <time>2021-12-29T13:22:19.000Z</time>
      </trkpt>
      <trkpt lat="43.02666" lon="-0.76286">
        <ele>1070.2</ele>
        <time>2021-12-29T13:22:20.000Z</time>
      </trkpt>
      <trkpt lat="43.02666" lon="-0.76285">
        <ele>1070.2</ele>
        <time>2021-12-29T13:22:21.000Z</time>
      </trkpt>
      <trkpt lat="43.02666" lon="-0.76285">
        <ele>1070.2</ele>
        <time>2021-12-29T13:22:22.000Z</time>
      </trkpt>
      <trkpt lat="43.02665" lon="-0.76286">
        <ele>1070.4</ele>
        <time>2021-12-29T13:22:23.000Z</time>
      </trkpt>
      <trkpt lat="43.02666" lon="-0.76287">
        <ele>1070.4</ele>
        <time>2021-12-29T13:22:24.000Z</time>
      </trkpt>
      <trkpt lat="43.02665" lon="-0.76287">
        <ele>1070.2</ele>
        <time>2021-12-29T13:22:25.000Z</time>
      </trkpt>
      <trkpt lat="43.02664" lon="-0.76289">
        <ele>1070.2</ele>
        <time>2021-12-29T13:22:26.000Z</time>
      </trkpt>
      <trkpt lat="43.02663" lon="-0.7629">
        <ele>1070.2</ele>
        <time>2021-12-29T13:22:27.000Z</time>
      </trkpt>
      <trkpt lat="43.02663" lon="-0.7629">
        <ele>1070</ele>
        <time>2021-12-29T13:22:28.000Z</time>
      </trkpt>
      <trkpt lat="43.02663" lon="-0.76291">
        <ele>1070</ele>
        <time>2021-12-29T13:22:29.000Z</time>
      </trkpt>
      <trkpt lat="43.02664" lon="-0.76291">
        <ele>1070</ele>
        <time>2021-12-29T13:22:30.000Z</time>
      </trkpt>
      <trkpt lat="43.02664" lon="-0.76291">
        <ele>1070</ele>
        <time>2021-12-29T13:22:31.000Z</time>
      </trkpt>
      <trkpt lat="43.02665" lon="-0.76291">
        <ele>1070</ele>
        <time>2021-12-29T13:22:32.000Z</time>
      </trkpt>
      <trkpt lat="43.02665" lon="-0.76291">
        <ele>1070</ele>
        <time>2021-12-29T13:22:33.000Z</time>
      </trkpt>
      <trkpt lat="43.02665" lon="-0.76292">
        <ele>1069.8</ele>
        <time>2021-12-29T13:22:34.000Z</time>
      </trkpt>
      <trkpt lat="43.02665" lon="-0.76292">
        <ele>1069.8</ele>
        <time>2021-12-29T13:22:50.000Z</time>
      </trkpt>
      <trkpt lat="43.02654" lon="-0.76306">
        <ele>1068.8</ele>
        <time>2021-12-29T13:22:51.000Z</time>
      </trkpt>
      <trkpt lat="43.02653" lon="-0.76307">
        <ele>1068.6</ele>
        <time>2021-12-29T13:22:52.000Z</time>
      </trkpt>
      <trkpt lat="43.02652" lon="-0.76308">
        <ele>1068.4</ele>
        <time>2021-12-29T13:22:53.000Z</time>
      </trkpt>
      <trkpt lat="43.02652" lon="-0.7631">
        <ele>1068.2</ele>
        <time>2021-12-29T13:22:54.000Z</time>
      </trkpt>
      <trkpt lat="43.02651" lon="-0.76312">
        <ele>1068</ele>
        <time>2021-12-29T13:22:55.000Z</time>
      </trkpt>
      <trkpt lat="43.0265" lon="-0.76313">
        <ele>1068</ele>
        <time>2021-12-29T13:22:56.000Z</time>
      </trkpt>
      <trkpt lat="43.02648" lon="-0.76315">
        <ele>1068</ele>
        <time>2021-12-29T13:22:57.000Z</time>
      </trkpt>
      <trkpt lat="43.02647" lon="-0.76316">
        <ele>1068</ele>
        <time>2021-12-29T13:22:58.000Z</time>
      </trkpt>
      <trkpt lat="43.02645" lon="-0.76317">
        <ele>1067.8</ele>
        <time>2021-12-29T13:22:59.000Z</time>
      </trkpt>
      <trkpt lat="43.02643" lon="-0.76317">
        <ele>1067.8</ele>
        <time>2021-12-29T13:23:00.000Z</time>
      </trkpt>
      <trkpt lat="43.02642" lon="-0.76318">
        <ele>1067.8</ele>
        <time>2021-12-29T13:23:01.000Z</time>
      </trkpt>
      <trkpt lat="43.02641" lon="-0.76319">
        <ele>1067.6</ele>
        <time>2021-12-29T13:23:02.000Z</time>
      </trkpt>
      <trkpt lat="43.0264" lon="-0.7632">
        <ele>1067.6</ele>
        <time>2021-12-29T13:23:03.000Z</time>
      </trkpt>
      <trkpt lat="43.02638" lon="-0.7632">
        <ele>1067.6</ele>
        <time>2021-12-29T13:23:04.000Z</time>
      </trkpt>
      <trkpt lat="43.02637" lon="-0.7632">
        <ele>1067.4</ele>
        <time>2021-12-29T13:23:05.000Z</time>
      </trkpt>
      <trkpt lat="43.02636" lon="-0.7632">
        <ele>1067.4</ele>
        <time>2021-12-29T13:23:06.000Z</time>
      </trkpt>
      <trkpt lat="43.02634" lon="-0.7632">
        <ele>1067.2</ele>
        <time>2021-12-29T13:23:07.000Z</time>
      </trkpt>
      <trkpt lat="43.02633" lon="-0.76321">
        <ele>1067.4</ele>
        <time>2021-12-29T13:23:08.000Z</time>
      </trkpt>
      <trkpt lat="43.02631" lon="-0.76321">
        <ele>1067.2</ele>
        <time>2021-12-29T13:23:09.000Z</time>
      </trkpt>
      <trkpt lat="43.0263" lon="-0.76321">
        <ele>1067.2</ele>
        <time>2021-12-29T13:23:10.000Z</time>
      </trkpt>
      <trkpt lat="43.02628" lon="-0.76321">
        <ele>1067</ele>
        <time>2021-12-29T13:23:11.000Z</time>
      </trkpt>
      <trkpt lat="43.02626" lon="-0.76321">
        <ele>1066.8</ele>
        <time>2021-12-29T13:23:12.000Z</time>
      </trkpt>
      <trkpt lat="43.02624" lon="-0.76321">
        <ele>1066.8</ele>
        <time>2021-12-29T13:23:13.000Z</time>
      </trkpt>
      <trkpt lat="43.02622" lon="-0.76321">
        <ele>1066.6</ele>
        <time>2021-12-29T13:23:14.000Z</time>
      </trkpt>
      <trkpt lat="43.0262" lon="-0.76322">
        <ele>1066.4</ele>
        <time>2021-12-29T13:23:15.000Z</time>
      </trkpt>
      <trkpt lat="43.02619" lon="-0.76321">
        <ele>1066.2</ele>
        <time>2021-12-29T13:23:16.000Z</time>
      </trkpt>
      <trkpt lat="43.02617" lon="-0.76321">
        <ele>1066</ele>
        <time>2021-12-29T13:23:17.000Z</time>
      </trkpt>
      <trkpt lat="43.02615" lon="-0.76322">
        <ele>1066</ele>
        <time>2021-12-29T13:23:18.000Z</time>
      </trkpt>
      <trkpt lat="43.02614" lon="-0.76321">
        <ele>1065.8</ele>
        <time>2021-12-29T13:23:19.000Z</time>
      </trkpt>
      <trkpt lat="43.02612" lon="-0.7632">
        <ele>1065.6</ele>
        <time>2021-12-29T13:23:20.000Z</time>
      </trkpt>
      <trkpt lat="43.0261" lon="-0.7632">
        <ele>1065.4</ele>
        <time>2021-12-29T13:23:21.000Z</time>
      </trkpt>
      <trkpt lat="43.02608" lon="-0.7632">
        <ele>1065.2</ele>
        <time>2021-12-29T13:23:22.000Z</time>
      </trkpt>
      <trkpt lat="43.02606" lon="-0.7632">
        <ele>1065.2</ele>
        <time>2021-12-29T13:23:23.000Z</time>
      </trkpt>
      <trkpt lat="43.02604" lon="-0.76318">
        <ele>1065</ele>
        <time>2021-12-29T13:23:24.000Z</time>
      </trkpt>
      <trkpt lat="43.02601" lon="-0.76317">
        <ele>1064.8</ele>
        <time>2021-12-29T13:23:25.000Z</time>
      </trkpt>
      <trkpt lat="43.02599" lon="-0.76317">
        <ele>1064.6</ele>
        <time>2021-12-29T13:23:26.000Z</time>
      </trkpt>
      <trkpt lat="43.02596" lon="-0.76316">
        <ele>1064.4</ele>
        <time>2021-12-29T13:23:27.000Z</time>
      </trkpt>
      <trkpt lat="43.02593" lon="-0.76317">
        <ele>1064.4</ele>
        <time>2021-12-29T13:23:28.000Z</time>
      </trkpt>
      <trkpt lat="43.0259" lon="-0.76317">
        <ele>1064.4</ele>
        <time>2021-12-29T13:23:29.000Z</time>
      </trkpt>
      <trkpt lat="43.02588" lon="-0.76319">
        <ele>1064.2</ele>
        <time>2021-12-29T13:23:30.000Z</time>
      </trkpt>
      <trkpt lat="43.02585" lon="-0.76319">
        <ele>1064.2</ele>
        <time>2021-12-29T13:23:31.000Z</time>
      </trkpt>
      <trkpt lat="43.02582" lon="-0.76319">
        <ele>1064.2</ele>
        <time>2021-12-29T13:23:32.000Z</time>
      </trkpt>
      <trkpt lat="43.0258" lon="-0.76319">
        <ele>1064</ele>
        <time>2021-12-29T13:23:33.000Z</time>
      </trkpt>
      <trkpt lat="43.02578" lon="-0.76318">
        <ele>1064</ele>
        <time>2021-12-29T13:23:34.000Z</time>
      </trkpt>
      <trkpt lat="43.02576" lon="-0.76318">
        <ele>1064</ele>
        <time>2021-12-29T13:23:35.000Z</time>
      </trkpt>
      <trkpt lat="43.02573" lon="-0.76317">
        <ele>1063.6</ele>
        <time>2021-12-29T13:23:36.000Z</time>
      </trkpt>
      <trkpt lat="43.0257" lon="-0.76317">
        <ele>1063.6</ele>
        <time>2021-12-29T13:23:37.000Z</time>
      </trkpt>
      <trkpt lat="43.02567" lon="-0.76317">
        <ele>1063.4</ele>
        <time>2021-12-29T13:23:38.000Z</time>
      </trkpt>
      <trkpt lat="43.02565" lon="-0.76316">
        <ele>1063.2</ele>
        <time>2021-12-29T13:23:39.000Z</time>
      </trkpt>
      <trkpt lat="43.02563" lon="-0.76315">
        <ele>1063</ele>
        <time>2021-12-29T13:23:40.000Z</time>
      </trkpt>
      <trkpt lat="43.02561" lon="-0.76314">
        <ele>1062.8</ele>
        <time>2021-12-29T13:23:41.000Z</time>
      </trkpt>
      <trkpt lat="43.0256" lon="-0.76313">
        <ele>1062.8</ele>
        <time>2021-12-29T13:23:42.000Z</time>
      </trkpt>
      <trkpt lat="43.02559" lon="-0.76311">
        <ele>1062.6</ele>
        <time>2021-12-29T13:23:43.000Z</time>
      </trkpt>
      <trkpt lat="43.02557" lon="-0.76312">
        <ele>1062.2</ele>
        <time>2021-12-29T13:23:44.000Z</time>
      </trkpt>
      <trkpt lat="43.02555" lon="-0.76311">
        <ele>1062</ele>
        <time>2021-12-29T13:23:45.000Z</time>
      </trkpt>
      <trkpt lat="43.02553" lon="-0.76309">
        <ele>1061.8</ele>
        <time>2021-12-29T13:23:46.000Z</time>
      </trkpt>
      <trkpt lat="43.02551" lon="-0.76307">
        <ele>1061.6</ele>
        <time>2021-12-29T13:23:47.000Z</time>
      </trkpt>
      <trkpt lat="43.02548" lon="-0.76305">
        <ele>1061</ele>
        <time>2021-12-29T13:23:48.000Z</time>
      </trkpt>
      <trkpt lat="43.02546" lon="-0.76303">
        <ele>1060.6</ele>
        <time>2021-12-29T13:23:49.000Z</time>
      </trkpt>
      <trkpt lat="43.02542" lon="-0.76304">
        <ele>1060.4</ele>
        <time>2021-12-29T13:23:50.000Z</time>
      </trkpt>
      <trkpt lat="43.02537" lon="-0.76305">
        <ele>1060.2</ele>
        <time>2021-12-29T13:23:51.000Z</time>
      </trkpt>
      <trkpt lat="43.02532" lon="-0.76307">
        <ele>1060.2</ele>
        <time>2021-12-29T13:23:52.000Z</time>
      </trkpt>
      <trkpt lat="43.02526" lon="-0.76309">
        <ele>1060</ele>
        <time>2021-12-29T13:23:53.000Z</time>
      </trkpt>
      <trkpt lat="43.0252" lon="-0.76312">
        <ele>1059.6</ele>
        <time>2021-12-29T13:23:54.000Z</time>
      </trkpt>
      <trkpt lat="43.02515" lon="-0.76316">
        <ele>1059.2</ele>
        <time>2021-12-29T13:23:55.000Z</time>
      </trkpt>
      <trkpt lat="43.0251" lon="-0.76321">
        <ele>1058.8</ele>
        <time>2021-12-29T13:23:56.000Z</time>
      </trkpt>
      <trkpt lat="43.02505" lon="-0.76326">
        <ele>1058.4</ele>
        <time>2021-12-29T13:23:57.000Z</time>
      </trkpt>
      <trkpt lat="43.025" lon="-0.76329">
        <ele>1058.2</ele>
        <time>2021-12-29T13:23:58.000Z</time>
      </trkpt>
      <trkpt lat="43.02496" lon="-0.76333">
        <ele>1058</ele>
        <time>2021-12-29T13:23:59.000Z</time>
      </trkpt>
      <trkpt lat="43.02493" lon="-0.76337">
        <ele>1058</ele>
        <time>2021-12-29T13:24:00.000Z</time>
      </trkpt>
      <trkpt lat="43.0249" lon="-0.7634">
        <ele>1058.2</ele>
        <time>2021-12-29T13:24:01.000Z</time>
      </trkpt>
      <trkpt lat="43.02488" lon="-0.76344">
        <ele>1058.2</ele>
        <time>2021-12-29T13:24:02.000Z</time>
      </trkpt>
      <trkpt lat="43.02488" lon="-0.76347">
        <ele>1058.2</ele>
        <time>2021-12-29T13:24:03.000Z</time>
      </trkpt>
      <trkpt lat="43.02487" lon="-0.7635">
        <ele>1058.2</ele>
        <time>2021-12-29T13:24:04.000Z</time>
      </trkpt>
      <trkpt lat="43.02487" lon="-0.76352">
        <ele>1058.2</ele>
        <time>2021-12-29T13:24:05.000Z</time>
      </trkpt>
      <trkpt lat="43.02488" lon="-0.76354">
        <ele>1058.2</ele>
        <time>2021-12-29T13:24:06.000Z</time>
      </trkpt>
      <trkpt lat="43.02488" lon="-0.76356">
        <ele>1058.2</ele>
        <time>2021-12-29T13:24:07.000Z</time>
      </trkpt>
      <trkpt lat="43.02488" lon="-0.76358">
        <ele>1058.2</ele>
        <time>2021-12-29T13:24:08.000Z</time>
      </trkpt>
      <trkpt lat="43.02488" lon="-0.76359">
        <ele>1058.2</ele>
        <time>2021-12-29T13:24:09.000Z</time>
      </trkpt>
      <trkpt lat="43.02488" lon="-0.7636">
        <ele>1058.4</ele>
        <time>2021-12-29T13:24:10.000Z</time>
      </trkpt>
      <trkpt lat="43.02488" lon="-0.76361">
        <ele>1058.4</ele>
        <time>2021-12-29T13:24:11.000Z</time>
      </trkpt>
      <trkpt lat="43.02489" lon="-0.76362">
        <ele>1058.4</ele>
        <time>2021-12-29T13:24:12.000Z</time>
      </trkpt>
      <trkpt lat="43.0249" lon="-0.76363">
        <ele>1058.4</ele>
        <time>2021-12-29T13:24:13.000Z</time>
      </trkpt>
      <trkpt lat="43.02491" lon="-0.76363">
        <ele>1058.4</ele>
        <time>2021-12-29T13:24:14.000Z</time>
      </trkpt>
      <trkpt lat="43.02491" lon="-0.76363">
        <ele>1058.4</ele>
        <time>2021-12-29T13:24:15.000Z</time>
      </trkpt>
      <trkpt lat="43.02492" lon="-0.76364">
        <ele>1058.6</ele>
        <time>2021-12-29T13:24:16.000Z</time>
      </trkpt>
      <trkpt lat="43.02492" lon="-0.76364">
        <ele>1058.8</ele>
        <time>2021-12-29T13:24:17.000Z</time>
      </trkpt>
      <trkpt lat="43.02491" lon="-0.76365">
        <ele>1059</ele>
        <time>2021-12-29T13:24:18.000Z</time>
      </trkpt>
      <trkpt lat="43.02491" lon="-0.76365">
        <ele>1059</ele>
        <time>2021-12-29T13:24:19.000Z</time>
      </trkpt>
      <trkpt lat="43.02492" lon="-0.76366">
        <ele>1059.2</ele>
        <time>2021-12-29T13:24:20.000Z</time>
      </trkpt>
      <trkpt lat="43.02493" lon="-0.76366">
        <ele>1059.4</ele>
        <time>2021-12-29T13:24:21.000Z</time>
      </trkpt>
      <trkpt lat="43.02493" lon="-0.76366">
        <ele>1059.6</ele>
        <time>2021-12-29T13:24:33.000Z</time>
      </trkpt>
      <trkpt lat="43.02507" lon="-0.76371">
        <ele>1061.8</ele>
        <time>2021-12-29T13:24:34.000Z</time>
      </trkpt>
      <trkpt lat="43.02508" lon="-0.76372">
        <ele>1061.8</ele>
        <time>2021-12-29T13:24:35.000Z</time>
      </trkpt>
      <trkpt lat="43.02508" lon="-0.76373">
        <ele>1062</ele>
        <time>2021-12-29T13:24:36.000Z</time>
      </trkpt>
      <trkpt lat="43.02508" lon="-0.76375">
        <ele>1062.2</ele>
        <time>2021-12-29T13:24:37.000Z</time>
      </trkpt>
      <trkpt lat="43.02509" lon="-0.76376">
        <ele>1062.4</ele>
        <time>2021-12-29T13:24:38.000Z</time>
      </trkpt>
      <trkpt lat="43.0251" lon="-0.76378">
        <ele>1062.4</ele>
        <time>2021-12-29T13:24:39.000Z</time>
      </trkpt>
      <trkpt lat="43.0251" lon="-0.76379">
        <ele>1062.6</ele>
        <time>2021-12-29T13:24:40.000Z</time>
      </trkpt>
      <trkpt lat="43.02511" lon="-0.76381">
        <ele>1062.6</ele>
        <time>2021-12-29T13:24:41.000Z</time>
      </trkpt>
      <trkpt lat="43.02511" lon="-0.76382">
        <ele>1062.6</ele>
        <time>2021-12-29T13:24:42.000Z</time>
      </trkpt>
      <trkpt lat="43.02511" lon="-0.76383">
        <ele>1062.8</ele>
        <time>2021-12-29T13:24:43.000Z</time>
      </trkpt>
      <trkpt lat="43.02512" lon="-0.76385">
        <ele>1062.8</ele>
        <time>2021-12-29T13:24:44.000Z</time>
      </trkpt>
      <trkpt lat="43.02513" lon="-0.76386">
        <ele>1062.8</ele>
        <time>2021-12-29T13:24:45.000Z</time>
      </trkpt>
      <trkpt lat="43.02513" lon="-0.76388">
        <ele>1063</ele>
        <time>2021-12-29T13:24:46.000Z</time>
      </trkpt>
      <trkpt lat="43.02514" lon="-0.76389">
        <ele>1063</ele>
        <time>2021-12-29T13:24:47.000Z</time>
      </trkpt>
      <trkpt lat="43.02515" lon="-0.76391">
        <ele>1063.2</ele>
        <time>2021-12-29T13:24:48.000Z</time>
      </trkpt>
      <trkpt lat="43.02516" lon="-0.76393">
        <ele>1063.2</ele>
        <time>2021-12-29T13:24:49.000Z</time>
      </trkpt>
      <trkpt lat="43.02517" lon="-0.76395">
        <ele>1063.2</ele>
        <time>2021-12-29T13:24:50.000Z</time>
      </trkpt>
      <trkpt lat="43.02518" lon="-0.76397">
        <ele>1063</ele>
        <time>2021-12-29T13:24:51.000Z</time>
      </trkpt>
      <trkpt lat="43.02518" lon="-0.76399">
        <ele>1063</ele>
        <time>2021-12-29T13:24:52.000Z</time>
      </trkpt>
      <trkpt lat="43.02519" lon="-0.76401">
        <ele>1063</ele>
        <time>2021-12-29T13:24:53.000Z</time>
      </trkpt>
      <trkpt lat="43.02521" lon="-0.76402">
        <ele>1062.8</ele>
        <time>2021-12-29T13:24:54.000Z</time>
      </trkpt>
      <trkpt lat="43.02522" lon="-0.76405">
        <ele>1062.6</ele>
        <time>2021-12-29T13:24:55.000Z</time>
      </trkpt>
      <trkpt lat="43.02524" lon="-0.76406">
        <ele>1062.6</ele>
        <time>2021-12-29T13:24:56.000Z</time>
      </trkpt>
      <trkpt lat="43.02524" lon="-0.76408">
        <ele>1062.6</ele>
        <time>2021-12-29T13:24:57.000Z</time>
      </trkpt>
      <trkpt lat="43.02526" lon="-0.76409">
        <ele>1062.6</ele>
        <time>2021-12-29T13:24:58.000Z</time>
      </trkpt>
      <trkpt lat="43.02527" lon="-0.7641">
        <ele>1062.6</ele>
        <time>2021-12-29T13:24:59.000Z</time>
      </trkpt>
      <trkpt lat="43.02529" lon="-0.7641">
        <ele>1062.4</ele>
        <time>2021-12-29T13:25:00.000Z</time>
      </trkpt>
      <trkpt lat="43.02531" lon="-0.76411">
        <ele>1062.4</ele>
        <time>2021-12-29T13:25:01.000Z</time>
      </trkpt>
      <trkpt lat="43.02533" lon="-0.76412">
        <ele>1062.2</ele>
        <time>2021-12-29T13:25:02.000Z</time>
      </trkpt>
      <trkpt lat="43.02536" lon="-0.76413">
        <ele>1062.2</ele>
        <time>2021-12-29T13:25:03.000Z</time>
      </trkpt>
      <trkpt lat="43.02537" lon="-0.76414">
        <ele>1062</ele>
        <time>2021-12-29T13:25:04.000Z</time>
      </trkpt>
      <trkpt lat="43.0254" lon="-0.76415">
        <ele>1061.8</ele>
        <time>2021-12-29T13:25:05.000Z</time>
      </trkpt>
      <trkpt lat="43.02542" lon="-0.76416">
        <ele>1061.8</ele>
        <time>2021-12-29T13:25:06.000Z</time>
      </trkpt>
      <trkpt lat="43.02544" lon="-0.76416">
        <ele>1061.6</ele>
        <time>2021-12-29T13:25:07.000Z</time>
      </trkpt>
      <trkpt lat="43.02546" lon="-0.76416">
        <ele>1061.6</ele>
        <time>2021-12-29T13:25:08.000Z</time>
      </trkpt>
      <trkpt lat="43.02549" lon="-0.76418">
        <ele>1061.4</ele>
        <time>2021-12-29T13:25:09.000Z</time>
      </trkpt>
      <trkpt lat="43.0255" lon="-0.76419">
        <ele>1061.2</ele>
        <time>2021-12-29T13:25:10.000Z</time>
      </trkpt>
      <trkpt lat="43.02552" lon="-0.76422">
        <ele>1061</ele>
        <time>2021-12-29T13:25:11.000Z</time>
      </trkpt>
      <trkpt lat="43.02554" lon="-0.76423">
        <ele>1060.8</ele>
        <time>2021-12-29T13:25:12.000Z</time>
      </trkpt>
      <trkpt lat="43.02556" lon="-0.76425">
        <ele>1060.4</ele>
        <time>2021-12-29T13:25:13.000Z</time>
      </trkpt>
      <trkpt lat="43.02558" lon="-0.76425">
        <ele>1060</ele>
        <time>2021-12-29T13:25:14.000Z</time>
      </trkpt>
      <trkpt lat="43.0256" lon="-0.76426">
        <ele>1059.6</ele>
        <time>2021-12-29T13:25:15.000Z</time>
      </trkpt>
      <trkpt lat="43.0256" lon="-0.76427">
        <ele>1059.4</ele>
        <time>2021-12-29T13:25:16.000Z</time>
      </trkpt>
      <trkpt lat="43.02562" lon="-0.7643">
        <ele>1059.2</ele>
        <time>2021-12-29T13:25:17.000Z</time>
      </trkpt>
      <trkpt lat="43.02564" lon="-0.76432">
        <ele>1059</ele>
        <time>2021-12-29T13:25:18.000Z</time>
      </trkpt>
      <trkpt lat="43.02566" lon="-0.76433">
        <ele>1059</ele>
        <time>2021-12-29T13:25:19.000Z</time>
      </trkpt>
      <trkpt lat="43.02568" lon="-0.76434">
        <ele>1059.2</ele>
        <time>2021-12-29T13:25:20.000Z</time>
      </trkpt>
      <trkpt lat="43.02569" lon="-0.76435">
        <ele>1059.4</ele>
        <time>2021-12-29T13:25:21.000Z</time>
      </trkpt>
      <trkpt lat="43.02571" lon="-0.76435">
        <ele>1059.6</ele>
        <time>2021-12-29T13:25:22.000Z</time>
      </trkpt>
      <trkpt lat="43.02573" lon="-0.76436">
        <ele>1059.8</ele>
        <time>2021-12-29T13:25:23.000Z</time>
      </trkpt>
      <trkpt lat="43.02574" lon="-0.76437">
        <ele>1060</ele>
        <time>2021-12-29T13:25:24.000Z</time>
      </trkpt>
      <trkpt lat="43.02576" lon="-0.76437">
        <ele>1060.2</ele>
        <time>2021-12-29T13:25:25.000Z</time>
      </trkpt>
      <trkpt lat="43.02578" lon="-0.76438">
        <ele>1060.4</ele>
        <time>2021-12-29T13:25:26.000Z</time>
      </trkpt>
      <trkpt lat="43.02578" lon="-0.76439">
        <ele>1060.6</ele>
        <time>2021-12-29T13:25:27.000Z</time>
      </trkpt>
      <trkpt lat="43.02578" lon="-0.7644">
        <ele>1060.6</ele>
        <time>2021-12-29T13:25:28.000Z</time>
      </trkpt>
      <trkpt lat="43.02579" lon="-0.7644">
        <ele>1060.8</ele>
        <time>2021-12-29T13:25:29.000Z</time>
      </trkpt>
      <trkpt lat="43.02579" lon="-0.76441">
        <ele>1061</ele>
        <time>2021-12-29T13:25:30.000Z</time>
      </trkpt>
      <trkpt lat="43.02581" lon="-0.76442">
        <ele>1061.2</ele>
        <time>2021-12-29T13:25:31.000Z</time>
      </trkpt>
      <trkpt lat="43.02582" lon="-0.76443">
        <ele>1061.2</ele>
        <time>2021-12-29T13:25:32.000Z</time>
      </trkpt>
      <trkpt lat="43.02583" lon="-0.76445">
        <ele>1061.4</ele>
        <time>2021-12-29T13:25:33.000Z</time>
      </trkpt>
      <trkpt lat="43.02585" lon="-0.76445">
        <ele>1061.4</ele>
        <time>2021-12-29T13:25:34.000Z</time>
      </trkpt>
      <trkpt lat="43.02586" lon="-0.76446">
        <ele>1061.4</ele>
        <time>2021-12-29T13:25:35.000Z</time>
      </trkpt>
      <trkpt lat="43.02588" lon="-0.76447">
        <ele>1061.6</ele>
        <time>2021-12-29T13:25:36.000Z</time>
      </trkpt>
      <trkpt lat="43.02589" lon="-0.76447">
        <ele>1061.6</ele>
        <time>2021-12-29T13:25:37.000Z</time>
      </trkpt>
      <trkpt lat="43.02589" lon="-0.76447">
        <ele>1061.8</ele>
        <time>2021-12-29T13:25:38.000Z</time>
      </trkpt>
      <trkpt lat="43.0259" lon="-0.76448">
        <ele>1062</ele>
        <time>2021-12-29T13:25:39.000Z</time>
      </trkpt>
      <trkpt lat="43.02591" lon="-0.76449">
        <ele>1062.2</ele>
        <time>2021-12-29T13:25:40.000Z</time>
      </trkpt>
      <trkpt lat="43.02592" lon="-0.7645">
        <ele>1062.4</ele>
        <time>2021-12-29T13:25:41.000Z</time>
      </trkpt>
      <trkpt lat="43.02594" lon="-0.76451">
        <ele>1062.4</ele>
        <time>2021-12-29T13:25:42.000Z</time>
      </trkpt>
      <trkpt lat="43.02595" lon="-0.76452">
        <ele>1062.6</ele>
        <time>2021-12-29T13:25:43.000Z</time>
      </trkpt>
      <trkpt lat="43.02595" lon="-0.76453">
        <ele>1062.8</ele>
        <time>2021-12-29T13:25:44.000Z</time>
      </trkpt>
      <trkpt lat="43.02597" lon="-0.76454">
        <ele>1063</ele>
        <time>2021-12-29T13:25:45.000Z</time>
      </trkpt>
      <trkpt lat="43.02598" lon="-0.76455">
        <ele>1063.2</ele>
        <time>2021-12-29T13:25:46.000Z</time>
      </trkpt>
      <trkpt lat="43.02599" lon="-0.76457">
        <ele>1063.2</ele>
        <time>2021-12-29T13:25:47.000Z</time>
      </trkpt>
      <trkpt lat="43.02601" lon="-0.76457">
        <ele>1063.4</ele>
        <time>2021-12-29T13:25:48.000Z</time>
      </trkpt>
      <trkpt lat="43.02602" lon="-0.76458">
        <ele>1063.6</ele>
        <time>2021-12-29T13:25:49.000Z</time>
      </trkpt>
      <trkpt lat="43.02603" lon="-0.76459">
        <ele>1063.8</ele>
        <time>2021-12-29T13:25:50.000Z</time>
      </trkpt>
      <trkpt lat="43.02604" lon="-0.7646">
        <ele>1064</ele>
        <time>2021-12-29T13:25:51.000Z</time>
      </trkpt>
      <trkpt lat="43.02604" lon="-0.76461">
        <ele>1064.2</ele>
        <time>2021-12-29T13:25:52.000Z</time>
      </trkpt>
      <trkpt lat="43.02606" lon="-0.76462">
        <ele>1064.6</ele>
        <time>2021-12-29T13:25:53.000Z</time>
      </trkpt>
      <trkpt lat="43.02609" lon="-0.76464">
        <ele>1064.8</ele>
        <time>2021-12-29T13:25:54.000Z</time>
      </trkpt>
      <trkpt lat="43.02611" lon="-0.76465">
        <ele>1065</ele>
        <time>2021-12-29T13:25:55.000Z</time>
      </trkpt>
      <trkpt lat="43.02614" lon="-0.76466">
        <ele>1065.2</ele>
        <time>2021-12-29T13:26:00.000Z</time>
      </trkpt>
      <trkpt lat="43.02622" lon="-0.76468">
        <ele>1066.2</ele>
        <time>2021-12-29T13:26:01.000Z</time>
      </trkpt>
      <trkpt lat="43.02624" lon="-0.76469">
        <ele>1066.4</ele>
        <time>2021-12-29T13:26:02.000Z</time>
      </trkpt>
      <trkpt lat="43.02627" lon="-0.7647">
        <ele>1066.6</ele>
        <time>2021-12-29T13:26:03.000Z</time>
      </trkpt>
      <trkpt lat="43.02629" lon="-0.7647">
        <ele>1066.8</ele>
        <time>2021-12-29T13:26:04.000Z</time>
      </trkpt>
      <trkpt lat="43.02631" lon="-0.7647">
        <ele>1067</ele>
        <time>2021-12-29T13:26:05.000Z</time>
      </trkpt>
      <trkpt lat="43.02632" lon="-0.7647">
        <ele>1067</ele>
        <time>2021-12-29T13:26:06.000Z</time>
      </trkpt>
      <trkpt lat="43.02633" lon="-0.76471">
        <ele>1067.2</ele>
        <time>2021-12-29T13:26:07.000Z</time>
      </trkpt>
      <trkpt lat="43.02636" lon="-0.76471">
        <ele>1067.4</ele>
        <time>2021-12-29T13:26:08.000Z</time>
      </trkpt>
      <trkpt lat="43.02638" lon="-0.76472">
        <ele>1067.6</ele>
        <time>2021-12-29T13:26:09.000Z</time>
      </trkpt>
      <trkpt lat="43.02641" lon="-0.76473">
        <ele>1067.6</ele>
        <time>2021-12-29T13:26:10.000Z</time>
      </trkpt>
      <trkpt lat="43.02642" lon="-0.76474">
        <ele>1067.8</ele>
        <time>2021-12-29T13:26:11.000Z</time>
      </trkpt>
      <trkpt lat="43.02644" lon="-0.76474">
        <ele>1067.8</ele>
        <time>2021-12-29T13:26:12.000Z</time>
      </trkpt>
      <trkpt lat="43.02645" lon="-0.76475">
        <ele>1068</ele>
        <time>2021-12-29T13:26:13.000Z</time>
      </trkpt>
      <trkpt lat="43.02646" lon="-0.76475">
        <ele>1068.4</ele>
        <time>2021-12-29T13:26:14.000Z</time>
      </trkpt>
      <trkpt lat="43.02648" lon="-0.76476">
        <ele>1068.4</ele>
        <time>2021-12-29T13:26:15.000Z</time>
      </trkpt>
      <trkpt lat="43.02651" lon="-0.76477">
        <ele>1068.6</ele>
        <time>2021-12-29T13:26:16.000Z</time>
      </trkpt>
      <trkpt lat="43.02653" lon="-0.76477">
        <ele>1068.8</ele>
        <time>2021-12-29T13:26:17.000Z</time>
      </trkpt>
      <trkpt lat="43.02655" lon="-0.76478">
        <ele>1068.8</ele>
        <time>2021-12-29T13:26:18.000Z</time>
      </trkpt>
      <trkpt lat="43.02655" lon="-0.76478">
        <ele>1069</ele>
        <time>2021-12-29T13:26:19.000Z</time>
      </trkpt>
      <trkpt lat="43.02656" lon="-0.76479">
        <ele>1069</ele>
        <time>2021-12-29T13:26:20.000Z</time>
      </trkpt>
      <trkpt lat="43.02658" lon="-0.76479">
        <ele>1069</ele>
        <time>2021-12-29T13:26:21.000Z</time>
      </trkpt>
      <trkpt lat="43.02659" lon="-0.7648">
        <ele>1069</ele>
        <time>2021-12-29T13:26:22.000Z</time>
      </trkpt>
      <trkpt lat="43.02661" lon="-0.76481">
        <ele>1069.2</ele>
        <time>2021-12-29T13:26:23.000Z</time>
      </trkpt>
      <trkpt lat="43.02663" lon="-0.76482">
        <ele>1069.2</ele>
        <time>2021-12-29T13:26:24.000Z</time>
      </trkpt>
      <trkpt lat="43.02664" lon="-0.76483">
        <ele>1069.2</ele>
        <time>2021-12-29T13:26:25.000Z</time>
      </trkpt>
      <trkpt lat="43.02666" lon="-0.76484">
        <ele>1069.2</ele>
        <time>2021-12-29T13:26:26.000Z</time>
      </trkpt>
      <trkpt lat="43.02668" lon="-0.76486">
        <ele>1069.4</ele>
        <time>2021-12-29T13:26:27.000Z</time>
      </trkpt>
      <trkpt lat="43.0267" lon="-0.76488">
        <ele>1069.4</ele>
        <time>2021-12-29T13:26:28.000Z</time>
      </trkpt>
      <trkpt lat="43.02672" lon="-0.76491">
        <ele>1069.6</ele>
        <time>2021-12-29T13:26:29.000Z</time>
      </trkpt>
      <trkpt lat="43.02675" lon="-0.76493">
        <ele>1069.6</ele>
        <time>2021-12-29T13:26:30.000Z</time>
      </trkpt>
      <trkpt lat="43.02677" lon="-0.76495">
        <ele>1069.8</ele>
        <time>2021-12-29T13:26:31.000Z</time>
      </trkpt>
      <trkpt lat="43.02679" lon="-0.76496">
        <ele>1070</ele>
        <time>2021-12-29T13:26:32.000Z</time>
      </trkpt>
      <trkpt lat="43.02681" lon="-0.76498">
        <ele>1070.2</ele>
        <time>2021-12-29T13:26:33.000Z</time>
      </trkpt>
      <trkpt lat="43.02683" lon="-0.765">
        <ele>1070.4</ele>
        <time>2021-12-29T13:26:34.000Z</time>
      </trkpt>
      <trkpt lat="43.02685" lon="-0.76502">
        <ele>1070.6</ele>
        <time>2021-12-29T13:26:35.000Z</time>
      </trkpt>
      <trkpt lat="43.02687" lon="-0.76504">
        <ele>1070.6</ele>
        <time>2021-12-29T13:26:36.000Z</time>
      </trkpt>
      <trkpt lat="43.02688" lon="-0.76505">
        <ele>1071</ele>
        <time>2021-12-29T13:26:37.000Z</time>
      </trkpt>
      <trkpt lat="43.02688" lon="-0.76506">
        <ele>1071.2</ele>
        <time>2021-12-29T13:26:38.000Z</time>
      </trkpt>
      <trkpt lat="43.0269" lon="-0.76507">
        <ele>1071.4</ele>
        <time>2021-12-29T13:26:39.000Z</time>
      </trkpt>
      <trkpt lat="43.02691" lon="-0.7651">
        <ele>1071.4</ele>
        <time>2021-12-29T13:26:40.000Z</time>
      </trkpt>
      <trkpt lat="43.02693" lon="-0.76512">
        <ele>1071.6</ele>
        <time>2021-12-29T13:26:41.000Z</time>
      </trkpt>
      <trkpt lat="43.02695" lon="-0.76514">
        <ele>1071.8</ele>
        <time>2021-12-29T13:26:42.000Z</time>
      </trkpt>
      <trkpt lat="43.02695" lon="-0.76515">
        <ele>1071.8</ele>
        <time>2021-12-29T13:26:43.000Z</time>
      </trkpt>
      <trkpt lat="43.02697" lon="-0.76517">
        <ele>1072</ele>
        <time>2021-12-29T13:26:44.000Z</time>
      </trkpt>
      <trkpt lat="43.02699" lon="-0.76518">
        <ele>1072</ele>
        <time>2021-12-29T13:26:45.000Z</time>
      </trkpt>
      <trkpt lat="43.02701" lon="-0.7652">
        <ele>1072.2</ele>
        <time>2021-12-29T13:26:46.000Z</time>
      </trkpt>
      <trkpt lat="43.02703" lon="-0.76522">
        <ele>1072.2</ele>
        <time>2021-12-29T13:26:47.000Z</time>
      </trkpt>
      <trkpt lat="43.02704" lon="-0.76524">
        <ele>1072.2</ele>
        <time>2021-12-29T13:26:48.000Z</time>
      </trkpt>
      <trkpt lat="43.02706" lon="-0.76526">
        <ele>1072.2</ele>
        <time>2021-12-29T13:26:49.000Z</time>
      </trkpt>
      <trkpt lat="43.02709" lon="-0.76528">
        <ele>1072.2</ele>
        <time>2021-12-29T13:26:50.000Z</time>
      </trkpt>
      <trkpt lat="43.02711" lon="-0.7653">
        <ele>1072.2</ele>
        <time>2021-12-29T13:26:51.000Z</time>
      </trkpt>
      <trkpt lat="43.02713" lon="-0.76531">
        <ele>1072.2</ele>
        <time>2021-12-29T13:26:52.000Z</time>
      </trkpt>
      <trkpt lat="43.02715" lon="-0.76533">
        <ele>1072.2</ele>
        <time>2021-12-29T13:26:53.000Z</time>
      </trkpt>
      <trkpt lat="43.02716" lon="-0.76534">
        <ele>1072.2</ele>
        <time>2021-12-29T13:26:54.000Z</time>
      </trkpt>
      <trkpt lat="43.02718" lon="-0.76535">
        <ele>1072.2</ele>
        <time>2021-12-29T13:26:55.000Z</time>
      </trkpt>
      <trkpt lat="43.02719" lon="-0.76537">
        <ele>1072.4</ele>
        <time>2021-12-29T13:26:56.000Z</time>
      </trkpt>
      <trkpt lat="43.0272" lon="-0.76538">
        <ele>1072.4</ele>
        <time>2021-12-29T13:26:57.000Z</time>
      </trkpt>
      <trkpt lat="43.02722" lon="-0.76539">
        <ele>1072.6</ele>
        <time>2021-12-29T13:26:58.000Z</time>
      </trkpt>
      <trkpt lat="43.02724" lon="-0.7654">
        <ele>1072.6</ele>
        <time>2021-12-29T13:26:59.000Z</time>
      </trkpt>
      <trkpt lat="43.02725" lon="-0.7654">
        <ele>1072.6</ele>
        <time>2021-12-29T13:27:00.000Z</time>
      </trkpt>
      <trkpt lat="43.02726" lon="-0.7654">
        <ele>1072.6</ele>
        <time>2021-12-29T13:27:01.000Z</time>
      </trkpt>
      <trkpt lat="43.02727" lon="-0.76541">
        <ele>1072.6</ele>
        <time>2021-12-29T13:27:02.000Z</time>
      </trkpt>
      <trkpt lat="43.02728" lon="-0.76541">
        <ele>1072.6</ele>
        <time>2021-12-29T13:27:03.000Z</time>
      </trkpt>
      <trkpt lat="43.02729" lon="-0.76541">
        <ele>1072.6</ele>
        <time>2021-12-29T13:27:04.000Z</time>
      </trkpt>
      <trkpt lat="43.0273" lon="-0.76541">
        <ele>1072.6</ele>
        <time>2021-12-29T13:34:20.000Z</time>
      </trkpt>
      <trkpt lat="43.02777" lon="-0.76564">
        <ele>1074.8</ele>
        <time>2021-12-29T13:34:21.000Z</time>
      </trkpt>
      <trkpt lat="43.02777" lon="-0.76566">
        <ele>1075</ele>
        <time>2021-12-29T13:34:22.000Z</time>
      </trkpt>
      <trkpt lat="43.02777" lon="-0.76567">
        <ele>1075.2</ele>
        <time>2021-12-29T13:34:23.000Z</time>
      </trkpt>
      <trkpt lat="43.02777" lon="-0.76568">
        <ele>1075.4</ele>
        <time>2021-12-29T13:34:24.000Z</time>
      </trkpt>
      <trkpt lat="43.02777" lon="-0.76569">
        <ele>1075.8</ele>
        <time>2021-12-29T13:34:25.000Z</time>
      </trkpt>
      <trkpt lat="43.02777" lon="-0.7657">
        <ele>1076</ele>
        <time>2021-12-29T13:34:26.000Z</time>
      </trkpt>
      <trkpt lat="43.02776" lon="-0.76572">
        <ele>1076.2</ele>
        <time>2021-12-29T13:34:27.000Z</time>
      </trkpt>
      <trkpt lat="43.02776" lon="-0.76574">
        <ele>1076.4</ele>
        <time>2021-12-29T13:34:28.000Z</time>
      </trkpt>
      <trkpt lat="43.02775" lon="-0.76575">
        <ele>1076.6</ele>
        <time>2021-12-29T13:34:29.000Z</time>
      </trkpt>
      <trkpt lat="43.02775" lon="-0.76576">
        <ele>1076.8</ele>
        <time>2021-12-29T13:34:42.000Z</time>
      </trkpt>
      <trkpt lat="43.02776" lon="-0.76601">
        <ele>1079</ele>
        <time>2021-12-29T13:34:43.000Z</time>
      </trkpt>
      <trkpt lat="43.02777" lon="-0.76603">
        <ele>1078.8</ele>
        <time>2021-12-29T13:34:44.000Z</time>
      </trkpt>
      <trkpt lat="43.02778" lon="-0.76605">
        <ele>1078.6</ele>
        <time>2021-12-29T13:34:45.000Z</time>
      </trkpt>
      <trkpt lat="43.02778" lon="-0.76607">
        <ele>1078.6</ele>
        <time>2021-12-29T13:34:46.000Z</time>
      </trkpt>
      <trkpt lat="43.02778" lon="-0.76608">
        <ele>1078.6</ele>
        <time>2021-12-29T13:34:47.000Z</time>
      </trkpt>
      <trkpt lat="43.02779" lon="-0.76609">
        <ele>1078.4</ele>
        <time>2021-12-29T13:34:48.000Z</time>
      </trkpt>
      <trkpt lat="43.0278" lon="-0.7661">
        <ele>1078.4</ele>
        <time>2021-12-29T13:34:49.000Z</time>
      </trkpt>
      <trkpt lat="43.02781" lon="-0.7661">
        <ele>1078.4</ele>
        <time>2021-12-29T13:34:50.000Z</time>
      </trkpt>
      <trkpt lat="43.02784" lon="-0.7661">
        <ele>1078.4</ele>
        <time>2021-12-29T13:34:51.000Z</time>
      </trkpt>
      <trkpt lat="43.02785" lon="-0.7661">
        <ele>1078.4</ele>
        <time>2021-12-29T13:34:52.000Z</time>
      </trkpt>
      <trkpt lat="43.02786" lon="-0.7661">
        <ele>1078.6</ele>
        <time>2021-12-29T13:34:53.000Z</time>
      </trkpt>
      <trkpt lat="43.02786" lon="-0.7661">
        <ele>1078.6</ele>
        <time>2021-12-29T13:34:54.000Z</time>
      </trkpt>
      <trkpt lat="43.02788" lon="-0.76609">
        <ele>1078.6</ele>
        <time>2021-12-29T13:34:55.000Z</time>
      </trkpt>
      <trkpt lat="43.02789" lon="-0.76608">
        <ele>1078.6</ele>
        <time>2021-12-29T13:34:56.000Z</time>
      </trkpt>
      <trkpt lat="43.02791" lon="-0.76607">
        <ele>1078.6</ele>
        <time>2021-12-29T13:34:57.000Z</time>
      </trkpt>
      <trkpt lat="43.02793" lon="-0.76606">
        <ele>1078.6</ele>
        <time>2021-12-29T13:34:58.000Z</time>
      </trkpt>
      <trkpt lat="43.02794" lon="-0.76607">
        <ele>1078.4</ele>
        <time>2021-12-29T13:34:59.000Z</time>
      </trkpt>
      <trkpt lat="43.02795" lon="-0.76608">
        <ele>1078.2</ele>
        <time>2021-12-29T13:35:00.000Z</time>
      </trkpt>
      <trkpt lat="43.02796" lon="-0.76609">
        <ele>1078.2</ele>
        <time>2021-12-29T13:35:01.000Z</time>
      </trkpt>
      <trkpt lat="43.02798" lon="-0.76609">
        <ele>1078</ele>
        <time>2021-12-29T13:35:02.000Z</time>
      </trkpt>
      <trkpt lat="43.02799" lon="-0.7661">
        <ele>1078</ele>
        <time>2021-12-29T13:35:03.000Z</time>
      </trkpt>
      <trkpt lat="43.028" lon="-0.7661">
        <ele>1078</ele>
        <time>2021-12-29T13:35:04.000Z</time>
      </trkpt>
      <trkpt lat="43.02802" lon="-0.76611">
        <ele>1078</ele>
        <time>2021-12-29T13:35:05.000Z</time>
      </trkpt>
      <trkpt lat="43.02803" lon="-0.76612">
        <ele>1078.2</ele>
        <time>2021-12-29T13:35:06.000Z</time>
      </trkpt>
      <trkpt lat="43.02803" lon="-0.76613">
        <ele>1078.2</ele>
        <time>2021-12-29T13:35:07.000Z</time>
      </trkpt>
      <trkpt lat="43.02805" lon="-0.76613">
        <ele>1078.4</ele>
        <time>2021-12-29T13:35:08.000Z</time>
      </trkpt>
      <trkpt lat="43.02805" lon="-0.76613">
        <ele>1078.4</ele>
        <time>2021-12-29T13:35:09.000Z</time>
      </trkpt>
      <trkpt lat="43.02807" lon="-0.76613">
        <ele>1078.6</ele>
        <time>2021-12-29T13:35:10.000Z</time>
      </trkpt>
      <trkpt lat="43.02808" lon="-0.76615">
        <ele>1078.8</ele>
        <time>2021-12-29T13:35:11.000Z</time>
      </trkpt>
      <trkpt lat="43.02808" lon="-0.76618">
        <ele>1079</ele>
        <time>2021-12-29T13:35:12.000Z</time>
      </trkpt>
      <trkpt lat="43.02809" lon="-0.76619">
        <ele>1079.4</ele>
        <time>2021-12-29T13:35:13.000Z</time>
      </trkpt>
      <trkpt lat="43.0281" lon="-0.76621">
        <ele>1079.6</ele>
        <time>2021-12-29T13:35:14.000Z</time>
      </trkpt>
      <trkpt lat="43.02811" lon="-0.76621">
        <ele>1079.8</ele>
        <time>2021-12-29T13:35:15.000Z</time>
      </trkpt>
      <trkpt lat="43.02812" lon="-0.76622">
        <ele>1079.8</ele>
        <time>2021-12-29T13:35:16.000Z</time>
      </trkpt>
      <trkpt lat="43.02814" lon="-0.76623">
        <ele>1080</ele>
        <time>2021-12-29T13:35:17.000Z</time>
      </trkpt>
      <trkpt lat="43.02816" lon="-0.76623">
        <ele>1080.2</ele>
        <time>2021-12-29T13:35:18.000Z</time>
      </trkpt>
      <trkpt lat="43.02817" lon="-0.76622">
        <ele>1080.6</ele>
        <time>2021-12-29T13:35:19.000Z</time>
      </trkpt>
      <trkpt lat="43.02819" lon="-0.76622">
        <ele>1080.8</ele>
        <time>2021-12-29T13:35:37.000Z</time>
      </trkpt>
      <trkpt lat="43.02845" lon="-0.76618">
        <ele>1083</ele>
        <time>2021-12-29T13:35:38.000Z</time>
      </trkpt>
      <trkpt lat="43.02848" lon="-0.76617">
        <ele>1083</ele>
        <time>2021-12-29T13:35:39.000Z</time>
      </trkpt>
      <trkpt lat="43.02849" lon="-0.76617">
        <ele>1083</ele>
        <time>2021-12-29T13:35:40.000Z</time>
      </trkpt>
      <trkpt lat="43.02852" lon="-0.76616">
        <ele>1083</ele>
        <time>2021-12-29T13:35:41.000Z</time>
      </trkpt>
      <trkpt lat="43.02853" lon="-0.76615">
        <ele>1082.8</ele>
        <time>2021-12-29T13:35:42.000Z</time>
      </trkpt>
      <trkpt lat="43.02854" lon="-0.76615">
        <ele>1082.8</ele>
        <time>2021-12-29T13:35:43.000Z</time>
      </trkpt>
      <trkpt lat="43.02856" lon="-0.76615">
        <ele>1083</ele>
        <time>2021-12-29T13:35:44.000Z</time>
      </trkpt>
      <trkpt lat="43.02858" lon="-0.76614">
        <ele>1082.8</ele>
        <time>2021-12-29T13:35:45.000Z</time>
      </trkpt>
      <trkpt lat="43.02861" lon="-0.76614">
        <ele>1082.8</ele>
        <time>2021-12-29T13:35:46.000Z</time>
      </trkpt>
      <trkpt lat="43.02863" lon="-0.76616">
        <ele>1082.6</ele>
        <time>2021-12-29T13:35:47.000Z</time>
      </trkpt>
      <trkpt lat="43.02865" lon="-0.76617">
        <ele>1082.4</ele>
        <time>2021-12-29T13:35:48.000Z</time>
      </trkpt>
      <trkpt lat="43.02867" lon="-0.76619">
        <ele>1082.2</ele>
        <time>2021-12-29T13:35:49.000Z</time>
      </trkpt>
      <trkpt lat="43.0287" lon="-0.76621">
        <ele>1082</ele>
        <time>2021-12-29T13:35:50.000Z</time>
      </trkpt>
      <trkpt lat="43.02872" lon="-0.76622">
        <ele>1081.8</ele>
        <time>2021-12-29T13:35:51.000Z</time>
      </trkpt>
      <trkpt lat="43.02876" lon="-0.76623">
        <ele>1081.6</ele>
        <time>2021-12-29T13:35:52.000Z</time>
      </trkpt>
      <trkpt lat="43.02879" lon="-0.76624">
        <ele>1081.4</ele>
        <time>2021-12-29T13:35:53.000Z</time>
      </trkpt>
      <trkpt lat="43.02881" lon="-0.76626">
        <ele>1081.2</ele>
        <time>2021-12-29T13:35:54.000Z</time>
      </trkpt>
      <trkpt lat="43.02883" lon="-0.76629">
        <ele>1080.8</ele>
        <time>2021-12-29T13:35:55.000Z</time>
      </trkpt>
      <trkpt lat="43.02885" lon="-0.76631">
        <ele>1080.6</ele>
        <time>2021-12-29T13:35:56.000Z</time>
      </trkpt>
      <trkpt lat="43.02886" lon="-0.76634">
        <ele>1080.2</ele>
        <time>2021-12-29T13:35:57.000Z</time>
      </trkpt>
      <trkpt lat="43.02888" lon="-0.76637">
        <ele>1080.2</ele>
        <time>2021-12-29T13:35:58.000Z</time>
      </trkpt>
      <trkpt lat="43.02889" lon="-0.7664">
        <ele>1080.2</ele>
        <time>2021-12-29T13:35:59.000Z</time>
      </trkpt>
      <trkpt lat="43.0289" lon="-0.76642">
        <ele>1080.2</ele>
        <time>2021-12-29T13:36:00.000Z</time>
      </trkpt>
      <trkpt lat="43.02891" lon="-0.76644">
        <ele>1080</ele>
        <time>2021-12-29T13:36:01.000Z</time>
      </trkpt>
      <trkpt lat="43.02891" lon="-0.76646">
        <ele>1079.8</ele>
        <time>2021-12-29T13:36:02.000Z</time>
      </trkpt>
      <trkpt lat="43.02891" lon="-0.76647">
        <ele>1079.6</ele>
        <time>2021-12-29T13:36:03.000Z</time>
      </trkpt>
      <trkpt lat="43.02891" lon="-0.76649">
        <ele>1079.4</ele>
        <time>2021-12-29T13:36:04.000Z</time>
      </trkpt>
      <trkpt lat="43.02891" lon="-0.76652">
        <ele>1079.2</ele>
        <time>2021-12-29T13:36:05.000Z</time>
      </trkpt>
      <trkpt lat="43.0289" lon="-0.76655">
        <ele>1079</ele>
        <time>2021-12-29T13:36:06.000Z</time>
      </trkpt>
      <trkpt lat="43.0289" lon="-0.76656">
        <ele>1078.4</ele>
        <time>2021-12-29T13:36:07.000Z</time>
      </trkpt>
      <trkpt lat="43.02892" lon="-0.7666">
        <ele>1078.2</ele>
        <time>2021-12-29T13:36:08.000Z</time>
      </trkpt>
      <trkpt lat="43.02893" lon="-0.76664">
        <ele>1078</ele>
        <time>2021-12-29T13:36:09.000Z</time>
      </trkpt>
      <trkpt lat="43.02896" lon="-0.76667">
        <ele>1077.8</ele>
        <time>2021-12-29T13:36:10.000Z</time>
      </trkpt>
      <trkpt lat="43.02897" lon="-0.76673">
        <ele>1077.6</ele>
        <time>2021-12-29T13:36:11.000Z</time>
      </trkpt>
      <trkpt lat="43.02899" lon="-0.76678">
        <ele>1077.4</ele>
        <time>2021-12-29T13:36:12.000Z</time>
      </trkpt>
      <trkpt lat="43.02901" lon="-0.76682">
        <ele>1077.2</ele>
        <time>2021-12-29T13:36:13.000Z</time>
      </trkpt>
      <trkpt lat="43.02902" lon="-0.76686">
        <ele>1076.6</ele>
        <time>2021-12-29T13:36:14.000Z</time>
      </trkpt>
      <trkpt lat="43.02903" lon="-0.76689">
        <ele>1076.4</ele>
        <time>2021-12-29T13:36:15.000Z</time>
      </trkpt>
      <trkpt lat="43.02906" lon="-0.7669">
        <ele>1076.2</ele>
        <time>2021-12-29T13:36:16.000Z</time>
      </trkpt>
      <trkpt lat="43.02907" lon="-0.76693">
        <ele>1076</ele>
        <time>2021-12-29T13:36:17.000Z</time>
      </trkpt>
      <trkpt lat="43.02907" lon="-0.76697">
        <ele>1076</ele>
        <time>2021-12-29T13:36:18.000Z</time>
      </trkpt>
      <trkpt lat="43.02909" lon="-0.76698">
        <ele>1076</ele>
        <time>2021-12-29T13:36:19.000Z</time>
      </trkpt>
      <trkpt lat="43.02909" lon="-0.767">
        <ele>1076</ele>
        <time>2021-12-29T13:36:20.000Z</time>
      </trkpt>
      <trkpt lat="43.02909" lon="-0.76702">
        <ele>1076</ele>
        <time>2021-12-29T13:36:21.000Z</time>
      </trkpt>
      <trkpt lat="43.02909" lon="-0.76704">
        <ele>1076</ele>
        <time>2021-12-29T13:36:22.000Z</time>
      </trkpt>
      <trkpt lat="43.0291" lon="-0.76704">
        <ele>1076</ele>
        <time>2021-12-29T13:36:23.000Z</time>
      </trkpt>
      <trkpt lat="43.0291" lon="-0.76705">
        <ele>1076</ele>
        <time>2021-12-29T13:36:24.000Z</time>
      </trkpt>
      <trkpt lat="43.02911" lon="-0.76706">
        <ele>1076</ele>
        <time>2021-12-29T13:36:25.000Z</time>
      </trkpt>
      <trkpt lat="43.02912" lon="-0.76706">
        <ele>1076</ele>
        <time>2021-12-29T13:37:26.000Z</time>
      </trkpt>
      <trkpt lat="43.02948" lon="-0.76756">
        <ele>1072.4</ele>
        <time>2021-12-29T13:37:27.000Z</time>
      </trkpt>
      <trkpt lat="43.02953" lon="-0.76758">
        <ele>1072.2</ele>
        <time>2021-12-29T13:37:28.000Z</time>
      </trkpt>
      <trkpt lat="43.02956" lon="-0.76761">
        <ele>1072</ele>
        <time>2021-12-29T13:37:29.000Z</time>
      </trkpt>
      <trkpt lat="43.02957" lon="-0.76764">
        <ele>1071.8</ele>
        <time>2021-12-29T13:37:30.000Z</time>
      </trkpt>
      <trkpt lat="43.02961" lon="-0.76766">
        <ele>1071.4</ele>
        <time>2021-12-29T13:37:31.000Z</time>
      </trkpt>
      <trkpt lat="43.02965" lon="-0.76767">
        <ele>1071.2</ele>
        <time>2021-12-29T13:37:32.000Z</time>
      </trkpt>
      <trkpt lat="43.02968" lon="-0.76769">
        <ele>1071.2</ele>
        <time>2021-12-29T13:37:33.000Z</time>
      </trkpt>
      <trkpt lat="43.02971" lon="-0.7677">
        <ele>1071.2</ele>
        <time>2021-12-29T13:37:34.000Z</time>
      </trkpt>
      <trkpt lat="43.02975" lon="-0.7677">
        <ele>1071.2</ele>
        <time>2021-12-29T13:37:35.000Z</time>
      </trkpt>
      <trkpt lat="43.02979" lon="-0.76771">
        <ele>1071.2</ele>
        <time>2021-12-29T13:37:36.000Z</time>
      </trkpt>
      <trkpt lat="43.02982" lon="-0.76772">
        <ele>1071.2</ele>
        <time>2021-12-29T13:37:37.000Z</time>
      </trkpt>
      <trkpt lat="43.02986" lon="-0.76773">
        <ele>1071</ele>
        <time>2021-12-29T13:37:38.000Z</time>
      </trkpt>
      <trkpt lat="43.02989" lon="-0.76776">
        <ele>1070.8</ele>
        <time>2021-12-29T13:37:39.000Z</time>
      </trkpt>
      <trkpt lat="43.02993" lon="-0.76779">
        <ele>1070.6</ele>
        <time>2021-12-29T13:37:40.000Z</time>
      </trkpt>
      <trkpt lat="43.02995" lon="-0.76782">
        <ele>1070.4</ele>
        <time>2021-12-29T13:37:41.000Z</time>
      </trkpt>
      <trkpt lat="43.02997" lon="-0.76787">
        <ele>1070</ele>
        <time>2021-12-29T13:37:42.000Z</time>
      </trkpt>
      <trkpt lat="43.03001" lon="-0.7679">
        <ele>1069.8</ele>
        <time>2021-12-29T13:37:43.000Z</time>
      </trkpt>
      <trkpt lat="43.03004" lon="-0.76793">
        <ele>1069</ele>
        <time>2021-12-29T13:37:44.000Z</time>
      </trkpt>
      <trkpt lat="43.03006" lon="-0.76797">
        <ele>1068.6</ele>
        <time>2021-12-29T13:37:45.000Z</time>
      </trkpt>
      <trkpt lat="43.03006" lon="-0.768">
        <ele>1068</ele>
        <time>2021-12-29T13:37:46.000Z</time>
      </trkpt>
      <trkpt lat="43.03006" lon="-0.76804">
        <ele>1067.4</ele>
        <time>2021-12-29T13:37:47.000Z</time>
      </trkpt>
      <trkpt lat="43.03007" lon="-0.7681">
        <ele>1067.2</ele>
        <time>2021-12-29T13:37:48.000Z</time>
      </trkpt>
      <trkpt lat="43.03011" lon="-0.76815">
        <ele>1066.6</ele>
        <time>2021-12-29T13:37:49.000Z</time>
      </trkpt>
      <trkpt lat="43.03013" lon="-0.76819">
        <ele>1066.6</ele>
        <time>2021-12-29T13:37:50.000Z</time>
      </trkpt>
      <trkpt lat="43.03017" lon="-0.76823">
        <ele>1066.4</ele>
        <time>2021-12-29T13:37:51.000Z</time>
      </trkpt>
      <trkpt lat="43.03018" lon="-0.76826">
        <ele>1066.2</ele>
        <time>2021-12-29T13:37:52.000Z</time>
      </trkpt>
      <trkpt lat="43.03019" lon="-0.76829">
        <ele>1065.8</ele>
        <time>2021-12-29T13:37:53.000Z</time>
      </trkpt>
      <trkpt lat="43.03021" lon="-0.76832">
        <ele>1065.6</ele>
        <time>2021-12-29T13:37:54.000Z</time>
      </trkpt>
      <trkpt lat="43.03023" lon="-0.76835">
        <ele>1065.2</ele>
        <time>2021-12-29T13:37:55.000Z</time>
      </trkpt>
      <trkpt lat="43.03025" lon="-0.76836">
        <ele>1064.6</ele>
        <time>2021-12-29T13:37:56.000Z</time>
      </trkpt>
      <trkpt lat="43.03029" lon="-0.76837">
        <ele>1064.2</ele>
        <time>2021-12-29T13:37:57.000Z</time>
      </trkpt>
      <trkpt lat="43.03032" lon="-0.76839">
        <ele>1064</ele>
        <time>2021-12-29T13:37:58.000Z</time>
      </trkpt>
      <trkpt lat="43.0304" lon="-0.7684">
        <ele>1063.8</ele>
        <time>2021-12-29T13:37:59.000Z</time>
      </trkpt>
      <trkpt lat="43.03043" lon="-0.76843">
        <ele>1063.8</ele>
        <time>2021-12-29T13:38:00.000Z</time>
      </trkpt>
      <trkpt lat="43.03044" lon="-0.76845">
        <ele>1063.8</ele>
        <time>2021-12-29T13:38:01.000Z</time>
      </trkpt>
      <trkpt lat="43.03047" lon="-0.76847">
        <ele>1063.8</ele>
        <time>2021-12-29T13:38:02.000Z</time>
      </trkpt>
      <trkpt lat="43.03053" lon="-0.76849">
        <ele>1064</ele>
        <time>2021-12-29T13:38:03.000Z</time>
      </trkpt>
      <trkpt lat="43.03057" lon="-0.76851">
        <ele>1064</ele>
        <time>2021-12-29T13:38:04.000Z</time>
      </trkpt>
      <trkpt lat="43.0306" lon="-0.76854">
        <ele>1064.2</ele>
        <time>2021-12-29T13:38:05.000Z</time>
      </trkpt>
      <trkpt lat="43.03064" lon="-0.76856">
        <ele>1064.4</ele>
        <time>2021-12-29T13:38:06.000Z</time>
      </trkpt>
      <trkpt lat="43.03068" lon="-0.76858">
        <ele>1064.6</ele>
        <time>2021-12-29T13:38:07.000Z</time>
      </trkpt>
      <trkpt lat="43.03072" lon="-0.7686">
        <ele>1065</ele>
        <time>2021-12-29T13:38:08.000Z</time>
      </trkpt>
      <trkpt lat="43.03075" lon="-0.76862">
        <ele>1065.2</ele>
        <time>2021-12-29T13:38:09.000Z</time>
      </trkpt>
      <trkpt lat="43.03075" lon="-0.76864">
        <ele>1065.4</ele>
        <time>2021-12-29T13:38:10.000Z</time>
      </trkpt>
      <trkpt lat="43.03077" lon="-0.76866">
        <ele>1065.4</ele>
        <time>2021-12-29T13:38:11.000Z</time>
      </trkpt>
      <trkpt lat="43.03078" lon="-0.76868">
        <ele>1065.4</ele>
        <time>2021-12-29T13:38:12.000Z</time>
      </trkpt>
      <trkpt lat="43.03079" lon="-0.7687">
        <ele>1065.4</ele>
        <time>2021-12-29T13:38:13.000Z</time>
      </trkpt>
      <trkpt lat="43.0308" lon="-0.76872">
        <ele>1065.4</ele>
        <time>2021-12-29T13:38:14.000Z</time>
      </trkpt>
      <trkpt lat="43.03081" lon="-0.76873">
        <ele>1065.2</ele>
        <time>2021-12-29T13:38:15.000Z</time>
      </trkpt>
      <trkpt lat="43.03083" lon="-0.76875">
        <ele>1065.4</ele>
        <time>2021-12-29T13:38:16.000Z</time>
      </trkpt>
      <trkpt lat="43.03083" lon="-0.76877">
        <ele>1065.4</ele>
        <time>2021-12-29T13:38:17.000Z</time>
      </trkpt>
      <trkpt lat="43.03084" lon="-0.76878">
        <ele>1065.6</ele>
        <time>2021-12-29T13:38:18.000Z</time>
      </trkpt>
      <trkpt lat="43.03086" lon="-0.7688">
        <ele>1065.6</ele>
        <time>2021-12-29T13:38:19.000Z</time>
      </trkpt>
      <trkpt lat="43.03087" lon="-0.76882">
        <ele>1065.6</ele>
        <time>2021-12-29T13:38:20.000Z</time>
      </trkpt>
      <trkpt lat="43.03089" lon="-0.76883">
        <ele>1065.8</ele>
        <time>2021-12-29T13:38:21.000Z</time>
      </trkpt>
      <trkpt lat="43.0309" lon="-0.76884">
        <ele>1066</ele>
        <time>2021-12-29T13:38:22.000Z</time>
      </trkpt>
      <trkpt lat="43.0309" lon="-0.76885">
        <ele>1066.2</ele>
        <time>2021-12-29T13:38:23.000Z</time>
      </trkpt>
      <trkpt lat="43.03091" lon="-0.76887">
        <ele>1066.4</ele>
        <time>2021-12-29T13:38:24.000Z</time>
      </trkpt>
      <trkpt lat="43.03092" lon="-0.76889">
        <ele>1066.4</ele>
        <time>2021-12-29T13:38:25.000Z</time>
      </trkpt>
      <trkpt lat="43.03092" lon="-0.7689">
        <ele>1066.6</ele>
        <time>2021-12-29T13:38:26.000Z</time>
      </trkpt>
      <trkpt lat="43.03092" lon="-0.76893">
        <ele>1066.8</ele>
        <time>2021-12-29T13:38:27.000Z</time>
      </trkpt>
      <trkpt lat="43.03093" lon="-0.76895">
        <ele>1067</ele>
        <time>2021-12-29T13:38:28.000Z</time>
      </trkpt>
      <trkpt lat="43.03094" lon="-0.76897">
        <ele>1067.4</ele>
        <time>2021-12-29T13:38:29.000Z</time>
      </trkpt>
      <trkpt lat="43.03094" lon="-0.769">
        <ele>1067.6</ele>
        <time>2021-12-29T13:38:30.000Z</time>
      </trkpt>
      <trkpt lat="43.03094" lon="-0.76902">
        <ele>1067.8</ele>
        <time>2021-12-29T13:38:31.000Z</time>
      </trkpt>
      <trkpt lat="43.03094" lon="-0.76905">
        <ele>1068</ele>
        <time>2021-12-29T13:38:32.000Z</time>
      </trkpt>
      <trkpt lat="43.03094" lon="-0.76908">
        <ele>1068.4</ele>
        <time>2021-12-29T13:38:33.000Z</time>
      </trkpt>
      <trkpt lat="43.03095" lon="-0.7691">
        <ele>1068.6</ele>
        <time>2021-12-29T13:38:34.000Z</time>
      </trkpt>
      <trkpt lat="43.03095" lon="-0.76912">
        <ele>1069</ele>
        <time>2021-12-29T13:38:35.000Z</time>
      </trkpt>
      <trkpt lat="43.03096" lon="-0.76913">
        <ele>1069.2</ele>
        <time>2021-12-29T13:38:36.000Z</time>
      </trkpt>
      <trkpt lat="43.03097" lon="-0.76915">
        <ele>1069.4</ele>
        <time>2021-12-29T13:38:37.000Z</time>
      </trkpt>
      <trkpt lat="43.03097" lon="-0.76916">
        <ele>1069.6</ele>
        <time>2021-12-29T13:38:38.000Z</time>
      </trkpt>
      <trkpt lat="43.03098" lon="-0.76917">
        <ele>1069.8</ele>
        <time>2021-12-29T13:38:39.000Z</time>
      </trkpt>
      <trkpt lat="43.03098" lon="-0.76919">
        <ele>1070.2</ele>
        <time>2021-12-29T13:38:40.000Z</time>
      </trkpt>
      <trkpt lat="43.03099" lon="-0.76921">
        <ele>1070.4</ele>
        <time>2021-12-29T13:38:41.000Z</time>
      </trkpt>
      <trkpt lat="43.031" lon="-0.76922">
        <ele>1070.6</ele>
        <time>2021-12-29T13:38:42.000Z</time>
      </trkpt>
      <trkpt lat="43.03101" lon="-0.76923">
        <ele>1070.8</ele>
        <time>2021-12-29T13:38:43.000Z</time>
      </trkpt>
      <trkpt lat="43.03101" lon="-0.76924">
        <ele>1071</ele>
        <time>2021-12-29T13:38:44.000Z</time>
      </trkpt>
      <trkpt lat="43.03101" lon="-0.76925">
        <ele>1071.4</ele>
        <time>2021-12-29T13:38:45.000Z</time>
      </trkpt>
      <trkpt lat="43.03101" lon="-0.76927">
        <ele>1071.6</ele>
        <time>2021-12-29T13:38:46.000Z</time>
      </trkpt>
      <trkpt lat="43.03102" lon="-0.76928">
        <ele>1071.8</ele>
        <time>2021-12-29T13:38:47.000Z</time>
      </trkpt>
      <trkpt lat="43.03102" lon="-0.7693">
        <ele>1072</ele>
        <time>2021-12-29T13:38:48.000Z</time>
      </trkpt>
      <trkpt lat="43.03103" lon="-0.76932">
        <ele>1072.2</ele>
        <time>2021-12-29T13:38:49.000Z</time>
      </trkpt>
      <trkpt lat="43.03104" lon="-0.76934">
        <ele>1072.4</ele>
        <time>2021-12-29T13:38:50.000Z</time>
      </trkpt>
      <trkpt lat="43.03105" lon="-0.76936">
        <ele>1072.6</ele>
        <time>2021-12-29T13:38:51.000Z</time>
      </trkpt>
      <trkpt lat="43.03106" lon="-0.76938">
        <ele>1072.8</ele>
        <time>2021-12-29T13:38:56.000Z</time>
      </trkpt>
      <trkpt lat="43.0311" lon="-0.7695">
        <ele>1073.8</ele>
        <time>2021-12-29T13:38:57.000Z</time>
      </trkpt>
      <trkpt lat="43.03111" lon="-0.76951">
        <ele>1073.8</ele>
        <time>2021-12-29T13:38:58.000Z</time>
      </trkpt>
      <trkpt lat="43.03112" lon="-0.76953">
        <ele>1073.6</ele>
        <time>2021-12-29T13:38:59.000Z</time>
      </trkpt>
      <trkpt lat="43.03113" lon="-0.76955">
        <ele>1073.4</ele>
        <time>2021-12-29T13:39:00.000Z</time>
      </trkpt>
      <trkpt lat="43.03114" lon="-0.76957">
        <ele>1073</ele>
        <time>2021-12-29T13:39:01.000Z</time>
      </trkpt>
      <trkpt lat="43.03115" lon="-0.7696">
        <ele>1073</ele>
        <time>2021-12-29T13:39:02.000Z</time>
      </trkpt>
      <trkpt lat="43.03117" lon="-0.76962">
        <ele>1072.6</ele>
        <time>2021-12-29T13:39:03.000Z</time>
      </trkpt>
      <trkpt lat="43.03119" lon="-0.76965">
        <ele>1072.4</ele>
        <time>2021-12-29T13:39:04.000Z</time>
      </trkpt>
      <trkpt lat="43.03119" lon="-0.76967">
        <ele>1072.4</ele>
        <time>2021-12-29T13:39:05.000Z</time>
      </trkpt>
      <trkpt lat="43.03119" lon="-0.76969">
        <ele>1072.4</ele>
        <time>2021-12-29T13:39:06.000Z</time>
      </trkpt>
      <trkpt lat="43.03119" lon="-0.76971">
        <ele>1072.4</ele>
        <time>2021-12-29T13:39:07.000Z</time>
      </trkpt>
      <trkpt lat="43.0312" lon="-0.76973">
        <ele>1072.2</ele>
        <time>2021-12-29T13:39:08.000Z</time>
      </trkpt>
      <trkpt lat="43.0312" lon="-0.76974">
        <ele>1072.2</ele>
        <time>2021-12-29T13:39:09.000Z</time>
      </trkpt>
      <trkpt lat="43.0312" lon="-0.76976">
        <ele>1072.2</ele>
        <time>2021-12-29T13:39:10.000Z</time>
      </trkpt>
      <trkpt lat="43.0312" lon="-0.76978">
        <ele>1072</ele>
        <time>2021-12-29T13:39:11.000Z</time>
      </trkpt>
      <trkpt lat="43.03121" lon="-0.76981">
        <ele>1071.6</ele>
        <time>2021-12-29T13:39:12.000Z</time>
      </trkpt>
      <trkpt lat="43.03121" lon="-0.76984">
        <ele>1071.2</ele>
        <time>2021-12-29T13:39:13.000Z</time>
      </trkpt>
      <trkpt lat="43.03121" lon="-0.76987">
        <ele>1070.6</ele>
        <time>2021-12-29T13:39:14.000Z</time>
      </trkpt>
      <trkpt lat="43.03121" lon="-0.7699">
        <ele>1070.2</ele>
        <time>2021-12-29T13:39:15.000Z</time>
      </trkpt>
      <trkpt lat="43.03122" lon="-0.76993">
        <ele>1069.6</ele>
        <time>2021-12-29T13:39:16.000Z</time>
      </trkpt>
      <trkpt lat="43.03123" lon="-0.76997">
        <ele>1069</ele>
        <time>2021-12-29T13:39:17.000Z</time>
      </trkpt>
      <trkpt lat="43.03124" lon="-0.77001">
        <ele>1068.2</ele>
        <time>2021-12-29T13:39:18.000Z</time>
      </trkpt>
      <trkpt lat="43.03125" lon="-0.77004">
        <ele>1067.4</ele>
        <time>2021-12-29T13:39:19.000Z</time>
      </trkpt>
      <trkpt lat="43.03126" lon="-0.77007">
        <ele>1066.6</ele>
        <time>2021-12-29T13:39:20.000Z</time>
      </trkpt>
      <trkpt lat="43.03127" lon="-0.77011">
        <ele>1066.2</ele>
        <time>2021-12-29T13:39:21.000Z</time>
      </trkpt>
      <trkpt lat="43.03127" lon="-0.77015">
        <ele>1065.4</ele>
        <time>2021-12-29T13:39:22.000Z</time>
      </trkpt>
      <trkpt lat="43.03127" lon="-0.77017">
        <ele>1065</ele>
        <time>2021-12-29T13:39:23.000Z</time>
      </trkpt>
      <trkpt lat="43.03128" lon="-0.77019">
        <ele>1064.8</ele>
        <time>2021-12-29T13:39:24.000Z</time>
      </trkpt>
      <trkpt lat="43.03129" lon="-0.77022">
        <ele>1064.8</ele>
        <time>2021-12-29T13:39:25.000Z</time>
      </trkpt>
      <trkpt lat="43.0313" lon="-0.77024">
        <ele>1064.8</ele>
        <time>2021-12-29T13:39:26.000Z</time>
      </trkpt>
      <trkpt lat="43.03132" lon="-0.77026">
        <ele>1064.8</ele>
        <time>2021-12-29T13:39:27.000Z</time>
      </trkpt>
      <trkpt lat="43.03133" lon="-0.77029">
        <ele>1064.8</ele>
        <time>2021-12-29T13:39:28.000Z</time>
      </trkpt>
      <trkpt lat="43.03134" lon="-0.77031">
        <ele>1064.8</ele>
        <time>2021-12-29T13:39:29.000Z</time>
      </trkpt>
      <trkpt lat="43.03135" lon="-0.77033">
        <ele>1064.6</ele>
        <time>2021-12-29T13:39:30.000Z</time>
      </trkpt>
      <trkpt lat="43.03136" lon="-0.77037">
        <ele>1064.6</ele>
        <time>2021-12-29T13:39:31.000Z</time>
      </trkpt>
      <trkpt lat="43.03136" lon="-0.7704">
        <ele>1064.6</ele>
        <time>2021-12-29T13:39:32.000Z</time>
      </trkpt>
      <trkpt lat="43.03137" lon="-0.77043">
        <ele>1064.6</ele>
        <time>2021-12-29T13:39:33.000Z</time>
      </trkpt>
      <trkpt lat="43.03138" lon="-0.77046">
        <ele>1064.6</ele>
        <time>2021-12-29T13:39:34.000Z</time>
      </trkpt>
      <trkpt lat="43.03139" lon="-0.7705">
        <ele>1064.4</ele>
        <time>2021-12-29T13:39:35.000Z</time>
      </trkpt>
      <trkpt lat="43.03139" lon="-0.77053">
        <ele>1064.4</ele>
        <time>2021-12-29T13:39:36.000Z</time>
      </trkpt>
      <trkpt lat="43.03139" lon="-0.77056">
        <ele>1064.4</ele>
        <time>2021-12-29T13:39:37.000Z</time>
      </trkpt>
      <trkpt lat="43.03139" lon="-0.77059">
        <ele>1064.6</ele>
        <time>2021-12-29T13:39:38.000Z</time>
      </trkpt>
      <trkpt lat="43.0314" lon="-0.77062">
        <ele>1064.6</ele>
        <time>2021-12-29T13:39:39.000Z</time>
      </trkpt>
      <trkpt lat="43.03141" lon="-0.77065">
        <ele>1065</ele>
        <time>2021-12-29T13:39:40.000Z</time>
      </trkpt>
      <trkpt lat="43.03142" lon="-0.77067">
        <ele>1065.2</ele>
        <time>2021-12-29T13:39:41.000Z</time>
      </trkpt>
      <trkpt lat="43.03143" lon="-0.77069">
        <ele>1065.4</ele>
        <time>2021-12-29T13:39:42.000Z</time>
      </trkpt>
      <trkpt lat="43.03144" lon="-0.77071">
        <ele>1065.6</ele>
        <time>2021-12-29T13:39:43.000Z</time>
      </trkpt>
      <trkpt lat="43.03145" lon="-0.77072">
        <ele>1065.8</ele>
        <time>2021-12-29T13:39:44.000Z</time>
      </trkpt>
      <trkpt lat="43.03146" lon="-0.77074">
        <ele>1065.8</ele>
        <time>2021-12-29T13:39:45.000Z</time>
      </trkpt>
      <trkpt lat="43.03146" lon="-0.77076">
        <ele>1066</ele>
        <time>2021-12-29T13:39:46.000Z</time>
      </trkpt>
      <trkpt lat="43.03147" lon="-0.77078">
        <ele>1066</ele>
        <time>2021-12-29T13:39:47.000Z</time>
      </trkpt>
      <trkpt lat="43.03146" lon="-0.77079">
        <ele>1066.2</ele>
        <time>2021-12-29T13:39:48.000Z</time>
      </trkpt>
      <trkpt lat="43.03146" lon="-0.7708">
        <ele>1066.2</ele>
        <time>2021-12-29T13:39:49.000Z</time>
      </trkpt>
      <trkpt lat="43.03146" lon="-0.77082">
        <ele>1066</ele>
        <time>2021-12-29T13:39:50.000Z</time>
      </trkpt>
      <trkpt lat="43.03146" lon="-0.77082">
        <ele>1066</ele>
        <time>2021-12-29T13:39:51.000Z</time>
      </trkpt>
      <trkpt lat="43.03146" lon="-0.77083">
        <ele>1066</ele>
        <time>2021-12-29T13:39:52.000Z</time>
      </trkpt>
      <trkpt lat="43.03146" lon="-0.77083">
        <ele>1066</ele>
        <time>2021-12-29T13:39:53.000Z</time>
      </trkpt>
      <trkpt lat="43.03146" lon="-0.77083">
        <ele>1066</ele>
        <time>2021-12-29T13:39:54.000Z</time>
      </trkpt>
      <trkpt lat="43.03146" lon="-0.77084">
        <ele>1066.2</ele>
        <time>2021-12-29T13:40:24.000Z</time>
      </trkpt>
      <trkpt lat="43.0316" lon="-0.77097">
        <ele>1067.6</ele>
        <time>2021-12-29T13:40:25.000Z</time>
      </trkpt>
      <trkpt lat="43.03161" lon="-0.77097">
        <ele>1067.8</ele>
        <time>2021-12-29T13:40:26.000Z</time>
      </trkpt>
      <trkpt lat="43.03163" lon="-0.77097">
        <ele>1067.8</ele>
        <time>2021-12-29T13:40:27.000Z</time>
      </trkpt>
      <trkpt lat="43.03164" lon="-0.77097">
        <ele>1068</ele>
        <time>2021-12-29T13:40:28.000Z</time>
      </trkpt>
      <trkpt lat="43.03165" lon="-0.77098">
        <ele>1068.2</ele>
        <time>2021-12-29T13:40:29.000Z</time>
      </trkpt>
      <trkpt lat="43.03167" lon="-0.77099">
        <ele>1068.4</ele>
        <time>2021-12-29T13:40:30.000Z</time>
      </trkpt>
      <trkpt lat="43.03168" lon="-0.771">
        <ele>1068.6</ele>
        <time>2021-12-29T13:40:31.000Z</time>
      </trkpt>
      <trkpt lat="43.0317" lon="-0.77101">
        <ele>1068.8</ele>
        <time>2021-12-29T13:40:32.000Z</time>
      </trkpt>
      <trkpt lat="43.03171" lon="-0.77102">
        <ele>1069</ele>
        <time>2021-12-29T13:40:33.000Z</time>
      </trkpt>
      <trkpt lat="43.03173" lon="-0.77102">
        <ele>1069</ele>
        <time>2021-12-29T13:40:34.000Z</time>
      </trkpt>
      <trkpt lat="43.03174" lon="-0.77102">
        <ele>1069.2</ele>
        <time>2021-12-29T13:40:35.000Z</time>
      </trkpt>
      <trkpt lat="43.03175" lon="-0.77103">
        <ele>1069.2</ele>
        <time>2021-12-29T13:40:36.000Z</time>
      </trkpt>
      <trkpt lat="43.03178" lon="-0.77103">
        <ele>1069.4</ele>
        <time>2021-12-29T13:40:37.000Z</time>
      </trkpt>
      <trkpt lat="43.03179" lon="-0.77103">
        <ele>1069.6</ele>
        <time>2021-12-29T13:40:38.000Z</time>
      </trkpt>
      <trkpt lat="43.03179" lon="-0.77103">
        <ele>1069.8</ele>
        <time>2021-12-29T13:40:39.000Z</time>
      </trkpt>
      <trkpt lat="43.0318" lon="-0.77104">
        <ele>1070</ele>
        <time>2021-12-29T13:40:40.000Z</time>
      </trkpt>
      <trkpt lat="43.03183" lon="-0.77104">
        <ele>1070.2</ele>
        <time>2021-12-29T13:40:41.000Z</time>
      </trkpt>
      <trkpt lat="43.03184" lon="-0.77105">
        <ele>1070.4</ele>
        <time>2021-12-29T13:40:42.000Z</time>
      </trkpt>
      <trkpt lat="43.03187" lon="-0.77106">
        <ele>1070.4</ele>
        <time>2021-12-29T13:40:43.000Z</time>
      </trkpt>
      <trkpt lat="43.03188" lon="-0.77107">
        <ele>1070.6</ele>
        <time>2021-12-29T13:40:44.000Z</time>
      </trkpt>
      <trkpt lat="43.0319" lon="-0.77107">
        <ele>1070.8</ele>
        <time>2021-12-29T13:40:45.000Z</time>
      </trkpt>
      <trkpt lat="43.03191" lon="-0.77107">
        <ele>1070.8</ele>
        <time>2021-12-29T13:40:46.000Z</time>
      </trkpt>
      <trkpt lat="43.03192" lon="-0.77108">
        <ele>1070.8</ele>
        <time>2021-12-29T13:40:47.000Z</time>
      </trkpt>
      <trkpt lat="43.03193" lon="-0.77109">
        <ele>1071</ele>
        <time>2021-12-29T13:40:48.000Z</time>
      </trkpt>
      <trkpt lat="43.03194" lon="-0.7711">
        <ele>1070.8</ele>
        <time>2021-12-29T13:40:49.000Z</time>
      </trkpt>
      <trkpt lat="43.03195" lon="-0.7711">
        <ele>1070.8</ele>
        <time>2021-12-29T13:40:50.000Z</time>
      </trkpt>
      <trkpt lat="43.03196" lon="-0.77111">
        <ele>1070.8</ele>
        <time>2021-12-29T13:40:51.000Z</time>
      </trkpt>
      <trkpt lat="43.03196" lon="-0.77112">
        <ele>1071</ele>
        <time>2021-12-29T13:40:52.000Z</time>
      </trkpt>
      <trkpt lat="43.03197" lon="-0.77112">
        <ele>1071</ele>
        <time>2021-12-29T13:40:53.000Z</time>
      </trkpt>
      <trkpt lat="43.03197" lon="-0.77112">
        <ele>1071.2</ele>
        <time>2021-12-29T13:40:54.000Z</time>
      </trkpt>
      <trkpt lat="43.03198" lon="-0.77113">
        <ele>1071.2</ele>
        <time>2021-12-29T13:40:55.000Z</time>
      </trkpt>
      <trkpt lat="43.03198" lon="-0.77114">
        <ele>1071.2</ele>
        <time>2021-12-29T13:40:56.000Z</time>
      </trkpt>
      <trkpt lat="43.03199" lon="-0.77114">
        <ele>1071.4</ele>
        <time>2021-12-29T13:40:57.000Z</time>
      </trkpt>
      <trkpt lat="43.032" lon="-0.77115">
        <ele>1071.4</ele>
        <time>2021-12-29T13:40:58.000Z</time>
      </trkpt>
      <trkpt lat="43.032" lon="-0.77116">
        <ele>1071.6</ele>
        <time>2021-12-29T13:41:21.000Z</time>
      </trkpt>
      <trkpt lat="43.03222" lon="-0.77129">
        <ele>1075.6</ele>
        <time>2021-12-29T13:41:22.000Z</time>
      </trkpt>
      <trkpt lat="43.03223" lon="-0.77129">
        <ele>1075.6</ele>
        <time>2021-12-29T13:41:23.000Z</time>
      </trkpt>
      <trkpt lat="43.03224" lon="-0.77129">
        <ele>1075.6</ele>
        <time>2021-12-29T13:41:24.000Z</time>
      </trkpt>
      <trkpt lat="43.03225" lon="-0.77129">
        <ele>1075.4</ele>
        <time>2021-12-29T13:41:25.000Z</time>
      </trkpt>
      <trkpt lat="43.03225" lon="-0.7713">
        <ele>1075.4</ele>
        <time>2021-12-29T13:41:26.000Z</time>
      </trkpt>
      <trkpt lat="43.03226" lon="-0.77131">
        <ele>1075.2</ele>
        <time>2021-12-29T13:41:27.000Z</time>
      </trkpt>
      <trkpt lat="43.03227" lon="-0.77132">
        <ele>1075</ele>
        <time>2021-12-29T13:41:28.000Z</time>
      </trkpt>
      <trkpt lat="43.03227" lon="-0.77132">
        <ele>1075</ele>
        <time>2021-12-29T13:41:29.000Z</time>
      </trkpt>
      <trkpt lat="43.03227" lon="-0.77133">
        <ele>1075</ele>
        <time>2021-12-29T13:41:30.000Z</time>
      </trkpt>
      <trkpt lat="43.03228" lon="-0.77133">
        <ele>1075</ele>
        <time>2021-12-29T13:41:31.000Z</time>
      </trkpt>
      <trkpt lat="43.03227" lon="-0.77134">
        <ele>1075</ele>
        <time>2021-12-29T13:41:32.000Z</time>
      </trkpt>
      <trkpt lat="43.03227" lon="-0.77134">
        <ele>1075</ele>
        <time>2021-12-29T13:41:33.000Z</time>
      </trkpt>
      <trkpt lat="43.03228" lon="-0.77135">
        <ele>1075</ele>
        <time>2021-12-29T13:41:34.000Z</time>
      </trkpt>
      <trkpt lat="43.03227" lon="-0.77135">
        <ele>1075</ele>
        <time>2021-12-29T13:43:04.000Z</time>
      </trkpt>
      <trkpt lat="43.03255" lon="-0.7715">
        <ele>1068.8</ele>
        <time>2021-12-29T13:43:05.000Z</time>
      </trkpt>
      <trkpt lat="43.03256" lon="-0.7715">
        <ele>1068.6</ele>
        <time>2021-12-29T13:43:06.000Z</time>
      </trkpt>
      <trkpt lat="43.03256" lon="-0.7715">
        <ele>1068.4</ele>
        <time>2021-12-29T13:43:07.000Z</time>
      </trkpt>
      <trkpt lat="43.03256" lon="-0.77151">
        <ele>1068.4</ele>
        <time>2021-12-29T13:43:08.000Z</time>
      </trkpt>
      <trkpt lat="43.03257" lon="-0.77151">
        <ele>1068.4</ele>
        <time>2021-12-29T13:43:09.000Z</time>
      </trkpt>
      <trkpt lat="43.03256" lon="-0.7715">
        <ele>1068.4</ele>
        <time>2021-12-29T13:43:10.000Z</time>
      </trkpt>
      <trkpt lat="43.03256" lon="-0.7715">
        <ele>1068.4</ele>
        <time>2021-12-29T13:43:11.000Z</time>
      </trkpt>
      <trkpt lat="43.03256" lon="-0.7715">
        <ele>1068.4</ele>
        <time>2021-12-29T13:43:47.000Z</time>
      </trkpt>
      <trkpt lat="43.03282" lon="-0.77157">
        <ele>1061</ele>
        <time>2021-12-29T13:43:48.000Z</time>
      </trkpt>
      <trkpt lat="43.03284" lon="-0.77158">
        <ele>1060.4</ele>
        <time>2021-12-29T13:43:49.000Z</time>
      </trkpt>
      <trkpt lat="43.03287" lon="-0.77159">
        <ele>1059.8</ele>
        <time>2021-12-29T13:43:50.000Z</time>
      </trkpt>
      <trkpt lat="43.03288" lon="-0.7716">
        <ele>1059.4</ele>
        <time>2021-12-29T13:43:51.000Z</time>
      </trkpt>
      <trkpt lat="43.0329" lon="-0.77161">
        <ele>1058.8</ele>
        <time>2021-12-29T13:43:52.000Z</time>
      </trkpt>
      <trkpt lat="43.03293" lon="-0.77162">
        <ele>1058.2</ele>
        <time>2021-12-29T13:43:53.000Z</time>
      </trkpt>
      <trkpt lat="43.03295" lon="-0.77162">
        <ele>1057.6</ele>
        <time>2021-12-29T13:43:54.000Z</time>
      </trkpt>
      <trkpt lat="43.03297" lon="-0.77164">
        <ele>1057.2</ele>
        <time>2021-12-29T13:43:55.000Z</time>
      </trkpt>
      <trkpt lat="43.03299" lon="-0.77165">
        <ele>1056.6</ele>
        <time>2021-12-29T13:43:56.000Z</time>
      </trkpt>
      <trkpt lat="43.03302" lon="-0.77166">
        <ele>1056.2</ele>
        <time>2021-12-29T13:43:57.000Z</time>
      </trkpt>
      <trkpt lat="43.03304" lon="-0.77167">
        <ele>1055.8</ele>
        <time>2021-12-29T13:43:58.000Z</time>
      </trkpt>
      <trkpt lat="43.03306" lon="-0.77167">
        <ele>1055.8</ele>
        <time>2021-12-29T13:43:59.000Z</time>
      </trkpt>
      <trkpt lat="43.03308" lon="-0.77167">
        <ele>1055.8</ele>
        <time>2021-12-29T13:44:00.000Z</time>
      </trkpt>
      <trkpt lat="43.03308" lon="-0.77168">
        <ele>1055.8</ele>
        <time>2021-12-29T13:44:01.000Z</time>
      </trkpt>
      <trkpt lat="43.03309" lon="-0.77169">
        <ele>1055.6</ele>
        <time>2021-12-29T13:44:02.000Z</time>
      </trkpt>
      <trkpt lat="43.03311" lon="-0.7717">
        <ele>1055.6</ele>
        <time>2021-12-29T13:44:03.000Z</time>
      </trkpt>
      <trkpt lat="43.03312" lon="-0.77172">
        <ele>1055.4</ele>
        <time>2021-12-29T13:44:04.000Z</time>
      </trkpt>
      <trkpt lat="43.03312" lon="-0.77175">
        <ele>1055.2</ele>
        <time>2021-12-29T13:44:05.000Z</time>
      </trkpt>
      <trkpt lat="43.03313" lon="-0.77176">
        <ele>1054.8</ele>
        <time>2021-12-29T13:44:06.000Z</time>
      </trkpt>
      <trkpt lat="43.03313" lon="-0.77178">
        <ele>1054.6</ele>
        <time>2021-12-29T13:44:07.000Z</time>
      </trkpt>
      <trkpt lat="43.03314" lon="-0.77182">
        <ele>1053.8</ele>
        <time>2021-12-29T13:44:08.000Z</time>
      </trkpt>
      <trkpt lat="43.03316" lon="-0.77184">
        <ele>1053</ele>
        <time>2021-12-29T13:44:09.000Z</time>
      </trkpt>
      <trkpt lat="43.03318" lon="-0.77188">
        <ele>1052.4</ele>
        <time>2021-12-29T13:44:10.000Z</time>
      </trkpt>
      <trkpt lat="43.0332" lon="-0.77191">
        <ele>1052.2</ele>
        <time>2021-12-29T13:44:11.000Z</time>
      </trkpt>
      <trkpt lat="43.03322" lon="-0.77192">
        <ele>1052.2</ele>
        <time>2021-12-29T13:44:12.000Z</time>
      </trkpt>
      <trkpt lat="43.03324" lon="-0.77194">
        <ele>1052.2</ele>
        <time>2021-12-29T13:44:13.000Z</time>
      </trkpt>
      <trkpt lat="43.03326" lon="-0.77196">
        <ele>1052.2</ele>
        <time>2021-12-29T13:44:14.000Z</time>
      </trkpt>
      <trkpt lat="43.03328" lon="-0.77197">
        <ele>1052</ele>
        <time>2021-12-29T13:44:15.000Z</time>
      </trkpt>
      <trkpt lat="43.03331" lon="-0.77199">
        <ele>1051.8</ele>
        <time>2021-12-29T13:44:16.000Z</time>
      </trkpt>
      <trkpt lat="43.03334" lon="-0.772">
        <ele>1051.4</ele>
        <time>2021-12-29T13:44:17.000Z</time>
      </trkpt>
      <trkpt lat="43.03336" lon="-0.77201">
        <ele>1051</ele>
        <time>2021-12-29T13:44:18.000Z</time>
      </trkpt>
      <trkpt lat="43.03339" lon="-0.77203">
        <ele>1050.4</ele>
        <time>2021-12-29T13:44:19.000Z</time>
      </trkpt>
      <trkpt lat="43.03346" lon="-0.77203">
        <ele>1049.6</ele>
        <time>2021-12-29T13:44:20.000Z</time>
      </trkpt>
      <trkpt lat="43.03352" lon="-0.77204">
        <ele>1049.2</ele>
        <time>2021-12-29T13:44:21.000Z</time>
      </trkpt>
      <trkpt lat="43.03357" lon="-0.77205">
        <ele>1048.6</ele>
        <time>2021-12-29T13:44:22.000Z</time>
      </trkpt>
      <trkpt lat="43.03359" lon="-0.77208">
        <ele>1048</ele>
        <time>2021-12-29T13:44:23.000Z</time>
      </trkpt>
      <trkpt lat="43.03364" lon="-0.7721">
        <ele>1047.2</ele>
        <time>2021-12-29T13:44:24.000Z</time>
      </trkpt>
      <trkpt lat="43.03368" lon="-0.77215">
        <ele>1046.6</ele>
        <time>2021-12-29T13:44:25.000Z</time>
      </trkpt>
      <trkpt lat="43.03371" lon="-0.77218">
        <ele>1045.8</ele>
        <time>2021-12-29T13:44:26.000Z</time>
      </trkpt>
      <trkpt lat="43.03375" lon="-0.77222">
        <ele>1045.2</ele>
        <time>2021-12-29T13:44:27.000Z</time>
      </trkpt>
      <trkpt lat="43.0338" lon="-0.77226">
        <ele>1044.4</ele>
        <time>2021-12-29T13:44:28.000Z</time>
      </trkpt>
      <trkpt lat="43.03383" lon="-0.77231">
        <ele>1043.4</ele>
        <time>2021-12-29T13:44:29.000Z</time>
      </trkpt>
      <trkpt lat="43.03388" lon="-0.77234">
        <ele>1042.6</ele>
        <time>2021-12-29T13:44:30.000Z</time>
      </trkpt>
      <trkpt lat="43.03394" lon="-0.77236">
        <ele>1041.8</ele>
        <time>2021-12-29T13:44:31.000Z</time>
      </trkpt>
      <trkpt lat="43.03398" lon="-0.77237">
        <ele>1041.2</ele>
        <time>2021-12-29T13:44:32.000Z</time>
      </trkpt>
      <trkpt lat="43.03403" lon="-0.77237">
        <ele>1040.4</ele>
        <time>2021-12-29T13:44:33.000Z</time>
      </trkpt>
      <trkpt lat="43.03408" lon="-0.77238">
        <ele>1039.8</ele>
        <time>2021-12-29T13:44:34.000Z</time>
      </trkpt>
      <trkpt lat="43.03415" lon="-0.77238">
        <ele>1039.2</ele>
        <time>2021-12-29T13:44:35.000Z</time>
      </trkpt>
      <trkpt lat="43.03421" lon="-0.7724">
        <ele>1038.2</ele>
        <time>2021-12-29T13:44:36.000Z</time>
      </trkpt>
      <trkpt lat="43.03425" lon="-0.77243">
        <ele>1037.4</ele>
        <time>2021-12-29T13:44:37.000Z</time>
      </trkpt>
      <trkpt lat="43.03429" lon="-0.77245">
        <ele>1036.2</ele>
        <time>2021-12-29T13:44:38.000Z</time>
      </trkpt>
      <trkpt lat="43.03431" lon="-0.77249">
        <ele>1035.2</ele>
        <time>2021-12-29T13:44:39.000Z</time>
      </trkpt>
      <trkpt lat="43.03433" lon="-0.77253">
        <ele>1034.6</ele>
        <time>2021-12-29T13:44:40.000Z</time>
      </trkpt>
      <trkpt lat="43.03437" lon="-0.77256">
        <ele>1033.6</ele>
        <time>2021-12-29T13:44:41.000Z</time>
      </trkpt>
      <trkpt lat="43.03439" lon="-0.77259">
        <ele>1032.6</ele>
        <time>2021-12-29T13:44:42.000Z</time>
      </trkpt>
      <trkpt lat="43.03441" lon="-0.77261">
        <ele>1032.2</ele>
        <time>2021-12-29T13:44:43.000Z</time>
      </trkpt>
      <trkpt lat="43.03443" lon="-0.77264">
        <ele>1031.8</ele>
        <time>2021-12-29T13:44:44.000Z</time>
      </trkpt>
      <trkpt lat="43.03447" lon="-0.77266">
        <ele>1031.4</ele>
        <time>2021-12-29T13:44:45.000Z</time>
      </trkpt>
      <trkpt lat="43.03448" lon="-0.77267">
        <ele>1031</ele>
        <time>2021-12-29T13:44:46.000Z</time>
      </trkpt>
      <trkpt lat="43.03449" lon="-0.77267">
        <ele>1030.8</ele>
        <time>2021-12-29T13:44:47.000Z</time>
      </trkpt>
      <trkpt lat="43.03449" lon="-0.77268">
        <ele>1030.6</ele>
        <time>2021-12-29T13:44:48.000Z</time>
      </trkpt>
      <trkpt lat="43.03452" lon="-0.77268">
        <ele>1030.4</ele>
        <time>2021-12-29T13:44:49.000Z</time>
      </trkpt>
      <trkpt lat="43.03454" lon="-0.77269">
        <ele>1030.4</ele>
        <time>2021-12-29T13:44:50.000Z</time>
      </trkpt>
      <trkpt lat="43.03456" lon="-0.7727">
        <ele>1030.4</ele>
        <time>2021-12-29T13:44:51.000Z</time>
      </trkpt>
      <trkpt lat="43.03458" lon="-0.77271">
        <ele>1030.4</ele>
        <time>2021-12-29T13:44:52.000Z</time>
      </trkpt>
      <trkpt lat="43.03459" lon="-0.77271">
        <ele>1030.4</ele>
        <time>2021-12-29T13:44:53.000Z</time>
      </trkpt>
      <trkpt lat="43.0346" lon="-0.77272">
        <ele>1030.4</ele>
        <time>2021-12-29T13:44:54.000Z</time>
      </trkpt>
      <trkpt lat="43.03461" lon="-0.77272">
        <ele>1030.4</ele>
        <time>2021-12-29T13:44:55.000Z</time>
      </trkpt>
      <trkpt lat="43.03461" lon="-0.77272">
        <ele>1030.4</ele>
        <time>2021-12-29T13:45:42.000Z</time>
      </trkpt>
      <trkpt lat="43.03464" lon="-0.77255">
        <ele>1022</ele>
        <time>2021-12-29T13:45:43.000Z</time>
      </trkpt>
      <trkpt lat="43.03463" lon="-0.77254">
        <ele>1021.2</ele>
        <time>2021-12-29T13:45:44.000Z</time>
      </trkpt>
      <trkpt lat="43.03463" lon="-0.77252">
        <ele>1020.6</ele>
        <time>2021-12-29T13:45:45.000Z</time>
      </trkpt>
      <trkpt lat="43.03464" lon="-0.77251">
        <ele>1020</ele>
        <time>2021-12-29T13:45:46.000Z</time>
      </trkpt>
      <trkpt lat="43.03464" lon="-0.77251">
        <ele>1019.2</ele>
        <time>2021-12-29T13:45:47.000Z</time>
      </trkpt>
      <trkpt lat="43.03465" lon="-0.7725">
        <ele>1018.4</ele>
        <time>2021-12-29T13:45:48.000Z</time>
      </trkpt>
      <trkpt lat="43.03466" lon="-0.77249">
        <ele>1017.8</ele>
        <time>2021-12-29T13:45:49.000Z</time>
      </trkpt>
      <trkpt lat="43.03467" lon="-0.77246">
        <ele>1016.8</ele>
        <time>2021-12-29T13:45:50.000Z</time>
      </trkpt>
      <trkpt lat="43.03466" lon="-0.77245">
        <ele>1016</ele>
        <time>2021-12-29T13:45:51.000Z</time>
      </trkpt>
      <trkpt lat="43.03467" lon="-0.77242">
        <ele>1015.2</ele>
        <time>2021-12-29T13:45:59.000Z</time>
      </trkpt>
      <trkpt lat="43.03473" lon="-0.7722">
        <ele>1005</ele>
        <time>2021-12-29T13:46:00.000Z</time>
      </trkpt>
      <trkpt lat="43.03474" lon="-0.77216">
        <ele>1004.2</ele>
        <time>2021-12-29T13:46:01.000Z</time>
      </trkpt>
      <trkpt lat="43.03475" lon="-0.77214">
        <ele>1002.8</ele>
        <time>2021-12-29T13:46:02.000Z</time>
      </trkpt>
      <trkpt lat="43.03477" lon="-0.77213">
        <ele>1001.6</ele>
        <time>2021-12-29T13:46:03.000Z</time>
      </trkpt>
      <trkpt lat="43.03478" lon="-0.77211">
        <ele>999.8</ele>
        <time>2021-12-29T13:46:04.000Z</time>
      </trkpt>
      <trkpt lat="43.03481" lon="-0.77208">
        <ele>999.8</ele>
        <time>2021-12-29T13:46:05.000Z</time>
      </trkpt>
      <trkpt lat="43.03482" lon="-0.77205">
        <ele>999.8</ele>
        <time>2021-12-29T13:46:06.000Z</time>
      </trkpt>
      <trkpt lat="43.03482" lon="-0.77202">
        <ele>999.8</ele>
        <time>2021-12-29T13:46:07.000Z</time>
      </trkpt>
      <trkpt lat="43.03484" lon="-0.77199">
        <ele>999.8</ele>
        <time>2021-12-29T13:46:08.000Z</time>
      </trkpt>
      <trkpt lat="43.03483" lon="-0.77198">
        <ele>999.8</ele>
        <time>2021-12-29T13:46:09.000Z</time>
      </trkpt>
      <trkpt lat="43.03484" lon="-0.77196">
        <ele>992.6</ele>
        <time>2021-12-29T13:46:10.000Z</time>
      </trkpt>
      <trkpt lat="43.03485" lon="-0.77192">
        <ele>992.2</ele>
        <time>2021-12-29T13:46:11.000Z</time>
      </trkpt>
      <trkpt lat="43.03486" lon="-0.77191">
        <ele>991.6</ele>
        <time>2021-12-29T13:46:12.000Z</time>
      </trkpt>
      <trkpt lat="43.03488" lon="-0.77187">
        <ele>991.4</ele>
        <time>2021-12-29T13:46:13.000Z</time>
      </trkpt>
      <trkpt lat="43.0349" lon="-0.77186">
        <ele>990.6</ele>
        <time>2021-12-29T13:46:14.000Z</time>
      </trkpt>
      <trkpt lat="43.03493" lon="-0.77184">
        <ele>989.8</ele>
        <time>2021-12-29T13:46:15.000Z</time>
      </trkpt>
      <trkpt lat="43.03494" lon="-0.7718">
        <ele>988.6</ele>
        <time>2021-12-29T13:46:16.000Z</time>
      </trkpt>
      <trkpt lat="43.03496" lon="-0.77178">
        <ele>987.6</ele>
        <time>2021-12-29T13:46:17.000Z</time>
      </trkpt>
      <trkpt lat="43.03499" lon="-0.77176">
        <ele>986.4</ele>
        <time>2021-12-29T13:46:18.000Z</time>
      </trkpt>
      <trkpt lat="43.03501" lon="-0.77174">
        <ele>985.4</ele>
        <time>2021-12-29T13:46:19.000Z</time>
      </trkpt>
      <trkpt lat="43.03503" lon="-0.77172">
        <ele>984.6</ele>
        <time>2021-12-29T13:46:20.000Z</time>
      </trkpt>
      <trkpt lat="43.03506" lon="-0.7717">
        <ele>983</ele>
        <time>2021-12-29T13:46:21.000Z</time>
      </trkpt>
      <trkpt lat="43.03506" lon="-0.7717">
        <ele>982</ele>
        <time>2021-12-29T13:46:22.000Z</time>
      </trkpt>
      <trkpt lat="43.03509" lon="-0.77166">
        <ele>981.2</ele>
        <time>2021-12-29T13:46:23.000Z</time>
      </trkpt>
      <trkpt lat="43.03509" lon="-0.77166">
        <ele>981</ele>
        <time>2021-12-29T13:46:24.000Z</time>
      </trkpt>
      <trkpt lat="43.03512" lon="-0.77164">
        <ele>981</ele>
        <time>2021-12-29T13:46:25.000Z</time>
      </trkpt>
      <trkpt lat="43.03514" lon="-0.77164">
        <ele>981</ele>
        <time>2021-12-29T13:46:26.000Z</time>
      </trkpt>
      <trkpt lat="43.03515" lon="-0.77164">
        <ele>981</ele>
        <time>2021-12-29T13:46:27.000Z</time>
      </trkpt>
      <trkpt lat="43.03517" lon="-0.77165">
        <ele>981</ele>
        <time>2021-12-29T13:46:28.000Z</time>
      </trkpt>
      <trkpt lat="43.03518" lon="-0.77167">
        <ele>980.8</ele>
        <time>2021-12-29T13:46:29.000Z</time>
      </trkpt>
      <trkpt lat="43.03519" lon="-0.77169">
        <ele>980.8</ele>
        <time>2021-12-29T13:46:30.000Z</time>
      </trkpt>
      <trkpt lat="43.03519" lon="-0.77171">
        <ele>980.2</ele>
        <time>2021-12-29T13:46:31.000Z</time>
      </trkpt>
      <trkpt lat="43.0352" lon="-0.77172">
        <ele>979.2</ele>
        <time>2021-12-29T13:46:32.000Z</time>
      </trkpt>
      <trkpt lat="43.03521" lon="-0.77172">
        <ele>978.4</ele>
        <time>2021-12-29T13:46:33.000Z</time>
      </trkpt>
      <trkpt lat="43.03521" lon="-0.77172">
        <ele>978</ele>
        <time>2021-12-29T13:46:34.000Z</time>
      </trkpt>
      <trkpt lat="43.03521" lon="-0.77172">
        <ele>978</ele>
        <time>2021-12-29T13:46:35.000Z</time>
      </trkpt>
      <trkpt lat="43.03522" lon="-0.77172">
        <ele>978</ele>
        <time>2021-12-29T13:46:36.000Z</time>
      </trkpt>
      <trkpt lat="43.03523" lon="-0.77173">
        <ele>978</ele>
        <time>2021-12-29T13:46:37.000Z</time>
      </trkpt>
      <trkpt lat="43.03523" lon="-0.77173">
        <ele>978.4</ele>
        <time>2021-12-29T13:46:38.000Z</time>
      </trkpt>
      <trkpt lat="43.03523" lon="-0.77173">
        <ele>978.8</ele>
        <time>2021-12-29T13:46:39.000Z</time>
      </trkpt>
      <trkpt lat="43.03524" lon="-0.77174">
        <ele>979</ele>
        <time>2021-12-29T13:46:40.000Z</time>
      </trkpt>
      <trkpt lat="43.03525" lon="-0.77174">
        <ele>977.2</ele>
        <time>2021-12-29T13:46:52.000Z</time>
      </trkpt>
      <trkpt lat="43.03541" lon="-0.77158">
        <ele>977.4</ele>
        <time>2021-12-29T13:46:53.000Z</time>
      </trkpt>
      <trkpt lat="43.03542" lon="-0.77158">
        <ele>977.4</ele>
        <time>2021-12-29T13:46:54.000Z</time>
      </trkpt>
      <trkpt lat="43.03543" lon="-0.77157">
        <ele>977.6</ele>
        <time>2021-12-29T13:46:55.000Z</time>
      </trkpt>
      <trkpt lat="43.03544" lon="-0.77157">
        <ele>977.6</ele>
        <time>2021-12-29T13:46:56.000Z</time>
      </trkpt>
      <trkpt lat="43.03544" lon="-0.77156">
        <ele>977.6</ele>
        <time>2021-12-29T13:46:57.000Z</time>
      </trkpt>
      <trkpt lat="43.03544" lon="-0.77156">
        <ele>977.4</ele>
        <time>2021-12-29T13:46:58.000Z</time>
      </trkpt>
      <trkpt lat="43.03544" lon="-0.77154">
        <ele>977.4</ele>
        <time>2021-12-29T13:46:59.000Z</time>
      </trkpt>
      <trkpt lat="43.03544" lon="-0.77153">
        <ele>977.2</ele>
        <time>2021-12-29T13:47:16.000Z</time>
      </trkpt>
      <trkpt lat="43.03553" lon="-0.77123">
        <ele>957.8</ele>
        <time>2021-12-29T13:47:17.000Z</time>
      </trkpt>
      <trkpt lat="43.03554" lon="-0.7712">
        <ele>957.8</ele>
        <time>2021-12-29T13:47:18.000Z</time>
      </trkpt>
      <trkpt lat="43.03557" lon="-0.77116">
        <ele>957.8</ele>
        <time>2021-12-29T13:47:19.000Z</time>
      </trkpt>
      <trkpt lat="43.03559" lon="-0.77113">
        <ele>957.8</ele>
        <time>2021-12-29T13:47:20.000Z</time>
      </trkpt>
      <trkpt lat="43.0356" lon="-0.7711">
        <ele>956.8</ele>
        <time>2021-12-29T13:47:21.000Z</time>
      </trkpt>
      <trkpt lat="43.03561" lon="-0.77107">
        <ele>956.8</ele>
        <time>2021-12-29T13:47:22.000Z</time>
      </trkpt>
      <trkpt lat="43.03563" lon="-0.77106">
        <ele>955.6</ele>
        <time>2021-12-29T13:47:23.000Z</time>
      </trkpt>
      <trkpt lat="43.03564" lon="-0.77104">
        <ele>954.6</ele>
        <time>2021-12-29T13:47:24.000Z</time>
      </trkpt>
      <trkpt lat="43.03566" lon="-0.77102">
        <ele>953.4</ele>
        <time>2021-12-29T13:47:25.000Z</time>
      </trkpt>
      <trkpt lat="43.03567" lon="-0.771">
        <ele>952</ele>
        <time>2021-12-29T13:47:26.000Z</time>
      </trkpt>
      <trkpt lat="43.03568" lon="-0.77098">
        <ele>950.6</ele>
        <time>2021-12-29T13:47:27.000Z</time>
      </trkpt>
      <trkpt lat="43.03567" lon="-0.77097">
        <ele>949.8</ele>
        <time>2021-12-29T13:47:28.000Z</time>
      </trkpt>
      <trkpt lat="43.03569" lon="-0.77094">
        <ele>949</ele>
        <time>2021-12-29T13:47:29.000Z</time>
      </trkpt>
      <trkpt lat="43.0357" lon="-0.77092">
        <ele>947.8</ele>
        <time>2021-12-29T13:47:30.000Z</time>
      </trkpt>
      <trkpt lat="43.03571" lon="-0.7709">
        <ele>946.8</ele>
        <time>2021-12-29T13:47:31.000Z</time>
      </trkpt>
      <trkpt lat="43.03572" lon="-0.77088">
        <ele>945.6</ele>
        <time>2021-12-29T13:47:32.000Z</time>
      </trkpt>
      <trkpt lat="43.03572" lon="-0.77084">
        <ele>944.4</ele>
        <time>2021-12-29T13:47:33.000Z</time>
      </trkpt>
      <trkpt lat="43.03572" lon="-0.77081">
        <ele>943</ele>
        <time>2021-12-29T13:47:34.000Z</time>
      </trkpt>
      <trkpt lat="43.03571" lon="-0.77074">
        <ele>941.2</ele>
        <time>2021-12-29T13:47:35.000Z</time>
      </trkpt>
      <trkpt lat="43.0357" lon="-0.77072">
        <ele>939.4</ele>
        <time>2021-12-29T13:47:36.000Z</time>
      </trkpt>
      <trkpt lat="43.0357" lon="-0.77069">
        <ele>938</ele>
        <time>2021-12-29T13:47:37.000Z</time>
      </trkpt>
      <trkpt lat="43.03571" lon="-0.77066">
        <ele>937.4</ele>
        <time>2021-12-29T13:47:38.000Z</time>
      </trkpt>
      <trkpt lat="43.03571" lon="-0.77065">
        <ele>936.8</ele>
        <time>2021-12-29T13:47:39.000Z</time>
      </trkpt>
      <trkpt lat="43.03573" lon="-0.77061">
        <ele>936</ele>
        <time>2021-12-29T13:47:40.000Z</time>
      </trkpt>
      <trkpt lat="43.03576" lon="-0.77057">
        <ele>935.4</ele>
        <time>2021-12-29T13:47:41.000Z</time>
      </trkpt>
      <trkpt lat="43.03579" lon="-0.77051">
        <ele>934.8</ele>
        <time>2021-12-29T13:47:42.000Z</time>
      </trkpt>
      <trkpt lat="43.03584" lon="-0.77044">
        <ele>934.6</ele>
        <time>2021-12-29T13:47:43.000Z</time>
      </trkpt>
      <trkpt lat="43.03588" lon="-0.77038">
        <ele>934.6</ele>
        <time>2021-12-29T13:47:44.000Z</time>
      </trkpt>
      <trkpt lat="43.03591" lon="-0.77033">
        <ele>934.2</ele>
        <time>2021-12-29T13:47:45.000Z</time>
      </trkpt>
      <trkpt lat="43.03595" lon="-0.77027">
        <ele>933.6</ele>
        <time>2021-12-29T13:47:46.000Z</time>
      </trkpt>
      <trkpt lat="43.03598" lon="-0.77022">
        <ele>932.8</ele>
        <time>2021-12-29T13:47:47.000Z</time>
      </trkpt>
      <trkpt lat="43.036" lon="-0.77018">
        <ele>931.2</ele>
        <time>2021-12-29T13:47:48.000Z</time>
      </trkpt>
      <trkpt lat="43.03602" lon="-0.77012">
        <ele>929.4</ele>
        <time>2021-12-29T13:47:49.000Z</time>
      </trkpt>
      <trkpt lat="43.03604" lon="-0.77008">
        <ele>927.6</ele>
        <time>2021-12-29T13:47:50.000Z</time>
      </trkpt>
      <trkpt lat="43.03606" lon="-0.77007">
        <ele>926</ele>
        <time>2021-12-29T13:47:51.000Z</time>
      </trkpt>
      <trkpt lat="43.03608" lon="-0.77003">
        <ele>924.8</ele>
        <time>2021-12-29T13:47:52.000Z</time>
      </trkpt>
      <trkpt lat="43.03608" lon="-0.76997">
        <ele>924.2</ele>
        <time>2021-12-29T13:47:53.000Z</time>
      </trkpt>
      <trkpt lat="43.03608" lon="-0.76989">
        <ele>922.4</ele>
        <time>2021-12-29T13:47:54.000Z</time>
      </trkpt>
      <trkpt lat="43.03608" lon="-0.76981">
        <ele>922.8</ele>
        <time>2021-12-29T13:47:55.000Z</time>
      </trkpt>
      <trkpt lat="43.03609" lon="-0.76977">
        <ele>923.6</ele>
        <time>2021-12-29T13:47:56.000Z</time>
      </trkpt>
      <trkpt lat="43.03611" lon="-0.76973">
        <ele>924</ele>
        <time>2021-12-29T13:47:57.000Z</time>
      </trkpt>
      <trkpt lat="43.03612" lon="-0.7697">
        <ele>924.4</ele>
        <time>2021-12-29T13:47:58.000Z</time>
      </trkpt>
      <trkpt lat="43.03613" lon="-0.76966">
        <ele>924.4</ele>
        <time>2021-12-29T13:47:59.000Z</time>
      </trkpt>
      <trkpt lat="43.03615" lon="-0.76961">
        <ele>924.6</ele>
        <time>2021-12-29T13:48:00.000Z</time>
      </trkpt>
      <trkpt lat="43.03616" lon="-0.76957">
        <ele>924.6</ele>
        <time>2021-12-29T13:48:01.000Z</time>
      </trkpt>
      <trkpt lat="43.03617" lon="-0.76953">
        <ele>924.8</ele>
        <time>2021-12-29T13:48:02.000Z</time>
      </trkpt>
      <trkpt lat="43.0362" lon="-0.7695">
        <ele>925</ele>
        <time>2021-12-29T13:48:03.000Z</time>
      </trkpt>
      <trkpt lat="43.03622" lon="-0.76946">
        <ele>925</ele>
        <time>2021-12-29T13:48:04.000Z</time>
      </trkpt>
      <trkpt lat="43.03624" lon="-0.76942">
        <ele>925</ele>
        <time>2021-12-29T13:48:05.000Z</time>
      </trkpt>
      <trkpt lat="43.03627" lon="-0.76936">
        <ele>924.8</ele>
        <time>2021-12-29T13:48:06.000Z</time>
      </trkpt>
      <trkpt lat="43.03629" lon="-0.76931">
        <ele>924.8</ele>
        <time>2021-12-29T13:48:07.000Z</time>
      </trkpt>
      <trkpt lat="43.03632" lon="-0.76926">
        <ele>924.6</ele>
        <time>2021-12-29T13:48:08.000Z</time>
      </trkpt>
      <trkpt lat="43.03634" lon="-0.76922">
        <ele>924.2</ele>
        <time>2021-12-29T13:48:09.000Z</time>
      </trkpt>
      <trkpt lat="43.03636" lon="-0.76917">
        <ele>923.2</ele>
        <time>2021-12-29T13:48:10.000Z</time>
      </trkpt>
      <trkpt lat="43.0364" lon="-0.7691">
        <ele>922.8</ele>
        <time>2021-12-29T13:48:11.000Z</time>
      </trkpt>
      <trkpt lat="43.03641" lon="-0.76907">
        <ele>922.6</ele>
        <time>2021-12-29T13:48:12.000Z</time>
      </trkpt>
      <trkpt lat="43.03642" lon="-0.76904">
        <ele>922</ele>
        <time>2021-12-29T13:48:13.000Z</time>
      </trkpt>
      <trkpt lat="43.03642" lon="-0.76898">
        <ele>921.4</ele>
        <time>2021-12-29T13:48:14.000Z</time>
      </trkpt>
      <trkpt lat="43.03646" lon="-0.76893">
        <ele>920</ele>
        <time>2021-12-29T13:48:15.000Z</time>
      </trkpt>
      <trkpt lat="43.0365" lon="-0.76888">
        <ele>918.6</ele>
        <time>2021-12-29T13:48:16.000Z</time>
      </trkpt>
      <trkpt lat="43.03652" lon="-0.76885">
        <ele>917.2</ele>
        <time>2021-12-29T13:48:17.000Z</time>
      </trkpt>
      <trkpt lat="43.03653" lon="-0.76883">
        <ele>916.2</ele>
        <time>2021-12-29T13:48:18.000Z</time>
      </trkpt>
      <trkpt lat="43.03657" lon="-0.76877">
        <ele>915.4</ele>
        <time>2021-12-29T13:48:19.000Z</time>
      </trkpt>
      <trkpt lat="43.03659" lon="-0.76871">
        <ele>914.6</ele>
        <time>2021-12-29T13:48:20.000Z</time>
      </trkpt>
      <trkpt lat="43.03661" lon="-0.76865">
        <ele>913.6</ele>
        <time>2021-12-29T13:48:21.000Z</time>
      </trkpt>
      <trkpt lat="43.03662" lon="-0.76862">
        <ele>912.4</ele>
        <time>2021-12-29T13:48:22.000Z</time>
      </trkpt>
      <trkpt lat="43.03664" lon="-0.7686">
        <ele>911.6</ele>
        <time>2021-12-29T13:48:23.000Z</time>
      </trkpt>
      <trkpt lat="43.03667" lon="-0.76857">
        <ele>910.4</ele>
        <time>2021-12-29T13:48:24.000Z</time>
      </trkpt>
      <trkpt lat="43.03669" lon="-0.76854">
        <ele>909.6</ele>
        <time>2021-12-29T13:48:25.000Z</time>
      </trkpt>
      <trkpt lat="43.0367" lon="-0.76851">
        <ele>908.8</ele>
        <time>2021-12-29T13:48:26.000Z</time>
      </trkpt>
      <trkpt lat="43.03671" lon="-0.76846">
        <ele>908</ele>
        <time>2021-12-29T13:48:27.000Z</time>
      </trkpt>
      <trkpt lat="43.03672" lon="-0.76844">
        <ele>907</ele>
        <time>2021-12-29T13:48:28.000Z</time>
      </trkpt>
      <trkpt lat="43.03673" lon="-0.76841">
        <ele>906.4</ele>
        <time>2021-12-29T13:48:29.000Z</time>
      </trkpt>
      <trkpt lat="43.03674" lon="-0.76836">
        <ele>905.4</ele>
        <time>2021-12-29T13:48:30.000Z</time>
      </trkpt>
      <trkpt lat="43.03677" lon="-0.76833">
        <ele>904.6</ele>
        <time>2021-12-29T13:48:31.000Z</time>
      </trkpt>
      <trkpt lat="43.03679" lon="-0.76831">
        <ele>904.4</ele>
        <time>2021-12-29T13:48:32.000Z</time>
      </trkpt>
      <trkpt lat="43.03681" lon="-0.76826">
        <ele>904.2</ele>
        <time>2021-12-29T13:48:33.000Z</time>
      </trkpt>
      <trkpt lat="43.03683" lon="-0.76823">
        <ele>903.4</ele>
        <time>2021-12-29T13:48:34.000Z</time>
      </trkpt>
      <trkpt lat="43.03685" lon="-0.76819">
        <ele>903</ele>
        <time>2021-12-29T13:48:35.000Z</time>
      </trkpt>
      <trkpt lat="43.03687" lon="-0.76815">
        <ele>902.6</ele>
        <time>2021-12-29T13:48:36.000Z</time>
      </trkpt>
      <trkpt lat="43.03689" lon="-0.76811">
        <ele>901.8</ele>
        <time>2021-12-29T13:48:37.000Z</time>
      </trkpt>
      <trkpt lat="43.03691" lon="-0.76809">
        <ele>900.4</ele>
        <time>2021-12-29T13:48:38.000Z</time>
      </trkpt>
      <trkpt lat="43.03692" lon="-0.76807">
        <ele>899.2</ele>
        <time>2021-12-29T13:48:39.000Z</time>
      </trkpt>
      <trkpt lat="43.03694" lon="-0.76804">
        <ele>897.8</ele>
        <time>2021-12-29T13:48:40.000Z</time>
      </trkpt>
      <trkpt lat="43.03696" lon="-0.76802">
        <ele>896.2</ele>
        <time>2021-12-29T13:48:41.000Z</time>
      </trkpt>
      <trkpt lat="43.03697" lon="-0.76799">
        <ele>894.6</ele>
        <time>2021-12-29T13:48:42.000Z</time>
      </trkpt>
      <trkpt lat="43.03698" lon="-0.76796">
        <ele>893.6</ele>
        <time>2021-12-29T13:48:43.000Z</time>
      </trkpt>
      <trkpt lat="43.03701" lon="-0.76793">
        <ele>892.4</ele>
        <time>2021-12-29T13:48:44.000Z</time>
      </trkpt>
      <trkpt lat="43.03704" lon="-0.7679">
        <ele>891.6</ele>
        <time>2021-12-29T13:48:45.000Z</time>
      </trkpt>
      <trkpt lat="43.03705" lon="-0.76788">
        <ele>891</ele>
        <time>2021-12-29T13:48:46.000Z</time>
      </trkpt>
      <trkpt lat="43.03706" lon="-0.76785">
        <ele>890</ele>
        <time>2021-12-29T13:48:47.000Z</time>
      </trkpt>
      <trkpt lat="43.03707" lon="-0.76783">
        <ele>889.2</ele>
        <time>2021-12-29T13:48:48.000Z</time>
      </trkpt>
      <trkpt lat="43.03708" lon="-0.7678">
        <ele>888.4</ele>
        <time>2021-12-29T13:48:49.000Z</time>
      </trkpt>
      <trkpt lat="43.03708" lon="-0.76777">
        <ele>887.6</ele>
        <time>2021-12-29T13:48:50.000Z</time>
      </trkpt>
      <trkpt lat="43.03708" lon="-0.76776">
        <ele>886.8</ele>
        <time>2021-12-29T13:48:51.000Z</time>
      </trkpt>
      <trkpt lat="43.03708" lon="-0.76775">
        <ele>886.2</ele>
        <time>2021-12-29T13:48:52.000Z</time>
      </trkpt>
      <trkpt lat="43.03708" lon="-0.76775">
        <ele>885.8</ele>
        <time>2021-12-29T13:48:53.000Z</time>
      </trkpt>
      <trkpt lat="43.03708" lon="-0.76775">
        <ele>885.6</ele>
        <time>2021-12-29T13:48:54.000Z</time>
      </trkpt>
      <trkpt lat="43.03708" lon="-0.76774">
        <ele>884.8</ele>
        <time>2021-12-29T13:48:55.000Z</time>
      </trkpt>
      <trkpt lat="43.03707" lon="-0.76774">
        <ele>884.2</ele>
        <time>2021-12-29T13:48:56.000Z</time>
      </trkpt>
      <trkpt lat="43.03707" lon="-0.76772">
        <ele>883.6</ele>
        <time>2021-12-29T13:48:57.000Z</time>
      </trkpt>
      <trkpt lat="43.03708" lon="-0.76771">
        <ele>883.2</ele>
        <time>2021-12-29T13:48:58.000Z</time>
      </trkpt>
      <trkpt lat="43.03708" lon="-0.7677">
        <ele>882.6</ele>
        <time>2021-12-29T13:48:59.000Z</time>
      </trkpt>
      <trkpt lat="43.03709" lon="-0.7677">
        <ele>882</ele>
        <time>2021-12-29T13:49:00.000Z</time>
      </trkpt>
      <trkpt lat="43.03711" lon="-0.76769">
        <ele>881.6</ele>
        <time>2021-12-29T13:49:01.000Z</time>
      </trkpt>
      <trkpt lat="43.03713" lon="-0.76767">
        <ele>880.6</ele>
        <time>2021-12-29T13:49:02.000Z</time>
      </trkpt>
      <trkpt lat="43.03714" lon="-0.76766">
        <ele>879.8</ele>
        <time>2021-12-29T13:49:03.000Z</time>
      </trkpt>
      <trkpt lat="43.03715" lon="-0.76763">
        <ele>878.8</ele>
        <time>2021-12-29T13:49:04.000Z</time>
      </trkpt>
      <trkpt lat="43.03717" lon="-0.76761">
        <ele>877.4</ele>
        <time>2021-12-29T13:49:05.000Z</time>
      </trkpt>
      <trkpt lat="43.0372" lon="-0.76758">
        <ele>876</ele>
        <time>2021-12-29T13:49:06.000Z</time>
      </trkpt>
      <trkpt lat="43.03723" lon="-0.76755">
        <ele>874.8</ele>
        <time>2021-12-29T13:49:07.000Z</time>
      </trkpt>
      <trkpt lat="43.03725" lon="-0.76753">
        <ele>873.4</ele>
        <time>2021-12-29T13:49:08.000Z</time>
      </trkpt>
      <trkpt lat="43.03727" lon="-0.76751">
        <ele>872.2</ele>
        <time>2021-12-29T13:49:09.000Z</time>
      </trkpt>
      <trkpt lat="43.03729" lon="-0.76751">
        <ele>871</ele>
        <time>2021-12-29T13:49:10.000Z</time>
      </trkpt>
      <trkpt lat="43.03731" lon="-0.7675">
        <ele>869.4</ele>
        <time>2021-12-29T13:49:11.000Z</time>
      </trkpt>
      <trkpt lat="43.03733" lon="-0.76748">
        <ele>867.8</ele>
        <time>2021-12-29T13:49:12.000Z</time>
      </trkpt>
      <trkpt lat="43.03735" lon="-0.76748">
        <ele>866.4</ele>
        <time>2021-12-29T13:49:13.000Z</time>
      </trkpt>
      <trkpt lat="43.03735" lon="-0.76745">
        <ele>865</ele>
        <time>2021-12-29T13:49:14.000Z</time>
      </trkpt>
      <trkpt lat="43.03735" lon="-0.76743">
        <ele>863.6</ele>
        <time>2021-12-29T13:49:15.000Z</time>
      </trkpt>
      <trkpt lat="43.03736" lon="-0.76741">
        <ele>862</ele>
        <time>2021-12-29T13:49:16.000Z</time>
      </trkpt>
      <trkpt lat="43.03737" lon="-0.76738">
        <ele>860.6</ele>
        <time>2021-12-29T13:49:17.000Z</time>
      </trkpt>
      <trkpt lat="43.03739" lon="-0.76737">
        <ele>858.8</ele>
        <time>2021-12-29T13:49:18.000Z</time>
      </trkpt>
      <trkpt lat="43.03741" lon="-0.76737">
        <ele>857.6</ele>
        <time>2021-12-29T13:49:19.000Z</time>
      </trkpt>
      <trkpt lat="43.03744" lon="-0.76736">
        <ele>856</ele>
        <time>2021-12-29T13:49:20.000Z</time>
      </trkpt>
      <trkpt lat="43.03747" lon="-0.76733">
        <ele>855.2</ele>
        <time>2021-12-29T13:49:21.000Z</time>
      </trkpt>
      <trkpt lat="43.0375" lon="-0.76729">
        <ele>854.2</ele>
        <time>2021-12-29T13:49:22.000Z</time>
      </trkpt>
      <trkpt lat="43.03752" lon="-0.76727">
        <ele>854</ele>
        <time>2021-12-29T13:49:23.000Z</time>
      </trkpt>
      <trkpt lat="43.03755" lon="-0.76723">
        <ele>853.8</ele>
        <time>2021-12-29T13:49:24.000Z</time>
      </trkpt>
      <trkpt lat="43.03756" lon="-0.76722">
        <ele>852.6</ele>
        <time>2021-12-29T13:49:25.000Z</time>
      </trkpt>
      <trkpt lat="43.03758" lon="-0.76719">
        <ele>851</ele>
        <time>2021-12-29T13:49:26.000Z</time>
      </trkpt>
      <trkpt lat="43.03761" lon="-0.7672">
        <ele>849.2</ele>
        <time>2021-12-29T13:49:27.000Z</time>
      </trkpt>
      <trkpt lat="43.03764" lon="-0.76717">
        <ele>847.4</ele>
        <time>2021-12-29T13:49:28.000Z</time>
      </trkpt>
      <trkpt lat="43.03767" lon="-0.76715">
        <ele>846.6</ele>
        <time>2021-12-29T13:49:29.000Z</time>
      </trkpt>
      <trkpt lat="43.03769" lon="-0.76713">
        <ele>846.4</ele>
        <time>2021-12-29T13:49:30.000Z</time>
      </trkpt>
      <trkpt lat="43.0377" lon="-0.76711">
        <ele>846</ele>
        <time>2021-12-29T13:49:31.000Z</time>
      </trkpt>
      <trkpt lat="43.03771" lon="-0.76709">
        <ele>846</ele>
        <time>2021-12-29T13:49:32.000Z</time>
      </trkpt>
      <trkpt lat="43.03773" lon="-0.76705">
        <ele>846</ele>
        <time>2021-12-29T13:49:33.000Z</time>
      </trkpt>
      <trkpt lat="43.03774" lon="-0.76704">
        <ele>846</ele>
        <time>2021-12-29T13:49:34.000Z</time>
      </trkpt>
      <trkpt lat="43.03775" lon="-0.76702">
        <ele>846</ele>
        <time>2021-12-29T13:49:35.000Z</time>
      </trkpt>
      <trkpt lat="43.03778" lon="-0.767">
        <ele>846</ele>
        <time>2021-12-29T13:49:36.000Z</time>
      </trkpt>
      <trkpt lat="43.0378" lon="-0.76699">
        <ele>846</ele>
        <time>2021-12-29T13:49:37.000Z</time>
      </trkpt>
      <trkpt lat="43.0378" lon="-0.76696">
        <ele>846</ele>
        <time>2021-12-29T13:51:05.000Z</time>
      </trkpt>
      <trkpt lat="43.03811" lon="-0.76658">
        <ele>841.2</ele>
        <time>2021-12-29T13:51:06.000Z</time>
      </trkpt>
      <trkpt lat="43.03814" lon="-0.76656">
        <ele>829.6</ele>
        <time>2021-12-29T13:51:07.000Z</time>
      </trkpt>
      <trkpt lat="43.03818" lon="-0.76654">
        <ele>828.6</ele>
        <time>2021-12-29T13:51:08.000Z</time>
      </trkpt>
      <trkpt lat="43.03823" lon="-0.76653">
        <ele>827.2</ele>
        <time>2021-12-29T13:51:09.000Z</time>
      </trkpt>
      <trkpt lat="43.03827" lon="-0.76652">
        <ele>826.2</ele>
        <time>2021-12-29T13:51:10.000Z</time>
      </trkpt>
      <trkpt lat="43.03833" lon="-0.76651">
        <ele>824.2</ele>
        <time>2021-12-29T13:51:11.000Z</time>
      </trkpt>
      <trkpt lat="43.03834" lon="-0.7665">
        <ele>823</ele>
        <time>2021-12-29T13:51:12.000Z</time>
      </trkpt>
      <trkpt lat="43.03836" lon="-0.7665">
        <ele>822.2</ele>
        <time>2021-12-29T13:51:13.000Z</time>
      </trkpt>
      <trkpt lat="43.03836" lon="-0.76649">
        <ele>821.8</ele>
        <time>2021-12-29T13:51:14.000Z</time>
      </trkpt>
      <trkpt lat="43.03836" lon="-0.76649">
        <ele>821.6</ele>
        <time>2021-12-29T13:51:15.000Z</time>
      </trkpt>
      <trkpt lat="43.03837" lon="-0.7665">
        <ele>821.6</ele>
        <time>2021-12-29T13:51:16.000Z</time>
      </trkpt>
      <trkpt lat="43.03837" lon="-0.7665">
        <ele>821.6</ele>
        <time>2021-12-29T13:51:17.000Z</time>
      </trkpt>
      <trkpt lat="43.03837" lon="-0.7665">
        <ele>821.6</ele>
        <time>2021-12-29T13:51:18.000Z</time>
      </trkpt>
      <trkpt lat="43.03838" lon="-0.7665">
        <ele>821.6</ele>
        <time>2021-12-29T13:51:19.000Z</time>
      </trkpt>
      <trkpt lat="43.0384" lon="-0.7665">
        <ele>821.4</ele>
        <time>2021-12-29T13:51:20.000Z</time>
      </trkpt>
      <trkpt lat="43.0384" lon="-0.7665">
        <ele>821.4</ele>
        <time>2021-12-29T13:51:43.000Z</time>
      </trkpt>
      <trkpt lat="43.03883" lon="-0.76644">
        <ele>818</ele>
        <time>2021-12-29T13:51:44.000Z</time>
      </trkpt>
      <trkpt lat="43.03885" lon="-0.76643">
        <ele>817.8</ele>
        <time>2021-12-29T13:51:45.000Z</time>
      </trkpt>
      <trkpt lat="43.03887" lon="-0.76643">
        <ele>817.6</ele>
        <time>2021-12-29T13:51:46.000Z</time>
      </trkpt>
      <trkpt lat="43.03889" lon="-0.76643">
        <ele>817.4</ele>
        <time>2021-12-29T13:51:47.000Z</time>
      </trkpt>
      <trkpt lat="43.03892" lon="-0.76643">
        <ele>817</ele>
        <time>2021-12-29T13:51:48.000Z</time>
      </trkpt>
      <trkpt lat="43.03895" lon="-0.76642">
        <ele>816.8</ele>
        <time>2021-12-29T13:51:49.000Z</time>
      </trkpt>
      <trkpt lat="43.03898" lon="-0.76642">
        <ele>816.2</ele>
        <time>2021-12-29T13:51:50.000Z</time>
      </trkpt>
      <trkpt lat="43.039" lon="-0.76643">
        <ele>816</ele>
        <time>2021-12-29T13:51:51.000Z</time>
      </trkpt>
      <trkpt lat="43.03904" lon="-0.76643">
        <ele>815.8</ele>
        <time>2021-12-29T13:51:52.000Z</time>
      </trkpt>
      <trkpt lat="43.03907" lon="-0.76642">
        <ele>815.6</ele>
        <time>2021-12-29T13:51:53.000Z</time>
      </trkpt>
      <trkpt lat="43.03908" lon="-0.76641">
        <ele>815</ele>
        <time>2021-12-29T13:51:54.000Z</time>
      </trkpt>
      <trkpt lat="43.0391" lon="-0.76639">
        <ele>813.8</ele>
        <time>2021-12-29T13:51:55.000Z</time>
      </trkpt>
      <trkpt lat="43.03911" lon="-0.76638">
        <ele>812.6</ele>
        <time>2021-12-29T13:51:56.000Z</time>
      </trkpt>
      <trkpt lat="43.03915" lon="-0.76636">
        <ele>811</ele>
        <time>2021-12-29T13:51:57.000Z</time>
      </trkpt>
      <trkpt lat="43.03916" lon="-0.76634">
        <ele>809.8</ele>
        <time>2021-12-29T13:51:58.000Z</time>
      </trkpt>
      <trkpt lat="43.03917" lon="-0.76631">
        <ele>809.2</ele>
        <time>2021-12-29T13:51:59.000Z</time>
      </trkpt>
      <trkpt lat="43.03919" lon="-0.76627">
        <ele>809.2</ele>
        <time>2021-12-29T13:52:00.000Z</time>
      </trkpt>
      <trkpt lat="43.03921" lon="-0.76624">
        <ele>808.6</ele>
        <time>2021-12-29T13:52:01.000Z</time>
      </trkpt>
      <trkpt lat="43.03923" lon="-0.76624">
        <ele>808.4</ele>
        <time>2021-12-29T13:52:02.000Z</time>
      </trkpt>
      <trkpt lat="43.03926" lon="-0.76623">
        <ele>808.4</ele>
        <time>2021-12-29T13:52:03.000Z</time>
      </trkpt>
      <trkpt lat="43.0393" lon="-0.76621">
        <ele>808.6</ele>
        <time>2021-12-29T13:52:04.000Z</time>
      </trkpt>
      <trkpt lat="43.03931" lon="-0.7662">
        <ele>809</ele>
        <time>2021-12-29T13:52:05.000Z</time>
      </trkpt>
      <trkpt lat="43.03934" lon="-0.76619">
        <ele>809.4</ele>
        <time>2021-12-29T13:52:06.000Z</time>
      </trkpt>
      <trkpt lat="43.03936" lon="-0.76619">
        <ele>809.6</ele>
        <time>2021-12-29T13:52:07.000Z</time>
      </trkpt>
      <trkpt lat="43.03938" lon="-0.76619">
        <ele>809.8</ele>
        <time>2021-12-29T13:52:08.000Z</time>
      </trkpt>
      <trkpt lat="43.0394" lon="-0.76618">
        <ele>810</ele>
        <time>2021-12-29T13:52:09.000Z</time>
      </trkpt>
      <trkpt lat="43.03943" lon="-0.76618">
        <ele>810</ele>
        <time>2021-12-29T13:52:10.000Z</time>
      </trkpt>
      <trkpt lat="43.03945" lon="-0.76617">
        <ele>810</ele>
        <time>2021-12-29T13:52:11.000Z</time>
      </trkpt>
      <trkpt lat="43.03946" lon="-0.76616">
        <ele>810.2</ele>
        <time>2021-12-29T13:52:12.000Z</time>
      </trkpt>
      <trkpt lat="43.03949" lon="-0.76615">
        <ele>810.4</ele>
        <time>2021-12-29T13:52:13.000Z</time>
      </trkpt>
      <trkpt lat="43.03953" lon="-0.76615">
        <ele>810.6</ele>
        <time>2021-12-29T13:52:14.000Z</time>
      </trkpt>
      <trkpt lat="43.03955" lon="-0.76614">
        <ele>810.8</ele>
        <time>2021-12-29T13:52:15.000Z</time>
      </trkpt>
      <trkpt lat="43.03957" lon="-0.76613">
        <ele>811</ele>
        <time>2021-12-29T13:52:16.000Z</time>
      </trkpt>
      <trkpt lat="43.0396" lon="-0.76611">
        <ele>811.2</ele>
        <time>2021-12-29T13:52:17.000Z</time>
      </trkpt>
      <trkpt lat="43.03963" lon="-0.76609">
        <ele>811.2</ele>
        <time>2021-12-29T13:52:18.000Z</time>
      </trkpt>
      <trkpt lat="43.03965" lon="-0.76607">
        <ele>811.4</ele>
        <time>2021-12-29T13:52:19.000Z</time>
      </trkpt>
      <trkpt lat="43.03968" lon="-0.76605">
        <ele>811.6</ele>
        <time>2021-12-29T13:52:20.000Z</time>
      </trkpt>
      <trkpt lat="43.03969" lon="-0.76604">
        <ele>811.8</ele>
        <time>2021-12-29T13:52:21.000Z</time>
      </trkpt>
      <trkpt lat="43.03971" lon="-0.76603">
        <ele>812</ele>
        <time>2021-12-29T13:52:22.000Z</time>
      </trkpt>
      <trkpt lat="43.03972" lon="-0.76603">
        <ele>812.2</ele>
        <time>2021-12-29T13:52:23.000Z</time>
      </trkpt>
      <trkpt lat="43.03973" lon="-0.76601">
        <ele>812.4</ele>
        <time>2021-12-29T13:52:24.000Z</time>
      </trkpt>
      <trkpt lat="43.03974" lon="-0.766">
        <ele>812.4</ele>
        <time>2021-12-29T13:52:25.000Z</time>
      </trkpt>
      <trkpt lat="43.03977" lon="-0.76599">
        <ele>812.4</ele>
        <time>2021-12-29T13:52:26.000Z</time>
      </trkpt>
      <trkpt lat="43.03979" lon="-0.76598">
        <ele>812.4</ele>
        <time>2021-12-29T13:52:27.000Z</time>
      </trkpt>
      <trkpt lat="43.0398" lon="-0.76598">
        <ele>812.6</ele>
        <time>2021-12-29T13:52:28.000Z</time>
      </trkpt>
      <trkpt lat="43.03981" lon="-0.76597">
        <ele>812.8</ele>
        <time>2021-12-29T13:52:29.000Z</time>
      </trkpt>
      <trkpt lat="43.03983" lon="-0.76595">
        <ele>813.6</ele>
        <time>2021-12-29T13:53:21.000Z</time>
      </trkpt>
      <trkpt lat="43.04044" lon="-0.76568">
        <ele>796.4</ele>
        <time>2021-12-29T13:53:22.000Z</time>
      </trkpt>
      <trkpt lat="43.04045" lon="-0.76568">
        <ele>796.6</ele>
        <time>2021-12-29T13:53:23.000Z</time>
      </trkpt>
      <trkpt lat="43.04048" lon="-0.76567">
        <ele>796.8</ele>
        <time>2021-12-29T13:53:24.000Z</time>
      </trkpt>
      <trkpt lat="43.0405" lon="-0.76567">
        <ele>797</ele>
        <time>2021-12-29T13:53:25.000Z</time>
      </trkpt>
      <trkpt lat="43.04053" lon="-0.76566">
        <ele>797.2</ele>
        <time>2021-12-29T13:53:26.000Z</time>
      </trkpt>
      <trkpt lat="43.04054" lon="-0.76565">
        <ele>797.4</ele>
        <time>2021-12-29T13:53:27.000Z</time>
      </trkpt>
      <trkpt lat="43.04055" lon="-0.76564">
        <ele>797.6</ele>
        <time>2021-12-29T13:53:28.000Z</time>
      </trkpt>
      <trkpt lat="43.04056" lon="-0.76564">
        <ele>797.8</ele>
        <time>2021-12-29T13:53:29.000Z</time>
      </trkpt>
      <trkpt lat="43.04058" lon="-0.76563">
        <ele>797.8</ele>
        <time>2021-12-29T13:53:30.000Z</time>
      </trkpt>
      <trkpt lat="43.04059" lon="-0.76562">
        <ele>798</ele>
        <time>2021-12-29T13:53:31.000Z</time>
      </trkpt>
      <trkpt lat="43.0406" lon="-0.76561">
        <ele>798.4</ele>
        <time>2021-12-29T13:53:32.000Z</time>
      </trkpt>
      <trkpt lat="43.04062" lon="-0.7656">
        <ele>798.6</ele>
        <time>2021-12-29T13:53:33.000Z</time>
      </trkpt>
      <trkpt lat="43.04064" lon="-0.7656">
        <ele>798.8</ele>
        <time>2021-12-29T13:53:34.000Z</time>
      </trkpt>
      <trkpt lat="43.04065" lon="-0.7656">
        <ele>798.8</ele>
        <time>2021-12-29T13:53:35.000Z</time>
      </trkpt>
      <trkpt lat="43.04068" lon="-0.76559">
        <ele>798.6</ele>
        <time>2021-12-29T13:53:36.000Z</time>
      </trkpt>
      <trkpt lat="43.04069" lon="-0.76557">
        <ele>798.4</ele>
        <time>2021-12-29T13:53:37.000Z</time>
      </trkpt>
      <trkpt lat="43.04071" lon="-0.76557">
        <ele>798.6</ele>
        <time>2021-12-29T13:53:38.000Z</time>
      </trkpt>
      <trkpt lat="43.04073" lon="-0.76556">
        <ele>798.8</ele>
        <time>2021-12-29T13:53:39.000Z</time>
      </trkpt>
      <trkpt lat="43.04074" lon="-0.76555">
        <ele>798.8</ele>
        <time>2021-12-29T13:53:40.000Z</time>
      </trkpt>
      <trkpt lat="43.04077" lon="-0.76554">
        <ele>799.2</ele>
        <time>2021-12-29T13:53:41.000Z</time>
      </trkpt>
      <trkpt lat="43.04078" lon="-0.76554">
        <ele>799.4</ele>
        <time>2021-12-29T13:53:42.000Z</time>
      </trkpt>
      <trkpt lat="43.04079" lon="-0.76553">
        <ele>799.6</ele>
        <time>2021-12-29T13:53:43.000Z</time>
      </trkpt>
      <trkpt lat="43.04082" lon="-0.76553">
        <ele>799.8</ele>
        <time>2021-12-29T13:53:44.000Z</time>
      </trkpt>
      <trkpt lat="43.04083" lon="-0.76553">
        <ele>800</ele>
        <time>2021-12-29T13:53:45.000Z</time>
      </trkpt>
      <trkpt lat="43.04085" lon="-0.76553">
        <ele>800</ele>
        <time>2021-12-29T13:53:46.000Z</time>
      </trkpt>
      <trkpt lat="43.04087" lon="-0.76554">
        <ele>800.2</ele>
        <time>2021-12-29T13:53:47.000Z</time>
      </trkpt>
      <trkpt lat="43.04089" lon="-0.76554">
        <ele>800.2</ele>
        <time>2021-12-29T13:53:48.000Z</time>
      </trkpt>
      <trkpt lat="43.04091" lon="-0.76554">
        <ele>800</ele>
        <time>2021-12-29T13:53:49.000Z</time>
      </trkpt>
      <trkpt lat="43.04093" lon="-0.76554">
        <ele>799.8</ele>
        <time>2021-12-29T13:53:50.000Z</time>
      </trkpt>
      <trkpt lat="43.04095" lon="-0.76554">
        <ele>799.4</ele>
        <time>2021-12-29T13:53:51.000Z</time>
      </trkpt>
      <trkpt lat="43.04097" lon="-0.76555">
        <ele>799</ele>
        <time>2021-12-29T13:53:52.000Z</time>
      </trkpt>
      <trkpt lat="43.041" lon="-0.76555">
        <ele>798.8</ele>
        <time>2021-12-29T13:53:53.000Z</time>
      </trkpt>
      <trkpt lat="43.04101" lon="-0.76555">
        <ele>799.2</ele>
        <time>2021-12-29T13:53:54.000Z</time>
      </trkpt>
      <trkpt lat="43.04103" lon="-0.76555">
        <ele>799.4</ele>
        <time>2021-12-29T13:53:55.000Z</time>
      </trkpt>
      <trkpt lat="43.04105" lon="-0.76555">
        <ele>799.8</ele>
        <time>2021-12-29T13:53:56.000Z</time>
      </trkpt>
      <trkpt lat="43.04108" lon="-0.76554">
        <ele>800.2</ele>
        <time>2021-12-29T13:53:57.000Z</time>
      </trkpt>
      <trkpt lat="43.0411" lon="-0.76554">
        <ele>800.8</ele>
        <time>2021-12-29T13:53:58.000Z</time>
      </trkpt>
      <trkpt lat="43.04112" lon="-0.76553">
        <ele>801</ele>
        <time>2021-12-29T13:53:59.000Z</time>
      </trkpt>
      <trkpt lat="43.04113" lon="-0.76552">
        <ele>801.2</ele>
        <time>2021-12-29T13:54:00.000Z</time>
      </trkpt>
      <trkpt lat="43.04115" lon="-0.76551">
        <ele>801.4</ele>
        <time>2021-12-29T13:54:01.000Z</time>
      </trkpt>
      <trkpt lat="43.04116" lon="-0.7655">
        <ele>801.6</ele>
        <time>2021-12-29T13:54:02.000Z</time>
      </trkpt>
      <trkpt lat="43.04116" lon="-0.76549">
        <ele>801.6</ele>
        <time>2021-12-29T13:54:03.000Z</time>
      </trkpt>
      <trkpt lat="43.04118" lon="-0.76547">
        <ele>801.8</ele>
        <time>2021-12-29T13:54:04.000Z</time>
      </trkpt>
      <trkpt lat="43.04119" lon="-0.76546">
        <ele>801.8</ele>
        <time>2021-12-29T13:54:05.000Z</time>
      </trkpt>
      <trkpt lat="43.0412" lon="-0.76544">
        <ele>801.8</ele>
        <time>2021-12-29T13:54:06.000Z</time>
      </trkpt>
      <trkpt lat="43.04122" lon="-0.76543">
        <ele>801.8</ele>
        <time>2021-12-29T13:54:07.000Z</time>
      </trkpt>
      <trkpt lat="43.04123" lon="-0.7654">
        <ele>802</ele>
        <time>2021-12-29T13:54:08.000Z</time>
      </trkpt>
      <trkpt lat="43.04125" lon="-0.76538">
        <ele>802</ele>
        <time>2021-12-29T13:54:09.000Z</time>
      </trkpt>
      <trkpt lat="43.04126" lon="-0.76536">
        <ele>802</ele>
        <time>2021-12-29T13:54:10.000Z</time>
      </trkpt>
      <trkpt lat="43.04127" lon="-0.76533">
        <ele>801.8</ele>
        <time>2021-12-29T13:54:11.000Z</time>
      </trkpt>
      <trkpt lat="43.04128" lon="-0.76531">
        <ele>801.8</ele>
        <time>2021-12-29T13:54:12.000Z</time>
      </trkpt>
      <trkpt lat="43.0413" lon="-0.76529">
        <ele>801.8</ele>
        <time>2021-12-29T13:54:13.000Z</time>
      </trkpt>
      <trkpt lat="43.04131" lon="-0.76527">
        <ele>802</ele>
        <time>2021-12-29T13:54:14.000Z</time>
      </trkpt>
      <trkpt lat="43.04132" lon="-0.76526">
        <ele>802</ele>
        <time>2021-12-29T13:54:15.000Z</time>
      </trkpt>
      <trkpt lat="43.04134" lon="-0.76524">
        <ele>801.8</ele>
        <time>2021-12-29T13:54:16.000Z</time>
      </trkpt>
      <trkpt lat="43.04136" lon="-0.76523">
        <ele>801.2</ele>
        <time>2021-12-29T13:54:17.000Z</time>
      </trkpt>
      <trkpt lat="43.04137" lon="-0.76522">
        <ele>800.2</ele>
        <time>2021-12-29T13:54:18.000Z</time>
      </trkpt>
      <trkpt lat="43.0414" lon="-0.7652">
        <ele>798.8</ele>
        <time>2021-12-29T13:54:19.000Z</time>
      </trkpt>
      <trkpt lat="43.04142" lon="-0.76517">
        <ele>797.6</ele>
        <time>2021-12-29T13:54:20.000Z</time>
      </trkpt>
      <trkpt lat="43.04145" lon="-0.76514">
        <ele>796.2</ele>
        <time>2021-12-29T13:54:21.000Z</time>
      </trkpt>
      <trkpt lat="43.04147" lon="-0.76513">
        <ele>795.4</ele>
        <time>2021-12-29T13:54:22.000Z</time>
      </trkpt>
      <trkpt lat="43.04148" lon="-0.76512">
        <ele>794.6</ele>
        <time>2021-12-29T13:54:23.000Z</time>
      </trkpt>
      <trkpt lat="43.04152" lon="-0.7651">
        <ele>793.8</ele>
        <time>2021-12-29T13:54:24.000Z</time>
      </trkpt>
      <trkpt lat="43.04156" lon="-0.76505">
        <ele>793.4</ele>
        <time>2021-12-29T13:54:25.000Z</time>
      </trkpt>
      <trkpt lat="43.04159" lon="-0.76499">
        <ele>792.8</ele>
        <time>2021-12-29T13:54:26.000Z</time>
      </trkpt>
      <trkpt lat="43.04161" lon="-0.76494">
        <ele>792.2</ele>
        <time>2021-12-29T13:54:27.000Z</time>
      </trkpt>
      <trkpt lat="43.04164" lon="-0.76489">
        <ele>791.4</ele>
        <time>2021-12-29T13:54:28.000Z</time>
      </trkpt>
      <trkpt lat="43.04167" lon="-0.76483">
        <ele>790.8</ele>
        <time>2021-12-29T13:54:29.000Z</time>
      </trkpt>
      <trkpt lat="43.0417" lon="-0.76478">
        <ele>790.2</ele>
        <time>2021-12-29T13:54:30.000Z</time>
      </trkpt>
      <trkpt lat="43.04173" lon="-0.76473">
        <ele>789.4</ele>
        <time>2021-12-29T13:54:31.000Z</time>
      </trkpt>
      <trkpt lat="43.04177" lon="-0.7647">
        <ele>789</ele>
        <time>2021-12-29T13:54:32.000Z</time>
      </trkpt>
      <trkpt lat="43.0418" lon="-0.76467">
        <ele>789.4</ele>
        <time>2021-12-29T13:54:33.000Z</time>
      </trkpt>
      <trkpt lat="43.04182" lon="-0.76466">
        <ele>789.6</ele>
        <time>2021-12-29T13:54:34.000Z</time>
      </trkpt>
      <trkpt lat="43.04184" lon="-0.76464">
        <ele>789.8</ele>
        <time>2021-12-29T13:54:35.000Z</time>
      </trkpt>
      <trkpt lat="43.04186" lon="-0.76461">
        <ele>790</ele>
        <time>2021-12-29T13:54:36.000Z</time>
      </trkpt>
      <trkpt lat="43.04187" lon="-0.76459">
        <ele>790.4</ele>
        <time>2021-12-29T13:54:37.000Z</time>
      </trkpt>
      <trkpt lat="43.04189" lon="-0.76457">
        <ele>790.6</ele>
        <time>2021-12-29T13:54:38.000Z</time>
      </trkpt>
      <trkpt lat="43.0419" lon="-0.76455">
        <ele>790.6</ele>
        <time>2021-12-29T13:54:39.000Z</time>
      </trkpt>
      <trkpt lat="43.04192" lon="-0.76453">
        <ele>790.8</ele>
        <time>2021-12-29T13:54:40.000Z</time>
      </trkpt>
      <trkpt lat="43.04194" lon="-0.76451">
        <ele>791</ele>
        <time>2021-12-29T13:54:41.000Z</time>
      </trkpt>
      <trkpt lat="43.04195" lon="-0.7645">
        <ele>791</ele>
        <time>2021-12-29T13:54:42.000Z</time>
      </trkpt>
      <trkpt lat="43.04196" lon="-0.76448">
        <ele>791.4</ele>
        <time>2021-12-29T13:54:43.000Z</time>
      </trkpt>
      <trkpt lat="43.04198" lon="-0.76446">
        <ele>791.4</ele>
        <time>2021-12-29T13:54:44.000Z</time>
      </trkpt>
      <trkpt lat="43.042" lon="-0.76445">
        <ele>791.8</ele>
        <time>2021-12-29T13:54:45.000Z</time>
      </trkpt>
      <trkpt lat="43.04202" lon="-0.76443">
        <ele>792</ele>
        <time>2021-12-29T13:54:46.000Z</time>
      </trkpt>
      <trkpt lat="43.04205" lon="-0.7644">
        <ele>792.2</ele>
        <time>2021-12-29T13:54:47.000Z</time>
      </trkpt>
      <trkpt lat="43.04207" lon="-0.76438">
        <ele>792.6</ele>
        <time>2021-12-29T13:54:48.000Z</time>
      </trkpt>
      <trkpt lat="43.04209" lon="-0.76436">
        <ele>792.8</ele>
        <time>2021-12-29T13:54:49.000Z</time>
      </trkpt>
      <trkpt lat="43.0421" lon="-0.76435">
        <ele>792.8</ele>
        <time>2021-12-29T13:54:50.000Z</time>
      </trkpt>
      <trkpt lat="43.04212" lon="-0.76433">
        <ele>792.8</ele>
        <time>2021-12-29T13:54:51.000Z</time>
      </trkpt>
      <trkpt lat="43.04214" lon="-0.76431">
        <ele>793</ele>
        <time>2021-12-29T13:54:52.000Z</time>
      </trkpt>
      <trkpt lat="43.04216" lon="-0.76428">
        <ele>793.2</ele>
        <time>2021-12-29T13:54:53.000Z</time>
      </trkpt>
      <trkpt lat="43.04218" lon="-0.76427">
        <ele>793.4</ele>
        <time>2021-12-29T13:54:54.000Z</time>
      </trkpt>
      <trkpt lat="43.0422" lon="-0.76425">
        <ele>793.6</ele>
        <time>2021-12-29T13:54:55.000Z</time>
      </trkpt>
      <trkpt lat="43.04221" lon="-0.76424">
        <ele>793.8</ele>
        <time>2021-12-29T13:54:56.000Z</time>
      </trkpt>
      <trkpt lat="43.04223" lon="-0.76422">
        <ele>794</ele>
        <time>2021-12-29T13:54:57.000Z</time>
      </trkpt>
      <trkpt lat="43.04224" lon="-0.76421">
        <ele>794.2</ele>
        <time>2021-12-29T13:54:58.000Z</time>
      </trkpt>
      <trkpt lat="43.04226" lon="-0.76419">
        <ele>794.2</ele>
        <time>2021-12-29T13:54:59.000Z</time>
      </trkpt>
      <trkpt lat="43.04227" lon="-0.76417">
        <ele>794.6</ele>
        <time>2021-12-29T13:55:00.000Z</time>
      </trkpt>
      <trkpt lat="43.04229" lon="-0.76416">
        <ele>794.8</ele>
        <time>2021-12-29T13:55:01.000Z</time>
      </trkpt>
      <trkpt lat="43.0423" lon="-0.76415">
        <ele>795</ele>
        <time>2021-12-29T13:55:02.000Z</time>
      </trkpt>
      <trkpt lat="43.04231" lon="-0.76414">
        <ele>795.2</ele>
        <time>2021-12-29T13:55:03.000Z</time>
      </trkpt>
      <trkpt lat="43.04233" lon="-0.76413">
        <ele>795.4</ele>
        <time>2021-12-29T13:55:04.000Z</time>
      </trkpt>
      <trkpt lat="43.04235" lon="-0.76411">
        <ele>795.8</ele>
        <time>2021-12-29T13:55:05.000Z</time>
      </trkpt>
      <trkpt lat="43.04236" lon="-0.7641">
        <ele>796</ele>
        <time>2021-12-29T13:55:06.000Z</time>
      </trkpt>
      <trkpt lat="43.04238" lon="-0.76409">
        <ele>796.2</ele>
        <time>2021-12-29T13:55:07.000Z</time>
      </trkpt>
      <trkpt lat="43.04239" lon="-0.76407">
        <ele>796.4</ele>
        <time>2021-12-29T13:55:08.000Z</time>
      </trkpt>
      <trkpt lat="43.0424" lon="-0.76406">
        <ele>796.6</ele>
        <time>2021-12-29T13:55:09.000Z</time>
      </trkpt>
      <trkpt lat="43.04241" lon="-0.76405">
        <ele>796.8</ele>
        <time>2021-12-29T13:55:10.000Z</time>
      </trkpt>
      <trkpt lat="43.04243" lon="-0.76403">
        <ele>796.8</ele>
        <time>2021-12-29T13:55:11.000Z</time>
      </trkpt>
      <trkpt lat="43.04245" lon="-0.76402">
        <ele>796.6</ele>
        <time>2021-12-29T13:55:12.000Z</time>
      </trkpt>
      <trkpt lat="43.04248" lon="-0.76401">
        <ele>796.2</ele>
        <time>2021-12-29T13:55:13.000Z</time>
      </trkpt>
      <trkpt lat="43.0425" lon="-0.764">
        <ele>796</ele>
        <time>2021-12-29T13:55:14.000Z</time>
      </trkpt>
      <trkpt lat="43.04252" lon="-0.76399">
        <ele>795</ele>
        <time>2021-12-29T13:55:15.000Z</time>
      </trkpt>
      <trkpt lat="43.04255" lon="-0.76397">
        <ele>794.2</ele>
        <time>2021-12-29T13:55:16.000Z</time>
      </trkpt>
      <trkpt lat="43.04257" lon="-0.76395">
        <ele>794</ele>
        <time>2021-12-29T13:55:17.000Z</time>
      </trkpt>
      <trkpt lat="43.04259" lon="-0.76392">
        <ele>793.8</ele>
        <time>2021-12-29T13:55:18.000Z</time>
      </trkpt>
      <trkpt lat="43.04261" lon="-0.76389">
        <ele>793.6</ele>
        <time>2021-12-29T13:55:19.000Z</time>
      </trkpt>
      <trkpt lat="43.04265" lon="-0.76385">
        <ele>793.2</ele>
        <time>2021-12-29T13:55:20.000Z</time>
      </trkpt>
      <trkpt lat="43.04269" lon="-0.76381">
        <ele>792.6</ele>
        <time>2021-12-29T13:55:21.000Z</time>
      </trkpt>
      <trkpt lat="43.04272" lon="-0.76377">
        <ele>792.4</ele>
        <time>2021-12-29T13:55:22.000Z</time>
      </trkpt>
      <trkpt lat="43.04275" lon="-0.76374">
        <ele>792.4</ele>
        <time>2021-12-29T13:55:23.000Z</time>
      </trkpt>
      <trkpt lat="43.04278" lon="-0.76371">
        <ele>793</ele>
        <time>2021-12-29T13:55:24.000Z</time>
      </trkpt>
      <trkpt lat="43.0428" lon="-0.7637">
        <ele>793.2</ele>
        <time>2021-12-29T13:55:25.000Z</time>
      </trkpt>
      <trkpt lat="43.04281" lon="-0.76368">
        <ele>793.6</ele>
        <time>2021-12-29T13:55:26.000Z</time>
      </trkpt>
      <trkpt lat="43.04282" lon="-0.76366">
        <ele>794</ele>
        <time>2021-12-29T13:55:27.000Z</time>
      </trkpt>
      <trkpt lat="43.04284" lon="-0.76364">
        <ele>794.6</ele>
        <time>2021-12-29T13:55:28.000Z</time>
      </trkpt>
      <trkpt lat="43.04285" lon="-0.76361">
        <ele>794.8</ele>
        <time>2021-12-29T13:55:29.000Z</time>
      </trkpt>
      <trkpt lat="43.04286" lon="-0.76359">
        <ele>795.4</ele>
        <time>2021-12-29T13:55:30.000Z</time>
      </trkpt>
      <trkpt lat="43.04288" lon="-0.76357">
        <ele>796</ele>
        <time>2021-12-29T13:55:31.000Z</time>
      </trkpt>
      <trkpt lat="43.04289" lon="-0.76355">
        <ele>796.4</ele>
        <time>2021-12-29T13:55:32.000Z</time>
      </trkpt>
      <trkpt lat="43.0429" lon="-0.76353">
        <ele>796.8</ele>
        <time>2021-12-29T13:55:33.000Z</time>
      </trkpt>
      <trkpt lat="43.04291" lon="-0.76352">
        <ele>797</ele>
        <time>2021-12-29T13:55:34.000Z</time>
      </trkpt>
      <trkpt lat="43.04292" lon="-0.7635">
        <ele>797.2</ele>
        <time>2021-12-29T13:55:35.000Z</time>
      </trkpt>
      <trkpt lat="43.04294" lon="-0.76349">
        <ele>797.4</ele>
        <time>2021-12-29T13:55:36.000Z</time>
      </trkpt>
      <trkpt lat="43.04295" lon="-0.76348">
        <ele>797.8</ele>
        <time>2021-12-29T13:55:37.000Z</time>
      </trkpt>
      <trkpt lat="43.04296" lon="-0.76346">
        <ele>797.8</ele>
        <time>2021-12-29T13:55:38.000Z</time>
      </trkpt>
      <trkpt lat="43.04297" lon="-0.76345">
        <ele>798.2</ele>
        <time>2021-12-29T13:55:39.000Z</time>
      </trkpt>
      <trkpt lat="43.04299" lon="-0.76343">
        <ele>798.4</ele>
        <time>2021-12-29T13:55:40.000Z</time>
      </trkpt>
      <trkpt lat="43.043" lon="-0.76342">
        <ele>798.6</ele>
        <time>2021-12-29T13:55:41.000Z</time>
      </trkpt>
      <trkpt lat="43.04301" lon="-0.76341">
        <ele>798.6</ele>
        <time>2021-12-29T13:55:42.000Z</time>
      </trkpt>
      <trkpt lat="43.04302" lon="-0.76339">
        <ele>798.8</ele>
        <time>2021-12-29T13:55:43.000Z</time>
      </trkpt>
      <trkpt lat="43.04304" lon="-0.76338">
        <ele>798.8</ele>
        <time>2021-12-29T13:55:44.000Z</time>
      </trkpt>
      <trkpt lat="43.04305" lon="-0.76336">
        <ele>798.4</ele>
        <time>2021-12-29T13:55:45.000Z</time>
      </trkpt>
      <trkpt lat="43.04308" lon="-0.76334">
        <ele>797.8</ele>
        <time>2021-12-29T13:55:46.000Z</time>
      </trkpt>
      <trkpt lat="43.04312" lon="-0.76331">
        <ele>797.4</ele>
        <time>2021-12-29T13:55:47.000Z</time>
      </trkpt>
      <trkpt lat="43.04315" lon="-0.76329">
        <ele>797.2</ele>
        <time>2021-12-29T13:55:48.000Z</time>
      </trkpt>
      <trkpt lat="43.04319" lon="-0.76326">
        <ele>797.4</ele>
        <time>2021-12-29T13:55:49.000Z</time>
      </trkpt>
      <trkpt lat="43.04321" lon="-0.76324">
        <ele>797.6</ele>
        <time>2021-12-29T13:55:50.000Z</time>
      </trkpt>
      <trkpt lat="43.04322" lon="-0.76322">
        <ele>797.6</ele>
        <time>2021-12-29T13:55:51.000Z</time>
      </trkpt>
      <trkpt lat="43.04324" lon="-0.76321">
        <ele>797.8</ele>
        <time>2021-12-29T13:55:52.000Z</time>
      </trkpt>
      <trkpt lat="43.04325" lon="-0.76319">
        <ele>797.8</ele>
        <time>2021-12-29T13:55:53.000Z</time>
      </trkpt>
      <trkpt lat="43.04326" lon="-0.76318">
        <ele>798.2</ele>
        <time>2021-12-29T13:55:54.000Z</time>
      </trkpt>
      <trkpt lat="43.04327" lon="-0.76317">
        <ele>798.4</ele>
        <time>2021-12-29T13:55:55.000Z</time>
      </trkpt>
      <trkpt lat="43.04329" lon="-0.76316">
        <ele>798.6</ele>
        <time>2021-12-29T13:55:56.000Z</time>
      </trkpt>
      <trkpt lat="43.0433" lon="-0.76314">
        <ele>798.8</ele>
        <time>2021-12-29T13:55:57.000Z</time>
      </trkpt>
      <trkpt lat="43.04332" lon="-0.76314">
        <ele>799</ele>
        <time>2021-12-29T13:55:58.000Z</time>
      </trkpt>
      <trkpt lat="43.04333" lon="-0.76312">
        <ele>799.4</ele>
        <time>2021-12-29T13:55:59.000Z</time>
      </trkpt>
      <trkpt lat="43.04334" lon="-0.76311">
        <ele>799.6</ele>
        <time>2021-12-29T13:56:00.000Z</time>
      </trkpt>
      <trkpt lat="43.04335" lon="-0.7631">
        <ele>800</ele>
        <time>2021-12-29T13:56:01.000Z</time>
      </trkpt>
      <trkpt lat="43.04336" lon="-0.76308">
        <ele>800.2</ele>
        <time>2021-12-29T13:56:02.000Z</time>
      </trkpt>
      <trkpt lat="43.04336" lon="-0.76306">
        <ele>800.4</ele>
        <time>2021-12-29T13:56:03.000Z</time>
      </trkpt>
      <trkpt lat="43.04337" lon="-0.76304">
        <ele>800.6</ele>
        <time>2021-12-29T13:56:04.000Z</time>
      </trkpt>
      <trkpt lat="43.04338" lon="-0.76302">
        <ele>800.6</ele>
        <time>2021-12-29T13:56:05.000Z</time>
      </trkpt>
      <trkpt lat="43.04339" lon="-0.76301">
        <ele>800.8</ele>
        <time>2021-12-29T13:56:06.000Z</time>
      </trkpt>
      <trkpt lat="43.04339" lon="-0.76299">
        <ele>801</ele>
        <time>2021-12-29T13:56:07.000Z</time>
      </trkpt>
      <trkpt lat="43.0434" lon="-0.76297">
        <ele>801</ele>
        <time>2021-12-29T13:56:08.000Z</time>
      </trkpt>
      <trkpt lat="43.04341" lon="-0.76295">
        <ele>801.4</ele>
        <time>2021-12-29T13:56:09.000Z</time>
      </trkpt>
      <trkpt lat="43.04342" lon="-0.76293">
        <ele>801.4</ele>
        <time>2021-12-29T13:56:10.000Z</time>
      </trkpt>
      <trkpt lat="43.04343" lon="-0.76291">
        <ele>801.8</ele>
        <time>2021-12-29T13:56:11.000Z</time>
      </trkpt>
      <trkpt lat="43.04344" lon="-0.7629">
        <ele>802</ele>
        <time>2021-12-29T13:56:12.000Z</time>
      </trkpt>
      <trkpt lat="43.04345" lon="-0.76288">
        <ele>802.4</ele>
        <time>2021-12-29T13:56:13.000Z</time>
      </trkpt>
      <trkpt lat="43.04346" lon="-0.76286">
        <ele>802.6</ele>
        <time>2021-12-29T13:56:14.000Z</time>
      </trkpt>
      <trkpt lat="43.04347" lon="-0.76284">
        <ele>802.8</ele>
        <time>2021-12-29T13:56:15.000Z</time>
      </trkpt>
      <trkpt lat="43.04348" lon="-0.76283">
        <ele>803</ele>
        <time>2021-12-29T13:56:16.000Z</time>
      </trkpt>
      <trkpt lat="43.04349" lon="-0.76281">
        <ele>803.2</ele>
        <time>2021-12-29T13:56:17.000Z</time>
      </trkpt>
      <trkpt lat="43.0435" lon="-0.76279">
        <ele>803.4</ele>
        <time>2021-12-29T13:56:18.000Z</time>
      </trkpt>
      <trkpt lat="43.0435" lon="-0.76278">
        <ele>803.4</ele>
        <time>2021-12-29T13:56:19.000Z</time>
      </trkpt>
      <trkpt lat="43.04351" lon="-0.76277">
        <ele>803.6</ele>
        <time>2021-12-29T13:56:20.000Z</time>
      </trkpt>
      <trkpt lat="43.04351" lon="-0.76276">
        <ele>803.4</ele>
        <time>2021-12-29T13:56:21.000Z</time>
      </trkpt>
      <trkpt lat="43.04352" lon="-0.76276">
        <ele>803.4</ele>
        <time>2021-12-29T13:56:22.000Z</time>
      </trkpt>
      <trkpt lat="43.04352" lon="-0.76276">
        <ele>803.4</ele>
        <time>2021-12-29T13:56:23.000Z</time>
      </trkpt>
      <trkpt lat="43.04352" lon="-0.76275">
        <ele>803.4</ele>
        <time>2021-12-29T13:56:24.000Z</time>
      </trkpt>
      <trkpt lat="43.04352" lon="-0.76275">
        <ele>803.4</ele>
        <time>2021-12-29T13:56:25.000Z</time>
      </trkpt>
      <trkpt lat="43.04352" lon="-0.76275">
        <ele>803.4</ele>
        <time>2021-12-29T13:56:26.000Z</time>
      </trkpt>
      <trkpt lat="43.04352" lon="-0.76275">
        <ele>803.4</ele>
        <time>2021-12-29T13:56:27.000Z</time>
      </trkpt>
      <trkpt lat="43.04353" lon="-0.76274">
        <ele>803.4</ele>
        <time>2021-12-29T13:58:25.000Z</time>
      </trkpt>
      <trkpt lat="43.04392" lon="-0.76226">
        <ele>796</ele>
        <time>2021-12-29T13:58:26.000Z</time>
      </trkpt>
      <trkpt lat="43.04396" lon="-0.7622">
        <ele>795.2</ele>
        <time>2021-12-29T13:58:27.000Z</time>
      </trkpt>
      <trkpt lat="43.04401" lon="-0.76213">
        <ele>794.2</ele>
        <time>2021-12-29T13:58:28.000Z</time>
      </trkpt>
      <trkpt lat="43.04405" lon="-0.76205">
        <ele>793</ele>
        <time>2021-12-29T13:58:29.000Z</time>
      </trkpt>
      <trkpt lat="43.04408" lon="-0.76198">
        <ele>791.6</ele>
        <time>2021-12-29T13:58:30.000Z</time>
      </trkpt>
      <trkpt lat="43.04411" lon="-0.7619">
        <ele>789.6</ele>
        <time>2021-12-29T13:58:31.000Z</time>
      </trkpt>
      <trkpt lat="43.04411" lon="-0.76181">
        <ele>788</ele>
        <time>2021-12-29T13:58:32.000Z</time>
      </trkpt>
      <trkpt lat="43.0441" lon="-0.76171">
        <ele>788</ele>
        <time>2021-12-29T13:58:33.000Z</time>
      </trkpt>
      <trkpt lat="43.04407" lon="-0.7616">
        <ele>788</ele>
        <time>2021-12-29T13:58:34.000Z</time>
      </trkpt>
      <trkpt lat="43.04404" lon="-0.76148">
        <ele>788</ele>
        <time>2021-12-29T13:58:35.000Z</time>
      </trkpt>
      <trkpt lat="43.04402" lon="-0.76135">
        <ele>788</ele>
        <time>2021-12-29T13:58:36.000Z</time>
      </trkpt>
      <trkpt lat="43.044" lon="-0.76122">
        <ele>788</ele>
        <time>2021-12-29T13:58:37.000Z</time>
      </trkpt>
      <trkpt lat="43.04397" lon="-0.76109">
        <ele>775</ele>
        <time>2021-12-29T13:58:38.000Z</time>
      </trkpt>
      <trkpt lat="43.04394" lon="-0.76095">
        <ele>775</ele>
        <time>2021-12-29T13:58:39.000Z</time>
      </trkpt>
      <trkpt lat="43.0439" lon="-0.76083">
        <ele>775</ele>
        <time>2021-12-29T13:58:40.000Z</time>
      </trkpt>
      <trkpt lat="43.04386" lon="-0.76072">
        <ele>775</ele>
        <time>2021-12-29T13:58:41.000Z</time>
      </trkpt>
      <trkpt lat="43.04383" lon="-0.76061">
        <ele>775</ele>
        <time>2021-12-29T13:58:42.000Z</time>
      </trkpt>
      <trkpt lat="43.0438" lon="-0.76052">
        <ele>775</ele>
        <time>2021-12-29T13:58:43.000Z</time>
      </trkpt>
      <trkpt lat="43.04378" lon="-0.76043">
        <ele>770</ele>
        <time>2021-12-29T13:58:44.000Z</time>
      </trkpt>
      <trkpt lat="43.04377" lon="-0.76035">
        <ele>768.6</ele>
        <time>2021-12-29T13:58:45.000Z</time>
      </trkpt>
      <trkpt lat="43.04376" lon="-0.76025">
        <ele>767.2</ele>
        <time>2021-12-29T13:58:46.000Z</time>
      </trkpt>
      <trkpt lat="43.04375" lon="-0.76016">
        <ele>765.6</ele>
        <time>2021-12-29T13:58:47.000Z</time>
      </trkpt>
      <trkpt lat="43.04374" lon="-0.76008">
        <ele>764.6</ele>
        <time>2021-12-29T13:58:48.000Z</time>
      </trkpt>
      <trkpt lat="43.04375" lon="-0.76002">
        <ele>763.2</ele>
        <time>2021-12-29T13:58:49.000Z</time>
      </trkpt>
      <trkpt lat="43.04377" lon="-0.75998">
        <ele>762</ele>
        <time>2021-12-29T13:58:50.000Z</time>
      </trkpt>
      <trkpt lat="43.04381" lon="-0.75995">
        <ele>760</ele>
        <time>2021-12-29T13:58:51.000Z</time>
      </trkpt>
      <trkpt lat="43.04385" lon="-0.7599">
        <ele>760</ele>
        <time>2021-12-29T13:58:52.000Z</time>
      </trkpt>
      <trkpt lat="43.04388" lon="-0.75988">
        <ele>760</ele>
        <time>2021-12-29T13:58:53.000Z</time>
      </trkpt>
      <trkpt lat="43.04391" lon="-0.75988">
        <ele>760</ele>
        <time>2021-12-29T13:58:54.000Z</time>
      </trkpt>
      <trkpt lat="43.04394" lon="-0.75987">
        <ele>760</ele>
        <time>2021-12-29T13:58:55.000Z</time>
      </trkpt>
      <trkpt lat="43.04395" lon="-0.75988">
        <ele>760</ele>
        <time>2021-12-29T13:58:56.000Z</time>
      </trkpt>
      <trkpt lat="43.04397" lon="-0.75988">
        <ele>751.6</ele>
        <time>2021-12-29T13:58:57.000Z</time>
      </trkpt>
      <trkpt lat="43.04398" lon="-0.75986">
        <ele>750.6</ele>
        <time>2021-12-29T13:58:58.000Z</time>
      </trkpt>
      <trkpt lat="43.04399" lon="-0.75984">
        <ele>749.4</ele>
        <time>2021-12-29T13:58:59.000Z</time>
      </trkpt>
      <trkpt lat="43.044" lon="-0.75981">
        <ele>748.6</ele>
        <time>2021-12-29T13:59:00.000Z</time>
      </trkpt>
      <trkpt lat="43.04401" lon="-0.75978">
        <ele>747.4</ele>
        <time>2021-12-29T13:59:01.000Z</time>
      </trkpt>
      <trkpt lat="43.04403" lon="-0.75974">
        <ele>746</ele>
        <time>2021-12-29T13:59:02.000Z</time>
      </trkpt>
      <trkpt lat="43.04404" lon="-0.7597">
        <ele>745.2</ele>
        <time>2021-12-29T13:59:03.000Z</time>
      </trkpt>
      <trkpt lat="43.04405" lon="-0.75968">
        <ele>744.6</ele>
        <time>2021-12-29T13:59:04.000Z</time>
      </trkpt>
      <trkpt lat="43.04407" lon="-0.75965">
        <ele>743.2</ele>
        <time>2021-12-29T13:59:05.000Z</time>
      </trkpt>
      <trkpt lat="43.04408" lon="-0.75964">
        <ele>741.6</ele>
        <time>2021-12-29T13:59:06.000Z</time>
      </trkpt>
      <trkpt lat="43.04408" lon="-0.75962">
        <ele>740.8</ele>
        <time>2021-12-29T13:59:07.000Z</time>
      </trkpt>
      <trkpt lat="43.04407" lon="-0.75962">
        <ele>739.2</ele>
        <time>2021-12-29T13:59:08.000Z</time>
      </trkpt>
      <trkpt lat="43.04407" lon="-0.75962">
        <ele>739.4</ele>
        <time>2021-12-29T13:59:09.000Z</time>
      </trkpt>
      <trkpt lat="43.04408" lon="-0.75961">
        <ele>739.8</ele>
        <time>2021-12-29T13:59:10.000Z</time>
      </trkpt>
      <trkpt lat="43.04409" lon="-0.7596">
        <ele>740.2</ele>
        <time>2021-12-29T13:59:11.000Z</time>
      </trkpt>
      <trkpt lat="43.0441" lon="-0.75959">
        <ele>740.4</ele>
        <time>2021-12-29T13:59:12.000Z</time>
      </trkpt>
      <trkpt lat="43.0441" lon="-0.75957">
        <ele>740.4</ele>
        <time>2021-12-29T13:59:13.000Z</time>
      </trkpt>
      <trkpt lat="43.0441" lon="-0.75956">
        <ele>740.4</ele>
        <time>2021-12-29T13:59:14.000Z</time>
      </trkpt>
      <trkpt lat="43.0441" lon="-0.75954">
        <ele>740.4</ele>
        <time>2021-12-29T13:59:15.000Z</time>
      </trkpt>
      <trkpt lat="43.0441" lon="-0.75953">
        <ele>740.4</ele>
        <time>2021-12-29T13:59:16.000Z</time>
      </trkpt>
      <trkpt lat="43.0441" lon="-0.75951">
        <ele>740</ele>
        <time>2021-12-29T13:59:24.000Z</time>
      </trkpt>
      <trkpt lat="43.04412" lon="-0.75928">
        <ele>734.6</ele>
        <time>2021-12-29T13:59:25.000Z</time>
      </trkpt>
      <trkpt lat="43.04411" lon="-0.75927">
        <ele>732.8</ele>
        <time>2021-12-29T13:59:26.000Z</time>
      </trkpt>
      <trkpt lat="43.04412" lon="-0.75925">
        <ele>731.2</ele>
        <time>2021-12-29T13:59:27.000Z</time>
      </trkpt>
      <trkpt lat="43.04414" lon="-0.75924">
        <ele>730.6</ele>
        <time>2021-12-29T13:59:28.000Z</time>
      </trkpt>
      <trkpt lat="43.04414" lon="-0.75923">
        <ele>730</ele>
        <time>2021-12-29T13:59:29.000Z</time>
      </trkpt>
      <trkpt lat="43.04414" lon="-0.75921">
        <ele>729.2</ele>
        <time>2021-12-29T13:59:30.000Z</time>
      </trkpt>
      <trkpt lat="43.04413" lon="-0.75919">
        <ele>728.4</ele>
        <time>2021-12-29T13:59:31.000Z</time>
      </trkpt>
      <trkpt lat="43.04412" lon="-0.75916">
        <ele>727.4</ele>
        <time>2021-12-29T13:59:32.000Z</time>
      </trkpt>
      <trkpt lat="43.04412" lon="-0.75915">
        <ele>726.6</ele>
        <time>2021-12-29T13:59:33.000Z</time>
      </trkpt>
      <trkpt lat="43.04412" lon="-0.75914">
        <ele>725.6</ele>
        <time>2021-12-29T13:59:34.000Z</time>
      </trkpt>
      <trkpt lat="43.04413" lon="-0.75913">
        <ele>724.4</ele>
        <time>2021-12-29T13:59:35.000Z</time>
      </trkpt>
      <trkpt lat="43.04414" lon="-0.75911">
        <ele>723.8</ele>
        <time>2021-12-29T13:59:36.000Z</time>
      </trkpt>
      <trkpt lat="43.04416" lon="-0.75909">
        <ele>722.6</ele>
        <time>2021-12-29T13:59:37.000Z</time>
      </trkpt>
      <trkpt lat="43.04417" lon="-0.75905">
        <ele>721.2</ele>
        <time>2021-12-29T13:59:38.000Z</time>
      </trkpt>
      <trkpt lat="43.04418" lon="-0.75902">
        <ele>720</ele>
        <time>2021-12-29T13:59:39.000Z</time>
      </trkpt>
      <trkpt lat="43.04419" lon="-0.75899">
        <ele>719.4</ele>
        <time>2021-12-29T13:59:40.000Z</time>
      </trkpt>
      <trkpt lat="43.0442" lon="-0.75898">
        <ele>718.2</ele>
        <time>2021-12-29T13:59:41.000Z</time>
      </trkpt>
      <trkpt lat="43.04421" lon="-0.75896">
        <ele>717</ele>
        <time>2021-12-29T13:59:42.000Z</time>
      </trkpt>
      <trkpt lat="43.04422" lon="-0.75892">
        <ele>715.8</ele>
        <time>2021-12-29T13:59:43.000Z</time>
      </trkpt>
      <trkpt lat="43.04424" lon="-0.75889">
        <ele>715.8</ele>
        <time>2021-12-29T13:59:44.000Z</time>
      </trkpt>
      <trkpt lat="43.04424" lon="-0.75888">
        <ele>715.8</ele>
        <time>2021-12-29T13:59:45.000Z</time>
      </trkpt>
      <trkpt lat="43.04424" lon="-0.75885">
        <ele>715.8</ele>
        <time>2021-12-29T13:59:46.000Z</time>
      </trkpt>
      <trkpt lat="43.04424" lon="-0.75884">
        <ele>715.8</ele>
        <time>2021-12-29T13:59:47.000Z</time>
      </trkpt>
      <trkpt lat="43.04424" lon="-0.75882">
        <ele>715.8</ele>
        <time>2021-12-29T13:59:48.000Z</time>
      </trkpt>
      <trkpt lat="43.04425" lon="-0.75879">
        <ele>713.6</ele>
        <time>2021-12-29T13:59:49.000Z</time>
      </trkpt>
      <trkpt lat="43.04425" lon="-0.75879">
        <ele>713.8</ele>
        <time>2021-12-29T13:59:50.000Z</time>
      </trkpt>
      <trkpt lat="43.04426" lon="-0.75878">
        <ele>713.8</ele>
        <time>2021-12-29T13:59:51.000Z</time>
      </trkpt>
      <trkpt lat="43.04427" lon="-0.75877">
        <ele>714</ele>
        <time>2021-12-29T14:01:10.000Z</time>
      </trkpt>
      <trkpt lat="43.04442" lon="-0.75849">
        <ele>699.6</ele>
        <time>2021-12-29T14:01:11.000Z</time>
      </trkpt>
      <trkpt lat="43.04443" lon="-0.75849">
        <ele>699.2</ele>
        <time>2021-12-29T14:01:12.000Z</time>
      </trkpt>
      <trkpt lat="43.04443" lon="-0.75849">
        <ele>699.2</ele>
        <time>2021-12-29T14:01:13.000Z</time>
      </trkpt>
      <trkpt lat="43.04443" lon="-0.75849">
        <ele>699.2</ele>
        <time>2021-12-29T14:01:14.000Z</time>
      </trkpt>
      <trkpt lat="43.04444" lon="-0.75848">
        <ele>699.2</ele>
        <time>2021-12-29T14:01:15.000Z</time>
      </trkpt>
      <trkpt lat="43.04445" lon="-0.75847">
        <ele>698.8</ele>
        <time>2021-12-29T14:01:16.000Z</time>
      </trkpt>
      <trkpt lat="43.04446" lon="-0.75847">
        <ele>698.6</ele>
        <time>2021-12-29T14:03:53.000Z</time>
      </trkpt>
      <trkpt lat="43.04464" lon="-0.75804">
        <ele>675.8</ele>
        <time>2021-12-29T14:03:54.000Z</time>
      </trkpt>
      <trkpt lat="43.04464" lon="-0.75801">
        <ele>675.4</ele>
        <time>2021-12-29T14:03:55.000Z</time>
      </trkpt>
      <trkpt lat="43.04464" lon="-0.75798">
        <ele>674.4</ele>
        <time>2021-12-29T14:03:56.000Z</time>
      </trkpt>
      <trkpt lat="43.04464" lon="-0.75796">
        <ele>673.6</ele>
        <time>2021-12-29T14:03:57.000Z</time>
      </trkpt>
      <trkpt lat="43.04465" lon="-0.75796">
        <ele>672.2</ele>
        <time>2021-12-29T14:03:58.000Z</time>
      </trkpt>
      <trkpt lat="43.04467" lon="-0.75793">
        <ele>670.6</ele>
        <time>2021-12-29T14:03:59.000Z</time>
      </trkpt>
      <trkpt lat="43.04467" lon="-0.75791">
        <ele>669.2</ele>
        <time>2021-12-29T14:04:00.000Z</time>
      </trkpt>
      <trkpt lat="43.04467" lon="-0.75789">
        <ele>668.2</ele>
        <time>2021-12-29T14:04:01.000Z</time>
      </trkpt>
      <trkpt lat="43.04466" lon="-0.75787">
        <ele>667</ele>
        <time>2021-12-29T14:04:02.000Z</time>
      </trkpt>
      <trkpt lat="43.04466" lon="-0.75786">
        <ele>666</ele>
        <time>2021-12-29T14:04:03.000Z</time>
      </trkpt>
      <trkpt lat="43.04466" lon="-0.75783">
        <ele>665</ele>
        <time>2021-12-29T14:04:04.000Z</time>
      </trkpt>
      <trkpt lat="43.04466" lon="-0.75782">
        <ele>663.8</ele>
        <time>2021-12-29T14:04:05.000Z</time>
      </trkpt>
      <trkpt lat="43.04467" lon="-0.75781">
        <ele>662.4</ele>
        <time>2021-12-29T14:04:06.000Z</time>
      </trkpt>
      <trkpt lat="43.04468" lon="-0.75781">
        <ele>661</ele>
        <time>2021-12-29T14:04:07.000Z</time>
      </trkpt>
      <trkpt lat="43.04468" lon="-0.7578">
        <ele>659.8</ele>
        <time>2021-12-29T14:04:08.000Z</time>
      </trkpt>
      <trkpt lat="43.04469" lon="-0.75778">
        <ele>658.8</ele>
        <time>2021-12-29T14:04:09.000Z</time>
      </trkpt>
      <trkpt lat="43.04471" lon="-0.75774">
        <ele>657.4</ele>
        <time>2021-12-29T14:04:10.000Z</time>
      </trkpt>
      <trkpt lat="43.04472" lon="-0.75772">
        <ele>656.2</ele>
        <time>2021-12-29T14:04:11.000Z</time>
      </trkpt>
      <trkpt lat="43.04473" lon="-0.75768">
        <ele>655</ele>
        <time>2021-12-29T14:04:12.000Z</time>
      </trkpt>
      <trkpt lat="43.04475" lon="-0.75764">
        <ele>655</ele>
        <time>2021-12-29T14:04:13.000Z</time>
      </trkpt>
      <trkpt lat="43.04476" lon="-0.75761">
        <ele>655</ele>
        <time>2021-12-29T14:04:14.000Z</time>
      </trkpt>
      <trkpt lat="43.04476" lon="-0.75758">
        <ele>655</ele>
        <time>2021-12-29T14:04:15.000Z</time>
      </trkpt>
      <trkpt lat="43.04477" lon="-0.75756">
        <ele>655</ele>
        <time>2021-12-29T14:04:16.000Z</time>
      </trkpt>
      <trkpt lat="43.04477" lon="-0.75751">
        <ele>655</ele>
        <time>2021-12-29T14:04:17.000Z</time>
      </trkpt>
      <trkpt lat="43.04475" lon="-0.75745">
        <ele>645.2</ele>
        <time>2021-12-29T14:04:18.000Z</time>
      </trkpt>
      <trkpt lat="43.04473" lon="-0.75739">
        <ele>644</ele>
        <time>2021-12-29T14:04:19.000Z</time>
      </trkpt>
      <trkpt lat="43.04471" lon="-0.75735">
        <ele>643.6</ele>
        <time>2021-12-29T14:04:20.000Z</time>
      </trkpt>
      <trkpt lat="43.04472" lon="-0.75731">
        <ele>643.6</ele>
        <time>2021-12-29T14:04:21.000Z</time>
      </trkpt>
      <trkpt lat="43.04473" lon="-0.75722">
        <ele>643.6</ele>
        <time>2021-12-29T14:04:22.000Z</time>
      </trkpt>
      <trkpt lat="43.04474" lon="-0.75715">
        <ele>643.6</ele>
        <time>2021-12-29T14:04:23.000Z</time>
      </trkpt>
      <trkpt lat="43.04474" lon="-0.75711">
        <ele>643.6</ele>
        <time>2021-12-29T14:04:24.000Z</time>
      </trkpt>
      <trkpt lat="43.04475" lon="-0.75708">
        <ele>643.6</ele>
        <time>2021-12-29T14:04:25.000Z</time>
      </trkpt>
      <trkpt lat="43.04475" lon="-0.75706">
        <ele>643.6</ele>
        <time>2021-12-29T14:04:26.000Z</time>
      </trkpt>
      <trkpt lat="43.04475" lon="-0.75705">
        <ele>643.6</ele>
        <time>2021-12-29T14:04:27.000Z</time>
      </trkpt>
      <trkpt lat="43.04475" lon="-0.75703">
        <ele>643.6</ele>
        <time>2021-12-29T14:05:32.000Z</time>
      </trkpt>
      <trkpt lat="43.0445" lon="-0.75671">
        <ele>634.8</ele>
        <time>2021-12-29T14:05:33.000Z</time>
      </trkpt>
      <trkpt lat="43.04453" lon="-0.75671">
        <ele>633.6</ele>
        <time>2021-12-29T14:05:34.000Z</time>
      </trkpt>
      <trkpt lat="43.04456" lon="-0.75669">
        <ele>632</ele>
        <time>2021-12-29T14:05:35.000Z</time>
      </trkpt>
      <trkpt lat="43.04455" lon="-0.75666">
        <ele>631.4</ele>
        <time>2021-12-29T14:05:36.000Z</time>
      </trkpt>
      <trkpt lat="43.04454" lon="-0.75662">
        <ele>630.6</ele>
        <time>2021-12-29T14:05:37.000Z</time>
      </trkpt>
      <trkpt lat="43.04454" lon="-0.75657">
        <ele>628.8</ele>
        <time>2021-12-29T14:05:38.000Z</time>
      </trkpt>
      <trkpt lat="43.04456" lon="-0.75652">
        <ele>627</ele>
        <time>2021-12-29T14:05:39.000Z</time>
      </trkpt>
      <trkpt lat="43.04458" lon="-0.75649">
        <ele>625</ele>
        <time>2021-12-29T14:05:40.000Z</time>
      </trkpt>
      <trkpt lat="43.04462" lon="-0.75645">
        <ele>625</ele>
        <time>2021-12-29T14:05:41.000Z</time>
      </trkpt>
      <trkpt lat="43.04466" lon="-0.7564">
        <ele>625</ele>
        <time>2021-12-29T14:05:42.000Z</time>
      </trkpt>
      <trkpt lat="43.04469" lon="-0.75638">
        <ele>625</ele>
        <time>2021-12-29T14:05:43.000Z</time>
      </trkpt>
      <trkpt lat="43.04469" lon="-0.75633">
        <ele>625</ele>
        <time>2021-12-29T14:05:44.000Z</time>
      </trkpt>
      <trkpt lat="43.0447" lon="-0.75628">
        <ele>625</ele>
        <time>2021-12-29T14:05:45.000Z</time>
      </trkpt>
      <trkpt lat="43.04471" lon="-0.75623">
        <ele>615</ele>
        <time>2021-12-29T14:05:46.000Z</time>
      </trkpt>
      <trkpt lat="43.04473" lon="-0.75617">
        <ele>615</ele>
        <time>2021-12-29T14:05:47.000Z</time>
      </trkpt>
      <trkpt lat="43.04477" lon="-0.75612">
        <ele>615</ele>
        <time>2021-12-29T14:05:48.000Z</time>
      </trkpt>
      <trkpt lat="43.04481" lon="-0.75606">
        <ele>615</ele>
        <time>2021-12-29T14:05:49.000Z</time>
      </trkpt>
      <trkpt lat="43.04486" lon="-0.75599">
        <ele>615</ele>
        <time>2021-12-29T14:05:50.000Z</time>
      </trkpt>
      <trkpt lat="43.0449" lon="-0.75592">
        <ele>615</ele>
        <time>2021-12-29T14:05:51.000Z</time>
      </trkpt>
      <trkpt lat="43.04494" lon="-0.75584">
        <ele>602.4</ele>
        <time>2021-12-29T14:05:52.000Z</time>
      </trkpt>
      <trkpt lat="43.04498" lon="-0.75577">
        <ele>602.4</ele>
        <time>2021-12-29T14:05:53.000Z</time>
      </trkpt>
      <trkpt lat="43.04503" lon="-0.7557">
        <ele>602.4</ele>
        <time>2021-12-29T14:05:54.000Z</time>
      </trkpt>
      <trkpt lat="43.04506" lon="-0.75563">
        <ele>602.4</ele>
        <time>2021-12-29T14:05:55.000Z</time>
      </trkpt>
      <trkpt lat="43.0451" lon="-0.75558">
        <ele>602.4</ele>
        <time>2021-12-29T14:05:56.000Z</time>
      </trkpt>
      <trkpt lat="43.04513" lon="-0.75555">
        <ele>602.4</ele>
        <time>2021-12-29T14:05:57.000Z</time>
      </trkpt>
      <trkpt lat="43.04515" lon="-0.75555">
        <ele>592.6</ele>
        <time>2021-12-29T14:05:58.000Z</time>
      </trkpt>
      <trkpt lat="43.04518" lon="-0.75556">
        <ele>592.2</ele>
        <time>2021-12-29T14:05:59.000Z</time>
      </trkpt>
      <trkpt lat="43.04521" lon="-0.75557">
        <ele>591.8</ele>
        <time>2021-12-29T14:06:00.000Z</time>
      </trkpt>
      <trkpt lat="43.04524" lon="-0.75558">
        <ele>591.4</ele>
        <time>2021-12-29T14:06:01.000Z</time>
      </trkpt>
      <trkpt lat="43.04526" lon="-0.75558">
        <ele>590.6</ele>
        <time>2021-12-29T14:06:02.000Z</time>
      </trkpt>
      <trkpt lat="43.04528" lon="-0.7556">
        <ele>590</ele>
        <time>2021-12-29T14:06:03.000Z</time>
      </trkpt>
      <trkpt lat="43.0453" lon="-0.75561">
        <ele>589.6</ele>
        <time>2021-12-29T14:06:04.000Z</time>
      </trkpt>
      <trkpt lat="43.04532" lon="-0.75561">
        <ele>589.6</ele>
        <time>2021-12-29T14:06:05.000Z</time>
      </trkpt>
      <trkpt lat="43.04532" lon="-0.75561">
        <ele>589.4</ele>
        <time>2021-12-29T14:06:06.000Z</time>
      </trkpt>
      <trkpt lat="43.04532" lon="-0.7556">
        <ele>589.4</ele>
        <time>2021-12-29T14:06:07.000Z</time>
      </trkpt>
      <trkpt lat="43.04533" lon="-0.75559">
        <ele>589.2</ele>
        <time>2021-12-29T14:06:08.000Z</time>
      </trkpt>
      <trkpt lat="43.04534" lon="-0.75558">
        <ele>589.2</ele>
        <time>2021-12-29T14:06:09.000Z</time>
      </trkpt>
      <trkpt lat="43.04534" lon="-0.75558">
        <ele>589</ele>
        <time>2021-12-29T14:06:10.000Z</time>
      </trkpt>
      <trkpt lat="43.04535" lon="-0.7556">
        <ele>588.6</ele>
        <time>2021-12-29T14:06:11.000Z</time>
      </trkpt>
      <trkpt lat="43.04535" lon="-0.75561">
        <ele>588.2</ele>
        <time>2021-12-29T14:06:12.000Z</time>
      </trkpt>
      <trkpt lat="43.04535" lon="-0.75561">
        <ele>588</ele>
        <time>2021-12-29T14:06:13.000Z</time>
      </trkpt>
      <trkpt lat="43.04535" lon="-0.75562">
        <ele>587.4</ele>
        <time>2021-12-29T14:06:14.000Z</time>
      </trkpt>
      <trkpt lat="43.04534" lon="-0.75561">
        <ele>586.4</ele>
        <time>2021-12-29T14:06:15.000Z</time>
      </trkpt>
      <trkpt lat="43.04534" lon="-0.7556">
        <ele>585.4</ele>
        <time>2021-12-29T14:06:21.000Z</time>
      </trkpt>
      <trkpt lat="43.04546" lon="-0.75549">
        <ele>579.2</ele>
        <time>2021-12-29T14:06:22.000Z</time>
      </trkpt>
      <trkpt lat="43.04548" lon="-0.75546">
        <ele>578.4</ele>
        <time>2021-12-29T14:06:23.000Z</time>
      </trkpt>
      <trkpt lat="43.0455" lon="-0.75541">
        <ele>577.4</ele>
        <time>2021-12-29T14:06:24.000Z</time>
      </trkpt>
      <trkpt lat="43.04553" lon="-0.75535">
        <ele>576.8</ele>
        <time>2021-12-29T14:06:25.000Z</time>
      </trkpt>
      <trkpt lat="43.04556" lon="-0.7553">
        <ele>575.8</ele>
        <time>2021-12-29T14:06:26.000Z</time>
      </trkpt>
      <trkpt lat="43.04559" lon="-0.75525">
        <ele>574.6</ele>
        <time>2021-12-29T14:06:27.000Z</time>
      </trkpt>
      <trkpt lat="43.04563" lon="-0.7552">
        <ele>573.6</ele>
        <time>2021-12-29T14:06:28.000Z</time>
      </trkpt>
      <trkpt lat="43.04567" lon="-0.75515">
        <ele>572.8</ele>
        <time>2021-12-29T14:06:29.000Z</time>
      </trkpt>
      <trkpt lat="43.04571" lon="-0.7551">
        <ele>572</ele>
        <time>2021-12-29T14:06:30.000Z</time>
      </trkpt>
      <trkpt lat="43.04575" lon="-0.75506">
        <ele>571.2</ele>
        <time>2021-12-29T14:06:31.000Z</time>
      </trkpt>
      <trkpt lat="43.04579" lon="-0.75501">
        <ele>570.6</ele>
        <time>2021-12-29T14:06:32.000Z</time>
      </trkpt>
      <trkpt lat="43.04583" lon="-0.75496">
        <ele>570.2</ele>
        <time>2021-12-29T14:06:33.000Z</time>
      </trkpt>
      <trkpt lat="43.04586" lon="-0.75489">
        <ele>569.6</ele>
        <time>2021-12-29T14:06:34.000Z</time>
      </trkpt>
      <trkpt lat="43.04588" lon="-0.75481">
        <ele>568.8</ele>
        <time>2021-12-29T14:06:35.000Z</time>
      </trkpt>
      <trkpt lat="43.04592" lon="-0.75474">
        <ele>568</ele>
        <time>2021-12-29T14:06:36.000Z</time>
      </trkpt>
      <trkpt lat="43.04595" lon="-0.75467">
        <ele>567.4</ele>
        <time>2021-12-29T14:06:37.000Z</time>
      </trkpt>
      <trkpt lat="43.04598" lon="-0.7546">
        <ele>567.2</ele>
        <time>2021-12-29T14:06:38.000Z</time>
      </trkpt>
      <trkpt lat="43.04601" lon="-0.75452">
        <ele>566.4</ele>
        <time>2021-12-29T14:06:39.000Z</time>
      </trkpt>
      <trkpt lat="43.04604" lon="-0.75445">
        <ele>565.8</ele>
        <time>2021-12-29T14:06:40.000Z</time>
      </trkpt>
      <trkpt lat="43.04607" lon="-0.75438">
        <ele>565</ele>
        <time>2021-12-29T14:06:41.000Z</time>
      </trkpt>
      <trkpt lat="43.04609" lon="-0.7543">
        <ele>564.4</ele>
        <time>2021-12-29T14:06:42.000Z</time>
      </trkpt>
      <trkpt lat="43.04611" lon="-0.75422">
        <ele>563.2</ele>
        <time>2021-12-29T14:06:43.000Z</time>
      </trkpt>
      <trkpt lat="43.04612" lon="-0.75413">
        <ele>562.4</ele>
        <time>2021-12-29T14:06:44.000Z</time>
      </trkpt>
      <trkpt lat="43.04613" lon="-0.75405">
        <ele>561.6</ele>
        <time>2021-12-29T14:06:45.000Z</time>
      </trkpt>
      <trkpt lat="43.04613" lon="-0.75399">
        <ele>560.8</ele>
        <time>2021-12-29T14:06:46.000Z</time>
      </trkpt>
      <trkpt lat="43.04613" lon="-0.75395">
        <ele>560.4</ele>
        <time>2021-12-29T14:06:47.000Z</time>
      </trkpt>
      <trkpt lat="43.04612" lon="-0.75393">
        <ele>560.4</ele>
        <time>2021-12-29T14:06:48.000Z</time>
      </trkpt>
      <trkpt lat="43.04613" lon="-0.75392">
        <ele>560.4</ele>
        <time>2021-12-29T14:06:49.000Z</time>
      </trkpt>
      <trkpt lat="43.04613" lon="-0.75392">
        <ele>560.2</ele>
        <time>2021-12-29T14:06:50.000Z</time>
      </trkpt>
      <trkpt lat="43.04613" lon="-0.75392">
        <ele>560.2</ele>
        <time>2021-12-29T14:06:51.000Z</time>
      </trkpt>
      <trkpt lat="43.04613" lon="-0.75391">
        <ele>560.2</ele>
        <time>2021-12-29T14:06:52.000Z</time>
      </trkpt>
      <trkpt lat="43.04613" lon="-0.75391">
        <ele>560.2</ele>
        <time>2021-12-29T14:06:53.000Z</time>
      </trkpt>
      <trkpt lat="43.04613" lon="-0.7539">
        <ele>560.2</ele>
        <time>2021-12-29T14:06:54.000Z</time>
      </trkpt>
      <trkpt lat="43.04614" lon="-0.75389">
        <ele>560.2</ele>
        <time>2021-12-29T14:06:55.000Z</time>
      </trkpt>
      <trkpt lat="43.04614" lon="-0.75388">
        <ele>560.2</ele>
        <time>2021-12-29T14:07:29.000Z</time>
      </trkpt>
      <trkpt lat="43.04603" lon="-0.75366">
        <ele>560.2</ele>
        <time>2021-12-29T14:07:30.000Z</time>
      </trkpt>
      <trkpt lat="43.04601" lon="-0.75366">
        <ele>560.4</ele>
        <time>2021-12-29T14:07:31.000Z</time>
      </trkpt>
      <trkpt lat="43.04599" lon="-0.75367">
        <ele>560.6</ele>
        <time>2021-12-29T14:07:32.000Z</time>
      </trkpt>
      <trkpt lat="43.04597" lon="-0.75367">
        <ele>560.8</ele>
        <time>2021-12-29T14:07:33.000Z</time>
      </trkpt>
      <trkpt lat="43.04595" lon="-0.75368">
        <ele>561</ele>
        <time>2021-12-29T14:07:34.000Z</time>
      </trkpt>
      <trkpt lat="43.04594" lon="-0.75369">
        <ele>561.2</ele>
        <time>2021-12-29T14:07:35.000Z</time>
      </trkpt>
      <trkpt lat="43.04592" lon="-0.7537">
        <ele>561.2</ele>
        <time>2021-12-29T14:07:36.000Z</time>
      </trkpt>
      <trkpt lat="43.04591" lon="-0.75371">
        <ele>561.2</ele>
        <time>2021-12-29T14:07:37.000Z</time>
      </trkpt>
      <trkpt lat="43.04589" lon="-0.75372">
        <ele>561.4</ele>
        <time>2021-12-29T14:07:38.000Z</time>
      </trkpt>
      <trkpt lat="43.04587" lon="-0.75373">
        <ele>561.6</ele>
        <time>2021-12-29T14:07:39.000Z</time>
      </trkpt>
      <trkpt lat="43.04585" lon="-0.75374">
        <ele>561.6</ele>
        <time>2021-12-29T14:07:40.000Z</time>
      </trkpt>
      <trkpt lat="43.04583" lon="-0.75375">
        <ele>561.8</ele>
        <time>2021-12-29T14:07:41.000Z</time>
      </trkpt>
      <trkpt lat="43.04581" lon="-0.75377">
        <ele>561.8</ele>
        <time>2021-12-29T14:07:42.000Z</time>
      </trkpt>
      <trkpt lat="43.04579" lon="-0.75379">
        <ele>562.2</ele>
        <time>2021-12-29T14:07:43.000Z</time>
      </trkpt>
      <trkpt lat="43.04577" lon="-0.7538">
        <ele>562.4</ele>
        <time>2021-12-29T14:07:44.000Z</time>
      </trkpt>
      <trkpt lat="43.04575" lon="-0.75382">
        <ele>562.4</ele>
        <time>2021-12-29T14:07:45.000Z</time>
      </trkpt>
      <trkpt lat="43.04573" lon="-0.75384">
        <ele>562.4</ele>
        <time>2021-12-29T14:07:46.000Z</time>
      </trkpt>
      <trkpt lat="43.04571" lon="-0.75386">
        <ele>562.2</ele>
        <time>2021-12-29T14:07:47.000Z</time>
      </trkpt>
      <trkpt lat="43.04568" lon="-0.75389">
        <ele>562</ele>
        <time>2021-12-29T14:07:48.000Z</time>
      </trkpt>
      <trkpt lat="43.04565" lon="-0.75392">
        <ele>561.6</ele>
        <time>2021-12-29T14:07:49.000Z</time>
      </trkpt>
      <trkpt lat="43.04562" lon="-0.75395">
        <ele>561.2</ele>
        <time>2021-12-29T14:07:50.000Z</time>
      </trkpt>
      <trkpt lat="43.04558" lon="-0.75399">
        <ele>560.6</ele>
        <time>2021-12-29T14:07:51.000Z</time>
      </trkpt>
      <trkpt lat="43.04554" lon="-0.75404">
        <ele>559.8</ele>
        <time>2021-12-29T14:07:52.000Z</time>
      </trkpt>
      <trkpt lat="43.0455" lon="-0.7541">
        <ele>559</ele>
        <time>2021-12-29T14:07:53.000Z</time>
      </trkpt>
      <trkpt lat="43.04546" lon="-0.75416">
        <ele>557.8</ele>
        <time>2021-12-29T14:07:54.000Z</time>
      </trkpt>
      <trkpt lat="43.04541" lon="-0.75422">
        <ele>556.6</ele>
        <time>2021-12-29T14:07:55.000Z</time>
      </trkpt>
      <trkpt lat="43.04536" lon="-0.75427">
        <ele>555.4</ele>
        <time>2021-12-29T14:07:56.000Z</time>
      </trkpt>
      <trkpt lat="43.0453" lon="-0.75433">
        <ele>554.8</ele>
        <time>2021-12-29T14:07:57.000Z</time>
      </trkpt>
      <trkpt lat="43.04524" lon="-0.75438">
        <ele>553.4</ele>
        <time>2021-12-29T14:07:58.000Z</time>
      </trkpt>
      <trkpt lat="43.04518" lon="-0.75443">
        <ele>552.2</ele>
        <time>2021-12-29T14:07:59.000Z</time>
      </trkpt>
      <trkpt lat="43.04512" lon="-0.75446">
        <ele>551</ele>
        <time>2021-12-29T14:08:00.000Z</time>
      </trkpt>
      <trkpt lat="43.04506" lon="-0.75449">
        <ele>549.6</ele>
        <time>2021-12-29T14:08:01.000Z</time>
      </trkpt>
      <trkpt lat="43.045" lon="-0.75452">
        <ele>548.6</ele>
        <time>2021-12-29T14:08:02.000Z</time>
      </trkpt>
      <trkpt lat="43.04496" lon="-0.75454">
        <ele>547.8</ele>
        <time>2021-12-29T14:08:03.000Z</time>
      </trkpt>
      <trkpt lat="43.04493" lon="-0.75455">
        <ele>546.6</ele>
        <time>2021-12-29T14:08:04.000Z</time>
      </trkpt>
      <trkpt lat="43.0449" lon="-0.75455">
        <ele>546</ele>
        <time>2021-12-29T14:08:05.000Z</time>
      </trkpt>
      <trkpt lat="43.04488" lon="-0.75455">
        <ele>545.6</ele>
        <time>2021-12-29T14:08:06.000Z</time>
      </trkpt>
      <trkpt lat="43.04486" lon="-0.75455">
        <ele>545.2</ele>
        <time>2021-12-29T14:08:07.000Z</time>
      </trkpt>
      <trkpt lat="43.04484" lon="-0.75456">
        <ele>544.8</ele>
        <time>2021-12-29T14:08:08.000Z</time>
      </trkpt>
      <trkpt lat="43.04483" lon="-0.75456">
        <ele>544.4</ele>
        <time>2021-12-29T14:08:09.000Z</time>
      </trkpt>
      <trkpt lat="43.04482" lon="-0.75456">
        <ele>544.2</ele>
        <time>2021-12-29T14:08:10.000Z</time>
      </trkpt>
      <trkpt lat="43.04482" lon="-0.75456">
        <ele>544.2</ele>
        <time>2021-12-29T14:08:11.000Z</time>
      </trkpt>
      <trkpt lat="43.04482" lon="-0.75456">
        <ele>544.2</ele>
        <time>2021-12-29T14:08:12.000Z</time>
      </trkpt>
      <trkpt lat="43.04481" lon="-0.75456">
        <ele>544.2</ele>
        <time>2021-12-29T14:08:13.000Z</time>
      </trkpt>
      <trkpt lat="43.04481" lon="-0.75457">
        <ele>544.2</ele>
        <time>2021-12-29T14:08:14.000Z</time>
      </trkpt>
      <trkpt lat="43.04481" lon="-0.75457">
        <ele>544</ele>
        <time>2021-12-29T14:08:15.000Z</time>
      </trkpt>
      <trkpt lat="43.04481" lon="-0.75457">
        <ele>544</ele>
        <time>2021-12-29T14:08:16.000Z</time>
      </trkpt>
      <trkpt lat="43.04481" lon="-0.75457">
        <ele>544</ele>
        <time>2021-12-29T14:08:17.000Z</time>
      </trkpt>
      <trkpt lat="43.04481" lon="-0.75457">
        <ele>544</ele>
        <time>2021-12-29T14:13:29.000Z</time>
      </trkpt>
      <trkpt lat="43.04472" lon="-0.75342">
        <ele>509.4</ele>
        <time>2021-12-29T14:13:30.000Z</time>
      </trkpt>
      <trkpt lat="43.04473" lon="-0.7534">
        <ele>509.2</ele>
        <time>2021-12-29T14:13:31.000Z</time>
      </trkpt>
      <trkpt lat="43.04473" lon="-0.75338">
        <ele>509</ele>
        <time>2021-12-29T14:13:32.000Z</time>
      </trkpt>
      <trkpt lat="43.04473" lon="-0.75336">
        <ele>508.8</ele>
        <time>2021-12-29T14:13:33.000Z</time>
      </trkpt>
      <trkpt lat="43.04472" lon="-0.75334">
        <ele>508.6</ele>
        <time>2021-12-29T14:13:34.000Z</time>
      </trkpt>
      <trkpt lat="43.04472" lon="-0.75331">
        <ele>508.2</ele>
        <time>2021-12-29T14:13:35.000Z</time>
      </trkpt>
      <trkpt lat="43.04473" lon="-0.75328">
        <ele>508</ele>
        <time>2021-12-29T14:13:36.000Z</time>
      </trkpt>
      <trkpt lat="43.04473" lon="-0.75325">
        <ele>507.6</ele>
        <time>2021-12-29T14:13:37.000Z</time>
      </trkpt>
      <trkpt lat="43.04474" lon="-0.75322">
        <ele>507.4</ele>
        <time>2021-12-29T14:13:38.000Z</time>
      </trkpt>
      <trkpt lat="43.04475" lon="-0.75318">
        <ele>507.2</ele>
        <time>2021-12-29T14:13:39.000Z</time>
      </trkpt>
      <trkpt lat="43.04476" lon="-0.75315">
        <ele>507</ele>
        <time>2021-12-29T14:13:40.000Z</time>
      </trkpt>
      <trkpt lat="43.04478" lon="-0.75312">
        <ele>506.6</ele>
        <time>2021-12-29T14:13:41.000Z</time>
      </trkpt>
      <trkpt lat="43.04479" lon="-0.7531">
        <ele>506.4</ele>
        <time>2021-12-29T14:13:42.000Z</time>
      </trkpt>
      <trkpt lat="43.04481" lon="-0.75307">
        <ele>506.4</ele>
        <time>2021-12-29T14:13:43.000Z</time>
      </trkpt>
      <trkpt lat="43.04483" lon="-0.75303">
        <ele>506.2</ele>
        <time>2021-12-29T14:13:44.000Z</time>
      </trkpt>
      <trkpt lat="43.04485" lon="-0.753">
        <ele>506.2</ele>
        <time>2021-12-29T14:13:45.000Z</time>
      </trkpt>
      <trkpt lat="43.04487" lon="-0.75296">
        <ele>506</ele>
        <time>2021-12-29T14:13:46.000Z</time>
      </trkpt>
      <trkpt lat="43.04489" lon="-0.75292">
        <ele>505.8</ele>
        <time>2021-12-29T14:13:47.000Z</time>
      </trkpt>
      <trkpt lat="43.04491" lon="-0.75289">
        <ele>505.6</ele>
        <time>2021-12-29T14:13:48.000Z</time>
      </trkpt>
      <trkpt lat="43.04494" lon="-0.75285">
        <ele>505.4</ele>
        <time>2021-12-29T14:13:49.000Z</time>
      </trkpt>
      <trkpt lat="43.04497" lon="-0.75281">
        <ele>505</ele>
        <time>2021-12-29T14:13:50.000Z</time>
      </trkpt>
      <trkpt lat="43.045" lon="-0.75278">
        <ele>504.8</ele>
        <time>2021-12-29T14:13:51.000Z</time>
      </trkpt>
      <trkpt lat="43.04502" lon="-0.75274">
        <ele>504.6</ele>
        <time>2021-12-29T14:13:52.000Z</time>
      </trkpt>
      <trkpt lat="43.04504" lon="-0.7527">
        <ele>504.4</ele>
        <time>2021-12-29T14:13:53.000Z</time>
      </trkpt>
      <trkpt lat="43.04506" lon="-0.75267">
        <ele>504.4</ele>
        <time>2021-12-29T14:13:54.000Z</time>
      </trkpt>
      <trkpt lat="43.04507" lon="-0.75263">
        <ele>504.4</ele>
        <time>2021-12-29T14:13:55.000Z</time>
      </trkpt>
      <trkpt lat="43.04508" lon="-0.75261">
        <ele>504.2</ele>
        <time>2021-12-29T14:13:56.000Z</time>
      </trkpt>
      <trkpt lat="43.04507" lon="-0.7526">
        <ele>504.2</ele>
        <time>2021-12-29T14:13:57.000Z</time>
      </trkpt>
      <trkpt lat="43.04507" lon="-0.75258">
        <ele>504.2</ele>
        <time>2021-12-29T14:13:58.000Z</time>
      </trkpt>
      <trkpt lat="43.04506" lon="-0.75257">
        <ele>504</ele>
        <time>2021-12-29T14:13:59.000Z</time>
      </trkpt>
      <trkpt lat="43.04506" lon="-0.75256">
        <ele>504</ele>
        <time>2021-12-29T14:14:00.000Z</time>
      </trkpt>
      <trkpt lat="43.04506" lon="-0.75256">
        <ele>504</ele>
        <time>2021-12-29T14:14:01.000Z</time>
      </trkpt>
      <trkpt lat="43.04506" lon="-0.75257">
        <ele>504</ele>
        <time>2021-12-29T14:14:02.000Z</time>
      </trkpt>
      <trkpt lat="43.04507" lon="-0.75256">
        <ele>504</ele>
        <time>2021-12-29T14:14:03.000Z</time>
      </trkpt>
      <trkpt lat="43.04507" lon="-0.75256">
        <ele>503.8</ele>
        <time>2021-12-29T14:14:04.000Z</time>
      </trkpt>
      <trkpt lat="43.04508" lon="-0.75255">
        <ele>503.8</ele>
        <time>2021-12-29T14:14:05.000Z</time>
      </trkpt>
      <trkpt lat="43.04508" lon="-0.75255">
        <ele>503.8</ele>
        <time>2021-12-29T14:14:06.000Z</time>
      </trkpt>
      <trkpt lat="43.04508" lon="-0.75255">
        <ele>503.8</ele>
        <time>2021-12-29T14:14:07.000Z</time>
      </trkpt>
    </trkseg>
  </trk>
</gpx>